<?xml version="1.0" encoding="UTF-8" standalone="no" ?>
<gpx xmlns="http://www.topografix.com/GPX/1/1" xmlns:xsi="http://www.w3.org/2001/XMLSchema-instance" xsi:schemaLocation="http://www.topografix.com/GPX/1/1 http://www.topografix.com/GPX/1/1/gpx.xsd" version="1.1" creator="VisuGPX - https://www.visugpx.com">
  <metadata>
    <name>Nîmes-Carcassonne 5: Valras-Plage -&gt; Narbonne</name>
  </metadata>
  <trk>
    <name><![CDATA[gpxtrack714505977622702870.gpx]]></name>
    <extensions>
      <line xmlns="http://www.topografix.com/GPX/gpx_style/0/2">
        <color>0000FF</color>
        <width>4</width>
      </line>
    </extensions>
    <trkseg>
      <trkpt lat="43.24367" lon="3.28091">
        <ele>54</ele>
        <time>2026-02-22T08:17:35Z</time>
      </trkpt>
      <trkpt lat="43.24364" lon="3.28083">
        <ele>54</ele>
        <time>2026-02-22T08:17:37Z</time>
      </trkpt>
      <trkpt lat="43.24362" lon="3.28081">
        <ele>54</ele>
        <time>2026-02-22T08:17:39Z</time>
      </trkpt>
      <trkpt lat="43.24362" lon="3.2808">
        <ele>54</ele>
        <time>2026-02-22T08:17:41Z</time>
      </trkpt>
      <trkpt lat="43.24362" lon="3.2808">
        <ele>54</ele>
        <time>2026-02-22T08:17:43Z</time>
      </trkpt>
      <trkpt lat="43.24362" lon="3.28079">
        <ele>54</ele>
        <time>2026-02-22T08:17:45Z</time>
      </trkpt>
      <trkpt lat="43.24363" lon="3.28079">
        <ele>54</ele>
        <time>2026-02-22T08:17:47Z</time>
      </trkpt>
      <trkpt lat="43.24363" lon="3.28079">
        <ele>54</ele>
        <time>2026-02-22T08:17:49Z</time>
      </trkpt>
      <trkpt lat="43.24363" lon="3.28079">
        <ele>54</ele>
        <time>2026-02-22T08:17:51Z</time>
      </trkpt>
      <trkpt lat="43.24363" lon="3.28079">
        <ele>54</ele>
        <time>2026-02-22T08:17:53Z</time>
      </trkpt>
      <trkpt lat="43.24363" lon="3.28079">
        <ele>54</ele>
        <time>2026-02-22T08:17:55Z</time>
      </trkpt>
      <trkpt lat="43.24363" lon="3.28079">
        <ele>54</ele>
        <time>2026-02-22T08:17:57Z</time>
      </trkpt>
      <trkpt lat="43.24363" lon="3.28079">
        <ele>54</ele>
        <time>2026-02-22T08:17:59Z</time>
      </trkpt>
      <trkpt lat="43.24363" lon="3.28078">
        <ele>54</ele>
        <time>2026-02-22T08:18:01Z</time>
      </trkpt>
      <trkpt lat="43.24363" lon="3.28078">
        <ele>54</ele>
        <time>2026-02-22T08:18:03Z</time>
      </trkpt>
      <trkpt lat="43.24362" lon="3.28078">
        <ele>54</ele>
        <time>2026-02-22T08:18:05Z</time>
      </trkpt>
      <trkpt lat="43.24363" lon="3.28079">
        <ele>54</ele>
        <time>2026-02-22T08:18:07Z</time>
      </trkpt>
      <trkpt lat="43.24362" lon="3.28077">
        <ele>54</ele>
        <time>2026-02-22T08:18:09Z</time>
      </trkpt>
      <trkpt lat="43.24361" lon="3.28076">
        <ele>54</ele>
        <time>2026-02-22T08:18:11Z</time>
      </trkpt>
      <trkpt lat="43.2436" lon="3.28074">
        <ele>54</ele>
        <time>2026-02-22T08:18:13Z</time>
      </trkpt>
      <trkpt lat="43.24359" lon="3.28071">
        <ele>54</ele>
        <time>2026-02-22T08:18:15Z</time>
      </trkpt>
      <trkpt lat="43.24357" lon="3.28068">
        <ele>54</ele>
        <time>2026-02-22T08:18:17Z</time>
      </trkpt>
      <trkpt lat="43.24354" lon="3.28065">
        <ele>54</ele>
        <time>2026-02-22T08:18:19Z</time>
      </trkpt>
      <trkpt lat="43.24351" lon="3.28065">
        <ele>54</ele>
        <time>2026-02-22T08:18:21Z</time>
      </trkpt>
      <trkpt lat="43.24347" lon="3.28068">
        <ele>54</ele>
        <time>2026-02-22T08:18:23Z</time>
      </trkpt>
      <trkpt lat="43.24344" lon="3.28072">
        <ele>54</ele>
        <time>2026-02-22T08:18:25Z</time>
      </trkpt>
      <trkpt lat="43.2434" lon="3.28076">
        <ele>54</ele>
        <time>2026-02-22T08:18:27Z</time>
      </trkpt>
      <trkpt lat="43.24337" lon="3.2808">
        <ele>54</ele>
        <time>2026-02-22T08:18:29Z</time>
      </trkpt>
      <trkpt lat="43.24334" lon="3.28085">
        <ele>54</ele>
        <time>2026-02-22T08:18:31Z</time>
      </trkpt>
      <trkpt lat="43.24331" lon="3.28089">
        <ele>54</ele>
        <time>2026-02-22T08:18:33Z</time>
      </trkpt>
      <trkpt lat="43.24329" lon="3.28094">
        <ele>54</ele>
        <time>2026-02-22T08:18:35Z</time>
      </trkpt>
      <trkpt lat="43.24326" lon="3.28098">
        <ele>54</ele>
        <time>2026-02-22T08:18:37Z</time>
      </trkpt>
      <trkpt lat="43.24323" lon="3.28102">
        <ele>54</ele>
        <time>2026-02-22T08:18:39Z</time>
      </trkpt>
      <trkpt lat="43.24321" lon="3.28105">
        <ele>54</ele>
        <time>2026-02-22T08:18:41Z</time>
      </trkpt>
      <trkpt lat="43.2432" lon="3.28104">
        <ele>54</ele>
        <time>2026-02-22T08:18:43Z</time>
      </trkpt>
      <trkpt lat="43.24315" lon="3.281">
        <ele>54</ele>
        <time>2026-02-22T08:18:45Z</time>
      </trkpt>
      <trkpt lat="43.24309" lon="3.28097">
        <ele>54</ele>
        <time>2026-02-22T08:18:47Z</time>
      </trkpt>
      <trkpt lat="43.24303" lon="3.28094">
        <ele>54</ele>
        <time>2026-02-22T08:18:49Z</time>
      </trkpt>
      <trkpt lat="43.24298" lon="3.28091">
        <ele>54</ele>
        <time>2026-02-22T08:18:51Z</time>
      </trkpt>
      <trkpt lat="43.24294" lon="3.28086">
        <ele>54</ele>
        <time>2026-02-22T08:18:53Z</time>
      </trkpt>
      <trkpt lat="43.24289" lon="3.2808">
        <ele>54</ele>
        <time>2026-02-22T08:18:55Z</time>
      </trkpt>
      <trkpt lat="43.24285" lon="3.28073">
        <ele>54</ele>
        <time>2026-02-22T08:18:57Z</time>
      </trkpt>
      <trkpt lat="43.24281" lon="3.28066">
        <ele>54</ele>
        <time>2026-02-22T08:18:59Z</time>
      </trkpt>
      <trkpt lat="43.24278" lon="3.28059">
        <ele>54</ele>
        <time>2026-02-22T08:19:01Z</time>
      </trkpt>
      <trkpt lat="43.24275" lon="3.28052">
        <ele>54</ele>
        <time>2026-02-22T08:19:03Z</time>
      </trkpt>
      <trkpt lat="43.24271" lon="3.28044">
        <ele>54</ele>
        <time>2026-02-22T08:19:05Z</time>
      </trkpt>
      <trkpt lat="43.24267" lon="3.28036">
        <ele>54</ele>
        <time>2026-02-22T08:19:07Z</time>
      </trkpt>
      <trkpt lat="43.24264" lon="3.28029">
        <ele>54</ele>
        <time>2026-02-22T08:19:09Z</time>
      </trkpt>
      <trkpt lat="43.2426" lon="3.28021">
        <ele>54</ele>
        <time>2026-02-22T08:19:11Z</time>
      </trkpt>
      <trkpt lat="43.24257" lon="3.28014">
        <ele>54</ele>
        <time>2026-02-22T08:19:13Z</time>
      </trkpt>
      <trkpt lat="43.24254" lon="3.28007">
        <ele>54</ele>
        <time>2026-02-22T08:19:15Z</time>
      </trkpt>
      <trkpt lat="43.24251" lon="3.28001">
        <ele>54</ele>
        <time>2026-02-22T08:19:17Z</time>
      </trkpt>
      <trkpt lat="43.24249" lon="3.27996">
        <ele>54</ele>
        <time>2026-02-22T08:19:19Z</time>
      </trkpt>
      <trkpt lat="43.24246" lon="3.27991">
        <ele>54</ele>
        <time>2026-02-22T08:19:21Z</time>
      </trkpt>
      <trkpt lat="43.24244" lon="3.27986">
        <ele>54</ele>
        <time>2026-02-22T08:19:23Z</time>
      </trkpt>
      <trkpt lat="43.24244" lon="3.27978">
        <ele>54</ele>
        <time>2026-02-22T08:19:25Z</time>
      </trkpt>
      <trkpt lat="43.24242" lon="3.27971">
        <ele>54</ele>
        <time>2026-02-22T08:19:27Z</time>
      </trkpt>
      <trkpt lat="43.24238" lon="3.27964">
        <ele>54</ele>
        <time>2026-02-22T08:19:29Z</time>
      </trkpt>
      <trkpt lat="43.24234" lon="3.27956">
        <ele>54</ele>
        <time>2026-02-22T08:19:31Z</time>
      </trkpt>
      <trkpt lat="43.2423" lon="3.27948">
        <ele>54</ele>
        <time>2026-02-22T08:19:33Z</time>
      </trkpt>
      <trkpt lat="43.24225" lon="3.2794">
        <ele>54</ele>
        <time>2026-02-22T08:19:35Z</time>
      </trkpt>
      <trkpt lat="43.24221" lon="3.27932">
        <ele>54</ele>
        <time>2026-02-22T08:19:37Z</time>
      </trkpt>
      <trkpt lat="43.24217" lon="3.27924">
        <ele>54</ele>
        <time>2026-02-22T08:19:39Z</time>
      </trkpt>
      <trkpt lat="43.24213" lon="3.27915">
        <ele>54</ele>
        <time>2026-02-22T08:19:41Z</time>
      </trkpt>
      <trkpt lat="43.2421" lon="3.27907">
        <ele>54</ele>
        <time>2026-02-22T08:19:43Z</time>
      </trkpt>
      <trkpt lat="43.24206" lon="3.27898">
        <ele>54</ele>
        <time>2026-02-22T08:19:45Z</time>
      </trkpt>
      <trkpt lat="43.24202" lon="3.27889">
        <ele>54</ele>
        <time>2026-02-22T08:19:47Z</time>
      </trkpt>
      <trkpt lat="43.24198" lon="3.2788">
        <ele>54</ele>
        <time>2026-02-22T08:19:49Z</time>
      </trkpt>
      <trkpt lat="43.24195" lon="3.27871">
        <ele>54</ele>
        <time>2026-02-22T08:19:51Z</time>
      </trkpt>
      <trkpt lat="43.24191" lon="3.27862">
        <ele>54</ele>
        <time>2026-02-22T08:19:53Z</time>
      </trkpt>
      <trkpt lat="43.24187" lon="3.27854">
        <ele>54</ele>
        <time>2026-02-22T08:19:55Z</time>
      </trkpt>
      <trkpt lat="43.24182" lon="3.27845">
        <ele>54</ele>
        <time>2026-02-22T08:19:57Z</time>
      </trkpt>
      <trkpt lat="43.24177" lon="3.27837">
        <ele>54</ele>
        <time>2026-02-22T08:19:59Z</time>
      </trkpt>
      <trkpt lat="43.24172" lon="3.2783">
        <ele>54</ele>
        <time>2026-02-22T08:20:01Z</time>
      </trkpt>
      <trkpt lat="43.24167" lon="3.27822">
        <ele>54</ele>
        <time>2026-02-22T08:20:03Z</time>
      </trkpt>
      <trkpt lat="43.24162" lon="3.27815">
        <ele>54</ele>
        <time>2026-02-22T08:20:05Z</time>
      </trkpt>
      <trkpt lat="43.24157" lon="3.27809">
        <ele>54</ele>
        <time>2026-02-22T08:20:07Z</time>
      </trkpt>
      <trkpt lat="43.24152" lon="3.27803">
        <ele>54</ele>
        <time>2026-02-22T08:20:09Z</time>
      </trkpt>
      <trkpt lat="43.24147" lon="3.27796">
        <ele>54</ele>
        <time>2026-02-22T08:20:11Z</time>
      </trkpt>
      <trkpt lat="43.24142" lon="3.27789">
        <ele>54</ele>
        <time>2026-02-22T08:20:13Z</time>
      </trkpt>
      <trkpt lat="43.24136" lon="3.27783">
        <ele>54</ele>
        <time>2026-02-22T08:20:15Z</time>
      </trkpt>
      <trkpt lat="43.24131" lon="3.27776">
        <ele>54</ele>
        <time>2026-02-22T08:20:17Z</time>
      </trkpt>
      <trkpt lat="43.24126" lon="3.2777">
        <ele>54</ele>
        <time>2026-02-22T08:20:19Z</time>
      </trkpt>
      <trkpt lat="43.24121" lon="3.27763">
        <ele>54</ele>
        <time>2026-02-22T08:20:21Z</time>
      </trkpt>
      <trkpt lat="43.24116" lon="3.27756">
        <ele>54</ele>
        <time>2026-02-22T08:20:23Z</time>
      </trkpt>
      <trkpt lat="43.24111" lon="3.27749">
        <ele>54</ele>
        <time>2026-02-22T08:20:25Z</time>
      </trkpt>
      <trkpt lat="43.24106" lon="3.27743">
        <ele>54</ele>
        <time>2026-02-22T08:20:27Z</time>
      </trkpt>
      <trkpt lat="43.24101" lon="3.27736">
        <ele>54</ele>
        <time>2026-02-22T08:20:29Z</time>
      </trkpt>
      <trkpt lat="43.24096" lon="3.27728">
        <ele>54</ele>
        <time>2026-02-22T08:20:31Z</time>
      </trkpt>
      <trkpt lat="43.24091" lon="3.27721">
        <ele>49</ele>
        <time>2026-02-22T08:20:33Z</time>
      </trkpt>
      <trkpt lat="43.24085" lon="3.27714">
        <ele>49</ele>
        <time>2026-02-22T08:20:35Z</time>
      </trkpt>
      <trkpt lat="43.24079" lon="3.27707">
        <ele>49</ele>
        <time>2026-02-22T08:20:37Z</time>
      </trkpt>
      <trkpt lat="43.24073" lon="3.277">
        <ele>49</ele>
        <time>2026-02-22T08:20:39Z</time>
      </trkpt>
      <trkpt lat="43.24067" lon="3.27693">
        <ele>48</ele>
        <time>2026-02-22T08:20:41Z</time>
      </trkpt>
      <trkpt lat="43.24061" lon="3.27685">
        <ele>48</ele>
        <time>2026-02-22T08:20:43Z</time>
      </trkpt>
      <trkpt lat="43.24054" lon="3.27678">
        <ele>48</ele>
        <time>2026-02-22T08:20:45Z</time>
      </trkpt>
      <trkpt lat="43.24047" lon="3.27671">
        <ele>48</ele>
        <time>2026-02-22T08:20:47Z</time>
      </trkpt>
      <trkpt lat="43.24041" lon="3.27664">
        <ele>48</ele>
        <time>2026-02-22T08:20:49Z</time>
      </trkpt>
      <trkpt lat="43.24035" lon="3.27658">
        <ele>48</ele>
        <time>2026-02-22T08:20:51Z</time>
      </trkpt>
      <trkpt lat="43.24029" lon="3.2765">
        <ele>48</ele>
        <time>2026-02-22T08:20:53Z</time>
      </trkpt>
      <trkpt lat="43.24024" lon="3.27642">
        <ele>48</ele>
        <time>2026-02-22T08:20:55Z</time>
      </trkpt>
      <trkpt lat="43.24018" lon="3.27633">
        <ele>48</ele>
        <time>2026-02-22T08:20:57Z</time>
      </trkpt>
      <trkpt lat="43.24013" lon="3.27625">
        <ele>49</ele>
        <time>2026-02-22T08:20:59Z</time>
      </trkpt>
      <trkpt lat="43.24008" lon="3.27617">
        <ele>49</ele>
        <time>2026-02-22T08:21:01Z</time>
      </trkpt>
      <trkpt lat="43.24003" lon="3.2761">
        <ele>49</ele>
        <time>2026-02-22T08:21:03Z</time>
      </trkpt>
      <trkpt lat="43.23998" lon="3.27602">
        <ele>49</ele>
        <time>2026-02-22T08:21:05Z</time>
      </trkpt>
      <trkpt lat="43.23992" lon="3.27595">
        <ele>49</ele>
        <time>2026-02-22T08:21:07Z</time>
      </trkpt>
      <trkpt lat="43.23986" lon="3.27589">
        <ele>49</ele>
        <time>2026-02-22T08:21:09Z</time>
      </trkpt>
      <trkpt lat="43.2398" lon="3.27582">
        <ele>49</ele>
        <time>2026-02-22T08:21:11Z</time>
      </trkpt>
      <trkpt lat="43.23977" lon="3.27579">
        <ele>49</ele>
        <time>2026-02-22T08:21:12Z</time>
      </trkpt>
      <trkpt lat="43.23974" lon="3.27576">
        <ele>49</ele>
        <time>2026-02-22T08:21:13Z</time>
      </trkpt>
      <trkpt lat="43.23971" lon="3.27573">
        <ele>49</ele>
        <time>2026-02-22T08:21:14Z</time>
      </trkpt>
      <trkpt lat="43.23968" lon="3.27569">
        <ele>49</ele>
        <time>2026-02-22T08:21:15Z</time>
      </trkpt>
      <trkpt lat="43.23961" lon="3.27563">
        <ele>49</ele>
        <time>2026-02-22T08:21:17Z</time>
      </trkpt>
      <trkpt lat="43.23954" lon="3.27558">
        <ele>48</ele>
        <time>2026-02-22T08:21:19Z</time>
      </trkpt>
      <trkpt lat="43.23947" lon="3.27552">
        <ele>48</ele>
        <time>2026-02-22T08:21:21Z</time>
      </trkpt>
      <trkpt lat="43.23941" lon="3.27545">
        <ele>48</ele>
        <time>2026-02-22T08:21:23Z</time>
      </trkpt>
      <trkpt lat="43.23935" lon="3.27538">
        <ele>48</ele>
        <time>2026-02-22T08:21:25Z</time>
      </trkpt>
      <trkpt lat="43.23928" lon="3.27531">
        <ele>48</ele>
        <time>2026-02-22T08:21:27Z</time>
      </trkpt>
      <trkpt lat="43.23925" lon="3.27527">
        <ele>49</ele>
        <time>2026-02-22T08:21:28Z</time>
      </trkpt>
      <trkpt lat="43.23923" lon="3.27524">
        <ele>49</ele>
        <time>2026-02-22T08:21:29Z</time>
      </trkpt>
      <trkpt lat="43.2392" lon="3.2752">
        <ele>49</ele>
        <time>2026-02-22T08:21:30Z</time>
      </trkpt>
      <trkpt lat="43.23917" lon="3.27517">
        <ele>49</ele>
        <time>2026-02-22T08:21:31Z</time>
      </trkpt>
      <trkpt lat="43.23913" lon="3.27508">
        <ele>49</ele>
        <time>2026-02-22T08:21:33Z</time>
      </trkpt>
      <trkpt lat="43.23909" lon="3.27499">
        <ele>49</ele>
        <time>2026-02-22T08:21:35Z</time>
      </trkpt>
      <trkpt lat="43.23905" lon="3.27491">
        <ele>48</ele>
        <time>2026-02-22T08:21:37Z</time>
      </trkpt>
      <trkpt lat="43.239" lon="3.27483">
        <ele>48</ele>
        <time>2026-02-22T08:21:39Z</time>
      </trkpt>
      <trkpt lat="43.23895" lon="3.27474">
        <ele>48</ele>
        <time>2026-02-22T08:21:41Z</time>
      </trkpt>
      <trkpt lat="43.23891" lon="3.27465">
        <ele>48</ele>
        <time>2026-02-22T08:21:43Z</time>
      </trkpt>
      <trkpt lat="43.23889" lon="3.27461">
        <ele>48</ele>
        <time>2026-02-22T08:21:44Z</time>
      </trkpt>
      <trkpt lat="43.23887" lon="3.27456">
        <ele>48</ele>
        <time>2026-02-22T08:21:45Z</time>
      </trkpt>
      <trkpt lat="43.23885" lon="3.27451">
        <ele>47</ele>
        <time>2026-02-22T08:21:46Z</time>
      </trkpt>
      <trkpt lat="43.23883" lon="3.27446">
        <ele>47</ele>
        <time>2026-02-22T08:21:47Z</time>
      </trkpt>
      <trkpt lat="43.23879" lon="3.27437">
        <ele>47</ele>
        <time>2026-02-22T08:21:49Z</time>
      </trkpt>
      <trkpt lat="43.23876" lon="3.27427">
        <ele>47</ele>
        <time>2026-02-22T08:21:51Z</time>
      </trkpt>
      <trkpt lat="43.23873" lon="3.27417">
        <ele>47</ele>
        <time>2026-02-22T08:21:53Z</time>
      </trkpt>
      <trkpt lat="43.23869" lon="3.27407">
        <ele>47</ele>
        <time>2026-02-22T08:21:55Z</time>
      </trkpt>
      <trkpt lat="43.23866" lon="3.27397">
        <ele>47</ele>
        <time>2026-02-22T08:21:57Z</time>
      </trkpt>
      <trkpt lat="43.23862" lon="3.27387">
        <ele>48</ele>
        <time>2026-02-22T08:21:59Z</time>
      </trkpt>
      <trkpt lat="43.2386" lon="3.27383">
        <ele>48</ele>
        <time>2026-02-22T08:22:00Z</time>
      </trkpt>
      <trkpt lat="43.23858" lon="3.27378">
        <ele>48</ele>
        <time>2026-02-22T08:22:01Z</time>
      </trkpt>
      <trkpt lat="43.23856" lon="3.27373">
        <ele>48</ele>
        <time>2026-02-22T08:22:02Z</time>
      </trkpt>
      <trkpt lat="43.23854" lon="3.27369">
        <ele>48</ele>
        <time>2026-02-22T08:22:03Z</time>
      </trkpt>
      <trkpt lat="43.2385" lon="3.2736">
        <ele>48</ele>
        <time>2026-02-22T08:22:05Z</time>
      </trkpt>
      <trkpt lat="43.23846" lon="3.27351">
        <ele>48</ele>
        <time>2026-02-22T08:22:07Z</time>
      </trkpt>
      <trkpt lat="43.23842" lon="3.27342">
        <ele>48</ele>
        <time>2026-02-22T08:22:09Z</time>
      </trkpt>
      <trkpt lat="43.23838" lon="3.27333">
        <ele>48</ele>
        <time>2026-02-22T08:22:11Z</time>
      </trkpt>
      <trkpt lat="43.23833" lon="3.27324">
        <ele>48</ele>
        <time>2026-02-22T08:22:13Z</time>
      </trkpt>
      <trkpt lat="43.23829" lon="3.27315">
        <ele>48</ele>
        <time>2026-02-22T08:22:15Z</time>
      </trkpt>
      <trkpt lat="43.23824" lon="3.27306">
        <ele>48</ele>
        <time>2026-02-22T08:22:17Z</time>
      </trkpt>
      <trkpt lat="43.23821" lon="3.27297">
        <ele>49</ele>
        <time>2026-02-22T08:22:19Z</time>
      </trkpt>
      <trkpt lat="43.23819" lon="3.27288">
        <ele>48</ele>
        <time>2026-02-22T08:22:21Z</time>
      </trkpt>
      <trkpt lat="43.23816" lon="3.27279">
        <ele>48</ele>
        <time>2026-02-22T08:22:23Z</time>
      </trkpt>
      <trkpt lat="43.23811" lon="3.27272">
        <ele>49</ele>
        <time>2026-02-22T08:22:25Z</time>
      </trkpt>
      <trkpt lat="43.23806" lon="3.27266">
        <ele>49</ele>
        <time>2026-02-22T08:22:27Z</time>
      </trkpt>
      <trkpt lat="43.23799" lon="3.27264">
        <ele>49</ele>
        <time>2026-02-22T08:22:29Z</time>
      </trkpt>
      <trkpt lat="43.23792" lon="3.2726">
        <ele>48</ele>
        <time>2026-02-22T08:22:31Z</time>
      </trkpt>
      <trkpt lat="43.23785" lon="3.27253">
        <ele>48</ele>
        <time>2026-02-22T08:22:33Z</time>
      </trkpt>
      <trkpt lat="43.23779" lon="3.27246">
        <ele>49</ele>
        <time>2026-02-22T08:22:35Z</time>
      </trkpt>
      <trkpt lat="43.23773" lon="3.2724">
        <ele>49</ele>
        <time>2026-02-22T08:22:37Z</time>
      </trkpt>
      <trkpt lat="43.23767" lon="3.27233">
        <ele>49</ele>
        <time>2026-02-22T08:22:39Z</time>
      </trkpt>
      <trkpt lat="43.23761" lon="3.27226">
        <ele>49</ele>
        <time>2026-02-22T08:22:41Z</time>
      </trkpt>
      <trkpt lat="43.23755" lon="3.27219">
        <ele>49</ele>
        <time>2026-02-22T08:22:43Z</time>
      </trkpt>
      <trkpt lat="43.23749" lon="3.27211">
        <ele>49</ele>
        <time>2026-02-22T08:22:45Z</time>
      </trkpt>
      <trkpt lat="43.23744" lon="3.27203">
        <ele>49</ele>
        <time>2026-02-22T08:22:47Z</time>
      </trkpt>
      <trkpt lat="43.23739" lon="3.27194">
        <ele>49</ele>
        <time>2026-02-22T08:22:49Z</time>
      </trkpt>
      <trkpt lat="43.23734" lon="3.27185">
        <ele>49</ele>
        <time>2026-02-22T08:22:51Z</time>
      </trkpt>
      <trkpt lat="43.2373" lon="3.27176">
        <ele>48</ele>
        <time>2026-02-22T08:22:53Z</time>
      </trkpt>
      <trkpt lat="43.23728" lon="3.27166">
        <ele>47</ele>
        <time>2026-02-22T08:22:55Z</time>
      </trkpt>
      <trkpt lat="43.23725" lon="3.27155">
        <ele>46</ele>
        <time>2026-02-22T08:22:57Z</time>
      </trkpt>
      <trkpt lat="43.23723" lon="3.27145">
        <ele>46</ele>
        <time>2026-02-22T08:22:59Z</time>
      </trkpt>
      <trkpt lat="43.23721" lon="3.27134">
        <ele>45</ele>
        <time>2026-02-22T08:23:01Z</time>
      </trkpt>
      <trkpt lat="43.23719" lon="3.27123">
        <ele>45</ele>
        <time>2026-02-22T08:23:03Z</time>
      </trkpt>
      <trkpt lat="43.23716" lon="3.27113">
        <ele>45</ele>
        <time>2026-02-22T08:23:05Z</time>
      </trkpt>
      <trkpt lat="43.23712" lon="3.27103">
        <ele>45</ele>
        <time>2026-02-22T08:23:07Z</time>
      </trkpt>
      <trkpt lat="43.23708" lon="3.27094">
        <ele>46</ele>
        <time>2026-02-22T08:23:09Z</time>
      </trkpt>
      <trkpt lat="43.23703" lon="3.27086">
        <ele>46</ele>
        <time>2026-02-22T08:23:11Z</time>
      </trkpt>
      <trkpt lat="43.23698" lon="3.27078">
        <ele>46</ele>
        <time>2026-02-22T08:23:13Z</time>
      </trkpt>
      <trkpt lat="43.23693" lon="3.27069">
        <ele>46</ele>
        <time>2026-02-22T08:23:15Z</time>
      </trkpt>
      <trkpt lat="43.23688" lon="3.27061">
        <ele>46</ele>
        <time>2026-02-22T08:23:17Z</time>
      </trkpt>
      <trkpt lat="43.23684" lon="3.27052">
        <ele>46</ele>
        <time>2026-02-22T08:23:19Z</time>
      </trkpt>
      <trkpt lat="43.23679" lon="3.27044">
        <ele>46</ele>
        <time>2026-02-22T08:23:21Z</time>
      </trkpt>
      <trkpt lat="43.23674" lon="3.27035">
        <ele>47</ele>
        <time>2026-02-22T08:23:23Z</time>
      </trkpt>
      <trkpt lat="43.23669" lon="3.27026">
        <ele>48</ele>
        <time>2026-02-22T08:23:25Z</time>
      </trkpt>
      <trkpt lat="43.23664" lon="3.27017">
        <ele>48</ele>
        <time>2026-02-22T08:23:27Z</time>
      </trkpt>
      <trkpt lat="43.2366" lon="3.27008">
        <ele>48</ele>
        <time>2026-02-22T08:23:29Z</time>
      </trkpt>
      <trkpt lat="43.23655" lon="3.27">
        <ele>47</ele>
        <time>2026-02-22T08:23:31Z</time>
      </trkpt>
      <trkpt lat="43.23651" lon="3.26991">
        <ele>47</ele>
        <time>2026-02-22T08:23:33Z</time>
      </trkpt>
      <trkpt lat="43.23646" lon="3.26982">
        <ele>47</ele>
        <time>2026-02-22T08:23:35Z</time>
      </trkpt>
      <trkpt lat="43.23642" lon="3.26973">
        <ele>47</ele>
        <time>2026-02-22T08:23:37Z</time>
      </trkpt>
      <trkpt lat="43.23638" lon="3.26965">
        <ele>47</ele>
        <time>2026-02-22T08:23:39Z</time>
      </trkpt>
      <trkpt lat="43.23633" lon="3.26956">
        <ele>47</ele>
        <time>2026-02-22T08:23:41Z</time>
      </trkpt>
      <trkpt lat="43.23629" lon="3.26947">
        <ele>47</ele>
        <time>2026-02-22T08:23:43Z</time>
      </trkpt>
      <trkpt lat="43.23625" lon="3.26938">
        <ele>47</ele>
        <time>2026-02-22T08:23:45Z</time>
      </trkpt>
      <trkpt lat="43.2362" lon="3.2693">
        <ele>47</ele>
        <time>2026-02-22T08:23:47Z</time>
      </trkpt>
      <trkpt lat="43.23616" lon="3.26922">
        <ele>47</ele>
        <time>2026-02-22T08:23:49Z</time>
      </trkpt>
      <trkpt lat="43.23612" lon="3.26915">
        <ele>47</ele>
        <time>2026-02-22T08:23:51Z</time>
      </trkpt>
      <trkpt lat="43.23609" lon="3.26908">
        <ele>47</ele>
        <time>2026-02-22T08:23:53Z</time>
      </trkpt>
      <trkpt lat="43.23609" lon="3.26901">
        <ele>47</ele>
        <time>2026-02-22T08:23:55Z</time>
      </trkpt>
      <trkpt lat="43.23612" lon="3.26894">
        <ele>48</ele>
        <time>2026-02-22T08:23:57Z</time>
      </trkpt>
      <trkpt lat="43.23617" lon="3.26888">
        <ele>49</ele>
        <time>2026-02-22T08:23:59Z</time>
      </trkpt>
      <trkpt lat="43.23622" lon="3.26881">
        <ele>50</ele>
        <time>2026-02-22T08:24:01Z</time>
      </trkpt>
      <trkpt lat="43.23626" lon="3.26874">
        <ele>50</ele>
        <time>2026-02-22T08:24:03Z</time>
      </trkpt>
      <trkpt lat="43.23631" lon="3.26867">
        <ele>50</ele>
        <time>2026-02-22T08:24:05Z</time>
      </trkpt>
      <trkpt lat="43.23636" lon="3.26861">
        <ele>50</ele>
        <time>2026-02-22T08:24:07Z</time>
      </trkpt>
      <trkpt lat="43.23641" lon="3.26854">
        <ele>50</ele>
        <time>2026-02-22T08:24:09Z</time>
      </trkpt>
      <trkpt lat="43.23646" lon="3.26847">
        <ele>50</ele>
        <time>2026-02-22T08:24:11Z</time>
      </trkpt>
      <trkpt lat="43.23651" lon="3.2684">
        <ele>49</ele>
        <time>2026-02-22T08:24:13Z</time>
      </trkpt>
      <trkpt lat="43.23656" lon="3.26832">
        <ele>50</ele>
        <time>2026-02-22T08:24:15Z</time>
      </trkpt>
      <trkpt lat="43.23661" lon="3.26825">
        <ele>49</ele>
        <time>2026-02-22T08:24:17Z</time>
      </trkpt>
      <trkpt lat="43.23666" lon="3.26818">
        <ele>49</ele>
        <time>2026-02-22T08:24:19Z</time>
      </trkpt>
      <trkpt lat="43.23671" lon="3.26811">
        <ele>49</ele>
        <time>2026-02-22T08:24:21Z</time>
      </trkpt>
      <trkpt lat="43.23675" lon="3.26803">
        <ele>49</ele>
        <time>2026-02-22T08:24:23Z</time>
      </trkpt>
      <trkpt lat="43.2368" lon="3.26795">
        <ele>49</ele>
        <time>2026-02-22T08:24:25Z</time>
      </trkpt>
      <trkpt lat="43.23685" lon="3.26788">
        <ele>49</ele>
        <time>2026-02-22T08:24:27Z</time>
      </trkpt>
      <trkpt lat="43.2369" lon="3.2678">
        <ele>49</ele>
        <time>2026-02-22T08:24:29Z</time>
      </trkpt>
      <trkpt lat="43.23694" lon="3.26772">
        <ele>49</ele>
        <time>2026-02-22T08:24:31Z</time>
      </trkpt>
      <trkpt lat="43.23698" lon="3.26765">
        <ele>50</ele>
        <time>2026-02-22T08:24:33Z</time>
      </trkpt>
      <trkpt lat="43.23702" lon="3.26758">
        <ele>49</ele>
        <time>2026-02-22T08:24:35Z</time>
      </trkpt>
      <trkpt lat="43.23706" lon="3.26751">
        <ele>49</ele>
        <time>2026-02-22T08:24:37Z</time>
      </trkpt>
      <trkpt lat="43.2371" lon="3.26744">
        <ele>49</ele>
        <time>2026-02-22T08:24:39Z</time>
      </trkpt>
      <trkpt lat="43.23715" lon="3.26737">
        <ele>50</ele>
        <time>2026-02-22T08:24:41Z</time>
      </trkpt>
      <trkpt lat="43.23719" lon="3.2673">
        <ele>50</ele>
        <time>2026-02-22T08:24:43Z</time>
      </trkpt>
      <trkpt lat="43.23723" lon="3.26723">
        <ele>50</ele>
        <time>2026-02-22T08:24:45Z</time>
      </trkpt>
      <trkpt lat="43.23727" lon="3.26715">
        <ele>50</ele>
        <time>2026-02-22T08:24:47Z</time>
      </trkpt>
      <trkpt lat="43.23731" lon="3.26708">
        <ele>49</ele>
        <time>2026-02-22T08:24:49Z</time>
      </trkpt>
      <trkpt lat="43.23736" lon="3.267">
        <ele>49</ele>
        <time>2026-02-22T08:24:51Z</time>
      </trkpt>
      <trkpt lat="43.2374" lon="3.26692">
        <ele>49</ele>
        <time>2026-02-22T08:24:53Z</time>
      </trkpt>
      <trkpt lat="43.23744" lon="3.26684">
        <ele>48</ele>
        <time>2026-02-22T08:24:55Z</time>
      </trkpt>
      <trkpt lat="43.23749" lon="3.26677">
        <ele>48</ele>
        <time>2026-02-22T08:24:57Z</time>
      </trkpt>
      <trkpt lat="43.23753" lon="3.26669">
        <ele>48</ele>
        <time>2026-02-22T08:24:59Z</time>
      </trkpt>
      <trkpt lat="43.23758" lon="3.26662">
        <ele>48</ele>
        <time>2026-02-22T08:25:01Z</time>
      </trkpt>
      <trkpt lat="43.23762" lon="3.26654">
        <ele>49</ele>
        <time>2026-02-22T08:25:03Z</time>
      </trkpt>
      <trkpt lat="43.23765" lon="3.26646">
        <ele>49</ele>
        <time>2026-02-22T08:25:05Z</time>
      </trkpt>
      <trkpt lat="43.23769" lon="3.26639">
        <ele>50</ele>
        <time>2026-02-22T08:25:07Z</time>
      </trkpt>
      <trkpt lat="43.23771" lon="3.2663">
        <ele>50</ele>
        <time>2026-02-22T08:25:09Z</time>
      </trkpt>
      <trkpt lat="43.23769" lon="3.26621">
        <ele>50</ele>
        <time>2026-02-22T08:25:11Z</time>
      </trkpt>
      <trkpt lat="43.23764" lon="3.26614">
        <ele>51</ele>
        <time>2026-02-22T08:25:13Z</time>
      </trkpt>
      <trkpt lat="43.23758" lon="3.26608">
        <ele>50</ele>
        <time>2026-02-22T08:25:15Z</time>
      </trkpt>
      <trkpt lat="43.23753" lon="3.26601">
        <ele>50</ele>
        <time>2026-02-22T08:25:17Z</time>
      </trkpt>
      <trkpt lat="43.23749" lon="3.26593">
        <ele>50</ele>
        <time>2026-02-22T08:25:19Z</time>
      </trkpt>
      <trkpt lat="43.23745" lon="3.26585">
        <ele>49</ele>
        <time>2026-02-22T08:25:21Z</time>
      </trkpt>
      <trkpt lat="43.2374" lon="3.26576">
        <ele>50</ele>
        <time>2026-02-22T08:25:23Z</time>
      </trkpt>
      <trkpt lat="43.23736" lon="3.26568">
        <ele>50</ele>
        <time>2026-02-22T08:25:25Z</time>
      </trkpt>
      <trkpt lat="43.23731" lon="3.2656">
        <ele>50</ele>
        <time>2026-02-22T08:25:27Z</time>
      </trkpt>
      <trkpt lat="43.23726" lon="3.26551">
        <ele>51</ele>
        <time>2026-02-22T08:25:29Z</time>
      </trkpt>
      <trkpt lat="43.23722" lon="3.26542">
        <ele>51</ele>
        <time>2026-02-22T08:25:31Z</time>
      </trkpt>
      <trkpt lat="43.23717" lon="3.26534">
        <ele>51</ele>
        <time>2026-02-22T08:25:33Z</time>
      </trkpt>
      <trkpt lat="43.23713" lon="3.26525">
        <ele>51</ele>
        <time>2026-02-22T08:25:35Z</time>
      </trkpt>
      <trkpt lat="43.23708" lon="3.26517">
        <ele>51</ele>
        <time>2026-02-22T08:25:37Z</time>
      </trkpt>
      <trkpt lat="43.23703" lon="3.26509">
        <ele>51</ele>
        <time>2026-02-22T08:25:39Z</time>
      </trkpt>
      <trkpt lat="43.23699" lon="3.26501">
        <ele>51</ele>
        <time>2026-02-22T08:25:41Z</time>
      </trkpt>
      <trkpt lat="43.23695" lon="3.26494">
        <ele>50</ele>
        <time>2026-02-22T08:25:43Z</time>
      </trkpt>
      <trkpt lat="43.23691" lon="3.26486">
        <ele>50</ele>
        <time>2026-02-22T08:25:45Z</time>
      </trkpt>
      <trkpt lat="43.23687" lon="3.26479">
        <ele>50</ele>
        <time>2026-02-22T08:25:47Z</time>
      </trkpt>
      <trkpt lat="43.23682" lon="3.26472">
        <ele>50</ele>
        <time>2026-02-22T08:25:49Z</time>
      </trkpt>
      <trkpt lat="43.23678" lon="3.26465">
        <ele>50</ele>
        <time>2026-02-22T08:25:51Z</time>
      </trkpt>
      <trkpt lat="43.23674" lon="3.26457">
        <ele>50</ele>
        <time>2026-02-22T08:25:53Z</time>
      </trkpt>
      <trkpt lat="43.23671" lon="3.26449">
        <ele>50</ele>
        <time>2026-02-22T08:25:55Z</time>
      </trkpt>
      <trkpt lat="43.23668" lon="3.2644">
        <ele>50</ele>
        <time>2026-02-22T08:25:57Z</time>
      </trkpt>
      <trkpt lat="43.23666" lon="3.26431">
        <ele>50</ele>
        <time>2026-02-22T08:25:59Z</time>
      </trkpt>
      <trkpt lat="43.23665" lon="3.26422">
        <ele>50</ele>
        <time>2026-02-22T08:26:01Z</time>
      </trkpt>
      <trkpt lat="43.23663" lon="3.26414">
        <ele>50</ele>
        <time>2026-02-22T08:26:03Z</time>
      </trkpt>
      <trkpt lat="43.23658" lon="3.26408">
        <ele>50</ele>
        <time>2026-02-22T08:26:05Z</time>
      </trkpt>
      <trkpt lat="43.23651" lon="3.26405">
        <ele>50</ele>
        <time>2026-02-22T08:26:07Z</time>
      </trkpt>
      <trkpt lat="43.23645" lon="3.26401">
        <ele>49</ele>
        <time>2026-02-22T08:26:09Z</time>
      </trkpt>
      <trkpt lat="43.2364" lon="3.26395">
        <ele>49</ele>
        <time>2026-02-22T08:26:11Z</time>
      </trkpt>
      <trkpt lat="43.23636" lon="3.26385">
        <ele>47</ele>
        <time>2026-02-22T08:26:13Z</time>
      </trkpt>
      <trkpt lat="43.23631" lon="3.26375">
        <ele>47</ele>
        <time>2026-02-22T08:26:15Z</time>
      </trkpt>
      <trkpt lat="43.23626" lon="3.26365">
        <ele>46</ele>
        <time>2026-02-22T08:26:17Z</time>
      </trkpt>
      <trkpt lat="43.23621" lon="3.26354">
        <ele>46</ele>
        <time>2026-02-22T08:26:19Z</time>
      </trkpt>
      <trkpt lat="43.23616" lon="3.26344">
        <ele>46</ele>
        <time>2026-02-22T08:26:21Z</time>
      </trkpt>
      <trkpt lat="43.23611" lon="3.26335">
        <ele>46</ele>
        <time>2026-02-22T08:26:23Z</time>
      </trkpt>
      <trkpt lat="43.23606" lon="3.26325">
        <ele>45</ele>
        <time>2026-02-22T08:26:25Z</time>
      </trkpt>
      <trkpt lat="43.236" lon="3.26315">
        <ele>45</ele>
        <time>2026-02-22T08:26:27Z</time>
      </trkpt>
      <trkpt lat="43.23594" lon="3.26306">
        <ele>45</ele>
        <time>2026-02-22T08:26:29Z</time>
      </trkpt>
      <trkpt lat="43.23588" lon="3.26297">
        <ele>45</ele>
        <time>2026-02-22T08:26:31Z</time>
      </trkpt>
      <trkpt lat="43.23583" lon="3.26288">
        <ele>45</ele>
        <time>2026-02-22T08:26:33Z</time>
      </trkpt>
      <trkpt lat="43.23577" lon="3.26279">
        <ele>45</ele>
        <time>2026-02-22T08:26:35Z</time>
      </trkpt>
      <trkpt lat="43.23572" lon="3.26271">
        <ele>45</ele>
        <time>2026-02-22T08:26:37Z</time>
      </trkpt>
      <trkpt lat="43.23567" lon="3.26264">
        <ele>45</ele>
        <time>2026-02-22T08:26:39Z</time>
      </trkpt>
      <trkpt lat="43.23562" lon="3.26258">
        <ele>45</ele>
        <time>2026-02-22T08:26:41Z</time>
      </trkpt>
      <trkpt lat="43.23558" lon="3.26251">
        <ele>45</ele>
        <time>2026-02-22T08:26:43Z</time>
      </trkpt>
      <trkpt lat="43.23553" lon="3.26245">
        <ele>45</ele>
        <time>2026-02-22T08:26:45Z</time>
      </trkpt>
      <trkpt lat="43.23549" lon="3.2624">
        <ele>45</ele>
        <time>2026-02-22T08:26:47Z</time>
      </trkpt>
      <trkpt lat="43.23545" lon="3.26235">
        <ele>45</ele>
        <time>2026-02-22T08:26:49Z</time>
      </trkpt>
      <trkpt lat="43.23542" lon="3.26231">
        <ele>45</ele>
        <time>2026-02-22T08:26:51Z</time>
      </trkpt>
      <trkpt lat="43.23541" lon="3.26229">
        <ele>44</ele>
        <time>2026-02-22T08:26:53Z</time>
      </trkpt>
      <trkpt lat="43.23541" lon="3.26229">
        <ele>45</ele>
        <time>2026-02-22T08:26:55Z</time>
      </trkpt>
      <trkpt lat="43.2354" lon="3.26229">
        <ele>45</ele>
        <time>2026-02-22T08:26:57Z</time>
      </trkpt>
      <trkpt lat="43.2354" lon="3.26229">
        <ele>45</ele>
        <time>2026-02-22T08:26:59Z</time>
      </trkpt>
      <trkpt lat="43.2354" lon="3.2623">
        <ele>46</ele>
        <time>2026-02-22T08:27:01Z</time>
      </trkpt>
      <trkpt lat="43.23541" lon="3.2623">
        <ele>46</ele>
        <time>2026-02-22T08:27:03Z</time>
      </trkpt>
      <trkpt lat="43.23541" lon="3.2623">
        <ele>46</ele>
        <time>2026-02-22T08:27:05Z</time>
      </trkpt>
      <trkpt lat="43.23541" lon="3.2623">
        <ele>46</ele>
        <time>2026-02-22T08:27:07Z</time>
      </trkpt>
      <trkpt lat="43.23541" lon="3.2623">
        <ele>46</ele>
        <time>2026-02-22T08:27:09Z</time>
      </trkpt>
      <trkpt lat="43.23541" lon="3.2623">
        <ele>46</ele>
        <time>2026-02-22T08:27:11Z</time>
      </trkpt>
      <trkpt lat="43.23541" lon="3.2623">
        <ele>46</ele>
        <time>2026-02-22T08:27:13Z</time>
      </trkpt>
      <trkpt lat="43.23541" lon="3.2623">
        <ele>46</ele>
        <time>2026-02-22T08:27:15Z</time>
      </trkpt>
      <trkpt lat="43.23541" lon="3.2623">
        <ele>46</ele>
        <time>2026-02-22T08:27:17Z</time>
      </trkpt>
      <trkpt lat="43.23541" lon="3.2623">
        <ele>46</ele>
        <time>2026-02-22T08:27:19Z</time>
      </trkpt>
      <trkpt lat="43.23541" lon="3.2623">
        <ele>46</ele>
        <time>2026-02-22T08:27:21Z</time>
      </trkpt>
      <trkpt lat="43.23541" lon="3.2623">
        <ele>46</ele>
        <time>2026-02-22T08:27:23Z</time>
      </trkpt>
      <trkpt lat="43.23541" lon="3.2623">
        <ele>46</ele>
        <time>2026-02-22T08:27:25Z</time>
      </trkpt>
      <trkpt lat="43.23541" lon="3.2623">
        <ele>46</ele>
        <time>2026-02-22T08:27:27Z</time>
      </trkpt>
      <trkpt lat="43.23541" lon="3.2623">
        <ele>46</ele>
        <time>2026-02-22T08:27:29Z</time>
      </trkpt>
      <trkpt lat="43.23541" lon="3.2623">
        <ele>46</ele>
        <time>2026-02-22T08:27:31Z</time>
      </trkpt>
      <trkpt lat="43.23541" lon="3.2623">
        <ele>46</ele>
        <time>2026-02-22T08:27:33Z</time>
      </trkpt>
      <trkpt lat="43.23541" lon="3.2623">
        <ele>46</ele>
        <time>2026-02-22T08:27:35Z</time>
      </trkpt>
      <trkpt lat="43.23541" lon="3.2623">
        <ele>46</ele>
        <time>2026-02-22T08:27:37Z</time>
      </trkpt>
      <trkpt lat="43.23541" lon="3.2623">
        <ele>46</ele>
        <time>2026-02-22T08:27:39Z</time>
      </trkpt>
      <trkpt lat="43.23541" lon="3.2623">
        <ele>46</ele>
        <time>2026-02-22T08:27:41Z</time>
      </trkpt>
      <trkpt lat="43.23541" lon="3.2623">
        <ele>46</ele>
        <time>2026-02-22T08:27:43Z</time>
      </trkpt>
      <trkpt lat="43.23541" lon="3.2623">
        <ele>46</ele>
        <time>2026-02-22T08:27:45Z</time>
      </trkpt>
      <trkpt lat="43.23541" lon="3.2623">
        <ele>46</ele>
        <time>2026-02-22T08:27:47Z</time>
      </trkpt>
      <trkpt lat="43.23541" lon="3.2623">
        <ele>46</ele>
        <time>2026-02-22T08:27:49Z</time>
      </trkpt>
      <trkpt lat="43.23541" lon="3.2623">
        <ele>46</ele>
        <time>2026-02-22T08:27:51Z</time>
      </trkpt>
      <trkpt lat="43.23537" lon="3.26227">
        <ele>48</ele>
        <time>2026-02-22T08:27:53Z</time>
      </trkpt>
      <trkpt lat="43.23534" lon="3.26223">
        <ele>48</ele>
        <time>2026-02-22T08:27:55Z</time>
      </trkpt>
      <trkpt lat="43.23531" lon="3.26219">
        <ele>48</ele>
        <time>2026-02-22T08:27:57Z</time>
      </trkpt>
      <trkpt lat="43.23528" lon="3.26215">
        <ele>48</ele>
        <time>2026-02-22T08:27:59Z</time>
      </trkpt>
      <trkpt lat="43.23525" lon="3.26212">
        <ele>48</ele>
        <time>2026-02-22T08:28:01Z</time>
      </trkpt>
      <trkpt lat="43.23522" lon="3.26207">
        <ele>48</ele>
        <time>2026-02-22T08:28:03Z</time>
      </trkpt>
      <trkpt lat="43.23518" lon="3.26202">
        <ele>48</ele>
        <time>2026-02-22T08:28:05Z</time>
      </trkpt>
      <trkpt lat="43.23514" lon="3.26197">
        <ele>48</ele>
        <time>2026-02-22T08:28:07Z</time>
      </trkpt>
      <trkpt lat="43.23509" lon="3.26191">
        <ele>48</ele>
        <time>2026-02-22T08:28:09Z</time>
      </trkpt>
      <trkpt lat="43.23504" lon="3.26185">
        <ele>49</ele>
        <time>2026-02-22T08:28:11Z</time>
      </trkpt>
      <trkpt lat="43.235" lon="3.26179">
        <ele>49</ele>
        <time>2026-02-22T08:28:13Z</time>
      </trkpt>
      <trkpt lat="43.23494" lon="3.26172">
        <ele>49</ele>
        <time>2026-02-22T08:28:15Z</time>
      </trkpt>
      <trkpt lat="43.23489" lon="3.26166">
        <ele>49</ele>
        <time>2026-02-22T08:28:17Z</time>
      </trkpt>
      <trkpt lat="43.23483" lon="3.2616">
        <ele>50</ele>
        <time>2026-02-22T08:28:19Z</time>
      </trkpt>
      <trkpt lat="43.23478" lon="3.26155">
        <ele>50</ele>
        <time>2026-02-22T08:28:21Z</time>
      </trkpt>
      <trkpt lat="43.23474" lon="3.2615">
        <ele>50</ele>
        <time>2026-02-22T08:28:23Z</time>
      </trkpt>
      <trkpt lat="43.2347" lon="3.26144">
        <ele>49</ele>
        <time>2026-02-22T08:28:25Z</time>
      </trkpt>
      <trkpt lat="43.23467" lon="3.26138">
        <ele>49</ele>
        <time>2026-02-22T08:28:27Z</time>
      </trkpt>
      <trkpt lat="43.23462" lon="3.26133">
        <ele>49</ele>
        <time>2026-02-22T08:28:29Z</time>
      </trkpt>
      <trkpt lat="43.23458" lon="3.26127">
        <ele>49</ele>
        <time>2026-02-22T08:28:31Z</time>
      </trkpt>
      <trkpt lat="43.23454" lon="3.26121">
        <ele>49</ele>
        <time>2026-02-22T08:28:33Z</time>
      </trkpt>
      <trkpt lat="43.23449" lon="3.26114">
        <ele>48</ele>
        <time>2026-02-22T08:28:35Z</time>
      </trkpt>
      <trkpt lat="43.23444" lon="3.26107">
        <ele>48</ele>
        <time>2026-02-22T08:28:37Z</time>
      </trkpt>
      <trkpt lat="43.23438" lon="3.261">
        <ele>47</ele>
        <time>2026-02-22T08:28:39Z</time>
      </trkpt>
      <trkpt lat="43.23432" lon="3.26092">
        <ele>48</ele>
        <time>2026-02-22T08:28:41Z</time>
      </trkpt>
      <trkpt lat="43.23426" lon="3.26084">
        <ele>47</ele>
        <time>2026-02-22T08:28:43Z</time>
      </trkpt>
      <trkpt lat="43.2342" lon="3.26076">
        <ele>47</ele>
        <time>2026-02-22T08:28:45Z</time>
      </trkpt>
      <trkpt lat="43.23415" lon="3.26068">
        <ele>46</ele>
        <time>2026-02-22T08:28:47Z</time>
      </trkpt>
      <trkpt lat="43.23409" lon="3.2606">
        <ele>46</ele>
        <time>2026-02-22T08:28:49Z</time>
      </trkpt>
      <trkpt lat="43.23403" lon="3.26052">
        <ele>45</ele>
        <time>2026-02-22T08:28:51Z</time>
      </trkpt>
      <trkpt lat="43.23398" lon="3.26044">
        <ele>45</ele>
        <time>2026-02-22T08:28:53Z</time>
      </trkpt>
      <trkpt lat="43.23392" lon="3.26036">
        <ele>45</ele>
        <time>2026-02-22T08:28:55Z</time>
      </trkpt>
      <trkpt lat="43.23386" lon="3.26028">
        <ele>45</ele>
        <time>2026-02-22T08:28:57Z</time>
      </trkpt>
      <trkpt lat="43.2338" lon="3.26019">
        <ele>45</ele>
        <time>2026-02-22T08:28:59Z</time>
      </trkpt>
      <trkpt lat="43.23374" lon="3.26011">
        <ele>45</ele>
        <time>2026-02-22T08:29:01Z</time>
      </trkpt>
      <trkpt lat="43.23369" lon="3.26003">
        <ele>45</ele>
        <time>2026-02-22T08:29:03Z</time>
      </trkpt>
      <trkpt lat="43.23365" lon="3.25994">
        <ele>46</ele>
        <time>2026-02-22T08:29:05Z</time>
      </trkpt>
      <trkpt lat="43.23362" lon="3.25984">
        <ele>47</ele>
        <time>2026-02-22T08:29:07Z</time>
      </trkpt>
      <trkpt lat="43.23362" lon="3.25974">
        <ele>47</ele>
        <time>2026-02-22T08:29:09Z</time>
      </trkpt>
      <trkpt lat="43.23362" lon="3.25962">
        <ele>47</ele>
        <time>2026-02-22T08:29:11Z</time>
      </trkpt>
      <trkpt lat="43.23363" lon="3.25951">
        <ele>48</ele>
        <time>2026-02-22T08:29:13Z</time>
      </trkpt>
      <trkpt lat="43.23363" lon="3.2594">
        <ele>47</ele>
        <time>2026-02-22T08:29:15Z</time>
      </trkpt>
      <trkpt lat="43.23362" lon="3.25928">
        <ele>47</ele>
        <time>2026-02-22T08:29:17Z</time>
      </trkpt>
      <trkpt lat="43.23359" lon="3.25917">
        <ele>46</ele>
        <time>2026-02-22T08:29:19Z</time>
      </trkpt>
      <trkpt lat="43.23355" lon="3.25907">
        <ele>46</ele>
        <time>2026-02-22T08:29:21Z</time>
      </trkpt>
      <trkpt lat="43.23351" lon="3.25897">
        <ele>46</ele>
        <time>2026-02-22T08:29:23Z</time>
      </trkpt>
      <trkpt lat="43.23346" lon="3.25886">
        <ele>46</ele>
        <time>2026-02-22T08:29:25Z</time>
      </trkpt>
      <trkpt lat="43.23342" lon="3.25875">
        <ele>47</ele>
        <time>2026-02-22T08:29:27Z</time>
      </trkpt>
      <trkpt lat="43.23337" lon="3.25865">
        <ele>47</ele>
        <time>2026-02-22T08:29:29Z</time>
      </trkpt>
      <trkpt lat="43.23333" lon="3.25854">
        <ele>47</ele>
        <time>2026-02-22T08:29:31Z</time>
      </trkpt>
      <trkpt lat="43.23328" lon="3.25843">
        <ele>48</ele>
        <time>2026-02-22T08:29:33Z</time>
      </trkpt>
      <trkpt lat="43.23324" lon="3.25833">
        <ele>48</ele>
        <time>2026-02-22T08:29:35Z</time>
      </trkpt>
      <trkpt lat="43.23319" lon="3.25823">
        <ele>49</ele>
        <time>2026-02-22T08:29:37Z</time>
      </trkpt>
      <trkpt lat="43.23314" lon="3.25812">
        <ele>49</ele>
        <time>2026-02-22T08:29:39Z</time>
      </trkpt>
      <trkpt lat="43.2331" lon="3.25802">
        <ele>49</ele>
        <time>2026-02-22T08:29:41Z</time>
      </trkpt>
      <trkpt lat="43.23306" lon="3.25792">
        <ele>49</ele>
        <time>2026-02-22T08:29:43Z</time>
      </trkpt>
      <trkpt lat="43.23301" lon="3.25782">
        <ele>49</ele>
        <time>2026-02-22T08:29:45Z</time>
      </trkpt>
      <trkpt lat="43.23297" lon="3.25772">
        <ele>49</ele>
        <time>2026-02-22T08:29:47Z</time>
      </trkpt>
      <trkpt lat="43.23293" lon="3.25762">
        <ele>49</ele>
        <time>2026-02-22T08:29:49Z</time>
      </trkpt>
      <trkpt lat="43.23289" lon="3.25752">
        <ele>49</ele>
        <time>2026-02-22T08:29:51Z</time>
      </trkpt>
      <trkpt lat="43.23285" lon="3.25742">
        <ele>49</ele>
        <time>2026-02-22T08:29:53Z</time>
      </trkpt>
      <trkpt lat="43.23281" lon="3.25732">
        <ele>49</ele>
        <time>2026-02-22T08:29:55Z</time>
      </trkpt>
      <trkpt lat="43.23276" lon="3.25722">
        <ele>49</ele>
        <time>2026-02-22T08:29:57Z</time>
      </trkpt>
      <trkpt lat="43.23273" lon="3.25713">
        <ele>49</ele>
        <time>2026-02-22T08:29:59Z</time>
      </trkpt>
      <trkpt lat="43.23268" lon="3.25704">
        <ele>49</ele>
        <time>2026-02-22T08:30:01Z</time>
      </trkpt>
      <trkpt lat="43.23265" lon="3.25694">
        <ele>49</ele>
        <time>2026-02-22T08:30:03Z</time>
      </trkpt>
      <trkpt lat="43.23261" lon="3.25684">
        <ele>49</ele>
        <time>2026-02-22T08:30:05Z</time>
      </trkpt>
      <trkpt lat="43.23257" lon="3.25674">
        <ele>50</ele>
        <time>2026-02-22T08:30:07Z</time>
      </trkpt>
      <trkpt lat="43.23252" lon="3.25665">
        <ele>50</ele>
        <time>2026-02-22T08:30:09Z</time>
      </trkpt>
      <trkpt lat="43.23248" lon="3.25655">
        <ele>50</ele>
        <time>2026-02-22T08:30:11Z</time>
      </trkpt>
      <trkpt lat="43.23244" lon="3.25645">
        <ele>50</ele>
        <time>2026-02-22T08:30:13Z</time>
      </trkpt>
      <trkpt lat="43.2324" lon="3.25636">
        <ele>49</ele>
        <time>2026-02-22T08:30:15Z</time>
      </trkpt>
      <trkpt lat="43.23236" lon="3.25626">
        <ele>49</ele>
        <time>2026-02-22T08:30:17Z</time>
      </trkpt>
      <trkpt lat="43.23232" lon="3.25616">
        <ele>49</ele>
        <time>2026-02-22T08:30:19Z</time>
      </trkpt>
      <trkpt lat="43.23229" lon="3.25606">
        <ele>48</ele>
        <time>2026-02-22T08:30:21Z</time>
      </trkpt>
      <trkpt lat="43.23225" lon="3.25596">
        <ele>48</ele>
        <time>2026-02-22T08:30:23Z</time>
      </trkpt>
      <trkpt lat="43.23222" lon="3.25586">
        <ele>47</ele>
        <time>2026-02-22T08:30:25Z</time>
      </trkpt>
      <trkpt lat="43.23217" lon="3.25577">
        <ele>47</ele>
        <time>2026-02-22T08:30:27Z</time>
      </trkpt>
      <trkpt lat="43.23214" lon="3.25567">
        <ele>47</ele>
        <time>2026-02-22T08:30:29Z</time>
      </trkpt>
      <trkpt lat="43.23209" lon="3.25558">
        <ele>47</ele>
        <time>2026-02-22T08:30:31Z</time>
      </trkpt>
      <trkpt lat="43.23205" lon="3.25548">
        <ele>46</ele>
        <time>2026-02-22T08:30:33Z</time>
      </trkpt>
      <trkpt lat="43.23201" lon="3.25538">
        <ele>46</ele>
        <time>2026-02-22T08:30:35Z</time>
      </trkpt>
      <trkpt lat="43.23197" lon="3.25527">
        <ele>45</ele>
        <time>2026-02-22T08:30:37Z</time>
      </trkpt>
      <trkpt lat="43.23193" lon="3.25517">
        <ele>45</ele>
        <time>2026-02-22T08:30:39Z</time>
      </trkpt>
      <trkpt lat="43.23189" lon="3.25506">
        <ele>45</ele>
        <time>2026-02-22T08:30:41Z</time>
      </trkpt>
      <trkpt lat="43.23184" lon="3.25496">
        <ele>45</ele>
        <time>2026-02-22T08:30:43Z</time>
      </trkpt>
      <trkpt lat="43.2318" lon="3.25485">
        <ele>45</ele>
        <time>2026-02-22T08:30:45Z</time>
      </trkpt>
      <trkpt lat="43.23176" lon="3.25475">
        <ele>45</ele>
        <time>2026-02-22T08:30:47Z</time>
      </trkpt>
      <trkpt lat="43.23172" lon="3.25464">
        <ele>45</ele>
        <time>2026-02-22T08:30:49Z</time>
      </trkpt>
      <trkpt lat="43.23167" lon="3.25454">
        <ele>45</ele>
        <time>2026-02-22T08:30:51Z</time>
      </trkpt>
      <trkpt lat="43.23163" lon="3.25442">
        <ele>46</ele>
        <time>2026-02-22T08:30:53Z</time>
      </trkpt>
      <trkpt lat="43.23159" lon="3.25431">
        <ele>46</ele>
        <time>2026-02-22T08:30:55Z</time>
      </trkpt>
      <trkpt lat="43.23155" lon="3.25421">
        <ele>46</ele>
        <time>2026-02-22T08:30:57Z</time>
      </trkpt>
      <trkpt lat="43.23151" lon="3.2541">
        <ele>47</ele>
        <time>2026-02-22T08:30:59Z</time>
      </trkpt>
      <trkpt lat="43.23146" lon="3.254">
        <ele>47</ele>
        <time>2026-02-22T08:31:01Z</time>
      </trkpt>
      <trkpt lat="43.23141" lon="3.2539">
        <ele>47</ele>
        <time>2026-02-22T08:31:03Z</time>
      </trkpt>
      <trkpt lat="43.23137" lon="3.2538">
        <ele>48</ele>
        <time>2026-02-22T08:31:05Z</time>
      </trkpt>
      <trkpt lat="43.23133" lon="3.2537">
        <ele>48</ele>
        <time>2026-02-22T08:31:07Z</time>
      </trkpt>
      <trkpt lat="43.23129" lon="3.25359">
        <ele>47</ele>
        <time>2026-02-22T08:31:09Z</time>
      </trkpt>
      <trkpt lat="43.23125" lon="3.25349">
        <ele>47</ele>
        <time>2026-02-22T08:31:11Z</time>
      </trkpt>
      <trkpt lat="43.23123" lon="3.25339">
        <ele>46</ele>
        <time>2026-02-22T08:31:13Z</time>
      </trkpt>
      <trkpt lat="43.2312" lon="3.25328">
        <ele>46</ele>
        <time>2026-02-22T08:31:15Z</time>
      </trkpt>
      <trkpt lat="43.23117" lon="3.25317">
        <ele>46</ele>
        <time>2026-02-22T08:31:17Z</time>
      </trkpt>
      <trkpt lat="43.23114" lon="3.25306">
        <ele>46</ele>
        <time>2026-02-22T08:31:19Z</time>
      </trkpt>
      <trkpt lat="43.23111" lon="3.25295">
        <ele>47</ele>
        <time>2026-02-22T08:31:21Z</time>
      </trkpt>
      <trkpt lat="43.23109" lon="3.25286">
        <ele>47</ele>
        <time>2026-02-22T08:31:23Z</time>
      </trkpt>
      <trkpt lat="43.23106" lon="3.25276">
        <ele>47</ele>
        <time>2026-02-22T08:31:25Z</time>
      </trkpt>
      <trkpt lat="43.23103" lon="3.25265">
        <ele>47</ele>
        <time>2026-02-22T08:31:27Z</time>
      </trkpt>
      <trkpt lat="43.23101" lon="3.25255">
        <ele>47</ele>
        <time>2026-02-22T08:31:29Z</time>
      </trkpt>
      <trkpt lat="43.23099" lon="3.25244">
        <ele>47</ele>
        <time>2026-02-22T08:31:31Z</time>
      </trkpt>
      <trkpt lat="43.23096" lon="3.25235">
        <ele>47</ele>
        <time>2026-02-22T08:31:33Z</time>
      </trkpt>
      <trkpt lat="43.23093" lon="3.25224">
        <ele>47</ele>
        <time>2026-02-22T08:31:35Z</time>
      </trkpt>
      <trkpt lat="43.23091" lon="3.25214">
        <ele>47</ele>
        <time>2026-02-22T08:31:37Z</time>
      </trkpt>
      <trkpt lat="43.23089" lon="3.25202">
        <ele>47</ele>
        <time>2026-02-22T08:31:39Z</time>
      </trkpt>
      <trkpt lat="43.23086" lon="3.25191">
        <ele>47</ele>
        <time>2026-02-22T08:31:41Z</time>
      </trkpt>
      <trkpt lat="43.23084" lon="3.25179">
        <ele>48</ele>
        <time>2026-02-22T08:31:43Z</time>
      </trkpt>
      <trkpt lat="43.23082" lon="3.25168">
        <ele>48</ele>
        <time>2026-02-22T08:31:45Z</time>
      </trkpt>
      <trkpt lat="43.23079" lon="3.25157">
        <ele>48</ele>
        <time>2026-02-22T08:31:47Z</time>
      </trkpt>
      <trkpt lat="43.23076" lon="3.25145">
        <ele>48</ele>
        <time>2026-02-22T08:31:49Z</time>
      </trkpt>
      <trkpt lat="43.23074" lon="3.25134">
        <ele>47</ele>
        <time>2026-02-22T08:31:51Z</time>
      </trkpt>
      <trkpt lat="43.23071" lon="3.25122">
        <ele>48</ele>
        <time>2026-02-22T08:31:53Z</time>
      </trkpt>
      <trkpt lat="43.23067" lon="3.2511">
        <ele>49</ele>
        <time>2026-02-22T08:31:55Z</time>
      </trkpt>
      <trkpt lat="43.23065" lon="3.25099">
        <ele>49</ele>
        <time>2026-02-22T08:31:57Z</time>
      </trkpt>
      <trkpt lat="43.23062" lon="3.25087">
        <ele>50</ele>
        <time>2026-02-22T08:31:59Z</time>
      </trkpt>
      <trkpt lat="43.23059" lon="3.25076">
        <ele>50</ele>
        <time>2026-02-22T08:32:01Z</time>
      </trkpt>
      <trkpt lat="43.23056" lon="3.25066">
        <ele>50</ele>
        <time>2026-02-22T08:32:03Z</time>
      </trkpt>
      <trkpt lat="43.23053" lon="3.25055">
        <ele>50</ele>
        <time>2026-02-22T08:32:05Z</time>
      </trkpt>
      <trkpt lat="43.23051" lon="3.25044">
        <ele>50</ele>
        <time>2026-02-22T08:32:07Z</time>
      </trkpt>
      <trkpt lat="43.23049" lon="3.25034">
        <ele>50</ele>
        <time>2026-02-22T08:32:09Z</time>
      </trkpt>
      <trkpt lat="43.23046" lon="3.25023">
        <ele>51</ele>
        <time>2026-02-22T08:32:11Z</time>
      </trkpt>
      <trkpt lat="43.23044" lon="3.25013">
        <ele>51</ele>
        <time>2026-02-22T08:32:13Z</time>
      </trkpt>
      <trkpt lat="43.23041" lon="3.25002">
        <ele>50</ele>
        <time>2026-02-22T08:32:15Z</time>
      </trkpt>
      <trkpt lat="43.23039" lon="3.24991">
        <ele>50</ele>
        <time>2026-02-22T08:32:17Z</time>
      </trkpt>
      <trkpt lat="43.23036" lon="3.2498">
        <ele>50</ele>
        <time>2026-02-22T08:32:19Z</time>
      </trkpt>
      <trkpt lat="43.23034" lon="3.24969">
        <ele>50</ele>
        <time>2026-02-22T08:32:21Z</time>
      </trkpt>
      <trkpt lat="43.23031" lon="3.24958">
        <ele>50</ele>
        <time>2026-02-22T08:32:23Z</time>
      </trkpt>
      <trkpt lat="43.23029" lon="3.24947">
        <ele>49</ele>
        <time>2026-02-22T08:32:25Z</time>
      </trkpt>
      <trkpt lat="43.23027" lon="3.24935">
        <ele>49</ele>
        <time>2026-02-22T08:32:27Z</time>
      </trkpt>
      <trkpt lat="43.23023" lon="3.24924">
        <ele>49</ele>
        <time>2026-02-22T08:32:29Z</time>
      </trkpt>
      <trkpt lat="43.23021" lon="3.24913">
        <ele>49</ele>
        <time>2026-02-22T08:32:31Z</time>
      </trkpt>
      <trkpt lat="43.23018" lon="3.24901">
        <ele>50</ele>
        <time>2026-02-22T08:32:33Z</time>
      </trkpt>
      <trkpt lat="43.23015" lon="3.2489">
        <ele>49</ele>
        <time>2026-02-22T08:32:35Z</time>
      </trkpt>
      <trkpt lat="43.23013" lon="3.24879">
        <ele>50</ele>
        <time>2026-02-22T08:32:37Z</time>
      </trkpt>
      <trkpt lat="43.2301" lon="3.24869">
        <ele>50</ele>
        <time>2026-02-22T08:32:39Z</time>
      </trkpt>
      <trkpt lat="43.23008" lon="3.24858">
        <ele>50</ele>
        <time>2026-02-22T08:32:41Z</time>
      </trkpt>
      <trkpt lat="43.23005" lon="3.24847">
        <ele>50</ele>
        <time>2026-02-22T08:32:43Z</time>
      </trkpt>
      <trkpt lat="43.23003" lon="3.24837">
        <ele>50</ele>
        <time>2026-02-22T08:32:45Z</time>
      </trkpt>
      <trkpt lat="43.23" lon="3.24826">
        <ele>50</ele>
        <time>2026-02-22T08:32:47Z</time>
      </trkpt>
      <trkpt lat="43.22998" lon="3.24816">
        <ele>50</ele>
        <time>2026-02-22T08:32:49Z</time>
      </trkpt>
      <trkpt lat="43.22995" lon="3.24805">
        <ele>51</ele>
        <time>2026-02-22T08:32:51Z</time>
      </trkpt>
      <trkpt lat="43.22993" lon="3.24794">
        <ele>51</ele>
        <time>2026-02-22T08:32:53Z</time>
      </trkpt>
      <trkpt lat="43.2299" lon="3.24783">
        <ele>51</ele>
        <time>2026-02-22T08:32:55Z</time>
      </trkpt>
      <trkpt lat="43.22987" lon="3.24772">
        <ele>51</ele>
        <time>2026-02-22T08:32:57Z</time>
      </trkpt>
      <trkpt lat="43.22985" lon="3.24761">
        <ele>51</ele>
        <time>2026-02-22T08:32:59Z</time>
      </trkpt>
      <trkpt lat="43.22982" lon="3.2475">
        <ele>51</ele>
        <time>2026-02-22T08:33:01Z</time>
      </trkpt>
      <trkpt lat="43.2298" lon="3.24739">
        <ele>51</ele>
        <time>2026-02-22T08:33:03Z</time>
      </trkpt>
      <trkpt lat="43.22977" lon="3.24728">
        <ele>51</ele>
        <time>2026-02-22T08:33:05Z</time>
      </trkpt>
      <trkpt lat="43.22974" lon="3.24717">
        <ele>50</ele>
        <time>2026-02-22T08:33:07Z</time>
      </trkpt>
      <trkpt lat="43.22971" lon="3.24705">
        <ele>50</ele>
        <time>2026-02-22T08:33:09Z</time>
      </trkpt>
      <trkpt lat="43.22969" lon="3.24694">
        <ele>50</ele>
        <time>2026-02-22T08:33:11Z</time>
      </trkpt>
      <trkpt lat="43.22968" lon="3.24683">
        <ele>50</ele>
        <time>2026-02-22T08:33:13Z</time>
      </trkpt>
      <trkpt lat="43.22967" lon="3.24672">
        <ele>50</ele>
        <time>2026-02-22T08:33:15Z</time>
      </trkpt>
      <trkpt lat="43.22966" lon="3.24661">
        <ele>49</ele>
        <time>2026-02-22T08:33:17Z</time>
      </trkpt>
      <trkpt lat="43.22962" lon="3.24651">
        <ele>49</ele>
        <time>2026-02-22T08:33:19Z</time>
      </trkpt>
      <trkpt lat="43.22957" lon="3.24641">
        <ele>49</ele>
        <time>2026-02-22T08:33:21Z</time>
      </trkpt>
      <trkpt lat="43.22952" lon="3.24632">
        <ele>49</ele>
        <time>2026-02-22T08:33:23Z</time>
      </trkpt>
      <trkpt lat="43.22948" lon="3.24622">
        <ele>49</ele>
        <time>2026-02-22T08:33:25Z</time>
      </trkpt>
      <trkpt lat="43.22944" lon="3.24612">
        <ele>49</ele>
        <time>2026-02-22T08:33:27Z</time>
      </trkpt>
      <trkpt lat="43.22939" lon="3.24604">
        <ele>49</ele>
        <time>2026-02-22T08:33:29Z</time>
      </trkpt>
      <trkpt lat="43.22934" lon="3.24597">
        <ele>49</ele>
        <time>2026-02-22T08:33:31Z</time>
      </trkpt>
      <trkpt lat="43.22929" lon="3.24589">
        <ele>49</ele>
        <time>2026-02-22T08:33:33Z</time>
      </trkpt>
      <trkpt lat="43.22924" lon="3.24581">
        <ele>49</ele>
        <time>2026-02-22T08:33:35Z</time>
      </trkpt>
      <trkpt lat="43.22919" lon="3.24573">
        <ele>49</ele>
        <time>2026-02-22T08:33:37Z</time>
      </trkpt>
      <trkpt lat="43.22913" lon="3.24566">
        <ele>49</ele>
        <time>2026-02-22T08:33:39Z</time>
      </trkpt>
      <trkpt lat="43.22907" lon="3.24559">
        <ele>49</ele>
        <time>2026-02-22T08:33:41Z</time>
      </trkpt>
      <trkpt lat="43.22902" lon="3.24551">
        <ele>49</ele>
        <time>2026-02-22T08:33:43Z</time>
      </trkpt>
      <trkpt lat="43.22896" lon="3.24543">
        <ele>49</ele>
        <time>2026-02-22T08:33:45Z</time>
      </trkpt>
      <trkpt lat="43.2289" lon="3.24535">
        <ele>49</ele>
        <time>2026-02-22T08:33:47Z</time>
      </trkpt>
      <trkpt lat="43.22883" lon="3.24528">
        <ele>49</ele>
        <time>2026-02-22T08:33:49Z</time>
      </trkpt>
      <trkpt lat="43.22877" lon="3.2452">
        <ele>49</ele>
        <time>2026-02-22T08:33:51Z</time>
      </trkpt>
      <trkpt lat="43.22871" lon="3.24512">
        <ele>49</ele>
        <time>2026-02-22T08:33:53Z</time>
      </trkpt>
      <trkpt lat="43.22865" lon="3.24505">
        <ele>49</ele>
        <time>2026-02-22T08:33:55Z</time>
      </trkpt>
      <trkpt lat="43.22859" lon="3.24497">
        <ele>49</ele>
        <time>2026-02-22T08:33:57Z</time>
      </trkpt>
      <trkpt lat="43.22853" lon="3.2449">
        <ele>49</ele>
        <time>2026-02-22T08:33:59Z</time>
      </trkpt>
      <trkpt lat="43.22847" lon="3.24482">
        <ele>49</ele>
        <time>2026-02-22T08:34:01Z</time>
      </trkpt>
      <trkpt lat="43.22841" lon="3.24475">
        <ele>49</ele>
        <time>2026-02-22T08:34:03Z</time>
      </trkpt>
      <trkpt lat="43.22835" lon="3.24467">
        <ele>49</ele>
        <time>2026-02-22T08:34:05Z</time>
      </trkpt>
      <trkpt lat="43.22829" lon="3.24459">
        <ele>49</ele>
        <time>2026-02-22T08:34:07Z</time>
      </trkpt>
      <trkpt lat="43.22823" lon="3.24452">
        <ele>49</ele>
        <time>2026-02-22T08:34:09Z</time>
      </trkpt>
      <trkpt lat="43.22817" lon="3.24444">
        <ele>49</ele>
        <time>2026-02-22T08:34:11Z</time>
      </trkpt>
      <trkpt lat="43.2281" lon="3.24437">
        <ele>50</ele>
        <time>2026-02-22T08:34:13Z</time>
      </trkpt>
      <trkpt lat="43.22804" lon="3.24429">
        <ele>50</ele>
        <time>2026-02-22T08:34:15Z</time>
      </trkpt>
      <trkpt lat="43.22798" lon="3.24421">
        <ele>50</ele>
        <time>2026-02-22T08:34:17Z</time>
      </trkpt>
      <trkpt lat="43.22793" lon="3.24414">
        <ele>50</ele>
        <time>2026-02-22T08:34:19Z</time>
      </trkpt>
      <trkpt lat="43.22787" lon="3.24406">
        <ele>50</ele>
        <time>2026-02-22T08:34:21Z</time>
      </trkpt>
      <trkpt lat="43.22781" lon="3.24399">
        <ele>50</ele>
        <time>2026-02-22T08:34:23Z</time>
      </trkpt>
      <trkpt lat="43.22775" lon="3.24392">
        <ele>50</ele>
        <time>2026-02-22T08:34:25Z</time>
      </trkpt>
      <trkpt lat="43.2277" lon="3.24385">
        <ele>49</ele>
        <time>2026-02-22T08:34:27Z</time>
      </trkpt>
      <trkpt lat="43.22764" lon="3.24377">
        <ele>49</ele>
        <time>2026-02-22T08:34:29Z</time>
      </trkpt>
      <trkpt lat="43.22758" lon="3.2437">
        <ele>49</ele>
        <time>2026-02-22T08:34:31Z</time>
      </trkpt>
      <trkpt lat="43.22752" lon="3.24363">
        <ele>49</ele>
        <time>2026-02-22T08:34:33Z</time>
      </trkpt>
      <trkpt lat="43.22747" lon="3.24356">
        <ele>49</ele>
        <time>2026-02-22T08:34:35Z</time>
      </trkpt>
      <trkpt lat="43.22741" lon="3.24349">
        <ele>49</ele>
        <time>2026-02-22T08:34:37Z</time>
      </trkpt>
      <trkpt lat="43.22735" lon="3.24341">
        <ele>49</ele>
        <time>2026-02-22T08:34:39Z</time>
      </trkpt>
      <trkpt lat="43.22729" lon="3.24334">
        <ele>49</ele>
        <time>2026-02-22T08:34:41Z</time>
      </trkpt>
      <trkpt lat="43.22724" lon="3.24327">
        <ele>49</ele>
        <time>2026-02-22T08:34:43Z</time>
      </trkpt>
      <trkpt lat="43.22719" lon="3.2432">
        <ele>49</ele>
        <time>2026-02-22T08:34:45Z</time>
      </trkpt>
      <trkpt lat="43.22714" lon="3.24315">
        <ele>48</ele>
        <time>2026-02-22T08:34:47Z</time>
      </trkpt>
      <trkpt lat="43.22711" lon="3.2431">
        <ele>49</ele>
        <time>2026-02-22T08:34:49Z</time>
      </trkpt>
      <trkpt lat="43.22707" lon="3.24305">
        <ele>49</ele>
        <time>2026-02-22T08:34:51Z</time>
      </trkpt>
      <trkpt lat="43.22704" lon="3.24301">
        <ele>49</ele>
        <time>2026-02-22T08:34:53Z</time>
      </trkpt>
      <trkpt lat="43.22701" lon="3.24297">
        <ele>49</ele>
        <time>2026-02-22T08:34:55Z</time>
      </trkpt>
      <trkpt lat="43.22698" lon="3.24293">
        <ele>49</ele>
        <time>2026-02-22T08:34:57Z</time>
      </trkpt>
      <trkpt lat="43.22696" lon="3.2429">
        <ele>49</ele>
        <time>2026-02-22T08:34:59Z</time>
      </trkpt>
      <trkpt lat="43.22693" lon="3.24287">
        <ele>49</ele>
        <time>2026-02-22T08:35:01Z</time>
      </trkpt>
      <trkpt lat="43.22691" lon="3.24285">
        <ele>49</ele>
        <time>2026-02-22T08:35:03Z</time>
      </trkpt>
      <trkpt lat="43.22689" lon="3.24282">
        <ele>49</ele>
        <time>2026-02-22T08:35:05Z</time>
      </trkpt>
      <trkpt lat="43.22689" lon="3.24282">
        <ele>48</ele>
        <time>2026-02-22T08:35:07Z</time>
      </trkpt>
      <trkpt lat="43.22689" lon="3.24281">
        <ele>48</ele>
        <time>2026-02-22T08:35:09Z</time>
      </trkpt>
      <trkpt lat="43.22689" lon="3.24281">
        <ele>48</ele>
        <time>2026-02-22T08:35:11Z</time>
      </trkpt>
      <trkpt lat="43.22689" lon="3.24281">
        <ele>48</ele>
        <time>2026-02-22T08:35:13Z</time>
      </trkpt>
      <trkpt lat="43.22689" lon="3.2428">
        <ele>48</ele>
        <time>2026-02-22T08:35:15Z</time>
      </trkpt>
      <trkpt lat="43.22689" lon="3.2428">
        <ele>48</ele>
        <time>2026-02-22T08:35:17Z</time>
      </trkpt>
      <trkpt lat="43.22689" lon="3.2428">
        <ele>48</ele>
        <time>2026-02-22T08:35:19Z</time>
      </trkpt>
      <trkpt lat="43.22689" lon="3.2428">
        <ele>48</ele>
        <time>2026-02-22T08:35:21Z</time>
      </trkpt>
      <trkpt lat="43.2269" lon="3.24278">
        <ele>49</ele>
        <time>2026-02-22T08:35:23Z</time>
      </trkpt>
      <trkpt lat="43.22689" lon="3.24272">
        <ele>49</ele>
        <time>2026-02-22T08:35:25Z</time>
      </trkpt>
      <trkpt lat="43.22686" lon="3.24266">
        <ele>50</ele>
        <time>2026-02-22T08:35:27Z</time>
      </trkpt>
      <trkpt lat="43.22682" lon="3.2426">
        <ele>50</ele>
        <time>2026-02-22T08:35:29Z</time>
      </trkpt>
      <trkpt lat="43.22677" lon="3.24254">
        <ele>50</ele>
        <time>2026-02-22T08:35:31Z</time>
      </trkpt>
      <trkpt lat="43.22672" lon="3.24248">
        <ele>50</ele>
        <time>2026-02-22T08:35:33Z</time>
      </trkpt>
      <trkpt lat="43.22667" lon="3.24242">
        <ele>49</ele>
        <time>2026-02-22T08:35:35Z</time>
      </trkpt>
      <trkpt lat="43.22662" lon="3.24235">
        <ele>49</ele>
        <time>2026-02-22T08:35:37Z</time>
      </trkpt>
      <trkpt lat="43.22656" lon="3.24228">
        <ele>49</ele>
        <time>2026-02-22T08:35:39Z</time>
      </trkpt>
      <trkpt lat="43.22651" lon="3.24222">
        <ele>49</ele>
        <time>2026-02-22T08:35:41Z</time>
      </trkpt>
      <trkpt lat="43.22645" lon="3.24218">
        <ele>50</ele>
        <time>2026-02-22T08:35:43Z</time>
      </trkpt>
      <trkpt lat="43.22639" lon="3.24213">
        <ele>50</ele>
        <time>2026-02-22T08:35:45Z</time>
      </trkpt>
      <trkpt lat="43.22634" lon="3.24208">
        <ele>49</ele>
        <time>2026-02-22T08:35:47Z</time>
      </trkpt>
      <trkpt lat="43.22628" lon="3.24203">
        <ele>49</ele>
        <time>2026-02-22T08:35:49Z</time>
      </trkpt>
      <trkpt lat="43.22623" lon="3.24197">
        <ele>49</ele>
        <time>2026-02-22T08:35:51Z</time>
      </trkpt>
      <trkpt lat="43.22617" lon="3.2419">
        <ele>49</ele>
        <time>2026-02-22T08:35:53Z</time>
      </trkpt>
      <trkpt lat="43.22612" lon="3.24183">
        <ele>49</ele>
        <time>2026-02-22T08:35:55Z</time>
      </trkpt>
      <trkpt lat="43.22606" lon="3.24175">
        <ele>49</ele>
        <time>2026-02-22T08:35:57Z</time>
      </trkpt>
      <trkpt lat="43.22601" lon="3.24168">
        <ele>50</ele>
        <time>2026-02-22T08:35:59Z</time>
      </trkpt>
      <trkpt lat="43.22596" lon="3.24161">
        <ele>50</ele>
        <time>2026-02-22T08:36:01Z</time>
      </trkpt>
      <trkpt lat="43.2259" lon="3.24153">
        <ele>50</ele>
        <time>2026-02-22T08:36:03Z</time>
      </trkpt>
      <trkpt lat="43.22584" lon="3.24146">
        <ele>51</ele>
        <time>2026-02-22T08:36:05Z</time>
      </trkpt>
      <trkpt lat="43.22579" lon="3.24139">
        <ele>51</ele>
        <time>2026-02-22T08:36:07Z</time>
      </trkpt>
      <trkpt lat="43.22573" lon="3.24132">
        <ele>51</ele>
        <time>2026-02-22T08:36:09Z</time>
      </trkpt>
      <trkpt lat="43.22567" lon="3.24124">
        <ele>52</ele>
        <time>2026-02-22T08:36:11Z</time>
      </trkpt>
      <trkpt lat="43.22562" lon="3.24117">
        <ele>52</ele>
        <time>2026-02-22T08:36:13Z</time>
      </trkpt>
      <trkpt lat="43.22557" lon="3.24109">
        <ele>51</ele>
        <time>2026-02-22T08:36:15Z</time>
      </trkpt>
      <trkpt lat="43.22552" lon="3.24102">
        <ele>52</ele>
        <time>2026-02-22T08:36:17Z</time>
      </trkpt>
      <trkpt lat="43.22547" lon="3.24095">
        <ele>52</ele>
        <time>2026-02-22T08:36:19Z</time>
      </trkpt>
      <trkpt lat="43.22543" lon="3.24089">
        <ele>53</ele>
        <time>2026-02-22T08:36:21Z</time>
      </trkpt>
      <trkpt lat="43.22537" lon="3.24082">
        <ele>53</ele>
        <time>2026-02-22T08:36:23Z</time>
      </trkpt>
      <trkpt lat="43.22532" lon="3.24076">
        <ele>53</ele>
        <time>2026-02-22T08:36:25Z</time>
      </trkpt>
      <trkpt lat="43.22527" lon="3.24069">
        <ele>54</ele>
        <time>2026-02-22T08:36:27Z</time>
      </trkpt>
      <trkpt lat="43.22522" lon="3.24062">
        <ele>54</ele>
        <time>2026-02-22T08:36:29Z</time>
      </trkpt>
      <trkpt lat="43.22516" lon="3.24055">
        <ele>53</ele>
        <time>2026-02-22T08:36:31Z</time>
      </trkpt>
      <trkpt lat="43.22511" lon="3.24048">
        <ele>52</ele>
        <time>2026-02-22T08:36:33Z</time>
      </trkpt>
      <trkpt lat="43.22505" lon="3.2404">
        <ele>52</ele>
        <time>2026-02-22T08:36:35Z</time>
      </trkpt>
      <trkpt lat="43.22499" lon="3.24032">
        <ele>51</ele>
        <time>2026-02-22T08:36:37Z</time>
      </trkpt>
      <trkpt lat="43.22493" lon="3.24025">
        <ele>51</ele>
        <time>2026-02-22T08:36:39Z</time>
      </trkpt>
      <trkpt lat="43.22488" lon="3.24018">
        <ele>51</ele>
        <time>2026-02-22T08:36:41Z</time>
      </trkpt>
      <trkpt lat="43.22482" lon="3.24011">
        <ele>51</ele>
        <time>2026-02-22T08:36:43Z</time>
      </trkpt>
      <trkpt lat="43.22476" lon="3.24004">
        <ele>51</ele>
        <time>2026-02-22T08:36:45Z</time>
      </trkpt>
      <trkpt lat="43.22471" lon="3.23997">
        <ele>51</ele>
        <time>2026-02-22T08:36:47Z</time>
      </trkpt>
      <trkpt lat="43.22466" lon="3.23989">
        <ele>50</ele>
        <time>2026-02-22T08:36:49Z</time>
      </trkpt>
      <trkpt lat="43.2246" lon="3.23981">
        <ele>50</ele>
        <time>2026-02-22T08:36:51Z</time>
      </trkpt>
      <trkpt lat="43.22455" lon="3.23974">
        <ele>50</ele>
        <time>2026-02-22T08:36:53Z</time>
      </trkpt>
      <trkpt lat="43.22449" lon="3.23966">
        <ele>50</ele>
        <time>2026-02-22T08:36:55Z</time>
      </trkpt>
      <trkpt lat="43.22443" lon="3.23959">
        <ele>50</ele>
        <time>2026-02-22T08:36:57Z</time>
      </trkpt>
      <trkpt lat="43.22437" lon="3.23952">
        <ele>50</ele>
        <time>2026-02-22T08:36:59Z</time>
      </trkpt>
      <trkpt lat="43.22431" lon="3.23945">
        <ele>50</ele>
        <time>2026-02-22T08:37:01Z</time>
      </trkpt>
      <trkpt lat="43.22425" lon="3.23938">
        <ele>50</ele>
        <time>2026-02-22T08:37:03Z</time>
      </trkpt>
      <trkpt lat="43.2242" lon="3.23931">
        <ele>50</ele>
        <time>2026-02-22T08:37:05Z</time>
      </trkpt>
      <trkpt lat="43.22415" lon="3.23924">
        <ele>50</ele>
        <time>2026-02-22T08:37:07Z</time>
      </trkpt>
      <trkpt lat="43.22409" lon="3.23918">
        <ele>50</ele>
        <time>2026-02-22T08:37:09Z</time>
      </trkpt>
      <trkpt lat="43.22404" lon="3.2391">
        <ele>49</ele>
        <time>2026-02-22T08:37:11Z</time>
      </trkpt>
      <trkpt lat="43.22399" lon="3.23903">
        <ele>49</ele>
        <time>2026-02-22T08:37:13Z</time>
      </trkpt>
      <trkpt lat="43.22393" lon="3.23897">
        <ele>50</ele>
        <time>2026-02-22T08:37:15Z</time>
      </trkpt>
      <trkpt lat="43.22388" lon="3.2389">
        <ele>50</ele>
        <time>2026-02-22T08:37:17Z</time>
      </trkpt>
      <trkpt lat="43.22384" lon="3.23884">
        <ele>50</ele>
        <time>2026-02-22T08:37:19Z</time>
      </trkpt>
      <trkpt lat="43.22378" lon="3.23877">
        <ele>50</ele>
        <time>2026-02-22T08:37:21Z</time>
      </trkpt>
      <trkpt lat="43.22373" lon="3.2387">
        <ele>50</ele>
        <time>2026-02-22T08:37:23Z</time>
      </trkpt>
      <trkpt lat="43.22367" lon="3.23862">
        <ele>49</ele>
        <time>2026-02-22T08:37:25Z</time>
      </trkpt>
      <trkpt lat="43.22361" lon="3.23855">
        <ele>49</ele>
        <time>2026-02-22T08:37:27Z</time>
      </trkpt>
      <trkpt lat="43.22355" lon="3.23847">
        <ele>49</ele>
        <time>2026-02-22T08:37:29Z</time>
      </trkpt>
      <trkpt lat="43.2235" lon="3.23838">
        <ele>50</ele>
        <time>2026-02-22T08:37:31Z</time>
      </trkpt>
      <trkpt lat="43.22344" lon="3.2383">
        <ele>50</ele>
        <time>2026-02-22T08:37:33Z</time>
      </trkpt>
      <trkpt lat="43.22338" lon="3.23823">
        <ele>50</ele>
        <time>2026-02-22T08:37:35Z</time>
      </trkpt>
      <trkpt lat="43.22332" lon="3.23816">
        <ele>50</ele>
        <time>2026-02-22T08:37:37Z</time>
      </trkpt>
      <trkpt lat="43.22327" lon="3.23809">
        <ele>50</ele>
        <time>2026-02-22T08:37:39Z</time>
      </trkpt>
      <trkpt lat="43.22322" lon="3.23802">
        <ele>50</ele>
        <time>2026-02-22T08:37:41Z</time>
      </trkpt>
      <trkpt lat="43.22316" lon="3.23794">
        <ele>50</ele>
        <time>2026-02-22T08:37:43Z</time>
      </trkpt>
      <trkpt lat="43.22311" lon="3.23787">
        <ele>50</ele>
        <time>2026-02-22T08:37:45Z</time>
      </trkpt>
      <trkpt lat="43.22306" lon="3.23779">
        <ele>50</ele>
        <time>2026-02-22T08:37:47Z</time>
      </trkpt>
      <trkpt lat="43.22301" lon="3.23772">
        <ele>50</ele>
        <time>2026-02-22T08:37:49Z</time>
      </trkpt>
      <trkpt lat="43.22295" lon="3.23765">
        <ele>50</ele>
        <time>2026-02-22T08:37:51Z</time>
      </trkpt>
      <trkpt lat="43.2229" lon="3.23758">
        <ele>49</ele>
        <time>2026-02-22T08:37:53Z</time>
      </trkpt>
      <trkpt lat="43.22284" lon="3.23751">
        <ele>49</ele>
        <time>2026-02-22T08:37:55Z</time>
      </trkpt>
      <trkpt lat="43.22279" lon="3.23743">
        <ele>49</ele>
        <time>2026-02-22T08:37:57Z</time>
      </trkpt>
      <trkpt lat="43.22274" lon="3.23737">
        <ele>49</ele>
        <time>2026-02-22T08:37:59Z</time>
      </trkpt>
      <trkpt lat="43.22269" lon="3.23729">
        <ele>49</ele>
        <time>2026-02-22T08:38:01Z</time>
      </trkpt>
      <trkpt lat="43.22263" lon="3.23722">
        <ele>49</ele>
        <time>2026-02-22T08:38:03Z</time>
      </trkpt>
      <trkpt lat="43.22257" lon="3.23714">
        <ele>49</ele>
        <time>2026-02-22T08:38:05Z</time>
      </trkpt>
      <trkpt lat="43.22251" lon="3.23707">
        <ele>49</ele>
        <time>2026-02-22T08:38:07Z</time>
      </trkpt>
      <trkpt lat="43.22246" lon="3.23699">
        <ele>49</ele>
        <time>2026-02-22T08:38:09Z</time>
      </trkpt>
      <trkpt lat="43.22241" lon="3.23692">
        <ele>49</ele>
        <time>2026-02-22T08:38:11Z</time>
      </trkpt>
      <trkpt lat="43.22236" lon="3.23685">
        <ele>49</ele>
        <time>2026-02-22T08:38:13Z</time>
      </trkpt>
      <trkpt lat="43.2223" lon="3.23678">
        <ele>49</ele>
        <time>2026-02-22T08:38:15Z</time>
      </trkpt>
      <trkpt lat="43.22225" lon="3.2367">
        <ele>49</ele>
        <time>2026-02-22T08:38:17Z</time>
      </trkpt>
      <trkpt lat="43.22219" lon="3.23663">
        <ele>49</ele>
        <time>2026-02-22T08:38:19Z</time>
      </trkpt>
      <trkpt lat="43.22214" lon="3.23655">
        <ele>49</ele>
        <time>2026-02-22T08:38:21Z</time>
      </trkpt>
      <trkpt lat="43.22208" lon="3.23647">
        <ele>49</ele>
        <time>2026-02-22T08:38:23Z</time>
      </trkpt>
      <trkpt lat="43.22203" lon="3.23639">
        <ele>49</ele>
        <time>2026-02-22T08:38:25Z</time>
      </trkpt>
      <trkpt lat="43.22197" lon="3.23632">
        <ele>48</ele>
        <time>2026-02-22T08:38:27Z</time>
      </trkpt>
      <trkpt lat="43.22192" lon="3.23625">
        <ele>48</ele>
        <time>2026-02-22T08:38:29Z</time>
      </trkpt>
      <trkpt lat="43.22187" lon="3.23618">
        <ele>48</ele>
        <time>2026-02-22T08:38:31Z</time>
      </trkpt>
      <trkpt lat="43.22182" lon="3.2361">
        <ele>48</ele>
        <time>2026-02-22T08:38:33Z</time>
      </trkpt>
      <trkpt lat="43.22176" lon="3.23603">
        <ele>48</ele>
        <time>2026-02-22T08:38:35Z</time>
      </trkpt>
      <trkpt lat="43.22171" lon="3.23596">
        <ele>49</ele>
        <time>2026-02-22T08:38:37Z</time>
      </trkpt>
      <trkpt lat="43.22165" lon="3.23588">
        <ele>48</ele>
        <time>2026-02-22T08:38:39Z</time>
      </trkpt>
      <trkpt lat="43.2216" lon="3.23581">
        <ele>48</ele>
        <time>2026-02-22T08:38:41Z</time>
      </trkpt>
      <trkpt lat="43.22154" lon="3.23574">
        <ele>48</ele>
        <time>2026-02-22T08:38:43Z</time>
      </trkpt>
      <trkpt lat="43.22148" lon="3.23567">
        <ele>48</ele>
        <time>2026-02-22T08:38:45Z</time>
      </trkpt>
      <trkpt lat="43.22143" lon="3.2356">
        <ele>49</ele>
        <time>2026-02-22T08:38:47Z</time>
      </trkpt>
      <trkpt lat="43.22138" lon="3.23553">
        <ele>49</ele>
        <time>2026-02-22T08:38:49Z</time>
      </trkpt>
      <trkpt lat="43.22133" lon="3.23546">
        <ele>49</ele>
        <time>2026-02-22T08:38:51Z</time>
      </trkpt>
      <trkpt lat="43.22128" lon="3.2354">
        <ele>49</ele>
        <time>2026-02-22T08:38:53Z</time>
      </trkpt>
      <trkpt lat="43.22123" lon="3.23533">
        <ele>48</ele>
        <time>2026-02-22T08:38:55Z</time>
      </trkpt>
      <trkpt lat="43.22118" lon="3.23526">
        <ele>48</ele>
        <time>2026-02-22T08:38:57Z</time>
      </trkpt>
      <trkpt lat="43.22111" lon="3.23523">
        <ele>48</ele>
        <time>2026-02-22T08:38:59Z</time>
      </trkpt>
      <trkpt lat="43.22104" lon="3.23523">
        <ele>48</ele>
        <time>2026-02-22T08:39:01Z</time>
      </trkpt>
      <trkpt lat="43.22099" lon="3.2352">
        <ele>48</ele>
        <time>2026-02-22T08:39:03Z</time>
      </trkpt>
      <trkpt lat="43.22097" lon="3.23514">
        <ele>48</ele>
        <time>2026-02-22T08:39:05Z</time>
      </trkpt>
      <trkpt lat="43.22099" lon="3.23507">
        <ele>48</ele>
        <time>2026-02-22T08:39:07Z</time>
      </trkpt>
      <trkpt lat="43.22097" lon="3.23501">
        <ele>48</ele>
        <time>2026-02-22T08:39:09Z</time>
      </trkpt>
      <trkpt lat="43.22094" lon="3.23495">
        <ele>48</ele>
        <time>2026-02-22T08:39:11Z</time>
      </trkpt>
      <trkpt lat="43.22089" lon="3.2349">
        <ele>48</ele>
        <time>2026-02-22T08:39:13Z</time>
      </trkpt>
      <trkpt lat="43.22085" lon="3.23484">
        <ele>48</ele>
        <time>2026-02-22T08:39:15Z</time>
      </trkpt>
      <trkpt lat="43.2208" lon="3.2348">
        <ele>48</ele>
        <time>2026-02-22T08:39:17Z</time>
      </trkpt>
      <trkpt lat="43.22076" lon="3.23479">
        <ele>47</ele>
        <time>2026-02-22T08:39:19Z</time>
      </trkpt>
      <trkpt lat="43.22074" lon="3.23476">
        <ele>46</ele>
        <time>2026-02-22T08:39:21Z</time>
      </trkpt>
      <trkpt lat="43.22073" lon="3.23472">
        <ele>47</ele>
        <time>2026-02-22T08:39:23Z</time>
      </trkpt>
      <trkpt lat="43.22073" lon="3.23466">
        <ele>47</ele>
        <time>2026-02-22T08:39:25Z</time>
      </trkpt>
      <trkpt lat="43.2207" lon="3.23458">
        <ele>48</ele>
        <time>2026-02-22T08:39:27Z</time>
      </trkpt>
      <trkpt lat="43.22066" lon="3.23451">
        <ele>48</ele>
        <time>2026-02-22T08:39:29Z</time>
      </trkpt>
      <trkpt lat="43.22062" lon="3.23444">
        <ele>48</ele>
        <time>2026-02-22T08:39:31Z</time>
      </trkpt>
      <trkpt lat="43.22057" lon="3.23438">
        <ele>49</ele>
        <time>2026-02-22T08:39:33Z</time>
      </trkpt>
      <trkpt lat="43.22052" lon="3.23431">
        <ele>49</ele>
        <time>2026-02-22T08:39:35Z</time>
      </trkpt>
      <trkpt lat="43.22047" lon="3.23424">
        <ele>49</ele>
        <time>2026-02-22T08:39:37Z</time>
      </trkpt>
      <trkpt lat="43.22042" lon="3.23416">
        <ele>49</ele>
        <time>2026-02-22T08:39:39Z</time>
      </trkpt>
      <trkpt lat="43.22036" lon="3.23409">
        <ele>49</ele>
        <time>2026-02-22T08:39:41Z</time>
      </trkpt>
      <trkpt lat="43.2203" lon="3.23402">
        <ele>49</ele>
        <time>2026-02-22T08:39:43Z</time>
      </trkpt>
      <trkpt lat="43.22025" lon="3.23394">
        <ele>49</ele>
        <time>2026-02-22T08:39:45Z</time>
      </trkpt>
      <trkpt lat="43.22021" lon="3.23386">
        <ele>49</ele>
        <time>2026-02-22T08:39:47Z</time>
      </trkpt>
      <trkpt lat="43.22017" lon="3.23377">
        <ele>50</ele>
        <time>2026-02-22T08:39:49Z</time>
      </trkpt>
      <trkpt lat="43.22015" lon="3.23369">
        <ele>50</ele>
        <time>2026-02-22T08:39:51Z</time>
      </trkpt>
      <trkpt lat="43.22014" lon="3.23361">
        <ele>50</ele>
        <time>2026-02-22T08:39:53Z</time>
      </trkpt>
      <trkpt lat="43.22016" lon="3.23354">
        <ele>50</ele>
        <time>2026-02-22T08:39:55Z</time>
      </trkpt>
      <trkpt lat="43.2202" lon="3.23346">
        <ele>50</ele>
        <time>2026-02-22T08:39:57Z</time>
      </trkpt>
      <trkpt lat="43.22021" lon="3.23337">
        <ele>49</ele>
        <time>2026-02-22T08:39:59Z</time>
      </trkpt>
      <trkpt lat="43.22021" lon="3.23328">
        <ele>49</ele>
        <time>2026-02-22T08:40:01Z</time>
      </trkpt>
      <trkpt lat="43.2202" lon="3.23319">
        <ele>49</ele>
        <time>2026-02-22T08:40:03Z</time>
      </trkpt>
      <trkpt lat="43.2202" lon="3.23309">
        <ele>49</ele>
        <time>2026-02-22T08:40:05Z</time>
      </trkpt>
      <trkpt lat="43.22022" lon="3.23299">
        <ele>49</ele>
        <time>2026-02-22T08:40:07Z</time>
      </trkpt>
      <trkpt lat="43.22025" lon="3.2329">
        <ele>49</ele>
        <time>2026-02-22T08:40:09Z</time>
      </trkpt>
      <trkpt lat="43.22029" lon="3.23281">
        <ele>49</ele>
        <time>2026-02-22T08:40:11Z</time>
      </trkpt>
      <trkpt lat="43.22031" lon="3.23272">
        <ele>48</ele>
        <time>2026-02-22T08:40:13Z</time>
      </trkpt>
      <trkpt lat="43.22034" lon="3.23261">
        <ele>48</ele>
        <time>2026-02-22T08:40:15Z</time>
      </trkpt>
      <trkpt lat="43.22037" lon="3.2325">
        <ele>48</ele>
        <time>2026-02-22T08:40:17Z</time>
      </trkpt>
      <trkpt lat="43.2204" lon="3.2324">
        <ele>48</ele>
        <time>2026-02-22T08:40:19Z</time>
      </trkpt>
      <trkpt lat="43.22043" lon="3.2323">
        <ele>48</ele>
        <time>2026-02-22T08:40:21Z</time>
      </trkpt>
      <trkpt lat="43.22046" lon="3.23219">
        <ele>47</ele>
        <time>2026-02-22T08:40:23Z</time>
      </trkpt>
      <trkpt lat="43.22049" lon="3.23208">
        <ele>47</ele>
        <time>2026-02-22T08:40:25Z</time>
      </trkpt>
      <trkpt lat="43.22052" lon="3.23198">
        <ele>47</ele>
        <time>2026-02-22T08:40:27Z</time>
      </trkpt>
      <trkpt lat="43.22055" lon="3.23187">
        <ele>47</ele>
        <time>2026-02-22T08:40:29Z</time>
      </trkpt>
      <trkpt lat="43.22058" lon="3.23176">
        <ele>47</ele>
        <time>2026-02-22T08:40:31Z</time>
      </trkpt>
      <trkpt lat="43.22062" lon="3.23165">
        <ele>47</ele>
        <time>2026-02-22T08:40:33Z</time>
      </trkpt>
      <trkpt lat="43.22064" lon="3.23155">
        <ele>47</ele>
        <time>2026-02-22T08:40:35Z</time>
      </trkpt>
      <trkpt lat="43.22067" lon="3.23144">
        <ele>47</ele>
        <time>2026-02-22T08:40:37Z</time>
      </trkpt>
      <trkpt lat="43.2207" lon="3.23133">
        <ele>47</ele>
        <time>2026-02-22T08:40:39Z</time>
      </trkpt>
      <trkpt lat="43.22072" lon="3.23123">
        <ele>47</ele>
        <time>2026-02-22T08:40:41Z</time>
      </trkpt>
      <trkpt lat="43.22076" lon="3.23112">
        <ele>47</ele>
        <time>2026-02-22T08:40:43Z</time>
      </trkpt>
      <trkpt lat="43.22079" lon="3.231">
        <ele>47</ele>
        <time>2026-02-22T08:40:45Z</time>
      </trkpt>
      <trkpt lat="43.22083" lon="3.23089">
        <ele>47</ele>
        <time>2026-02-22T08:40:47Z</time>
      </trkpt>
      <trkpt lat="43.22086" lon="3.23078">
        <ele>47</ele>
        <time>2026-02-22T08:40:49Z</time>
      </trkpt>
      <trkpt lat="43.22089" lon="3.23067">
        <ele>48</ele>
        <time>2026-02-22T08:40:51Z</time>
      </trkpt>
      <trkpt lat="43.22092" lon="3.23056">
        <ele>48</ele>
        <time>2026-02-22T08:40:53Z</time>
      </trkpt>
      <trkpt lat="43.22094" lon="3.23045">
        <ele>48</ele>
        <time>2026-02-22T08:40:55Z</time>
      </trkpt>
      <trkpt lat="43.22096" lon="3.23035">
        <ele>48</ele>
        <time>2026-02-22T08:40:57Z</time>
      </trkpt>
      <trkpt lat="43.22099" lon="3.23025">
        <ele>48</ele>
        <time>2026-02-22T08:40:59Z</time>
      </trkpt>
      <trkpt lat="43.22102" lon="3.23016">
        <ele>48</ele>
        <time>2026-02-22T08:41:01Z</time>
      </trkpt>
      <trkpt lat="43.22105" lon="3.23006">
        <ele>48</ele>
        <time>2026-02-22T08:41:03Z</time>
      </trkpt>
      <trkpt lat="43.22108" lon="3.22996">
        <ele>48</ele>
        <time>2026-02-22T08:41:05Z</time>
      </trkpt>
      <trkpt lat="43.2211" lon="3.22986">
        <ele>48</ele>
        <time>2026-02-22T08:41:07Z</time>
      </trkpt>
      <trkpt lat="43.22113" lon="3.22977">
        <ele>48</ele>
        <time>2026-02-22T08:41:09Z</time>
      </trkpt>
      <trkpt lat="43.22115" lon="3.22967">
        <ele>48</ele>
        <time>2026-02-22T08:41:11Z</time>
      </trkpt>
      <trkpt lat="43.22117" lon="3.22957">
        <ele>48</ele>
        <time>2026-02-22T08:41:13Z</time>
      </trkpt>
      <trkpt lat="43.22118" lon="3.22948">
        <ele>48</ele>
        <time>2026-02-22T08:41:15Z</time>
      </trkpt>
      <trkpt lat="43.22121" lon="3.22938">
        <ele>48</ele>
        <time>2026-02-22T08:41:17Z</time>
      </trkpt>
      <trkpt lat="43.22124" lon="3.22928">
        <ele>48</ele>
        <time>2026-02-22T08:41:19Z</time>
      </trkpt>
      <trkpt lat="43.22126" lon="3.22917">
        <ele>48</ele>
        <time>2026-02-22T08:41:21Z</time>
      </trkpt>
      <trkpt lat="43.22129" lon="3.22908">
        <ele>48</ele>
        <time>2026-02-22T08:41:23Z</time>
      </trkpt>
      <trkpt lat="43.22132" lon="3.22898">
        <ele>48</ele>
        <time>2026-02-22T08:41:25Z</time>
      </trkpt>
      <trkpt lat="43.22136" lon="3.22889">
        <ele>48</ele>
        <time>2026-02-22T08:41:27Z</time>
      </trkpt>
      <trkpt lat="43.22139" lon="3.22879">
        <ele>48</ele>
        <time>2026-02-22T08:41:29Z</time>
      </trkpt>
      <trkpt lat="43.22142" lon="3.2287">
        <ele>48</ele>
        <time>2026-02-22T08:41:31Z</time>
      </trkpt>
      <trkpt lat="43.22144" lon="3.22861">
        <ele>48</ele>
        <time>2026-02-22T08:41:33Z</time>
      </trkpt>
      <trkpt lat="43.22147" lon="3.22852">
        <ele>48</ele>
        <time>2026-02-22T08:41:35Z</time>
      </trkpt>
      <trkpt lat="43.2215" lon="3.22843">
        <ele>48</ele>
        <time>2026-02-22T08:41:37Z</time>
      </trkpt>
      <trkpt lat="43.22152" lon="3.22834">
        <ele>48</ele>
        <time>2026-02-22T08:41:39Z</time>
      </trkpt>
      <trkpt lat="43.22155" lon="3.22823">
        <ele>48</ele>
        <time>2026-02-22T08:41:41Z</time>
      </trkpt>
      <trkpt lat="43.22159" lon="3.22814">
        <ele>48</ele>
        <time>2026-02-22T08:41:43Z</time>
      </trkpt>
      <trkpt lat="43.22163" lon="3.22805">
        <ele>48</ele>
        <time>2026-02-22T08:41:45Z</time>
      </trkpt>
      <trkpt lat="43.22166" lon="3.22798">
        <ele>48</ele>
        <time>2026-02-22T08:41:47Z</time>
      </trkpt>
      <trkpt lat="43.22171" lon="3.22791">
        <ele>48</ele>
        <time>2026-02-22T08:41:49Z</time>
      </trkpt>
      <trkpt lat="43.22176" lon="3.22784">
        <ele>48</ele>
        <time>2026-02-22T08:41:51Z</time>
      </trkpt>
      <trkpt lat="43.22181" lon="3.22777">
        <ele>48</ele>
        <time>2026-02-22T08:41:53Z</time>
      </trkpt>
      <trkpt lat="43.22185" lon="3.22768">
        <ele>48</ele>
        <time>2026-02-22T08:41:55Z</time>
      </trkpt>
      <trkpt lat="43.22185" lon="3.22758">
        <ele>48</ele>
        <time>2026-02-22T08:41:57Z</time>
      </trkpt>
      <trkpt lat="43.22183" lon="3.22748">
        <ele>48</ele>
        <time>2026-02-22T08:41:59Z</time>
      </trkpt>
      <trkpt lat="43.22177" lon="3.2274">
        <ele>48</ele>
        <time>2026-02-22T08:42:01Z</time>
      </trkpt>
      <trkpt lat="43.22171" lon="3.22733">
        <ele>47</ele>
        <time>2026-02-22T08:42:03Z</time>
      </trkpt>
      <trkpt lat="43.22165" lon="3.22727">
        <ele>47</ele>
        <time>2026-02-22T08:42:05Z</time>
      </trkpt>
      <trkpt lat="43.22158" lon="3.2272">
        <ele>47</ele>
        <time>2026-02-22T08:42:07Z</time>
      </trkpt>
      <trkpt lat="43.22152" lon="3.22713">
        <ele>47</ele>
        <time>2026-02-22T08:42:09Z</time>
      </trkpt>
      <trkpt lat="43.22146" lon="3.22706">
        <ele>47</ele>
        <time>2026-02-22T08:42:11Z</time>
      </trkpt>
      <trkpt lat="43.22139" lon="3.227">
        <ele>47</ele>
        <time>2026-02-22T08:42:13Z</time>
      </trkpt>
      <trkpt lat="43.22133" lon="3.22694">
        <ele>47</ele>
        <time>2026-02-22T08:42:15Z</time>
      </trkpt>
      <trkpt lat="43.22127" lon="3.22688">
        <ele>48</ele>
        <time>2026-02-22T08:42:17Z</time>
      </trkpt>
      <trkpt lat="43.22121" lon="3.22682">
        <ele>48</ele>
        <time>2026-02-22T08:42:19Z</time>
      </trkpt>
      <trkpt lat="43.22114" lon="3.22675">
        <ele>48</ele>
        <time>2026-02-22T08:42:21Z</time>
      </trkpt>
      <trkpt lat="43.22108" lon="3.22669">
        <ele>48</ele>
        <time>2026-02-22T08:42:23Z</time>
      </trkpt>
      <trkpt lat="43.22101" lon="3.22663">
        <ele>49</ele>
        <time>2026-02-22T08:42:25Z</time>
      </trkpt>
      <trkpt lat="43.22095" lon="3.22656">
        <ele>48</ele>
        <time>2026-02-22T08:42:27Z</time>
      </trkpt>
      <trkpt lat="43.22089" lon="3.2265">
        <ele>48</ele>
        <time>2026-02-22T08:42:29Z</time>
      </trkpt>
      <trkpt lat="43.22083" lon="3.22643">
        <ele>48</ele>
        <time>2026-02-22T08:42:31Z</time>
      </trkpt>
      <trkpt lat="43.22077" lon="3.22637">
        <ele>48</ele>
        <time>2026-02-22T08:42:33Z</time>
      </trkpt>
      <trkpt lat="43.2207" lon="3.22632">
        <ele>48</ele>
        <time>2026-02-22T08:42:35Z</time>
      </trkpt>
      <trkpt lat="43.22063" lon="3.22627">
        <ele>48</ele>
        <time>2026-02-22T08:42:37Z</time>
      </trkpt>
      <trkpt lat="43.22057" lon="3.22623">
        <ele>48</ele>
        <time>2026-02-22T08:42:39Z</time>
      </trkpt>
      <trkpt lat="43.2205" lon="3.22618">
        <ele>48</ele>
        <time>2026-02-22T08:42:41Z</time>
      </trkpt>
      <trkpt lat="43.22045" lon="3.22611">
        <ele>48</ele>
        <time>2026-02-22T08:42:43Z</time>
      </trkpt>
      <trkpt lat="43.22042" lon="3.22601">
        <ele>48</ele>
        <time>2026-02-22T08:42:45Z</time>
      </trkpt>
      <trkpt lat="43.22044" lon="3.22591">
        <ele>48</ele>
        <time>2026-02-22T08:42:47Z</time>
      </trkpt>
      <trkpt lat="43.22048" lon="3.22582">
        <ele>48</ele>
        <time>2026-02-22T08:42:49Z</time>
      </trkpt>
      <trkpt lat="43.22051" lon="3.22573">
        <ele>48</ele>
        <time>2026-02-22T08:42:51Z</time>
      </trkpt>
      <trkpt lat="43.22055" lon="3.22565">
        <ele>48</ele>
        <time>2026-02-22T08:42:53Z</time>
      </trkpt>
      <trkpt lat="43.22058" lon="3.22555">
        <ele>48</ele>
        <time>2026-02-22T08:42:55Z</time>
      </trkpt>
      <trkpt lat="43.2206" lon="3.22546">
        <ele>48</ele>
        <time>2026-02-22T08:42:57Z</time>
      </trkpt>
      <trkpt lat="43.22063" lon="3.22537">
        <ele>48</ele>
        <time>2026-02-22T08:42:59Z</time>
      </trkpt>
      <trkpt lat="43.22066" lon="3.22528">
        <ele>48</ele>
        <time>2026-02-22T08:43:01Z</time>
      </trkpt>
      <trkpt lat="43.2207" lon="3.22518">
        <ele>48</ele>
        <time>2026-02-22T08:43:03Z</time>
      </trkpt>
      <trkpt lat="43.22073" lon="3.22509">
        <ele>48</ele>
        <time>2026-02-22T08:43:05Z</time>
      </trkpt>
      <trkpt lat="43.22076" lon="3.22499">
        <ele>48</ele>
        <time>2026-02-22T08:43:07Z</time>
      </trkpt>
      <trkpt lat="43.22079" lon="3.2249">
        <ele>48</ele>
        <time>2026-02-22T08:43:09Z</time>
      </trkpt>
      <trkpt lat="43.22082" lon="3.22481">
        <ele>48</ele>
        <time>2026-02-22T08:43:11Z</time>
      </trkpt>
      <trkpt lat="43.22085" lon="3.22472">
        <ele>48</ele>
        <time>2026-02-22T08:43:13Z</time>
      </trkpt>
      <trkpt lat="43.22088" lon="3.22463">
        <ele>48</ele>
        <time>2026-02-22T08:43:15Z</time>
      </trkpt>
      <trkpt lat="43.22092" lon="3.22454">
        <ele>48</ele>
        <time>2026-02-22T08:43:17Z</time>
      </trkpt>
      <trkpt lat="43.22095" lon="3.22445">
        <ele>48</ele>
        <time>2026-02-22T08:43:19Z</time>
      </trkpt>
      <trkpt lat="43.22099" lon="3.22435">
        <ele>48</ele>
        <time>2026-02-22T08:43:21Z</time>
      </trkpt>
      <trkpt lat="43.22103" lon="3.22426">
        <ele>48</ele>
        <time>2026-02-22T08:43:23Z</time>
      </trkpt>
      <trkpt lat="43.22106" lon="3.22417">
        <ele>48</ele>
        <time>2026-02-22T08:43:25Z</time>
      </trkpt>
      <trkpt lat="43.22111" lon="3.22408">
        <ele>48</ele>
        <time>2026-02-22T08:43:27Z</time>
      </trkpt>
      <trkpt lat="43.22115" lon="3.22399">
        <ele>49</ele>
        <time>2026-02-22T08:43:29Z</time>
      </trkpt>
      <trkpt lat="43.22119" lon="3.2239">
        <ele>49</ele>
        <time>2026-02-22T08:43:31Z</time>
      </trkpt>
      <trkpt lat="43.22123" lon="3.22381">
        <ele>49</ele>
        <time>2026-02-22T08:43:33Z</time>
      </trkpt>
      <trkpt lat="43.22127" lon="3.22372">
        <ele>49</ele>
        <time>2026-02-22T08:43:35Z</time>
      </trkpt>
      <trkpt lat="43.22131" lon="3.22363">
        <ele>49</ele>
        <time>2026-02-22T08:43:37Z</time>
      </trkpt>
      <trkpt lat="43.22135" lon="3.22354">
        <ele>49</ele>
        <time>2026-02-22T08:43:39Z</time>
      </trkpt>
      <trkpt lat="43.22139" lon="3.22344">
        <ele>49</ele>
        <time>2026-02-22T08:43:41Z</time>
      </trkpt>
      <trkpt lat="43.22143" lon="3.22334">
        <ele>48</ele>
        <time>2026-02-22T08:43:43Z</time>
      </trkpt>
      <trkpt lat="43.22147" lon="3.22324">
        <ele>48</ele>
        <time>2026-02-22T08:43:45Z</time>
      </trkpt>
      <trkpt lat="43.2215" lon="3.22315">
        <ele>48</ele>
        <time>2026-02-22T08:43:47Z</time>
      </trkpt>
      <trkpt lat="43.22153" lon="3.22305">
        <ele>48</ele>
        <time>2026-02-22T08:43:49Z</time>
      </trkpt>
      <trkpt lat="43.22157" lon="3.22296">
        <ele>48</ele>
        <time>2026-02-22T08:43:51Z</time>
      </trkpt>
      <trkpt lat="43.2216" lon="3.22286">
        <ele>48</ele>
        <time>2026-02-22T08:43:53Z</time>
      </trkpt>
      <trkpt lat="43.22163" lon="3.22276">
        <ele>48</ele>
        <time>2026-02-22T08:43:55Z</time>
      </trkpt>
      <trkpt lat="43.22166" lon="3.22266">
        <ele>48</ele>
        <time>2026-02-22T08:43:57Z</time>
      </trkpt>
      <trkpt lat="43.22168" lon="3.22256">
        <ele>48</ele>
        <time>2026-02-22T08:43:59Z</time>
      </trkpt>
      <trkpt lat="43.22171" lon="3.22246">
        <ele>48</ele>
        <time>2026-02-22T08:44:01Z</time>
      </trkpt>
      <trkpt lat="43.22174" lon="3.22237">
        <ele>48</ele>
        <time>2026-02-22T08:44:03Z</time>
      </trkpt>
      <trkpt lat="43.22177" lon="3.22226">
        <ele>48</ele>
        <time>2026-02-22T08:44:05Z</time>
      </trkpt>
      <trkpt lat="43.2218" lon="3.22216">
        <ele>48</ele>
        <time>2026-02-22T08:44:07Z</time>
      </trkpt>
      <trkpt lat="43.22183" lon="3.22207">
        <ele>48</ele>
        <time>2026-02-22T08:44:09Z</time>
      </trkpt>
      <trkpt lat="43.22186" lon="3.22197">
        <ele>48</ele>
        <time>2026-02-22T08:44:11Z</time>
      </trkpt>
      <trkpt lat="43.22188" lon="3.22187">
        <ele>48</ele>
        <time>2026-02-22T08:44:13Z</time>
      </trkpt>
      <trkpt lat="43.22191" lon="3.22177">
        <ele>48</ele>
        <time>2026-02-22T08:44:15Z</time>
      </trkpt>
      <trkpt lat="43.22194" lon="3.22167">
        <ele>48</ele>
        <time>2026-02-22T08:44:17Z</time>
      </trkpt>
      <trkpt lat="43.22197" lon="3.22158">
        <ele>49</ele>
        <time>2026-02-22T08:44:19Z</time>
      </trkpt>
      <trkpt lat="43.222" lon="3.22149">
        <ele>49</ele>
        <time>2026-02-22T08:44:21Z</time>
      </trkpt>
      <trkpt lat="43.22203" lon="3.2214">
        <ele>49</ele>
        <time>2026-02-22T08:44:23Z</time>
      </trkpt>
      <trkpt lat="43.22205" lon="3.2213">
        <ele>50</ele>
        <time>2026-02-22T08:44:25Z</time>
      </trkpt>
      <trkpt lat="43.22208" lon="3.22121">
        <ele>50</ele>
        <time>2026-02-22T08:44:27Z</time>
      </trkpt>
      <trkpt lat="43.22211" lon="3.22112">
        <ele>50</ele>
        <time>2026-02-22T08:44:29Z</time>
      </trkpt>
      <trkpt lat="43.22214" lon="3.22102">
        <ele>50</ele>
        <time>2026-02-22T08:44:31Z</time>
      </trkpt>
      <trkpt lat="43.22216" lon="3.22093">
        <ele>50</ele>
        <time>2026-02-22T08:44:33Z</time>
      </trkpt>
      <trkpt lat="43.22219" lon="3.22083">
        <ele>50</ele>
        <time>2026-02-22T08:44:35Z</time>
      </trkpt>
      <trkpt lat="43.22222" lon="3.22074">
        <ele>50</ele>
        <time>2026-02-22T08:44:37Z</time>
      </trkpt>
      <trkpt lat="43.22225" lon="3.22065">
        <ele>50</ele>
        <time>2026-02-22T08:44:39Z</time>
      </trkpt>
      <trkpt lat="43.22228" lon="3.22055">
        <ele>50</ele>
        <time>2026-02-22T08:44:41Z</time>
      </trkpt>
      <trkpt lat="43.2223" lon="3.22046">
        <ele>50</ele>
        <time>2026-02-22T08:44:43Z</time>
      </trkpt>
      <trkpt lat="43.22232" lon="3.22037">
        <ele>50</ele>
        <time>2026-02-22T08:44:45Z</time>
      </trkpt>
      <trkpt lat="43.22234" lon="3.22028">
        <ele>50</ele>
        <time>2026-02-22T08:44:47Z</time>
      </trkpt>
      <trkpt lat="43.22237" lon="3.22019">
        <ele>50</ele>
        <time>2026-02-22T08:44:49Z</time>
      </trkpt>
      <trkpt lat="43.22239" lon="3.22011">
        <ele>50</ele>
        <time>2026-02-22T08:44:51Z</time>
      </trkpt>
      <trkpt lat="43.22245" lon="3.22005">
        <ele>50</ele>
        <time>2026-02-22T08:44:53Z</time>
      </trkpt>
      <trkpt lat="43.22251" lon="3.22">
        <ele>50</ele>
        <time>2026-02-22T08:44:55Z</time>
      </trkpt>
      <trkpt lat="43.22258" lon="3.21994">
        <ele>50</ele>
        <time>2026-02-22T08:44:57Z</time>
      </trkpt>
      <trkpt lat="43.22263" lon="3.21987">
        <ele>49</ele>
        <time>2026-02-22T08:44:59Z</time>
      </trkpt>
      <trkpt lat="43.22268" lon="3.21978">
        <ele>49</ele>
        <time>2026-02-22T08:45:01Z</time>
      </trkpt>
      <trkpt lat="43.22272" lon="3.21969">
        <ele>49</ele>
        <time>2026-02-22T08:45:03Z</time>
      </trkpt>
      <trkpt lat="43.22275" lon="3.2196">
        <ele>50</ele>
        <time>2026-02-22T08:45:05Z</time>
      </trkpt>
      <trkpt lat="43.22278" lon="3.2195">
        <ele>50</ele>
        <time>2026-02-22T08:45:07Z</time>
      </trkpt>
      <trkpt lat="43.2228" lon="3.21941">
        <ele>50</ele>
        <time>2026-02-22T08:45:09Z</time>
      </trkpt>
      <trkpt lat="43.22282" lon="3.21931">
        <ele>50</ele>
        <time>2026-02-22T08:45:11Z</time>
      </trkpt>
      <trkpt lat="43.22283" lon="3.21921">
        <ele>50</ele>
        <time>2026-02-22T08:45:13Z</time>
      </trkpt>
      <trkpt lat="43.22284" lon="3.21911">
        <ele>50</ele>
        <time>2026-02-22T08:45:15Z</time>
      </trkpt>
      <trkpt lat="43.22285" lon="3.21901">
        <ele>50</ele>
        <time>2026-02-22T08:45:17Z</time>
      </trkpt>
      <trkpt lat="43.22287" lon="3.21891">
        <ele>49</ele>
        <time>2026-02-22T08:45:19Z</time>
      </trkpt>
      <trkpt lat="43.22291" lon="3.21882">
        <ele>49</ele>
        <time>2026-02-22T08:45:21Z</time>
      </trkpt>
      <trkpt lat="43.22295" lon="3.21874">
        <ele>49</ele>
        <time>2026-02-22T08:45:23Z</time>
      </trkpt>
      <trkpt lat="43.22299" lon="3.21866">
        <ele>49</ele>
        <time>2026-02-22T08:45:25Z</time>
      </trkpt>
      <trkpt lat="43.22303" lon="3.21858">
        <ele>50</ele>
        <time>2026-02-22T08:45:27Z</time>
      </trkpt>
      <trkpt lat="43.22308" lon="3.2185">
        <ele>50</ele>
        <time>2026-02-22T08:45:29Z</time>
      </trkpt>
      <trkpt lat="43.22312" lon="3.21842">
        <ele>50</ele>
        <time>2026-02-22T08:45:31Z</time>
      </trkpt>
      <trkpt lat="43.22315" lon="3.21834">
        <ele>50</ele>
        <time>2026-02-22T08:45:33Z</time>
      </trkpt>
      <trkpt lat="43.2232" lon="3.21826">
        <ele>50</ele>
        <time>2026-02-22T08:45:35Z</time>
      </trkpt>
      <trkpt lat="43.22324" lon="3.21819">
        <ele>49</ele>
        <time>2026-02-22T08:45:37Z</time>
      </trkpt>
      <trkpt lat="43.22328" lon="3.2181">
        <ele>49</ele>
        <time>2026-02-22T08:45:39Z</time>
      </trkpt>
      <trkpt lat="43.22332" lon="3.21802">
        <ele>49</ele>
        <time>2026-02-22T08:45:41Z</time>
      </trkpt>
      <trkpt lat="43.22336" lon="3.21794">
        <ele>49</ele>
        <time>2026-02-22T08:45:43Z</time>
      </trkpt>
      <trkpt lat="43.22341" lon="3.21786">
        <ele>49</ele>
        <time>2026-02-22T08:45:45Z</time>
      </trkpt>
      <trkpt lat="43.22345" lon="3.21778">
        <ele>49</ele>
        <time>2026-02-22T08:45:47Z</time>
      </trkpt>
      <trkpt lat="43.22349" lon="3.21769">
        <ele>49</ele>
        <time>2026-02-22T08:45:49Z</time>
      </trkpt>
      <trkpt lat="43.22353" lon="3.21761">
        <ele>49</ele>
        <time>2026-02-22T08:45:51Z</time>
      </trkpt>
      <trkpt lat="43.22357" lon="3.21753">
        <ele>49</ele>
        <time>2026-02-22T08:45:53Z</time>
      </trkpt>
      <trkpt lat="43.22361" lon="3.21745">
        <ele>49</ele>
        <time>2026-02-22T08:45:55Z</time>
      </trkpt>
      <trkpt lat="43.22366" lon="3.21737">
        <ele>49</ele>
        <time>2026-02-22T08:45:57Z</time>
      </trkpt>
      <trkpt lat="43.2237" lon="3.21729">
        <ele>48</ele>
        <time>2026-02-22T08:45:59Z</time>
      </trkpt>
      <trkpt lat="43.22374" lon="3.21721">
        <ele>49</ele>
        <time>2026-02-22T08:46:01Z</time>
      </trkpt>
      <trkpt lat="43.22379" lon="3.21714">
        <ele>49</ele>
        <time>2026-02-22T08:46:03Z</time>
      </trkpt>
      <trkpt lat="43.22383" lon="3.21706">
        <ele>49</ele>
        <time>2026-02-22T08:46:05Z</time>
      </trkpt>
      <trkpt lat="43.22387" lon="3.21697">
        <ele>49</ele>
        <time>2026-02-22T08:46:07Z</time>
      </trkpt>
      <trkpt lat="43.22391" lon="3.21689">
        <ele>49</ele>
        <time>2026-02-22T08:46:09Z</time>
      </trkpt>
      <trkpt lat="43.22395" lon="3.21681">
        <ele>49</ele>
        <time>2026-02-22T08:46:11Z</time>
      </trkpt>
      <trkpt lat="43.224" lon="3.21673">
        <ele>49</ele>
        <time>2026-02-22T08:46:13Z</time>
      </trkpt>
      <trkpt lat="43.22404" lon="3.21665">
        <ele>49</ele>
        <time>2026-02-22T08:46:15Z</time>
      </trkpt>
      <trkpt lat="43.22409" lon="3.21657">
        <ele>49</ele>
        <time>2026-02-22T08:46:17Z</time>
      </trkpt>
      <trkpt lat="43.22413" lon="3.21649">
        <ele>49</ele>
        <time>2026-02-22T08:46:19Z</time>
      </trkpt>
      <trkpt lat="43.22418" lon="3.21641">
        <ele>49</ele>
        <time>2026-02-22T08:46:21Z</time>
      </trkpt>
      <trkpt lat="43.22423" lon="3.21633">
        <ele>49</ele>
        <time>2026-02-22T08:46:23Z</time>
      </trkpt>
      <trkpt lat="43.22427" lon="3.21625">
        <ele>49</ele>
        <time>2026-02-22T08:46:25Z</time>
      </trkpt>
      <trkpt lat="43.22432" lon="3.21616">
        <ele>49</ele>
        <time>2026-02-22T08:46:27Z</time>
      </trkpt>
      <trkpt lat="43.22437" lon="3.21608">
        <ele>49</ele>
        <time>2026-02-22T08:46:29Z</time>
      </trkpt>
      <trkpt lat="43.22441" lon="3.21598">
        <ele>49</ele>
        <time>2026-02-22T08:46:31Z</time>
      </trkpt>
      <trkpt lat="43.22445" lon="3.21587">
        <ele>49</ele>
        <time>2026-02-22T08:46:33Z</time>
      </trkpt>
      <trkpt lat="43.22449" lon="3.21577">
        <ele>49</ele>
        <time>2026-02-22T08:46:35Z</time>
      </trkpt>
      <trkpt lat="43.22453" lon="3.21567">
        <ele>49</ele>
        <time>2026-02-22T08:46:37Z</time>
      </trkpt>
      <trkpt lat="43.22457" lon="3.21558">
        <ele>49</ele>
        <time>2026-02-22T08:46:39Z</time>
      </trkpt>
      <trkpt lat="43.22461" lon="3.21549">
        <ele>49</ele>
        <time>2026-02-22T08:46:41Z</time>
      </trkpt>
      <trkpt lat="43.22466" lon="3.2154">
        <ele>49</ele>
        <time>2026-02-22T08:46:43Z</time>
      </trkpt>
      <trkpt lat="43.2247" lon="3.21531">
        <ele>49</ele>
        <time>2026-02-22T08:46:45Z</time>
      </trkpt>
      <trkpt lat="43.22474" lon="3.21522">
        <ele>49</ele>
        <time>2026-02-22T08:46:47Z</time>
      </trkpt>
      <trkpt lat="43.22479" lon="3.21513">
        <ele>49</ele>
        <time>2026-02-22T08:46:49Z</time>
      </trkpt>
      <trkpt lat="43.22485" lon="3.21506">
        <ele>49</ele>
        <time>2026-02-22T08:46:51Z</time>
      </trkpt>
      <trkpt lat="43.22491" lon="3.21498">
        <ele>49</ele>
        <time>2026-02-22T08:46:53Z</time>
      </trkpt>
      <trkpt lat="43.22496" lon="3.21491">
        <ele>49</ele>
        <time>2026-02-22T08:46:55Z</time>
      </trkpt>
      <trkpt lat="43.22499" lon="3.21483">
        <ele>49</ele>
        <time>2026-02-22T08:46:57Z</time>
      </trkpt>
      <trkpt lat="43.22502" lon="3.21475">
        <ele>49</ele>
        <time>2026-02-22T08:46:59Z</time>
      </trkpt>
      <trkpt lat="43.22506" lon="3.21466">
        <ele>49</ele>
        <time>2026-02-22T08:47:01Z</time>
      </trkpt>
      <trkpt lat="43.22509" lon="3.21457">
        <ele>49</ele>
        <time>2026-02-22T08:47:03Z</time>
      </trkpt>
      <trkpt lat="43.22513" lon="3.21448">
        <ele>49</ele>
        <time>2026-02-22T08:47:05Z</time>
      </trkpt>
      <trkpt lat="43.22517" lon="3.21438">
        <ele>49</ele>
        <time>2026-02-22T08:47:07Z</time>
      </trkpt>
      <trkpt lat="43.22521" lon="3.21429">
        <ele>49</ele>
        <time>2026-02-22T08:47:09Z</time>
      </trkpt>
      <trkpt lat="43.22525" lon="3.2142">
        <ele>49</ele>
        <time>2026-02-22T08:47:11Z</time>
      </trkpt>
      <trkpt lat="43.22528" lon="3.21411">
        <ele>49</ele>
        <time>2026-02-22T08:47:13Z</time>
      </trkpt>
      <trkpt lat="43.22532" lon="3.21402">
        <ele>49</ele>
        <time>2026-02-22T08:47:15Z</time>
      </trkpt>
      <trkpt lat="43.22536" lon="3.21392">
        <ele>49</ele>
        <time>2026-02-22T08:47:17Z</time>
      </trkpt>
      <trkpt lat="43.22539" lon="3.21384">
        <ele>50</ele>
        <time>2026-02-22T08:47:19Z</time>
      </trkpt>
      <trkpt lat="43.22543" lon="3.21375">
        <ele>50</ele>
        <time>2026-02-22T08:47:21Z</time>
      </trkpt>
      <trkpt lat="43.22547" lon="3.21367">
        <ele>50</ele>
        <time>2026-02-22T08:47:23Z</time>
      </trkpt>
      <trkpt lat="43.2255" lon="3.21359">
        <ele>50</ele>
        <time>2026-02-22T08:47:25Z</time>
      </trkpt>
      <trkpt lat="43.22553" lon="3.21351">
        <ele>50</ele>
        <time>2026-02-22T08:47:27Z</time>
      </trkpt>
      <trkpt lat="43.22556" lon="3.21343">
        <ele>50</ele>
        <time>2026-02-22T08:47:29Z</time>
      </trkpt>
      <trkpt lat="43.2256" lon="3.21335">
        <ele>51</ele>
        <time>2026-02-22T08:47:31Z</time>
      </trkpt>
      <trkpt lat="43.22563" lon="3.21327">
        <ele>50</ele>
        <time>2026-02-22T08:47:33Z</time>
      </trkpt>
      <trkpt lat="43.22566" lon="3.21319">
        <ele>50</ele>
        <time>2026-02-22T08:47:35Z</time>
      </trkpt>
      <trkpt lat="43.2257" lon="3.2131">
        <ele>50</ele>
        <time>2026-02-22T08:47:37Z</time>
      </trkpt>
      <trkpt lat="43.22573" lon="3.21301">
        <ele>50</ele>
        <time>2026-02-22T08:47:39Z</time>
      </trkpt>
      <trkpt lat="43.22576" lon="3.21293">
        <ele>50</ele>
        <time>2026-02-22T08:47:41Z</time>
      </trkpt>
      <trkpt lat="43.2258" lon="3.21285">
        <ele>50</ele>
        <time>2026-02-22T08:47:43Z</time>
      </trkpt>
      <trkpt lat="43.22583" lon="3.21276">
        <ele>50</ele>
        <time>2026-02-22T08:47:45Z</time>
      </trkpt>
      <trkpt lat="43.22586" lon="3.21268">
        <ele>50</ele>
        <time>2026-02-22T08:47:47Z</time>
      </trkpt>
      <trkpt lat="43.22589" lon="3.2126">
        <ele>50</ele>
        <time>2026-02-22T08:47:49Z</time>
      </trkpt>
      <trkpt lat="43.22592" lon="3.21252">
        <ele>50</ele>
        <time>2026-02-22T08:47:51Z</time>
      </trkpt>
      <trkpt lat="43.22596" lon="3.21245">
        <ele>51</ele>
        <time>2026-02-22T08:47:53Z</time>
      </trkpt>
      <trkpt lat="43.226" lon="3.21238">
        <ele>51</ele>
        <time>2026-02-22T08:47:55Z</time>
      </trkpt>
      <trkpt lat="43.22605" lon="3.21231">
        <ele>50</ele>
        <time>2026-02-22T08:47:57Z</time>
      </trkpt>
      <trkpt lat="43.2261" lon="3.21224">
        <ele>50</ele>
        <time>2026-02-22T08:47:59Z</time>
      </trkpt>
      <trkpt lat="43.22617" lon="3.2122">
        <ele>50</ele>
        <time>2026-02-22T08:48:01Z</time>
      </trkpt>
      <trkpt lat="43.22624" lon="3.21218">
        <ele>50</ele>
        <time>2026-02-22T08:48:03Z</time>
      </trkpt>
      <trkpt lat="43.22631" lon="3.21218">
        <ele>50</ele>
        <time>2026-02-22T08:48:05Z</time>
      </trkpt>
      <trkpt lat="43.22638" lon="3.21218">
        <ele>50</ele>
        <time>2026-02-22T08:48:07Z</time>
      </trkpt>
      <trkpt lat="43.22645" lon="3.21218">
        <ele>50</ele>
        <time>2026-02-22T08:48:09Z</time>
      </trkpt>
      <trkpt lat="43.2265" lon="3.21216">
        <ele>50</ele>
        <time>2026-02-22T08:48:11Z</time>
      </trkpt>
      <trkpt lat="43.22653" lon="3.21211">
        <ele>50</ele>
        <time>2026-02-22T08:48:13Z</time>
      </trkpt>
      <trkpt lat="43.22655" lon="3.21207">
        <ele>50</ele>
        <time>2026-02-22T08:48:15Z</time>
      </trkpt>
      <trkpt lat="43.22654" lon="3.21204">
        <ele>50</ele>
        <time>2026-02-22T08:48:17Z</time>
      </trkpt>
      <trkpt lat="43.22654" lon="3.21202">
        <ele>50</ele>
        <time>2026-02-22T08:48:19Z</time>
      </trkpt>
      <trkpt lat="43.22654" lon="3.21202">
        <ele>50</ele>
        <time>2026-02-22T08:48:21Z</time>
      </trkpt>
      <trkpt lat="43.22654" lon="3.21202">
        <ele>50</ele>
        <time>2026-02-22T08:48:23Z</time>
      </trkpt>
      <trkpt lat="43.22654" lon="3.21202">
        <ele>50</ele>
        <time>2026-02-22T08:48:25Z</time>
      </trkpt>
      <trkpt lat="43.22654" lon="3.21202">
        <ele>50</ele>
        <time>2026-02-22T08:48:27Z</time>
      </trkpt>
      <trkpt lat="43.22654" lon="3.21202">
        <ele>50</ele>
        <time>2026-02-22T08:48:29Z</time>
      </trkpt>
      <trkpt lat="43.22654" lon="3.21202">
        <ele>50</ele>
        <time>2026-02-22T08:48:31Z</time>
      </trkpt>
      <trkpt lat="43.22654" lon="3.21202">
        <ele>50</ele>
        <time>2026-02-22T08:48:33Z</time>
      </trkpt>
      <trkpt lat="43.22654" lon="3.21202">
        <ele>50</ele>
        <time>2026-02-22T08:48:35Z</time>
      </trkpt>
      <trkpt lat="43.22654" lon="3.21202">
        <ele>50</ele>
        <time>2026-02-22T08:48:37Z</time>
      </trkpt>
      <trkpt lat="43.22654" lon="3.21202">
        <ele>50</ele>
        <time>2026-02-22T08:48:39Z</time>
      </trkpt>
      <trkpt lat="43.22654" lon="3.21202">
        <ele>50</ele>
        <time>2026-02-22T08:48:41Z</time>
      </trkpt>
      <trkpt lat="43.22654" lon="3.21202">
        <ele>50</ele>
        <time>2026-02-22T08:48:43Z</time>
      </trkpt>
      <trkpt lat="43.22654" lon="3.21202">
        <ele>50</ele>
        <time>2026-02-22T08:48:45Z</time>
      </trkpt>
      <trkpt lat="43.22654" lon="3.21202">
        <ele>50</ele>
        <time>2026-02-22T08:48:47Z</time>
      </trkpt>
      <trkpt lat="43.22654" lon="3.21202">
        <ele>50</ele>
        <time>2026-02-22T08:48:49Z</time>
      </trkpt>
      <trkpt lat="43.22654" lon="3.21202">
        <ele>50</ele>
        <time>2026-02-22T08:48:51Z</time>
      </trkpt>
      <trkpt lat="43.22654" lon="3.21202">
        <ele>50</ele>
        <time>2026-02-22T08:48:53Z</time>
      </trkpt>
      <trkpt lat="43.22654" lon="3.21202">
        <ele>50</ele>
        <time>2026-02-22T08:48:55Z</time>
      </trkpt>
      <trkpt lat="43.22654" lon="3.21202">
        <ele>50</ele>
        <time>2026-02-22T08:48:57Z</time>
      </trkpt>
      <trkpt lat="43.22654" lon="3.21202">
        <ele>50</ele>
        <time>2026-02-22T08:48:59Z</time>
      </trkpt>
      <trkpt lat="43.22654" lon="3.21202">
        <ele>50</ele>
        <time>2026-02-22T08:49:01Z</time>
      </trkpt>
      <trkpt lat="43.22654" lon="3.21202">
        <ele>50</ele>
        <time>2026-02-22T08:49:03Z</time>
      </trkpt>
      <trkpt lat="43.22654" lon="3.21202">
        <ele>50</ele>
        <time>2026-02-22T08:49:05Z</time>
      </trkpt>
      <trkpt lat="43.22654" lon="3.21202">
        <ele>50</ele>
        <time>2026-02-22T08:49:07Z</time>
      </trkpt>
      <trkpt lat="43.22654" lon="3.21202">
        <ele>50</ele>
        <time>2026-02-22T08:49:09Z</time>
      </trkpt>
      <trkpt lat="43.22654" lon="3.21202">
        <ele>50</ele>
        <time>2026-02-22T08:49:11Z</time>
      </trkpt>
      <trkpt lat="43.22654" lon="3.21202">
        <ele>50</ele>
        <time>2026-02-22T08:49:13Z</time>
      </trkpt>
      <trkpt lat="43.22654" lon="3.21202">
        <ele>50</ele>
        <time>2026-02-22T08:49:15Z</time>
      </trkpt>
      <trkpt lat="43.22654" lon="3.21202">
        <ele>50</ele>
        <time>2026-02-22T08:49:17Z</time>
      </trkpt>
      <trkpt lat="43.22654" lon="3.21202">
        <ele>50</ele>
        <time>2026-02-22T08:49:19Z</time>
      </trkpt>
      <trkpt lat="43.22654" lon="3.21202">
        <ele>50</ele>
        <time>2026-02-22T08:49:21Z</time>
      </trkpt>
      <trkpt lat="43.22654" lon="3.21202">
        <ele>50</ele>
        <time>2026-02-22T08:49:23Z</time>
      </trkpt>
      <trkpt lat="43.22654" lon="3.21202">
        <ele>50</ele>
        <time>2026-02-22T08:49:25Z</time>
      </trkpt>
      <trkpt lat="43.22654" lon="3.21202">
        <ele>50</ele>
        <time>2026-02-22T08:49:27Z</time>
      </trkpt>
      <trkpt lat="43.22654" lon="3.21202">
        <ele>50</ele>
        <time>2026-02-22T08:49:29Z</time>
      </trkpt>
      <trkpt lat="43.22654" lon="3.21202">
        <ele>50</ele>
        <time>2026-02-22T08:49:31Z</time>
      </trkpt>
      <trkpt lat="43.22654" lon="3.21202">
        <ele>50</ele>
        <time>2026-02-22T08:50:53Z</time>
      </trkpt>
      <trkpt lat="43.22654" lon="3.21202">
        <ele>50</ele>
        <time>2026-02-22T08:50:55Z</time>
      </trkpt>
      <trkpt lat="43.22654" lon="3.21202">
        <ele>50</ele>
        <time>2026-02-22T08:50:57Z</time>
      </trkpt>
      <trkpt lat="43.22654" lon="3.21202">
        <ele>50</ele>
        <time>2026-02-22T08:50:59Z</time>
      </trkpt>
      <trkpt lat="43.22654" lon="3.21202">
        <ele>50</ele>
        <time>2026-02-22T08:51:01Z</time>
      </trkpt>
      <trkpt lat="43.22654" lon="3.21202">
        <ele>50</ele>
        <time>2026-02-22T08:51:03Z</time>
      </trkpt>
      <trkpt lat="43.22654" lon="3.21202">
        <ele>50</ele>
        <time>2026-02-22T08:51:05Z</time>
      </trkpt>
      <trkpt lat="43.22654" lon="3.21207">
        <ele>50</ele>
        <time>2026-02-22T08:51:07Z</time>
      </trkpt>
      <trkpt lat="43.22654" lon="3.21209">
        <ele>49</ele>
        <time>2026-02-22T08:51:09Z</time>
      </trkpt>
      <trkpt lat="43.22655" lon="3.21211">
        <ele>49</ele>
        <time>2026-02-22T08:51:11Z</time>
      </trkpt>
      <trkpt lat="43.22657" lon="3.21213">
        <ele>49</ele>
        <time>2026-02-22T08:51:13Z</time>
      </trkpt>
      <trkpt lat="43.2266" lon="3.21214">
        <ele>49</ele>
        <time>2026-02-22T08:51:15Z</time>
      </trkpt>
      <trkpt lat="43.22664" lon="3.21212">
        <ele>49</ele>
        <time>2026-02-22T08:51:17Z</time>
      </trkpt>
      <trkpt lat="43.22669" lon="3.21208">
        <ele>49</ele>
        <time>2026-02-22T08:51:19Z</time>
      </trkpt>
      <trkpt lat="43.22674" lon="3.21202">
        <ele>50</ele>
        <time>2026-02-22T08:51:21Z</time>
      </trkpt>
      <trkpt lat="43.22678" lon="3.21196">
        <ele>49</ele>
        <time>2026-02-22T08:51:23Z</time>
      </trkpt>
      <trkpt lat="43.22682" lon="3.21192">
        <ele>49</ele>
        <time>2026-02-22T08:51:25Z</time>
      </trkpt>
      <trkpt lat="43.22685" lon="3.21188">
        <ele>50</ele>
        <time>2026-02-22T08:51:27Z</time>
      </trkpt>
      <trkpt lat="43.22685" lon="3.21183">
        <ele>50</ele>
        <time>2026-02-22T08:51:29Z</time>
      </trkpt>
      <trkpt lat="43.22685" lon="3.21177">
        <ele>50</ele>
        <time>2026-02-22T08:51:31Z</time>
      </trkpt>
      <trkpt lat="43.22683" lon="3.21172">
        <ele>50</ele>
        <time>2026-02-22T08:51:33Z</time>
      </trkpt>
      <trkpt lat="43.22681" lon="3.21169">
        <ele>51</ele>
        <time>2026-02-22T08:51:35Z</time>
      </trkpt>
      <trkpt lat="43.22678" lon="3.21167">
        <ele>51</ele>
        <time>2026-02-22T08:51:37Z</time>
      </trkpt>
      <trkpt lat="43.22675" lon="3.21165">
        <ele>51</ele>
        <time>2026-02-22T08:51:39Z</time>
      </trkpt>
      <trkpt lat="43.22672" lon="3.21161">
        <ele>51</ele>
        <time>2026-02-22T08:51:41Z</time>
      </trkpt>
      <trkpt lat="43.2267" lon="3.21158">
        <ele>51</ele>
        <time>2026-02-22T08:51:43Z</time>
      </trkpt>
      <trkpt lat="43.22667" lon="3.21155">
        <ele>51</ele>
        <time>2026-02-22T08:51:45Z</time>
      </trkpt>
      <trkpt lat="43.22664" lon="3.21152">
        <ele>51</ele>
        <time>2026-02-22T08:51:47Z</time>
      </trkpt>
      <trkpt lat="43.22661" lon="3.21148">
        <ele>51</ele>
        <time>2026-02-22T08:51:49Z</time>
      </trkpt>
      <trkpt lat="43.22658" lon="3.21145">
        <ele>51</ele>
        <time>2026-02-22T08:51:51Z</time>
      </trkpt>
      <trkpt lat="43.22655" lon="3.21141">
        <ele>52</ele>
        <time>2026-02-22T08:51:53Z</time>
      </trkpt>
      <trkpt lat="43.22653" lon="3.21138">
        <ele>52</ele>
        <time>2026-02-22T08:51:55Z</time>
      </trkpt>
      <trkpt lat="43.2265" lon="3.21134">
        <ele>52</ele>
        <time>2026-02-22T08:51:57Z</time>
      </trkpt>
      <trkpt lat="43.22646" lon="3.2113">
        <ele>52</ele>
        <time>2026-02-22T08:51:59Z</time>
      </trkpt>
      <trkpt lat="43.22643" lon="3.21126">
        <ele>52</ele>
        <time>2026-02-22T08:52:01Z</time>
      </trkpt>
      <trkpt lat="43.2264" lon="3.21122">
        <ele>52</ele>
        <time>2026-02-22T08:52:03Z</time>
      </trkpt>
      <trkpt lat="43.22636" lon="3.21118">
        <ele>52</ele>
        <time>2026-02-22T08:52:05Z</time>
      </trkpt>
      <trkpt lat="43.22633" lon="3.21114">
        <ele>52</ele>
        <time>2026-02-22T08:52:07Z</time>
      </trkpt>
      <trkpt lat="43.22629" lon="3.2111">
        <ele>52</ele>
        <time>2026-02-22T08:52:09Z</time>
      </trkpt>
      <trkpt lat="43.22626" lon="3.21106">
        <ele>53</ele>
        <time>2026-02-22T08:52:11Z</time>
      </trkpt>
      <trkpt lat="43.22623" lon="3.21102">
        <ele>52</ele>
        <time>2026-02-22T08:52:13Z</time>
      </trkpt>
      <trkpt lat="43.22619" lon="3.21097">
        <ele>52</ele>
        <time>2026-02-22T08:52:15Z</time>
      </trkpt>
      <trkpt lat="43.22616" lon="3.21093">
        <ele>52</ele>
        <time>2026-02-22T08:52:17Z</time>
      </trkpt>
      <trkpt lat="43.22612" lon="3.21088">
        <ele>52</ele>
        <time>2026-02-22T08:52:19Z</time>
      </trkpt>
      <trkpt lat="43.22608" lon="3.21083">
        <ele>52</ele>
        <time>2026-02-22T08:52:21Z</time>
      </trkpt>
      <trkpt lat="43.22603" lon="3.21078">
        <ele>52</ele>
        <time>2026-02-22T08:52:23Z</time>
      </trkpt>
      <trkpt lat="43.22599" lon="3.21073">
        <ele>52</ele>
        <time>2026-02-22T08:52:25Z</time>
      </trkpt>
      <trkpt lat="43.22594" lon="3.21068">
        <ele>51</ele>
        <time>2026-02-22T08:52:27Z</time>
      </trkpt>
      <trkpt lat="43.22587" lon="3.21061">
        <ele>50</ele>
        <time>2026-02-22T08:52:29Z</time>
      </trkpt>
      <trkpt lat="43.22578" lon="3.21051">
        <ele>49</ele>
        <time>2026-02-22T08:52:31Z</time>
      </trkpt>
      <trkpt lat="43.22572" lon="3.21037">
        <ele>49</ele>
        <time>2026-02-22T08:52:33Z</time>
      </trkpt>
      <trkpt lat="43.22571" lon="3.2102">
        <ele>49</ele>
        <time>2026-02-22T08:52:35Z</time>
      </trkpt>
      <trkpt lat="43.22577" lon="3.21005">
        <ele>49</ele>
        <time>2026-02-22T08:52:37Z</time>
      </trkpt>
      <trkpt lat="43.22584" lon="3.20993">
        <ele>49</ele>
        <time>2026-02-22T08:52:39Z</time>
      </trkpt>
      <trkpt lat="43.2259" lon="3.20981">
        <ele>49</ele>
        <time>2026-02-22T08:52:41Z</time>
      </trkpt>
      <trkpt lat="43.22597" lon="3.2097">
        <ele>49</ele>
        <time>2026-02-22T08:52:43Z</time>
      </trkpt>
      <trkpt lat="43.22603" lon="3.20959">
        <ele>49</ele>
        <time>2026-02-22T08:52:45Z</time>
      </trkpt>
      <trkpt lat="43.22609" lon="3.20949">
        <ele>49</ele>
        <time>2026-02-22T08:52:47Z</time>
      </trkpt>
      <trkpt lat="43.22614" lon="3.20938">
        <ele>49</ele>
        <time>2026-02-22T08:52:49Z</time>
      </trkpt>
      <trkpt lat="43.2262" lon="3.20928">
        <ele>49</ele>
        <time>2026-02-22T08:52:51Z</time>
      </trkpt>
      <trkpt lat="43.22625" lon="3.20918">
        <ele>49</ele>
        <time>2026-02-22T08:52:53Z</time>
      </trkpt>
      <trkpt lat="43.2263" lon="3.20908">
        <ele>49</ele>
        <time>2026-02-22T08:52:55Z</time>
      </trkpt>
      <trkpt lat="43.22635" lon="3.20898">
        <ele>49</ele>
        <time>2026-02-22T08:52:57Z</time>
      </trkpt>
      <trkpt lat="43.2264" lon="3.20888">
        <ele>49</ele>
        <time>2026-02-22T08:52:59Z</time>
      </trkpt>
      <trkpt lat="43.22645" lon="3.20878">
        <ele>50</ele>
        <time>2026-02-22T08:53:01Z</time>
      </trkpt>
      <trkpt lat="43.2265" lon="3.20869">
        <ele>49</ele>
        <time>2026-02-22T08:53:03Z</time>
      </trkpt>
      <trkpt lat="43.22655" lon="3.20859">
        <ele>49</ele>
        <time>2026-02-22T08:53:05Z</time>
      </trkpt>
      <trkpt lat="43.2266" lon="3.2085">
        <ele>49</ele>
        <time>2026-02-22T08:53:07Z</time>
      </trkpt>
      <trkpt lat="43.22665" lon="3.2084">
        <ele>49</ele>
        <time>2026-02-22T08:53:09Z</time>
      </trkpt>
      <trkpt lat="43.2267" lon="3.20831">
        <ele>50</ele>
        <time>2026-02-22T08:53:11Z</time>
      </trkpt>
      <trkpt lat="43.22675" lon="3.20822">
        <ele>50</ele>
        <time>2026-02-22T08:53:13Z</time>
      </trkpt>
      <trkpt lat="43.22679" lon="3.20813">
        <ele>49</ele>
        <time>2026-02-22T08:53:15Z</time>
      </trkpt>
      <trkpt lat="43.22684" lon="3.20803">
        <ele>49</ele>
        <time>2026-02-22T08:53:17Z</time>
      </trkpt>
      <trkpt lat="43.22689" lon="3.20794">
        <ele>49</ele>
        <time>2026-02-22T08:53:19Z</time>
      </trkpt>
      <trkpt lat="43.22694" lon="3.20785">
        <ele>49</ele>
        <time>2026-02-22T08:53:21Z</time>
      </trkpt>
      <trkpt lat="43.22699" lon="3.20776">
        <ele>50</ele>
        <time>2026-02-22T08:53:23Z</time>
      </trkpt>
      <trkpt lat="43.22703" lon="3.20768">
        <ele>51</ele>
        <time>2026-02-22T08:53:25Z</time>
      </trkpt>
      <trkpt lat="43.22707" lon="3.20759">
        <ele>51</ele>
        <time>2026-02-22T08:53:27Z</time>
      </trkpt>
      <trkpt lat="43.22712" lon="3.2075">
        <ele>51</ele>
        <time>2026-02-22T08:53:29Z</time>
      </trkpt>
      <trkpt lat="43.22716" lon="3.20741">
        <ele>51</ele>
        <time>2026-02-22T08:53:31Z</time>
      </trkpt>
      <trkpt lat="43.22721" lon="3.20732">
        <ele>51</ele>
        <time>2026-02-22T08:53:33Z</time>
      </trkpt>
      <trkpt lat="43.22726" lon="3.20722">
        <ele>51</ele>
        <time>2026-02-22T08:53:35Z</time>
      </trkpt>
      <trkpt lat="43.22731" lon="3.20713">
        <ele>51</ele>
        <time>2026-02-22T08:53:37Z</time>
      </trkpt>
      <trkpt lat="43.22736" lon="3.20704">
        <ele>50</ele>
        <time>2026-02-22T08:53:39Z</time>
      </trkpt>
      <trkpt lat="43.22741" lon="3.20695">
        <ele>50</ele>
        <time>2026-02-22T08:53:41Z</time>
      </trkpt>
      <trkpt lat="43.22746" lon="3.20685">
        <ele>50</ele>
        <time>2026-02-22T08:53:43Z</time>
      </trkpt>
      <trkpt lat="43.2275" lon="3.20676">
        <ele>50</ele>
        <time>2026-02-22T08:53:45Z</time>
      </trkpt>
      <trkpt lat="43.22755" lon="3.20667">
        <ele>50</ele>
        <time>2026-02-22T08:53:47Z</time>
      </trkpt>
      <trkpt lat="43.2276" lon="3.20658">
        <ele>50</ele>
        <time>2026-02-22T08:53:49Z</time>
      </trkpt>
      <trkpt lat="43.22764" lon="3.20649">
        <ele>50</ele>
        <time>2026-02-22T08:53:51Z</time>
      </trkpt>
      <trkpt lat="43.22769" lon="3.2064">
        <ele>50</ele>
        <time>2026-02-22T08:53:53Z</time>
      </trkpt>
      <trkpt lat="43.22774" lon="3.20631">
        <ele>50</ele>
        <time>2026-02-22T08:53:55Z</time>
      </trkpt>
      <trkpt lat="43.22778" lon="3.20623">
        <ele>50</ele>
        <time>2026-02-22T08:53:57Z</time>
      </trkpt>
      <trkpt lat="43.22783" lon="3.20614">
        <ele>50</ele>
        <time>2026-02-22T08:53:59Z</time>
      </trkpt>
      <trkpt lat="43.22788" lon="3.20605">
        <ele>50</ele>
        <time>2026-02-22T08:54:01Z</time>
      </trkpt>
      <trkpt lat="43.22792" lon="3.20595">
        <ele>50</ele>
        <time>2026-02-22T08:54:03Z</time>
      </trkpt>
      <trkpt lat="43.22795" lon="3.20585">
        <ele>50</ele>
        <time>2026-02-22T08:54:05Z</time>
      </trkpt>
      <trkpt lat="43.22796" lon="3.20575">
        <ele>50</ele>
        <time>2026-02-22T08:54:07Z</time>
      </trkpt>
      <trkpt lat="43.22795" lon="3.20564">
        <ele>50</ele>
        <time>2026-02-22T08:54:09Z</time>
      </trkpt>
      <trkpt lat="43.22794" lon="3.20553">
        <ele>50</ele>
        <time>2026-02-22T08:54:11Z</time>
      </trkpt>
      <trkpt lat="43.22792" lon="3.20542">
        <ele>50</ele>
        <time>2026-02-22T08:54:13Z</time>
      </trkpt>
      <trkpt lat="43.2279" lon="3.20531">
        <ele>50</ele>
        <time>2026-02-22T08:54:15Z</time>
      </trkpt>
      <trkpt lat="43.22788" lon="3.2052">
        <ele>50</ele>
        <time>2026-02-22T08:54:17Z</time>
      </trkpt>
      <trkpt lat="43.22787" lon="3.20508">
        <ele>50</ele>
        <time>2026-02-22T08:54:19Z</time>
      </trkpt>
      <trkpt lat="43.22789" lon="3.20497">
        <ele>50</ele>
        <time>2026-02-22T08:54:21Z</time>
      </trkpt>
      <trkpt lat="43.22793" lon="3.20487">
        <ele>50</ele>
        <time>2026-02-22T08:54:23Z</time>
      </trkpt>
      <trkpt lat="43.228" lon="3.2048">
        <ele>50</ele>
        <time>2026-02-22T08:54:25Z</time>
      </trkpt>
      <trkpt lat="43.22808" lon="3.20476">
        <ele>50</ele>
        <time>2026-02-22T08:54:27Z</time>
      </trkpt>
      <trkpt lat="43.22816" lon="3.20473">
        <ele>50</ele>
        <time>2026-02-22T08:54:29Z</time>
      </trkpt>
      <trkpt lat="43.22823" lon="3.2047">
        <ele>50</ele>
        <time>2026-02-22T08:54:31Z</time>
      </trkpt>
      <trkpt lat="43.22831" lon="3.20467">
        <ele>50</ele>
        <time>2026-02-22T08:54:33Z</time>
      </trkpt>
      <trkpt lat="43.2284" lon="3.20465">
        <ele>50</ele>
        <time>2026-02-22T08:54:35Z</time>
      </trkpt>
      <trkpt lat="43.22848" lon="3.20462">
        <ele>50</ele>
        <time>2026-02-22T08:54:37Z</time>
      </trkpt>
      <trkpt lat="43.22856" lon="3.20459">
        <ele>50</ele>
        <time>2026-02-22T08:54:39Z</time>
      </trkpt>
      <trkpt lat="43.22865" lon="3.20456">
        <ele>50</ele>
        <time>2026-02-22T08:54:41Z</time>
      </trkpt>
      <trkpt lat="43.22873" lon="3.20453">
        <ele>50</ele>
        <time>2026-02-22T08:54:43Z</time>
      </trkpt>
      <trkpt lat="43.22881" lon="3.2045">
        <ele>50</ele>
        <time>2026-02-22T08:54:45Z</time>
      </trkpt>
      <trkpt lat="43.22888" lon="3.20447">
        <ele>50</ele>
        <time>2026-02-22T08:54:47Z</time>
      </trkpt>
      <trkpt lat="43.22896" lon="3.20444">
        <ele>51</ele>
        <time>2026-02-22T08:54:49Z</time>
      </trkpt>
      <trkpt lat="43.22904" lon="3.20442">
        <ele>51</ele>
        <time>2026-02-22T08:54:51Z</time>
      </trkpt>
      <trkpt lat="43.22912" lon="3.20439">
        <ele>51</ele>
        <time>2026-02-22T08:54:53Z</time>
      </trkpt>
      <trkpt lat="43.2292" lon="3.20436">
        <ele>51</ele>
        <time>2026-02-22T08:54:55Z</time>
      </trkpt>
      <trkpt lat="43.22928" lon="3.20433">
        <ele>50</ele>
        <time>2026-02-22T08:54:57Z</time>
      </trkpt>
      <trkpt lat="43.22936" lon="3.2043">
        <ele>50</ele>
        <time>2026-02-22T08:54:59Z</time>
      </trkpt>
      <trkpt lat="43.22944" lon="3.20427">
        <ele>50</ele>
        <time>2026-02-22T08:55:01Z</time>
      </trkpt>
      <trkpt lat="43.22952" lon="3.20425">
        <ele>50</ele>
        <time>2026-02-22T08:55:03Z</time>
      </trkpt>
      <trkpt lat="43.22961" lon="3.20422">
        <ele>50</ele>
        <time>2026-02-22T08:55:05Z</time>
      </trkpt>
      <trkpt lat="43.22969" lon="3.20419">
        <ele>50</ele>
        <time>2026-02-22T08:55:07Z</time>
      </trkpt>
      <trkpt lat="43.22977" lon="3.20415">
        <ele>50</ele>
        <time>2026-02-22T08:55:09Z</time>
      </trkpt>
      <trkpt lat="43.22985" lon="3.20412">
        <ele>50</ele>
        <time>2026-02-22T08:55:11Z</time>
      </trkpt>
      <trkpt lat="43.22993" lon="3.20409">
        <ele>50</ele>
        <time>2026-02-22T08:55:13Z</time>
      </trkpt>
      <trkpt lat="43.23001" lon="3.20405">
        <ele>50</ele>
        <time>2026-02-22T08:55:15Z</time>
      </trkpt>
      <trkpt lat="43.23008" lon="3.204">
        <ele>50</ele>
        <time>2026-02-22T08:55:17Z</time>
      </trkpt>
      <trkpt lat="43.23013" lon="3.20391">
        <ele>50</ele>
        <time>2026-02-22T08:55:19Z</time>
      </trkpt>
      <trkpt lat="43.23017" lon="3.20381">
        <ele>50</ele>
        <time>2026-02-22T08:55:21Z</time>
      </trkpt>
      <trkpt lat="43.23021" lon="3.2037">
        <ele>50</ele>
        <time>2026-02-22T08:55:23Z</time>
      </trkpt>
      <trkpt lat="43.23024" lon="3.20359">
        <ele>50</ele>
        <time>2026-02-22T08:55:25Z</time>
      </trkpt>
      <trkpt lat="43.23027" lon="3.20348">
        <ele>50</ele>
        <time>2026-02-22T08:55:27Z</time>
      </trkpt>
      <trkpt lat="43.2303" lon="3.20338">
        <ele>51</ele>
        <time>2026-02-22T08:55:29Z</time>
      </trkpt>
      <trkpt lat="43.23033" lon="3.20327">
        <ele>51</ele>
        <time>2026-02-22T08:55:31Z</time>
      </trkpt>
      <trkpt lat="43.23035" lon="3.20316">
        <ele>51</ele>
        <time>2026-02-22T08:55:33Z</time>
      </trkpt>
      <trkpt lat="43.23038" lon="3.20305">
        <ele>51</ele>
        <time>2026-02-22T08:55:35Z</time>
      </trkpt>
      <trkpt lat="43.23041" lon="3.20294">
        <ele>51</ele>
        <time>2026-02-22T08:55:37Z</time>
      </trkpt>
      <trkpt lat="43.23044" lon="3.20284">
        <ele>51</ele>
        <time>2026-02-22T08:55:39Z</time>
      </trkpt>
      <trkpt lat="43.23047" lon="3.20273">
        <ele>51</ele>
        <time>2026-02-22T08:55:41Z</time>
      </trkpt>
      <trkpt lat="43.2305" lon="3.20261">
        <ele>51</ele>
        <time>2026-02-22T08:55:43Z</time>
      </trkpt>
      <trkpt lat="43.23053" lon="3.2025">
        <ele>50</ele>
        <time>2026-02-22T08:55:45Z</time>
      </trkpt>
      <trkpt lat="43.23057" lon="3.20239">
        <ele>51</ele>
        <time>2026-02-22T08:55:47Z</time>
      </trkpt>
      <trkpt lat="43.2306" lon="3.20228">
        <ele>51</ele>
        <time>2026-02-22T08:55:49Z</time>
      </trkpt>
      <trkpt lat="43.23063" lon="3.20217">
        <ele>51</ele>
        <time>2026-02-22T08:55:51Z</time>
      </trkpt>
      <trkpt lat="43.23066" lon="3.20206">
        <ele>51</ele>
        <time>2026-02-22T08:55:53Z</time>
      </trkpt>
      <trkpt lat="43.23069" lon="3.20195">
        <ele>52</ele>
        <time>2026-02-22T08:55:55Z</time>
      </trkpt>
      <trkpt lat="43.23072" lon="3.20185">
        <ele>52</ele>
        <time>2026-02-22T08:55:57Z</time>
      </trkpt>
      <trkpt lat="43.23075" lon="3.20175">
        <ele>52</ele>
        <time>2026-02-22T08:55:59Z</time>
      </trkpt>
      <trkpt lat="43.23078" lon="3.20164">
        <ele>52</ele>
        <time>2026-02-22T08:56:01Z</time>
      </trkpt>
      <trkpt lat="43.23081" lon="3.20153">
        <ele>52</ele>
        <time>2026-02-22T08:56:03Z</time>
      </trkpt>
      <trkpt lat="43.23084" lon="3.20143">
        <ele>52</ele>
        <time>2026-02-22T08:56:05Z</time>
      </trkpt>
      <trkpt lat="43.23087" lon="3.20132">
        <ele>53</ele>
        <time>2026-02-22T08:56:07Z</time>
      </trkpt>
      <trkpt lat="43.2309" lon="3.20121">
        <ele>53</ele>
        <time>2026-02-22T08:56:09Z</time>
      </trkpt>
      <trkpt lat="43.23093" lon="3.2011">
        <ele>52</ele>
        <time>2026-02-22T08:56:11Z</time>
      </trkpt>
      <trkpt lat="43.23097" lon="3.20098">
        <ele>52</ele>
        <time>2026-02-22T08:56:13Z</time>
      </trkpt>
      <trkpt lat="43.231" lon="3.20087">
        <ele>52</ele>
        <time>2026-02-22T08:56:15Z</time>
      </trkpt>
      <trkpt lat="43.23103" lon="3.20076">
        <ele>52</ele>
        <time>2026-02-22T08:56:17Z</time>
      </trkpt>
      <trkpt lat="43.23106" lon="3.20065">
        <ele>52</ele>
        <time>2026-02-22T08:56:19Z</time>
      </trkpt>
      <trkpt lat="43.23109" lon="3.20054">
        <ele>53</ele>
        <time>2026-02-22T08:56:21Z</time>
      </trkpt>
      <trkpt lat="43.23112" lon="3.20043">
        <ele>52</ele>
        <time>2026-02-22T08:56:23Z</time>
      </trkpt>
      <trkpt lat="43.23115" lon="3.20032">
        <ele>52</ele>
        <time>2026-02-22T08:56:25Z</time>
      </trkpt>
      <trkpt lat="43.23118" lon="3.20021">
        <ele>52</ele>
        <time>2026-02-22T08:56:27Z</time>
      </trkpt>
      <trkpt lat="43.23122" lon="3.2001">
        <ele>52</ele>
        <time>2026-02-22T08:56:29Z</time>
      </trkpt>
      <trkpt lat="43.23125" lon="3.19999">
        <ele>52</ele>
        <time>2026-02-22T08:56:31Z</time>
      </trkpt>
      <trkpt lat="43.23128" lon="3.19988">
        <ele>52</ele>
        <time>2026-02-22T08:56:33Z</time>
      </trkpt>
      <trkpt lat="43.23131" lon="3.19976">
        <ele>52</ele>
        <time>2026-02-22T08:56:35Z</time>
      </trkpt>
      <trkpt lat="43.23134" lon="3.19965">
        <ele>52</ele>
        <time>2026-02-22T08:56:37Z</time>
      </trkpt>
      <trkpt lat="43.23137" lon="3.19954">
        <ele>52</ele>
        <time>2026-02-22T08:56:39Z</time>
      </trkpt>
      <trkpt lat="43.2314" lon="3.19943">
        <ele>52</ele>
        <time>2026-02-22T08:56:41Z</time>
      </trkpt>
      <trkpt lat="43.23143" lon="3.19932">
        <ele>52</ele>
        <time>2026-02-22T08:56:43Z</time>
      </trkpt>
      <trkpt lat="43.23145" lon="3.19921">
        <ele>52</ele>
        <time>2026-02-22T08:56:45Z</time>
      </trkpt>
      <trkpt lat="43.23149" lon="3.19911">
        <ele>51</ele>
        <time>2026-02-22T08:56:47Z</time>
      </trkpt>
      <trkpt lat="43.23152" lon="3.199">
        <ele>51</ele>
        <time>2026-02-22T08:56:49Z</time>
      </trkpt>
      <trkpt lat="43.23154" lon="3.19889">
        <ele>51</ele>
        <time>2026-02-22T08:56:51Z</time>
      </trkpt>
      <trkpt lat="43.23158" lon="3.19878">
        <ele>51</ele>
        <time>2026-02-22T08:56:53Z</time>
      </trkpt>
      <trkpt lat="43.2316" lon="3.19867">
        <ele>51</ele>
        <time>2026-02-22T08:56:55Z</time>
      </trkpt>
      <trkpt lat="43.23164" lon="3.19856">
        <ele>51</ele>
        <time>2026-02-22T08:56:57Z</time>
      </trkpt>
      <trkpt lat="43.23167" lon="3.19846">
        <ele>51</ele>
        <time>2026-02-22T08:56:59Z</time>
      </trkpt>
      <trkpt lat="43.2317" lon="3.19835">
        <ele>51</ele>
        <time>2026-02-22T08:57:01Z</time>
      </trkpt>
      <trkpt lat="43.23173" lon="3.19824">
        <ele>51</ele>
        <time>2026-02-22T08:57:03Z</time>
      </trkpt>
      <trkpt lat="43.23176" lon="3.19813">
        <ele>50</ele>
        <time>2026-02-22T08:57:05Z</time>
      </trkpt>
      <trkpt lat="43.23179" lon="3.19802">
        <ele>50</ele>
        <time>2026-02-22T08:57:07Z</time>
      </trkpt>
      <trkpt lat="43.23183" lon="3.19791">
        <ele>51</ele>
        <time>2026-02-22T08:57:09Z</time>
      </trkpt>
      <trkpt lat="43.23186" lon="3.1978">
        <ele>50</ele>
        <time>2026-02-22T08:57:11Z</time>
      </trkpt>
      <trkpt lat="43.23189" lon="3.19769">
        <ele>50</ele>
        <time>2026-02-22T08:57:13Z</time>
      </trkpt>
      <trkpt lat="43.23192" lon="3.19758">
        <ele>51</ele>
        <time>2026-02-22T08:57:15Z</time>
      </trkpt>
      <trkpt lat="43.23195" lon="3.19746">
        <ele>51</ele>
        <time>2026-02-22T08:57:17Z</time>
      </trkpt>
      <trkpt lat="43.23198" lon="3.19735">
        <ele>51</ele>
        <time>2026-02-22T08:57:19Z</time>
      </trkpt>
      <trkpt lat="43.23201" lon="3.19724">
        <ele>51</ele>
        <time>2026-02-22T08:57:21Z</time>
      </trkpt>
      <trkpt lat="43.23204" lon="3.19713">
        <ele>51</ele>
        <time>2026-02-22T08:57:23Z</time>
      </trkpt>
      <trkpt lat="43.23207" lon="3.19703">
        <ele>51</ele>
        <time>2026-02-22T08:57:25Z</time>
      </trkpt>
      <trkpt lat="43.2321" lon="3.19692">
        <ele>50</ele>
        <time>2026-02-22T08:57:27Z</time>
      </trkpt>
      <trkpt lat="43.23213" lon="3.19681">
        <ele>50</ele>
        <time>2026-02-22T08:57:29Z</time>
      </trkpt>
      <trkpt lat="43.23216" lon="3.1967">
        <ele>50</ele>
        <time>2026-02-22T08:57:31Z</time>
      </trkpt>
      <trkpt lat="43.23219" lon="3.19659">
        <ele>50</ele>
        <time>2026-02-22T08:57:33Z</time>
      </trkpt>
      <trkpt lat="43.23223" lon="3.19648">
        <ele>50</ele>
        <time>2026-02-22T08:57:35Z</time>
      </trkpt>
      <trkpt lat="43.23226" lon="3.19636">
        <ele>50</ele>
        <time>2026-02-22T08:57:37Z</time>
      </trkpt>
      <trkpt lat="43.23229" lon="3.19625">
        <ele>50</ele>
        <time>2026-02-22T08:57:39Z</time>
      </trkpt>
      <trkpt lat="43.23232" lon="3.19613">
        <ele>49</ele>
        <time>2026-02-22T08:57:41Z</time>
      </trkpt>
      <trkpt lat="43.23235" lon="3.19602">
        <ele>49</ele>
        <time>2026-02-22T08:57:43Z</time>
      </trkpt>
      <trkpt lat="43.23238" lon="3.19591">
        <ele>49</ele>
        <time>2026-02-22T08:57:45Z</time>
      </trkpt>
      <trkpt lat="43.23241" lon="3.1958">
        <ele>48</ele>
        <time>2026-02-22T08:57:47Z</time>
      </trkpt>
      <trkpt lat="43.23244" lon="3.19569">
        <ele>48</ele>
        <time>2026-02-22T08:57:49Z</time>
      </trkpt>
      <trkpt lat="43.23247" lon="3.19559">
        <ele>48</ele>
        <time>2026-02-22T08:57:51Z</time>
      </trkpt>
      <trkpt lat="43.2325" lon="3.19548">
        <ele>48</ele>
        <time>2026-02-22T08:57:53Z</time>
      </trkpt>
      <trkpt lat="43.23253" lon="3.19537">
        <ele>49</ele>
        <time>2026-02-22T08:57:55Z</time>
      </trkpt>
      <trkpt lat="43.23257" lon="3.19525">
        <ele>49</ele>
        <time>2026-02-22T08:57:57Z</time>
      </trkpt>
      <trkpt lat="43.2326" lon="3.19514">
        <ele>49</ele>
        <time>2026-02-22T08:57:59Z</time>
      </trkpt>
      <trkpt lat="43.23263" lon="3.19502">
        <ele>50</ele>
        <time>2026-02-22T08:58:01Z</time>
      </trkpt>
      <trkpt lat="43.23266" lon="3.19491">
        <ele>50</ele>
        <time>2026-02-22T08:58:03Z</time>
      </trkpt>
      <trkpt lat="43.23269" lon="3.1948">
        <ele>50</ele>
        <time>2026-02-22T08:58:05Z</time>
      </trkpt>
      <trkpt lat="43.23272" lon="3.19469">
        <ele>50</ele>
        <time>2026-02-22T08:58:07Z</time>
      </trkpt>
      <trkpt lat="43.23275" lon="3.19458">
        <ele>50</ele>
        <time>2026-02-22T08:58:09Z</time>
      </trkpt>
      <trkpt lat="43.23278" lon="3.19448">
        <ele>51</ele>
        <time>2026-02-22T08:58:11Z</time>
      </trkpt>
      <trkpt lat="43.23281" lon="3.19436">
        <ele>51</ele>
        <time>2026-02-22T08:58:13Z</time>
      </trkpt>
      <trkpt lat="43.23284" lon="3.19425">
        <ele>51</ele>
        <time>2026-02-22T08:58:15Z</time>
      </trkpt>
      <trkpt lat="43.23287" lon="3.19415">
        <ele>51</ele>
        <time>2026-02-22T08:58:17Z</time>
      </trkpt>
      <trkpt lat="43.2329" lon="3.19404">
        <ele>51</ele>
        <time>2026-02-22T08:58:19Z</time>
      </trkpt>
      <trkpt lat="43.23293" lon="3.19394">
        <ele>51</ele>
        <time>2026-02-22T08:58:21Z</time>
      </trkpt>
      <trkpt lat="43.23296" lon="3.19384">
        <ele>50</ele>
        <time>2026-02-22T08:58:23Z</time>
      </trkpt>
      <trkpt lat="43.23298" lon="3.19374">
        <ele>50</ele>
        <time>2026-02-22T08:58:25Z</time>
      </trkpt>
      <trkpt lat="43.233" lon="3.19365">
        <ele>50</ele>
        <time>2026-02-22T08:58:27Z</time>
      </trkpt>
      <trkpt lat="43.23303" lon="3.19356">
        <ele>50</ele>
        <time>2026-02-22T08:58:29Z</time>
      </trkpt>
      <trkpt lat="43.23306" lon="3.19346">
        <ele>51</ele>
        <time>2026-02-22T08:58:31Z</time>
      </trkpt>
      <trkpt lat="43.23308" lon="3.19337">
        <ele>51</ele>
        <time>2026-02-22T08:58:33Z</time>
      </trkpt>
      <trkpt lat="43.23311" lon="3.19328">
        <ele>52</ele>
        <time>2026-02-22T08:58:35Z</time>
      </trkpt>
      <trkpt lat="43.23314" lon="3.19318">
        <ele>52</ele>
        <time>2026-02-22T08:58:37Z</time>
      </trkpt>
      <trkpt lat="43.23317" lon="3.19309">
        <ele>52</ele>
        <time>2026-02-22T08:58:39Z</time>
      </trkpt>
      <trkpt lat="43.23319" lon="3.193">
        <ele>52</ele>
        <time>2026-02-22T08:58:41Z</time>
      </trkpt>
      <trkpt lat="43.23322" lon="3.19291">
        <ele>52</ele>
        <time>2026-02-22T08:58:43Z</time>
      </trkpt>
      <trkpt lat="43.23324" lon="3.19283">
        <ele>53</ele>
        <time>2026-02-22T08:58:45Z</time>
      </trkpt>
      <trkpt lat="43.23326" lon="3.19275">
        <ele>53</ele>
        <time>2026-02-22T08:58:47Z</time>
      </trkpt>
      <trkpt lat="43.23327" lon="3.19268">
        <ele>53</ele>
        <time>2026-02-22T08:58:49Z</time>
      </trkpt>
      <trkpt lat="43.23327" lon="3.19266">
        <ele>52</ele>
        <time>2026-02-22T08:58:51Z</time>
      </trkpt>
      <trkpt lat="43.23326" lon="3.19266">
        <ele>52</ele>
        <time>2026-02-22T08:58:53Z</time>
      </trkpt>
      <trkpt lat="43.23323" lon="3.19268">
        <ele>52</ele>
        <time>2026-02-22T08:58:55Z</time>
      </trkpt>
      <trkpt lat="43.23321" lon="3.19274">
        <ele>52</ele>
        <time>2026-02-22T08:58:57Z</time>
      </trkpt>
      <trkpt lat="43.2332" lon="3.1928">
        <ele>51</ele>
        <time>2026-02-22T08:58:59Z</time>
      </trkpt>
      <trkpt lat="43.23318" lon="3.19287">
        <ele>52</ele>
        <time>2026-02-22T08:59:01Z</time>
      </trkpt>
      <trkpt lat="43.23317" lon="3.19292">
        <ele>52</ele>
        <time>2026-02-22T08:59:03Z</time>
      </trkpt>
      <trkpt lat="43.23315" lon="3.19297">
        <ele>51</ele>
        <time>2026-02-22T08:59:05Z</time>
      </trkpt>
      <trkpt lat="43.23311" lon="3.19302">
        <ele>51</ele>
        <time>2026-02-22T08:59:07Z</time>
      </trkpt>
      <trkpt lat="43.23305" lon="3.19305">
        <ele>51</ele>
        <time>2026-02-22T08:59:09Z</time>
      </trkpt>
      <trkpt lat="43.23297" lon="3.19305">
        <ele>51</ele>
        <time>2026-02-22T08:59:11Z</time>
      </trkpt>
      <trkpt lat="43.2329" lon="3.19305">
        <ele>51</ele>
        <time>2026-02-22T08:59:13Z</time>
      </trkpt>
      <trkpt lat="43.23281" lon="3.19305">
        <ele>51</ele>
        <time>2026-02-22T08:59:15Z</time>
      </trkpt>
      <trkpt lat="43.23273" lon="3.19306">
        <ele>51</ele>
        <time>2026-02-22T08:59:17Z</time>
      </trkpt>
      <trkpt lat="43.23265" lon="3.19306">
        <ele>51</ele>
        <time>2026-02-22T08:59:19Z</time>
      </trkpt>
      <trkpt lat="43.23257" lon="3.19306">
        <ele>50</ele>
        <time>2026-02-22T08:59:21Z</time>
      </trkpt>
      <trkpt lat="43.23249" lon="3.19307">
        <ele>50</ele>
        <time>2026-02-22T08:59:23Z</time>
      </trkpt>
      <trkpt lat="43.2324" lon="3.19308">
        <ele>50</ele>
        <time>2026-02-22T08:59:25Z</time>
      </trkpt>
      <trkpt lat="43.23231" lon="3.19309">
        <ele>50</ele>
        <time>2026-02-22T08:59:27Z</time>
      </trkpt>
      <trkpt lat="43.23222" lon="3.1931">
        <ele>50</ele>
        <time>2026-02-22T08:59:29Z</time>
      </trkpt>
      <trkpt lat="43.23213" lon="3.19311">
        <ele>50</ele>
        <time>2026-02-22T08:59:31Z</time>
      </trkpt>
      <trkpt lat="43.23204" lon="3.19312">
        <ele>50</ele>
        <time>2026-02-22T08:59:33Z</time>
      </trkpt>
      <trkpt lat="43.23195" lon="3.19314">
        <ele>50</ele>
        <time>2026-02-22T08:59:35Z</time>
      </trkpt>
      <trkpt lat="43.23186" lon="3.19315">
        <ele>50</ele>
        <time>2026-02-22T08:59:37Z</time>
      </trkpt>
      <trkpt lat="43.23177" lon="3.19316">
        <ele>50</ele>
        <time>2026-02-22T08:59:39Z</time>
      </trkpt>
      <trkpt lat="43.23168" lon="3.19319">
        <ele>50</ele>
        <time>2026-02-22T08:59:41Z</time>
      </trkpt>
      <trkpt lat="43.2316" lon="3.19321">
        <ele>50</ele>
        <time>2026-02-22T08:59:43Z</time>
      </trkpt>
      <trkpt lat="43.23151" lon="3.19324">
        <ele>49</ele>
        <time>2026-02-22T08:59:45Z</time>
      </trkpt>
      <trkpt lat="43.23143" lon="3.19327">
        <ele>49</ele>
        <time>2026-02-22T08:59:47Z</time>
      </trkpt>
      <trkpt lat="43.23134" lon="3.1933">
        <ele>49</ele>
        <time>2026-02-22T08:59:49Z</time>
      </trkpt>
      <trkpt lat="43.23125" lon="3.19334">
        <ele>49</ele>
        <time>2026-02-22T08:59:51Z</time>
      </trkpt>
      <trkpt lat="43.23117" lon="3.19339">
        <ele>49</ele>
        <time>2026-02-22T08:59:53Z</time>
      </trkpt>
      <trkpt lat="43.23109" lon="3.19343">
        <ele>49</ele>
        <time>2026-02-22T08:59:55Z</time>
      </trkpt>
      <trkpt lat="43.231" lon="3.19346">
        <ele>49</ele>
        <time>2026-02-22T08:59:57Z</time>
      </trkpt>
      <trkpt lat="43.23092" lon="3.19349">
        <ele>49</ele>
        <time>2026-02-22T08:59:59Z</time>
      </trkpt>
      <trkpt lat="43.23083" lon="3.19352">
        <ele>49</ele>
        <time>2026-02-22T09:00:01Z</time>
      </trkpt>
      <trkpt lat="43.23074" lon="3.19355">
        <ele>49</ele>
        <time>2026-02-22T09:00:03Z</time>
      </trkpt>
      <trkpt lat="43.23065" lon="3.19357">
        <ele>49</ele>
        <time>2026-02-22T09:00:05Z</time>
      </trkpt>
      <trkpt lat="43.23056" lon="3.19361">
        <ele>49</ele>
        <time>2026-02-22T09:00:07Z</time>
      </trkpt>
      <trkpt lat="43.23047" lon="3.19364">
        <ele>49</ele>
        <time>2026-02-22T09:00:09Z</time>
      </trkpt>
      <trkpt lat="43.23039" lon="3.19367">
        <ele>49</ele>
        <time>2026-02-22T09:00:11Z</time>
      </trkpt>
      <trkpt lat="43.2303" lon="3.1937">
        <ele>49</ele>
        <time>2026-02-22T09:00:13Z</time>
      </trkpt>
      <trkpt lat="43.23022" lon="3.19373">
        <ele>49</ele>
        <time>2026-02-22T09:00:15Z</time>
      </trkpt>
      <trkpt lat="43.23013" lon="3.19376">
        <ele>49</ele>
        <time>2026-02-22T09:00:17Z</time>
      </trkpt>
      <trkpt lat="43.23004" lon="3.19379">
        <ele>49</ele>
        <time>2026-02-22T09:00:19Z</time>
      </trkpt>
      <trkpt lat="43.22995" lon="3.19383">
        <ele>49</ele>
        <time>2026-02-22T09:00:21Z</time>
      </trkpt>
      <trkpt lat="43.22986" lon="3.19386">
        <ele>48</ele>
        <time>2026-02-22T09:00:23Z</time>
      </trkpt>
      <trkpt lat="43.22977" lon="3.19391">
        <ele>49</ele>
        <time>2026-02-22T09:00:25Z</time>
      </trkpt>
      <trkpt lat="43.22968" lon="3.19396">
        <ele>49</ele>
        <time>2026-02-22T09:00:27Z</time>
      </trkpt>
      <trkpt lat="43.22959" lon="3.194">
        <ele>49</ele>
        <time>2026-02-22T09:00:29Z</time>
      </trkpt>
      <trkpt lat="43.22949" lon="3.19404">
        <ele>49</ele>
        <time>2026-02-22T09:00:31Z</time>
      </trkpt>
      <trkpt lat="43.2294" lon="3.19408">
        <ele>50</ele>
        <time>2026-02-22T09:00:33Z</time>
      </trkpt>
      <trkpt lat="43.2293" lon="3.19411">
        <ele>50</ele>
        <time>2026-02-22T09:00:35Z</time>
      </trkpt>
      <trkpt lat="43.22921" lon="3.19413">
        <ele>49</ele>
        <time>2026-02-22T09:00:37Z</time>
      </trkpt>
      <trkpt lat="43.22911" lon="3.19412">
        <ele>49</ele>
        <time>2026-02-22T09:00:39Z</time>
      </trkpt>
      <trkpt lat="43.22901" lon="3.19411">
        <ele>49</ele>
        <time>2026-02-22T09:00:41Z</time>
      </trkpt>
      <trkpt lat="43.22891" lon="3.19409">
        <ele>49</ele>
        <time>2026-02-22T09:00:43Z</time>
      </trkpt>
      <trkpt lat="43.22882" lon="3.19407">
        <ele>49</ele>
        <time>2026-02-22T09:00:45Z</time>
      </trkpt>
      <trkpt lat="43.22872" lon="3.19405">
        <ele>49</ele>
        <time>2026-02-22T09:00:47Z</time>
      </trkpt>
      <trkpt lat="43.22862" lon="3.19404">
        <ele>50</ele>
        <time>2026-02-22T09:00:49Z</time>
      </trkpt>
      <trkpt lat="43.22853" lon="3.19402">
        <ele>50</ele>
        <time>2026-02-22T09:00:51Z</time>
      </trkpt>
      <trkpt lat="43.22843" lon="3.194">
        <ele>50</ele>
        <time>2026-02-22T09:00:53Z</time>
      </trkpt>
      <trkpt lat="43.22834" lon="3.19399">
        <ele>50</ele>
        <time>2026-02-22T09:00:55Z</time>
      </trkpt>
      <trkpt lat="43.22825" lon="3.19397">
        <ele>50</ele>
        <time>2026-02-22T09:00:57Z</time>
      </trkpt>
      <trkpt lat="43.22816" lon="3.19396">
        <ele>50</ele>
        <time>2026-02-22T09:00:59Z</time>
      </trkpt>
      <trkpt lat="43.22807" lon="3.19394">
        <ele>51</ele>
        <time>2026-02-22T09:01:01Z</time>
      </trkpt>
      <trkpt lat="43.22799" lon="3.19392">
        <ele>51</ele>
        <time>2026-02-22T09:01:03Z</time>
      </trkpt>
      <trkpt lat="43.2279" lon="3.19391">
        <ele>50</ele>
        <time>2026-02-22T09:01:05Z</time>
      </trkpt>
      <trkpt lat="43.2278" lon="3.19389">
        <ele>50</ele>
        <time>2026-02-22T09:01:07Z</time>
      </trkpt>
      <trkpt lat="43.22771" lon="3.19388">
        <ele>50</ele>
        <time>2026-02-22T09:01:09Z</time>
      </trkpt>
      <trkpt lat="43.22762" lon="3.19386">
        <ele>50</ele>
        <time>2026-02-22T09:01:11Z</time>
      </trkpt>
      <trkpt lat="43.22754" lon="3.19385">
        <ele>49</ele>
        <time>2026-02-22T09:01:13Z</time>
      </trkpt>
      <trkpt lat="43.22745" lon="3.19385">
        <ele>48</ele>
        <time>2026-02-22T09:01:15Z</time>
      </trkpt>
      <trkpt lat="43.22737" lon="3.19385">
        <ele>48</ele>
        <time>2026-02-22T09:01:17Z</time>
      </trkpt>
      <trkpt lat="43.22728" lon="3.19386">
        <ele>47</ele>
        <time>2026-02-22T09:01:19Z</time>
      </trkpt>
      <trkpt lat="43.22719" lon="3.19387">
        <ele>47</ele>
        <time>2026-02-22T09:01:21Z</time>
      </trkpt>
      <trkpt lat="43.2271" lon="3.19388">
        <ele>46</ele>
        <time>2026-02-22T09:01:23Z</time>
      </trkpt>
      <trkpt lat="43.22702" lon="3.19389">
        <ele>44</ele>
        <time>2026-02-22T09:01:25Z</time>
      </trkpt>
      <trkpt lat="43.22692" lon="3.19389">
        <ele>43</ele>
        <time>2026-02-22T09:01:27Z</time>
      </trkpt>
      <trkpt lat="43.22682" lon="3.19391">
        <ele>43</ele>
        <time>2026-02-22T09:01:29Z</time>
      </trkpt>
      <trkpt lat="43.22673" lon="3.19392">
        <ele>43</ele>
        <time>2026-02-22T09:01:31Z</time>
      </trkpt>
      <trkpt lat="43.22665" lon="3.19392">
        <ele>44</ele>
        <time>2026-02-22T09:01:33Z</time>
      </trkpt>
      <trkpt lat="43.22656" lon="3.19393">
        <ele>44</ele>
        <time>2026-02-22T09:01:35Z</time>
      </trkpt>
      <trkpt lat="43.22647" lon="3.19393">
        <ele>43</ele>
        <time>2026-02-22T09:01:37Z</time>
      </trkpt>
      <trkpt lat="43.22638" lon="3.19394">
        <ele>43</ele>
        <time>2026-02-22T09:01:39Z</time>
      </trkpt>
      <trkpt lat="43.22629" lon="3.19395">
        <ele>42</ele>
        <time>2026-02-22T09:01:41Z</time>
      </trkpt>
      <trkpt lat="43.2262" lon="3.19396">
        <ele>41</ele>
        <time>2026-02-22T09:01:43Z</time>
      </trkpt>
      <trkpt lat="43.22609" lon="3.19398">
        <ele>42</ele>
        <time>2026-02-22T09:01:45Z</time>
      </trkpt>
      <trkpt lat="43.22599" lon="3.19399">
        <ele>43</ele>
        <time>2026-02-22T09:01:47Z</time>
      </trkpt>
      <trkpt lat="43.22589" lon="3.194">
        <ele>44</ele>
        <time>2026-02-22T09:01:49Z</time>
      </trkpt>
      <trkpt lat="43.22579" lon="3.19402">
        <ele>45</ele>
        <time>2026-02-22T09:01:51Z</time>
      </trkpt>
      <trkpt lat="43.22569" lon="3.19403">
        <ele>46</ele>
        <time>2026-02-22T09:01:53Z</time>
      </trkpt>
      <trkpt lat="43.22559" lon="3.19405">
        <ele>47</ele>
        <time>2026-02-22T09:01:55Z</time>
      </trkpt>
      <trkpt lat="43.22549" lon="3.19406">
        <ele>48</ele>
        <time>2026-02-22T09:01:57Z</time>
      </trkpt>
      <trkpt lat="43.2254" lon="3.19408">
        <ele>49</ele>
        <time>2026-02-22T09:01:59Z</time>
      </trkpt>
      <trkpt lat="43.2253" lon="3.1941">
        <ele>49</ele>
        <time>2026-02-22T09:02:01Z</time>
      </trkpt>
      <trkpt lat="43.22521" lon="3.19411">
        <ele>50</ele>
        <time>2026-02-22T09:02:03Z</time>
      </trkpt>
      <trkpt lat="43.22512" lon="3.19411">
        <ele>49</ele>
        <time>2026-02-22T09:02:05Z</time>
      </trkpt>
      <trkpt lat="43.22503" lon="3.19412">
        <ele>49</ele>
        <time>2026-02-22T09:02:07Z</time>
      </trkpt>
      <trkpt lat="43.22494" lon="3.19412">
        <ele>49</ele>
        <time>2026-02-22T09:02:09Z</time>
      </trkpt>
      <trkpt lat="43.22484" lon="3.19413">
        <ele>49</ele>
        <time>2026-02-22T09:02:11Z</time>
      </trkpt>
      <trkpt lat="43.22475" lon="3.19415">
        <ele>48</ele>
        <time>2026-02-22T09:02:13Z</time>
      </trkpt>
      <trkpt lat="43.22465" lon="3.19416">
        <ele>49</ele>
        <time>2026-02-22T09:02:15Z</time>
      </trkpt>
      <trkpt lat="43.22456" lon="3.19416">
        <ele>49</ele>
        <time>2026-02-22T09:02:17Z</time>
      </trkpt>
      <trkpt lat="43.22446" lon="3.19418">
        <ele>49</ele>
        <time>2026-02-22T09:02:19Z</time>
      </trkpt>
      <trkpt lat="43.22436" lon="3.1942">
        <ele>49</ele>
        <time>2026-02-22T09:02:21Z</time>
      </trkpt>
      <trkpt lat="43.22427" lon="3.19421">
        <ele>49</ele>
        <time>2026-02-22T09:02:23Z</time>
      </trkpt>
      <trkpt lat="43.22417" lon="3.19422">
        <ele>49</ele>
        <time>2026-02-22T09:02:25Z</time>
      </trkpt>
      <trkpt lat="43.22409" lon="3.19425">
        <ele>49</ele>
        <time>2026-02-22T09:02:27Z</time>
      </trkpt>
      <trkpt lat="43.224" lon="3.19429">
        <ele>50</ele>
        <time>2026-02-22T09:02:29Z</time>
      </trkpt>
      <trkpt lat="43.22391" lon="3.1943">
        <ele>49</ele>
        <time>2026-02-22T09:02:31Z</time>
      </trkpt>
      <trkpt lat="43.22383" lon="3.1943">
        <ele>49</ele>
        <time>2026-02-22T09:02:33Z</time>
      </trkpt>
      <trkpt lat="43.22376" lon="3.19429">
        <ele>47</ele>
        <time>2026-02-22T09:02:35Z</time>
      </trkpt>
      <trkpt lat="43.22367" lon="3.19426">
        <ele>46</ele>
        <time>2026-02-22T09:02:37Z</time>
      </trkpt>
      <trkpt lat="43.2236" lon="3.19423">
        <ele>46</ele>
        <time>2026-02-22T09:02:39Z</time>
      </trkpt>
      <trkpt lat="43.22353" lon="3.19421">
        <ele>46</ele>
        <time>2026-02-22T09:02:41Z</time>
      </trkpt>
      <trkpt lat="43.22344" lon="3.19418">
        <ele>46</ele>
        <time>2026-02-22T09:02:43Z</time>
      </trkpt>
      <trkpt lat="43.22335" lon="3.19415">
        <ele>46</ele>
        <time>2026-02-22T09:02:45Z</time>
      </trkpt>
      <trkpt lat="43.22326" lon="3.19412">
        <ele>46</ele>
        <time>2026-02-22T09:02:47Z</time>
      </trkpt>
      <trkpt lat="43.22316" lon="3.1941">
        <ele>46</ele>
        <time>2026-02-22T09:02:49Z</time>
      </trkpt>
      <trkpt lat="43.22306" lon="3.19408">
        <ele>46</ele>
        <time>2026-02-22T09:02:51Z</time>
      </trkpt>
      <trkpt lat="43.22297" lon="3.19406">
        <ele>46</ele>
        <time>2026-02-22T09:02:53Z</time>
      </trkpt>
      <trkpt lat="43.22287" lon="3.19405">
        <ele>47</ele>
        <time>2026-02-22T09:02:55Z</time>
      </trkpt>
      <trkpt lat="43.22278" lon="3.19403">
        <ele>47</ele>
        <time>2026-02-22T09:02:57Z</time>
      </trkpt>
      <trkpt lat="43.22268" lon="3.19402">
        <ele>48</ele>
        <time>2026-02-22T09:02:59Z</time>
      </trkpt>
      <trkpt lat="43.2226" lon="3.19401">
        <ele>48</ele>
        <time>2026-02-22T09:03:01Z</time>
      </trkpt>
      <trkpt lat="43.22251" lon="3.194">
        <ele>49</ele>
        <time>2026-02-22T09:03:03Z</time>
      </trkpt>
      <trkpt lat="43.22243" lon="3.19399">
        <ele>49</ele>
        <time>2026-02-22T09:03:05Z</time>
      </trkpt>
      <trkpt lat="43.22234" lon="3.19398">
        <ele>49</ele>
        <time>2026-02-22T09:03:07Z</time>
      </trkpt>
      <trkpt lat="43.22226" lon="3.19397">
        <ele>50</ele>
        <time>2026-02-22T09:03:09Z</time>
      </trkpt>
      <trkpt lat="43.22217" lon="3.19396">
        <ele>50</ele>
        <time>2026-02-22T09:03:11Z</time>
      </trkpt>
      <trkpt lat="43.22209" lon="3.19394">
        <ele>50</ele>
        <time>2026-02-22T09:03:13Z</time>
      </trkpt>
      <trkpt lat="43.222" lon="3.19394">
        <ele>51</ele>
        <time>2026-02-22T09:03:15Z</time>
      </trkpt>
      <trkpt lat="43.22191" lon="3.19396">
        <ele>51</ele>
        <time>2026-02-22T09:03:17Z</time>
      </trkpt>
      <trkpt lat="43.22181" lon="3.19399">
        <ele>51</ele>
        <time>2026-02-22T09:03:19Z</time>
      </trkpt>
      <trkpt lat="43.22173" lon="3.19402">
        <ele>51</ele>
        <time>2026-02-22T09:03:21Z</time>
      </trkpt>
      <trkpt lat="43.22164" lon="3.19407">
        <ele>51</ele>
        <time>2026-02-22T09:03:23Z</time>
      </trkpt>
      <trkpt lat="43.22155" lon="3.19412">
        <ele>51</ele>
        <time>2026-02-22T09:03:25Z</time>
      </trkpt>
      <trkpt lat="43.22147" lon="3.19416">
        <ele>51</ele>
        <time>2026-02-22T09:03:27Z</time>
      </trkpt>
      <trkpt lat="43.2214" lon="3.19422">
        <ele>51</ele>
        <time>2026-02-22T09:03:29Z</time>
      </trkpt>
      <trkpt lat="43.22133" lon="3.19427">
        <ele>51</ele>
        <time>2026-02-22T09:03:31Z</time>
      </trkpt>
      <trkpt lat="43.22127" lon="3.19433">
        <ele>51</ele>
        <time>2026-02-22T09:03:33Z</time>
      </trkpt>
      <trkpt lat="43.2212" lon="3.19438">
        <ele>51</ele>
        <time>2026-02-22T09:03:35Z</time>
      </trkpt>
      <trkpt lat="43.22112" lon="3.19443">
        <ele>51</ele>
        <time>2026-02-22T09:03:37Z</time>
      </trkpt>
      <trkpt lat="43.22104" lon="3.19447">
        <ele>51</ele>
        <time>2026-02-22T09:03:39Z</time>
      </trkpt>
      <trkpt lat="43.22096" lon="3.19451">
        <ele>51</ele>
        <time>2026-02-22T09:03:41Z</time>
      </trkpt>
      <trkpt lat="43.22086" lon="3.19457">
        <ele>51</ele>
        <time>2026-02-22T09:03:43Z</time>
      </trkpt>
      <trkpt lat="43.22077" lon="3.19462">
        <ele>51</ele>
        <time>2026-02-22T09:03:45Z</time>
      </trkpt>
      <trkpt lat="43.22068" lon="3.19467">
        <ele>51</ele>
        <time>2026-02-22T09:03:47Z</time>
      </trkpt>
      <trkpt lat="43.22058" lon="3.19472">
        <ele>51</ele>
        <time>2026-02-22T09:03:49Z</time>
      </trkpt>
      <trkpt lat="43.22049" lon="3.19477">
        <ele>51</ele>
        <time>2026-02-22T09:03:51Z</time>
      </trkpt>
      <trkpt lat="43.22039" lon="3.19482">
        <ele>51</ele>
        <time>2026-02-22T09:03:53Z</time>
      </trkpt>
      <trkpt lat="43.22029" lon="3.19487">
        <ele>51</ele>
        <time>2026-02-22T09:03:55Z</time>
      </trkpt>
      <trkpt lat="43.2202" lon="3.19493">
        <ele>51</ele>
        <time>2026-02-22T09:03:57Z</time>
      </trkpt>
      <trkpt lat="43.22011" lon="3.19497">
        <ele>51</ele>
        <time>2026-02-22T09:03:59Z</time>
      </trkpt>
      <trkpt lat="43.22002" lon="3.19497">
        <ele>51</ele>
        <time>2026-02-22T09:04:01Z</time>
      </trkpt>
      <trkpt lat="43.21993" lon="3.19495">
        <ele>51</ele>
        <time>2026-02-22T09:04:03Z</time>
      </trkpt>
      <trkpt lat="43.21984" lon="3.19492">
        <ele>51</ele>
        <time>2026-02-22T09:04:05Z</time>
      </trkpt>
      <trkpt lat="43.21975" lon="3.19489">
        <ele>51</ele>
        <time>2026-02-22T09:04:07Z</time>
      </trkpt>
      <trkpt lat="43.21966" lon="3.19487">
        <ele>50</ele>
        <time>2026-02-22T09:04:09Z</time>
      </trkpt>
      <trkpt lat="43.21957" lon="3.19484">
        <ele>50</ele>
        <time>2026-02-22T09:04:11Z</time>
      </trkpt>
      <trkpt lat="43.21948" lon="3.19481">
        <ele>50</ele>
        <time>2026-02-22T09:04:13Z</time>
      </trkpt>
      <trkpt lat="43.21938" lon="3.19477">
        <ele>50</ele>
        <time>2026-02-22T09:04:15Z</time>
      </trkpt>
      <trkpt lat="43.21929" lon="3.19475">
        <ele>50</ele>
        <time>2026-02-22T09:04:17Z</time>
      </trkpt>
      <trkpt lat="43.2192" lon="3.19472">
        <ele>50</ele>
        <time>2026-02-22T09:04:19Z</time>
      </trkpt>
      <trkpt lat="43.21912" lon="3.19469">
        <ele>50</ele>
        <time>2026-02-22T09:04:21Z</time>
      </trkpt>
      <trkpt lat="43.21903" lon="3.19467">
        <ele>50</ele>
        <time>2026-02-22T09:04:23Z</time>
      </trkpt>
      <trkpt lat="43.21894" lon="3.19464">
        <ele>50</ele>
        <time>2026-02-22T09:04:25Z</time>
      </trkpt>
      <trkpt lat="43.21886" lon="3.19462">
        <ele>50</ele>
        <time>2026-02-22T09:04:27Z</time>
      </trkpt>
      <trkpt lat="43.21877" lon="3.19459">
        <ele>50</ele>
        <time>2026-02-22T09:04:29Z</time>
      </trkpt>
      <trkpt lat="43.21868" lon="3.19457">
        <ele>50</ele>
        <time>2026-02-22T09:04:31Z</time>
      </trkpt>
      <trkpt lat="43.2186" lon="3.19455">
        <ele>50</ele>
        <time>2026-02-22T09:04:33Z</time>
      </trkpt>
      <trkpt lat="43.21851" lon="3.19453">
        <ele>50</ele>
        <time>2026-02-22T09:04:35Z</time>
      </trkpt>
      <trkpt lat="43.21843" lon="3.19451">
        <ele>50</ele>
        <time>2026-02-22T09:04:37Z</time>
      </trkpt>
      <trkpt lat="43.21835" lon="3.1945">
        <ele>50</ele>
        <time>2026-02-22T09:04:39Z</time>
      </trkpt>
      <trkpt lat="43.21826" lon="3.1945">
        <ele>50</ele>
        <time>2026-02-22T09:04:41Z</time>
      </trkpt>
      <trkpt lat="43.21818" lon="3.19451">
        <ele>50</ele>
        <time>2026-02-22T09:04:43Z</time>
      </trkpt>
      <trkpt lat="43.2181" lon="3.19452">
        <ele>50</ele>
        <time>2026-02-22T09:04:45Z</time>
      </trkpt>
      <trkpt lat="43.21801" lon="3.19453">
        <ele>50</ele>
        <time>2026-02-22T09:04:47Z</time>
      </trkpt>
      <trkpt lat="43.21793" lon="3.19454">
        <ele>50</ele>
        <time>2026-02-22T09:04:49Z</time>
      </trkpt>
      <trkpt lat="43.21785" lon="3.19455">
        <ele>50</ele>
        <time>2026-02-22T09:04:51Z</time>
      </trkpt>
      <trkpt lat="43.21777" lon="3.19456">
        <ele>50</ele>
        <time>2026-02-22T09:04:53Z</time>
      </trkpt>
      <trkpt lat="43.21769" lon="3.19457">
        <ele>50</ele>
        <time>2026-02-22T09:04:55Z</time>
      </trkpt>
      <trkpt lat="43.2176" lon="3.19458">
        <ele>50</ele>
        <time>2026-02-22T09:04:57Z</time>
      </trkpt>
      <trkpt lat="43.21752" lon="3.19459">
        <ele>50</ele>
        <time>2026-02-22T09:04:59Z</time>
      </trkpt>
      <trkpt lat="43.21744" lon="3.1946">
        <ele>50</ele>
        <time>2026-02-22T09:05:01Z</time>
      </trkpt>
      <trkpt lat="43.21735" lon="3.19461">
        <ele>50</ele>
        <time>2026-02-22T09:05:03Z</time>
      </trkpt>
      <trkpt lat="43.21726" lon="3.19462">
        <ele>51</ele>
        <time>2026-02-22T09:05:05Z</time>
      </trkpt>
      <trkpt lat="43.21717" lon="3.19462">
        <ele>51</ele>
        <time>2026-02-22T09:05:07Z</time>
      </trkpt>
      <trkpt lat="43.21709" lon="3.19463">
        <ele>51</ele>
        <time>2026-02-22T09:05:09Z</time>
      </trkpt>
      <trkpt lat="43.217" lon="3.19464">
        <ele>51</ele>
        <time>2026-02-22T09:05:11Z</time>
      </trkpt>
      <trkpt lat="43.21691" lon="3.19465">
        <ele>51</ele>
        <time>2026-02-22T09:05:13Z</time>
      </trkpt>
      <trkpt lat="43.21683" lon="3.19466">
        <ele>51</ele>
        <time>2026-02-22T09:05:15Z</time>
      </trkpt>
      <trkpt lat="43.21674" lon="3.19467">
        <ele>50</ele>
        <time>2026-02-22T09:05:17Z</time>
      </trkpt>
      <trkpt lat="43.21665" lon="3.19466">
        <ele>50</ele>
        <time>2026-02-22T09:05:19Z</time>
      </trkpt>
      <trkpt lat="43.21656" lon="3.19466">
        <ele>50</ele>
        <time>2026-02-22T09:05:21Z</time>
      </trkpt>
      <trkpt lat="43.21647" lon="3.19467">
        <ele>51</ele>
        <time>2026-02-22T09:05:23Z</time>
      </trkpt>
      <trkpt lat="43.21639" lon="3.19467">
        <ele>51</ele>
        <time>2026-02-22T09:05:25Z</time>
      </trkpt>
      <trkpt lat="43.2163" lon="3.19467">
        <ele>51</ele>
        <time>2026-02-22T09:05:27Z</time>
      </trkpt>
      <trkpt lat="43.21622" lon="3.19467">
        <ele>51</ele>
        <time>2026-02-22T09:05:29Z</time>
      </trkpt>
      <trkpt lat="43.21613" lon="3.19467">
        <ele>51</ele>
        <time>2026-02-22T09:05:31Z</time>
      </trkpt>
      <trkpt lat="43.21605" lon="3.19467">
        <ele>51</ele>
        <time>2026-02-22T09:05:33Z</time>
      </trkpt>
      <trkpt lat="43.21596" lon="3.19467">
        <ele>51</ele>
        <time>2026-02-22T09:05:35Z</time>
      </trkpt>
      <trkpt lat="43.21588" lon="3.19466">
        <ele>51</ele>
        <time>2026-02-22T09:05:37Z</time>
      </trkpt>
      <trkpt lat="43.21579" lon="3.19465">
        <ele>51</ele>
        <time>2026-02-22T09:05:39Z</time>
      </trkpt>
      <trkpt lat="43.2157" lon="3.19463">
        <ele>51</ele>
        <time>2026-02-22T09:05:41Z</time>
      </trkpt>
      <trkpt lat="43.21561" lon="3.19461">
        <ele>51</ele>
        <time>2026-02-22T09:05:43Z</time>
      </trkpt>
      <trkpt lat="43.21553" lon="3.19457">
        <ele>50</ele>
        <time>2026-02-22T09:05:45Z</time>
      </trkpt>
      <trkpt lat="43.21544" lon="3.19454">
        <ele>50</ele>
        <time>2026-02-22T09:05:47Z</time>
      </trkpt>
      <trkpt lat="43.21535" lon="3.1945">
        <ele>50</ele>
        <time>2026-02-22T09:05:49Z</time>
      </trkpt>
      <trkpt lat="43.21527" lon="3.19445">
        <ele>50</ele>
        <time>2026-02-22T09:05:51Z</time>
      </trkpt>
      <trkpt lat="43.2152" lon="3.19439">
        <ele>50</ele>
        <time>2026-02-22T09:05:53Z</time>
      </trkpt>
      <trkpt lat="43.21512" lon="3.19432">
        <ele>49</ele>
        <time>2026-02-22T09:05:55Z</time>
      </trkpt>
      <trkpt lat="43.21504" lon="3.19428">
        <ele>49</ele>
        <time>2026-02-22T09:05:57Z</time>
      </trkpt>
      <trkpt lat="43.21496" lon="3.19426">
        <ele>50</ele>
        <time>2026-02-22T09:05:59Z</time>
      </trkpt>
      <trkpt lat="43.21489" lon="3.19424">
        <ele>50</ele>
        <time>2026-02-22T09:06:01Z</time>
      </trkpt>
      <trkpt lat="43.21481" lon="3.19423">
        <ele>49</ele>
        <time>2026-02-22T09:06:03Z</time>
      </trkpt>
      <trkpt lat="43.21474" lon="3.19421">
        <ele>50</ele>
        <time>2026-02-22T09:06:05Z</time>
      </trkpt>
      <trkpt lat="43.21467" lon="3.1942">
        <ele>50</ele>
        <time>2026-02-22T09:06:07Z</time>
      </trkpt>
      <trkpt lat="43.21459" lon="3.19417">
        <ele>50</ele>
        <time>2026-02-22T09:06:09Z</time>
      </trkpt>
      <trkpt lat="43.21451" lon="3.19415">
        <ele>50</ele>
        <time>2026-02-22T09:06:11Z</time>
      </trkpt>
      <trkpt lat="43.21443" lon="3.19413">
        <ele>50</ele>
        <time>2026-02-22T09:06:13Z</time>
      </trkpt>
      <trkpt lat="43.21435" lon="3.19411">
        <ele>50</ele>
        <time>2026-02-22T09:06:15Z</time>
      </trkpt>
      <trkpt lat="43.21428" lon="3.1941">
        <ele>50</ele>
        <time>2026-02-22T09:06:17Z</time>
      </trkpt>
      <trkpt lat="43.21422" lon="3.1941">
        <ele>50</ele>
        <time>2026-02-22T09:06:19Z</time>
      </trkpt>
      <trkpt lat="43.21417" lon="3.1941">
        <ele>50</ele>
        <time>2026-02-22T09:06:21Z</time>
      </trkpt>
      <trkpt lat="43.21414" lon="3.19409">
        <ele>50</ele>
        <time>2026-02-22T09:06:23Z</time>
      </trkpt>
      <trkpt lat="43.21413" lon="3.19409">
        <ele>50</ele>
        <time>2026-02-22T09:06:25Z</time>
      </trkpt>
      <trkpt lat="43.21413" lon="3.19409">
        <ele>50</ele>
        <time>2026-02-22T09:06:27Z</time>
      </trkpt>
      <trkpt lat="43.21414" lon="3.19408">
        <ele>50</ele>
        <time>2026-02-22T09:06:29Z</time>
      </trkpt>
      <trkpt lat="43.21414" lon="3.19408">
        <ele>51</ele>
        <time>2026-02-22T09:06:31Z</time>
      </trkpt>
      <trkpt lat="43.21414" lon="3.19408">
        <ele>51</ele>
        <time>2026-02-22T09:06:33Z</time>
      </trkpt>
      <trkpt lat="43.21414" lon="3.19408">
        <ele>51</ele>
        <time>2026-02-22T09:06:35Z</time>
      </trkpt>
      <trkpt lat="43.21414" lon="3.19408">
        <ele>51</ele>
        <time>2026-02-22T09:06:37Z</time>
      </trkpt>
      <trkpt lat="43.21414" lon="3.19408">
        <ele>51</ele>
        <time>2026-02-22T09:06:39Z</time>
      </trkpt>
      <trkpt lat="43.21414" lon="3.19408">
        <ele>51</ele>
        <time>2026-02-22T09:06:41Z</time>
      </trkpt>
      <trkpt lat="43.21414" lon="3.19408">
        <ele>51</ele>
        <time>2026-02-22T09:06:43Z</time>
      </trkpt>
      <trkpt lat="43.21414" lon="3.19408">
        <ele>51</ele>
        <time>2026-02-22T09:06:45Z</time>
      </trkpt>
      <trkpt lat="43.21414" lon="3.19408">
        <ele>51</ele>
        <time>2026-02-22T09:06:47Z</time>
      </trkpt>
      <trkpt lat="43.21414" lon="3.19408">
        <ele>51</ele>
        <time>2026-02-22T09:06:49Z</time>
      </trkpt>
      <trkpt lat="43.21414" lon="3.19408">
        <ele>51</ele>
        <time>2026-02-22T09:06:51Z</time>
      </trkpt>
      <trkpt lat="43.21414" lon="3.19408">
        <ele>51</ele>
        <time>2026-02-22T09:06:53Z</time>
      </trkpt>
      <trkpt lat="43.21414" lon="3.19408">
        <ele>51</ele>
        <time>2026-02-22T09:06:55Z</time>
      </trkpt>
      <trkpt lat="43.21414" lon="3.19408">
        <ele>51</ele>
        <time>2026-02-22T09:06:57Z</time>
      </trkpt>
      <trkpt lat="43.21414" lon="3.19408">
        <ele>51</ele>
        <time>2026-02-22T09:06:59Z</time>
      </trkpt>
      <trkpt lat="43.21414" lon="3.19408">
        <ele>51</ele>
        <time>2026-02-22T09:07:01Z</time>
      </trkpt>
      <trkpt lat="43.21414" lon="3.19408">
        <ele>51</ele>
        <time>2026-02-22T09:07:03Z</time>
      </trkpt>
      <trkpt lat="43.21414" lon="3.19408">
        <ele>51</ele>
        <time>2026-02-22T09:07:05Z</time>
      </trkpt>
      <trkpt lat="43.21414" lon="3.19408">
        <ele>51</ele>
        <time>2026-02-22T09:07:07Z</time>
      </trkpt>
      <trkpt lat="43.21414" lon="3.19408">
        <ele>51</ele>
        <time>2026-02-22T09:07:09Z</time>
      </trkpt>
      <trkpt lat="43.21414" lon="3.19408">
        <ele>51</ele>
        <time>2026-02-22T09:07:11Z</time>
      </trkpt>
      <trkpt lat="43.21414" lon="3.19408">
        <ele>51</ele>
        <time>2026-02-22T09:07:13Z</time>
      </trkpt>
      <trkpt lat="43.21414" lon="3.19408">
        <ele>51</ele>
        <time>2026-02-22T09:07:15Z</time>
      </trkpt>
      <trkpt lat="43.21414" lon="3.19408">
        <ele>51</ele>
        <time>2026-02-22T09:07:17Z</time>
      </trkpt>
      <trkpt lat="43.21414" lon="3.19408">
        <ele>51</ele>
        <time>2026-02-22T09:07:19Z</time>
      </trkpt>
      <trkpt lat="43.21414" lon="3.19408">
        <ele>51</ele>
        <time>2026-02-22T09:07:21Z</time>
      </trkpt>
      <trkpt lat="43.21414" lon="3.19408">
        <ele>51</ele>
        <time>2026-02-22T09:07:23Z</time>
      </trkpt>
      <trkpt lat="43.21414" lon="3.19408">
        <ele>51</ele>
        <time>2026-02-22T09:07:25Z</time>
      </trkpt>
      <trkpt lat="43.21414" lon="3.19408">
        <ele>51</ele>
        <time>2026-02-22T09:07:27Z</time>
      </trkpt>
      <trkpt lat="43.21414" lon="3.19408">
        <ele>51</ele>
        <time>2026-02-22T09:07:29Z</time>
      </trkpt>
      <trkpt lat="43.21414" lon="3.19408">
        <ele>51</ele>
        <time>2026-02-22T09:07:31Z</time>
      </trkpt>
      <trkpt lat="43.21414" lon="3.19408">
        <ele>51</ele>
        <time>2026-02-22T09:07:33Z</time>
      </trkpt>
      <trkpt lat="43.21414" lon="3.19408">
        <ele>51</ele>
        <time>2026-02-22T09:07:35Z</time>
      </trkpt>
      <trkpt lat="43.21414" lon="3.19408">
        <ele>51</ele>
        <time>2026-02-22T09:07:37Z</time>
      </trkpt>
      <trkpt lat="43.21414" lon="3.19408">
        <ele>51</ele>
        <time>2026-02-22T09:07:39Z</time>
      </trkpt>
      <trkpt lat="43.21414" lon="3.19408">
        <ele>51</ele>
        <time>2026-02-22T09:07:41Z</time>
      </trkpt>
      <trkpt lat="43.21414" lon="3.19408">
        <ele>48</ele>
        <time>2026-02-22T09:08:55Z</time>
      </trkpt>
      <trkpt lat="43.21414" lon="3.19408">
        <ele>48</ele>
        <time>2026-02-22T09:08:57Z</time>
      </trkpt>
      <trkpt lat="43.21414" lon="3.19408">
        <ele>48</ele>
        <time>2026-02-22T09:08:59Z</time>
      </trkpt>
      <trkpt lat="43.21414" lon="3.19408">
        <ele>48</ele>
        <time>2026-02-22T09:09:01Z</time>
      </trkpt>
      <trkpt lat="43.21414" lon="3.19408">
        <ele>48</ele>
        <time>2026-02-22T09:09:03Z</time>
      </trkpt>
      <trkpt lat="43.21414" lon="3.19408">
        <ele>48</ele>
        <time>2026-02-22T09:09:05Z</time>
      </trkpt>
      <trkpt lat="43.21414" lon="3.19408">
        <ele>48</ele>
        <time>2026-02-22T09:09:07Z</time>
      </trkpt>
      <trkpt lat="43.21414" lon="3.19408">
        <ele>48</ele>
        <time>2026-02-22T09:09:09Z</time>
      </trkpt>
      <trkpt lat="43.2141" lon="3.19414">
        <ele>50</ele>
        <time>2026-02-22T09:09:11Z</time>
      </trkpt>
      <trkpt lat="43.21406" lon="3.19418">
        <ele>50</ele>
        <time>2026-02-22T09:09:13Z</time>
      </trkpt>
      <trkpt lat="43.21401" lon="3.19422">
        <ele>49</ele>
        <time>2026-02-22T09:09:15Z</time>
      </trkpt>
      <trkpt lat="43.21394" lon="3.19426">
        <ele>49</ele>
        <time>2026-02-22T09:09:17Z</time>
      </trkpt>
      <trkpt lat="43.21387" lon="3.1943">
        <ele>49</ele>
        <time>2026-02-22T09:09:19Z</time>
      </trkpt>
      <trkpt lat="43.2138" lon="3.19434">
        <ele>48</ele>
        <time>2026-02-22T09:09:21Z</time>
      </trkpt>
      <trkpt lat="43.21372" lon="3.19439">
        <ele>48</ele>
        <time>2026-02-22T09:09:23Z</time>
      </trkpt>
      <trkpt lat="43.21364" lon="3.19443">
        <ele>47</ele>
        <time>2026-02-22T09:09:25Z</time>
      </trkpt>
      <trkpt lat="43.21356" lon="3.19446">
        <ele>48</ele>
        <time>2026-02-22T09:09:27Z</time>
      </trkpt>
      <trkpt lat="43.21348" lon="3.1945">
        <ele>48</ele>
        <time>2026-02-22T09:09:29Z</time>
      </trkpt>
      <trkpt lat="43.21339" lon="3.19453">
        <ele>48</ele>
        <time>2026-02-22T09:09:31Z</time>
      </trkpt>
      <trkpt lat="43.21331" lon="3.19454">
        <ele>48</ele>
        <time>2026-02-22T09:09:33Z</time>
      </trkpt>
      <trkpt lat="43.21322" lon="3.19455">
        <ele>48</ele>
        <time>2026-02-22T09:09:35Z</time>
      </trkpt>
      <trkpt lat="43.21313" lon="3.19457">
        <ele>49</ele>
        <time>2026-02-22T09:09:37Z</time>
      </trkpt>
      <trkpt lat="43.21305" lon="3.19458">
        <ele>49</ele>
        <time>2026-02-22T09:09:39Z</time>
      </trkpt>
      <trkpt lat="43.21296" lon="3.19459">
        <ele>50</ele>
        <time>2026-02-22T09:09:41Z</time>
      </trkpt>
      <trkpt lat="43.21288" lon="3.1946">
        <ele>50</ele>
        <time>2026-02-22T09:09:43Z</time>
      </trkpt>
      <trkpt lat="43.21279" lon="3.19461">
        <ele>50</ele>
        <time>2026-02-22T09:09:45Z</time>
      </trkpt>
      <trkpt lat="43.2127" lon="3.19462">
        <ele>50</ele>
        <time>2026-02-22T09:09:47Z</time>
      </trkpt>
      <trkpt lat="43.21261" lon="3.19463">
        <ele>50</ele>
        <time>2026-02-22T09:09:49Z</time>
      </trkpt>
      <trkpt lat="43.21253" lon="3.19464">
        <ele>50</ele>
        <time>2026-02-22T09:09:51Z</time>
      </trkpt>
      <trkpt lat="43.21244" lon="3.19466">
        <ele>51</ele>
        <time>2026-02-22T09:09:53Z</time>
      </trkpt>
      <trkpt lat="43.21236" lon="3.19468">
        <ele>50</ele>
        <time>2026-02-22T09:09:55Z</time>
      </trkpt>
      <trkpt lat="43.21227" lon="3.1947">
        <ele>50</ele>
        <time>2026-02-22T09:09:57Z</time>
      </trkpt>
      <trkpt lat="43.21218" lon="3.19471">
        <ele>50</ele>
        <time>2026-02-22T09:09:59Z</time>
      </trkpt>
      <trkpt lat="43.21209" lon="3.19471">
        <ele>50</ele>
        <time>2026-02-22T09:10:01Z</time>
      </trkpt>
      <trkpt lat="43.21201" lon="3.19472">
        <ele>50</ele>
        <time>2026-02-22T09:10:03Z</time>
      </trkpt>
      <trkpt lat="43.21192" lon="3.19472">
        <ele>50</ele>
        <time>2026-02-22T09:10:05Z</time>
      </trkpt>
      <trkpt lat="43.21184" lon="3.19472">
        <ele>50</ele>
        <time>2026-02-22T09:10:07Z</time>
      </trkpt>
      <trkpt lat="43.21175" lon="3.1947">
        <ele>50</ele>
        <time>2026-02-22T09:10:09Z</time>
      </trkpt>
      <trkpt lat="43.21167" lon="3.19469">
        <ele>50</ele>
        <time>2026-02-22T09:10:11Z</time>
      </trkpt>
      <trkpt lat="43.21158" lon="3.19468">
        <ele>50</ele>
        <time>2026-02-22T09:10:13Z</time>
      </trkpt>
      <trkpt lat="43.2115" lon="3.19467">
        <ele>50</ele>
        <time>2026-02-22T09:10:15Z</time>
      </trkpt>
      <trkpt lat="43.21141" lon="3.19466">
        <ele>50</ele>
        <time>2026-02-22T09:10:17Z</time>
      </trkpt>
      <trkpt lat="43.21132" lon="3.19466">
        <ele>50</ele>
        <time>2026-02-22T09:10:19Z</time>
      </trkpt>
      <trkpt lat="43.21124" lon="3.19465">
        <ele>50</ele>
        <time>2026-02-22T09:10:21Z</time>
      </trkpt>
      <trkpt lat="43.21116" lon="3.19464">
        <ele>50</ele>
        <time>2026-02-22T09:10:23Z</time>
      </trkpt>
      <trkpt lat="43.21107" lon="3.19463">
        <ele>50</ele>
        <time>2026-02-22T09:10:25Z</time>
      </trkpt>
      <trkpt lat="43.21099" lon="3.19461">
        <ele>50</ele>
        <time>2026-02-22T09:10:27Z</time>
      </trkpt>
      <trkpt lat="43.2109" lon="3.1946">
        <ele>50</ele>
        <time>2026-02-22T09:10:29Z</time>
      </trkpt>
      <trkpt lat="43.21082" lon="3.19459">
        <ele>51</ele>
        <time>2026-02-22T09:10:31Z</time>
      </trkpt>
      <trkpt lat="43.21075" lon="3.1946">
        <ele>51</ele>
        <time>2026-02-22T09:10:33Z</time>
      </trkpt>
      <trkpt lat="43.21068" lon="3.19462">
        <ele>51</ele>
        <time>2026-02-22T09:10:35Z</time>
      </trkpt>
      <trkpt lat="43.21059" lon="3.19463">
        <ele>51</ele>
        <time>2026-02-22T09:10:37Z</time>
      </trkpt>
      <trkpt lat="43.21051" lon="3.19462">
        <ele>51</ele>
        <time>2026-02-22T09:10:39Z</time>
      </trkpt>
      <trkpt lat="43.21042" lon="3.1946">
        <ele>51</ele>
        <time>2026-02-22T09:10:41Z</time>
      </trkpt>
      <trkpt lat="43.21033" lon="3.19457">
        <ele>51</ele>
        <time>2026-02-22T09:10:43Z</time>
      </trkpt>
      <trkpt lat="43.21025" lon="3.19455">
        <ele>51</ele>
        <time>2026-02-22T09:10:45Z</time>
      </trkpt>
      <trkpt lat="43.21016" lon="3.19452">
        <ele>51</ele>
        <time>2026-02-22T09:10:47Z</time>
      </trkpt>
      <trkpt lat="43.21007" lon="3.19449">
        <ele>51</ele>
        <time>2026-02-22T09:10:49Z</time>
      </trkpt>
      <trkpt lat="43.20999" lon="3.19445">
        <ele>51</ele>
        <time>2026-02-22T09:10:51Z</time>
      </trkpt>
      <trkpt lat="43.2099" lon="3.19441">
        <ele>51</ele>
        <time>2026-02-22T09:10:53Z</time>
      </trkpt>
      <trkpt lat="43.20982" lon="3.19438">
        <ele>51</ele>
        <time>2026-02-22T09:10:55Z</time>
      </trkpt>
      <trkpt lat="43.20973" lon="3.19435">
        <ele>51</ele>
        <time>2026-02-22T09:10:57Z</time>
      </trkpt>
      <trkpt lat="43.20964" lon="3.19432">
        <ele>51</ele>
        <time>2026-02-22T09:10:59Z</time>
      </trkpt>
      <trkpt lat="43.20956" lon="3.19429">
        <ele>51</ele>
        <time>2026-02-22T09:11:01Z</time>
      </trkpt>
      <trkpt lat="43.20948" lon="3.19427">
        <ele>51</ele>
        <time>2026-02-22T09:11:03Z</time>
      </trkpt>
      <trkpt lat="43.2094" lon="3.19424">
        <ele>51</ele>
        <time>2026-02-22T09:11:05Z</time>
      </trkpt>
      <trkpt lat="43.20931" lon="3.19422">
        <ele>51</ele>
        <time>2026-02-22T09:11:07Z</time>
      </trkpt>
      <trkpt lat="43.20923" lon="3.1942">
        <ele>51</ele>
        <time>2026-02-22T09:11:09Z</time>
      </trkpt>
      <trkpt lat="43.20915" lon="3.19419">
        <ele>51</ele>
        <time>2026-02-22T09:11:11Z</time>
      </trkpt>
      <trkpt lat="43.20906" lon="3.19418">
        <ele>51</ele>
        <time>2026-02-22T09:11:13Z</time>
      </trkpt>
      <trkpt lat="43.20898" lon="3.19416">
        <ele>50</ele>
        <time>2026-02-22T09:11:15Z</time>
      </trkpt>
      <trkpt lat="43.2089" lon="3.19415">
        <ele>50</ele>
        <time>2026-02-22T09:11:17Z</time>
      </trkpt>
      <trkpt lat="43.20882" lon="3.19414">
        <ele>50</ele>
        <time>2026-02-22T09:11:19Z</time>
      </trkpt>
      <trkpt lat="43.20874" lon="3.19412">
        <ele>49</ele>
        <time>2026-02-22T09:11:21Z</time>
      </trkpt>
      <trkpt lat="43.20866" lon="3.1941">
        <ele>49</ele>
        <time>2026-02-22T09:11:23Z</time>
      </trkpt>
      <trkpt lat="43.20858" lon="3.19407">
        <ele>49</ele>
        <time>2026-02-22T09:11:25Z</time>
      </trkpt>
      <trkpt lat="43.20849" lon="3.19406">
        <ele>50</ele>
        <time>2026-02-22T09:11:27Z</time>
      </trkpt>
      <trkpt lat="43.20841" lon="3.19405">
        <ele>51</ele>
        <time>2026-02-22T09:11:29Z</time>
      </trkpt>
      <trkpt lat="43.20833" lon="3.19404">
        <ele>51</ele>
        <time>2026-02-22T09:11:31Z</time>
      </trkpt>
      <trkpt lat="43.20825" lon="3.19403">
        <ele>51</ele>
        <time>2026-02-22T09:11:33Z</time>
      </trkpt>
      <trkpt lat="43.20816" lon="3.19402">
        <ele>51</ele>
        <time>2026-02-22T09:11:35Z</time>
      </trkpt>
      <trkpt lat="43.20808" lon="3.194">
        <ele>50</ele>
        <time>2026-02-22T09:11:37Z</time>
      </trkpt>
      <trkpt lat="43.208" lon="3.19398">
        <ele>50</ele>
        <time>2026-02-22T09:11:39Z</time>
      </trkpt>
      <trkpt lat="43.20793" lon="3.19395">
        <ele>50</ele>
        <time>2026-02-22T09:11:41Z</time>
      </trkpt>
      <trkpt lat="43.20786" lon="3.19393">
        <ele>50</ele>
        <time>2026-02-22T09:11:43Z</time>
      </trkpt>
      <trkpt lat="43.20779" lon="3.19394">
        <ele>50</ele>
        <time>2026-02-22T09:11:45Z</time>
      </trkpt>
      <trkpt lat="43.2077" lon="3.19395">
        <ele>50</ele>
        <time>2026-02-22T09:11:47Z</time>
      </trkpt>
      <trkpt lat="43.20761" lon="3.19396">
        <ele>50</ele>
        <time>2026-02-22T09:11:49Z</time>
      </trkpt>
      <trkpt lat="43.20753" lon="3.19395">
        <ele>50</ele>
        <time>2026-02-22T09:11:51Z</time>
      </trkpt>
      <trkpt lat="43.20745" lon="3.19392">
        <ele>50</ele>
        <time>2026-02-22T09:11:53Z</time>
      </trkpt>
      <trkpt lat="43.20741" lon="3.19389">
        <ele>50</ele>
        <time>2026-02-22T09:11:55Z</time>
      </trkpt>
      <trkpt lat="43.20737" lon="3.19386">
        <ele>50</ele>
        <time>2026-02-22T09:11:57Z</time>
      </trkpt>
      <trkpt lat="43.20733" lon="3.19383">
        <ele>50</ele>
        <time>2026-02-22T09:11:59Z</time>
      </trkpt>
      <trkpt lat="43.20728" lon="3.19377">
        <ele>50</ele>
        <time>2026-02-22T09:12:01Z</time>
      </trkpt>
      <trkpt lat="43.20724" lon="3.1937">
        <ele>50</ele>
        <time>2026-02-22T09:12:03Z</time>
      </trkpt>
      <trkpt lat="43.20719" lon="3.19363">
        <ele>50</ele>
        <time>2026-02-22T09:12:05Z</time>
      </trkpt>
      <trkpt lat="43.20714" lon="3.19357">
        <ele>50</ele>
        <time>2026-02-22T09:12:07Z</time>
      </trkpt>
      <trkpt lat="43.20707" lon="3.19353">
        <ele>50</ele>
        <time>2026-02-22T09:12:09Z</time>
      </trkpt>
      <trkpt lat="43.20701" lon="3.19349">
        <ele>50</ele>
        <time>2026-02-22T09:12:11Z</time>
      </trkpt>
      <trkpt lat="43.20694" lon="3.19345">
        <ele>50</ele>
        <time>2026-02-22T09:12:13Z</time>
      </trkpt>
      <trkpt lat="43.20688" lon="3.19341">
        <ele>50</ele>
        <time>2026-02-22T09:12:15Z</time>
      </trkpt>
      <trkpt lat="43.20681" lon="3.19337">
        <ele>50</ele>
        <time>2026-02-22T09:12:17Z</time>
      </trkpt>
      <trkpt lat="43.20674" lon="3.19333">
        <ele>50</ele>
        <time>2026-02-22T09:12:19Z</time>
      </trkpt>
      <trkpt lat="43.20667" lon="3.1933">
        <ele>50</ele>
        <time>2026-02-22T09:12:21Z</time>
      </trkpt>
      <trkpt lat="43.2066" lon="3.19328">
        <ele>50</ele>
        <time>2026-02-22T09:12:23Z</time>
      </trkpt>
      <trkpt lat="43.20652" lon="3.19326">
        <ele>50</ele>
        <time>2026-02-22T09:12:25Z</time>
      </trkpt>
      <trkpt lat="43.20645" lon="3.19325">
        <ele>50</ele>
        <time>2026-02-22T09:12:27Z</time>
      </trkpt>
      <trkpt lat="43.20638" lon="3.19325">
        <ele>51</ele>
        <time>2026-02-22T09:12:29Z</time>
      </trkpt>
      <trkpt lat="43.20632" lon="3.19325">
        <ele>51</ele>
        <time>2026-02-22T09:12:31Z</time>
      </trkpt>
      <trkpt lat="43.20624" lon="3.19326">
        <ele>51</ele>
        <time>2026-02-22T09:12:33Z</time>
      </trkpt>
      <trkpt lat="43.20617" lon="3.19326">
        <ele>51</ele>
        <time>2026-02-22T09:12:35Z</time>
      </trkpt>
      <trkpt lat="43.20609" lon="3.19324">
        <ele>52</ele>
        <time>2026-02-22T09:12:37Z</time>
      </trkpt>
      <trkpt lat="43.20601" lon="3.19322">
        <ele>51</ele>
        <time>2026-02-22T09:12:39Z</time>
      </trkpt>
      <trkpt lat="43.20593" lon="3.19318">
        <ele>51</ele>
        <time>2026-02-22T09:12:41Z</time>
      </trkpt>
      <trkpt lat="43.20585" lon="3.19315">
        <ele>51</ele>
        <time>2026-02-22T09:12:43Z</time>
      </trkpt>
      <trkpt lat="43.20577" lon="3.19312">
        <ele>51</ele>
        <time>2026-02-22T09:12:45Z</time>
      </trkpt>
      <trkpt lat="43.20569" lon="3.19308">
        <ele>50</ele>
        <time>2026-02-22T09:12:47Z</time>
      </trkpt>
      <trkpt lat="43.20561" lon="3.19301">
        <ele>50</ele>
        <time>2026-02-22T09:12:49Z</time>
      </trkpt>
      <trkpt lat="43.20555" lon="3.19292">
        <ele>50</ele>
        <time>2026-02-22T09:12:51Z</time>
      </trkpt>
      <trkpt lat="43.20549" lon="3.19283">
        <ele>50</ele>
        <time>2026-02-22T09:12:53Z</time>
      </trkpt>
      <trkpt lat="43.20544" lon="3.19274">
        <ele>50</ele>
        <time>2026-02-22T09:12:55Z</time>
      </trkpt>
      <trkpt lat="43.20537" lon="3.19266">
        <ele>50</ele>
        <time>2026-02-22T09:12:57Z</time>
      </trkpt>
      <trkpt lat="43.20531" lon="3.19257">
        <ele>50</ele>
        <time>2026-02-22T09:12:59Z</time>
      </trkpt>
      <trkpt lat="43.20525" lon="3.19249">
        <ele>51</ele>
        <time>2026-02-22T09:13:01Z</time>
      </trkpt>
      <trkpt lat="43.20518" lon="3.19242">
        <ele>51</ele>
        <time>2026-02-22T09:13:03Z</time>
      </trkpt>
      <trkpt lat="43.20512" lon="3.19236">
        <ele>51</ele>
        <time>2026-02-22T09:13:05Z</time>
      </trkpt>
      <trkpt lat="43.20507" lon="3.19231">
        <ele>51</ele>
        <time>2026-02-22T09:13:07Z</time>
      </trkpt>
      <trkpt lat="43.20501" lon="3.19226">
        <ele>50</ele>
        <time>2026-02-22T09:13:09Z</time>
      </trkpt>
      <trkpt lat="43.20495" lon="3.19222">
        <ele>50</ele>
        <time>2026-02-22T09:13:11Z</time>
      </trkpt>
      <trkpt lat="43.20488" lon="3.19218">
        <ele>50</ele>
        <time>2026-02-22T09:13:13Z</time>
      </trkpt>
      <trkpt lat="43.20481" lon="3.19214">
        <ele>49</ele>
        <time>2026-02-22T09:13:15Z</time>
      </trkpt>
      <trkpt lat="43.20474" lon="3.1921">
        <ele>49</ele>
        <time>2026-02-22T09:13:17Z</time>
      </trkpt>
      <trkpt lat="43.20467" lon="3.19204">
        <ele>49</ele>
        <time>2026-02-22T09:13:19Z</time>
      </trkpt>
      <trkpt lat="43.2046" lon="3.19199">
        <ele>49</ele>
        <time>2026-02-22T09:13:21Z</time>
      </trkpt>
      <trkpt lat="43.20453" lon="3.19194">
        <ele>49</ele>
        <time>2026-02-22T09:13:23Z</time>
      </trkpt>
      <trkpt lat="43.20446" lon="3.1919">
        <ele>49</ele>
        <time>2026-02-22T09:13:25Z</time>
      </trkpt>
      <trkpt lat="43.20438" lon="3.19185">
        <ele>49</ele>
        <time>2026-02-22T09:13:27Z</time>
      </trkpt>
      <trkpt lat="43.20431" lon="3.1918">
        <ele>49</ele>
        <time>2026-02-22T09:13:29Z</time>
      </trkpt>
      <trkpt lat="43.20423" lon="3.19175">
        <ele>49</ele>
        <time>2026-02-22T09:13:31Z</time>
      </trkpt>
      <trkpt lat="43.20416" lon="3.19171">
        <ele>49</ele>
        <time>2026-02-22T09:13:33Z</time>
      </trkpt>
      <trkpt lat="43.20409" lon="3.19166">
        <ele>49</ele>
        <time>2026-02-22T09:13:35Z</time>
      </trkpt>
      <trkpt lat="43.20402" lon="3.19163">
        <ele>49</ele>
        <time>2026-02-22T09:13:37Z</time>
      </trkpt>
      <trkpt lat="43.20395" lon="3.19159">
        <ele>49</ele>
        <time>2026-02-22T09:13:39Z</time>
      </trkpt>
      <trkpt lat="43.20388" lon="3.19154">
        <ele>49</ele>
        <time>2026-02-22T09:13:41Z</time>
      </trkpt>
      <trkpt lat="43.20381" lon="3.1915">
        <ele>49</ele>
        <time>2026-02-22T09:13:43Z</time>
      </trkpt>
      <trkpt lat="43.20374" lon="3.19147">
        <ele>49</ele>
        <time>2026-02-22T09:13:45Z</time>
      </trkpt>
      <trkpt lat="43.20368" lon="3.19143">
        <ele>49</ele>
        <time>2026-02-22T09:13:47Z</time>
      </trkpt>
      <trkpt lat="43.2036" lon="3.19139">
        <ele>49</ele>
        <time>2026-02-22T09:13:49Z</time>
      </trkpt>
      <trkpt lat="43.20353" lon="3.19136">
        <ele>49</ele>
        <time>2026-02-22T09:13:51Z</time>
      </trkpt>
      <trkpt lat="43.20346" lon="3.19132">
        <ele>49</ele>
        <time>2026-02-22T09:13:53Z</time>
      </trkpt>
      <trkpt lat="43.20339" lon="3.19129">
        <ele>49</ele>
        <time>2026-02-22T09:13:55Z</time>
      </trkpt>
      <trkpt lat="43.20331" lon="3.19126">
        <ele>49</ele>
        <time>2026-02-22T09:13:57Z</time>
      </trkpt>
      <trkpt lat="43.20324" lon="3.19123">
        <ele>49</ele>
        <time>2026-02-22T09:13:59Z</time>
      </trkpt>
      <trkpt lat="43.20316" lon="3.19122">
        <ele>49</ele>
        <time>2026-02-22T09:14:01Z</time>
      </trkpt>
      <trkpt lat="43.20309" lon="3.19121">
        <ele>49</ele>
        <time>2026-02-22T09:14:03Z</time>
      </trkpt>
      <trkpt lat="43.20301" lon="3.1912">
        <ele>49</ele>
        <time>2026-02-22T09:14:05Z</time>
      </trkpt>
      <trkpt lat="43.20292" lon="3.1912">
        <ele>49</ele>
        <time>2026-02-22T09:14:07Z</time>
      </trkpt>
      <trkpt lat="43.20283" lon="3.19119">
        <ele>49</ele>
        <time>2026-02-22T09:14:09Z</time>
      </trkpt>
      <trkpt lat="43.20273" lon="3.19118">
        <ele>49</ele>
        <time>2026-02-22T09:14:11Z</time>
      </trkpt>
      <trkpt lat="43.20265" lon="3.19117">
        <ele>49</ele>
        <time>2026-02-22T09:14:13Z</time>
      </trkpt>
      <trkpt lat="43.20256" lon="3.19116">
        <ele>49</ele>
        <time>2026-02-22T09:14:15Z</time>
      </trkpt>
      <trkpt lat="43.20247" lon="3.19116">
        <ele>49</ele>
        <time>2026-02-22T09:14:17Z</time>
      </trkpt>
      <trkpt lat="43.20238" lon="3.19115">
        <ele>49</ele>
        <time>2026-02-22T09:14:19Z</time>
      </trkpt>
      <trkpt lat="43.2023" lon="3.19114">
        <ele>49</ele>
        <time>2026-02-22T09:14:21Z</time>
      </trkpt>
      <trkpt lat="43.20221" lon="3.19113">
        <ele>49</ele>
        <time>2026-02-22T09:14:23Z</time>
      </trkpt>
      <trkpt lat="43.20213" lon="3.19112">
        <ele>49</ele>
        <time>2026-02-22T09:14:25Z</time>
      </trkpt>
      <trkpt lat="43.20205" lon="3.19111">
        <ele>49</ele>
        <time>2026-02-22T09:14:27Z</time>
      </trkpt>
      <trkpt lat="43.20196" lon="3.1911">
        <ele>49</ele>
        <time>2026-02-22T09:14:29Z</time>
      </trkpt>
      <trkpt lat="43.20187" lon="3.19109">
        <ele>49</ele>
        <time>2026-02-22T09:14:31Z</time>
      </trkpt>
      <trkpt lat="43.20178" lon="3.19108">
        <ele>49</ele>
        <time>2026-02-22T09:14:33Z</time>
      </trkpt>
      <trkpt lat="43.20169" lon="3.19107">
        <ele>49</ele>
        <time>2026-02-22T09:14:35Z</time>
      </trkpt>
      <trkpt lat="43.2016" lon="3.19107">
        <ele>49</ele>
        <time>2026-02-22T09:14:37Z</time>
      </trkpt>
      <trkpt lat="43.20151" lon="3.19108">
        <ele>49</ele>
        <time>2026-02-22T09:14:39Z</time>
      </trkpt>
      <trkpt lat="43.20142" lon="3.19108">
        <ele>50</ele>
        <time>2026-02-22T09:14:41Z</time>
      </trkpt>
      <trkpt lat="43.20133" lon="3.19108">
        <ele>50</ele>
        <time>2026-02-22T09:14:43Z</time>
      </trkpt>
      <trkpt lat="43.20124" lon="3.19108">
        <ele>50</ele>
        <time>2026-02-22T09:14:45Z</time>
      </trkpt>
      <trkpt lat="43.20115" lon="3.19109">
        <ele>50</ele>
        <time>2026-02-22T09:14:47Z</time>
      </trkpt>
      <trkpt lat="43.20106" lon="3.19109">
        <ele>50</ele>
        <time>2026-02-22T09:14:49Z</time>
      </trkpt>
      <trkpt lat="43.20097" lon="3.1911">
        <ele>50</ele>
        <time>2026-02-22T09:14:51Z</time>
      </trkpt>
      <trkpt lat="43.20088" lon="3.1911">
        <ele>50</ele>
        <time>2026-02-22T09:14:53Z</time>
      </trkpt>
      <trkpt lat="43.20079" lon="3.19109">
        <ele>50</ele>
        <time>2026-02-22T09:14:55Z</time>
      </trkpt>
      <trkpt lat="43.20071" lon="3.19109">
        <ele>50</ele>
        <time>2026-02-22T09:14:57Z</time>
      </trkpt>
      <trkpt lat="43.20063" lon="3.1911">
        <ele>50</ele>
        <time>2026-02-22T09:14:59Z</time>
      </trkpt>
      <trkpt lat="43.20054" lon="3.1911">
        <ele>50</ele>
        <time>2026-02-22T09:15:01Z</time>
      </trkpt>
      <trkpt lat="43.20045" lon="3.19111">
        <ele>50</ele>
        <time>2026-02-22T09:15:03Z</time>
      </trkpt>
      <trkpt lat="43.20036" lon="3.19112">
        <ele>50</ele>
        <time>2026-02-22T09:15:05Z</time>
      </trkpt>
      <trkpt lat="43.20027" lon="3.19112">
        <ele>50</ele>
        <time>2026-02-22T09:15:07Z</time>
      </trkpt>
      <trkpt lat="43.20019" lon="3.19112">
        <ele>50</ele>
        <time>2026-02-22T09:15:09Z</time>
      </trkpt>
      <trkpt lat="43.2001" lon="3.19113">
        <ele>50</ele>
        <time>2026-02-22T09:15:11Z</time>
      </trkpt>
      <trkpt lat="43.20001" lon="3.19112">
        <ele>50</ele>
        <time>2026-02-22T09:15:13Z</time>
      </trkpt>
      <trkpt lat="43.19992" lon="3.19113">
        <ele>49</ele>
        <time>2026-02-22T09:15:15Z</time>
      </trkpt>
      <trkpt lat="43.19983" lon="3.19113">
        <ele>50</ele>
        <time>2026-02-22T09:15:17Z</time>
      </trkpt>
      <trkpt lat="43.19974" lon="3.19113">
        <ele>49</ele>
        <time>2026-02-22T09:15:19Z</time>
      </trkpt>
      <trkpt lat="43.19965" lon="3.19114">
        <ele>50</ele>
        <time>2026-02-22T09:15:21Z</time>
      </trkpt>
      <trkpt lat="43.19957" lon="3.19114">
        <ele>50</ele>
        <time>2026-02-22T09:15:23Z</time>
      </trkpt>
      <trkpt lat="43.19948" lon="3.19115">
        <ele>50</ele>
        <time>2026-02-22T09:15:25Z</time>
      </trkpt>
      <trkpt lat="43.19939" lon="3.19115">
        <ele>49</ele>
        <time>2026-02-22T09:15:27Z</time>
      </trkpt>
      <trkpt lat="43.19931" lon="3.19115">
        <ele>49</ele>
        <time>2026-02-22T09:15:29Z</time>
      </trkpt>
      <trkpt lat="43.19922" lon="3.19115">
        <ele>49</ele>
        <time>2026-02-22T09:15:31Z</time>
      </trkpt>
      <trkpt lat="43.19914" lon="3.19116">
        <ele>49</ele>
        <time>2026-02-22T09:15:33Z</time>
      </trkpt>
      <trkpt lat="43.19905" lon="3.19116">
        <ele>49</ele>
        <time>2026-02-22T09:15:35Z</time>
      </trkpt>
      <trkpt lat="43.19897" lon="3.19117">
        <ele>49</ele>
        <time>2026-02-22T09:15:37Z</time>
      </trkpt>
      <trkpt lat="43.19888" lon="3.19117">
        <ele>49</ele>
        <time>2026-02-22T09:15:39Z</time>
      </trkpt>
      <trkpt lat="43.1988" lon="3.19117">
        <ele>49</ele>
        <time>2026-02-22T09:15:41Z</time>
      </trkpt>
      <trkpt lat="43.19873" lon="3.19118">
        <ele>49</ele>
        <time>2026-02-22T09:15:43Z</time>
      </trkpt>
      <trkpt lat="43.19865" lon="3.19118">
        <ele>50</ele>
        <time>2026-02-22T09:15:45Z</time>
      </trkpt>
      <trkpt lat="43.19858" lon="3.19119">
        <ele>49</ele>
        <time>2026-02-22T09:15:47Z</time>
      </trkpt>
      <trkpt lat="43.19851" lon="3.1912">
        <ele>49</ele>
        <time>2026-02-22T09:15:49Z</time>
      </trkpt>
      <trkpt lat="43.19845" lon="3.19121">
        <ele>50</ele>
        <time>2026-02-22T09:15:51Z</time>
      </trkpt>
      <trkpt lat="43.1984" lon="3.19122">
        <ele>50</ele>
        <time>2026-02-22T09:15:53Z</time>
      </trkpt>
      <trkpt lat="43.19836" lon="3.19123">
        <ele>50</ele>
        <time>2026-02-22T09:15:55Z</time>
      </trkpt>
      <trkpt lat="43.19832" lon="3.19125">
        <ele>50</ele>
        <time>2026-02-22T09:15:57Z</time>
      </trkpt>
      <trkpt lat="43.19828" lon="3.19127">
        <ele>49</ele>
        <time>2026-02-22T09:15:59Z</time>
      </trkpt>
      <trkpt lat="43.19826" lon="3.19132">
        <ele>49</ele>
        <time>2026-02-22T09:16:01Z</time>
      </trkpt>
      <trkpt lat="43.19824" lon="3.19135">
        <ele>49</ele>
        <time>2026-02-22T09:16:03Z</time>
      </trkpt>
      <trkpt lat="43.19824" lon="3.19137">
        <ele>48</ele>
        <time>2026-02-22T09:16:05Z</time>
      </trkpt>
      <trkpt lat="43.19824" lon="3.19137">
        <ele>48</ele>
        <time>2026-02-22T09:16:07Z</time>
      </trkpt>
      <trkpt lat="43.19824" lon="3.19138">
        <ele>48</ele>
        <time>2026-02-22T09:16:09Z</time>
      </trkpt>
      <trkpt lat="43.19824" lon="3.19138">
        <ele>48</ele>
        <time>2026-02-22T09:16:11Z</time>
      </trkpt>
      <trkpt lat="43.19824" lon="3.19138">
        <ele>49</ele>
        <time>2026-02-22T09:16:13Z</time>
      </trkpt>
      <trkpt lat="43.19824" lon="3.19138">
        <ele>49</ele>
        <time>2026-02-22T09:16:15Z</time>
      </trkpt>
      <trkpt lat="43.19824" lon="3.19138">
        <ele>49</ele>
        <time>2026-02-22T09:16:17Z</time>
      </trkpt>
      <trkpt lat="43.19824" lon="3.19138">
        <ele>49</ele>
        <time>2026-02-22T09:16:19Z</time>
      </trkpt>
      <trkpt lat="43.19824" lon="3.1914">
        <ele>49</ele>
        <time>2026-02-22T09:16:21Z</time>
      </trkpt>
      <trkpt lat="43.19825" lon="3.19143">
        <ele>49</ele>
        <time>2026-02-22T09:16:23Z</time>
      </trkpt>
      <trkpt lat="43.19825" lon="3.19146">
        <ele>49</ele>
        <time>2026-02-22T09:16:25Z</time>
      </trkpt>
      <trkpt lat="43.19825" lon="3.1915">
        <ele>49</ele>
        <time>2026-02-22T09:16:27Z</time>
      </trkpt>
      <trkpt lat="43.19825" lon="3.19155">
        <ele>49</ele>
        <time>2026-02-22T09:16:29Z</time>
      </trkpt>
      <trkpt lat="43.19825" lon="3.1916">
        <ele>49</ele>
        <time>2026-02-22T09:16:31Z</time>
      </trkpt>
      <trkpt lat="43.19825" lon="3.19166">
        <ele>49</ele>
        <time>2026-02-22T09:16:33Z</time>
      </trkpt>
      <trkpt lat="43.19825" lon="3.19172">
        <ele>50</ele>
        <time>2026-02-22T09:16:35Z</time>
      </trkpt>
      <trkpt lat="43.19826" lon="3.1918">
        <ele>49</ele>
        <time>2026-02-22T09:16:37Z</time>
      </trkpt>
      <trkpt lat="43.19827" lon="3.19187">
        <ele>49</ele>
        <time>2026-02-22T09:16:39Z</time>
      </trkpt>
      <trkpt lat="43.19827" lon="3.19196">
        <ele>49</ele>
        <time>2026-02-22T09:16:41Z</time>
      </trkpt>
      <trkpt lat="43.19828" lon="3.19205">
        <ele>49</ele>
        <time>2026-02-22T09:16:43Z</time>
      </trkpt>
      <trkpt lat="43.1983" lon="3.19214">
        <ele>49</ele>
        <time>2026-02-22T09:16:45Z</time>
      </trkpt>
      <trkpt lat="43.1983" lon="3.19224">
        <ele>49</ele>
        <time>2026-02-22T09:16:47Z</time>
      </trkpt>
      <trkpt lat="43.1983" lon="3.19234">
        <ele>49</ele>
        <time>2026-02-22T09:16:49Z</time>
      </trkpt>
      <trkpt lat="43.1983" lon="3.19245">
        <ele>49</ele>
        <time>2026-02-22T09:16:51Z</time>
      </trkpt>
      <trkpt lat="43.19829" lon="3.19256">
        <ele>49</ele>
        <time>2026-02-22T09:16:53Z</time>
      </trkpt>
      <trkpt lat="43.19828" lon="3.19267">
        <ele>49</ele>
        <time>2026-02-22T09:16:55Z</time>
      </trkpt>
      <trkpt lat="43.19828" lon="3.19279">
        <ele>49</ele>
        <time>2026-02-22T09:16:57Z</time>
      </trkpt>
      <trkpt lat="43.19827" lon="3.1929">
        <ele>49</ele>
        <time>2026-02-22T09:16:59Z</time>
      </trkpt>
      <trkpt lat="43.19828" lon="3.19302">
        <ele>49</ele>
        <time>2026-02-22T09:17:01Z</time>
      </trkpt>
      <trkpt lat="43.19829" lon="3.19314">
        <ele>49</ele>
        <time>2026-02-22T09:17:03Z</time>
      </trkpt>
      <trkpt lat="43.19829" lon="3.19326">
        <ele>49</ele>
        <time>2026-02-22T09:17:05Z</time>
      </trkpt>
      <trkpt lat="43.1983" lon="3.19338">
        <ele>49</ele>
        <time>2026-02-22T09:17:07Z</time>
      </trkpt>
      <trkpt lat="43.19831" lon="3.1935">
        <ele>49</ele>
        <time>2026-02-22T09:17:09Z</time>
      </trkpt>
      <trkpt lat="43.1983" lon="3.19362">
        <ele>49</ele>
        <time>2026-02-22T09:17:11Z</time>
      </trkpt>
      <trkpt lat="43.19829" lon="3.19374">
        <ele>49</ele>
        <time>2026-02-22T09:17:13Z</time>
      </trkpt>
      <trkpt lat="43.19829" lon="3.19386">
        <ele>49</ele>
        <time>2026-02-22T09:17:15Z</time>
      </trkpt>
      <trkpt lat="43.19829" lon="3.19398">
        <ele>49</ele>
        <time>2026-02-22T09:17:17Z</time>
      </trkpt>
      <trkpt lat="43.19829" lon="3.1941">
        <ele>49</ele>
        <time>2026-02-22T09:17:19Z</time>
      </trkpt>
      <trkpt lat="43.19829" lon="3.19422">
        <ele>49</ele>
        <time>2026-02-22T09:17:21Z</time>
      </trkpt>
      <trkpt lat="43.19828" lon="3.19434">
        <ele>49</ele>
        <time>2026-02-22T09:17:23Z</time>
      </trkpt>
      <trkpt lat="43.19828" lon="3.19445">
        <ele>49</ele>
        <time>2026-02-22T09:17:25Z</time>
      </trkpt>
      <trkpt lat="43.19827" lon="3.19456">
        <ele>49</ele>
        <time>2026-02-22T09:17:27Z</time>
      </trkpt>
      <trkpt lat="43.19827" lon="3.19467">
        <ele>49</ele>
        <time>2026-02-22T09:17:29Z</time>
      </trkpt>
      <trkpt lat="43.19826" lon="3.19478">
        <ele>49</ele>
        <time>2026-02-22T09:17:31Z</time>
      </trkpt>
      <trkpt lat="43.19826" lon="3.19488">
        <ele>49</ele>
        <time>2026-02-22T09:17:33Z</time>
      </trkpt>
      <trkpt lat="43.19825" lon="3.19497">
        <ele>49</ele>
        <time>2026-02-22T09:17:35Z</time>
      </trkpt>
      <trkpt lat="43.19825" lon="3.19506">
        <ele>49</ele>
        <time>2026-02-22T09:17:37Z</time>
      </trkpt>
      <trkpt lat="43.19824" lon="3.19516">
        <ele>49</ele>
        <time>2026-02-22T09:17:39Z</time>
      </trkpt>
      <trkpt lat="43.19823" lon="3.19526">
        <ele>49</ele>
        <time>2026-02-22T09:17:41Z</time>
      </trkpt>
      <trkpt lat="43.19823" lon="3.19536">
        <ele>48</ele>
        <time>2026-02-22T09:17:43Z</time>
      </trkpt>
      <trkpt lat="43.19823" lon="3.19546">
        <ele>48</ele>
        <time>2026-02-22T09:17:45Z</time>
      </trkpt>
      <trkpt lat="43.19822" lon="3.19556">
        <ele>49</ele>
        <time>2026-02-22T09:17:47Z</time>
      </trkpt>
      <trkpt lat="43.19822" lon="3.19567">
        <ele>48</ele>
        <time>2026-02-22T09:17:49Z</time>
      </trkpt>
      <trkpt lat="43.19822" lon="3.19577">
        <ele>48</ele>
        <time>2026-02-22T09:17:51Z</time>
      </trkpt>
      <trkpt lat="43.19821" lon="3.19588">
        <ele>48</ele>
        <time>2026-02-22T09:17:53Z</time>
      </trkpt>
      <trkpt lat="43.19818" lon="3.19599">
        <ele>48</ele>
        <time>2026-02-22T09:17:55Z</time>
      </trkpt>
      <trkpt lat="43.19813" lon="3.19607">
        <ele>48</ele>
        <time>2026-02-22T09:17:57Z</time>
      </trkpt>
      <trkpt lat="43.19805" lon="3.19611">
        <ele>48</ele>
        <time>2026-02-22T09:17:59Z</time>
      </trkpt>
      <trkpt lat="43.19797" lon="3.19615">
        <ele>48</ele>
        <time>2026-02-22T09:18:01Z</time>
      </trkpt>
      <trkpt lat="43.19788" lon="3.19619">
        <ele>48</ele>
        <time>2026-02-22T09:18:03Z</time>
      </trkpt>
      <trkpt lat="43.1978" lon="3.19623">
        <ele>48</ele>
        <time>2026-02-22T09:18:05Z</time>
      </trkpt>
      <trkpt lat="43.19772" lon="3.19627">
        <ele>48</ele>
        <time>2026-02-22T09:18:07Z</time>
      </trkpt>
      <trkpt lat="43.19764" lon="3.19632">
        <ele>48</ele>
        <time>2026-02-22T09:18:09Z</time>
      </trkpt>
      <trkpt lat="43.19756" lon="3.19636">
        <ele>48</ele>
        <time>2026-02-22T09:18:11Z</time>
      </trkpt>
      <trkpt lat="43.19749" lon="3.19641">
        <ele>48</ele>
        <time>2026-02-22T09:18:13Z</time>
      </trkpt>
      <trkpt lat="43.19741" lon="3.19646">
        <ele>48</ele>
        <time>2026-02-22T09:18:15Z</time>
      </trkpt>
      <trkpt lat="43.19734" lon="3.19651">
        <ele>48</ele>
        <time>2026-02-22T09:18:17Z</time>
      </trkpt>
      <trkpt lat="43.19726" lon="3.19656">
        <ele>48</ele>
        <time>2026-02-22T09:18:19Z</time>
      </trkpt>
      <trkpt lat="43.19719" lon="3.19661">
        <ele>48</ele>
        <time>2026-02-22T09:18:21Z</time>
      </trkpt>
      <trkpt lat="43.19712" lon="3.19666">
        <ele>48</ele>
        <time>2026-02-22T09:18:23Z</time>
      </trkpt>
      <trkpt lat="43.19704" lon="3.19671">
        <ele>49</ele>
        <time>2026-02-22T09:18:25Z</time>
      </trkpt>
      <trkpt lat="43.19697" lon="3.19676">
        <ele>48</ele>
        <time>2026-02-22T09:18:27Z</time>
      </trkpt>
      <trkpt lat="43.1969" lon="3.19682">
        <ele>48</ele>
        <time>2026-02-22T09:18:29Z</time>
      </trkpt>
      <trkpt lat="43.19682" lon="3.19688">
        <ele>48</ele>
        <time>2026-02-22T09:18:31Z</time>
      </trkpt>
      <trkpt lat="43.19674" lon="3.19693">
        <ele>48</ele>
        <time>2026-02-22T09:18:33Z</time>
      </trkpt>
      <trkpt lat="43.19667" lon="3.19699">
        <ele>48</ele>
        <time>2026-02-22T09:18:35Z</time>
      </trkpt>
      <trkpt lat="43.19659" lon="3.19705">
        <ele>48</ele>
        <time>2026-02-22T09:18:37Z</time>
      </trkpt>
      <trkpt lat="43.19652" lon="3.19711">
        <ele>49</ele>
        <time>2026-02-22T09:18:39Z</time>
      </trkpt>
      <trkpt lat="43.19644" lon="3.19717">
        <ele>49</ele>
        <time>2026-02-22T09:18:41Z</time>
      </trkpt>
      <trkpt lat="43.19637" lon="3.19723">
        <ele>49</ele>
        <time>2026-02-22T09:18:43Z</time>
      </trkpt>
      <trkpt lat="43.1963" lon="3.19728">
        <ele>49</ele>
        <time>2026-02-22T09:18:45Z</time>
      </trkpt>
      <trkpt lat="43.19623" lon="3.19732">
        <ele>49</ele>
        <time>2026-02-22T09:18:47Z</time>
      </trkpt>
      <trkpt lat="43.19615" lon="3.19736">
        <ele>48</ele>
        <time>2026-02-22T09:18:49Z</time>
      </trkpt>
      <trkpt lat="43.19607" lon="3.19739">
        <ele>49</ele>
        <time>2026-02-22T09:18:51Z</time>
      </trkpt>
      <trkpt lat="43.19599" lon="3.19741">
        <ele>49</ele>
        <time>2026-02-22T09:18:53Z</time>
      </trkpt>
      <trkpt lat="43.19591" lon="3.19742">
        <ele>49</ele>
        <time>2026-02-22T09:18:55Z</time>
      </trkpt>
      <trkpt lat="43.19583" lon="3.19744">
        <ele>49</ele>
        <time>2026-02-22T09:18:57Z</time>
      </trkpt>
      <trkpt lat="43.19574" lon="3.19745">
        <ele>49</ele>
        <time>2026-02-22T09:18:59Z</time>
      </trkpt>
      <trkpt lat="43.19566" lon="3.19746">
        <ele>49</ele>
        <time>2026-02-22T09:19:01Z</time>
      </trkpt>
      <trkpt lat="43.19557" lon="3.19747">
        <ele>49</ele>
        <time>2026-02-22T09:19:03Z</time>
      </trkpt>
      <trkpt lat="43.19548" lon="3.19749">
        <ele>49</ele>
        <time>2026-02-22T09:19:05Z</time>
      </trkpt>
      <trkpt lat="43.1954" lon="3.1975">
        <ele>49</ele>
        <time>2026-02-22T09:19:07Z</time>
      </trkpt>
      <trkpt lat="43.19531" lon="3.19751">
        <ele>49</ele>
        <time>2026-02-22T09:19:09Z</time>
      </trkpt>
      <trkpt lat="43.19523" lon="3.19753">
        <ele>49</ele>
        <time>2026-02-22T09:19:11Z</time>
      </trkpt>
      <trkpt lat="43.19515" lon="3.19754">
        <ele>50</ele>
        <time>2026-02-22T09:19:13Z</time>
      </trkpt>
      <trkpt lat="43.19507" lon="3.19757">
        <ele>49</ele>
        <time>2026-02-22T09:19:15Z</time>
      </trkpt>
      <trkpt lat="43.19499" lon="3.19761">
        <ele>49</ele>
        <time>2026-02-22T09:19:17Z</time>
      </trkpt>
      <trkpt lat="43.19491" lon="3.19765">
        <ele>50</ele>
        <time>2026-02-22T09:19:19Z</time>
      </trkpt>
      <trkpt lat="43.19484" lon="3.19769">
        <ele>50</ele>
        <time>2026-02-22T09:19:21Z</time>
      </trkpt>
      <trkpt lat="43.19476" lon="3.19774">
        <ele>50</ele>
        <time>2026-02-22T09:19:23Z</time>
      </trkpt>
      <trkpt lat="43.19468" lon="3.19778">
        <ele>50</ele>
        <time>2026-02-22T09:19:25Z</time>
      </trkpt>
      <trkpt lat="43.19461" lon="3.19783">
        <ele>50</ele>
        <time>2026-02-22T09:19:27Z</time>
      </trkpt>
      <trkpt lat="43.19453" lon="3.19787">
        <ele>50</ele>
        <time>2026-02-22T09:19:29Z</time>
      </trkpt>
      <trkpt lat="43.19445" lon="3.19792">
        <ele>50</ele>
        <time>2026-02-22T09:19:31Z</time>
      </trkpt>
      <trkpt lat="43.19437" lon="3.19798">
        <ele>49</ele>
        <time>2026-02-22T09:19:33Z</time>
      </trkpt>
      <trkpt lat="43.19429" lon="3.19803">
        <ele>49</ele>
        <time>2026-02-22T09:19:35Z</time>
      </trkpt>
      <trkpt lat="43.19421" lon="3.19807">
        <ele>49</ele>
        <time>2026-02-22T09:19:37Z</time>
      </trkpt>
      <trkpt lat="43.19412" lon="3.1981">
        <ele>49</ele>
        <time>2026-02-22T09:19:39Z</time>
      </trkpt>
      <trkpt lat="43.19404" lon="3.19809">
        <ele>49</ele>
        <time>2026-02-22T09:19:41Z</time>
      </trkpt>
      <trkpt lat="43.19397" lon="3.19805">
        <ele>49</ele>
        <time>2026-02-22T09:19:43Z</time>
      </trkpt>
      <trkpt lat="43.1939" lon="3.198">
        <ele>50</ele>
        <time>2026-02-22T09:19:45Z</time>
      </trkpt>
      <trkpt lat="43.19383" lon="3.19794">
        <ele>50</ele>
        <time>2026-02-22T09:19:47Z</time>
      </trkpt>
      <trkpt lat="43.19376" lon="3.19788">
        <ele>51</ele>
        <time>2026-02-22T09:19:49Z</time>
      </trkpt>
      <trkpt lat="43.1937" lon="3.19782">
        <ele>51</ele>
        <time>2026-02-22T09:19:51Z</time>
      </trkpt>
      <trkpt lat="43.19364" lon="3.19775">
        <ele>51</ele>
        <time>2026-02-22T09:19:53Z</time>
      </trkpt>
      <trkpt lat="43.19358" lon="3.19769">
        <ele>50</ele>
        <time>2026-02-22T09:19:55Z</time>
      </trkpt>
      <trkpt lat="43.19351" lon="3.19762">
        <ele>50</ele>
        <time>2026-02-22T09:19:57Z</time>
      </trkpt>
      <trkpt lat="43.19345" lon="3.19754">
        <ele>50</ele>
        <time>2026-02-22T09:19:59Z</time>
      </trkpt>
      <trkpt lat="43.19338" lon="3.19747">
        <ele>51</ele>
        <time>2026-02-22T09:20:01Z</time>
      </trkpt>
      <trkpt lat="43.19331" lon="3.1974">
        <ele>51</ele>
        <time>2026-02-22T09:20:03Z</time>
      </trkpt>
      <trkpt lat="43.19324" lon="3.19733">
        <ele>51</ele>
        <time>2026-02-22T09:20:05Z</time>
      </trkpt>
      <trkpt lat="43.19317" lon="3.19727">
        <ele>51</ele>
        <time>2026-02-22T09:20:07Z</time>
      </trkpt>
      <trkpt lat="43.1931" lon="3.19721">
        <ele>51</ele>
        <time>2026-02-22T09:20:09Z</time>
      </trkpt>
      <trkpt lat="43.19303" lon="3.19715">
        <ele>51</ele>
        <time>2026-02-22T09:20:11Z</time>
      </trkpt>
      <trkpt lat="43.19296" lon="3.19709">
        <ele>51</ele>
        <time>2026-02-22T09:20:13Z</time>
      </trkpt>
      <trkpt lat="43.19289" lon="3.19704">
        <ele>51</ele>
        <time>2026-02-22T09:20:15Z</time>
      </trkpt>
      <trkpt lat="43.19281" lon="3.197">
        <ele>51</ele>
        <time>2026-02-22T09:20:17Z</time>
      </trkpt>
      <trkpt lat="43.19273" lon="3.19697">
        <ele>51</ele>
        <time>2026-02-22T09:20:19Z</time>
      </trkpt>
      <trkpt lat="43.19265" lon="3.19694">
        <ele>51</ele>
        <time>2026-02-22T09:20:21Z</time>
      </trkpt>
      <trkpt lat="43.19257" lon="3.19692">
        <ele>50</ele>
        <time>2026-02-22T09:20:23Z</time>
      </trkpt>
      <trkpt lat="43.19249" lon="3.1969">
        <ele>50</ele>
        <time>2026-02-22T09:20:25Z</time>
      </trkpt>
      <trkpt lat="43.19241" lon="3.19688">
        <ele>50</ele>
        <time>2026-02-22T09:20:27Z</time>
      </trkpt>
      <trkpt lat="43.19233" lon="3.19685">
        <ele>50</ele>
        <time>2026-02-22T09:20:29Z</time>
      </trkpt>
      <trkpt lat="43.19225" lon="3.19683">
        <ele>50</ele>
        <time>2026-02-22T09:20:31Z</time>
      </trkpt>
      <trkpt lat="43.19217" lon="3.1968">
        <ele>50</ele>
        <time>2026-02-22T09:20:33Z</time>
      </trkpt>
      <trkpt lat="43.19209" lon="3.19676">
        <ele>50</ele>
        <time>2026-02-22T09:20:35Z</time>
      </trkpt>
      <trkpt lat="43.19201" lon="3.19674">
        <ele>51</ele>
        <time>2026-02-22T09:20:37Z</time>
      </trkpt>
      <trkpt lat="43.19193" lon="3.19675">
        <ele>51</ele>
        <time>2026-02-22T09:20:39Z</time>
      </trkpt>
      <trkpt lat="43.19185" lon="3.19676">
        <ele>50</ele>
        <time>2026-02-22T09:20:41Z</time>
      </trkpt>
      <trkpt lat="43.19177" lon="3.19677">
        <ele>50</ele>
        <time>2026-02-22T09:20:43Z</time>
      </trkpt>
      <trkpt lat="43.19169" lon="3.19678">
        <ele>50</ele>
        <time>2026-02-22T09:20:45Z</time>
      </trkpt>
      <trkpt lat="43.19161" lon="3.19677">
        <ele>49</ele>
        <time>2026-02-22T09:20:47Z</time>
      </trkpt>
      <trkpt lat="43.19153" lon="3.19674">
        <ele>49</ele>
        <time>2026-02-22T09:20:49Z</time>
      </trkpt>
      <trkpt lat="43.19146" lon="3.1967">
        <ele>49</ele>
        <time>2026-02-22T09:20:51Z</time>
      </trkpt>
      <trkpt lat="43.19139" lon="3.19665">
        <ele>50</ele>
        <time>2026-02-22T09:20:53Z</time>
      </trkpt>
      <trkpt lat="43.19132" lon="3.19659">
        <ele>50</ele>
        <time>2026-02-22T09:20:55Z</time>
      </trkpt>
      <trkpt lat="43.19126" lon="3.19653">
        <ele>50</ele>
        <time>2026-02-22T09:20:57Z</time>
      </trkpt>
      <trkpt lat="43.19119" lon="3.19647">
        <ele>51</ele>
        <time>2026-02-22T09:20:59Z</time>
      </trkpt>
      <trkpt lat="43.19112" lon="3.19643">
        <ele>51</ele>
        <time>2026-02-22T09:21:01Z</time>
      </trkpt>
      <trkpt lat="43.19104" lon="3.1964">
        <ele>51</ele>
        <time>2026-02-22T09:21:03Z</time>
      </trkpt>
      <trkpt lat="43.19096" lon="3.19639">
        <ele>51</ele>
        <time>2026-02-22T09:21:05Z</time>
      </trkpt>
      <trkpt lat="43.19089" lon="3.19639">
        <ele>51</ele>
        <time>2026-02-22T09:21:07Z</time>
      </trkpt>
      <trkpt lat="43.19081" lon="3.19639">
        <ele>51</ele>
        <time>2026-02-22T09:21:09Z</time>
      </trkpt>
      <trkpt lat="43.19073" lon="3.1964">
        <ele>51</ele>
        <time>2026-02-22T09:21:11Z</time>
      </trkpt>
      <trkpt lat="43.19066" lon="3.1964">
        <ele>51</ele>
        <time>2026-02-22T09:21:13Z</time>
      </trkpt>
      <trkpt lat="43.19058" lon="3.19641">
        <ele>50</ele>
        <time>2026-02-22T09:21:15Z</time>
      </trkpt>
      <trkpt lat="43.1905" lon="3.19641">
        <ele>50</ele>
        <time>2026-02-22T09:21:17Z</time>
      </trkpt>
      <trkpt lat="43.19042" lon="3.19641">
        <ele>50</ele>
        <time>2026-02-22T09:21:19Z</time>
      </trkpt>
      <trkpt lat="43.19034" lon="3.19642">
        <ele>50</ele>
        <time>2026-02-22T09:21:21Z</time>
      </trkpt>
      <trkpt lat="43.19026" lon="3.19642">
        <ele>51</ele>
        <time>2026-02-22T09:21:23Z</time>
      </trkpt>
      <trkpt lat="43.19018" lon="3.19643">
        <ele>50</ele>
        <time>2026-02-22T09:21:25Z</time>
      </trkpt>
      <trkpt lat="43.19011" lon="3.19643">
        <ele>50</ele>
        <time>2026-02-22T09:21:27Z</time>
      </trkpt>
      <trkpt lat="43.19004" lon="3.19645">
        <ele>50</ele>
        <time>2026-02-22T09:21:29Z</time>
      </trkpt>
      <trkpt lat="43.18998" lon="3.19647">
        <ele>50</ele>
        <time>2026-02-22T09:21:31Z</time>
      </trkpt>
      <trkpt lat="43.18993" lon="3.1965">
        <ele>50</ele>
        <time>2026-02-22T09:21:33Z</time>
      </trkpt>
      <trkpt lat="43.18987" lon="3.19653">
        <ele>49</ele>
        <time>2026-02-22T09:21:35Z</time>
      </trkpt>
      <trkpt lat="43.18982" lon="3.19656">
        <ele>49</ele>
        <time>2026-02-22T09:21:37Z</time>
      </trkpt>
      <trkpt lat="43.18977" lon="3.19657">
        <ele>49</ele>
        <time>2026-02-22T09:21:39Z</time>
      </trkpt>
      <trkpt lat="43.18971" lon="3.19657">
        <ele>49</ele>
        <time>2026-02-22T09:21:41Z</time>
      </trkpt>
      <trkpt lat="43.18965" lon="3.19655">
        <ele>49</ele>
        <time>2026-02-22T09:21:43Z</time>
      </trkpt>
      <trkpt lat="43.1896" lon="3.19653">
        <ele>49</ele>
        <time>2026-02-22T09:21:45Z</time>
      </trkpt>
      <trkpt lat="43.18955" lon="3.19649">
        <ele>49</ele>
        <time>2026-02-22T09:21:47Z</time>
      </trkpt>
      <trkpt lat="43.18951" lon="3.19644">
        <ele>49</ele>
        <time>2026-02-22T09:21:49Z</time>
      </trkpt>
      <trkpt lat="43.18946" lon="3.19639">
        <ele>49</ele>
        <time>2026-02-22T09:21:51Z</time>
      </trkpt>
      <trkpt lat="43.18941" lon="3.19634">
        <ele>49</ele>
        <time>2026-02-22T09:21:53Z</time>
      </trkpt>
      <trkpt lat="43.18936" lon="3.1963">
        <ele>51</ele>
        <time>2026-02-22T09:21:55Z</time>
      </trkpt>
      <trkpt lat="43.18931" lon="3.19627">
        <ele>51</ele>
        <time>2026-02-22T09:21:57Z</time>
      </trkpt>
      <trkpt lat="43.18925" lon="3.19626">
        <ele>51</ele>
        <time>2026-02-22T09:21:59Z</time>
      </trkpt>
      <trkpt lat="43.18918" lon="3.19628">
        <ele>51</ele>
        <time>2026-02-22T09:22:01Z</time>
      </trkpt>
      <trkpt lat="43.18912" lon="3.19631">
        <ele>51</ele>
        <time>2026-02-22T09:22:03Z</time>
      </trkpt>
      <trkpt lat="43.18905" lon="3.19636">
        <ele>50</ele>
        <time>2026-02-22T09:22:05Z</time>
      </trkpt>
      <trkpt lat="43.18899" lon="3.1964">
        <ele>50</ele>
        <time>2026-02-22T09:22:07Z</time>
      </trkpt>
      <trkpt lat="43.18893" lon="3.19643">
        <ele>50</ele>
        <time>2026-02-22T09:22:09Z</time>
      </trkpt>
      <trkpt lat="43.18887" lon="3.19646">
        <ele>50</ele>
        <time>2026-02-22T09:22:11Z</time>
      </trkpt>
      <trkpt lat="43.18881" lon="3.19649">
        <ele>50</ele>
        <time>2026-02-22T09:22:13Z</time>
      </trkpt>
      <trkpt lat="43.18876" lon="3.19651">
        <ele>50</ele>
        <time>2026-02-22T09:22:15Z</time>
      </trkpt>
      <trkpt lat="43.18873" lon="3.19652">
        <ele>50</ele>
        <time>2026-02-22T09:22:17Z</time>
      </trkpt>
      <trkpt lat="43.18871" lon="3.19653">
        <ele>51</ele>
        <time>2026-02-22T09:22:19Z</time>
      </trkpt>
      <trkpt lat="43.1887" lon="3.19653">
        <ele>51</ele>
        <time>2026-02-22T09:22:21Z</time>
      </trkpt>
      <trkpt lat="43.18868" lon="3.19653">
        <ele>51</ele>
        <time>2026-02-22T09:22:23Z</time>
      </trkpt>
      <trkpt lat="43.18866" lon="3.19654">
        <ele>52</ele>
        <time>2026-02-22T09:22:25Z</time>
      </trkpt>
      <trkpt lat="43.18865" lon="3.19655">
        <ele>52</ele>
        <time>2026-02-22T09:22:27Z</time>
      </trkpt>
      <trkpt lat="43.18865" lon="3.19655">
        <ele>52</ele>
        <time>2026-02-22T09:22:29Z</time>
      </trkpt>
      <trkpt lat="43.18864" lon="3.19656">
        <ele>52</ele>
        <time>2026-02-22T09:22:31Z</time>
      </trkpt>
      <trkpt lat="43.18863" lon="3.19656">
        <ele>53</ele>
        <time>2026-02-22T09:22:33Z</time>
      </trkpt>
      <trkpt lat="43.18861" lon="3.19657">
        <ele>53</ele>
        <time>2026-02-22T09:22:35Z</time>
      </trkpt>
      <trkpt lat="43.18859" lon="3.19658">
        <ele>54</ele>
        <time>2026-02-22T09:22:37Z</time>
      </trkpt>
      <trkpt lat="43.18857" lon="3.19659">
        <ele>54</ele>
        <time>2026-02-22T09:22:39Z</time>
      </trkpt>
      <trkpt lat="43.18855" lon="3.1966">
        <ele>54</ele>
        <time>2026-02-22T09:22:41Z</time>
      </trkpt>
      <trkpt lat="43.18853" lon="3.1966">
        <ele>54</ele>
        <time>2026-02-22T09:22:43Z</time>
      </trkpt>
      <trkpt lat="43.18851" lon="3.19661">
        <ele>55</ele>
        <time>2026-02-22T09:22:45Z</time>
      </trkpt>
      <trkpt lat="43.18849" lon="3.19661">
        <ele>55</ele>
        <time>2026-02-22T09:22:47Z</time>
      </trkpt>
      <trkpt lat="43.18847" lon="3.19662">
        <ele>55</ele>
        <time>2026-02-22T09:22:49Z</time>
      </trkpt>
      <trkpt lat="43.18845" lon="3.19662">
        <ele>56</ele>
        <time>2026-02-22T09:22:51Z</time>
      </trkpt>
      <trkpt lat="43.18843" lon="3.19663">
        <ele>56</ele>
        <time>2026-02-22T09:22:53Z</time>
      </trkpt>
      <trkpt lat="43.18841" lon="3.19663">
        <ele>57</ele>
        <time>2026-02-22T09:22:55Z</time>
      </trkpt>
      <trkpt lat="43.18839" lon="3.19662">
        <ele>57</ele>
        <time>2026-02-22T09:22:57Z</time>
      </trkpt>
      <trkpt lat="43.18838" lon="3.19662">
        <ele>57</ele>
        <time>2026-02-22T09:22:59Z</time>
      </trkpt>
      <trkpt lat="43.18836" lon="3.19661">
        <ele>58</ele>
        <time>2026-02-22T09:23:01Z</time>
      </trkpt>
      <trkpt lat="43.18835" lon="3.1966">
        <ele>58</ele>
        <time>2026-02-22T09:23:03Z</time>
      </trkpt>
      <trkpt lat="43.18833" lon="3.19659">
        <ele>58</ele>
        <time>2026-02-22T09:23:05Z</time>
      </trkpt>
      <trkpt lat="43.18832" lon="3.19659">
        <ele>59</ele>
        <time>2026-02-22T09:23:07Z</time>
      </trkpt>
      <trkpt lat="43.18831" lon="3.19661">
        <ele>59</ele>
        <time>2026-02-22T09:23:09Z</time>
      </trkpt>
      <trkpt lat="43.18829" lon="3.19664">
        <ele>59</ele>
        <time>2026-02-22T09:23:11Z</time>
      </trkpt>
      <trkpt lat="43.18828" lon="3.19666">
        <ele>59</ele>
        <time>2026-02-22T09:23:13Z</time>
      </trkpt>
      <trkpt lat="43.18827" lon="3.19668">
        <ele>59</ele>
        <time>2026-02-22T09:23:15Z</time>
      </trkpt>
      <trkpt lat="43.18826" lon="3.1967">
        <ele>59</ele>
        <time>2026-02-22T09:23:17Z</time>
      </trkpt>
      <trkpt lat="43.18824" lon="3.19672">
        <ele>59</ele>
        <time>2026-02-22T09:23:19Z</time>
      </trkpt>
      <trkpt lat="43.18822" lon="3.19674">
        <ele>59</ele>
        <time>2026-02-22T09:23:21Z</time>
      </trkpt>
      <trkpt lat="43.18821" lon="3.19676">
        <ele>59</ele>
        <time>2026-02-22T09:23:23Z</time>
      </trkpt>
      <trkpt lat="43.18818" lon="3.19677">
        <ele>59</ele>
        <time>2026-02-22T09:23:25Z</time>
      </trkpt>
      <trkpt lat="43.18817" lon="3.19679">
        <ele>59</ele>
        <time>2026-02-22T09:23:27Z</time>
      </trkpt>
      <trkpt lat="43.18817" lon="3.19679">
        <ele>59</ele>
        <time>2026-02-22T09:23:29Z</time>
      </trkpt>
      <trkpt lat="43.18816" lon="3.1968">
        <ele>59</ele>
        <time>2026-02-22T09:23:31Z</time>
      </trkpt>
      <trkpt lat="43.18815" lon="3.1968">
        <ele>58</ele>
        <time>2026-02-22T09:23:33Z</time>
      </trkpt>
      <trkpt lat="43.18814" lon="3.19681">
        <ele>58</ele>
        <time>2026-02-22T09:23:35Z</time>
      </trkpt>
      <trkpt lat="43.18814" lon="3.19681">
        <ele>59</ele>
        <time>2026-02-22T09:23:37Z</time>
      </trkpt>
      <trkpt lat="43.18814" lon="3.19681">
        <ele>59</ele>
        <time>2026-02-22T09:23:39Z</time>
      </trkpt>
      <trkpt lat="43.18814" lon="3.19681">
        <ele>59</ele>
        <time>2026-02-22T09:23:41Z</time>
      </trkpt>
      <trkpt lat="43.18814" lon="3.19681">
        <ele>59</ele>
        <time>2026-02-22T09:23:43Z</time>
      </trkpt>
      <trkpt lat="43.18814" lon="3.19681">
        <ele>59</ele>
        <time>2026-02-22T09:23:45Z</time>
      </trkpt>
      <trkpt lat="43.18814" lon="3.19681">
        <ele>59</ele>
        <time>2026-02-22T09:23:47Z</time>
      </trkpt>
      <trkpt lat="43.18814" lon="3.19681">
        <ele>59</ele>
        <time>2026-02-22T09:23:49Z</time>
      </trkpt>
      <trkpt lat="43.18814" lon="3.19681">
        <ele>59</ele>
        <time>2026-02-22T09:23:51Z</time>
      </trkpt>
      <trkpt lat="43.18814" lon="3.19681">
        <ele>59</ele>
        <time>2026-02-22T09:23:53Z</time>
      </trkpt>
      <trkpt lat="43.18805" lon="3.19693">
        <ele>68</ele>
        <time>2026-02-22T09:34:09Z</time>
      </trkpt>
      <trkpt lat="43.18806" lon="3.19686">
        <ele>61</ele>
        <time>2026-02-22T09:34:11Z</time>
      </trkpt>
      <trkpt lat="43.18808" lon="3.19686">
        <ele>60</ele>
        <time>2026-02-22T09:34:13Z</time>
      </trkpt>
      <trkpt lat="43.1881" lon="3.19685">
        <ele>59</ele>
        <time>2026-02-22T09:34:15Z</time>
      </trkpt>
      <trkpt lat="43.1881" lon="3.19684">
        <ele>59</ele>
        <time>2026-02-22T09:34:17Z</time>
      </trkpt>
      <trkpt lat="43.1881" lon="3.19683">
        <ele>59</ele>
        <time>2026-02-22T09:34:19Z</time>
      </trkpt>
      <trkpt lat="43.1881" lon="3.19683">
        <ele>58</ele>
        <time>2026-02-22T09:34:21Z</time>
      </trkpt>
      <trkpt lat="43.1881" lon="3.19682">
        <ele>58</ele>
        <time>2026-02-22T09:34:23Z</time>
      </trkpt>
      <trkpt lat="43.18809" lon="3.19682">
        <ele>58</ele>
        <time>2026-02-22T09:34:25Z</time>
      </trkpt>
      <trkpt lat="43.18807" lon="3.19684">
        <ele>58</ele>
        <time>2026-02-22T09:34:27Z</time>
      </trkpt>
      <trkpt lat="43.18805" lon="3.19687">
        <ele>58</ele>
        <time>2026-02-22T09:34:29Z</time>
      </trkpt>
      <trkpt lat="43.18804" lon="3.1969">
        <ele>58</ele>
        <time>2026-02-22T09:34:31Z</time>
      </trkpt>
      <trkpt lat="43.18802" lon="3.19694">
        <ele>58</ele>
        <time>2026-02-22T09:34:33Z</time>
      </trkpt>
      <trkpt lat="43.18798" lon="3.19695">
        <ele>59</ele>
        <time>2026-02-22T09:34:35Z</time>
      </trkpt>
      <trkpt lat="43.18793" lon="3.19696">
        <ele>59</ele>
        <time>2026-02-22T09:34:37Z</time>
      </trkpt>
      <trkpt lat="43.18788" lon="3.19699">
        <ele>59</ele>
        <time>2026-02-22T09:34:39Z</time>
      </trkpt>
      <trkpt lat="43.18782" lon="3.19702">
        <ele>58</ele>
        <time>2026-02-22T09:34:41Z</time>
      </trkpt>
      <trkpt lat="43.18774" lon="3.19708">
        <ele>58</ele>
        <time>2026-02-22T09:34:43Z</time>
      </trkpt>
      <trkpt lat="43.18765" lon="3.19717">
        <ele>57</ele>
        <time>2026-02-22T09:34:45Z</time>
      </trkpt>
      <trkpt lat="43.18754" lon="3.19728">
        <ele>55</ele>
        <time>2026-02-22T09:34:47Z</time>
      </trkpt>
      <trkpt lat="43.18742" lon="3.19742">
        <ele>54</ele>
        <time>2026-02-22T09:34:49Z</time>
      </trkpt>
      <trkpt lat="43.1873" lon="3.1976">
        <ele>52</ele>
        <time>2026-02-22T09:34:51Z</time>
      </trkpt>
      <trkpt lat="43.18718" lon="3.19777">
        <ele>51</ele>
        <time>2026-02-22T09:34:53Z</time>
      </trkpt>
      <trkpt lat="43.18704" lon="3.1979">
        <ele>50</ele>
        <time>2026-02-22T09:34:55Z</time>
      </trkpt>
      <trkpt lat="43.18689" lon="3.19797">
        <ele>50</ele>
        <time>2026-02-22T09:34:57Z</time>
      </trkpt>
      <trkpt lat="43.18675" lon="3.19797">
        <ele>50</ele>
        <time>2026-02-22T09:34:59Z</time>
      </trkpt>
      <trkpt lat="43.18661" lon="3.1979">
        <ele>49</ele>
        <time>2026-02-22T09:35:01Z</time>
      </trkpt>
      <trkpt lat="43.1865" lon="3.1978">
        <ele>49</ele>
        <time>2026-02-22T09:35:03Z</time>
      </trkpt>
      <trkpt lat="43.18641" lon="3.1977">
        <ele>49</ele>
        <time>2026-02-22T09:35:05Z</time>
      </trkpt>
      <trkpt lat="43.18632" lon="3.19761">
        <ele>49</ele>
        <time>2026-02-22T09:35:07Z</time>
      </trkpt>
      <trkpt lat="43.18623" lon="3.19752">
        <ele>49</ele>
        <time>2026-02-22T09:35:09Z</time>
      </trkpt>
      <trkpt lat="43.18615" lon="3.19744">
        <ele>50</ele>
        <time>2026-02-22T09:35:11Z</time>
      </trkpt>
      <trkpt lat="43.18607" lon="3.19735">
        <ele>50</ele>
        <time>2026-02-22T09:35:13Z</time>
      </trkpt>
      <trkpt lat="43.18599" lon="3.19726">
        <ele>50</ele>
        <time>2026-02-22T09:35:15Z</time>
      </trkpt>
      <trkpt lat="43.18592" lon="3.19718">
        <ele>51</ele>
        <time>2026-02-22T09:35:17Z</time>
      </trkpt>
      <trkpt lat="43.18585" lon="3.1971">
        <ele>51</ele>
        <time>2026-02-22T09:35:19Z</time>
      </trkpt>
      <trkpt lat="43.18578" lon="3.19702">
        <ele>51</ele>
        <time>2026-02-22T09:35:21Z</time>
      </trkpt>
      <trkpt lat="43.18571" lon="3.19695">
        <ele>52</ele>
        <time>2026-02-22T09:35:23Z</time>
      </trkpt>
      <trkpt lat="43.18564" lon="3.19688">
        <ele>52</ele>
        <time>2026-02-22T09:35:25Z</time>
      </trkpt>
      <trkpt lat="43.18556" lon="3.19681">
        <ele>52</ele>
        <time>2026-02-22T09:35:27Z</time>
      </trkpt>
      <trkpt lat="43.18549" lon="3.19674">
        <ele>52</ele>
        <time>2026-02-22T09:35:29Z</time>
      </trkpt>
      <trkpt lat="43.18542" lon="3.19667">
        <ele>52</ele>
        <time>2026-02-22T09:35:31Z</time>
      </trkpt>
      <trkpt lat="43.18536" lon="3.1966">
        <ele>53</ele>
        <time>2026-02-22T09:35:33Z</time>
      </trkpt>
      <trkpt lat="43.18529" lon="3.19653">
        <ele>53</ele>
        <time>2026-02-22T09:35:35Z</time>
      </trkpt>
      <trkpt lat="43.18523" lon="3.19646">
        <ele>53</ele>
        <time>2026-02-22T09:35:37Z</time>
      </trkpt>
      <trkpt lat="43.18516" lon="3.19638">
        <ele>53</ele>
        <time>2026-02-22T09:35:39Z</time>
      </trkpt>
      <trkpt lat="43.18509" lon="3.19631">
        <ele>53</ele>
        <time>2026-02-22T09:35:41Z</time>
      </trkpt>
      <trkpt lat="43.18503" lon="3.19625">
        <ele>53</ele>
        <time>2026-02-22T09:35:43Z</time>
      </trkpt>
      <trkpt lat="43.18495" lon="3.19621">
        <ele>53</ele>
        <time>2026-02-22T09:35:45Z</time>
      </trkpt>
      <trkpt lat="43.18487" lon="3.1962">
        <ele>53</ele>
        <time>2026-02-22T09:35:47Z</time>
      </trkpt>
      <trkpt lat="43.18479" lon="3.1962">
        <ele>53</ele>
        <time>2026-02-22T09:35:49Z</time>
      </trkpt>
      <trkpt lat="43.1847" lon="3.1962">
        <ele>52</ele>
        <time>2026-02-22T09:35:51Z</time>
      </trkpt>
      <trkpt lat="43.18462" lon="3.19619">
        <ele>52</ele>
        <time>2026-02-22T09:35:53Z</time>
      </trkpt>
      <trkpt lat="43.18454" lon="3.19619">
        <ele>51</ele>
        <time>2026-02-22T09:35:55Z</time>
      </trkpt>
      <trkpt lat="43.18445" lon="3.19619">
        <ele>51</ele>
        <time>2026-02-22T09:35:57Z</time>
      </trkpt>
      <trkpt lat="43.18438" lon="3.19617">
        <ele>50</ele>
        <time>2026-02-22T09:35:59Z</time>
      </trkpt>
      <trkpt lat="43.1843" lon="3.19613">
        <ele>49</ele>
        <time>2026-02-22T09:36:01Z</time>
      </trkpt>
      <trkpt lat="43.18423" lon="3.19606">
        <ele>49</ele>
        <time>2026-02-22T09:36:03Z</time>
      </trkpt>
      <trkpt lat="43.18417" lon="3.19599">
        <ele>49</ele>
        <time>2026-02-22T09:36:05Z</time>
      </trkpt>
      <trkpt lat="43.18411" lon="3.19593">
        <ele>49</ele>
        <time>2026-02-22T09:36:07Z</time>
      </trkpt>
      <trkpt lat="43.18405" lon="3.19586">
        <ele>50</ele>
        <time>2026-02-22T09:36:09Z</time>
      </trkpt>
      <trkpt lat="43.18398" lon="3.1958">
        <ele>50</ele>
        <time>2026-02-22T09:36:11Z</time>
      </trkpt>
      <trkpt lat="43.18392" lon="3.19573">
        <ele>50</ele>
        <time>2026-02-22T09:36:13Z</time>
      </trkpt>
      <trkpt lat="43.18385" lon="3.19566">
        <ele>51</ele>
        <time>2026-02-22T09:36:15Z</time>
      </trkpt>
      <trkpt lat="43.1838" lon="3.1956">
        <ele>51</ele>
        <time>2026-02-22T09:36:17Z</time>
      </trkpt>
      <trkpt lat="43.18373" lon="3.19553">
        <ele>52</ele>
        <time>2026-02-22T09:36:19Z</time>
      </trkpt>
      <trkpt lat="43.18367" lon="3.19547">
        <ele>52</ele>
        <time>2026-02-22T09:36:21Z</time>
      </trkpt>
      <trkpt lat="43.1836" lon="3.1954">
        <ele>52</ele>
        <time>2026-02-22T09:36:23Z</time>
      </trkpt>
      <trkpt lat="43.18354" lon="3.19532">
        <ele>52</ele>
        <time>2026-02-22T09:36:25Z</time>
      </trkpt>
      <trkpt lat="43.18347" lon="3.19526">
        <ele>52</ele>
        <time>2026-02-22T09:36:27Z</time>
      </trkpt>
      <trkpt lat="43.18341" lon="3.1952">
        <ele>52</ele>
        <time>2026-02-22T09:36:29Z</time>
      </trkpt>
      <trkpt lat="43.18335" lon="3.19514">
        <ele>52</ele>
        <time>2026-02-22T09:36:31Z</time>
      </trkpt>
      <trkpt lat="43.18329" lon="3.19508">
        <ele>51</ele>
        <time>2026-02-22T09:36:33Z</time>
      </trkpt>
      <trkpt lat="43.18323" lon="3.19502">
        <ele>51</ele>
        <time>2026-02-22T09:36:35Z</time>
      </trkpt>
      <trkpt lat="43.18318" lon="3.19499">
        <ele>51</ele>
        <time>2026-02-22T09:36:37Z</time>
      </trkpt>
      <trkpt lat="43.18312" lon="3.19499">
        <ele>52</ele>
        <time>2026-02-22T09:36:39Z</time>
      </trkpt>
      <trkpt lat="43.18307" lon="3.19504">
        <ele>51</ele>
        <time>2026-02-22T09:36:41Z</time>
      </trkpt>
      <trkpt lat="43.18304" lon="3.19509">
        <ele>50</ele>
        <time>2026-02-22T09:36:43Z</time>
      </trkpt>
      <trkpt lat="43.18302" lon="3.19513">
        <ele>50</ele>
        <time>2026-02-22T09:36:45Z</time>
      </trkpt>
      <trkpt lat="43.183" lon="3.19511">
        <ele>50</ele>
        <time>2026-02-22T09:36:47Z</time>
      </trkpt>
      <trkpt lat="43.18302" lon="3.19507">
        <ele>49</ele>
        <time>2026-02-22T09:36:49Z</time>
      </trkpt>
      <trkpt lat="43.18305" lon="3.19504">
        <ele>49</ele>
        <time>2026-02-22T09:36:51Z</time>
      </trkpt>
      <trkpt lat="43.18304" lon="3.195">
        <ele>49</ele>
        <time>2026-02-22T09:36:53Z</time>
      </trkpt>
      <trkpt lat="43.183" lon="3.19497">
        <ele>49</ele>
        <time>2026-02-22T09:36:55Z</time>
      </trkpt>
      <trkpt lat="43.18295" lon="3.19499">
        <ele>49</ele>
        <time>2026-02-22T09:36:57Z</time>
      </trkpt>
      <trkpt lat="43.18294" lon="3.19506">
        <ele>49</ele>
        <time>2026-02-22T09:36:59Z</time>
      </trkpt>
      <trkpt lat="43.18292" lon="3.19513">
        <ele>49</ele>
        <time>2026-02-22T09:37:01Z</time>
      </trkpt>
      <trkpt lat="43.18288" lon="3.19519">
        <ele>49</ele>
        <time>2026-02-22T09:37:03Z</time>
      </trkpt>
      <trkpt lat="43.18283" lon="3.19524">
        <ele>49</ele>
        <time>2026-02-22T09:37:05Z</time>
      </trkpt>
      <trkpt lat="43.18278" lon="3.19531">
        <ele>49</ele>
        <time>2026-02-22T09:37:07Z</time>
      </trkpt>
      <trkpt lat="43.18274" lon="3.19537">
        <ele>48</ele>
        <time>2026-02-22T09:37:09Z</time>
      </trkpt>
      <trkpt lat="43.18269" lon="3.19545">
        <ele>48</ele>
        <time>2026-02-22T09:37:11Z</time>
      </trkpt>
      <trkpt lat="43.18264" lon="3.19552">
        <ele>48</ele>
        <time>2026-02-22T09:37:13Z</time>
      </trkpt>
      <trkpt lat="43.18259" lon="3.19559">
        <ele>48</ele>
        <time>2026-02-22T09:37:15Z</time>
      </trkpt>
      <trkpt lat="43.18254" lon="3.19567">
        <ele>48</ele>
        <time>2026-02-22T09:37:17Z</time>
      </trkpt>
      <trkpt lat="43.18249" lon="3.19575">
        <ele>48</ele>
        <time>2026-02-22T09:37:19Z</time>
      </trkpt>
      <trkpt lat="43.18244" lon="3.19582">
        <ele>48</ele>
        <time>2026-02-22T09:37:21Z</time>
      </trkpt>
      <trkpt lat="43.1824" lon="3.1959">
        <ele>47</ele>
        <time>2026-02-22T09:37:23Z</time>
      </trkpt>
      <trkpt lat="43.18235" lon="3.19596">
        <ele>48</ele>
        <time>2026-02-22T09:37:25Z</time>
      </trkpt>
      <trkpt lat="43.1823" lon="3.19603">
        <ele>48</ele>
        <time>2026-02-22T09:37:27Z</time>
      </trkpt>
      <trkpt lat="43.18227" lon="3.19608">
        <ele>48</ele>
        <time>2026-02-22T09:37:29Z</time>
      </trkpt>
      <trkpt lat="43.18224" lon="3.19611">
        <ele>49</ele>
        <time>2026-02-22T09:37:31Z</time>
      </trkpt>
      <trkpt lat="43.18225" lon="3.19614">
        <ele>49</ele>
        <time>2026-02-22T09:37:33Z</time>
      </trkpt>
      <trkpt lat="43.18227" lon="3.19611">
        <ele>49</ele>
        <time>2026-02-22T09:37:35Z</time>
      </trkpt>
      <trkpt lat="43.18225" lon="3.19606">
        <ele>50</ele>
        <time>2026-02-22T09:37:37Z</time>
      </trkpt>
      <trkpt lat="43.18222" lon="3.19603">
        <ele>50</ele>
        <time>2026-02-22T09:37:39Z</time>
      </trkpt>
      <trkpt lat="43.18217" lon="3.19598">
        <ele>51</ele>
        <time>2026-02-22T09:37:41Z</time>
      </trkpt>
      <trkpt lat="43.18213" lon="3.19593">
        <ele>50</ele>
        <time>2026-02-22T09:37:43Z</time>
      </trkpt>
      <trkpt lat="43.18209" lon="3.19588">
        <ele>50</ele>
        <time>2026-02-22T09:37:45Z</time>
      </trkpt>
      <trkpt lat="43.18204" lon="3.19582">
        <ele>50</ele>
        <time>2026-02-22T09:37:47Z</time>
      </trkpt>
      <trkpt lat="43.182" lon="3.19577">
        <ele>50</ele>
        <time>2026-02-22T09:37:49Z</time>
      </trkpt>
      <trkpt lat="43.18196" lon="3.19573">
        <ele>49</ele>
        <time>2026-02-22T09:37:51Z</time>
      </trkpt>
      <trkpt lat="43.18192" lon="3.19568">
        <ele>49</ele>
        <time>2026-02-22T09:37:53Z</time>
      </trkpt>
      <trkpt lat="43.18189" lon="3.19564">
        <ele>49</ele>
        <time>2026-02-22T09:37:55Z</time>
      </trkpt>
      <trkpt lat="43.18186" lon="3.19562">
        <ele>49</ele>
        <time>2026-02-22T09:37:57Z</time>
      </trkpt>
      <trkpt lat="43.18185" lon="3.19561">
        <ele>49</ele>
        <time>2026-02-22T09:37:59Z</time>
      </trkpt>
      <trkpt lat="43.18184" lon="3.1956">
        <ele>49</ele>
        <time>2026-02-22T09:38:01Z</time>
      </trkpt>
      <trkpt lat="43.18184" lon="3.1956">
        <ele>49</ele>
        <time>2026-02-22T09:38:03Z</time>
      </trkpt>
      <trkpt lat="43.18184" lon="3.1956">
        <ele>49</ele>
        <time>2026-02-22T09:38:05Z</time>
      </trkpt>
      <trkpt lat="43.18184" lon="3.1956">
        <ele>49</ele>
        <time>2026-02-22T09:38:07Z</time>
      </trkpt>
      <trkpt lat="43.18184" lon="3.1956">
        <ele>49</ele>
        <time>2026-02-22T09:38:09Z</time>
      </trkpt>
      <trkpt lat="43.18184" lon="3.1956">
        <ele>49</ele>
        <time>2026-02-22T09:38:11Z</time>
      </trkpt>
      <trkpt lat="43.18184" lon="3.1956">
        <ele>49</ele>
        <time>2026-02-22T09:38:13Z</time>
      </trkpt>
      <trkpt lat="43.18184" lon="3.1956">
        <ele>49</ele>
        <time>2026-02-22T09:38:15Z</time>
      </trkpt>
      <trkpt lat="43.18184" lon="3.1956">
        <ele>49</ele>
        <time>2026-02-22T09:38:17Z</time>
      </trkpt>
      <trkpt lat="43.18184" lon="3.1956">
        <ele>49</ele>
        <time>2026-02-22T09:38:19Z</time>
      </trkpt>
      <trkpt lat="43.18184" lon="3.1956">
        <ele>49</ele>
        <time>2026-02-22T09:38:21Z</time>
      </trkpt>
      <trkpt lat="43.18184" lon="3.1956">
        <ele>49</ele>
        <time>2026-02-22T09:38:23Z</time>
      </trkpt>
      <trkpt lat="43.18184" lon="3.1956">
        <ele>49</ele>
        <time>2026-02-22T09:38:25Z</time>
      </trkpt>
      <trkpt lat="43.18184" lon="3.1956">
        <ele>49</ele>
        <time>2026-02-22T09:38:27Z</time>
      </trkpt>
      <trkpt lat="43.18184" lon="3.1956">
        <ele>49</ele>
        <time>2026-02-22T09:38:29Z</time>
      </trkpt>
      <trkpt lat="43.18184" lon="3.1956">
        <ele>49</ele>
        <time>2026-02-22T09:38:31Z</time>
      </trkpt>
      <trkpt lat="43.18184" lon="3.1956">
        <ele>49</ele>
        <time>2026-02-22T09:38:33Z</time>
      </trkpt>
      <trkpt lat="43.18184" lon="3.1956">
        <ele>49</ele>
        <time>2026-02-22T09:38:35Z</time>
      </trkpt>
      <trkpt lat="43.18184" lon="3.1956">
        <ele>49</ele>
        <time>2026-02-22T09:38:37Z</time>
      </trkpt>
      <trkpt lat="43.18184" lon="3.1956">
        <ele>49</ele>
        <time>2026-02-22T09:38:39Z</time>
      </trkpt>
      <trkpt lat="43.18184" lon="3.1956">
        <ele>49</ele>
        <time>2026-02-22T09:38:41Z</time>
      </trkpt>
      <trkpt lat="43.18184" lon="3.1956">
        <ele>49</ele>
        <time>2026-02-22T09:38:43Z</time>
      </trkpt>
      <trkpt lat="43.18184" lon="3.1956">
        <ele>49</ele>
        <time>2026-02-22T09:38:45Z</time>
      </trkpt>
      <trkpt lat="43.18184" lon="3.1956">
        <ele>49</ele>
        <time>2026-02-22T09:38:47Z</time>
      </trkpt>
      <trkpt lat="43.18184" lon="3.1956">
        <ele>49</ele>
        <time>2026-02-22T09:38:49Z</time>
      </trkpt>
      <trkpt lat="43.18184" lon="3.1956">
        <ele>49</ele>
        <time>2026-02-22T09:38:51Z</time>
      </trkpt>
      <trkpt lat="43.18184" lon="3.1956">
        <ele>49</ele>
        <time>2026-02-22T09:38:53Z</time>
      </trkpt>
      <trkpt lat="43.18184" lon="3.1956">
        <ele>49</ele>
        <time>2026-02-22T09:38:55Z</time>
      </trkpt>
      <trkpt lat="43.18184" lon="3.1956">
        <ele>49</ele>
        <time>2026-02-22T09:38:57Z</time>
      </trkpt>
      <trkpt lat="43.18184" lon="3.1956">
        <ele>49</ele>
        <time>2026-02-22T09:38:59Z</time>
      </trkpt>
      <trkpt lat="43.18184" lon="3.1956">
        <ele>49</ele>
        <time>2026-02-22T09:39:01Z</time>
      </trkpt>
      <trkpt lat="43.18184" lon="3.1956">
        <ele>49</ele>
        <time>2026-02-22T09:39:03Z</time>
      </trkpt>
      <trkpt lat="43.18184" lon="3.1956">
        <ele>49</ele>
        <time>2026-02-22T09:39:05Z</time>
      </trkpt>
      <trkpt lat="43.18184" lon="3.1956">
        <ele>49</ele>
        <time>2026-02-22T09:39:07Z</time>
      </trkpt>
      <trkpt lat="43.18184" lon="3.1956">
        <ele>49</ele>
        <time>2026-02-22T09:39:09Z</time>
      </trkpt>
      <trkpt lat="43.18184" lon="3.1956">
        <ele>49</ele>
        <time>2026-02-22T09:39:11Z</time>
      </trkpt>
      <trkpt lat="43.18149" lon="3.19519">
        <ele>50</ele>
        <time>2026-02-22T09:40:07Z</time>
      </trkpt>
      <trkpt lat="43.18144" lon="3.19514">
        <ele>50</ele>
        <time>2026-02-22T09:40:09Z</time>
      </trkpt>
      <trkpt lat="43.18139" lon="3.19507">
        <ele>50</ele>
        <time>2026-02-22T09:40:11Z</time>
      </trkpt>
      <trkpt lat="43.18134" lon="3.19501">
        <ele>50</ele>
        <time>2026-02-22T09:40:13Z</time>
      </trkpt>
      <trkpt lat="43.18129" lon="3.19493">
        <ele>49</ele>
        <time>2026-02-22T09:40:15Z</time>
      </trkpt>
      <trkpt lat="43.18124" lon="3.19486">
        <ele>50</ele>
        <time>2026-02-22T09:40:17Z</time>
      </trkpt>
      <trkpt lat="43.18119" lon="3.19479">
        <ele>50</ele>
        <time>2026-02-22T09:40:19Z</time>
      </trkpt>
      <trkpt lat="43.18113" lon="3.19471">
        <ele>50</ele>
        <time>2026-02-22T09:40:21Z</time>
      </trkpt>
      <trkpt lat="43.18108" lon="3.19464">
        <ele>50</ele>
        <time>2026-02-22T09:40:23Z</time>
      </trkpt>
      <trkpt lat="43.18102" lon="3.19456">
        <ele>50</ele>
        <time>2026-02-22T09:40:25Z</time>
      </trkpt>
      <trkpt lat="43.18096" lon="3.19449">
        <ele>49</ele>
        <time>2026-02-22T09:40:27Z</time>
      </trkpt>
      <trkpt lat="43.1809" lon="3.19441">
        <ele>49</ele>
        <time>2026-02-22T09:40:29Z</time>
      </trkpt>
      <trkpt lat="43.18084" lon="3.19435">
        <ele>49</ele>
        <time>2026-02-22T09:40:31Z</time>
      </trkpt>
      <trkpt lat="43.18078" lon="3.19429">
        <ele>49</ele>
        <time>2026-02-22T09:40:33Z</time>
      </trkpt>
      <trkpt lat="43.18072" lon="3.19423">
        <ele>49</ele>
        <time>2026-02-22T09:40:35Z</time>
      </trkpt>
      <trkpt lat="43.18066" lon="3.19416">
        <ele>49</ele>
        <time>2026-02-22T09:40:37Z</time>
      </trkpt>
      <trkpt lat="43.1806" lon="3.19409">
        <ele>49</ele>
        <time>2026-02-22T09:40:39Z</time>
      </trkpt>
      <trkpt lat="43.18055" lon="3.19401">
        <ele>49</ele>
        <time>2026-02-22T09:40:41Z</time>
      </trkpt>
      <trkpt lat="43.18049" lon="3.19394">
        <ele>49</ele>
        <time>2026-02-22T09:40:43Z</time>
      </trkpt>
      <trkpt lat="43.18043" lon="3.19387">
        <ele>49</ele>
        <time>2026-02-22T09:40:45Z</time>
      </trkpt>
      <trkpt lat="43.18036" lon="3.19381">
        <ele>50</ele>
        <time>2026-02-22T09:40:47Z</time>
      </trkpt>
      <trkpt lat="43.18029" lon="3.19375">
        <ele>49</ele>
        <time>2026-02-22T09:40:49Z</time>
      </trkpt>
      <trkpt lat="43.18023" lon="3.19368">
        <ele>49</ele>
        <time>2026-02-22T09:40:51Z</time>
      </trkpt>
      <trkpt lat="43.18017" lon="3.1936">
        <ele>50</ele>
        <time>2026-02-22T09:40:53Z</time>
      </trkpt>
      <trkpt lat="43.18011" lon="3.19353">
        <ele>50</ele>
        <time>2026-02-22T09:40:55Z</time>
      </trkpt>
      <trkpt lat="43.18005" lon="3.19346">
        <ele>50</ele>
        <time>2026-02-22T09:40:57Z</time>
      </trkpt>
      <trkpt lat="43.17999" lon="3.1934">
        <ele>49</ele>
        <time>2026-02-22T09:40:59Z</time>
      </trkpt>
      <trkpt lat="43.17993" lon="3.19332">
        <ele>49</ele>
        <time>2026-02-22T09:41:01Z</time>
      </trkpt>
      <trkpt lat="43.17987" lon="3.19324">
        <ele>48</ele>
        <time>2026-02-22T09:41:03Z</time>
      </trkpt>
      <trkpt lat="43.17983" lon="3.19316">
        <ele>48</ele>
        <time>2026-02-22T09:41:05Z</time>
      </trkpt>
      <trkpt lat="43.17978" lon="3.19307">
        <ele>48</ele>
        <time>2026-02-22T09:41:07Z</time>
      </trkpt>
      <trkpt lat="43.17972" lon="3.193">
        <ele>48</ele>
        <time>2026-02-22T09:41:09Z</time>
      </trkpt>
      <trkpt lat="43.17967" lon="3.19292">
        <ele>49</ele>
        <time>2026-02-22T09:41:11Z</time>
      </trkpt>
      <trkpt lat="43.17961" lon="3.19286">
        <ele>49</ele>
        <time>2026-02-22T09:41:13Z</time>
      </trkpt>
      <trkpt lat="43.17955" lon="3.1928">
        <ele>50</ele>
        <time>2026-02-22T09:41:15Z</time>
      </trkpt>
      <trkpt lat="43.17949" lon="3.19274">
        <ele>49</ele>
        <time>2026-02-22T09:41:17Z</time>
      </trkpt>
      <trkpt lat="43.17943" lon="3.19267">
        <ele>50</ele>
        <time>2026-02-22T09:41:19Z</time>
      </trkpt>
      <trkpt lat="43.17938" lon="3.19261">
        <ele>50</ele>
        <time>2026-02-22T09:41:21Z</time>
      </trkpt>
      <trkpt lat="43.17932" lon="3.19254">
        <ele>49</ele>
        <time>2026-02-22T09:41:23Z</time>
      </trkpt>
      <trkpt lat="43.17927" lon="3.19247">
        <ele>48</ele>
        <time>2026-02-22T09:41:25Z</time>
      </trkpt>
      <trkpt lat="43.17922" lon="3.1924">
        <ele>48</ele>
        <time>2026-02-22T09:41:27Z</time>
      </trkpt>
      <trkpt lat="43.17916" lon="3.19233">
        <ele>49</ele>
        <time>2026-02-22T09:41:29Z</time>
      </trkpt>
      <trkpt lat="43.1791" lon="3.19226">
        <ele>49</ele>
        <time>2026-02-22T09:41:31Z</time>
      </trkpt>
      <trkpt lat="43.17905" lon="3.1922">
        <ele>49</ele>
        <time>2026-02-22T09:41:33Z</time>
      </trkpt>
      <trkpt lat="43.17898" lon="3.19215">
        <ele>49</ele>
        <time>2026-02-22T09:41:35Z</time>
      </trkpt>
      <trkpt lat="43.17892" lon="3.1921">
        <ele>50</ele>
        <time>2026-02-22T09:41:37Z</time>
      </trkpt>
      <trkpt lat="43.17887" lon="3.19204">
        <ele>49</ele>
        <time>2026-02-22T09:41:39Z</time>
      </trkpt>
      <trkpt lat="43.17882" lon="3.19197">
        <ele>49</ele>
        <time>2026-02-22T09:41:41Z</time>
      </trkpt>
      <trkpt lat="43.17877" lon="3.1919">
        <ele>49</ele>
        <time>2026-02-22T09:41:43Z</time>
      </trkpt>
      <trkpt lat="43.17872" lon="3.19184">
        <ele>49</ele>
        <time>2026-02-22T09:41:45Z</time>
      </trkpt>
      <trkpt lat="43.17867" lon="3.19177">
        <ele>48</ele>
        <time>2026-02-22T09:41:47Z</time>
      </trkpt>
      <trkpt lat="43.17862" lon="3.19171">
        <ele>48</ele>
        <time>2026-02-22T09:41:49Z</time>
      </trkpt>
      <trkpt lat="43.17856" lon="3.19165">
        <ele>49</ele>
        <time>2026-02-22T09:41:51Z</time>
      </trkpt>
      <trkpt lat="43.17849" lon="3.1916">
        <ele>49</ele>
        <time>2026-02-22T09:41:53Z</time>
      </trkpt>
      <trkpt lat="43.17843" lon="3.19155">
        <ele>49</ele>
        <time>2026-02-22T09:41:55Z</time>
      </trkpt>
      <trkpt lat="43.17838" lon="3.19148">
        <ele>50</ele>
        <time>2026-02-22T09:41:57Z</time>
      </trkpt>
      <trkpt lat="43.17833" lon="3.19141">
        <ele>50</ele>
        <time>2026-02-22T09:41:59Z</time>
      </trkpt>
      <trkpt lat="43.17828" lon="3.19134">
        <ele>50</ele>
        <time>2026-02-22T09:42:01Z</time>
      </trkpt>
      <trkpt lat="43.17823" lon="3.19128">
        <ele>50</ele>
        <time>2026-02-22T09:42:03Z</time>
      </trkpt>
      <trkpt lat="43.17817" lon="3.19123">
        <ele>50</ele>
        <time>2026-02-22T09:42:05Z</time>
      </trkpt>
      <trkpt lat="43.17811" lon="3.19118">
        <ele>50</ele>
        <time>2026-02-22T09:42:07Z</time>
      </trkpt>
      <trkpt lat="43.17805" lon="3.19113">
        <ele>50</ele>
        <time>2026-02-22T09:42:09Z</time>
      </trkpt>
      <trkpt lat="43.17798" lon="3.19108">
        <ele>49</ele>
        <time>2026-02-22T09:42:11Z</time>
      </trkpt>
      <trkpt lat="43.17793" lon="3.19101">
        <ele>49</ele>
        <time>2026-02-22T09:42:13Z</time>
      </trkpt>
      <trkpt lat="43.17787" lon="3.19094">
        <ele>49</ele>
        <time>2026-02-22T09:42:15Z</time>
      </trkpt>
      <trkpt lat="43.17782" lon="3.19086">
        <ele>49</ele>
        <time>2026-02-22T09:42:17Z</time>
      </trkpt>
      <trkpt lat="43.17776" lon="3.1908">
        <ele>49</ele>
        <time>2026-02-22T09:42:19Z</time>
      </trkpt>
      <trkpt lat="43.17769" lon="3.19076">
        <ele>49</ele>
        <time>2026-02-22T09:42:21Z</time>
      </trkpt>
      <trkpt lat="43.17763" lon="3.19071">
        <ele>50</ele>
        <time>2026-02-22T09:42:23Z</time>
      </trkpt>
      <trkpt lat="43.17757" lon="3.19065">
        <ele>49</ele>
        <time>2026-02-22T09:42:25Z</time>
      </trkpt>
      <trkpt lat="43.17752" lon="3.19058">
        <ele>49</ele>
        <time>2026-02-22T09:42:27Z</time>
      </trkpt>
      <trkpt lat="43.17745" lon="3.19049">
        <ele>49</ele>
        <time>2026-02-22T09:42:29Z</time>
      </trkpt>
      <trkpt lat="43.17738" lon="3.19041">
        <ele>49</ele>
        <time>2026-02-22T09:42:31Z</time>
      </trkpt>
      <trkpt lat="43.17734" lon="3.19034">
        <ele>49</ele>
        <time>2026-02-22T09:42:33Z</time>
      </trkpt>
      <trkpt lat="43.17729" lon="3.19026">
        <ele>49</ele>
        <time>2026-02-22T09:42:35Z</time>
      </trkpt>
      <trkpt lat="43.17724" lon="3.19019">
        <ele>49</ele>
        <time>2026-02-22T09:42:37Z</time>
      </trkpt>
      <trkpt lat="43.1772" lon="3.19011">
        <ele>50</ele>
        <time>2026-02-22T09:42:39Z</time>
      </trkpt>
      <trkpt lat="43.17716" lon="3.19002">
        <ele>49</ele>
        <time>2026-02-22T09:42:41Z</time>
      </trkpt>
      <trkpt lat="43.17715" lon="3.18995">
        <ele>49</ele>
        <time>2026-02-22T09:42:43Z</time>
      </trkpt>
      <trkpt lat="43.17712" lon="3.18989">
        <ele>49</ele>
        <time>2026-02-22T09:42:45Z</time>
      </trkpt>
      <trkpt lat="43.17709" lon="3.18985">
        <ele>50</ele>
        <time>2026-02-22T09:42:47Z</time>
      </trkpt>
      <trkpt lat="43.17706" lon="3.18981">
        <ele>49</ele>
        <time>2026-02-22T09:42:49Z</time>
      </trkpt>
      <trkpt lat="43.17704" lon="3.18977">
        <ele>49</ele>
        <time>2026-02-22T09:42:51Z</time>
      </trkpt>
      <trkpt lat="43.17701" lon="3.18973">
        <ele>49</ele>
        <time>2026-02-22T09:42:53Z</time>
      </trkpt>
      <trkpt lat="43.17699" lon="3.18968">
        <ele>49</ele>
        <time>2026-02-22T09:42:55Z</time>
      </trkpt>
      <trkpt lat="43.17697" lon="3.18965">
        <ele>49</ele>
        <time>2026-02-22T09:42:57Z</time>
      </trkpt>
      <trkpt lat="43.17694" lon="3.1896">
        <ele>50</ele>
        <time>2026-02-22T09:42:59Z</time>
      </trkpt>
      <trkpt lat="43.17693" lon="3.18956">
        <ele>50</ele>
        <time>2026-02-22T09:43:01Z</time>
      </trkpt>
      <trkpt lat="43.17694" lon="3.18951">
        <ele>50</ele>
        <time>2026-02-22T09:43:03Z</time>
      </trkpt>
      <trkpt lat="43.17696" lon="3.18945">
        <ele>49</ele>
        <time>2026-02-22T09:43:05Z</time>
      </trkpt>
      <trkpt lat="43.17696" lon="3.18938">
        <ele>49</ele>
        <time>2026-02-22T09:43:07Z</time>
      </trkpt>
      <trkpt lat="43.17694" lon="3.18931">
        <ele>49</ele>
        <time>2026-02-22T09:43:09Z</time>
      </trkpt>
      <trkpt lat="43.17692" lon="3.18923">
        <ele>49</ele>
        <time>2026-02-22T09:43:11Z</time>
      </trkpt>
      <trkpt lat="43.17689" lon="3.18916">
        <ele>49</ele>
        <time>2026-02-22T09:43:13Z</time>
      </trkpt>
      <trkpt lat="43.17687" lon="3.18908">
        <ele>49</ele>
        <time>2026-02-22T09:43:15Z</time>
      </trkpt>
      <trkpt lat="43.17684" lon="3.189">
        <ele>49</ele>
        <time>2026-02-22T09:43:17Z</time>
      </trkpt>
      <trkpt lat="43.17682" lon="3.18891">
        <ele>49</ele>
        <time>2026-02-22T09:43:19Z</time>
      </trkpt>
      <trkpt lat="43.1768" lon="3.18883">
        <ele>50</ele>
        <time>2026-02-22T09:43:21Z</time>
      </trkpt>
      <trkpt lat="43.17677" lon="3.18875">
        <ele>49</ele>
        <time>2026-02-22T09:43:23Z</time>
      </trkpt>
      <trkpt lat="43.17674" lon="3.18867">
        <ele>49</ele>
        <time>2026-02-22T09:43:25Z</time>
      </trkpt>
      <trkpt lat="43.17671" lon="3.18858">
        <ele>50</ele>
        <time>2026-02-22T09:43:27Z</time>
      </trkpt>
      <trkpt lat="43.17668" lon="3.18849">
        <ele>50</ele>
        <time>2026-02-22T09:43:29Z</time>
      </trkpt>
      <trkpt lat="43.17665" lon="3.18841">
        <ele>49</ele>
        <time>2026-02-22T09:43:31Z</time>
      </trkpt>
      <trkpt lat="43.17663" lon="3.18831">
        <ele>49</ele>
        <time>2026-02-22T09:43:33Z</time>
      </trkpt>
      <trkpt lat="43.1766" lon="3.18823">
        <ele>49</ele>
        <time>2026-02-22T09:43:35Z</time>
      </trkpt>
      <trkpt lat="43.17656" lon="3.18816">
        <ele>49</ele>
        <time>2026-02-22T09:43:37Z</time>
      </trkpt>
      <trkpt lat="43.17651" lon="3.18809">
        <ele>49</ele>
        <time>2026-02-22T09:43:39Z</time>
      </trkpt>
      <trkpt lat="43.17646" lon="3.18803">
        <ele>49</ele>
        <time>2026-02-22T09:43:41Z</time>
      </trkpt>
      <trkpt lat="43.1764" lon="3.18801">
        <ele>50</ele>
        <time>2026-02-22T09:43:43Z</time>
      </trkpt>
      <trkpt lat="43.17633" lon="3.18801">
        <ele>50</ele>
        <time>2026-02-22T09:43:45Z</time>
      </trkpt>
      <trkpt lat="43.17626" lon="3.18802">
        <ele>51</ele>
        <time>2026-02-22T09:43:47Z</time>
      </trkpt>
      <trkpt lat="43.17618" lon="3.18803">
        <ele>52</ele>
        <time>2026-02-22T09:43:49Z</time>
      </trkpt>
      <trkpt lat="43.17611" lon="3.18804">
        <ele>52</ele>
        <time>2026-02-22T09:43:51Z</time>
      </trkpt>
      <trkpt lat="43.17604" lon="3.18804">
        <ele>53</ele>
        <time>2026-02-22T09:43:53Z</time>
      </trkpt>
      <trkpt lat="43.17598" lon="3.188">
        <ele>53</ele>
        <time>2026-02-22T09:43:55Z</time>
      </trkpt>
      <trkpt lat="43.17593" lon="3.18795">
        <ele>54</ele>
        <time>2026-02-22T09:43:57Z</time>
      </trkpt>
      <trkpt lat="43.17592" lon="3.18787">
        <ele>53</ele>
        <time>2026-02-22T09:43:59Z</time>
      </trkpt>
      <trkpt lat="43.17591" lon="3.18778">
        <ele>53</ele>
        <time>2026-02-22T09:44:01Z</time>
      </trkpt>
      <trkpt lat="43.1759" lon="3.18768">
        <ele>52</ele>
        <time>2026-02-22T09:44:03Z</time>
      </trkpt>
      <trkpt lat="43.17589" lon="3.18758">
        <ele>52</ele>
        <time>2026-02-22T09:44:05Z</time>
      </trkpt>
      <trkpt lat="43.17588" lon="3.18749">
        <ele>52</ele>
        <time>2026-02-22T09:44:07Z</time>
      </trkpt>
      <trkpt lat="43.17587" lon="3.18739">
        <ele>51</ele>
        <time>2026-02-22T09:44:09Z</time>
      </trkpt>
      <trkpt lat="43.17585" lon="3.1873">
        <ele>50</ele>
        <time>2026-02-22T09:44:11Z</time>
      </trkpt>
      <trkpt lat="43.17584" lon="3.18721">
        <ele>50</ele>
        <time>2026-02-22T09:44:13Z</time>
      </trkpt>
      <trkpt lat="43.17583" lon="3.18711">
        <ele>50</ele>
        <time>2026-02-22T09:44:15Z</time>
      </trkpt>
      <trkpt lat="43.17582" lon="3.18701">
        <ele>50</ele>
        <time>2026-02-22T09:44:17Z</time>
      </trkpt>
      <trkpt lat="43.17581" lon="3.18691">
        <ele>50</ele>
        <time>2026-02-22T09:44:19Z</time>
      </trkpt>
      <trkpt lat="43.17579" lon="3.18681">
        <ele>50</ele>
        <time>2026-02-22T09:44:21Z</time>
      </trkpt>
      <trkpt lat="43.17578" lon="3.18672">
        <ele>50</ele>
        <time>2026-02-22T09:44:23Z</time>
      </trkpt>
      <trkpt lat="43.17577" lon="3.18663">
        <ele>50</ele>
        <time>2026-02-22T09:44:25Z</time>
      </trkpt>
      <trkpt lat="43.17576" lon="3.18654">
        <ele>50</ele>
        <time>2026-02-22T09:44:27Z</time>
      </trkpt>
      <trkpt lat="43.17574" lon="3.18645">
        <ele>50</ele>
        <time>2026-02-22T09:44:29Z</time>
      </trkpt>
      <trkpt lat="43.17573" lon="3.18636">
        <ele>50</ele>
        <time>2026-02-22T09:44:31Z</time>
      </trkpt>
      <trkpt lat="43.17571" lon="3.18627">
        <ele>50</ele>
        <time>2026-02-22T09:44:33Z</time>
      </trkpt>
      <trkpt lat="43.17568" lon="3.18621">
        <ele>50</ele>
        <time>2026-02-22T09:44:35Z</time>
      </trkpt>
      <trkpt lat="43.17563" lon="3.18615">
        <ele>50</ele>
        <time>2026-02-22T09:44:37Z</time>
      </trkpt>
      <trkpt lat="43.17558" lon="3.18609">
        <ele>50</ele>
        <time>2026-02-22T09:44:39Z</time>
      </trkpt>
      <trkpt lat="43.17553" lon="3.18603">
        <ele>50</ele>
        <time>2026-02-22T09:44:41Z</time>
      </trkpt>
      <trkpt lat="43.17547" lon="3.18597">
        <ele>50</ele>
        <time>2026-02-22T09:44:43Z</time>
      </trkpt>
      <trkpt lat="43.17541" lon="3.18591">
        <ele>50</ele>
        <time>2026-02-22T09:44:45Z</time>
      </trkpt>
      <trkpt lat="43.17536" lon="3.18584">
        <ele>50</ele>
        <time>2026-02-22T09:44:47Z</time>
      </trkpt>
      <trkpt lat="43.17531" lon="3.18576">
        <ele>50</ele>
        <time>2026-02-22T09:44:49Z</time>
      </trkpt>
      <trkpt lat="43.17526" lon="3.18569">
        <ele>50</ele>
        <time>2026-02-22T09:44:51Z</time>
      </trkpt>
      <trkpt lat="43.17521" lon="3.18562">
        <ele>50</ele>
        <time>2026-02-22T09:44:53Z</time>
      </trkpt>
      <trkpt lat="43.17516" lon="3.18555">
        <ele>51</ele>
        <time>2026-02-22T09:44:55Z</time>
      </trkpt>
      <trkpt lat="43.17511" lon="3.18548">
        <ele>51</ele>
        <time>2026-02-22T09:44:57Z</time>
      </trkpt>
      <trkpt lat="43.17506" lon="3.1854">
        <ele>51</ele>
        <time>2026-02-22T09:44:59Z</time>
      </trkpt>
      <trkpt lat="43.17501" lon="3.18532">
        <ele>50</ele>
        <time>2026-02-22T09:45:01Z</time>
      </trkpt>
      <trkpt lat="43.17496" lon="3.18525">
        <ele>50</ele>
        <time>2026-02-22T09:45:03Z</time>
      </trkpt>
      <trkpt lat="43.1749" lon="3.18517">
        <ele>50</ele>
        <time>2026-02-22T09:45:05Z</time>
      </trkpt>
      <trkpt lat="43.17485" lon="3.18508">
        <ele>50</ele>
        <time>2026-02-22T09:45:07Z</time>
      </trkpt>
      <trkpt lat="43.1748" lon="3.185">
        <ele>50</ele>
        <time>2026-02-22T09:45:09Z</time>
      </trkpt>
      <trkpt lat="43.17475" lon="3.18491">
        <ele>50</ele>
        <time>2026-02-22T09:45:11Z</time>
      </trkpt>
      <trkpt lat="43.1747" lon="3.18482">
        <ele>50</ele>
        <time>2026-02-22T09:45:13Z</time>
      </trkpt>
      <trkpt lat="43.17464" lon="3.18473">
        <ele>50</ele>
        <time>2026-02-22T09:45:15Z</time>
      </trkpt>
      <trkpt lat="43.17459" lon="3.18463">
        <ele>51</ele>
        <time>2026-02-22T09:45:17Z</time>
      </trkpt>
      <trkpt lat="43.17453" lon="3.18453">
        <ele>51</ele>
        <time>2026-02-22T09:45:19Z</time>
      </trkpt>
      <trkpt lat="43.17448" lon="3.18445">
        <ele>51</ele>
        <time>2026-02-22T09:45:21Z</time>
      </trkpt>
      <trkpt lat="43.17442" lon="3.18437">
        <ele>51</ele>
        <time>2026-02-22T09:45:23Z</time>
      </trkpt>
      <trkpt lat="43.17435" lon="3.1843">
        <ele>51</ele>
        <time>2026-02-22T09:45:25Z</time>
      </trkpt>
      <trkpt lat="43.17429" lon="3.18423">
        <ele>51</ele>
        <time>2026-02-22T09:45:27Z</time>
      </trkpt>
      <trkpt lat="43.17422" lon="3.18416">
        <ele>51</ele>
        <time>2026-02-22T09:45:29Z</time>
      </trkpt>
      <trkpt lat="43.17416" lon="3.1841">
        <ele>51</ele>
        <time>2026-02-22T09:45:31Z</time>
      </trkpt>
      <trkpt lat="43.17409" lon="3.18403">
        <ele>51</ele>
        <time>2026-02-22T09:45:33Z</time>
      </trkpt>
      <trkpt lat="43.17402" lon="3.18396">
        <ele>51</ele>
        <time>2026-02-22T09:45:35Z</time>
      </trkpt>
      <trkpt lat="43.17395" lon="3.1839">
        <ele>51</ele>
        <time>2026-02-22T09:45:37Z</time>
      </trkpt>
      <trkpt lat="43.17387" lon="3.18385">
        <ele>51</ele>
        <time>2026-02-22T09:45:39Z</time>
      </trkpt>
      <trkpt lat="43.1738" lon="3.1838">
        <ele>51</ele>
        <time>2026-02-22T09:45:41Z</time>
      </trkpt>
      <trkpt lat="43.17373" lon="3.18373">
        <ele>50</ele>
        <time>2026-02-22T09:45:43Z</time>
      </trkpt>
      <trkpt lat="43.17366" lon="3.18366">
        <ele>50</ele>
        <time>2026-02-22T09:45:45Z</time>
      </trkpt>
      <trkpt lat="43.17358" lon="3.1836">
        <ele>50</ele>
        <time>2026-02-22T09:45:47Z</time>
      </trkpt>
      <trkpt lat="43.17351" lon="3.18354">
        <ele>50</ele>
        <time>2026-02-22T09:45:49Z</time>
      </trkpt>
      <trkpt lat="43.17344" lon="3.18348">
        <ele>50</ele>
        <time>2026-02-22T09:45:51Z</time>
      </trkpt>
      <trkpt lat="43.17336" lon="3.18343">
        <ele>50</ele>
        <time>2026-02-22T09:45:53Z</time>
      </trkpt>
      <trkpt lat="43.17329" lon="3.18338">
        <ele>50</ele>
        <time>2026-02-22T09:45:55Z</time>
      </trkpt>
      <trkpt lat="43.17322" lon="3.18331">
        <ele>49</ele>
        <time>2026-02-22T09:45:57Z</time>
      </trkpt>
      <trkpt lat="43.17316" lon="3.18324">
        <ele>49</ele>
        <time>2026-02-22T09:45:59Z</time>
      </trkpt>
      <trkpt lat="43.17311" lon="3.18316">
        <ele>49</ele>
        <time>2026-02-22T09:46:01Z</time>
      </trkpt>
      <trkpt lat="43.17305" lon="3.18309">
        <ele>49</ele>
        <time>2026-02-22T09:46:03Z</time>
      </trkpt>
      <trkpt lat="43.17298" lon="3.18303">
        <ele>49</ele>
        <time>2026-02-22T09:46:05Z</time>
      </trkpt>
      <trkpt lat="43.17292" lon="3.18295">
        <ele>50</ele>
        <time>2026-02-22T09:46:07Z</time>
      </trkpt>
      <trkpt lat="43.17286" lon="3.18288">
        <ele>49</ele>
        <time>2026-02-22T09:46:09Z</time>
      </trkpt>
      <trkpt lat="43.1728" lon="3.18281">
        <ele>49</ele>
        <time>2026-02-22T09:46:11Z</time>
      </trkpt>
      <trkpt lat="43.17274" lon="3.18274">
        <ele>49</ele>
        <time>2026-02-22T09:46:13Z</time>
      </trkpt>
      <trkpt lat="43.17268" lon="3.18267">
        <ele>49</ele>
        <time>2026-02-22T09:46:15Z</time>
      </trkpt>
      <trkpt lat="43.17262" lon="3.1826">
        <ele>49</ele>
        <time>2026-02-22T09:46:17Z</time>
      </trkpt>
      <trkpt lat="43.17256" lon="3.18253">
        <ele>49</ele>
        <time>2026-02-22T09:46:19Z</time>
      </trkpt>
      <trkpt lat="43.17251" lon="3.18246">
        <ele>49</ele>
        <time>2026-02-22T09:46:21Z</time>
      </trkpt>
      <trkpt lat="43.17245" lon="3.18241">
        <ele>49</ele>
        <time>2026-02-22T09:46:23Z</time>
      </trkpt>
      <trkpt lat="43.17239" lon="3.18235">
        <ele>50</ele>
        <time>2026-02-22T09:46:25Z</time>
      </trkpt>
      <trkpt lat="43.17233" lon="3.18233">
        <ele>51</ele>
        <time>2026-02-22T09:46:27Z</time>
      </trkpt>
      <trkpt lat="43.17227" lon="3.18228">
        <ele>51</ele>
        <time>2026-02-22T09:46:29Z</time>
      </trkpt>
      <trkpt lat="43.17224" lon="3.18219">
        <ele>51</ele>
        <time>2026-02-22T09:46:31Z</time>
      </trkpt>
      <trkpt lat="43.17221" lon="3.18211">
        <ele>52</ele>
        <time>2026-02-22T09:46:33Z</time>
      </trkpt>
      <trkpt lat="43.17217" lon="3.18203">
        <ele>52</ele>
        <time>2026-02-22T09:46:35Z</time>
      </trkpt>
      <trkpt lat="43.17211" lon="3.18196">
        <ele>52</ele>
        <time>2026-02-22T09:46:37Z</time>
      </trkpt>
      <trkpt lat="43.17206" lon="3.18189">
        <ele>52</ele>
        <time>2026-02-22T09:46:39Z</time>
      </trkpt>
      <trkpt lat="43.172" lon="3.18183">
        <ele>52</ele>
        <time>2026-02-22T09:46:41Z</time>
      </trkpt>
      <trkpt lat="43.17194" lon="3.18177">
        <ele>52</ele>
        <time>2026-02-22T09:46:43Z</time>
      </trkpt>
      <trkpt lat="43.17189" lon="3.1817">
        <ele>51</ele>
        <time>2026-02-22T09:46:45Z</time>
      </trkpt>
      <trkpt lat="43.17184" lon="3.18163">
        <ele>51</ele>
        <time>2026-02-22T09:46:47Z</time>
      </trkpt>
      <trkpt lat="43.17179" lon="3.18156">
        <ele>51</ele>
        <time>2026-02-22T09:46:49Z</time>
      </trkpt>
      <trkpt lat="43.17176" lon="3.18149">
        <ele>52</ele>
        <time>2026-02-22T09:46:51Z</time>
      </trkpt>
      <trkpt lat="43.17172" lon="3.18144">
        <ele>53</ele>
        <time>2026-02-22T09:46:53Z</time>
      </trkpt>
      <trkpt lat="43.17169" lon="3.1814">
        <ele>54</ele>
        <time>2026-02-22T09:46:55Z</time>
      </trkpt>
      <trkpt lat="43.17165" lon="3.18136">
        <ele>54</ele>
        <time>2026-02-22T09:46:57Z</time>
      </trkpt>
      <trkpt lat="43.1716" lon="3.18132">
        <ele>54</ele>
        <time>2026-02-22T09:46:59Z</time>
      </trkpt>
      <trkpt lat="43.17155" lon="3.18128">
        <ele>53</ele>
        <time>2026-02-22T09:47:01Z</time>
      </trkpt>
      <trkpt lat="43.1715" lon="3.18125">
        <ele>52</ele>
        <time>2026-02-22T09:47:03Z</time>
      </trkpt>
      <trkpt lat="43.17146" lon="3.18124">
        <ele>52</ele>
        <time>2026-02-22T09:47:05Z</time>
      </trkpt>
      <trkpt lat="43.17141" lon="3.18122">
        <ele>52</ele>
        <time>2026-02-22T09:47:07Z</time>
      </trkpt>
      <trkpt lat="43.17137" lon="3.1812">
        <ele>51</ele>
        <time>2026-02-22T09:47:09Z</time>
      </trkpt>
      <trkpt lat="43.17135" lon="3.18115">
        <ele>51</ele>
        <time>2026-02-22T09:47:11Z</time>
      </trkpt>
      <trkpt lat="43.17134" lon="3.18113">
        <ele>51</ele>
        <time>2026-02-22T09:47:13Z</time>
      </trkpt>
      <trkpt lat="43.17134" lon="3.18113">
        <ele>51</ele>
        <time>2026-02-22T09:47:15Z</time>
      </trkpt>
      <trkpt lat="43.17134" lon="3.18113">
        <ele>51</ele>
        <time>2026-02-22T09:47:17Z</time>
      </trkpt>
      <trkpt lat="43.17134" lon="3.18113">
        <ele>51</ele>
        <time>2026-02-22T09:47:19Z</time>
      </trkpt>
      <trkpt lat="43.17134" lon="3.18113">
        <ele>51</ele>
        <time>2026-02-22T09:47:21Z</time>
      </trkpt>
      <trkpt lat="43.17134" lon="3.18113">
        <ele>51</ele>
        <time>2026-02-22T09:47:23Z</time>
      </trkpt>
      <trkpt lat="43.17134" lon="3.18113">
        <ele>51</ele>
        <time>2026-02-22T09:47:25Z</time>
      </trkpt>
      <trkpt lat="43.17134" lon="3.18113">
        <ele>51</ele>
        <time>2026-02-22T09:47:27Z</time>
      </trkpt>
      <trkpt lat="43.17134" lon="3.18113">
        <ele>51</ele>
        <time>2026-02-22T09:47:29Z</time>
      </trkpt>
      <trkpt lat="43.17134" lon="3.18113">
        <ele>51</ele>
        <time>2026-02-22T09:47:31Z</time>
      </trkpt>
      <trkpt lat="43.17134" lon="3.18113">
        <ele>51</ele>
        <time>2026-02-22T09:47:33Z</time>
      </trkpt>
      <trkpt lat="43.17134" lon="3.18113">
        <ele>51</ele>
        <time>2026-02-22T09:47:35Z</time>
      </trkpt>
      <trkpt lat="43.17134" lon="3.18113">
        <ele>51</ele>
        <time>2026-02-22T09:47:37Z</time>
      </trkpt>
      <trkpt lat="43.17134" lon="3.18113">
        <ele>51</ele>
        <time>2026-02-22T09:47:39Z</time>
      </trkpt>
      <trkpt lat="43.17134" lon="3.18113">
        <ele>51</ele>
        <time>2026-02-22T09:47:41Z</time>
      </trkpt>
      <trkpt lat="43.17134" lon="3.18113">
        <ele>51</ele>
        <time>2026-02-22T09:47:43Z</time>
      </trkpt>
      <trkpt lat="43.17134" lon="3.18113">
        <ele>51</ele>
        <time>2026-02-22T09:47:45Z</time>
      </trkpt>
      <trkpt lat="43.17134" lon="3.18113">
        <ele>51</ele>
        <time>2026-02-22T09:47:47Z</time>
      </trkpt>
      <trkpt lat="43.17134" lon="3.18113">
        <ele>51</ele>
        <time>2026-02-22T09:47:49Z</time>
      </trkpt>
      <trkpt lat="43.17134" lon="3.18113">
        <ele>51</ele>
        <time>2026-02-22T09:47:51Z</time>
      </trkpt>
      <trkpt lat="43.17134" lon="3.18113">
        <ele>51</ele>
        <time>2026-02-22T09:47:53Z</time>
      </trkpt>
      <trkpt lat="43.17134" lon="3.18113">
        <ele>51</ele>
        <time>2026-02-22T09:47:55Z</time>
      </trkpt>
      <trkpt lat="43.17134" lon="3.18113">
        <ele>51</ele>
        <time>2026-02-22T09:47:57Z</time>
      </trkpt>
      <trkpt lat="43.17134" lon="3.18113">
        <ele>51</ele>
        <time>2026-02-22T09:47:59Z</time>
      </trkpt>
      <trkpt lat="43.17134" lon="3.18113">
        <ele>51</ele>
        <time>2026-02-22T09:48:01Z</time>
      </trkpt>
      <trkpt lat="43.17134" lon="3.18113">
        <ele>51</ele>
        <time>2026-02-22T09:48:03Z</time>
      </trkpt>
      <trkpt lat="43.17134" lon="3.18113">
        <ele>51</ele>
        <time>2026-02-22T09:48:05Z</time>
      </trkpt>
      <trkpt lat="43.17134" lon="3.18113">
        <ele>51</ele>
        <time>2026-02-22T09:48:07Z</time>
      </trkpt>
      <trkpt lat="43.17134" lon="3.18113">
        <ele>51</ele>
        <time>2026-02-22T09:48:09Z</time>
      </trkpt>
      <trkpt lat="43.17134" lon="3.18113">
        <ele>51</ele>
        <time>2026-02-22T09:48:11Z</time>
      </trkpt>
      <trkpt lat="43.17134" lon="3.18113">
        <ele>51</ele>
        <time>2026-02-22T09:48:13Z</time>
      </trkpt>
      <trkpt lat="43.17134" lon="3.18113">
        <ele>51</ele>
        <time>2026-02-22T09:48:15Z</time>
      </trkpt>
      <trkpt lat="43.17134" lon="3.18113">
        <ele>51</ele>
        <time>2026-02-22T09:48:17Z</time>
      </trkpt>
      <trkpt lat="43.17134" lon="3.18113">
        <ele>51</ele>
        <time>2026-02-22T09:48:19Z</time>
      </trkpt>
      <trkpt lat="43.17134" lon="3.18113">
        <ele>51</ele>
        <time>2026-02-22T09:48:21Z</time>
      </trkpt>
      <trkpt lat="43.17133" lon="3.18109">
        <ele>50</ele>
        <time>2026-02-22T09:48:23Z</time>
      </trkpt>
      <trkpt lat="43.17132" lon="3.18106">
        <ele>50</ele>
        <time>2026-02-22T09:48:25Z</time>
      </trkpt>
      <trkpt lat="43.17132" lon="3.181">
        <ele>50</ele>
        <time>2026-02-22T09:48:27Z</time>
      </trkpt>
      <trkpt lat="43.17131" lon="3.18093">
        <ele>51</ele>
        <time>2026-02-22T09:48:29Z</time>
      </trkpt>
      <trkpt lat="43.17128" lon="3.18086">
        <ele>51</ele>
        <time>2026-02-22T09:48:31Z</time>
      </trkpt>
      <trkpt lat="43.17123" lon="3.18079">
        <ele>51</ele>
        <time>2026-02-22T09:48:33Z</time>
      </trkpt>
      <trkpt lat="43.17117" lon="3.18072">
        <ele>51</ele>
        <time>2026-02-22T09:48:35Z</time>
      </trkpt>
      <trkpt lat="43.17109" lon="3.18066">
        <ele>51</ele>
        <time>2026-02-22T09:48:37Z</time>
      </trkpt>
      <trkpt lat="43.17102" lon="3.1806">
        <ele>51</ele>
        <time>2026-02-22T09:48:39Z</time>
      </trkpt>
      <trkpt lat="43.17094" lon="3.18053">
        <ele>51</ele>
        <time>2026-02-22T09:48:41Z</time>
      </trkpt>
      <trkpt lat="43.17087" lon="3.18048">
        <ele>51</ele>
        <time>2026-02-22T09:48:43Z</time>
      </trkpt>
      <trkpt lat="43.17082" lon="3.18043">
        <ele>51</ele>
        <time>2026-02-22T09:48:45Z</time>
      </trkpt>
      <trkpt lat="43.17076" lon="3.18039">
        <ele>51</ele>
        <time>2026-02-22T09:48:47Z</time>
      </trkpt>
      <trkpt lat="43.17071" lon="3.18035">
        <ele>51</ele>
        <time>2026-02-22T09:48:49Z</time>
      </trkpt>
      <trkpt lat="43.17065" lon="3.18029">
        <ele>51</ele>
        <time>2026-02-22T09:48:51Z</time>
      </trkpt>
      <trkpt lat="43.17058" lon="3.18022">
        <ele>51</ele>
        <time>2026-02-22T09:48:53Z</time>
      </trkpt>
      <trkpt lat="43.17049" lon="3.1802">
        <ele>51</ele>
        <time>2026-02-22T09:48:55Z</time>
      </trkpt>
      <trkpt lat="43.17042" lon="3.18029">
        <ele>50</ele>
        <time>2026-02-22T09:48:57Z</time>
      </trkpt>
      <trkpt lat="43.1704" lon="3.18041">
        <ele>50</ele>
        <time>2026-02-22T09:48:59Z</time>
      </trkpt>
      <trkpt lat="43.17038" lon="3.18054">
        <ele>50</ele>
        <time>2026-02-22T09:49:01Z</time>
      </trkpt>
      <trkpt lat="43.17037" lon="3.18066">
        <ele>50</ele>
        <time>2026-02-22T09:49:03Z</time>
      </trkpt>
      <trkpt lat="43.17035" lon="3.18079">
        <ele>50</ele>
        <time>2026-02-22T09:49:05Z</time>
      </trkpt>
      <trkpt lat="43.17034" lon="3.18091">
        <ele>50</ele>
        <time>2026-02-22T09:49:07Z</time>
      </trkpt>
      <trkpt lat="43.17032" lon="3.18102">
        <ele>49</ele>
        <time>2026-02-22T09:49:09Z</time>
      </trkpt>
      <trkpt lat="43.1703" lon="3.18113">
        <ele>49</ele>
        <time>2026-02-22T09:49:11Z</time>
      </trkpt>
      <trkpt lat="43.17027" lon="3.18123">
        <ele>49</ele>
        <time>2026-02-22T09:49:13Z</time>
      </trkpt>
      <trkpt lat="43.17024" lon="3.18131">
        <ele>50</ele>
        <time>2026-02-22T09:49:15Z</time>
      </trkpt>
      <trkpt lat="43.17021" lon="3.18137">
        <ele>50</ele>
        <time>2026-02-22T09:49:17Z</time>
      </trkpt>
      <trkpt lat="43.17016" lon="3.18138">
        <ele>50</ele>
        <time>2026-02-22T09:49:19Z</time>
      </trkpt>
      <trkpt lat="43.17011" lon="3.18135">
        <ele>50</ele>
        <time>2026-02-22T09:49:21Z</time>
      </trkpt>
      <trkpt lat="43.17006" lon="3.1813">
        <ele>50</ele>
        <time>2026-02-22T09:49:23Z</time>
      </trkpt>
      <trkpt lat="43.17002" lon="3.18124">
        <ele>50</ele>
        <time>2026-02-22T09:49:25Z</time>
      </trkpt>
      <trkpt lat="43.16997" lon="3.18117">
        <ele>50</ele>
        <time>2026-02-22T09:49:27Z</time>
      </trkpt>
      <trkpt lat="43.16992" lon="3.1811">
        <ele>50</ele>
        <time>2026-02-22T09:49:29Z</time>
      </trkpt>
      <trkpt lat="43.16988" lon="3.18102">
        <ele>50</ele>
        <time>2026-02-22T09:49:31Z</time>
      </trkpt>
      <trkpt lat="43.16983" lon="3.18095">
        <ele>50</ele>
        <time>2026-02-22T09:49:33Z</time>
      </trkpt>
      <trkpt lat="43.16977" lon="3.18089">
        <ele>50</ele>
        <time>2026-02-22T09:49:35Z</time>
      </trkpt>
      <trkpt lat="43.16972" lon="3.18082">
        <ele>50</ele>
        <time>2026-02-22T09:49:37Z</time>
      </trkpt>
      <trkpt lat="43.16966" lon="3.18076">
        <ele>50</ele>
        <time>2026-02-22T09:49:39Z</time>
      </trkpt>
      <trkpt lat="43.1696" lon="3.18068">
        <ele>50</ele>
        <time>2026-02-22T09:49:41Z</time>
      </trkpt>
      <trkpt lat="43.16954" lon="3.18061">
        <ele>50</ele>
        <time>2026-02-22T09:49:43Z</time>
      </trkpt>
      <trkpt lat="43.16947" lon="3.18053">
        <ele>50</ele>
        <time>2026-02-22T09:49:45Z</time>
      </trkpt>
      <trkpt lat="43.16941" lon="3.18046">
        <ele>50</ele>
        <time>2026-02-22T09:49:47Z</time>
      </trkpt>
      <trkpt lat="43.16935" lon="3.18038">
        <ele>50</ele>
        <time>2026-02-22T09:49:49Z</time>
      </trkpt>
      <trkpt lat="43.16929" lon="3.1803">
        <ele>50</ele>
        <time>2026-02-22T09:49:51Z</time>
      </trkpt>
      <trkpt lat="43.16924" lon="3.18023">
        <ele>50</ele>
        <time>2026-02-22T09:49:53Z</time>
      </trkpt>
      <trkpt lat="43.16918" lon="3.18016">
        <ele>50</ele>
        <time>2026-02-22T09:49:55Z</time>
      </trkpt>
      <trkpt lat="43.16912" lon="3.18011">
        <ele>50</ele>
        <time>2026-02-22T09:49:57Z</time>
      </trkpt>
      <trkpt lat="43.16906" lon="3.18008">
        <ele>51</ele>
        <time>2026-02-22T09:49:59Z</time>
      </trkpt>
      <trkpt lat="43.16902" lon="3.18005">
        <ele>51</ele>
        <time>2026-02-22T09:50:01Z</time>
      </trkpt>
      <trkpt lat="43.169" lon="3.18003">
        <ele>51</ele>
        <time>2026-02-22T09:50:03Z</time>
      </trkpt>
      <trkpt lat="43.169" lon="3.18002">
        <ele>51</ele>
        <time>2026-02-22T09:50:05Z</time>
      </trkpt>
      <trkpt lat="43.16899" lon="3.18002">
        <ele>51</ele>
        <time>2026-02-22T09:50:07Z</time>
      </trkpt>
      <trkpt lat="43.16899" lon="3.18002">
        <ele>51</ele>
        <time>2026-02-22T09:50:09Z</time>
      </trkpt>
      <trkpt lat="43.16899" lon="3.18002">
        <ele>51</ele>
        <time>2026-02-22T09:50:11Z</time>
      </trkpt>
      <trkpt lat="43.16899" lon="3.18002">
        <ele>51</ele>
        <time>2026-02-22T09:50:13Z</time>
      </trkpt>
      <trkpt lat="43.16899" lon="3.18002">
        <ele>51</ele>
        <time>2026-02-22T09:50:15Z</time>
      </trkpt>
      <trkpt lat="43.16899" lon="3.18002">
        <ele>51</ele>
        <time>2026-02-22T09:50:17Z</time>
      </trkpt>
      <trkpt lat="43.16899" lon="3.18002">
        <ele>51</ele>
        <time>2026-02-22T09:50:19Z</time>
      </trkpt>
      <trkpt lat="43.16899" lon="3.18002">
        <ele>51</ele>
        <time>2026-02-22T09:50:21Z</time>
      </trkpt>
      <trkpt lat="43.16899" lon="3.18002">
        <ele>51</ele>
        <time>2026-02-22T09:50:23Z</time>
      </trkpt>
      <trkpt lat="43.16899" lon="3.18002">
        <ele>51</ele>
        <time>2026-02-22T09:50:25Z</time>
      </trkpt>
      <trkpt lat="43.16899" lon="3.18002">
        <ele>51</ele>
        <time>2026-02-22T09:50:27Z</time>
      </trkpt>
      <trkpt lat="43.16899" lon="3.18002">
        <ele>51</ele>
        <time>2026-02-22T09:50:29Z</time>
      </trkpt>
      <trkpt lat="43.16899" lon="3.18002">
        <ele>51</ele>
        <time>2026-02-22T09:50:31Z</time>
      </trkpt>
      <trkpt lat="43.16899" lon="3.18002">
        <ele>51</ele>
        <time>2026-02-22T09:50:33Z</time>
      </trkpt>
      <trkpt lat="43.16899" lon="3.18002">
        <ele>51</ele>
        <time>2026-02-22T09:50:35Z</time>
      </trkpt>
      <trkpt lat="43.16899" lon="3.18002">
        <ele>51</ele>
        <time>2026-02-22T09:50:37Z</time>
      </trkpt>
      <trkpt lat="43.16899" lon="3.18002">
        <ele>51</ele>
        <time>2026-02-22T09:50:39Z</time>
      </trkpt>
      <trkpt lat="43.16899" lon="3.18002">
        <ele>51</ele>
        <time>2026-02-22T09:50:41Z</time>
      </trkpt>
      <trkpt lat="43.16899" lon="3.18002">
        <ele>51</ele>
        <time>2026-02-22T09:50:43Z</time>
      </trkpt>
      <trkpt lat="43.16899" lon="3.18002">
        <ele>51</ele>
        <time>2026-02-22T09:50:45Z</time>
      </trkpt>
      <trkpt lat="43.16899" lon="3.18002">
        <ele>51</ele>
        <time>2026-02-22T09:50:47Z</time>
      </trkpt>
      <trkpt lat="43.16899" lon="3.18002">
        <ele>51</ele>
        <time>2026-02-22T09:50:49Z</time>
      </trkpt>
      <trkpt lat="43.16899" lon="3.18002">
        <ele>51</ele>
        <time>2026-02-22T09:50:51Z</time>
      </trkpt>
      <trkpt lat="43.16899" lon="3.18002">
        <ele>51</ele>
        <time>2026-02-22T09:50:53Z</time>
      </trkpt>
      <trkpt lat="43.16899" lon="3.18002">
        <ele>51</ele>
        <time>2026-02-22T09:50:55Z</time>
      </trkpt>
      <trkpt lat="43.16899" lon="3.18002">
        <ele>51</ele>
        <time>2026-02-22T09:50:57Z</time>
      </trkpt>
      <trkpt lat="43.16899" lon="3.18002">
        <ele>51</ele>
        <time>2026-02-22T09:50:59Z</time>
      </trkpt>
      <trkpt lat="43.16899" lon="3.18002">
        <ele>51</ele>
        <time>2026-02-22T09:51:01Z</time>
      </trkpt>
      <trkpt lat="43.16899" lon="3.18002">
        <ele>51</ele>
        <time>2026-02-22T09:51:03Z</time>
      </trkpt>
      <trkpt lat="43.16899" lon="3.18002">
        <ele>51</ele>
        <time>2026-02-22T09:51:05Z</time>
      </trkpt>
      <trkpt lat="43.16899" lon="3.18002">
        <ele>51</ele>
        <time>2026-02-22T09:51:07Z</time>
      </trkpt>
      <trkpt lat="43.16899" lon="3.18002">
        <ele>51</ele>
        <time>2026-02-22T09:51:09Z</time>
      </trkpt>
      <trkpt lat="43.16899" lon="3.18002">
        <ele>51</ele>
        <time>2026-02-22T09:51:11Z</time>
      </trkpt>
      <trkpt lat="43.16899" lon="3.18002">
        <ele>51</ele>
        <time>2026-02-22T09:51:13Z</time>
      </trkpt>
      <trkpt lat="43.16899" lon="3.18002">
        <ele>51</ele>
        <time>2026-02-22T09:51:15Z</time>
      </trkpt>
      <trkpt lat="43.16899" lon="3.18002">
        <ele>51</ele>
        <time>2026-02-22T09:51:17Z</time>
      </trkpt>
      <trkpt lat="43.16899" lon="3.18002">
        <ele>51</ele>
        <time>2026-02-22T09:51:19Z</time>
      </trkpt>
      <trkpt lat="43.16868" lon="3.17956">
        <ele>50</ele>
        <time>2026-02-22T09:52:59Z</time>
      </trkpt>
      <trkpt lat="43.16862" lon="3.17949">
        <ele>49</ele>
        <time>2026-02-22T09:53:01Z</time>
      </trkpt>
      <trkpt lat="43.16857" lon="3.17942">
        <ele>49</ele>
        <time>2026-02-22T09:53:03Z</time>
      </trkpt>
      <trkpt lat="43.16851" lon="3.17934">
        <ele>50</ele>
        <time>2026-02-22T09:53:05Z</time>
      </trkpt>
      <trkpt lat="43.16844" lon="3.17927">
        <ele>50</ele>
        <time>2026-02-22T09:53:07Z</time>
      </trkpt>
      <trkpt lat="43.16837" lon="3.17919">
        <ele>50</ele>
        <time>2026-02-22T09:53:09Z</time>
      </trkpt>
      <trkpt lat="43.16831" lon="3.17911">
        <ele>50</ele>
        <time>2026-02-22T09:53:11Z</time>
      </trkpt>
      <trkpt lat="43.16825" lon="3.17903">
        <ele>50</ele>
        <time>2026-02-22T09:53:13Z</time>
      </trkpt>
      <trkpt lat="43.16818" lon="3.17895">
        <ele>50</ele>
        <time>2026-02-22T09:53:15Z</time>
      </trkpt>
      <trkpt lat="43.16812" lon="3.17887">
        <ele>51</ele>
        <time>2026-02-22T09:53:17Z</time>
      </trkpt>
      <trkpt lat="43.16806" lon="3.17879">
        <ele>51</ele>
        <time>2026-02-22T09:53:19Z</time>
      </trkpt>
      <trkpt lat="43.16799" lon="3.1787">
        <ele>51</ele>
        <time>2026-02-22T09:53:21Z</time>
      </trkpt>
      <trkpt lat="43.16793" lon="3.17862">
        <ele>51</ele>
        <time>2026-02-22T09:53:23Z</time>
      </trkpt>
      <trkpt lat="43.16786" lon="3.17854">
        <ele>51</ele>
        <time>2026-02-22T09:53:25Z</time>
      </trkpt>
      <trkpt lat="43.1678" lon="3.17847">
        <ele>51</ele>
        <time>2026-02-22T09:53:27Z</time>
      </trkpt>
      <trkpt lat="43.16773" lon="3.17839">
        <ele>51</ele>
        <time>2026-02-22T09:53:29Z</time>
      </trkpt>
      <trkpt lat="43.16767" lon="3.1783">
        <ele>51</ele>
        <time>2026-02-22T09:53:31Z</time>
      </trkpt>
      <trkpt lat="43.1676" lon="3.17823">
        <ele>51</ele>
        <time>2026-02-22T09:53:33Z</time>
      </trkpt>
      <trkpt lat="43.16754" lon="3.17815">
        <ele>51</ele>
        <time>2026-02-22T09:53:35Z</time>
      </trkpt>
      <trkpt lat="43.16747" lon="3.17807">
        <ele>51</ele>
        <time>2026-02-22T09:53:37Z</time>
      </trkpt>
      <trkpt lat="43.16741" lon="3.17799">
        <ele>51</ele>
        <time>2026-02-22T09:53:39Z</time>
      </trkpt>
      <trkpt lat="43.16734" lon="3.17791">
        <ele>52</ele>
        <time>2026-02-22T09:53:41Z</time>
      </trkpt>
      <trkpt lat="43.16728" lon="3.17783">
        <ele>52</ele>
        <time>2026-02-22T09:53:43Z</time>
      </trkpt>
      <trkpt lat="43.16721" lon="3.17775">
        <ele>52</ele>
        <time>2026-02-22T09:53:45Z</time>
      </trkpt>
      <trkpt lat="43.16715" lon="3.17768">
        <ele>52</ele>
        <time>2026-02-22T09:53:47Z</time>
      </trkpt>
      <trkpt lat="43.16709" lon="3.17759">
        <ele>53</ele>
        <time>2026-02-22T09:53:49Z</time>
      </trkpt>
      <trkpt lat="43.16702" lon="3.17751">
        <ele>53</ele>
        <time>2026-02-22T09:53:51Z</time>
      </trkpt>
      <trkpt lat="43.16696" lon="3.17743">
        <ele>53</ele>
        <time>2026-02-22T09:53:53Z</time>
      </trkpt>
      <trkpt lat="43.16689" lon="3.17735">
        <ele>53</ele>
        <time>2026-02-22T09:53:55Z</time>
      </trkpt>
      <trkpt lat="43.16683" lon="3.17727">
        <ele>52</ele>
        <time>2026-02-22T09:53:57Z</time>
      </trkpt>
      <trkpt lat="43.16677" lon="3.1772">
        <ele>52</ele>
        <time>2026-02-22T09:53:59Z</time>
      </trkpt>
      <trkpt lat="43.16671" lon="3.17713">
        <ele>52</ele>
        <time>2026-02-22T09:54:01Z</time>
      </trkpt>
      <trkpt lat="43.16665" lon="3.17706">
        <ele>51</ele>
        <time>2026-02-22T09:54:03Z</time>
      </trkpt>
      <trkpt lat="43.16659" lon="3.17698">
        <ele>51</ele>
        <time>2026-02-22T09:54:05Z</time>
      </trkpt>
      <trkpt lat="43.16653" lon="3.17692">
        <ele>50</ele>
        <time>2026-02-22T09:54:07Z</time>
      </trkpt>
      <trkpt lat="43.16647" lon="3.17685">
        <ele>50</ele>
        <time>2026-02-22T09:54:09Z</time>
      </trkpt>
      <trkpt lat="43.1664" lon="3.17678">
        <ele>49</ele>
        <time>2026-02-22T09:54:11Z</time>
      </trkpt>
      <trkpt lat="43.16636" lon="3.17669">
        <ele>49</ele>
        <time>2026-02-22T09:54:13Z</time>
      </trkpt>
      <trkpt lat="43.16633" lon="3.17659">
        <ele>49</ele>
        <time>2026-02-22T09:54:15Z</time>
      </trkpt>
      <trkpt lat="43.16629" lon="3.17649">
        <ele>49</ele>
        <time>2026-02-22T09:54:17Z</time>
      </trkpt>
      <trkpt lat="43.16623" lon="3.1764">
        <ele>50</ele>
        <time>2026-02-22T09:54:19Z</time>
      </trkpt>
      <trkpt lat="43.16617" lon="3.17633">
        <ele>50</ele>
        <time>2026-02-22T09:54:21Z</time>
      </trkpt>
      <trkpt lat="43.1661" lon="3.17625">
        <ele>50</ele>
        <time>2026-02-22T09:54:23Z</time>
      </trkpt>
      <trkpt lat="43.16604" lon="3.17619">
        <ele>50</ele>
        <time>2026-02-22T09:54:25Z</time>
      </trkpt>
      <trkpt lat="43.16598" lon="3.17611">
        <ele>50</ele>
        <time>2026-02-22T09:54:27Z</time>
      </trkpt>
      <trkpt lat="43.16593" lon="3.17604">
        <ele>50</ele>
        <time>2026-02-22T09:54:29Z</time>
      </trkpt>
      <trkpt lat="43.16586" lon="3.17597">
        <ele>51</ele>
        <time>2026-02-22T09:54:31Z</time>
      </trkpt>
      <trkpt lat="43.1658" lon="3.1759">
        <ele>51</ele>
        <time>2026-02-22T09:54:33Z</time>
      </trkpt>
      <trkpt lat="43.16575" lon="3.17582">
        <ele>50</ele>
        <time>2026-02-22T09:54:35Z</time>
      </trkpt>
      <trkpt lat="43.16571" lon="3.17572">
        <ele>50</ele>
        <time>2026-02-22T09:54:37Z</time>
      </trkpt>
      <trkpt lat="43.16566" lon="3.17563">
        <ele>50</ele>
        <time>2026-02-22T09:54:39Z</time>
      </trkpt>
      <trkpt lat="43.1656" lon="3.17557">
        <ele>50</ele>
        <time>2026-02-22T09:54:41Z</time>
      </trkpt>
      <trkpt lat="43.16554" lon="3.17552">
        <ele>50</ele>
        <time>2026-02-22T09:54:43Z</time>
      </trkpt>
      <trkpt lat="43.16547" lon="3.17548">
        <ele>51</ele>
        <time>2026-02-22T09:54:45Z</time>
      </trkpt>
      <trkpt lat="43.16541" lon="3.17541">
        <ele>51</ele>
        <time>2026-02-22T09:54:47Z</time>
      </trkpt>
      <trkpt lat="43.16535" lon="3.17535">
        <ele>50</ele>
        <time>2026-02-22T09:54:49Z</time>
      </trkpt>
      <trkpt lat="43.1653" lon="3.17527">
        <ele>50</ele>
        <time>2026-02-22T09:54:51Z</time>
      </trkpt>
      <trkpt lat="43.16524" lon="3.1752">
        <ele>50</ele>
        <time>2026-02-22T09:54:53Z</time>
      </trkpt>
      <trkpt lat="43.16518" lon="3.17514">
        <ele>50</ele>
        <time>2026-02-22T09:54:55Z</time>
      </trkpt>
      <trkpt lat="43.16511" lon="3.17506">
        <ele>50</ele>
        <time>2026-02-22T09:54:57Z</time>
      </trkpt>
      <trkpt lat="43.16505" lon="3.17499">
        <ele>50</ele>
        <time>2026-02-22T09:54:59Z</time>
      </trkpt>
      <trkpt lat="43.16499" lon="3.17492">
        <ele>50</ele>
        <time>2026-02-22T09:55:01Z</time>
      </trkpt>
      <trkpt lat="43.16493" lon="3.17485">
        <ele>50</ele>
        <time>2026-02-22T09:55:03Z</time>
      </trkpt>
      <trkpt lat="43.16487" lon="3.17477">
        <ele>50</ele>
        <time>2026-02-22T09:55:05Z</time>
      </trkpt>
      <trkpt lat="43.16481" lon="3.1747">
        <ele>50</ele>
        <time>2026-02-22T09:55:07Z</time>
      </trkpt>
      <trkpt lat="43.16475" lon="3.17464">
        <ele>50</ele>
        <time>2026-02-22T09:55:09Z</time>
      </trkpt>
      <trkpt lat="43.16469" lon="3.17456">
        <ele>50</ele>
        <time>2026-02-22T09:55:11Z</time>
      </trkpt>
      <trkpt lat="43.16462" lon="3.17449">
        <ele>50</ele>
        <time>2026-02-22T09:55:13Z</time>
      </trkpt>
      <trkpt lat="43.16456" lon="3.17442">
        <ele>50</ele>
        <time>2026-02-22T09:55:15Z</time>
      </trkpt>
      <trkpt lat="43.1645" lon="3.17434">
        <ele>49</ele>
        <time>2026-02-22T09:55:17Z</time>
      </trkpt>
      <trkpt lat="43.16444" lon="3.17427">
        <ele>49</ele>
        <time>2026-02-22T09:55:19Z</time>
      </trkpt>
      <trkpt lat="43.16438" lon="3.1742">
        <ele>49</ele>
        <time>2026-02-22T09:55:21Z</time>
      </trkpt>
      <trkpt lat="43.16432" lon="3.17413">
        <ele>50</ele>
        <time>2026-02-22T09:55:23Z</time>
      </trkpt>
      <trkpt lat="43.16426" lon="3.17406">
        <ele>50</ele>
        <time>2026-02-22T09:55:25Z</time>
      </trkpt>
      <trkpt lat="43.1642" lon="3.17399">
        <ele>49</ele>
        <time>2026-02-22T09:55:27Z</time>
      </trkpt>
      <trkpt lat="43.16415" lon="3.17392">
        <ele>49</ele>
        <time>2026-02-22T09:55:29Z</time>
      </trkpt>
      <trkpt lat="43.16409" lon="3.17385">
        <ele>49</ele>
        <time>2026-02-22T09:55:31Z</time>
      </trkpt>
      <trkpt lat="43.16403" lon="3.17378">
        <ele>49</ele>
        <time>2026-02-22T09:55:33Z</time>
      </trkpt>
      <trkpt lat="43.16398" lon="3.1737">
        <ele>50</ele>
        <time>2026-02-22T09:55:35Z</time>
      </trkpt>
      <trkpt lat="43.16393" lon="3.17361">
        <ele>50</ele>
        <time>2026-02-22T09:55:37Z</time>
      </trkpt>
      <trkpt lat="43.16389" lon="3.17352">
        <ele>50</ele>
        <time>2026-02-22T09:55:39Z</time>
      </trkpt>
      <trkpt lat="43.16383" lon="3.17345">
        <ele>50</ele>
        <time>2026-02-22T09:55:41Z</time>
      </trkpt>
      <trkpt lat="43.16376" lon="3.1734">
        <ele>50</ele>
        <time>2026-02-22T09:55:43Z</time>
      </trkpt>
      <trkpt lat="43.16369" lon="3.17336">
        <ele>50</ele>
        <time>2026-02-22T09:55:45Z</time>
      </trkpt>
      <trkpt lat="43.16363" lon="3.17329">
        <ele>50</ele>
        <time>2026-02-22T09:55:47Z</time>
      </trkpt>
      <trkpt lat="43.16357" lon="3.17323">
        <ele>49</ele>
        <time>2026-02-22T09:55:49Z</time>
      </trkpt>
      <trkpt lat="43.16351" lon="3.17316">
        <ele>49</ele>
        <time>2026-02-22T09:55:51Z</time>
      </trkpt>
      <trkpt lat="43.16345" lon="3.17308">
        <ele>49</ele>
        <time>2026-02-22T09:55:53Z</time>
      </trkpt>
      <trkpt lat="43.16339" lon="3.17302">
        <ele>49</ele>
        <time>2026-02-22T09:55:55Z</time>
      </trkpt>
      <trkpt lat="43.16333" lon="3.17294">
        <ele>49</ele>
        <time>2026-02-22T09:55:57Z</time>
      </trkpt>
      <trkpt lat="43.16327" lon="3.17287">
        <ele>49</ele>
        <time>2026-02-22T09:55:59Z</time>
      </trkpt>
      <trkpt lat="43.16321" lon="3.17279">
        <ele>50</ele>
        <time>2026-02-22T09:56:01Z</time>
      </trkpt>
      <trkpt lat="43.16314" lon="3.17271">
        <ele>50</ele>
        <time>2026-02-22T09:56:03Z</time>
      </trkpt>
      <trkpt lat="43.16309" lon="3.17264">
        <ele>50</ele>
        <time>2026-02-22T09:56:05Z</time>
      </trkpt>
      <trkpt lat="43.16303" lon="3.17258">
        <ele>50</ele>
        <time>2026-02-22T09:56:07Z</time>
      </trkpt>
      <trkpt lat="43.16297" lon="3.17251">
        <ele>50</ele>
        <time>2026-02-22T09:56:09Z</time>
      </trkpt>
      <trkpt lat="43.16291" lon="3.17244">
        <ele>49</ele>
        <time>2026-02-22T09:56:11Z</time>
      </trkpt>
      <trkpt lat="43.16285" lon="3.17237">
        <ele>49</ele>
        <time>2026-02-22T09:56:13Z</time>
      </trkpt>
      <trkpt lat="43.16279" lon="3.17229">
        <ele>49</ele>
        <time>2026-02-22T09:56:15Z</time>
      </trkpt>
      <trkpt lat="43.16273" lon="3.17223">
        <ele>49</ele>
        <time>2026-02-22T09:56:17Z</time>
      </trkpt>
      <trkpt lat="43.16266" lon="3.17216">
        <ele>49</ele>
        <time>2026-02-22T09:56:19Z</time>
      </trkpt>
      <trkpt lat="43.16259" lon="3.1721">
        <ele>50</ele>
        <time>2026-02-22T09:56:21Z</time>
      </trkpt>
      <trkpt lat="43.16252" lon="3.17205">
        <ele>50</ele>
        <time>2026-02-22T09:56:23Z</time>
      </trkpt>
      <trkpt lat="43.16245" lon="3.17198">
        <ele>51</ele>
        <time>2026-02-22T09:56:25Z</time>
      </trkpt>
      <trkpt lat="43.16239" lon="3.17192">
        <ele>50</ele>
        <time>2026-02-22T09:56:27Z</time>
      </trkpt>
      <trkpt lat="43.16233" lon="3.17185">
        <ele>50</ele>
        <time>2026-02-22T09:56:29Z</time>
      </trkpt>
      <trkpt lat="43.16227" lon="3.17179">
        <ele>50</ele>
        <time>2026-02-22T09:56:31Z</time>
      </trkpt>
      <trkpt lat="43.16221" lon="3.17172">
        <ele>50</ele>
        <time>2026-02-22T09:56:33Z</time>
      </trkpt>
      <trkpt lat="43.16215" lon="3.17165">
        <ele>50</ele>
        <time>2026-02-22T09:56:35Z</time>
      </trkpt>
      <trkpt lat="43.16209" lon="3.17158">
        <ele>50</ele>
        <time>2026-02-22T09:56:37Z</time>
      </trkpt>
      <trkpt lat="43.16203" lon="3.17151">
        <ele>49</ele>
        <time>2026-02-22T09:56:39Z</time>
      </trkpt>
      <trkpt lat="43.16197" lon="3.17143">
        <ele>49</ele>
        <time>2026-02-22T09:56:41Z</time>
      </trkpt>
      <trkpt lat="43.1619" lon="3.17136">
        <ele>49</ele>
        <time>2026-02-22T09:56:43Z</time>
      </trkpt>
      <trkpt lat="43.16184" lon="3.17129">
        <ele>49</ele>
        <time>2026-02-22T09:56:45Z</time>
      </trkpt>
      <trkpt lat="43.16178" lon="3.17122">
        <ele>49</ele>
        <time>2026-02-22T09:56:47Z</time>
      </trkpt>
      <trkpt lat="43.16172" lon="3.17114">
        <ele>49</ele>
        <time>2026-02-22T09:56:49Z</time>
      </trkpt>
      <trkpt lat="43.16166" lon="3.17108">
        <ele>49</ele>
        <time>2026-02-22T09:56:51Z</time>
      </trkpt>
      <trkpt lat="43.16159" lon="3.17101">
        <ele>49</ele>
        <time>2026-02-22T09:56:53Z</time>
      </trkpt>
      <trkpt lat="43.16153" lon="3.17094">
        <ele>49</ele>
        <time>2026-02-22T09:56:55Z</time>
      </trkpt>
      <trkpt lat="43.16147" lon="3.17086">
        <ele>49</ele>
        <time>2026-02-22T09:56:57Z</time>
      </trkpt>
      <trkpt lat="43.16141" lon="3.17079">
        <ele>49</ele>
        <time>2026-02-22T09:56:59Z</time>
      </trkpt>
      <trkpt lat="43.16135" lon="3.17073">
        <ele>49</ele>
        <time>2026-02-22T09:57:01Z</time>
      </trkpt>
      <trkpt lat="43.16129" lon="3.17066">
        <ele>49</ele>
        <time>2026-02-22T09:57:03Z</time>
      </trkpt>
      <trkpt lat="43.16123" lon="3.17059">
        <ele>49</ele>
        <time>2026-02-22T09:57:05Z</time>
      </trkpt>
      <trkpt lat="43.16117" lon="3.17052">
        <ele>49</ele>
        <time>2026-02-22T09:57:07Z</time>
      </trkpt>
      <trkpt lat="43.16111" lon="3.17045">
        <ele>50</ele>
        <time>2026-02-22T09:57:09Z</time>
      </trkpt>
      <trkpt lat="43.16105" lon="3.17038">
        <ele>49</ele>
        <time>2026-02-22T09:57:11Z</time>
      </trkpt>
      <trkpt lat="43.16099" lon="3.17031">
        <ele>49</ele>
        <time>2026-02-22T09:57:13Z</time>
      </trkpt>
      <trkpt lat="43.16093" lon="3.17024">
        <ele>49</ele>
        <time>2026-02-22T09:57:15Z</time>
      </trkpt>
      <trkpt lat="43.16087" lon="3.17017">
        <ele>50</ele>
        <time>2026-02-22T09:57:17Z</time>
      </trkpt>
      <trkpt lat="43.16081" lon="3.1701">
        <ele>50</ele>
        <time>2026-02-22T09:57:19Z</time>
      </trkpt>
      <trkpt lat="43.16075" lon="3.17002">
        <ele>50</ele>
        <time>2026-02-22T09:57:21Z</time>
      </trkpt>
      <trkpt lat="43.16068" lon="3.16995">
        <ele>50</ele>
        <time>2026-02-22T09:57:23Z</time>
      </trkpt>
      <trkpt lat="43.16062" lon="3.16988">
        <ele>50</ele>
        <time>2026-02-22T09:57:25Z</time>
      </trkpt>
      <trkpt lat="43.16056" lon="3.16981">
        <ele>50</ele>
        <time>2026-02-22T09:57:27Z</time>
      </trkpt>
      <trkpt lat="43.16049" lon="3.16973">
        <ele>50</ele>
        <time>2026-02-22T09:57:29Z</time>
      </trkpt>
      <trkpt lat="43.16043" lon="3.16965">
        <ele>50</ele>
        <time>2026-02-22T09:57:31Z</time>
      </trkpt>
      <trkpt lat="43.16037" lon="3.16958">
        <ele>49</ele>
        <time>2026-02-22T09:57:33Z</time>
      </trkpt>
      <trkpt lat="43.16031" lon="3.16951">
        <ele>49</ele>
        <time>2026-02-22T09:57:35Z</time>
      </trkpt>
      <trkpt lat="43.16023" lon="3.16945">
        <ele>48</ele>
        <time>2026-02-22T09:57:37Z</time>
      </trkpt>
      <trkpt lat="43.16017" lon="3.16938">
        <ele>48</ele>
        <time>2026-02-22T09:57:39Z</time>
      </trkpt>
      <trkpt lat="43.16011" lon="3.16932">
        <ele>48</ele>
        <time>2026-02-22T09:57:41Z</time>
      </trkpt>
      <trkpt lat="43.16005" lon="3.16925">
        <ele>48</ele>
        <time>2026-02-22T09:57:43Z</time>
      </trkpt>
      <trkpt lat="43.16" lon="3.16918">
        <ele>48</ele>
        <time>2026-02-22T09:57:45Z</time>
      </trkpt>
      <trkpt lat="43.15994" lon="3.1691">
        <ele>47</ele>
        <time>2026-02-22T09:57:47Z</time>
      </trkpt>
      <trkpt lat="43.15989" lon="3.16903">
        <ele>47</ele>
        <time>2026-02-22T09:57:49Z</time>
      </trkpt>
      <trkpt lat="43.15983" lon="3.16896">
        <ele>47</ele>
        <time>2026-02-22T09:57:51Z</time>
      </trkpt>
      <trkpt lat="43.15978" lon="3.16889">
        <ele>48</ele>
        <time>2026-02-22T09:57:53Z</time>
      </trkpt>
      <trkpt lat="43.15972" lon="3.16881">
        <ele>48</ele>
        <time>2026-02-22T09:57:55Z</time>
      </trkpt>
      <trkpt lat="43.15967" lon="3.16873">
        <ele>49</ele>
        <time>2026-02-22T09:57:57Z</time>
      </trkpt>
      <trkpt lat="43.15961" lon="3.16865">
        <ele>50</ele>
        <time>2026-02-22T09:57:59Z</time>
      </trkpt>
      <trkpt lat="43.15955" lon="3.16858">
        <ele>50</ele>
        <time>2026-02-22T09:58:01Z</time>
      </trkpt>
      <trkpt lat="43.15948" lon="3.16851">
        <ele>50</ele>
        <time>2026-02-22T09:58:03Z</time>
      </trkpt>
      <trkpt lat="43.15942" lon="3.16845">
        <ele>50</ele>
        <time>2026-02-22T09:58:05Z</time>
      </trkpt>
      <trkpt lat="43.15935" lon="3.16839">
        <ele>52</ele>
        <time>2026-02-22T09:58:07Z</time>
      </trkpt>
      <trkpt lat="43.15929" lon="3.16832">
        <ele>52</ele>
        <time>2026-02-22T09:58:09Z</time>
      </trkpt>
      <trkpt lat="43.15923" lon="3.16826">
        <ele>52</ele>
        <time>2026-02-22T09:58:11Z</time>
      </trkpt>
      <trkpt lat="43.15917" lon="3.16819">
        <ele>52</ele>
        <time>2026-02-22T09:58:13Z</time>
      </trkpt>
      <trkpt lat="43.15912" lon="3.16813">
        <ele>52</ele>
        <time>2026-02-22T09:58:15Z</time>
      </trkpt>
      <trkpt lat="43.15906" lon="3.16808">
        <ele>52</ele>
        <time>2026-02-22T09:58:17Z</time>
      </trkpt>
      <trkpt lat="43.159" lon="3.16803">
        <ele>52</ele>
        <time>2026-02-22T09:58:19Z</time>
      </trkpt>
      <trkpt lat="43.15895" lon="3.16796">
        <ele>51</ele>
        <time>2026-02-22T09:58:21Z</time>
      </trkpt>
      <trkpt lat="43.15891" lon="3.16791">
        <ele>51</ele>
        <time>2026-02-22T09:58:23Z</time>
      </trkpt>
      <trkpt lat="43.15885" lon="3.16786">
        <ele>51</ele>
        <time>2026-02-22T09:58:25Z</time>
      </trkpt>
      <trkpt lat="43.1588" lon="3.1678">
        <ele>51</ele>
        <time>2026-02-22T09:58:27Z</time>
      </trkpt>
      <trkpt lat="43.15875" lon="3.16775">
        <ele>51</ele>
        <time>2026-02-22T09:58:29Z</time>
      </trkpt>
      <trkpt lat="43.15869" lon="3.1677">
        <ele>51</ele>
        <time>2026-02-22T09:58:31Z</time>
      </trkpt>
      <trkpt lat="43.15863" lon="3.16765">
        <ele>51</ele>
        <time>2026-02-22T09:58:33Z</time>
      </trkpt>
      <trkpt lat="43.15857" lon="3.1676">
        <ele>51</ele>
        <time>2026-02-22T09:58:35Z</time>
      </trkpt>
      <trkpt lat="43.15851" lon="3.16754">
        <ele>51</ele>
        <time>2026-02-22T09:58:37Z</time>
      </trkpt>
      <trkpt lat="43.15845" lon="3.16749">
        <ele>50</ele>
        <time>2026-02-22T09:58:39Z</time>
      </trkpt>
      <trkpt lat="43.15839" lon="3.16743">
        <ele>50</ele>
        <time>2026-02-22T09:58:41Z</time>
      </trkpt>
      <trkpt lat="43.15834" lon="3.16736">
        <ele>50</ele>
        <time>2026-02-22T09:58:43Z</time>
      </trkpt>
      <trkpt lat="43.15829" lon="3.1673">
        <ele>50</ele>
        <time>2026-02-22T09:58:45Z</time>
      </trkpt>
      <trkpt lat="43.15823" lon="3.16724">
        <ele>50</ele>
        <time>2026-02-22T09:58:47Z</time>
      </trkpt>
      <trkpt lat="43.15818" lon="3.16719">
        <ele>50</ele>
        <time>2026-02-22T09:58:49Z</time>
      </trkpt>
      <trkpt lat="43.15812" lon="3.16714">
        <ele>51</ele>
        <time>2026-02-22T09:58:51Z</time>
      </trkpt>
      <trkpt lat="43.15806" lon="3.16709">
        <ele>51</ele>
        <time>2026-02-22T09:58:53Z</time>
      </trkpt>
      <trkpt lat="43.158" lon="3.16704">
        <ele>51</ele>
        <time>2026-02-22T09:58:55Z</time>
      </trkpt>
      <trkpt lat="43.15795" lon="3.16697">
        <ele>51</ele>
        <time>2026-02-22T09:58:57Z</time>
      </trkpt>
      <trkpt lat="43.15789" lon="3.16691">
        <ele>50</ele>
        <time>2026-02-22T09:58:59Z</time>
      </trkpt>
      <trkpt lat="43.15783" lon="3.16685">
        <ele>50</ele>
        <time>2026-02-22T09:59:01Z</time>
      </trkpt>
      <trkpt lat="43.15777" lon="3.16679">
        <ele>50</ele>
        <time>2026-02-22T09:59:03Z</time>
      </trkpt>
      <trkpt lat="43.15771" lon="3.16672">
        <ele>50</ele>
        <time>2026-02-22T09:59:05Z</time>
      </trkpt>
      <trkpt lat="43.15764" lon="3.16666">
        <ele>50</ele>
        <time>2026-02-22T09:59:07Z</time>
      </trkpt>
      <trkpt lat="43.15759" lon="3.16661">
        <ele>50</ele>
        <time>2026-02-22T09:59:09Z</time>
      </trkpt>
      <trkpt lat="43.15753" lon="3.16655">
        <ele>50</ele>
        <time>2026-02-22T09:59:11Z</time>
      </trkpt>
      <trkpt lat="43.15747" lon="3.16649">
        <ele>50</ele>
        <time>2026-02-22T09:59:13Z</time>
      </trkpt>
      <trkpt lat="43.15741" lon="3.16644">
        <ele>51</ele>
        <time>2026-02-22T09:59:15Z</time>
      </trkpt>
      <trkpt lat="43.15735" lon="3.16638">
        <ele>50</ele>
        <time>2026-02-22T09:59:17Z</time>
      </trkpt>
      <trkpt lat="43.15728" lon="3.16633">
        <ele>50</ele>
        <time>2026-02-22T09:59:19Z</time>
      </trkpt>
      <trkpt lat="43.15721" lon="3.16629">
        <ele>50</ele>
        <time>2026-02-22T09:59:21Z</time>
      </trkpt>
      <trkpt lat="43.15715" lon="3.16621">
        <ele>49</ele>
        <time>2026-02-22T09:59:23Z</time>
      </trkpt>
      <trkpt lat="43.1571" lon="3.16613">
        <ele>49</ele>
        <time>2026-02-22T09:59:25Z</time>
      </trkpt>
      <trkpt lat="43.15704" lon="3.16606">
        <ele>50</ele>
        <time>2026-02-22T09:59:27Z</time>
      </trkpt>
      <trkpt lat="43.15697" lon="3.16599">
        <ele>49</ele>
        <time>2026-02-22T09:59:29Z</time>
      </trkpt>
      <trkpt lat="43.1569" lon="3.16592">
        <ele>50</ele>
        <time>2026-02-22T09:59:31Z</time>
      </trkpt>
      <trkpt lat="43.15683" lon="3.16585">
        <ele>50</ele>
        <time>2026-02-22T09:59:33Z</time>
      </trkpt>
      <trkpt lat="43.15676" lon="3.16578">
        <ele>49</ele>
        <time>2026-02-22T09:59:35Z</time>
      </trkpt>
      <trkpt lat="43.15669" lon="3.16572">
        <ele>49</ele>
        <time>2026-02-22T09:59:37Z</time>
      </trkpt>
      <trkpt lat="43.15663" lon="3.16565">
        <ele>48</ele>
        <time>2026-02-22T09:59:39Z</time>
      </trkpt>
      <trkpt lat="43.15656" lon="3.16557">
        <ele>49</ele>
        <time>2026-02-22T09:59:41Z</time>
      </trkpt>
      <trkpt lat="43.15648" lon="3.16551">
        <ele>50</ele>
        <time>2026-02-22T09:59:43Z</time>
      </trkpt>
      <trkpt lat="43.15641" lon="3.16546">
        <ele>50</ele>
        <time>2026-02-22T09:59:45Z</time>
      </trkpt>
      <trkpt lat="43.15635" lon="3.16538">
        <ele>50</ele>
        <time>2026-02-22T09:59:47Z</time>
      </trkpt>
      <trkpt lat="43.15629" lon="3.16531">
        <ele>50</ele>
        <time>2026-02-22T09:59:49Z</time>
      </trkpt>
      <trkpt lat="43.15622" lon="3.16524">
        <ele>50</ele>
        <time>2026-02-22T09:59:51Z</time>
      </trkpt>
      <trkpt lat="43.15616" lon="3.16517">
        <ele>51</ele>
        <time>2026-02-22T09:59:53Z</time>
      </trkpt>
      <trkpt lat="43.15609" lon="3.1651">
        <ele>51</ele>
        <time>2026-02-22T09:59:55Z</time>
      </trkpt>
      <trkpt lat="43.15602" lon="3.16504">
        <ele>52</ele>
        <time>2026-02-22T09:59:57Z</time>
      </trkpt>
      <trkpt lat="43.15596" lon="3.16497">
        <ele>52</ele>
        <time>2026-02-22T09:59:59Z</time>
      </trkpt>
      <trkpt lat="43.15589" lon="3.16491">
        <ele>52</ele>
        <time>2026-02-22T10:00:01Z</time>
      </trkpt>
      <trkpt lat="43.15583" lon="3.16485">
        <ele>52</ele>
        <time>2026-02-22T10:00:03Z</time>
      </trkpt>
      <trkpt lat="43.15576" lon="3.16479">
        <ele>52</ele>
        <time>2026-02-22T10:00:05Z</time>
      </trkpt>
      <trkpt lat="43.1557" lon="3.16472">
        <ele>52</ele>
        <time>2026-02-22T10:00:07Z</time>
      </trkpt>
      <trkpt lat="43.15563" lon="3.16467">
        <ele>52</ele>
        <time>2026-02-22T10:00:09Z</time>
      </trkpt>
      <trkpt lat="43.15556" lon="3.16461">
        <ele>52</ele>
        <time>2026-02-22T10:00:11Z</time>
      </trkpt>
      <trkpt lat="43.1555" lon="3.16454">
        <ele>51</ele>
        <time>2026-02-22T10:00:13Z</time>
      </trkpt>
      <trkpt lat="43.15544" lon="3.16447">
        <ele>51</ele>
        <time>2026-02-22T10:00:15Z</time>
      </trkpt>
      <trkpt lat="43.15538" lon="3.1644">
        <ele>52</ele>
        <time>2026-02-22T10:00:17Z</time>
      </trkpt>
      <trkpt lat="43.15531" lon="3.16434">
        <ele>52</ele>
        <time>2026-02-22T10:00:19Z</time>
      </trkpt>
      <trkpt lat="43.15525" lon="3.16427">
        <ele>51</ele>
        <time>2026-02-22T10:00:21Z</time>
      </trkpt>
      <trkpt lat="43.15518" lon="3.1642">
        <ele>51</ele>
        <time>2026-02-22T10:00:23Z</time>
      </trkpt>
      <trkpt lat="43.15511" lon="3.16414">
        <ele>51</ele>
        <time>2026-02-22T10:00:25Z</time>
      </trkpt>
      <trkpt lat="43.15504" lon="3.16409">
        <ele>50</ele>
        <time>2026-02-22T10:00:27Z</time>
      </trkpt>
      <trkpt lat="43.15498" lon="3.16402">
        <ele>50</ele>
        <time>2026-02-22T10:00:29Z</time>
      </trkpt>
      <trkpt lat="43.15492" lon="3.16395">
        <ele>50</ele>
        <time>2026-02-22T10:00:31Z</time>
      </trkpt>
      <trkpt lat="43.15485" lon="3.16388">
        <ele>50</ele>
        <time>2026-02-22T10:00:33Z</time>
      </trkpt>
      <trkpt lat="43.15478" lon="3.16381">
        <ele>50</ele>
        <time>2026-02-22T10:00:35Z</time>
      </trkpt>
      <trkpt lat="43.15471" lon="3.16375">
        <ele>49</ele>
        <time>2026-02-22T10:00:37Z</time>
      </trkpt>
      <trkpt lat="43.15464" lon="3.16368">
        <ele>50</ele>
        <time>2026-02-22T10:00:39Z</time>
      </trkpt>
      <trkpt lat="43.15458" lon="3.16363">
        <ele>49</ele>
        <time>2026-02-22T10:00:41Z</time>
      </trkpt>
      <trkpt lat="43.15452" lon="3.16356">
        <ele>50</ele>
        <time>2026-02-22T10:00:43Z</time>
      </trkpt>
      <trkpt lat="43.15445" lon="3.16348">
        <ele>49</ele>
        <time>2026-02-22T10:00:45Z</time>
      </trkpt>
      <trkpt lat="43.15438" lon="3.16342">
        <ele>49</ele>
        <time>2026-02-22T10:00:47Z</time>
      </trkpt>
      <trkpt lat="43.15432" lon="3.16334">
        <ele>49</ele>
        <time>2026-02-22T10:00:49Z</time>
      </trkpt>
      <trkpt lat="43.15426" lon="3.16328">
        <ele>49</ele>
        <time>2026-02-22T10:00:51Z</time>
      </trkpt>
      <trkpt lat="43.15419" lon="3.16322">
        <ele>50</ele>
        <time>2026-02-22T10:00:53Z</time>
      </trkpt>
      <trkpt lat="43.15413" lon="3.16317">
        <ele>50</ele>
        <time>2026-02-22T10:00:55Z</time>
      </trkpt>
      <trkpt lat="43.15407" lon="3.16311">
        <ele>50</ele>
        <time>2026-02-22T10:00:57Z</time>
      </trkpt>
      <trkpt lat="43.15401" lon="3.16304">
        <ele>50</ele>
        <time>2026-02-22T10:00:59Z</time>
      </trkpt>
      <trkpt lat="43.15394" lon="3.16298">
        <ele>50</ele>
        <time>2026-02-22T10:01:01Z</time>
      </trkpt>
      <trkpt lat="43.15388" lon="3.16292">
        <ele>50</ele>
        <time>2026-02-22T10:01:03Z</time>
      </trkpt>
      <trkpt lat="43.15381" lon="3.16286">
        <ele>49</ele>
        <time>2026-02-22T10:01:05Z</time>
      </trkpt>
      <trkpt lat="43.15375" lon="3.1628">
        <ele>49</ele>
        <time>2026-02-22T10:01:07Z</time>
      </trkpt>
      <trkpt lat="43.15368" lon="3.16273">
        <ele>49</ele>
        <time>2026-02-22T10:01:09Z</time>
      </trkpt>
      <trkpt lat="43.15361" lon="3.16267">
        <ele>49</ele>
        <time>2026-02-22T10:01:11Z</time>
      </trkpt>
      <trkpt lat="43.15354" lon="3.1626">
        <ele>49</ele>
        <time>2026-02-22T10:01:13Z</time>
      </trkpt>
      <trkpt lat="43.15348" lon="3.16253">
        <ele>49</ele>
        <time>2026-02-22T10:01:15Z</time>
      </trkpt>
      <trkpt lat="43.15341" lon="3.16246">
        <ele>48</ele>
        <time>2026-02-22T10:01:17Z</time>
      </trkpt>
      <trkpt lat="43.15334" lon="3.1624">
        <ele>49</ele>
        <time>2026-02-22T10:01:19Z</time>
      </trkpt>
      <trkpt lat="43.15328" lon="3.16233">
        <ele>49</ele>
        <time>2026-02-22T10:01:21Z</time>
      </trkpt>
      <trkpt lat="43.15322" lon="3.16227">
        <ele>49</ele>
        <time>2026-02-22T10:01:23Z</time>
      </trkpt>
      <trkpt lat="43.15316" lon="3.16222">
        <ele>48</ele>
        <time>2026-02-22T10:01:25Z</time>
      </trkpt>
      <trkpt lat="43.1531" lon="3.16216">
        <ele>49</ele>
        <time>2026-02-22T10:01:27Z</time>
      </trkpt>
      <trkpt lat="43.15304" lon="3.16211">
        <ele>48</ele>
        <time>2026-02-22T10:01:29Z</time>
      </trkpt>
      <trkpt lat="43.15299" lon="3.16206">
        <ele>48</ele>
        <time>2026-02-22T10:01:31Z</time>
      </trkpt>
      <trkpt lat="43.15295" lon="3.16201">
        <ele>48</ele>
        <time>2026-02-22T10:01:33Z</time>
      </trkpt>
      <trkpt lat="43.1529" lon="3.16196">
        <ele>49</ele>
        <time>2026-02-22T10:01:35Z</time>
      </trkpt>
      <trkpt lat="43.15284" lon="3.1619">
        <ele>49</ele>
        <time>2026-02-22T10:01:37Z</time>
      </trkpt>
      <trkpt lat="43.15279" lon="3.16185">
        <ele>49</ele>
        <time>2026-02-22T10:01:39Z</time>
      </trkpt>
      <trkpt lat="43.15273" lon="3.1618">
        <ele>50</ele>
        <time>2026-02-22T10:01:41Z</time>
      </trkpt>
      <trkpt lat="43.15266" lon="3.16179">
        <ele>51</ele>
        <time>2026-02-22T10:01:43Z</time>
      </trkpt>
      <trkpt lat="43.1526" lon="3.16176">
        <ele>51</ele>
        <time>2026-02-22T10:01:45Z</time>
      </trkpt>
      <trkpt lat="43.15255" lon="3.16171">
        <ele>51</ele>
        <time>2026-02-22T10:01:47Z</time>
      </trkpt>
      <trkpt lat="43.15253" lon="3.16165">
        <ele>51</ele>
        <time>2026-02-22T10:01:49Z</time>
      </trkpt>
      <trkpt lat="43.15252" lon="3.16162">
        <ele>50</ele>
        <time>2026-02-22T10:01:51Z</time>
      </trkpt>
      <trkpt lat="43.15252" lon="3.16161">
        <ele>50</ele>
        <time>2026-02-22T10:01:53Z</time>
      </trkpt>
      <trkpt lat="43.15252" lon="3.16162">
        <ele>50</ele>
        <time>2026-02-22T10:01:55Z</time>
      </trkpt>
      <trkpt lat="43.15252" lon="3.16162">
        <ele>50</ele>
        <time>2026-02-22T10:01:57Z</time>
      </trkpt>
      <trkpt lat="43.15252" lon="3.16162">
        <ele>50</ele>
        <time>2026-02-22T10:01:59Z</time>
      </trkpt>
      <trkpt lat="43.15252" lon="3.16162">
        <ele>50</ele>
        <time>2026-02-22T10:02:01Z</time>
      </trkpt>
      <trkpt lat="43.15252" lon="3.16162">
        <ele>50</ele>
        <time>2026-02-22T10:02:03Z</time>
      </trkpt>
      <trkpt lat="43.15252" lon="3.16162">
        <ele>50</ele>
        <time>2026-02-22T10:02:05Z</time>
      </trkpt>
      <trkpt lat="43.15252" lon="3.16162">
        <ele>50</ele>
        <time>2026-02-22T10:02:07Z</time>
      </trkpt>
      <trkpt lat="43.15252" lon="3.16162">
        <ele>50</ele>
        <time>2026-02-22T10:02:09Z</time>
      </trkpt>
      <trkpt lat="43.15251" lon="3.1616">
        <ele>49</ele>
        <time>2026-02-22T10:02:11Z</time>
      </trkpt>
      <trkpt lat="43.15249" lon="3.16156">
        <ele>49</ele>
        <time>2026-02-22T10:02:13Z</time>
      </trkpt>
      <trkpt lat="43.15246" lon="3.16151">
        <ele>50</ele>
        <time>2026-02-22T10:02:15Z</time>
      </trkpt>
      <trkpt lat="43.15243" lon="3.16144">
        <ele>50</ele>
        <time>2026-02-22T10:02:17Z</time>
      </trkpt>
      <trkpt lat="43.15241" lon="3.16135">
        <ele>50</ele>
        <time>2026-02-22T10:02:19Z</time>
      </trkpt>
      <trkpt lat="43.15239" lon="3.16126">
        <ele>50</ele>
        <time>2026-02-22T10:02:21Z</time>
      </trkpt>
      <trkpt lat="43.15241" lon="3.16116">
        <ele>49</ele>
        <time>2026-02-22T10:02:23Z</time>
      </trkpt>
      <trkpt lat="43.15245" lon="3.16107">
        <ele>49</ele>
        <time>2026-02-22T10:02:25Z</time>
      </trkpt>
      <trkpt lat="43.1525" lon="3.16098">
        <ele>49</ele>
        <time>2026-02-22T10:02:27Z</time>
      </trkpt>
      <trkpt lat="43.15255" lon="3.16089">
        <ele>49</ele>
        <time>2026-02-22T10:02:29Z</time>
      </trkpt>
      <trkpt lat="43.15259" lon="3.16079">
        <ele>48</ele>
        <time>2026-02-22T10:02:31Z</time>
      </trkpt>
      <trkpt lat="43.15264" lon="3.1607">
        <ele>48</ele>
        <time>2026-02-22T10:02:33Z</time>
      </trkpt>
      <trkpt lat="43.15269" lon="3.1606">
        <ele>49</ele>
        <time>2026-02-22T10:02:35Z</time>
      </trkpt>
      <trkpt lat="43.15273" lon="3.16051">
        <ele>49</ele>
        <time>2026-02-22T10:02:37Z</time>
      </trkpt>
      <trkpt lat="43.15277" lon="3.16042">
        <ele>49</ele>
        <time>2026-02-22T10:02:39Z</time>
      </trkpt>
      <trkpt lat="43.15281" lon="3.16033">
        <ele>49</ele>
        <time>2026-02-22T10:02:41Z</time>
      </trkpt>
      <trkpt lat="43.15285" lon="3.16024">
        <ele>49</ele>
        <time>2026-02-22T10:02:43Z</time>
      </trkpt>
      <trkpt lat="43.15289" lon="3.16016">
        <ele>48</ele>
        <time>2026-02-22T10:02:45Z</time>
      </trkpt>
      <trkpt lat="43.15293" lon="3.16007">
        <ele>48</ele>
        <time>2026-02-22T10:02:47Z</time>
      </trkpt>
      <trkpt lat="43.15297" lon="3.15998">
        <ele>48</ele>
        <time>2026-02-22T10:02:49Z</time>
      </trkpt>
      <trkpt lat="43.15302" lon="3.15989">
        <ele>48</ele>
        <time>2026-02-22T10:02:51Z</time>
      </trkpt>
      <trkpt lat="43.15306" lon="3.1598">
        <ele>48</ele>
        <time>2026-02-22T10:02:53Z</time>
      </trkpt>
      <trkpt lat="43.15312" lon="3.15971">
        <ele>49</ele>
        <time>2026-02-22T10:02:55Z</time>
      </trkpt>
      <trkpt lat="43.15317" lon="3.15962">
        <ele>49</ele>
        <time>2026-02-22T10:02:57Z</time>
      </trkpt>
      <trkpt lat="43.15321" lon="3.15952">
        <ele>49</ele>
        <time>2026-02-22T10:02:59Z</time>
      </trkpt>
      <trkpt lat="43.15324" lon="3.15941">
        <ele>49</ele>
        <time>2026-02-22T10:03:01Z</time>
      </trkpt>
      <trkpt lat="43.15322" lon="3.15931">
        <ele>49</ele>
        <time>2026-02-22T10:03:03Z</time>
      </trkpt>
      <trkpt lat="43.15319" lon="3.15922">
        <ele>49</ele>
        <time>2026-02-22T10:03:05Z</time>
      </trkpt>
      <trkpt lat="43.15315" lon="3.15914">
        <ele>48</ele>
        <time>2026-02-22T10:03:07Z</time>
      </trkpt>
      <trkpt lat="43.15311" lon="3.15906">
        <ele>47</ele>
        <time>2026-02-22T10:03:09Z</time>
      </trkpt>
      <trkpt lat="43.15311" lon="3.15898">
        <ele>47</ele>
        <time>2026-02-22T10:03:11Z</time>
      </trkpt>
      <trkpt lat="43.1531" lon="3.15889">
        <ele>48</ele>
        <time>2026-02-22T10:03:13Z</time>
      </trkpt>
      <trkpt lat="43.15308" lon="3.15879">
        <ele>48</ele>
        <time>2026-02-22T10:03:15Z</time>
      </trkpt>
      <trkpt lat="43.15303" lon="3.1587">
        <ele>48</ele>
        <time>2026-02-22T10:03:17Z</time>
      </trkpt>
      <trkpt lat="43.15298" lon="3.15862">
        <ele>48</ele>
        <time>2026-02-22T10:03:19Z</time>
      </trkpt>
      <trkpt lat="43.15293" lon="3.15853">
        <ele>47</ele>
        <time>2026-02-22T10:03:21Z</time>
      </trkpt>
      <trkpt lat="43.15288" lon="3.15845">
        <ele>47</ele>
        <time>2026-02-22T10:03:23Z</time>
      </trkpt>
      <trkpt lat="43.15282" lon="3.15836">
        <ele>47</ele>
        <time>2026-02-22T10:03:25Z</time>
      </trkpt>
      <trkpt lat="43.15276" lon="3.15828">
        <ele>48</ele>
        <time>2026-02-22T10:03:27Z</time>
      </trkpt>
      <trkpt lat="43.15269" lon="3.15821">
        <ele>48</ele>
        <time>2026-02-22T10:03:29Z</time>
      </trkpt>
      <trkpt lat="43.15261" lon="3.15817">
        <ele>48</ele>
        <time>2026-02-22T10:03:31Z</time>
      </trkpt>
      <trkpt lat="43.15252" lon="3.15816">
        <ele>48</ele>
        <time>2026-02-22T10:03:33Z</time>
      </trkpt>
      <trkpt lat="43.15243" lon="3.15816">
        <ele>48</ele>
        <time>2026-02-22T10:03:35Z</time>
      </trkpt>
      <trkpt lat="43.15234" lon="3.15815">
        <ele>48</ele>
        <time>2026-02-22T10:03:37Z</time>
      </trkpt>
      <trkpt lat="43.15225" lon="3.15815">
        <ele>48</ele>
        <time>2026-02-22T10:03:39Z</time>
      </trkpt>
      <trkpt lat="43.15215" lon="3.15813">
        <ele>49</ele>
        <time>2026-02-22T10:03:41Z</time>
      </trkpt>
      <trkpt lat="43.15206" lon="3.1581">
        <ele>49</ele>
        <time>2026-02-22T10:03:43Z</time>
      </trkpt>
      <trkpt lat="43.15196" lon="3.15807">
        <ele>49</ele>
        <time>2026-02-22T10:03:45Z</time>
      </trkpt>
      <trkpt lat="43.15186" lon="3.15805">
        <ele>50</ele>
        <time>2026-02-22T10:03:47Z</time>
      </trkpt>
      <trkpt lat="43.15176" lon="3.15803">
        <ele>49</ele>
        <time>2026-02-22T10:03:49Z</time>
      </trkpt>
      <trkpt lat="43.15167" lon="3.15801">
        <ele>49</ele>
        <time>2026-02-22T10:03:51Z</time>
      </trkpt>
      <trkpt lat="43.15157" lon="3.15798">
        <ele>49</ele>
        <time>2026-02-22T10:03:53Z</time>
      </trkpt>
      <trkpt lat="43.15148" lon="3.15794">
        <ele>49</ele>
        <time>2026-02-22T10:03:55Z</time>
      </trkpt>
      <trkpt lat="43.15138" lon="3.1579">
        <ele>49</ele>
        <time>2026-02-22T10:03:57Z</time>
      </trkpt>
      <trkpt lat="43.15128" lon="3.15786">
        <ele>49</ele>
        <time>2026-02-22T10:03:59Z</time>
      </trkpt>
      <trkpt lat="43.15119" lon="3.15782">
        <ele>49</ele>
        <time>2026-02-22T10:04:01Z</time>
      </trkpt>
      <trkpt lat="43.1511" lon="3.15778">
        <ele>49</ele>
        <time>2026-02-22T10:04:03Z</time>
      </trkpt>
      <trkpt lat="43.151" lon="3.15773">
        <ele>49</ele>
        <time>2026-02-22T10:04:05Z</time>
      </trkpt>
      <trkpt lat="43.15092" lon="3.15768">
        <ele>49</ele>
        <time>2026-02-22T10:04:07Z</time>
      </trkpt>
      <trkpt lat="43.15083" lon="3.15762">
        <ele>49</ele>
        <time>2026-02-22T10:04:09Z</time>
      </trkpt>
      <trkpt lat="43.15075" lon="3.15756">
        <ele>49</ele>
        <time>2026-02-22T10:04:11Z</time>
      </trkpt>
      <trkpt lat="43.15066" lon="3.1575">
        <ele>49</ele>
        <time>2026-02-22T10:04:13Z</time>
      </trkpt>
      <trkpt lat="43.15058" lon="3.15745">
        <ele>49</ele>
        <time>2026-02-22T10:04:15Z</time>
      </trkpt>
      <trkpt lat="43.15049" lon="3.15738">
        <ele>49</ele>
        <time>2026-02-22T10:04:17Z</time>
      </trkpt>
      <trkpt lat="43.15041" lon="3.15731">
        <ele>49</ele>
        <time>2026-02-22T10:04:19Z</time>
      </trkpt>
      <trkpt lat="43.15034" lon="3.15724">
        <ele>49</ele>
        <time>2026-02-22T10:04:21Z</time>
      </trkpt>
      <trkpt lat="43.15026" lon="3.15717">
        <ele>48</ele>
        <time>2026-02-22T10:04:23Z</time>
      </trkpt>
      <trkpt lat="43.15018" lon="3.1571">
        <ele>48</ele>
        <time>2026-02-22T10:04:25Z</time>
      </trkpt>
      <trkpt lat="43.15012" lon="3.15703">
        <ele>49</ele>
        <time>2026-02-22T10:04:27Z</time>
      </trkpt>
      <trkpt lat="43.15005" lon="3.15695">
        <ele>48</ele>
        <time>2026-02-22T10:04:29Z</time>
      </trkpt>
      <trkpt lat="43.14998" lon="3.15688">
        <ele>48</ele>
        <time>2026-02-22T10:04:31Z</time>
      </trkpt>
      <trkpt lat="43.14992" lon="3.1568">
        <ele>48</ele>
        <time>2026-02-22T10:04:33Z</time>
      </trkpt>
      <trkpt lat="43.14985" lon="3.15673">
        <ele>48</ele>
        <time>2026-02-22T10:04:35Z</time>
      </trkpt>
      <trkpt lat="43.14979" lon="3.15665">
        <ele>48</ele>
        <time>2026-02-22T10:04:37Z</time>
      </trkpt>
      <trkpt lat="43.14973" lon="3.15658">
        <ele>48</ele>
        <time>2026-02-22T10:04:39Z</time>
      </trkpt>
      <trkpt lat="43.14967" lon="3.1565">
        <ele>48</ele>
        <time>2026-02-22T10:04:41Z</time>
      </trkpt>
      <trkpt lat="43.14961" lon="3.15641">
        <ele>49</ele>
        <time>2026-02-22T10:04:43Z</time>
      </trkpt>
      <trkpt lat="43.14956" lon="3.15632">
        <ele>49</ele>
        <time>2026-02-22T10:04:45Z</time>
      </trkpt>
      <trkpt lat="43.1495" lon="3.15624">
        <ele>50</ele>
        <time>2026-02-22T10:04:47Z</time>
      </trkpt>
      <trkpt lat="43.14945" lon="3.15615">
        <ele>50</ele>
        <time>2026-02-22T10:04:49Z</time>
      </trkpt>
      <trkpt lat="43.14939" lon="3.15606">
        <ele>49</ele>
        <time>2026-02-22T10:04:51Z</time>
      </trkpt>
      <trkpt lat="43.14934" lon="3.15597">
        <ele>49</ele>
        <time>2026-02-22T10:04:53Z</time>
      </trkpt>
      <trkpt lat="43.14928" lon="3.15588">
        <ele>48</ele>
        <time>2026-02-22T10:04:55Z</time>
      </trkpt>
      <trkpt lat="43.14923" lon="3.15579">
        <ele>48</ele>
        <time>2026-02-22T10:04:57Z</time>
      </trkpt>
      <trkpt lat="43.14918" lon="3.1557">
        <ele>48</ele>
        <time>2026-02-22T10:04:59Z</time>
      </trkpt>
      <trkpt lat="43.14913" lon="3.15562">
        <ele>48</ele>
        <time>2026-02-22T10:05:01Z</time>
      </trkpt>
      <trkpt lat="43.14907" lon="3.15552">
        <ele>48</ele>
        <time>2026-02-22T10:05:03Z</time>
      </trkpt>
      <trkpt lat="43.14901" lon="3.15544">
        <ele>48</ele>
        <time>2026-02-22T10:05:05Z</time>
      </trkpt>
      <trkpt lat="43.14895" lon="3.15536">
        <ele>49</ele>
        <time>2026-02-22T10:05:07Z</time>
      </trkpt>
      <trkpt lat="43.1489" lon="3.1553">
        <ele>49</ele>
        <time>2026-02-22T10:05:09Z</time>
      </trkpt>
      <trkpt lat="43.14885" lon="3.15523">
        <ele>49</ele>
        <time>2026-02-22T10:05:11Z</time>
      </trkpt>
      <trkpt lat="43.14881" lon="3.15516">
        <ele>49</ele>
        <time>2026-02-22T10:05:13Z</time>
      </trkpt>
      <trkpt lat="43.14877" lon="3.15507">
        <ele>49</ele>
        <time>2026-02-22T10:05:15Z</time>
      </trkpt>
      <trkpt lat="43.14873" lon="3.15496">
        <ele>49</ele>
        <time>2026-02-22T10:05:17Z</time>
      </trkpt>
      <trkpt lat="43.14868" lon="3.15486">
        <ele>49</ele>
        <time>2026-02-22T10:05:19Z</time>
      </trkpt>
      <trkpt lat="43.14862" lon="3.15476">
        <ele>49</ele>
        <time>2026-02-22T10:05:21Z</time>
      </trkpt>
      <trkpt lat="43.14856" lon="3.15466">
        <ele>49</ele>
        <time>2026-02-22T10:05:23Z</time>
      </trkpt>
      <trkpt lat="43.14851" lon="3.15456">
        <ele>49</ele>
        <time>2026-02-22T10:05:25Z</time>
      </trkpt>
      <trkpt lat="43.14845" lon="3.15447">
        <ele>48</ele>
        <time>2026-02-22T10:05:27Z</time>
      </trkpt>
      <trkpt lat="43.1484" lon="3.15437">
        <ele>48</ele>
        <time>2026-02-22T10:05:29Z</time>
      </trkpt>
      <trkpt lat="43.14834" lon="3.15428">
        <ele>48</ele>
        <time>2026-02-22T10:05:31Z</time>
      </trkpt>
      <trkpt lat="43.14829" lon="3.15419">
        <ele>48</ele>
        <time>2026-02-22T10:05:33Z</time>
      </trkpt>
      <trkpt lat="43.14823" lon="3.15409">
        <ele>48</ele>
        <time>2026-02-22T10:05:35Z</time>
      </trkpt>
      <trkpt lat="43.14818" lon="3.15401">
        <ele>48</ele>
        <time>2026-02-22T10:05:37Z</time>
      </trkpt>
      <trkpt lat="43.14812" lon="3.15393">
        <ele>48</ele>
        <time>2026-02-22T10:05:39Z</time>
      </trkpt>
      <trkpt lat="43.14807" lon="3.15384">
        <ele>48</ele>
        <time>2026-02-22T10:05:41Z</time>
      </trkpt>
      <trkpt lat="43.14802" lon="3.15376">
        <ele>48</ele>
        <time>2026-02-22T10:05:43Z</time>
      </trkpt>
      <trkpt lat="43.14796" lon="3.15367">
        <ele>48</ele>
        <time>2026-02-22T10:05:45Z</time>
      </trkpt>
      <trkpt lat="43.1479" lon="3.15359">
        <ele>48</ele>
        <time>2026-02-22T10:05:47Z</time>
      </trkpt>
      <trkpt lat="43.14785" lon="3.1535">
        <ele>48</ele>
        <time>2026-02-22T10:05:49Z</time>
      </trkpt>
      <trkpt lat="43.14779" lon="3.15342">
        <ele>47</ele>
        <time>2026-02-22T10:05:51Z</time>
      </trkpt>
      <trkpt lat="43.14772" lon="3.15335">
        <ele>48</ele>
        <time>2026-02-22T10:05:53Z</time>
      </trkpt>
      <trkpt lat="43.14767" lon="3.15327">
        <ele>48</ele>
        <time>2026-02-22T10:05:55Z</time>
      </trkpt>
      <trkpt lat="43.14764" lon="3.15317">
        <ele>48</ele>
        <time>2026-02-22T10:05:57Z</time>
      </trkpt>
      <trkpt lat="43.1476" lon="3.15307">
        <ele>48</ele>
        <time>2026-02-22T10:05:59Z</time>
      </trkpt>
      <trkpt lat="43.14755" lon="3.15298">
        <ele>47</ele>
        <time>2026-02-22T10:06:01Z</time>
      </trkpt>
      <trkpt lat="43.14749" lon="3.15289">
        <ele>47</ele>
        <time>2026-02-22T10:06:03Z</time>
      </trkpt>
      <trkpt lat="43.14744" lon="3.1528">
        <ele>48</ele>
        <time>2026-02-22T10:06:05Z</time>
      </trkpt>
      <trkpt lat="43.14738" lon="3.15271">
        <ele>48</ele>
        <time>2026-02-22T10:06:07Z</time>
      </trkpt>
      <trkpt lat="43.14733" lon="3.15261">
        <ele>48</ele>
        <time>2026-02-22T10:06:09Z</time>
      </trkpt>
      <trkpt lat="43.14728" lon="3.15252">
        <ele>48</ele>
        <time>2026-02-22T10:06:11Z</time>
      </trkpt>
      <trkpt lat="43.14723" lon="3.15243">
        <ele>49</ele>
        <time>2026-02-22T10:06:13Z</time>
      </trkpt>
      <trkpt lat="43.14718" lon="3.15233">
        <ele>48</ele>
        <time>2026-02-22T10:06:15Z</time>
      </trkpt>
      <trkpt lat="43.14712" lon="3.15224">
        <ele>48</ele>
        <time>2026-02-22T10:06:17Z</time>
      </trkpt>
      <trkpt lat="43.14708" lon="3.15214">
        <ele>48</ele>
        <time>2026-02-22T10:06:19Z</time>
      </trkpt>
      <trkpt lat="43.14703" lon="3.15205">
        <ele>48</ele>
        <time>2026-02-22T10:06:21Z</time>
      </trkpt>
      <trkpt lat="43.14698" lon="3.15196">
        <ele>48</ele>
        <time>2026-02-22T10:06:23Z</time>
      </trkpt>
      <trkpt lat="43.14692" lon="3.15186">
        <ele>48</ele>
        <time>2026-02-22T10:06:25Z</time>
      </trkpt>
      <trkpt lat="43.14687" lon="3.15177">
        <ele>49</ele>
        <time>2026-02-22T10:06:27Z</time>
      </trkpt>
      <trkpt lat="43.14681" lon="3.15168">
        <ele>49</ele>
        <time>2026-02-22T10:06:29Z</time>
      </trkpt>
      <trkpt lat="43.14676" lon="3.15159">
        <ele>49</ele>
        <time>2026-02-22T10:06:31Z</time>
      </trkpt>
      <trkpt lat="43.14671" lon="3.15149">
        <ele>49</ele>
        <time>2026-02-22T10:06:33Z</time>
      </trkpt>
      <trkpt lat="43.14666" lon="3.15141">
        <ele>49</ele>
        <time>2026-02-22T10:06:35Z</time>
      </trkpt>
      <trkpt lat="43.14661" lon="3.15132">
        <ele>49</ele>
        <time>2026-02-22T10:06:37Z</time>
      </trkpt>
      <trkpt lat="43.14656" lon="3.15123">
        <ele>49</ele>
        <time>2026-02-22T10:06:39Z</time>
      </trkpt>
      <trkpt lat="43.14651" lon="3.15114">
        <ele>48</ele>
        <time>2026-02-22T10:06:41Z</time>
      </trkpt>
      <trkpt lat="43.14647" lon="3.15105">
        <ele>48</ele>
        <time>2026-02-22T10:06:43Z</time>
      </trkpt>
      <trkpt lat="43.14642" lon="3.15096">
        <ele>47</ele>
        <time>2026-02-22T10:06:45Z</time>
      </trkpt>
      <trkpt lat="43.14637" lon="3.15087">
        <ele>48</ele>
        <time>2026-02-22T10:06:47Z</time>
      </trkpt>
      <trkpt lat="43.14632" lon="3.15078">
        <ele>48</ele>
        <time>2026-02-22T10:06:49Z</time>
      </trkpt>
      <trkpt lat="43.14628" lon="3.15068">
        <ele>49</ele>
        <time>2026-02-22T10:06:51Z</time>
      </trkpt>
      <trkpt lat="43.14623" lon="3.1506">
        <ele>49</ele>
        <time>2026-02-22T10:06:53Z</time>
      </trkpt>
      <trkpt lat="43.14619" lon="3.1505">
        <ele>49</ele>
        <time>2026-02-22T10:06:55Z</time>
      </trkpt>
      <trkpt lat="43.14615" lon="3.15041">
        <ele>49</ele>
        <time>2026-02-22T10:06:57Z</time>
      </trkpt>
      <trkpt lat="43.14611" lon="3.15032">
        <ele>48</ele>
        <time>2026-02-22T10:06:59Z</time>
      </trkpt>
      <trkpt lat="43.14607" lon="3.15023">
        <ele>48</ele>
        <time>2026-02-22T10:07:01Z</time>
      </trkpt>
      <trkpt lat="43.14603" lon="3.15013">
        <ele>48</ele>
        <time>2026-02-22T10:07:03Z</time>
      </trkpt>
      <trkpt lat="43.146" lon="3.15003">
        <ele>48</ele>
        <time>2026-02-22T10:07:05Z</time>
      </trkpt>
      <trkpt lat="43.14596" lon="3.14994">
        <ele>48</ele>
        <time>2026-02-22T10:07:07Z</time>
      </trkpt>
      <trkpt lat="43.14593" lon="3.14984">
        <ele>47</ele>
        <time>2026-02-22T10:07:09Z</time>
      </trkpt>
      <trkpt lat="43.14589" lon="3.14974">
        <ele>47</ele>
        <time>2026-02-22T10:07:11Z</time>
      </trkpt>
      <trkpt lat="43.14587" lon="3.14964">
        <ele>47</ele>
        <time>2026-02-22T10:07:13Z</time>
      </trkpt>
      <trkpt lat="43.14584" lon="3.14954">
        <ele>47</ele>
        <time>2026-02-22T10:07:15Z</time>
      </trkpt>
      <trkpt lat="43.14581" lon="3.14944">
        <ele>48</ele>
        <time>2026-02-22T10:07:17Z</time>
      </trkpt>
      <trkpt lat="43.14578" lon="3.14934">
        <ele>48</ele>
        <time>2026-02-22T10:07:19Z</time>
      </trkpt>
      <trkpt lat="43.14576" lon="3.14924">
        <ele>49</ele>
        <time>2026-02-22T10:07:21Z</time>
      </trkpt>
      <trkpt lat="43.14574" lon="3.14913">
        <ele>49</ele>
        <time>2026-02-22T10:07:23Z</time>
      </trkpt>
      <trkpt lat="43.14572" lon="3.14903">
        <ele>49</ele>
        <time>2026-02-22T10:07:25Z</time>
      </trkpt>
      <trkpt lat="43.1457" lon="3.14892">
        <ele>50</ele>
        <time>2026-02-22T10:07:27Z</time>
      </trkpt>
      <trkpt lat="43.14569" lon="3.14882">
        <ele>50</ele>
        <time>2026-02-22T10:07:29Z</time>
      </trkpt>
      <trkpt lat="43.14568" lon="3.14873">
        <ele>50</ele>
        <time>2026-02-22T10:07:31Z</time>
      </trkpt>
      <trkpt lat="43.14566" lon="3.14863">
        <ele>50</ele>
        <time>2026-02-22T10:07:33Z</time>
      </trkpt>
      <trkpt lat="43.14565" lon="3.14854">
        <ele>50</ele>
        <time>2026-02-22T10:07:35Z</time>
      </trkpt>
      <trkpt lat="43.14564" lon="3.14844">
        <ele>51</ele>
        <time>2026-02-22T10:07:37Z</time>
      </trkpt>
      <trkpt lat="43.14563" lon="3.14835">
        <ele>51</ele>
        <time>2026-02-22T10:07:39Z</time>
      </trkpt>
      <trkpt lat="43.14562" lon="3.14826">
        <ele>51</ele>
        <time>2026-02-22T10:07:41Z</time>
      </trkpt>
      <trkpt lat="43.14561" lon="3.14817">
        <ele>50</ele>
        <time>2026-02-22T10:07:43Z</time>
      </trkpt>
      <trkpt lat="43.1456" lon="3.14807">
        <ele>50</ele>
        <time>2026-02-22T10:07:45Z</time>
      </trkpt>
      <trkpt lat="43.14559" lon="3.14798">
        <ele>50</ele>
        <time>2026-02-22T10:07:47Z</time>
      </trkpt>
      <trkpt lat="43.14559" lon="3.14788">
        <ele>50</ele>
        <time>2026-02-22T10:07:49Z</time>
      </trkpt>
      <trkpt lat="43.14559" lon="3.14779">
        <ele>50</ele>
        <time>2026-02-22T10:07:51Z</time>
      </trkpt>
      <trkpt lat="43.14558" lon="3.1477">
        <ele>50</ele>
        <time>2026-02-22T10:07:53Z</time>
      </trkpt>
      <trkpt lat="43.14558" lon="3.1476">
        <ele>50</ele>
        <time>2026-02-22T10:07:55Z</time>
      </trkpt>
      <trkpt lat="43.14557" lon="3.14751">
        <ele>49</ele>
        <time>2026-02-22T10:07:57Z</time>
      </trkpt>
      <trkpt lat="43.14557" lon="3.14742">
        <ele>49</ele>
        <time>2026-02-22T10:07:59Z</time>
      </trkpt>
      <trkpt lat="43.14556" lon="3.14732">
        <ele>49</ele>
        <time>2026-02-22T10:08:01Z</time>
      </trkpt>
      <trkpt lat="43.14555" lon="3.14722">
        <ele>49</ele>
        <time>2026-02-22T10:08:03Z</time>
      </trkpt>
      <trkpt lat="43.14554" lon="3.14713">
        <ele>50</ele>
        <time>2026-02-22T10:08:05Z</time>
      </trkpt>
      <trkpt lat="43.14552" lon="3.14704">
        <ele>49</ele>
        <time>2026-02-22T10:08:07Z</time>
      </trkpt>
      <trkpt lat="43.14552" lon="3.14696">
        <ele>49</ele>
        <time>2026-02-22T10:08:09Z</time>
      </trkpt>
      <trkpt lat="43.14552" lon="3.14687">
        <ele>49</ele>
        <time>2026-02-22T10:08:11Z</time>
      </trkpt>
      <trkpt lat="43.14552" lon="3.14678">
        <ele>48</ele>
        <time>2026-02-22T10:08:13Z</time>
      </trkpt>
      <trkpt lat="43.14553" lon="3.14669">
        <ele>48</ele>
        <time>2026-02-22T10:08:15Z</time>
      </trkpt>
      <trkpt lat="43.14552" lon="3.14659">
        <ele>48</ele>
        <time>2026-02-22T10:08:17Z</time>
      </trkpt>
      <trkpt lat="43.14552" lon="3.14651">
        <ele>48</ele>
        <time>2026-02-22T10:08:19Z</time>
      </trkpt>
      <trkpt lat="43.14552" lon="3.14643">
        <ele>48</ele>
        <time>2026-02-22T10:08:21Z</time>
      </trkpt>
      <trkpt lat="43.14552" lon="3.14635">
        <ele>48</ele>
        <time>2026-02-22T10:08:23Z</time>
      </trkpt>
      <trkpt lat="43.14552" lon="3.14626">
        <ele>48</ele>
        <time>2026-02-22T10:08:25Z</time>
      </trkpt>
      <trkpt lat="43.14552" lon="3.14616">
        <ele>49</ele>
        <time>2026-02-22T10:08:27Z</time>
      </trkpt>
      <trkpt lat="43.14551" lon="3.14606">
        <ele>48</ele>
        <time>2026-02-22T10:08:29Z</time>
      </trkpt>
      <trkpt lat="43.14551" lon="3.14596">
        <ele>49</ele>
        <time>2026-02-22T10:08:31Z</time>
      </trkpt>
      <trkpt lat="43.1455" lon="3.14586">
        <ele>49</ele>
        <time>2026-02-22T10:08:33Z</time>
      </trkpt>
      <trkpt lat="43.1455" lon="3.14576">
        <ele>49</ele>
        <time>2026-02-22T10:08:35Z</time>
      </trkpt>
      <trkpt lat="43.1455" lon="3.14566">
        <ele>49</ele>
        <time>2026-02-22T10:08:37Z</time>
      </trkpt>
      <trkpt lat="43.1455" lon="3.14555">
        <ele>50</ele>
        <time>2026-02-22T10:08:39Z</time>
      </trkpt>
      <trkpt lat="43.14549" lon="3.14545">
        <ele>50</ele>
        <time>2026-02-22T10:08:41Z</time>
      </trkpt>
      <trkpt lat="43.14547" lon="3.14535">
        <ele>50</ele>
        <time>2026-02-22T10:08:43Z</time>
      </trkpt>
      <trkpt lat="43.14546" lon="3.14526">
        <ele>50</ele>
        <time>2026-02-22T10:08:45Z</time>
      </trkpt>
      <trkpt lat="43.14543" lon="3.14519">
        <ele>50</ele>
        <time>2026-02-22T10:08:47Z</time>
      </trkpt>
      <trkpt lat="43.14538" lon="3.14512">
        <ele>50</ele>
        <time>2026-02-22T10:08:49Z</time>
      </trkpt>
      <trkpt lat="43.14533" lon="3.14507">
        <ele>49</ele>
        <time>2026-02-22T10:08:51Z</time>
      </trkpt>
      <trkpt lat="43.14527" lon="3.14505">
        <ele>49</ele>
        <time>2026-02-22T10:08:53Z</time>
      </trkpt>
      <trkpt lat="43.14519" lon="3.14508">
        <ele>49</ele>
        <time>2026-02-22T10:08:55Z</time>
      </trkpt>
      <trkpt lat="43.14512" lon="3.14513">
        <ele>49</ele>
        <time>2026-02-22T10:08:57Z</time>
      </trkpt>
      <trkpt lat="43.14505" lon="3.14518">
        <ele>49</ele>
        <time>2026-02-22T10:08:59Z</time>
      </trkpt>
      <trkpt lat="43.14498" lon="3.14515">
        <ele>49</ele>
        <time>2026-02-22T10:09:01Z</time>
      </trkpt>
      <trkpt lat="43.14494" lon="3.14507">
        <ele>49</ele>
        <time>2026-02-22T10:09:03Z</time>
      </trkpt>
      <trkpt lat="43.1449" lon="3.14498">
        <ele>50</ele>
        <time>2026-02-22T10:09:05Z</time>
      </trkpt>
      <trkpt lat="43.14485" lon="3.14488">
        <ele>50</ele>
        <time>2026-02-22T10:09:07Z</time>
      </trkpt>
      <trkpt lat="43.14482" lon="3.14479">
        <ele>50</ele>
        <time>2026-02-22T10:09:09Z</time>
      </trkpt>
      <trkpt lat="43.1448" lon="3.14469">
        <ele>49</ele>
        <time>2026-02-22T10:09:11Z</time>
      </trkpt>
      <trkpt lat="43.1448" lon="3.14459">
        <ele>49</ele>
        <time>2026-02-22T10:09:13Z</time>
      </trkpt>
      <trkpt lat="43.14482" lon="3.14449">
        <ele>49</ele>
        <time>2026-02-22T10:09:15Z</time>
      </trkpt>
      <trkpt lat="43.14484" lon="3.14439">
        <ele>49</ele>
        <time>2026-02-22T10:09:17Z</time>
      </trkpt>
      <trkpt lat="43.14486" lon="3.14429">
        <ele>49</ele>
        <time>2026-02-22T10:09:19Z</time>
      </trkpt>
      <trkpt lat="43.14487" lon="3.1442">
        <ele>49</ele>
        <time>2026-02-22T10:09:21Z</time>
      </trkpt>
      <trkpt lat="43.14489" lon="3.1441">
        <ele>49</ele>
        <time>2026-02-22T10:09:23Z</time>
      </trkpt>
      <trkpt lat="43.1449" lon="3.144">
        <ele>49</ele>
        <time>2026-02-22T10:09:25Z</time>
      </trkpt>
      <trkpt lat="43.14489" lon="3.1439">
        <ele>49</ele>
        <time>2026-02-22T10:09:27Z</time>
      </trkpt>
      <trkpt lat="43.14489" lon="3.14381">
        <ele>48</ele>
        <time>2026-02-22T10:09:29Z</time>
      </trkpt>
      <trkpt lat="43.14487" lon="3.14371">
        <ele>48</ele>
        <time>2026-02-22T10:09:31Z</time>
      </trkpt>
      <trkpt lat="43.14485" lon="3.14361">
        <ele>49</ele>
        <time>2026-02-22T10:09:33Z</time>
      </trkpt>
      <trkpt lat="43.14483" lon="3.14351">
        <ele>48</ele>
        <time>2026-02-22T10:09:35Z</time>
      </trkpt>
      <trkpt lat="43.1448" lon="3.14341">
        <ele>48</ele>
        <time>2026-02-22T10:09:37Z</time>
      </trkpt>
      <trkpt lat="43.14477" lon="3.14332">
        <ele>47</ele>
        <time>2026-02-22T10:09:39Z</time>
      </trkpt>
      <trkpt lat="43.14473" lon="3.14323">
        <ele>47</ele>
        <time>2026-02-22T10:09:41Z</time>
      </trkpt>
      <trkpt lat="43.14469" lon="3.14315">
        <ele>47</ele>
        <time>2026-02-22T10:09:43Z</time>
      </trkpt>
      <trkpt lat="43.14465" lon="3.14307">
        <ele>47</ele>
        <time>2026-02-22T10:09:45Z</time>
      </trkpt>
      <trkpt lat="43.1446" lon="3.14299">
        <ele>47</ele>
        <time>2026-02-22T10:09:47Z</time>
      </trkpt>
      <trkpt lat="43.14455" lon="3.14291">
        <ele>47</ele>
        <time>2026-02-22T10:09:49Z</time>
      </trkpt>
      <trkpt lat="43.1445" lon="3.14284">
        <ele>47</ele>
        <time>2026-02-22T10:09:51Z</time>
      </trkpt>
      <trkpt lat="43.14444" lon="3.14278">
        <ele>48</ele>
        <time>2026-02-22T10:09:53Z</time>
      </trkpt>
      <trkpt lat="43.14438" lon="3.14272">
        <ele>48</ele>
        <time>2026-02-22T10:09:55Z</time>
      </trkpt>
      <trkpt lat="43.14434" lon="3.14266">
        <ele>49</ele>
        <time>2026-02-22T10:09:57Z</time>
      </trkpt>
      <trkpt lat="43.14429" lon="3.14259">
        <ele>49</ele>
        <time>2026-02-22T10:09:59Z</time>
      </trkpt>
      <trkpt lat="43.14425" lon="3.14253">
        <ele>49</ele>
        <time>2026-02-22T10:10:01Z</time>
      </trkpt>
      <trkpt lat="43.14421" lon="3.14247">
        <ele>49</ele>
        <time>2026-02-22T10:10:03Z</time>
      </trkpt>
      <trkpt lat="43.14416" lon="3.14241">
        <ele>50</ele>
        <time>2026-02-22T10:10:05Z</time>
      </trkpt>
      <trkpt lat="43.14412" lon="3.14235">
        <ele>50</ele>
        <time>2026-02-22T10:10:07Z</time>
      </trkpt>
      <trkpt lat="43.14407" lon="3.14229">
        <ele>49</ele>
        <time>2026-02-22T10:10:09Z</time>
      </trkpt>
      <trkpt lat="43.14402" lon="3.14224">
        <ele>49</ele>
        <time>2026-02-22T10:10:11Z</time>
      </trkpt>
      <trkpt lat="43.14396" lon="3.14218">
        <ele>49</ele>
        <time>2026-02-22T10:10:13Z</time>
      </trkpt>
      <trkpt lat="43.1439" lon="3.14213">
        <ele>49</ele>
        <time>2026-02-22T10:10:15Z</time>
      </trkpt>
      <trkpt lat="43.14384" lon="3.14208">
        <ele>50</ele>
        <time>2026-02-22T10:10:17Z</time>
      </trkpt>
      <trkpt lat="43.14379" lon="3.14202">
        <ele>50</ele>
        <time>2026-02-22T10:10:19Z</time>
      </trkpt>
      <trkpt lat="43.14373" lon="3.14196">
        <ele>50</ele>
        <time>2026-02-22T10:10:21Z</time>
      </trkpt>
      <trkpt lat="43.14367" lon="3.1419">
        <ele>50</ele>
        <time>2026-02-22T10:10:23Z</time>
      </trkpt>
      <trkpt lat="43.14361" lon="3.14185">
        <ele>50</ele>
        <time>2026-02-22T10:10:25Z</time>
      </trkpt>
      <trkpt lat="43.14355" lon="3.14179">
        <ele>51</ele>
        <time>2026-02-22T10:10:27Z</time>
      </trkpt>
      <trkpt lat="43.14349" lon="3.14174">
        <ele>51</ele>
        <time>2026-02-22T10:10:29Z</time>
      </trkpt>
      <trkpt lat="43.14343" lon="3.14168">
        <ele>51</ele>
        <time>2026-02-22T10:10:31Z</time>
      </trkpt>
      <trkpt lat="43.14336" lon="3.14162">
        <ele>51</ele>
        <time>2026-02-22T10:10:33Z</time>
      </trkpt>
      <trkpt lat="43.1433" lon="3.14156">
        <ele>50</ele>
        <time>2026-02-22T10:10:35Z</time>
      </trkpt>
      <trkpt lat="43.14324" lon="3.1415">
        <ele>51</ele>
        <time>2026-02-22T10:10:37Z</time>
      </trkpt>
      <trkpt lat="43.14318" lon="3.14144">
        <ele>51</ele>
        <time>2026-02-22T10:10:39Z</time>
      </trkpt>
      <trkpt lat="43.14312" lon="3.14138">
        <ele>51</ele>
        <time>2026-02-22T10:10:41Z</time>
      </trkpt>
      <trkpt lat="43.14305" lon="3.14132">
        <ele>51</ele>
        <time>2026-02-22T10:10:43Z</time>
      </trkpt>
      <trkpt lat="43.14299" lon="3.14126">
        <ele>51</ele>
        <time>2026-02-22T10:10:45Z</time>
      </trkpt>
      <trkpt lat="43.14292" lon="3.14119">
        <ele>51</ele>
        <time>2026-02-22T10:10:47Z</time>
      </trkpt>
      <trkpt lat="43.14286" lon="3.14113">
        <ele>51</ele>
        <time>2026-02-22T10:10:49Z</time>
      </trkpt>
      <trkpt lat="43.14279" lon="3.14106">
        <ele>52</ele>
        <time>2026-02-22T10:10:51Z</time>
      </trkpt>
      <trkpt lat="43.14273" lon="3.14099">
        <ele>52</ele>
        <time>2026-02-22T10:10:53Z</time>
      </trkpt>
      <trkpt lat="43.14265" lon="3.14094">
        <ele>52</ele>
        <time>2026-02-22T10:10:55Z</time>
      </trkpt>
      <trkpt lat="43.14259" lon="3.14087">
        <ele>51</ele>
        <time>2026-02-22T10:10:57Z</time>
      </trkpt>
      <trkpt lat="43.14253" lon="3.14082">
        <ele>51</ele>
        <time>2026-02-22T10:10:59Z</time>
      </trkpt>
      <trkpt lat="43.14247" lon="3.14076">
        <ele>51</ele>
        <time>2026-02-22T10:11:01Z</time>
      </trkpt>
      <trkpt lat="43.14241" lon="3.1407">
        <ele>51</ele>
        <time>2026-02-22T10:11:03Z</time>
      </trkpt>
      <trkpt lat="43.14235" lon="3.14063">
        <ele>51</ele>
        <time>2026-02-22T10:11:05Z</time>
      </trkpt>
      <trkpt lat="43.14228" lon="3.14057">
        <ele>50</ele>
        <time>2026-02-22T10:11:07Z</time>
      </trkpt>
      <trkpt lat="43.14222" lon="3.14052">
        <ele>50</ele>
        <time>2026-02-22T10:11:09Z</time>
      </trkpt>
      <trkpt lat="43.14215" lon="3.14046">
        <ele>49</ele>
        <time>2026-02-22T10:11:11Z</time>
      </trkpt>
      <trkpt lat="43.14209" lon="3.14039">
        <ele>49</ele>
        <time>2026-02-22T10:11:13Z</time>
      </trkpt>
      <trkpt lat="43.14202" lon="3.14032">
        <ele>49</ele>
        <time>2026-02-22T10:11:15Z</time>
      </trkpt>
      <trkpt lat="43.14196" lon="3.14026">
        <ele>49</ele>
        <time>2026-02-22T10:11:17Z</time>
      </trkpt>
      <trkpt lat="43.1419" lon="3.14019">
        <ele>50</ele>
        <time>2026-02-22T10:11:19Z</time>
      </trkpt>
      <trkpt lat="43.14184" lon="3.14013">
        <ele>50</ele>
        <time>2026-02-22T10:11:21Z</time>
      </trkpt>
      <trkpt lat="43.14178" lon="3.14007">
        <ele>51</ele>
        <time>2026-02-22T10:11:23Z</time>
      </trkpt>
      <trkpt lat="43.14173" lon="3.14001">
        <ele>50</ele>
        <time>2026-02-22T10:11:25Z</time>
      </trkpt>
      <trkpt lat="43.14167" lon="3.13995">
        <ele>51</ele>
        <time>2026-02-22T10:11:27Z</time>
      </trkpt>
      <trkpt lat="43.14161" lon="3.1399">
        <ele>51</ele>
        <time>2026-02-22T10:11:29Z</time>
      </trkpt>
      <trkpt lat="43.14155" lon="3.13984">
        <ele>50</ele>
        <time>2026-02-22T10:11:31Z</time>
      </trkpt>
      <trkpt lat="43.1415" lon="3.13976">
        <ele>50</ele>
        <time>2026-02-22T10:11:33Z</time>
      </trkpt>
      <trkpt lat="43.14143" lon="3.13971">
        <ele>49</ele>
        <time>2026-02-22T10:11:35Z</time>
      </trkpt>
      <trkpt lat="43.14137" lon="3.13965">
        <ele>49</ele>
        <time>2026-02-22T10:11:37Z</time>
      </trkpt>
      <trkpt lat="43.14131" lon="3.13958">
        <ele>49</ele>
        <time>2026-02-22T10:11:39Z</time>
      </trkpt>
      <trkpt lat="43.14125" lon="3.13951">
        <ele>49</ele>
        <time>2026-02-22T10:11:41Z</time>
      </trkpt>
      <trkpt lat="43.14118" lon="3.13945">
        <ele>49</ele>
        <time>2026-02-22T10:11:43Z</time>
      </trkpt>
      <trkpt lat="43.14111" lon="3.13938">
        <ele>49</ele>
        <time>2026-02-22T10:11:45Z</time>
      </trkpt>
      <trkpt lat="43.14105" lon="3.13932">
        <ele>50</ele>
        <time>2026-02-22T10:11:47Z</time>
      </trkpt>
      <trkpt lat="43.14097" lon="3.13926">
        <ele>50</ele>
        <time>2026-02-22T10:11:49Z</time>
      </trkpt>
      <trkpt lat="43.1409" lon="3.1392">
        <ele>49</ele>
        <time>2026-02-22T10:11:51Z</time>
      </trkpt>
      <trkpt lat="43.14083" lon="3.13913">
        <ele>50</ele>
        <time>2026-02-22T10:11:53Z</time>
      </trkpt>
      <trkpt lat="43.14076" lon="3.13907">
        <ele>50</ele>
        <time>2026-02-22T10:11:55Z</time>
      </trkpt>
      <trkpt lat="43.14069" lon="3.13901">
        <ele>50</ele>
        <time>2026-02-22T10:11:57Z</time>
      </trkpt>
      <trkpt lat="43.14062" lon="3.13895">
        <ele>50</ele>
        <time>2026-02-22T10:11:59Z</time>
      </trkpt>
      <trkpt lat="43.14055" lon="3.13888">
        <ele>50</ele>
        <time>2026-02-22T10:12:01Z</time>
      </trkpt>
      <trkpt lat="43.14048" lon="3.13881">
        <ele>49</ele>
        <time>2026-02-22T10:12:03Z</time>
      </trkpt>
      <trkpt lat="43.14042" lon="3.13875">
        <ele>49</ele>
        <time>2026-02-22T10:12:05Z</time>
      </trkpt>
      <trkpt lat="43.14035" lon="3.13868">
        <ele>50</ele>
        <time>2026-02-22T10:12:07Z</time>
      </trkpt>
      <trkpt lat="43.14028" lon="3.13861">
        <ele>50</ele>
        <time>2026-02-22T10:12:09Z</time>
      </trkpt>
      <trkpt lat="43.14021" lon="3.13854">
        <ele>51</ele>
        <time>2026-02-22T10:12:11Z</time>
      </trkpt>
      <trkpt lat="43.14014" lon="3.13847">
        <ele>52</ele>
        <time>2026-02-22T10:12:13Z</time>
      </trkpt>
      <trkpt lat="43.14007" lon="3.13841">
        <ele>52</ele>
        <time>2026-02-22T10:12:15Z</time>
      </trkpt>
      <trkpt lat="43.14" lon="3.13835">
        <ele>51</ele>
        <time>2026-02-22T10:12:17Z</time>
      </trkpt>
      <trkpt lat="43.13993" lon="3.13828">
        <ele>51</ele>
        <time>2026-02-22T10:12:19Z</time>
      </trkpt>
      <trkpt lat="43.13986" lon="3.13823">
        <ele>50</ele>
        <time>2026-02-22T10:12:21Z</time>
      </trkpt>
      <trkpt lat="43.1398" lon="3.13816">
        <ele>50</ele>
        <time>2026-02-22T10:12:23Z</time>
      </trkpt>
      <trkpt lat="43.13973" lon="3.13809">
        <ele>50</ele>
        <time>2026-02-22T10:12:25Z</time>
      </trkpt>
      <trkpt lat="43.13966" lon="3.13803">
        <ele>49</ele>
        <time>2026-02-22T10:12:27Z</time>
      </trkpt>
      <trkpt lat="43.13959" lon="3.13796">
        <ele>50</ele>
        <time>2026-02-22T10:12:29Z</time>
      </trkpt>
      <trkpt lat="43.13952" lon="3.13789">
        <ele>50</ele>
        <time>2026-02-22T10:12:31Z</time>
      </trkpt>
      <trkpt lat="43.13946" lon="3.13782">
        <ele>50</ele>
        <time>2026-02-22T10:12:33Z</time>
      </trkpt>
      <trkpt lat="43.1394" lon="3.13775">
        <ele>49</ele>
        <time>2026-02-22T10:12:35Z</time>
      </trkpt>
      <trkpt lat="43.13933" lon="3.13769">
        <ele>49</ele>
        <time>2026-02-22T10:12:37Z</time>
      </trkpt>
      <trkpt lat="43.13927" lon="3.13762">
        <ele>49</ele>
        <time>2026-02-22T10:12:39Z</time>
      </trkpt>
      <trkpt lat="43.1392" lon="3.13756">
        <ele>48</ele>
        <time>2026-02-22T10:12:41Z</time>
      </trkpt>
      <trkpt lat="43.13913" lon="3.1375">
        <ele>48</ele>
        <time>2026-02-22T10:12:43Z</time>
      </trkpt>
      <trkpt lat="43.13906" lon="3.13743">
        <ele>48</ele>
        <time>2026-02-22T10:12:45Z</time>
      </trkpt>
      <trkpt lat="43.13899" lon="3.13737">
        <ele>48</ele>
        <time>2026-02-22T10:12:47Z</time>
      </trkpt>
      <trkpt lat="43.13892" lon="3.13731">
        <ele>48</ele>
        <time>2026-02-22T10:12:49Z</time>
      </trkpt>
      <trkpt lat="43.13885" lon="3.13725">
        <ele>49</ele>
        <time>2026-02-22T10:12:51Z</time>
      </trkpt>
      <trkpt lat="43.13878" lon="3.13719">
        <ele>49</ele>
        <time>2026-02-22T10:12:53Z</time>
      </trkpt>
      <trkpt lat="43.13871" lon="3.13713">
        <ele>49</ele>
        <time>2026-02-22T10:12:55Z</time>
      </trkpt>
      <trkpt lat="43.13865" lon="3.13706">
        <ele>49</ele>
        <time>2026-02-22T10:12:57Z</time>
      </trkpt>
      <trkpt lat="43.13859" lon="3.137">
        <ele>48</ele>
        <time>2026-02-22T10:12:59Z</time>
      </trkpt>
      <trkpt lat="43.13852" lon="3.13693">
        <ele>48</ele>
        <time>2026-02-22T10:13:01Z</time>
      </trkpt>
      <trkpt lat="43.13845" lon="3.13687">
        <ele>48</ele>
        <time>2026-02-22T10:13:03Z</time>
      </trkpt>
      <trkpt lat="43.13838" lon="3.1368">
        <ele>49</ele>
        <time>2026-02-22T10:13:05Z</time>
      </trkpt>
      <trkpt lat="43.13831" lon="3.13673">
        <ele>49</ele>
        <time>2026-02-22T10:13:07Z</time>
      </trkpt>
      <trkpt lat="43.13823" lon="3.13666">
        <ele>49</ele>
        <time>2026-02-22T10:13:09Z</time>
      </trkpt>
      <trkpt lat="43.13817" lon="3.13659">
        <ele>49</ele>
        <time>2026-02-22T10:13:11Z</time>
      </trkpt>
      <trkpt lat="43.1381" lon="3.13653">
        <ele>48</ele>
        <time>2026-02-22T10:13:13Z</time>
      </trkpt>
      <trkpt lat="43.13803" lon="3.13647">
        <ele>49</ele>
        <time>2026-02-22T10:13:15Z</time>
      </trkpt>
      <trkpt lat="43.13797" lon="3.1364">
        <ele>49</ele>
        <time>2026-02-22T10:13:17Z</time>
      </trkpt>
      <trkpt lat="43.1379" lon="3.13634">
        <ele>48</ele>
        <time>2026-02-22T10:13:19Z</time>
      </trkpt>
      <trkpt lat="43.13784" lon="3.13627">
        <ele>48</ele>
        <time>2026-02-22T10:13:21Z</time>
      </trkpt>
      <trkpt lat="43.13777" lon="3.13621">
        <ele>48</ele>
        <time>2026-02-22T10:13:23Z</time>
      </trkpt>
      <trkpt lat="43.13769" lon="3.13614">
        <ele>48</ele>
        <time>2026-02-22T10:13:25Z</time>
      </trkpt>
      <trkpt lat="43.13762" lon="3.13608">
        <ele>48</ele>
        <time>2026-02-22T10:13:27Z</time>
      </trkpt>
      <trkpt lat="43.13756" lon="3.13601">
        <ele>48</ele>
        <time>2026-02-22T10:13:29Z</time>
      </trkpt>
      <trkpt lat="43.13749" lon="3.13595">
        <ele>48</ele>
        <time>2026-02-22T10:13:31Z</time>
      </trkpt>
      <trkpt lat="43.13743" lon="3.13589">
        <ele>48</ele>
        <time>2026-02-22T10:13:33Z</time>
      </trkpt>
      <trkpt lat="43.13737" lon="3.13583">
        <ele>48</ele>
        <time>2026-02-22T10:13:35Z</time>
      </trkpt>
      <trkpt lat="43.13731" lon="3.13577">
        <ele>48</ele>
        <time>2026-02-22T10:13:37Z</time>
      </trkpt>
      <trkpt lat="43.13725" lon="3.13571">
        <ele>47</ele>
        <time>2026-02-22T10:13:39Z</time>
      </trkpt>
      <trkpt lat="43.13719" lon="3.13565">
        <ele>47</ele>
        <time>2026-02-22T10:13:41Z</time>
      </trkpt>
      <trkpt lat="43.13712" lon="3.13561">
        <ele>48</ele>
        <time>2026-02-22T10:13:43Z</time>
      </trkpt>
      <trkpt lat="43.13705" lon="3.13555">
        <ele>48</ele>
        <time>2026-02-22T10:13:45Z</time>
      </trkpt>
      <trkpt lat="43.13699" lon="3.13548">
        <ele>48</ele>
        <time>2026-02-22T10:13:47Z</time>
      </trkpt>
      <trkpt lat="43.13692" lon="3.13542">
        <ele>49</ele>
        <time>2026-02-22T10:13:49Z</time>
      </trkpt>
      <trkpt lat="43.13686" lon="3.13535">
        <ele>49</ele>
        <time>2026-02-22T10:13:51Z</time>
      </trkpt>
      <trkpt lat="43.13679" lon="3.13529">
        <ele>49</ele>
        <time>2026-02-22T10:13:53Z</time>
      </trkpt>
      <trkpt lat="43.13673" lon="3.13522">
        <ele>49</ele>
        <time>2026-02-22T10:13:55Z</time>
      </trkpt>
      <trkpt lat="43.13667" lon="3.13517">
        <ele>48</ele>
        <time>2026-02-22T10:13:57Z</time>
      </trkpt>
      <trkpt lat="43.13662" lon="3.13512">
        <ele>48</ele>
        <time>2026-02-22T10:13:59Z</time>
      </trkpt>
      <trkpt lat="43.13657" lon="3.13507">
        <ele>48</ele>
        <time>2026-02-22T10:14:01Z</time>
      </trkpt>
      <trkpt lat="43.13652" lon="3.13502">
        <ele>48</ele>
        <time>2026-02-22T10:14:03Z</time>
      </trkpt>
      <trkpt lat="43.13647" lon="3.13497">
        <ele>48</ele>
        <time>2026-02-22T10:14:05Z</time>
      </trkpt>
      <trkpt lat="43.13641" lon="3.13491">
        <ele>48</ele>
        <time>2026-02-22T10:14:07Z</time>
      </trkpt>
      <trkpt lat="43.13635" lon="3.13485">
        <ele>48</ele>
        <time>2026-02-22T10:14:09Z</time>
      </trkpt>
      <trkpt lat="43.13629" lon="3.1348">
        <ele>48</ele>
        <time>2026-02-22T10:14:11Z</time>
      </trkpt>
      <trkpt lat="43.13621" lon="3.13478">
        <ele>48</ele>
        <time>2026-02-22T10:14:13Z</time>
      </trkpt>
      <trkpt lat="43.13613" lon="3.13475">
        <ele>48</ele>
        <time>2026-02-22T10:14:15Z</time>
      </trkpt>
      <trkpt lat="43.13606" lon="3.13472">
        <ele>48</ele>
        <time>2026-02-22T10:14:17Z</time>
      </trkpt>
      <trkpt lat="43.13598" lon="3.13468">
        <ele>49</ele>
        <time>2026-02-22T10:14:19Z</time>
      </trkpt>
      <trkpt lat="43.13592" lon="3.13463">
        <ele>49</ele>
        <time>2026-02-22T10:14:21Z</time>
      </trkpt>
      <trkpt lat="43.13585" lon="3.13458">
        <ele>49</ele>
        <time>2026-02-22T10:14:23Z</time>
      </trkpt>
      <trkpt lat="43.13579" lon="3.13452">
        <ele>49</ele>
        <time>2026-02-22T10:14:25Z</time>
      </trkpt>
      <trkpt lat="43.13574" lon="3.13445">
        <ele>49</ele>
        <time>2026-02-22T10:14:27Z</time>
      </trkpt>
      <trkpt lat="43.13569" lon="3.13439">
        <ele>49</ele>
        <time>2026-02-22T10:14:29Z</time>
      </trkpt>
      <trkpt lat="43.13564" lon="3.13432">
        <ele>50</ele>
        <time>2026-02-22T10:14:31Z</time>
      </trkpt>
      <trkpt lat="43.13559" lon="3.13425">
        <ele>50</ele>
        <time>2026-02-22T10:14:33Z</time>
      </trkpt>
      <trkpt lat="43.13553" lon="3.13419">
        <ele>50</ele>
        <time>2026-02-22T10:14:35Z</time>
      </trkpt>
      <trkpt lat="43.13546" lon="3.13415">
        <ele>50</ele>
        <time>2026-02-22T10:14:37Z</time>
      </trkpt>
      <trkpt lat="43.13539" lon="3.13411">
        <ele>50</ele>
        <time>2026-02-22T10:14:39Z</time>
      </trkpt>
      <trkpt lat="43.13533" lon="3.13407">
        <ele>50</ele>
        <time>2026-02-22T10:14:41Z</time>
      </trkpt>
      <trkpt lat="43.13527" lon="3.13404">
        <ele>50</ele>
        <time>2026-02-22T10:14:43Z</time>
      </trkpt>
      <trkpt lat="43.13522" lon="3.13399">
        <ele>50</ele>
        <time>2026-02-22T10:14:45Z</time>
      </trkpt>
      <trkpt lat="43.13517" lon="3.13394">
        <ele>49</ele>
        <time>2026-02-22T10:14:47Z</time>
      </trkpt>
      <trkpt lat="43.13511" lon="3.1339">
        <ele>49</ele>
        <time>2026-02-22T10:14:49Z</time>
      </trkpt>
      <trkpt lat="43.13507" lon="3.13387">
        <ele>49</ele>
        <time>2026-02-22T10:14:51Z</time>
      </trkpt>
      <trkpt lat="43.13502" lon="3.13385">
        <ele>49</ele>
        <time>2026-02-22T10:14:53Z</time>
      </trkpt>
      <trkpt lat="43.13497" lon="3.13384">
        <ele>49</ele>
        <time>2026-02-22T10:14:55Z</time>
      </trkpt>
      <trkpt lat="43.13492" lon="3.13388">
        <ele>50</ele>
        <time>2026-02-22T10:14:57Z</time>
      </trkpt>
      <trkpt lat="43.13489" lon="3.13394">
        <ele>50</ele>
        <time>2026-02-22T10:14:59Z</time>
      </trkpt>
      <trkpt lat="43.13485" lon="3.13398">
        <ele>49</ele>
        <time>2026-02-22T10:15:01Z</time>
      </trkpt>
      <trkpt lat="43.13482" lon="3.13403">
        <ele>49</ele>
        <time>2026-02-22T10:15:03Z</time>
      </trkpt>
      <trkpt lat="43.13479" lon="3.13408">
        <ele>49</ele>
        <time>2026-02-22T10:15:05Z</time>
      </trkpt>
      <trkpt lat="43.13477" lon="3.13413">
        <ele>50</ele>
        <time>2026-02-22T10:15:07Z</time>
      </trkpt>
      <trkpt lat="43.13474" lon="3.13416">
        <ele>50</ele>
        <time>2026-02-22T10:15:09Z</time>
      </trkpt>
      <trkpt lat="43.13472" lon="3.13419">
        <ele>51</ele>
        <time>2026-02-22T10:15:11Z</time>
      </trkpt>
      <trkpt lat="43.1347" lon="3.13422">
        <ele>51</ele>
        <time>2026-02-22T10:15:13Z</time>
      </trkpt>
      <trkpt lat="43.13469" lon="3.13424">
        <ele>51</ele>
        <time>2026-02-22T10:15:15Z</time>
      </trkpt>
      <trkpt lat="43.13468" lon="3.13425">
        <ele>51</ele>
        <time>2026-02-22T10:15:17Z</time>
      </trkpt>
      <trkpt lat="43.13467" lon="3.13426">
        <ele>51</ele>
        <time>2026-02-22T10:15:19Z</time>
      </trkpt>
      <trkpt lat="43.13467" lon="3.13426">
        <ele>51</ele>
        <time>2026-02-22T10:15:21Z</time>
      </trkpt>
      <trkpt lat="43.13467" lon="3.13426">
        <ele>51</ele>
        <time>2026-02-22T10:15:23Z</time>
      </trkpt>
      <trkpt lat="43.13467" lon="3.13426">
        <ele>51</ele>
        <time>2026-02-22T10:15:25Z</time>
      </trkpt>
      <trkpt lat="43.13467" lon="3.13426">
        <ele>51</ele>
        <time>2026-02-22T10:15:27Z</time>
      </trkpt>
      <trkpt lat="43.13467" lon="3.13426">
        <ele>51</ele>
        <time>2026-02-22T10:15:29Z</time>
      </trkpt>
      <trkpt lat="43.13467" lon="3.13426">
        <ele>51</ele>
        <time>2026-02-22T10:15:31Z</time>
      </trkpt>
      <trkpt lat="43.13499" lon="3.13384">
        <ele>51</ele>
        <time>2026-02-22T10:40:35Z</time>
      </trkpt>
      <trkpt lat="43.13493" lon="3.13369">
        <ele>42</ele>
        <time>2026-02-22T10:40:39Z</time>
      </trkpt>
      <trkpt lat="43.13492" lon="3.13368">
        <ele>42</ele>
        <time>2026-02-22T10:40:41Z</time>
      </trkpt>
      <trkpt lat="43.1349" lon="3.13366">
        <ele>42</ele>
        <time>2026-02-22T10:40:43Z</time>
      </trkpt>
      <trkpt lat="43.13489" lon="3.13362">
        <ele>42</ele>
        <time>2026-02-22T10:40:45Z</time>
      </trkpt>
      <trkpt lat="43.13487" lon="3.13359">
        <ele>43</ele>
        <time>2026-02-22T10:40:47Z</time>
      </trkpt>
      <trkpt lat="43.13484" lon="3.13356">
        <ele>44</ele>
        <time>2026-02-22T10:40:49Z</time>
      </trkpt>
      <trkpt lat="43.13481" lon="3.13352">
        <ele>45</ele>
        <time>2026-02-22T10:40:51Z</time>
      </trkpt>
      <trkpt lat="43.13477" lon="3.13348">
        <ele>46</ele>
        <time>2026-02-22T10:40:53Z</time>
      </trkpt>
      <trkpt lat="43.13472" lon="3.13343">
        <ele>47</ele>
        <time>2026-02-22T10:40:55Z</time>
      </trkpt>
      <trkpt lat="43.13467" lon="3.13338">
        <ele>48</ele>
        <time>2026-02-22T10:40:57Z</time>
      </trkpt>
      <trkpt lat="43.13461" lon="3.13332">
        <ele>49</ele>
        <time>2026-02-22T10:40:59Z</time>
      </trkpt>
      <trkpt lat="43.13455" lon="3.13328">
        <ele>50</ele>
        <time>2026-02-22T10:41:01Z</time>
      </trkpt>
      <trkpt lat="43.1345" lon="3.13324">
        <ele>50</ele>
        <time>2026-02-22T10:41:03Z</time>
      </trkpt>
      <trkpt lat="43.13446" lon="3.13319">
        <ele>50</ele>
        <time>2026-02-22T10:41:05Z</time>
      </trkpt>
      <trkpt lat="43.13442" lon="3.13314">
        <ele>50</ele>
        <time>2026-02-22T10:41:07Z</time>
      </trkpt>
      <trkpt lat="43.13437" lon="3.13309">
        <ele>50</ele>
        <time>2026-02-22T10:41:09Z</time>
      </trkpt>
      <trkpt lat="43.1343" lon="3.13302">
        <ele>50</ele>
        <time>2026-02-22T10:41:11Z</time>
      </trkpt>
      <trkpt lat="43.13424" lon="3.13297">
        <ele>50</ele>
        <time>2026-02-22T10:41:13Z</time>
      </trkpt>
      <trkpt lat="43.13418" lon="3.13291">
        <ele>49</ele>
        <time>2026-02-22T10:41:15Z</time>
      </trkpt>
      <trkpt lat="43.13413" lon="3.13285">
        <ele>49</ele>
        <time>2026-02-22T10:41:17Z</time>
      </trkpt>
      <trkpt lat="43.13407" lon="3.13278">
        <ele>50</ele>
        <time>2026-02-22T10:41:19Z</time>
      </trkpt>
      <trkpt lat="43.13402" lon="3.13271">
        <ele>50</ele>
        <time>2026-02-22T10:41:21Z</time>
      </trkpt>
      <trkpt lat="43.13396" lon="3.13265">
        <ele>50</ele>
        <time>2026-02-22T10:41:23Z</time>
      </trkpt>
      <trkpt lat="43.1339" lon="3.13263">
        <ele>51</ele>
        <time>2026-02-22T10:41:25Z</time>
      </trkpt>
      <trkpt lat="43.13384" lon="3.13261">
        <ele>51</ele>
        <time>2026-02-22T10:41:27Z</time>
      </trkpt>
      <trkpt lat="43.13379" lon="3.13257">
        <ele>52</ele>
        <time>2026-02-22T10:41:29Z</time>
      </trkpt>
      <trkpt lat="43.13374" lon="3.13251">
        <ele>51</ele>
        <time>2026-02-22T10:41:31Z</time>
      </trkpt>
      <trkpt lat="43.13369" lon="3.13246">
        <ele>51</ele>
        <time>2026-02-22T10:41:33Z</time>
      </trkpt>
      <trkpt lat="43.13363" lon="3.13242">
        <ele>50</ele>
        <time>2026-02-22T10:41:35Z</time>
      </trkpt>
      <trkpt lat="43.13357" lon="3.13236">
        <ele>50</ele>
        <time>2026-02-22T10:41:37Z</time>
      </trkpt>
      <trkpt lat="43.13351" lon="3.13232">
        <ele>49</ele>
        <time>2026-02-22T10:41:39Z</time>
      </trkpt>
      <trkpt lat="43.13346" lon="3.13227">
        <ele>48</ele>
        <time>2026-02-22T10:41:41Z</time>
      </trkpt>
      <trkpt lat="43.13342" lon="3.13221">
        <ele>48</ele>
        <time>2026-02-22T10:41:43Z</time>
      </trkpt>
      <trkpt lat="43.13337" lon="3.13216">
        <ele>49</ele>
        <time>2026-02-22T10:41:45Z</time>
      </trkpt>
      <trkpt lat="43.13331" lon="3.13212">
        <ele>49</ele>
        <time>2026-02-22T10:41:47Z</time>
      </trkpt>
      <trkpt lat="43.13327" lon="3.13206">
        <ele>48</ele>
        <time>2026-02-22T10:41:49Z</time>
      </trkpt>
      <trkpt lat="43.13322" lon="3.13201">
        <ele>49</ele>
        <time>2026-02-22T10:41:51Z</time>
      </trkpt>
      <trkpt lat="43.13317" lon="3.13195">
        <ele>49</ele>
        <time>2026-02-22T10:41:53Z</time>
      </trkpt>
      <trkpt lat="43.13311" lon="3.13191">
        <ele>49</ele>
        <time>2026-02-22T10:41:55Z</time>
      </trkpt>
      <trkpt lat="43.13308" lon="3.13185">
        <ele>48</ele>
        <time>2026-02-22T10:41:57Z</time>
      </trkpt>
      <trkpt lat="43.13303" lon="3.13178">
        <ele>48</ele>
        <time>2026-02-22T10:41:59Z</time>
      </trkpt>
      <trkpt lat="43.13297" lon="3.13173">
        <ele>48</ele>
        <time>2026-02-22T10:42:01Z</time>
      </trkpt>
      <trkpt lat="43.13291" lon="3.13167">
        <ele>47</ele>
        <time>2026-02-22T10:42:03Z</time>
      </trkpt>
      <trkpt lat="43.13286" lon="3.13161">
        <ele>47</ele>
        <time>2026-02-22T10:42:05Z</time>
      </trkpt>
      <trkpt lat="43.1328" lon="3.13154">
        <ele>47</ele>
        <time>2026-02-22T10:42:07Z</time>
      </trkpt>
      <trkpt lat="43.13274" lon="3.13149">
        <ele>47</ele>
        <time>2026-02-22T10:42:09Z</time>
      </trkpt>
      <trkpt lat="43.13268" lon="3.13143">
        <ele>47</ele>
        <time>2026-02-22T10:42:11Z</time>
      </trkpt>
      <trkpt lat="43.13262" lon="3.13137">
        <ele>48</ele>
        <time>2026-02-22T10:42:13Z</time>
      </trkpt>
      <trkpt lat="43.13256" lon="3.1313">
        <ele>48</ele>
        <time>2026-02-22T10:42:15Z</time>
      </trkpt>
      <trkpt lat="43.13249" lon="3.13125">
        <ele>48</ele>
        <time>2026-02-22T10:42:17Z</time>
      </trkpt>
      <trkpt lat="43.13243" lon="3.1312">
        <ele>48</ele>
        <time>2026-02-22T10:42:19Z</time>
      </trkpt>
      <trkpt lat="43.13238" lon="3.13114">
        <ele>48</ele>
        <time>2026-02-22T10:42:21Z</time>
      </trkpt>
      <trkpt lat="43.13233" lon="3.13109">
        <ele>48</ele>
        <time>2026-02-22T10:42:23Z</time>
      </trkpt>
      <trkpt lat="43.13226" lon="3.13104">
        <ele>47</ele>
        <time>2026-02-22T10:42:25Z</time>
      </trkpt>
      <trkpt lat="43.1322" lon="3.131">
        <ele>47</ele>
        <time>2026-02-22T10:42:27Z</time>
      </trkpt>
      <trkpt lat="43.13213" lon="3.13094">
        <ele>46</ele>
        <time>2026-02-22T10:42:29Z</time>
      </trkpt>
      <trkpt lat="43.13207" lon="3.13088">
        <ele>46</ele>
        <time>2026-02-22T10:42:31Z</time>
      </trkpt>
      <trkpt lat="43.13202" lon="3.13082">
        <ele>46</ele>
        <time>2026-02-22T10:42:33Z</time>
      </trkpt>
      <trkpt lat="43.13197" lon="3.13074">
        <ele>47</ele>
        <time>2026-02-22T10:42:35Z</time>
      </trkpt>
      <trkpt lat="43.13191" lon="3.13068">
        <ele>46</ele>
        <time>2026-02-22T10:42:37Z</time>
      </trkpt>
      <trkpt lat="43.13185" lon="3.13063">
        <ele>46</ele>
        <time>2026-02-22T10:42:39Z</time>
      </trkpt>
      <trkpt lat="43.13178" lon="3.1306">
        <ele>46</ele>
        <time>2026-02-22T10:42:41Z</time>
      </trkpt>
      <trkpt lat="43.13172" lon="3.13056">
        <ele>46</ele>
        <time>2026-02-22T10:42:43Z</time>
      </trkpt>
      <trkpt lat="43.13167" lon="3.13052">
        <ele>46</ele>
        <time>2026-02-22T10:42:45Z</time>
      </trkpt>
      <trkpt lat="43.13161" lon="3.13046">
        <ele>46</ele>
        <time>2026-02-22T10:42:47Z</time>
      </trkpt>
      <trkpt lat="43.13154" lon="3.1304">
        <ele>45</ele>
        <time>2026-02-22T10:42:49Z</time>
      </trkpt>
      <trkpt lat="43.13147" lon="3.13034">
        <ele>46</ele>
        <time>2026-02-22T10:42:51Z</time>
      </trkpt>
      <trkpt lat="43.13141" lon="3.13027">
        <ele>46</ele>
        <time>2026-02-22T10:42:53Z</time>
      </trkpt>
      <trkpt lat="43.13134" lon="3.13021">
        <ele>46</ele>
        <time>2026-02-22T10:42:55Z</time>
      </trkpt>
      <trkpt lat="43.13128" lon="3.13014">
        <ele>46</ele>
        <time>2026-02-22T10:42:57Z</time>
      </trkpt>
      <trkpt lat="43.13122" lon="3.13009">
        <ele>47</ele>
        <time>2026-02-22T10:42:59Z</time>
      </trkpt>
      <trkpt lat="43.13116" lon="3.13003">
        <ele>47</ele>
        <time>2026-02-22T10:43:01Z</time>
      </trkpt>
      <trkpt lat="43.1311" lon="3.12998">
        <ele>48</ele>
        <time>2026-02-22T10:43:03Z</time>
      </trkpt>
      <trkpt lat="43.13104" lon="3.12992">
        <ele>48</ele>
        <time>2026-02-22T10:43:05Z</time>
      </trkpt>
      <trkpt lat="43.13098" lon="3.12986">
        <ele>49</ele>
        <time>2026-02-22T10:43:07Z</time>
      </trkpt>
      <trkpt lat="43.13092" lon="3.12981">
        <ele>50</ele>
        <time>2026-02-22T10:43:09Z</time>
      </trkpt>
      <trkpt lat="43.13086" lon="3.12976">
        <ele>49</ele>
        <time>2026-02-22T10:43:11Z</time>
      </trkpt>
      <trkpt lat="43.1308" lon="3.12971">
        <ele>49</ele>
        <time>2026-02-22T10:43:13Z</time>
      </trkpt>
      <trkpt lat="43.13075" lon="3.12966">
        <ele>48</ele>
        <time>2026-02-22T10:43:15Z</time>
      </trkpt>
      <trkpt lat="43.1307" lon="3.12961">
        <ele>47</ele>
        <time>2026-02-22T10:43:17Z</time>
      </trkpt>
      <trkpt lat="43.13066" lon="3.12957">
        <ele>46</ele>
        <time>2026-02-22T10:43:19Z</time>
      </trkpt>
      <trkpt lat="43.1306" lon="3.12953">
        <ele>46</ele>
        <time>2026-02-22T10:43:21Z</time>
      </trkpt>
      <trkpt lat="43.13054" lon="3.12948">
        <ele>46</ele>
        <time>2026-02-22T10:43:23Z</time>
      </trkpt>
      <trkpt lat="43.1305" lon="3.12942">
        <ele>46</ele>
        <time>2026-02-22T10:43:25Z</time>
      </trkpt>
      <trkpt lat="43.13044" lon="3.12938">
        <ele>46</ele>
        <time>2026-02-22T10:43:27Z</time>
      </trkpt>
      <trkpt lat="43.13038" lon="3.12935">
        <ele>46</ele>
        <time>2026-02-22T10:43:29Z</time>
      </trkpt>
      <trkpt lat="43.1303" lon="3.12932">
        <ele>47</ele>
        <time>2026-02-22T10:43:31Z</time>
      </trkpt>
      <trkpt lat="43.13023" lon="3.1293">
        <ele>48</ele>
        <time>2026-02-22T10:43:33Z</time>
      </trkpt>
      <trkpt lat="43.13015" lon="3.12929">
        <ele>49</ele>
        <time>2026-02-22T10:43:35Z</time>
      </trkpt>
      <trkpt lat="43.13007" lon="3.12928">
        <ele>49</ele>
        <time>2026-02-22T10:43:37Z</time>
      </trkpt>
      <trkpt lat="43.12999" lon="3.12927">
        <ele>51</ele>
        <time>2026-02-22T10:43:39Z</time>
      </trkpt>
      <trkpt lat="43.12991" lon="3.12926">
        <ele>51</ele>
        <time>2026-02-22T10:43:41Z</time>
      </trkpt>
      <trkpt lat="43.12983" lon="3.12924">
        <ele>51</ele>
        <time>2026-02-22T10:43:43Z</time>
      </trkpt>
      <trkpt lat="43.12974" lon="3.12921">
        <ele>50</ele>
        <time>2026-02-22T10:43:45Z</time>
      </trkpt>
      <trkpt lat="43.12967" lon="3.12919">
        <ele>49</ele>
        <time>2026-02-22T10:43:47Z</time>
      </trkpt>
      <trkpt lat="43.12959" lon="3.12914">
        <ele>49</ele>
        <time>2026-02-22T10:43:49Z</time>
      </trkpt>
      <trkpt lat="43.12952" lon="3.12907">
        <ele>50</ele>
        <time>2026-02-22T10:43:51Z</time>
      </trkpt>
      <trkpt lat="43.12946" lon="3.12899">
        <ele>50</ele>
        <time>2026-02-22T10:43:53Z</time>
      </trkpt>
      <trkpt lat="43.12942" lon="3.1289">
        <ele>50</ele>
        <time>2026-02-22T10:43:55Z</time>
      </trkpt>
      <trkpt lat="43.12938" lon="3.12879">
        <ele>50</ele>
        <time>2026-02-22T10:43:57Z</time>
      </trkpt>
      <trkpt lat="43.12937" lon="3.12868">
        <ele>50</ele>
        <time>2026-02-22T10:43:59Z</time>
      </trkpt>
      <trkpt lat="43.12937" lon="3.12857">
        <ele>50</ele>
        <time>2026-02-22T10:44:01Z</time>
      </trkpt>
      <trkpt lat="43.12938" lon="3.12847">
        <ele>50</ele>
        <time>2026-02-22T10:44:03Z</time>
      </trkpt>
      <trkpt lat="43.12941" lon="3.12837">
        <ele>50</ele>
        <time>2026-02-22T10:44:05Z</time>
      </trkpt>
      <trkpt lat="43.12945" lon="3.12829">
        <ele>50</ele>
        <time>2026-02-22T10:44:07Z</time>
      </trkpt>
      <trkpt lat="43.12948" lon="3.1282">
        <ele>50</ele>
        <time>2026-02-22T10:44:09Z</time>
      </trkpt>
      <trkpt lat="43.12951" lon="3.12813">
        <ele>50</ele>
        <time>2026-02-22T10:44:11Z</time>
      </trkpt>
      <trkpt lat="43.12952" lon="3.12805">
        <ele>51</ele>
        <time>2026-02-22T10:44:13Z</time>
      </trkpt>
      <trkpt lat="43.12951" lon="3.12796">
        <ele>51</ele>
        <time>2026-02-22T10:44:15Z</time>
      </trkpt>
      <trkpt lat="43.1295" lon="3.12789">
        <ele>51</ele>
        <time>2026-02-22T10:44:17Z</time>
      </trkpt>
      <trkpt lat="43.1295" lon="3.12783">
        <ele>51</ele>
        <time>2026-02-22T10:44:19Z</time>
      </trkpt>
      <trkpt lat="43.12951" lon="3.12778">
        <ele>52</ele>
        <time>2026-02-22T10:44:21Z</time>
      </trkpt>
      <trkpt lat="43.12952" lon="3.12776">
        <ele>51</ele>
        <time>2026-02-22T10:44:23Z</time>
      </trkpt>
      <trkpt lat="43.12951" lon="3.12775">
        <ele>52</ele>
        <time>2026-02-22T10:44:25Z</time>
      </trkpt>
      <trkpt lat="43.12951" lon="3.12775">
        <ele>52</ele>
        <time>2026-02-22T10:44:27Z</time>
      </trkpt>
      <trkpt lat="43.12952" lon="3.12774">
        <ele>52</ele>
        <time>2026-02-22T10:44:29Z</time>
      </trkpt>
      <trkpt lat="43.12955" lon="3.12772">
        <ele>52</ele>
        <time>2026-02-22T10:44:31Z</time>
      </trkpt>
      <trkpt lat="43.12959" lon="3.12768">
        <ele>52</ele>
        <time>2026-02-22T10:44:33Z</time>
      </trkpt>
      <trkpt lat="43.12963" lon="3.12764">
        <ele>52</ele>
        <time>2026-02-22T10:44:35Z</time>
      </trkpt>
      <trkpt lat="43.12967" lon="3.12762">
        <ele>52</ele>
        <time>2026-02-22T10:44:37Z</time>
      </trkpt>
      <trkpt lat="43.1297" lon="3.12758">
        <ele>52</ele>
        <time>2026-02-22T10:44:39Z</time>
      </trkpt>
      <trkpt lat="43.12973" lon="3.12753">
        <ele>51</ele>
        <time>2026-02-22T10:44:41Z</time>
      </trkpt>
      <trkpt lat="43.12978" lon="3.12748">
        <ele>50</ele>
        <time>2026-02-22T10:44:43Z</time>
      </trkpt>
      <trkpt lat="43.12982" lon="3.1274">
        <ele>49</ele>
        <time>2026-02-22T10:44:45Z</time>
      </trkpt>
      <trkpt lat="43.12981" lon="3.12729">
        <ele>48</ele>
        <time>2026-02-22T10:44:47Z</time>
      </trkpt>
      <trkpt lat="43.12976" lon="3.12715">
        <ele>47</ele>
        <time>2026-02-22T10:44:49Z</time>
      </trkpt>
      <trkpt lat="43.12968" lon="3.12704">
        <ele>47</ele>
        <time>2026-02-22T10:44:51Z</time>
      </trkpt>
      <trkpt lat="43.12959" lon="3.12693">
        <ele>47</ele>
        <time>2026-02-22T10:44:53Z</time>
      </trkpt>
      <trkpt lat="43.1295" lon="3.12684">
        <ele>47</ele>
        <time>2026-02-22T10:44:55Z</time>
      </trkpt>
      <trkpt lat="43.1294" lon="3.12674">
        <ele>47</ele>
        <time>2026-02-22T10:44:57Z</time>
      </trkpt>
      <trkpt lat="43.12931" lon="3.12667">
        <ele>47</ele>
        <time>2026-02-22T10:44:59Z</time>
      </trkpt>
      <trkpt lat="43.12922" lon="3.12661">
        <ele>47</ele>
        <time>2026-02-22T10:45:01Z</time>
      </trkpt>
      <trkpt lat="43.12913" lon="3.12656">
        <ele>47</ele>
        <time>2026-02-22T10:45:03Z</time>
      </trkpt>
      <trkpt lat="43.12906" lon="3.1265">
        <ele>47</ele>
        <time>2026-02-22T10:45:05Z</time>
      </trkpt>
      <trkpt lat="43.129" lon="3.12643">
        <ele>47</ele>
        <time>2026-02-22T10:45:07Z</time>
      </trkpt>
      <trkpt lat="43.12895" lon="3.12634">
        <ele>47</ele>
        <time>2026-02-22T10:45:09Z</time>
      </trkpt>
      <trkpt lat="43.12889" lon="3.12626">
        <ele>47</ele>
        <time>2026-02-22T10:45:11Z</time>
      </trkpt>
      <trkpt lat="43.12884" lon="3.12618">
        <ele>48</ele>
        <time>2026-02-22T10:45:13Z</time>
      </trkpt>
      <trkpt lat="43.12879" lon="3.12609">
        <ele>48</ele>
        <time>2026-02-22T10:45:15Z</time>
      </trkpt>
      <trkpt lat="43.12873" lon="3.126">
        <ele>49</ele>
        <time>2026-02-22T10:45:17Z</time>
      </trkpt>
      <trkpt lat="43.12867" lon="3.12592">
        <ele>49</ele>
        <time>2026-02-22T10:45:19Z</time>
      </trkpt>
      <trkpt lat="43.12861" lon="3.12584">
        <ele>48</ele>
        <time>2026-02-22T10:45:21Z</time>
      </trkpt>
      <trkpt lat="43.12855" lon="3.12576">
        <ele>48</ele>
        <time>2026-02-22T10:45:23Z</time>
      </trkpt>
      <trkpt lat="43.12849" lon="3.12567">
        <ele>48</ele>
        <time>2026-02-22T10:45:25Z</time>
      </trkpt>
      <trkpt lat="43.12844" lon="3.1256">
        <ele>48</ele>
        <time>2026-02-22T10:45:27Z</time>
      </trkpt>
      <trkpt lat="43.12838" lon="3.12552">
        <ele>49</ele>
        <time>2026-02-22T10:45:29Z</time>
      </trkpt>
      <trkpt lat="43.12832" lon="3.12544">
        <ele>49</ele>
        <time>2026-02-22T10:45:31Z</time>
      </trkpt>
      <trkpt lat="43.12825" lon="3.12536">
        <ele>48</ele>
        <time>2026-02-22T10:45:33Z</time>
      </trkpt>
      <trkpt lat="43.12819" lon="3.12528">
        <ele>48</ele>
        <time>2026-02-22T10:45:35Z</time>
      </trkpt>
      <trkpt lat="43.12814" lon="3.12519">
        <ele>48</ele>
        <time>2026-02-22T10:45:37Z</time>
      </trkpt>
      <trkpt lat="43.12808" lon="3.12511">
        <ele>48</ele>
        <time>2026-02-22T10:45:39Z</time>
      </trkpt>
      <trkpt lat="43.12802" lon="3.12503">
        <ele>48</ele>
        <time>2026-02-22T10:45:41Z</time>
      </trkpt>
      <trkpt lat="43.12796" lon="3.12494">
        <ele>48</ele>
        <time>2026-02-22T10:45:43Z</time>
      </trkpt>
      <trkpt lat="43.1279" lon="3.12486">
        <ele>48</ele>
        <time>2026-02-22T10:45:45Z</time>
      </trkpt>
      <trkpt lat="43.12784" lon="3.12478">
        <ele>47</ele>
        <time>2026-02-22T10:45:47Z</time>
      </trkpt>
      <trkpt lat="43.12778" lon="3.1247">
        <ele>47</ele>
        <time>2026-02-22T10:45:49Z</time>
      </trkpt>
      <trkpt lat="43.12771" lon="3.12462">
        <ele>47</ele>
        <time>2026-02-22T10:45:51Z</time>
      </trkpt>
      <trkpt lat="43.12764" lon="3.12455">
        <ele>47</ele>
        <time>2026-02-22T10:45:53Z</time>
      </trkpt>
      <trkpt lat="43.12758" lon="3.12448">
        <ele>47</ele>
        <time>2026-02-22T10:45:55Z</time>
      </trkpt>
      <trkpt lat="43.12751" lon="3.12441">
        <ele>47</ele>
        <time>2026-02-22T10:45:57Z</time>
      </trkpt>
      <trkpt lat="43.12745" lon="3.12433">
        <ele>47</ele>
        <time>2026-02-22T10:45:59Z</time>
      </trkpt>
      <trkpt lat="43.12739" lon="3.12425">
        <ele>47</ele>
        <time>2026-02-22T10:46:01Z</time>
      </trkpt>
      <trkpt lat="43.12734" lon="3.12417">
        <ele>48</ele>
        <time>2026-02-22T10:46:03Z</time>
      </trkpt>
      <trkpt lat="43.12728" lon="3.12409">
        <ele>47</ele>
        <time>2026-02-22T10:46:05Z</time>
      </trkpt>
      <trkpt lat="43.12723" lon="3.12401">
        <ele>47</ele>
        <time>2026-02-22T10:46:07Z</time>
      </trkpt>
      <trkpt lat="43.12718" lon="3.12393">
        <ele>47</ele>
        <time>2026-02-22T10:46:09Z</time>
      </trkpt>
      <trkpt lat="43.12713" lon="3.12385">
        <ele>47</ele>
        <time>2026-02-22T10:46:11Z</time>
      </trkpt>
      <trkpt lat="43.12708" lon="3.12377">
        <ele>47</ele>
        <time>2026-02-22T10:46:13Z</time>
      </trkpt>
      <trkpt lat="43.12703" lon="3.12368">
        <ele>47</ele>
        <time>2026-02-22T10:46:15Z</time>
      </trkpt>
      <trkpt lat="43.12697" lon="3.12359">
        <ele>47</ele>
        <time>2026-02-22T10:46:17Z</time>
      </trkpt>
      <trkpt lat="43.12692" lon="3.1235">
        <ele>47</ele>
        <time>2026-02-22T10:46:19Z</time>
      </trkpt>
      <trkpt lat="43.12687" lon="3.12342">
        <ele>46</ele>
        <time>2026-02-22T10:46:21Z</time>
      </trkpt>
      <trkpt lat="43.12682" lon="3.12333">
        <ele>46</ele>
        <time>2026-02-22T10:46:23Z</time>
      </trkpt>
      <trkpt lat="43.12677" lon="3.12325">
        <ele>46</ele>
        <time>2026-02-22T10:46:25Z</time>
      </trkpt>
      <trkpt lat="43.1267" lon="3.12316">
        <ele>46</ele>
        <time>2026-02-22T10:46:27Z</time>
      </trkpt>
      <trkpt lat="43.12664" lon="3.12308">
        <ele>46</ele>
        <time>2026-02-22T10:46:29Z</time>
      </trkpt>
      <trkpt lat="43.12658" lon="3.12299">
        <ele>47</ele>
        <time>2026-02-22T10:46:31Z</time>
      </trkpt>
      <trkpt lat="43.12652" lon="3.1229">
        <ele>48</ele>
        <time>2026-02-22T10:46:33Z</time>
      </trkpt>
      <trkpt lat="43.12647" lon="3.12282">
        <ele>48</ele>
        <time>2026-02-22T10:46:35Z</time>
      </trkpt>
      <trkpt lat="43.12641" lon="3.12274">
        <ele>48</ele>
        <time>2026-02-22T10:46:37Z</time>
      </trkpt>
      <trkpt lat="43.12636" lon="3.12265">
        <ele>48</ele>
        <time>2026-02-22T10:46:39Z</time>
      </trkpt>
      <trkpt lat="43.1263" lon="3.12256">
        <ele>48</ele>
        <time>2026-02-22T10:46:41Z</time>
      </trkpt>
      <trkpt lat="43.12624" lon="3.12247">
        <ele>48</ele>
        <time>2026-02-22T10:46:43Z</time>
      </trkpt>
      <trkpt lat="43.12617" lon="3.12237">
        <ele>47</ele>
        <time>2026-02-22T10:46:45Z</time>
      </trkpt>
      <trkpt lat="43.12611" lon="3.12227">
        <ele>47</ele>
        <time>2026-02-22T10:46:47Z</time>
      </trkpt>
      <trkpt lat="43.12604" lon="3.12217">
        <ele>47</ele>
        <time>2026-02-22T10:46:49Z</time>
      </trkpt>
      <trkpt lat="43.12597" lon="3.12206">
        <ele>47</ele>
        <time>2026-02-22T10:46:51Z</time>
      </trkpt>
      <trkpt lat="43.12591" lon="3.12197">
        <ele>46</ele>
        <time>2026-02-22T10:46:53Z</time>
      </trkpt>
      <trkpt lat="43.12584" lon="3.12187">
        <ele>47</ele>
        <time>2026-02-22T10:46:55Z</time>
      </trkpt>
      <trkpt lat="43.12577" lon="3.12178">
        <ele>47</ele>
        <time>2026-02-22T10:46:57Z</time>
      </trkpt>
      <trkpt lat="43.12571" lon="3.12168">
        <ele>47</ele>
        <time>2026-02-22T10:46:59Z</time>
      </trkpt>
      <trkpt lat="43.12564" lon="3.12159">
        <ele>47</ele>
        <time>2026-02-22T10:47:01Z</time>
      </trkpt>
      <trkpt lat="43.12558" lon="3.1215">
        <ele>46</ele>
        <time>2026-02-22T10:47:03Z</time>
      </trkpt>
      <trkpt lat="43.12551" lon="3.1214">
        <ele>46</ele>
        <time>2026-02-22T10:47:05Z</time>
      </trkpt>
      <trkpt lat="43.12545" lon="3.1213">
        <ele>47</ele>
        <time>2026-02-22T10:47:07Z</time>
      </trkpt>
      <trkpt lat="43.12539" lon="3.12121">
        <ele>47</ele>
        <time>2026-02-22T10:47:09Z</time>
      </trkpt>
      <trkpt lat="43.12533" lon="3.12112">
        <ele>47</ele>
        <time>2026-02-22T10:47:11Z</time>
      </trkpt>
      <trkpt lat="43.12527" lon="3.12103">
        <ele>47</ele>
        <time>2026-02-22T10:47:13Z</time>
      </trkpt>
      <trkpt lat="43.1252" lon="3.12094">
        <ele>47</ele>
        <time>2026-02-22T10:47:15Z</time>
      </trkpt>
      <trkpt lat="43.12514" lon="3.12086">
        <ele>48</ele>
        <time>2026-02-22T10:47:17Z</time>
      </trkpt>
      <trkpt lat="43.12509" lon="3.12077">
        <ele>48</ele>
        <time>2026-02-22T10:47:19Z</time>
      </trkpt>
      <trkpt lat="43.12505" lon="3.12068">
        <ele>48</ele>
        <time>2026-02-22T10:47:21Z</time>
      </trkpt>
      <trkpt lat="43.12499" lon="3.1206">
        <ele>48</ele>
        <time>2026-02-22T10:47:23Z</time>
      </trkpt>
      <trkpt lat="43.12493" lon="3.12052">
        <ele>48</ele>
        <time>2026-02-22T10:47:25Z</time>
      </trkpt>
      <trkpt lat="43.12488" lon="3.12044">
        <ele>47</ele>
        <time>2026-02-22T10:47:27Z</time>
      </trkpt>
      <trkpt lat="43.12482" lon="3.12037">
        <ele>47</ele>
        <time>2026-02-22T10:47:29Z</time>
      </trkpt>
      <trkpt lat="43.12477" lon="3.12029">
        <ele>47</ele>
        <time>2026-02-22T10:47:31Z</time>
      </trkpt>
      <trkpt lat="43.12471" lon="3.1202">
        <ele>47</ele>
        <time>2026-02-22T10:47:33Z</time>
      </trkpt>
      <trkpt lat="43.12466" lon="3.12012">
        <ele>48</ele>
        <time>2026-02-22T10:47:35Z</time>
      </trkpt>
      <trkpt lat="43.1246" lon="3.12004">
        <ele>48</ele>
        <time>2026-02-22T10:47:37Z</time>
      </trkpt>
      <trkpt lat="43.12454" lon="3.11997">
        <ele>48</ele>
        <time>2026-02-22T10:47:39Z</time>
      </trkpt>
      <trkpt lat="43.12449" lon="3.11988">
        <ele>47</ele>
        <time>2026-02-22T10:47:41Z</time>
      </trkpt>
      <trkpt lat="43.12443" lon="3.11979">
        <ele>48</ele>
        <time>2026-02-22T10:47:43Z</time>
      </trkpt>
      <trkpt lat="43.12438" lon="3.1197">
        <ele>48</ele>
        <time>2026-02-22T10:47:45Z</time>
      </trkpt>
      <trkpt lat="43.12432" lon="3.11962">
        <ele>48</ele>
        <time>2026-02-22T10:47:47Z</time>
      </trkpt>
      <trkpt lat="43.12426" lon="3.11953">
        <ele>47</ele>
        <time>2026-02-22T10:47:49Z</time>
      </trkpt>
      <trkpt lat="43.1242" lon="3.11943">
        <ele>47</ele>
        <time>2026-02-22T10:47:51Z</time>
      </trkpt>
      <trkpt lat="43.12414" lon="3.11934">
        <ele>48</ele>
        <time>2026-02-22T10:47:53Z</time>
      </trkpt>
      <trkpt lat="43.12409" lon="3.11924">
        <ele>48</ele>
        <time>2026-02-22T10:47:55Z</time>
      </trkpt>
      <trkpt lat="43.12402" lon="3.11916">
        <ele>48</ele>
        <time>2026-02-22T10:47:57Z</time>
      </trkpt>
      <trkpt lat="43.12396" lon="3.11907">
        <ele>48</ele>
        <time>2026-02-22T10:47:59Z</time>
      </trkpt>
      <trkpt lat="43.1239" lon="3.11897">
        <ele>48</ele>
        <time>2026-02-22T10:48:01Z</time>
      </trkpt>
      <trkpt lat="43.12384" lon="3.11888">
        <ele>49</ele>
        <time>2026-02-22T10:48:03Z</time>
      </trkpt>
      <trkpt lat="43.12378" lon="3.11879">
        <ele>49</ele>
        <time>2026-02-22T10:48:05Z</time>
      </trkpt>
      <trkpt lat="43.12372" lon="3.1187">
        <ele>49</ele>
        <time>2026-02-22T10:48:07Z</time>
      </trkpt>
      <trkpt lat="43.12366" lon="3.11861">
        <ele>48</ele>
        <time>2026-02-22T10:48:09Z</time>
      </trkpt>
      <trkpt lat="43.12361" lon="3.11852">
        <ele>48</ele>
        <time>2026-02-22T10:48:11Z</time>
      </trkpt>
      <trkpt lat="43.12355" lon="3.11843">
        <ele>48</ele>
        <time>2026-02-22T10:48:13Z</time>
      </trkpt>
      <trkpt lat="43.12349" lon="3.11835">
        <ele>48</ele>
        <time>2026-02-22T10:48:15Z</time>
      </trkpt>
      <trkpt lat="43.12344" lon="3.11826">
        <ele>48</ele>
        <time>2026-02-22T10:48:17Z</time>
      </trkpt>
      <trkpt lat="43.12338" lon="3.11816">
        <ele>48</ele>
        <time>2026-02-22T10:48:19Z</time>
      </trkpt>
      <trkpt lat="43.12332" lon="3.11807">
        <ele>47</ele>
        <time>2026-02-22T10:48:21Z</time>
      </trkpt>
      <trkpt lat="43.12326" lon="3.11798">
        <ele>48</ele>
        <time>2026-02-22T10:48:23Z</time>
      </trkpt>
      <trkpt lat="43.1232" lon="3.11789">
        <ele>47</ele>
        <time>2026-02-22T10:48:25Z</time>
      </trkpt>
      <trkpt lat="43.12315" lon="3.1178">
        <ele>48</ele>
        <time>2026-02-22T10:48:27Z</time>
      </trkpt>
      <trkpt lat="43.1231" lon="3.11772">
        <ele>48</ele>
        <time>2026-02-22T10:48:29Z</time>
      </trkpt>
      <trkpt lat="43.12305" lon="3.11764">
        <ele>48</ele>
        <time>2026-02-22T10:48:31Z</time>
      </trkpt>
      <trkpt lat="43.123" lon="3.11756">
        <ele>49</ele>
        <time>2026-02-22T10:48:33Z</time>
      </trkpt>
      <trkpt lat="43.12295" lon="3.11749">
        <ele>49</ele>
        <time>2026-02-22T10:48:35Z</time>
      </trkpt>
      <trkpt lat="43.1229" lon="3.11742">
        <ele>49</ele>
        <time>2026-02-22T10:48:37Z</time>
      </trkpt>
      <trkpt lat="43.12285" lon="3.11735">
        <ele>49</ele>
        <time>2026-02-22T10:48:39Z</time>
      </trkpt>
      <trkpt lat="43.1228" lon="3.11726">
        <ele>49</ele>
        <time>2026-02-22T10:48:41Z</time>
      </trkpt>
      <trkpt lat="43.12274" lon="3.11716">
        <ele>48</ele>
        <time>2026-02-22T10:48:43Z</time>
      </trkpt>
      <trkpt lat="43.12268" lon="3.11706">
        <ele>48</ele>
        <time>2026-02-22T10:48:45Z</time>
      </trkpt>
      <trkpt lat="43.12263" lon="3.11697">
        <ele>48</ele>
        <time>2026-02-22T10:48:47Z</time>
      </trkpt>
      <trkpt lat="43.12256" lon="3.11687">
        <ele>48</ele>
        <time>2026-02-22T10:48:49Z</time>
      </trkpt>
      <trkpt lat="43.1225" lon="3.11678">
        <ele>48</ele>
        <time>2026-02-22T10:48:51Z</time>
      </trkpt>
      <trkpt lat="43.12244" lon="3.1167">
        <ele>48</ele>
        <time>2026-02-22T10:48:53Z</time>
      </trkpt>
      <trkpt lat="43.12238" lon="3.11662">
        <ele>48</ele>
        <time>2026-02-22T10:48:55Z</time>
      </trkpt>
      <trkpt lat="43.12233" lon="3.11654">
        <ele>48</ele>
        <time>2026-02-22T10:48:57Z</time>
      </trkpt>
      <trkpt lat="43.12227" lon="3.11645">
        <ele>48</ele>
        <time>2026-02-22T10:48:59Z</time>
      </trkpt>
      <trkpt lat="43.12222" lon="3.11637">
        <ele>49</ele>
        <time>2026-02-22T10:49:01Z</time>
      </trkpt>
      <trkpt lat="43.12217" lon="3.11629">
        <ele>49</ele>
        <time>2026-02-22T10:49:03Z</time>
      </trkpt>
      <trkpt lat="43.12212" lon="3.11622">
        <ele>49</ele>
        <time>2026-02-22T10:49:05Z</time>
      </trkpt>
      <trkpt lat="43.12207" lon="3.11614">
        <ele>49</ele>
        <time>2026-02-22T10:49:07Z</time>
      </trkpt>
      <trkpt lat="43.12202" lon="3.11607">
        <ele>48</ele>
        <time>2026-02-22T10:49:09Z</time>
      </trkpt>
      <trkpt lat="43.12197" lon="3.11599">
        <ele>48</ele>
        <time>2026-02-22T10:49:11Z</time>
      </trkpt>
      <trkpt lat="43.12192" lon="3.11592">
        <ele>48</ele>
        <time>2026-02-22T10:49:13Z</time>
      </trkpt>
      <trkpt lat="43.12187" lon="3.11585">
        <ele>48</ele>
        <time>2026-02-22T10:49:15Z</time>
      </trkpt>
      <trkpt lat="43.12182" lon="3.11578">
        <ele>48</ele>
        <time>2026-02-22T10:49:17Z</time>
      </trkpt>
      <trkpt lat="43.12177" lon="3.1157">
        <ele>48</ele>
        <time>2026-02-22T10:49:19Z</time>
      </trkpt>
      <trkpt lat="43.12172" lon="3.11563">
        <ele>49</ele>
        <time>2026-02-22T10:49:21Z</time>
      </trkpt>
      <trkpt lat="43.12168" lon="3.11556">
        <ele>49</ele>
        <time>2026-02-22T10:49:23Z</time>
      </trkpt>
      <trkpt lat="43.12163" lon="3.11548">
        <ele>49</ele>
        <time>2026-02-22T10:49:25Z</time>
      </trkpt>
      <trkpt lat="43.12158" lon="3.11541">
        <ele>48</ele>
        <time>2026-02-22T10:49:27Z</time>
      </trkpt>
      <trkpt lat="43.12153" lon="3.11534">
        <ele>48</ele>
        <time>2026-02-22T10:49:29Z</time>
      </trkpt>
      <trkpt lat="43.12148" lon="3.11527">
        <ele>48</ele>
        <time>2026-02-22T10:49:31Z</time>
      </trkpt>
      <trkpt lat="43.12143" lon="3.1152">
        <ele>48</ele>
        <time>2026-02-22T10:49:33Z</time>
      </trkpt>
      <trkpt lat="43.12138" lon="3.11513">
        <ele>48</ele>
        <time>2026-02-22T10:49:35Z</time>
      </trkpt>
      <trkpt lat="43.12133" lon="3.11505">
        <ele>48</ele>
        <time>2026-02-22T10:49:37Z</time>
      </trkpt>
      <trkpt lat="43.12128" lon="3.11497">
        <ele>48</ele>
        <time>2026-02-22T10:49:39Z</time>
      </trkpt>
      <trkpt lat="43.12123" lon="3.11489">
        <ele>48</ele>
        <time>2026-02-22T10:49:41Z</time>
      </trkpt>
      <trkpt lat="43.12119" lon="3.11481">
        <ele>49</ele>
        <time>2026-02-22T10:49:43Z</time>
      </trkpt>
      <trkpt lat="43.12114" lon="3.11472">
        <ele>49</ele>
        <time>2026-02-22T10:49:45Z</time>
      </trkpt>
      <trkpt lat="43.12109" lon="3.11462">
        <ele>49</ele>
        <time>2026-02-22T10:49:47Z</time>
      </trkpt>
      <trkpt lat="43.12103" lon="3.11453">
        <ele>49</ele>
        <time>2026-02-22T10:49:49Z</time>
      </trkpt>
      <trkpt lat="43.12097" lon="3.11444">
        <ele>49</ele>
        <time>2026-02-22T10:49:51Z</time>
      </trkpt>
      <trkpt lat="43.12091" lon="3.11435">
        <ele>49</ele>
        <time>2026-02-22T10:49:53Z</time>
      </trkpt>
      <trkpt lat="43.12085" lon="3.11426">
        <ele>49</ele>
        <time>2026-02-22T10:49:55Z</time>
      </trkpt>
      <trkpt lat="43.12079" lon="3.11417">
        <ele>48</ele>
        <time>2026-02-22T10:49:57Z</time>
      </trkpt>
      <trkpt lat="43.12073" lon="3.11408">
        <ele>48</ele>
        <time>2026-02-22T10:49:59Z</time>
      </trkpt>
      <trkpt lat="43.12068" lon="3.11398">
        <ele>48</ele>
        <time>2026-02-22T10:50:01Z</time>
      </trkpt>
      <trkpt lat="43.12062" lon="3.11389">
        <ele>47</ele>
        <time>2026-02-22T10:50:03Z</time>
      </trkpt>
      <trkpt lat="43.12055" lon="3.1138">
        <ele>47</ele>
        <time>2026-02-22T10:50:05Z</time>
      </trkpt>
      <trkpt lat="43.12049" lon="3.11373">
        <ele>47</ele>
        <time>2026-02-22T10:50:07Z</time>
      </trkpt>
      <trkpt lat="43.12043" lon="3.11368">
        <ele>47</ele>
        <time>2026-02-22T10:50:09Z</time>
      </trkpt>
      <trkpt lat="43.12037" lon="3.11361">
        <ele>47</ele>
        <time>2026-02-22T10:50:11Z</time>
      </trkpt>
      <trkpt lat="43.12031" lon="3.11355">
        <ele>47</ele>
        <time>2026-02-22T10:50:13Z</time>
      </trkpt>
      <trkpt lat="43.12026" lon="3.11348">
        <ele>48</ele>
        <time>2026-02-22T10:50:15Z</time>
      </trkpt>
      <trkpt lat="43.12021" lon="3.1134">
        <ele>48</ele>
        <time>2026-02-22T10:50:17Z</time>
      </trkpt>
      <trkpt lat="43.12016" lon="3.11333">
        <ele>47</ele>
        <time>2026-02-22T10:50:19Z</time>
      </trkpt>
      <trkpt lat="43.12012" lon="3.11326">
        <ele>47</ele>
        <time>2026-02-22T10:50:21Z</time>
      </trkpt>
      <trkpt lat="43.12007" lon="3.11318">
        <ele>48</ele>
        <time>2026-02-22T10:50:23Z</time>
      </trkpt>
      <trkpt lat="43.12002" lon="3.11311">
        <ele>49</ele>
        <time>2026-02-22T10:50:25Z</time>
      </trkpt>
      <trkpt lat="43.11997" lon="3.11303">
        <ele>49</ele>
        <time>2026-02-22T10:50:27Z</time>
      </trkpt>
      <trkpt lat="43.11992" lon="3.11296">
        <ele>49</ele>
        <time>2026-02-22T10:50:29Z</time>
      </trkpt>
      <trkpt lat="43.11987" lon="3.11288">
        <ele>50</ele>
        <time>2026-02-22T10:50:31Z</time>
      </trkpt>
      <trkpt lat="43.11981" lon="3.1128">
        <ele>50</ele>
        <time>2026-02-22T10:50:33Z</time>
      </trkpt>
      <trkpt lat="43.11975" lon="3.11272">
        <ele>50</ele>
        <time>2026-02-22T10:50:35Z</time>
      </trkpt>
      <trkpt lat="43.1197" lon="3.11264">
        <ele>51</ele>
        <time>2026-02-22T10:50:37Z</time>
      </trkpt>
      <trkpt lat="43.11965" lon="3.11256">
        <ele>51</ele>
        <time>2026-02-22T10:50:39Z</time>
      </trkpt>
      <trkpt lat="43.1196" lon="3.1125">
        <ele>51</ele>
        <time>2026-02-22T10:50:41Z</time>
      </trkpt>
      <trkpt lat="43.11955" lon="3.11242">
        <ele>51</ele>
        <time>2026-02-22T10:50:43Z</time>
      </trkpt>
      <trkpt lat="43.1195" lon="3.11235">
        <ele>51</ele>
        <time>2026-02-22T10:50:45Z</time>
      </trkpt>
      <trkpt lat="43.11945" lon="3.11227">
        <ele>51</ele>
        <time>2026-02-22T10:50:47Z</time>
      </trkpt>
      <trkpt lat="43.1194" lon="3.11219">
        <ele>51</ele>
        <time>2026-02-22T10:50:49Z</time>
      </trkpt>
      <trkpt lat="43.11935" lon="3.11211">
        <ele>50</ele>
        <time>2026-02-22T10:50:51Z</time>
      </trkpt>
      <trkpt lat="43.11932" lon="3.11202">
        <ele>50</ele>
        <time>2026-02-22T10:50:53Z</time>
      </trkpt>
      <trkpt lat="43.11929" lon="3.11192">
        <ele>50</ele>
        <time>2026-02-22T10:50:55Z</time>
      </trkpt>
      <trkpt lat="43.11928" lon="3.11182">
        <ele>50</ele>
        <time>2026-02-22T10:50:57Z</time>
      </trkpt>
      <trkpt lat="43.11925" lon="3.11172">
        <ele>50</ele>
        <time>2026-02-22T10:50:59Z</time>
      </trkpt>
      <trkpt lat="43.11919" lon="3.11165">
        <ele>49</ele>
        <time>2026-02-22T10:51:01Z</time>
      </trkpt>
      <trkpt lat="43.11912" lon="3.11159">
        <ele>49</ele>
        <time>2026-02-22T10:51:03Z</time>
      </trkpt>
      <trkpt lat="43.11906" lon="3.11156">
        <ele>49</ele>
        <time>2026-02-22T10:51:05Z</time>
      </trkpt>
      <trkpt lat="43.119" lon="3.11154">
        <ele>49</ele>
        <time>2026-02-22T10:51:07Z</time>
      </trkpt>
      <trkpt lat="43.11897" lon="3.11154">
        <ele>50</ele>
        <time>2026-02-22T10:51:09Z</time>
      </trkpt>
      <trkpt lat="43.11896" lon="3.11153">
        <ele>50</ele>
        <time>2026-02-22T10:51:11Z</time>
      </trkpt>
      <trkpt lat="43.11896" lon="3.11154">
        <ele>50</ele>
        <time>2026-02-22T10:51:13Z</time>
      </trkpt>
      <trkpt lat="43.11893" lon="3.11156">
        <ele>51</ele>
        <time>2026-02-22T10:51:15Z</time>
      </trkpt>
      <trkpt lat="43.1189" lon="3.11158">
        <ele>51</ele>
        <time>2026-02-22T10:51:17Z</time>
      </trkpt>
      <trkpt lat="43.11886" lon="3.11163">
        <ele>51</ele>
        <time>2026-02-22T10:51:19Z</time>
      </trkpt>
      <trkpt lat="43.11884" lon="3.11171">
        <ele>51</ele>
        <time>2026-02-22T10:51:21Z</time>
      </trkpt>
      <trkpt lat="43.11884" lon="3.11179">
        <ele>51</ele>
        <time>2026-02-22T10:51:23Z</time>
      </trkpt>
      <trkpt lat="43.11884" lon="3.11188">
        <ele>51</ele>
        <time>2026-02-22T10:51:25Z</time>
      </trkpt>
      <trkpt lat="43.11884" lon="3.11197">
        <ele>51</ele>
        <time>2026-02-22T10:51:27Z</time>
      </trkpt>
      <trkpt lat="43.11882" lon="3.11206">
        <ele>51</ele>
        <time>2026-02-22T10:51:29Z</time>
      </trkpt>
      <trkpt lat="43.11878" lon="3.11212">
        <ele>51</ele>
        <time>2026-02-22T10:51:31Z</time>
      </trkpt>
      <trkpt lat="43.11874" lon="3.11216">
        <ele>51</ele>
        <time>2026-02-22T10:51:33Z</time>
      </trkpt>
      <trkpt lat="43.11869" lon="3.1122">
        <ele>51</ele>
        <time>2026-02-22T10:51:35Z</time>
      </trkpt>
      <trkpt lat="43.11865" lon="3.11223">
        <ele>51</ele>
        <time>2026-02-22T10:51:37Z</time>
      </trkpt>
      <trkpt lat="43.11862" lon="3.11227">
        <ele>51</ele>
        <time>2026-02-22T10:51:39Z</time>
      </trkpt>
      <trkpt lat="43.11859" lon="3.11228">
        <ele>52</ele>
        <time>2026-02-22T10:51:41Z</time>
      </trkpt>
      <trkpt lat="43.11857" lon="3.11229">
        <ele>53</ele>
        <time>2026-02-22T10:51:43Z</time>
      </trkpt>
      <trkpt lat="43.11856" lon="3.11228">
        <ele>53</ele>
        <time>2026-02-22T10:51:45Z</time>
      </trkpt>
      <trkpt lat="43.11856" lon="3.11228">
        <ele>53</ele>
        <time>2026-02-22T10:51:47Z</time>
      </trkpt>
      <trkpt lat="43.11856" lon="3.11228">
        <ele>53</ele>
        <time>2026-02-22T10:51:49Z</time>
      </trkpt>
      <trkpt lat="43.11855" lon="3.11228">
        <ele>53</ele>
        <time>2026-02-22T10:51:51Z</time>
      </trkpt>
      <trkpt lat="43.11855" lon="3.11228">
        <ele>53</ele>
        <time>2026-02-22T10:51:53Z</time>
      </trkpt>
      <trkpt lat="43.11855" lon="3.11228">
        <ele>53</ele>
        <time>2026-02-22T10:51:55Z</time>
      </trkpt>
      <trkpt lat="43.11855" lon="3.11228">
        <ele>53</ele>
        <time>2026-02-22T10:51:57Z</time>
      </trkpt>
      <trkpt lat="43.11855" lon="3.11228">
        <ele>53</ele>
        <time>2026-02-22T10:51:59Z</time>
      </trkpt>
      <trkpt lat="43.11855" lon="3.11228">
        <ele>53</ele>
        <time>2026-02-22T10:52:01Z</time>
      </trkpt>
      <trkpt lat="43.11852" lon="3.11231">
        <ele>54</ele>
        <time>2026-02-22T10:52:03Z</time>
      </trkpt>
      <trkpt lat="43.11849" lon="3.11234">
        <ele>54</ele>
        <time>2026-02-22T10:52:05Z</time>
      </trkpt>
      <trkpt lat="43.11845" lon="3.11238">
        <ele>54</ele>
        <time>2026-02-22T10:52:07Z</time>
      </trkpt>
      <trkpt lat="43.11841" lon="3.1124">
        <ele>54</ele>
        <time>2026-02-22T10:52:09Z</time>
      </trkpt>
      <trkpt lat="43.11837" lon="3.11243">
        <ele>54</ele>
        <time>2026-02-22T10:52:11Z</time>
      </trkpt>
      <trkpt lat="43.11834" lon="3.11246">
        <ele>54</ele>
        <time>2026-02-22T10:52:13Z</time>
      </trkpt>
      <trkpt lat="43.1183" lon="3.11247">
        <ele>54</ele>
        <time>2026-02-22T10:52:15Z</time>
      </trkpt>
      <trkpt lat="43.11827" lon="3.11247">
        <ele>54</ele>
        <time>2026-02-22T10:52:17Z</time>
      </trkpt>
      <trkpt lat="43.11825" lon="3.11245">
        <ele>55</ele>
        <time>2026-02-22T10:52:19Z</time>
      </trkpt>
      <trkpt lat="43.11824" lon="3.11241">
        <ele>55</ele>
        <time>2026-02-22T10:52:21Z</time>
      </trkpt>
      <trkpt lat="43.11823" lon="3.11237">
        <ele>55</ele>
        <time>2026-02-22T10:52:23Z</time>
      </trkpt>
      <trkpt lat="43.1182" lon="3.11233">
        <ele>55</ele>
        <time>2026-02-22T10:52:25Z</time>
      </trkpt>
      <trkpt lat="43.11819" lon="3.11228">
        <ele>56</ele>
        <time>2026-02-22T10:52:27Z</time>
      </trkpt>
      <trkpt lat="43.11819" lon="3.11226">
        <ele>56</ele>
        <time>2026-02-22T10:52:29Z</time>
      </trkpt>
      <trkpt lat="43.11818" lon="3.11224">
        <ele>56</ele>
        <time>2026-02-22T10:52:31Z</time>
      </trkpt>
      <trkpt lat="43.11819" lon="3.11223">
        <ele>56</ele>
        <time>2026-02-22T10:52:33Z</time>
      </trkpt>
      <trkpt lat="43.11818" lon="3.11223">
        <ele>56</ele>
        <time>2026-02-22T10:52:35Z</time>
      </trkpt>
      <trkpt lat="43.11818" lon="3.11222">
        <ele>56</ele>
        <time>2026-02-22T10:52:37Z</time>
      </trkpt>
      <trkpt lat="43.11818" lon="3.11221">
        <ele>55</ele>
        <time>2026-02-22T10:52:39Z</time>
      </trkpt>
      <trkpt lat="43.11818" lon="3.11219">
        <ele>55</ele>
        <time>2026-02-22T10:52:41Z</time>
      </trkpt>
      <trkpt lat="43.11818" lon="3.11218">
        <ele>55</ele>
        <time>2026-02-22T10:52:43Z</time>
      </trkpt>
      <trkpt lat="43.11819" lon="3.11217">
        <ele>54</ele>
        <time>2026-02-22T10:52:45Z</time>
      </trkpt>
      <trkpt lat="43.11826" lon="3.11249">
        <ele>53</ele>
        <time>2026-02-22T11:17:24Z</time>
      </trkpt>
      <trkpt lat="43.11826" lon="3.11249">
        <ele>53</ele>
        <time>2026-02-22T11:17:26Z</time>
      </trkpt>
      <trkpt lat="43.11826" lon="3.11248">
        <ele>53</ele>
        <time>2026-02-22T11:17:28Z</time>
      </trkpt>
      <trkpt lat="43.11826" lon="3.11248">
        <ele>53</ele>
        <time>2026-02-22T11:17:30Z</time>
      </trkpt>
      <trkpt lat="43.11826" lon="3.11248">
        <ele>53</ele>
        <time>2026-02-22T11:17:32Z</time>
      </trkpt>
      <trkpt lat="43.11826" lon="3.11248">
        <ele>53</ele>
        <time>2026-02-22T11:17:34Z</time>
      </trkpt>
      <trkpt lat="43.11826" lon="3.11248">
        <ele>53</ele>
        <time>2026-02-22T11:17:36Z</time>
      </trkpt>
      <trkpt lat="43.11826" lon="3.11248">
        <ele>53</ele>
        <time>2026-02-22T11:17:38Z</time>
      </trkpt>
      <trkpt lat="43.11826" lon="3.11248">
        <ele>53</ele>
        <time>2026-02-22T11:17:40Z</time>
      </trkpt>
      <trkpt lat="43.11825" lon="3.11252">
        <ele>53</ele>
        <time>2026-02-22T11:17:42Z</time>
      </trkpt>
      <trkpt lat="43.11821" lon="3.11253">
        <ele>53</ele>
        <time>2026-02-22T11:17:44Z</time>
      </trkpt>
      <trkpt lat="43.11817" lon="3.11254">
        <ele>53</ele>
        <time>2026-02-22T11:17:46Z</time>
      </trkpt>
      <trkpt lat="43.11812" lon="3.11255">
        <ele>53</ele>
        <time>2026-02-22T11:17:48Z</time>
      </trkpt>
      <trkpt lat="43.11808" lon="3.11255">
        <ele>53</ele>
        <time>2026-02-22T11:17:50Z</time>
      </trkpt>
      <trkpt lat="43.11804" lon="3.11255">
        <ele>52</ele>
        <time>2026-02-22T11:17:52Z</time>
      </trkpt>
      <trkpt lat="43.118" lon="3.11254">
        <ele>52</ele>
        <time>2026-02-22T11:17:54Z</time>
      </trkpt>
      <trkpt lat="43.11797" lon="3.11254">
        <ele>52</ele>
        <time>2026-02-22T11:17:56Z</time>
      </trkpt>
      <trkpt lat="43.11796" lon="3.11254">
        <ele>52</ele>
        <time>2026-02-22T11:17:58Z</time>
      </trkpt>
      <trkpt lat="43.11796" lon="3.11254">
        <ele>52</ele>
        <time>2026-02-22T11:18:00Z</time>
      </trkpt>
      <trkpt lat="43.11796" lon="3.11254">
        <ele>52</ele>
        <time>2026-02-22T11:18:02Z</time>
      </trkpt>
      <trkpt lat="43.11795" lon="3.11254">
        <ele>52</ele>
        <time>2026-02-22T11:18:04Z</time>
      </trkpt>
      <trkpt lat="43.11795" lon="3.11254">
        <ele>52</ele>
        <time>2026-02-22T11:18:06Z</time>
      </trkpt>
      <trkpt lat="43.11795" lon="3.11254">
        <ele>52</ele>
        <time>2026-02-22T11:18:08Z</time>
      </trkpt>
      <trkpt lat="43.11795" lon="3.11254">
        <ele>52</ele>
        <time>2026-02-22T11:18:10Z</time>
      </trkpt>
      <trkpt lat="43.11795" lon="3.11254">
        <ele>52</ele>
        <time>2026-02-22T11:18:12Z</time>
      </trkpt>
      <trkpt lat="43.11795" lon="3.11254">
        <ele>52</ele>
        <time>2026-02-22T11:18:14Z</time>
      </trkpt>
      <trkpt lat="43.11795" lon="3.11254">
        <ele>52</ele>
        <time>2026-02-22T11:18:16Z</time>
      </trkpt>
      <trkpt lat="43.11795" lon="3.11254">
        <ele>52</ele>
        <time>2026-02-22T11:18:18Z</time>
      </trkpt>
      <trkpt lat="43.11795" lon="3.11254">
        <ele>52</ele>
        <time>2026-02-22T11:18:20Z</time>
      </trkpt>
      <trkpt lat="43.11793" lon="3.11255">
        <ele>52</ele>
        <time>2026-02-22T11:18:22Z</time>
      </trkpt>
      <trkpt lat="43.1179" lon="3.11256">
        <ele>52</ele>
        <time>2026-02-22T11:18:24Z</time>
      </trkpt>
      <trkpt lat="43.11784" lon="3.11256">
        <ele>52</ele>
        <time>2026-02-22T11:18:26Z</time>
      </trkpt>
      <trkpt lat="43.11777" lon="3.11257">
        <ele>53</ele>
        <time>2026-02-22T11:18:28Z</time>
      </trkpt>
      <trkpt lat="43.1177" lon="3.11258">
        <ele>52</ele>
        <time>2026-02-22T11:18:30Z</time>
      </trkpt>
      <trkpt lat="43.11763" lon="3.11259">
        <ele>51</ele>
        <time>2026-02-22T11:18:32Z</time>
      </trkpt>
      <trkpt lat="43.11756" lon="3.1126">
        <ele>50</ele>
        <time>2026-02-22T11:18:34Z</time>
      </trkpt>
      <trkpt lat="43.11749" lon="3.1126">
        <ele>50</ele>
        <time>2026-02-22T11:18:36Z</time>
      </trkpt>
      <trkpt lat="43.11742" lon="3.11258">
        <ele>50</ele>
        <time>2026-02-22T11:18:38Z</time>
      </trkpt>
      <trkpt lat="43.11737" lon="3.11254">
        <ele>50</ele>
        <time>2026-02-22T11:18:40Z</time>
      </trkpt>
      <trkpt lat="43.11733" lon="3.11248">
        <ele>50</ele>
        <time>2026-02-22T11:18:42Z</time>
      </trkpt>
      <trkpt lat="43.1173" lon="3.11244">
        <ele>49</ele>
        <time>2026-02-22T11:18:44Z</time>
      </trkpt>
      <trkpt lat="43.11725" lon="3.1124">
        <ele>49</ele>
        <time>2026-02-22T11:18:46Z</time>
      </trkpt>
      <trkpt lat="43.11722" lon="3.11235">
        <ele>48</ele>
        <time>2026-02-22T11:18:48Z</time>
      </trkpt>
      <trkpt lat="43.11721" lon="3.11228">
        <ele>48</ele>
        <time>2026-02-22T11:18:50Z</time>
      </trkpt>
      <trkpt lat="43.1172" lon="3.11221">
        <ele>47</ele>
        <time>2026-02-22T11:18:52Z</time>
      </trkpt>
      <trkpt lat="43.1172" lon="3.11215">
        <ele>46</ele>
        <time>2026-02-22T11:18:54Z</time>
      </trkpt>
      <trkpt lat="43.11719" lon="3.11208">
        <ele>47</ele>
        <time>2026-02-22T11:18:56Z</time>
      </trkpt>
      <trkpt lat="43.11718" lon="3.112">
        <ele>47</ele>
        <time>2026-02-22T11:18:58Z</time>
      </trkpt>
      <trkpt lat="43.11717" lon="3.11193">
        <ele>47</ele>
        <time>2026-02-22T11:19:00Z</time>
      </trkpt>
      <trkpt lat="43.11714" lon="3.11185">
        <ele>47</ele>
        <time>2026-02-22T11:19:02Z</time>
      </trkpt>
      <trkpt lat="43.11712" lon="3.11175">
        <ele>48</ele>
        <time>2026-02-22T11:19:04Z</time>
      </trkpt>
      <trkpt lat="43.1171" lon="3.11166">
        <ele>49</ele>
        <time>2026-02-22T11:19:06Z</time>
      </trkpt>
      <trkpt lat="43.11707" lon="3.11156">
        <ele>49</ele>
        <time>2026-02-22T11:19:08Z</time>
      </trkpt>
      <trkpt lat="43.11705" lon="3.11147">
        <ele>50</ele>
        <time>2026-02-22T11:19:10Z</time>
      </trkpt>
      <trkpt lat="43.11702" lon="3.11138">
        <ele>50</ele>
        <time>2026-02-22T11:19:12Z</time>
      </trkpt>
      <trkpt lat="43.11699" lon="3.11128">
        <ele>50</ele>
        <time>2026-02-22T11:19:14Z</time>
      </trkpt>
      <trkpt lat="43.11696" lon="3.11119">
        <ele>50</ele>
        <time>2026-02-22T11:19:16Z</time>
      </trkpt>
      <trkpt lat="43.11693" lon="3.11111">
        <ele>49</ele>
        <time>2026-02-22T11:19:18Z</time>
      </trkpt>
      <trkpt lat="43.1169" lon="3.11102">
        <ele>49</ele>
        <time>2026-02-22T11:19:20Z</time>
      </trkpt>
      <trkpt lat="43.11686" lon="3.11094">
        <ele>49</ele>
        <time>2026-02-22T11:19:22Z</time>
      </trkpt>
      <trkpt lat="43.11683" lon="3.11086">
        <ele>48</ele>
        <time>2026-02-22T11:19:24Z</time>
      </trkpt>
      <trkpt lat="43.11681" lon="3.11078">
        <ele>47</ele>
        <time>2026-02-22T11:19:26Z</time>
      </trkpt>
      <trkpt lat="43.11678" lon="3.1107">
        <ele>47</ele>
        <time>2026-02-22T11:19:28Z</time>
      </trkpt>
      <trkpt lat="43.11674" lon="3.11062">
        <ele>47</ele>
        <time>2026-02-22T11:19:30Z</time>
      </trkpt>
      <trkpt lat="43.1167" lon="3.11055">
        <ele>47</ele>
        <time>2026-02-22T11:19:32Z</time>
      </trkpt>
      <trkpt lat="43.11666" lon="3.11049">
        <ele>47</ele>
        <time>2026-02-22T11:19:34Z</time>
      </trkpt>
      <trkpt lat="43.11664" lon="3.11041">
        <ele>47</ele>
        <time>2026-02-22T11:19:36Z</time>
      </trkpt>
      <trkpt lat="43.11663" lon="3.11033">
        <ele>47</ele>
        <time>2026-02-22T11:19:38Z</time>
      </trkpt>
      <trkpt lat="43.11663" lon="3.11027">
        <ele>48</ele>
        <time>2026-02-22T11:19:40Z</time>
      </trkpt>
      <trkpt lat="43.11664" lon="3.1102">
        <ele>49</ele>
        <time>2026-02-22T11:19:42Z</time>
      </trkpt>
      <trkpt lat="43.11665" lon="3.11015">
        <ele>49</ele>
        <time>2026-02-22T11:19:44Z</time>
      </trkpt>
      <trkpt lat="43.11664" lon="3.11011">
        <ele>49</ele>
        <time>2026-02-22T11:19:46Z</time>
      </trkpt>
      <trkpt lat="43.1166" lon="3.11007">
        <ele>50</ele>
        <time>2026-02-22T11:19:48Z</time>
      </trkpt>
      <trkpt lat="43.11655" lon="3.11005">
        <ele>49</ele>
        <time>2026-02-22T11:19:50Z</time>
      </trkpt>
      <trkpt lat="43.1165" lon="3.11">
        <ele>49</ele>
        <time>2026-02-22T11:19:52Z</time>
      </trkpt>
      <trkpt lat="43.11644" lon="3.10994">
        <ele>48</ele>
        <time>2026-02-22T11:19:54Z</time>
      </trkpt>
      <trkpt lat="43.11638" lon="3.10986">
        <ele>48</ele>
        <time>2026-02-22T11:19:56Z</time>
      </trkpt>
      <trkpt lat="43.11634" lon="3.10977">
        <ele>48</ele>
        <time>2026-02-22T11:19:58Z</time>
      </trkpt>
      <trkpt lat="43.1163" lon="3.10968">
        <ele>47</ele>
        <time>2026-02-22T11:20:00Z</time>
      </trkpt>
      <trkpt lat="43.11626" lon="3.10959">
        <ele>47</ele>
        <time>2026-02-22T11:20:02Z</time>
      </trkpt>
      <trkpt lat="43.11622" lon="3.1095">
        <ele>48</ele>
        <time>2026-02-22T11:20:04Z</time>
      </trkpt>
      <trkpt lat="43.11618" lon="3.10941">
        <ele>48</ele>
        <time>2026-02-22T11:20:06Z</time>
      </trkpt>
      <trkpt lat="43.11614" lon="3.10933">
        <ele>47</ele>
        <time>2026-02-22T11:20:08Z</time>
      </trkpt>
      <trkpt lat="43.1161" lon="3.10924">
        <ele>47</ele>
        <time>2026-02-22T11:20:10Z</time>
      </trkpt>
      <trkpt lat="43.11605" lon="3.10915">
        <ele>47</ele>
        <time>2026-02-22T11:20:12Z</time>
      </trkpt>
      <trkpt lat="43.11601" lon="3.10905">
        <ele>47</ele>
        <time>2026-02-22T11:20:14Z</time>
      </trkpt>
      <trkpt lat="43.11597" lon="3.10896">
        <ele>47</ele>
        <time>2026-02-22T11:20:16Z</time>
      </trkpt>
      <trkpt lat="43.11592" lon="3.10886">
        <ele>46</ele>
        <time>2026-02-22T11:20:18Z</time>
      </trkpt>
      <trkpt lat="43.11587" lon="3.10875">
        <ele>45</ele>
        <time>2026-02-22T11:20:20Z</time>
      </trkpt>
      <trkpt lat="43.11583" lon="3.10865">
        <ele>45</ele>
        <time>2026-02-22T11:20:22Z</time>
      </trkpt>
      <trkpt lat="43.11578" lon="3.10854">
        <ele>45</ele>
        <time>2026-02-22T11:20:24Z</time>
      </trkpt>
      <trkpt lat="43.11574" lon="3.10844">
        <ele>44</ele>
        <time>2026-02-22T11:20:26Z</time>
      </trkpt>
      <trkpt lat="43.11569" lon="3.10834">
        <ele>45</ele>
        <time>2026-02-22T11:20:28Z</time>
      </trkpt>
      <trkpt lat="43.11563" lon="3.10824">
        <ele>45</ele>
        <time>2026-02-22T11:20:30Z</time>
      </trkpt>
      <trkpt lat="43.11559" lon="3.10814">
        <ele>45</ele>
        <time>2026-02-22T11:20:32Z</time>
      </trkpt>
      <trkpt lat="43.11554" lon="3.10804">
        <ele>45</ele>
        <time>2026-02-22T11:20:34Z</time>
      </trkpt>
      <trkpt lat="43.1155" lon="3.10795">
        <ele>44</ele>
        <time>2026-02-22T11:20:36Z</time>
      </trkpt>
      <trkpt lat="43.11546" lon="3.10785">
        <ele>43</ele>
        <time>2026-02-22T11:20:38Z</time>
      </trkpt>
      <trkpt lat="43.11542" lon="3.10776">
        <ele>42</ele>
        <time>2026-02-22T11:20:40Z</time>
      </trkpt>
      <trkpt lat="43.11537" lon="3.10767">
        <ele>42</ele>
        <time>2026-02-22T11:20:42Z</time>
      </trkpt>
      <trkpt lat="43.11532" lon="3.10757">
        <ele>43</ele>
        <time>2026-02-22T11:20:44Z</time>
      </trkpt>
      <trkpt lat="43.11528" lon="3.10748">
        <ele>43</ele>
        <time>2026-02-22T11:20:46Z</time>
      </trkpt>
      <trkpt lat="43.11523" lon="3.10739">
        <ele>43</ele>
        <time>2026-02-22T11:20:48Z</time>
      </trkpt>
      <trkpt lat="43.11518" lon="3.1073">
        <ele>43</ele>
        <time>2026-02-22T11:20:50Z</time>
      </trkpt>
      <trkpt lat="43.11513" lon="3.1072">
        <ele>42</ele>
        <time>2026-02-22T11:20:52Z</time>
      </trkpt>
      <trkpt lat="43.11509" lon="3.1071">
        <ele>42</ele>
        <time>2026-02-22T11:20:54Z</time>
      </trkpt>
      <trkpt lat="43.11504" lon="3.107">
        <ele>41</ele>
        <time>2026-02-22T11:20:56Z</time>
      </trkpt>
      <trkpt lat="43.11501" lon="3.10689">
        <ele>42</ele>
        <time>2026-02-22T11:20:58Z</time>
      </trkpt>
      <trkpt lat="43.115" lon="3.10679">
        <ele>42</ele>
        <time>2026-02-22T11:21:00Z</time>
      </trkpt>
      <trkpt lat="43.115" lon="3.10668">
        <ele>43</ele>
        <time>2026-02-22T11:21:02Z</time>
      </trkpt>
      <trkpt lat="43.115" lon="3.10659">
        <ele>43</ele>
        <time>2026-02-22T11:21:04Z</time>
      </trkpt>
      <trkpt lat="43.11496" lon="3.10652">
        <ele>44</ele>
        <time>2026-02-22T11:21:06Z</time>
      </trkpt>
      <trkpt lat="43.11492" lon="3.10646">
        <ele>44</ele>
        <time>2026-02-22T11:21:08Z</time>
      </trkpt>
      <trkpt lat="43.11487" lon="3.10642">
        <ele>44</ele>
        <time>2026-02-22T11:21:10Z</time>
      </trkpt>
      <trkpt lat="43.11484" lon="3.1064">
        <ele>45</ele>
        <time>2026-02-22T11:21:12Z</time>
      </trkpt>
      <trkpt lat="43.11484" lon="3.1064">
        <ele>46</ele>
        <time>2026-02-22T11:21:14Z</time>
      </trkpt>
      <trkpt lat="43.11484" lon="3.1064">
        <ele>47</ele>
        <time>2026-02-22T11:21:16Z</time>
      </trkpt>
      <trkpt lat="43.11484" lon="3.1064">
        <ele>47</ele>
        <time>2026-02-22T11:21:18Z</time>
      </trkpt>
      <trkpt lat="43.11484" lon="3.10639">
        <ele>48</ele>
        <time>2026-02-22T11:21:20Z</time>
      </trkpt>
      <trkpt lat="43.11484" lon="3.10639">
        <ele>49</ele>
        <time>2026-02-22T11:21:22Z</time>
      </trkpt>
      <trkpt lat="43.11484" lon="3.10639">
        <ele>49</ele>
        <time>2026-02-22T11:21:24Z</time>
      </trkpt>
      <trkpt lat="43.11484" lon="3.10639">
        <ele>49</ele>
        <time>2026-02-22T11:21:26Z</time>
      </trkpt>
      <trkpt lat="43.11481" lon="3.10638">
        <ele>50</ele>
        <time>2026-02-22T11:21:28Z</time>
      </trkpt>
      <trkpt lat="43.11478" lon="3.10637">
        <ele>50</ele>
        <time>2026-02-22T11:21:30Z</time>
      </trkpt>
      <trkpt lat="43.11474" lon="3.10635">
        <ele>51</ele>
        <time>2026-02-22T11:21:32Z</time>
      </trkpt>
      <trkpt lat="43.1147" lon="3.10631">
        <ele>51</ele>
        <time>2026-02-22T11:21:34Z</time>
      </trkpt>
      <trkpt lat="43.11468" lon="3.10625">
        <ele>51</ele>
        <time>2026-02-22T11:21:36Z</time>
      </trkpt>
      <trkpt lat="43.11465" lon="3.10618">
        <ele>51</ele>
        <time>2026-02-22T11:21:38Z</time>
      </trkpt>
      <trkpt lat="43.11461" lon="3.10611">
        <ele>51</ele>
        <time>2026-02-22T11:21:40Z</time>
      </trkpt>
      <trkpt lat="43.11459" lon="3.10604">
        <ele>50</ele>
        <time>2026-02-22T11:21:42Z</time>
      </trkpt>
      <trkpt lat="43.11456" lon="3.10598">
        <ele>50</ele>
        <time>2026-02-22T11:21:44Z</time>
      </trkpt>
      <trkpt lat="43.11453" lon="3.10591">
        <ele>50</ele>
        <time>2026-02-22T11:21:46Z</time>
      </trkpt>
      <trkpt lat="43.11449" lon="3.10584">
        <ele>49</ele>
        <time>2026-02-22T11:21:48Z</time>
      </trkpt>
      <trkpt lat="43.11446" lon="3.10576">
        <ele>48</ele>
        <time>2026-02-22T11:21:50Z</time>
      </trkpt>
      <trkpt lat="43.11443" lon="3.10568">
        <ele>47</ele>
        <time>2026-02-22T11:21:52Z</time>
      </trkpt>
      <trkpt lat="43.11439" lon="3.1056">
        <ele>46</ele>
        <time>2026-02-22T11:21:54Z</time>
      </trkpt>
      <trkpt lat="43.11435" lon="3.10551">
        <ele>46</ele>
        <time>2026-02-22T11:21:56Z</time>
      </trkpt>
      <trkpt lat="43.11431" lon="3.10542">
        <ele>46</ele>
        <time>2026-02-22T11:21:58Z</time>
      </trkpt>
      <trkpt lat="43.11426" lon="3.10532">
        <ele>45</ele>
        <time>2026-02-22T11:22:00Z</time>
      </trkpt>
      <trkpt lat="43.11422" lon="3.10523">
        <ele>45</ele>
        <time>2026-02-22T11:22:02Z</time>
      </trkpt>
      <trkpt lat="43.11418" lon="3.10514">
        <ele>45</ele>
        <time>2026-02-22T11:22:04Z</time>
      </trkpt>
      <trkpt lat="43.11414" lon="3.10505">
        <ele>44</ele>
        <time>2026-02-22T11:22:06Z</time>
      </trkpt>
      <trkpt lat="43.1141" lon="3.10496">
        <ele>44</ele>
        <time>2026-02-22T11:22:08Z</time>
      </trkpt>
      <trkpt lat="43.11407" lon="3.10486">
        <ele>43</ele>
        <time>2026-02-22T11:22:10Z</time>
      </trkpt>
      <trkpt lat="43.11404" lon="3.10476">
        <ele>44</ele>
        <time>2026-02-22T11:22:12Z</time>
      </trkpt>
      <trkpt lat="43.11403" lon="3.10465">
        <ele>45</ele>
        <time>2026-02-22T11:22:14Z</time>
      </trkpt>
      <trkpt lat="43.11403" lon="3.10454">
        <ele>45</ele>
        <time>2026-02-22T11:22:16Z</time>
      </trkpt>
      <trkpt lat="43.11406" lon="3.10446">
        <ele>46</ele>
        <time>2026-02-22T11:22:18Z</time>
      </trkpt>
      <trkpt lat="43.11411" lon="3.10439">
        <ele>47</ele>
        <time>2026-02-22T11:22:20Z</time>
      </trkpt>
      <trkpt lat="43.11414" lon="3.10431">
        <ele>47</ele>
        <time>2026-02-22T11:22:22Z</time>
      </trkpt>
      <trkpt lat="43.11416" lon="3.10421">
        <ele>48</ele>
        <time>2026-02-22T11:22:24Z</time>
      </trkpt>
      <trkpt lat="43.11416" lon="3.10411">
        <ele>48</ele>
        <time>2026-02-22T11:22:26Z</time>
      </trkpt>
      <trkpt lat="43.11413" lon="3.10403">
        <ele>48</ele>
        <time>2026-02-22T11:22:28Z</time>
      </trkpt>
      <trkpt lat="43.11408" lon="3.10395">
        <ele>48</ele>
        <time>2026-02-22T11:22:30Z</time>
      </trkpt>
      <trkpt lat="43.11402" lon="3.10389">
        <ele>47</ele>
        <time>2026-02-22T11:22:32Z</time>
      </trkpt>
      <trkpt lat="43.11396" lon="3.10386">
        <ele>47</ele>
        <time>2026-02-22T11:22:34Z</time>
      </trkpt>
      <trkpt lat="43.11389" lon="3.10386">
        <ele>46</ele>
        <time>2026-02-22T11:22:36Z</time>
      </trkpt>
      <trkpt lat="43.11382" lon="3.1039">
        <ele>47</ele>
        <time>2026-02-22T11:22:38Z</time>
      </trkpt>
      <trkpt lat="43.11375" lon="3.10394">
        <ele>48</ele>
        <time>2026-02-22T11:22:40Z</time>
      </trkpt>
      <trkpt lat="43.11368" lon="3.10397">
        <ele>48</ele>
        <time>2026-02-22T11:22:42Z</time>
      </trkpt>
      <trkpt lat="43.11361" lon="3.10396">
        <ele>48</ele>
        <time>2026-02-22T11:22:44Z</time>
      </trkpt>
      <trkpt lat="43.11356" lon="3.10394">
        <ele>48</ele>
        <time>2026-02-22T11:22:46Z</time>
      </trkpt>
      <trkpt lat="43.11354" lon="3.10393">
        <ele>47</ele>
        <time>2026-02-22T11:22:48Z</time>
      </trkpt>
      <trkpt lat="43.11353" lon="3.10393">
        <ele>48</ele>
        <time>2026-02-22T11:22:50Z</time>
      </trkpt>
      <trkpt lat="43.11353" lon="3.10393">
        <ele>48</ele>
        <time>2026-02-22T11:22:52Z</time>
      </trkpt>
      <trkpt lat="43.11353" lon="3.10393">
        <ele>49</ele>
        <time>2026-02-22T11:22:54Z</time>
      </trkpt>
      <trkpt lat="43.11353" lon="3.10393">
        <ele>50</ele>
        <time>2026-02-22T11:22:56Z</time>
      </trkpt>
      <trkpt lat="43.11352" lon="3.10392">
        <ele>50</ele>
        <time>2026-02-22T11:22:58Z</time>
      </trkpt>
      <trkpt lat="43.11352" lon="3.10392">
        <ele>50</ele>
        <time>2026-02-22T11:23:00Z</time>
      </trkpt>
      <trkpt lat="43.11352" lon="3.10392">
        <ele>50</ele>
        <time>2026-02-22T11:23:02Z</time>
      </trkpt>
      <trkpt lat="43.11352" lon="3.10392">
        <ele>50</ele>
        <time>2026-02-22T11:23:04Z</time>
      </trkpt>
      <trkpt lat="43.11351" lon="3.10395">
        <ele>51</ele>
        <time>2026-02-22T11:23:06Z</time>
      </trkpt>
      <trkpt lat="43.11349" lon="3.10398">
        <ele>51</ele>
        <time>2026-02-22T11:23:08Z</time>
      </trkpt>
      <trkpt lat="43.11347" lon="3.104">
        <ele>51</ele>
        <time>2026-02-22T11:23:10Z</time>
      </trkpt>
      <trkpt lat="43.11342" lon="3.10399">
        <ele>51</ele>
        <time>2026-02-22T11:23:12Z</time>
      </trkpt>
      <trkpt lat="43.11337" lon="3.10397">
        <ele>51</ele>
        <time>2026-02-22T11:23:14Z</time>
      </trkpt>
      <trkpt lat="43.11332" lon="3.10394">
        <ele>51</ele>
        <time>2026-02-22T11:23:16Z</time>
      </trkpt>
      <trkpt lat="43.11326" lon="3.10391">
        <ele>50</ele>
        <time>2026-02-22T11:23:18Z</time>
      </trkpt>
      <trkpt lat="43.11321" lon="3.10388">
        <ele>50</ele>
        <time>2026-02-22T11:23:20Z</time>
      </trkpt>
      <trkpt lat="43.11315" lon="3.10386">
        <ele>49</ele>
        <time>2026-02-22T11:23:22Z</time>
      </trkpt>
      <trkpt lat="43.1131" lon="3.10385">
        <ele>48</ele>
        <time>2026-02-22T11:23:24Z</time>
      </trkpt>
      <trkpt lat="43.11305" lon="3.10383">
        <ele>49</ele>
        <time>2026-02-22T11:23:26Z</time>
      </trkpt>
      <trkpt lat="43.11301" lon="3.10383">
        <ele>49</ele>
        <time>2026-02-22T11:23:28Z</time>
      </trkpt>
      <trkpt lat="43.11297" lon="3.10382">
        <ele>49</ele>
        <time>2026-02-22T11:23:30Z</time>
      </trkpt>
      <trkpt lat="43.11293" lon="3.10381">
        <ele>50</ele>
        <time>2026-02-22T11:23:32Z</time>
      </trkpt>
      <trkpt lat="43.1129" lon="3.1038">
        <ele>50</ele>
        <time>2026-02-22T11:23:34Z</time>
      </trkpt>
      <trkpt lat="43.11288" lon="3.1038">
        <ele>50</ele>
        <time>2026-02-22T11:23:36Z</time>
      </trkpt>
      <trkpt lat="43.11285" lon="3.10379">
        <ele>50</ele>
        <time>2026-02-22T11:23:38Z</time>
      </trkpt>
      <trkpt lat="43.11282" lon="3.10378">
        <ele>51</ele>
        <time>2026-02-22T11:23:40Z</time>
      </trkpt>
      <trkpt lat="43.11278" lon="3.10378">
        <ele>51</ele>
        <time>2026-02-22T11:23:42Z</time>
      </trkpt>
      <trkpt lat="43.11274" lon="3.10378">
        <ele>51</ele>
        <time>2026-02-22T11:23:44Z</time>
      </trkpt>
      <trkpt lat="43.11268" lon="3.10376">
        <ele>52</ele>
        <time>2026-02-22T11:23:46Z</time>
      </trkpt>
      <trkpt lat="43.11262" lon="3.10375">
        <ele>52</ele>
        <time>2026-02-22T11:23:48Z</time>
      </trkpt>
      <trkpt lat="43.11257" lon="3.10375">
        <ele>52</ele>
        <time>2026-02-22T11:23:50Z</time>
      </trkpt>
      <trkpt lat="43.11252" lon="3.10374">
        <ele>52</ele>
        <time>2026-02-22T11:23:52Z</time>
      </trkpt>
      <trkpt lat="43.11247" lon="3.10373">
        <ele>51</ele>
        <time>2026-02-22T11:23:54Z</time>
      </trkpt>
      <trkpt lat="43.11242" lon="3.10371">
        <ele>51</ele>
        <time>2026-02-22T11:23:56Z</time>
      </trkpt>
      <trkpt lat="43.11237" lon="3.10367">
        <ele>50</ele>
        <time>2026-02-22T11:23:58Z</time>
      </trkpt>
      <trkpt lat="43.11233" lon="3.10362">
        <ele>49</ele>
        <time>2026-02-22T11:24:00Z</time>
      </trkpt>
      <trkpt lat="43.11228" lon="3.10356">
        <ele>49</ele>
        <time>2026-02-22T11:24:02Z</time>
      </trkpt>
      <trkpt lat="43.11223" lon="3.1035">
        <ele>49</ele>
        <time>2026-02-22T11:24:04Z</time>
      </trkpt>
      <trkpt lat="43.11218" lon="3.10344">
        <ele>50</ele>
        <time>2026-02-22T11:24:06Z</time>
      </trkpt>
      <trkpt lat="43.11213" lon="3.10338">
        <ele>50</ele>
        <time>2026-02-22T11:24:08Z</time>
      </trkpt>
      <trkpt lat="43.11209" lon="3.10332">
        <ele>50</ele>
        <time>2026-02-22T11:24:10Z</time>
      </trkpt>
      <trkpt lat="43.11205" lon="3.10325">
        <ele>50</ele>
        <time>2026-02-22T11:24:12Z</time>
      </trkpt>
      <trkpt lat="43.11201" lon="3.10319">
        <ele>51</ele>
        <time>2026-02-22T11:24:14Z</time>
      </trkpt>
      <trkpt lat="43.11196" lon="3.10312">
        <ele>51</ele>
        <time>2026-02-22T11:24:16Z</time>
      </trkpt>
      <trkpt lat="43.11191" lon="3.10305">
        <ele>51</ele>
        <time>2026-02-22T11:24:18Z</time>
      </trkpt>
      <trkpt lat="43.11185" lon="3.10298">
        <ele>51</ele>
        <time>2026-02-22T11:24:20Z</time>
      </trkpt>
      <trkpt lat="43.11179" lon="3.10291">
        <ele>51</ele>
        <time>2026-02-22T11:24:22Z</time>
      </trkpt>
      <trkpt lat="43.11174" lon="3.10284">
        <ele>51</ele>
        <time>2026-02-22T11:24:24Z</time>
      </trkpt>
      <trkpt lat="43.11168" lon="3.10276">
        <ele>50</ele>
        <time>2026-02-22T11:24:26Z</time>
      </trkpt>
      <trkpt lat="43.11163" lon="3.10269">
        <ele>50</ele>
        <time>2026-02-22T11:24:28Z</time>
      </trkpt>
      <trkpt lat="43.11158" lon="3.10262">
        <ele>51</ele>
        <time>2026-02-22T11:24:30Z</time>
      </trkpt>
      <trkpt lat="43.11153" lon="3.10256">
        <ele>51</ele>
        <time>2026-02-22T11:24:32Z</time>
      </trkpt>
      <trkpt lat="43.11148" lon="3.10249">
        <ele>51</ele>
        <time>2026-02-22T11:24:34Z</time>
      </trkpt>
      <trkpt lat="43.11143" lon="3.10243">
        <ele>51</ele>
        <time>2026-02-22T11:24:36Z</time>
      </trkpt>
      <trkpt lat="43.11138" lon="3.10236">
        <ele>51</ele>
        <time>2026-02-22T11:24:38Z</time>
      </trkpt>
      <trkpt lat="43.11133" lon="3.10229">
        <ele>51</ele>
        <time>2026-02-22T11:24:40Z</time>
      </trkpt>
      <trkpt lat="43.11129" lon="3.10223">
        <ele>52</ele>
        <time>2026-02-22T11:24:42Z</time>
      </trkpt>
      <trkpt lat="43.11124" lon="3.10216">
        <ele>52</ele>
        <time>2026-02-22T11:24:44Z</time>
      </trkpt>
      <trkpt lat="43.11119" lon="3.10209">
        <ele>52</ele>
        <time>2026-02-22T11:24:46Z</time>
      </trkpt>
      <trkpt lat="43.11114" lon="3.10203">
        <ele>53</ele>
        <time>2026-02-22T11:24:48Z</time>
      </trkpt>
      <trkpt lat="43.1111" lon="3.10196">
        <ele>53</ele>
        <time>2026-02-22T11:24:50Z</time>
      </trkpt>
      <trkpt lat="43.11104" lon="3.1019">
        <ele>53</ele>
        <time>2026-02-22T11:24:52Z</time>
      </trkpt>
      <trkpt lat="43.111" lon="3.10184">
        <ele>52</ele>
        <time>2026-02-22T11:24:54Z</time>
      </trkpt>
      <trkpt lat="43.11095" lon="3.10178">
        <ele>51</ele>
        <time>2026-02-22T11:24:56Z</time>
      </trkpt>
      <trkpt lat="43.1109" lon="3.10172">
        <ele>51</ele>
        <time>2026-02-22T11:24:58Z</time>
      </trkpt>
      <trkpt lat="43.11085" lon="3.10166">
        <ele>51</ele>
        <time>2026-02-22T11:25:00Z</time>
      </trkpt>
      <trkpt lat="43.1108" lon="3.10159">
        <ele>51</ele>
        <time>2026-02-22T11:25:02Z</time>
      </trkpt>
      <trkpt lat="43.11076" lon="3.10151">
        <ele>50</ele>
        <time>2026-02-22T11:25:04Z</time>
      </trkpt>
      <trkpt lat="43.11074" lon="3.10143">
        <ele>50</ele>
        <time>2026-02-22T11:25:06Z</time>
      </trkpt>
      <trkpt lat="43.11071" lon="3.10135">
        <ele>50</ele>
        <time>2026-02-22T11:25:08Z</time>
      </trkpt>
      <trkpt lat="43.11069" lon="3.10128">
        <ele>50</ele>
        <time>2026-02-22T11:25:10Z</time>
      </trkpt>
      <trkpt lat="43.11064" lon="3.10123">
        <ele>50</ele>
        <time>2026-02-22T11:25:12Z</time>
      </trkpt>
      <trkpt lat="43.11057" lon="3.10122">
        <ele>49</ele>
        <time>2026-02-22T11:25:14Z</time>
      </trkpt>
      <trkpt lat="43.11049" lon="3.10121">
        <ele>48</ele>
        <time>2026-02-22T11:25:16Z</time>
      </trkpt>
      <trkpt lat="43.11041" lon="3.10121">
        <ele>47</ele>
        <time>2026-02-22T11:25:18Z</time>
      </trkpt>
      <trkpt lat="43.11032" lon="3.1012">
        <ele>48</ele>
        <time>2026-02-22T11:25:20Z</time>
      </trkpt>
      <trkpt lat="43.11022" lon="3.10119">
        <ele>48</ele>
        <time>2026-02-22T11:25:22Z</time>
      </trkpt>
      <trkpt lat="43.11013" lon="3.10118">
        <ele>49</ele>
        <time>2026-02-22T11:25:24Z</time>
      </trkpt>
      <trkpt lat="43.11004" lon="3.10116">
        <ele>50</ele>
        <time>2026-02-22T11:25:26Z</time>
      </trkpt>
      <trkpt lat="43.10996" lon="3.10114">
        <ele>51</ele>
        <time>2026-02-22T11:25:28Z</time>
      </trkpt>
      <trkpt lat="43.10987" lon="3.10113">
        <ele>52</ele>
        <time>2026-02-22T11:25:30Z</time>
      </trkpt>
      <trkpt lat="43.10979" lon="3.10113">
        <ele>52</ele>
        <time>2026-02-22T11:25:32Z</time>
      </trkpt>
      <trkpt lat="43.10971" lon="3.10111">
        <ele>52</ele>
        <time>2026-02-22T11:25:34Z</time>
      </trkpt>
      <trkpt lat="43.10964" lon="3.10111">
        <ele>53</ele>
        <time>2026-02-22T11:25:36Z</time>
      </trkpt>
      <trkpt lat="43.10957" lon="3.1011">
        <ele>53</ele>
        <time>2026-02-22T11:25:38Z</time>
      </trkpt>
      <trkpt lat="43.1095" lon="3.1011">
        <ele>53</ele>
        <time>2026-02-22T11:25:40Z</time>
      </trkpt>
      <trkpt lat="43.10944" lon="3.10114">
        <ele>54</ele>
        <time>2026-02-22T11:25:42Z</time>
      </trkpt>
      <trkpt lat="43.10939" lon="3.10122">
        <ele>54</ele>
        <time>2026-02-22T11:25:44Z</time>
      </trkpt>
      <trkpt lat="43.10934" lon="3.10129">
        <ele>53</ele>
        <time>2026-02-22T11:25:46Z</time>
      </trkpt>
      <trkpt lat="43.10927" lon="3.1013">
        <ele>52</ele>
        <time>2026-02-22T11:25:48Z</time>
      </trkpt>
      <trkpt lat="43.1092" lon="3.10127">
        <ele>51</ele>
        <time>2026-02-22T11:25:50Z</time>
      </trkpt>
      <trkpt lat="43.10912" lon="3.10123">
        <ele>51</ele>
        <time>2026-02-22T11:25:52Z</time>
      </trkpt>
      <trkpt lat="43.10905" lon="3.10121">
        <ele>50</ele>
        <time>2026-02-22T11:25:54Z</time>
      </trkpt>
      <trkpt lat="43.10897" lon="3.10118">
        <ele>50</ele>
        <time>2026-02-22T11:25:56Z</time>
      </trkpt>
      <trkpt lat="43.1089" lon="3.10115">
        <ele>49</ele>
        <time>2026-02-22T11:25:58Z</time>
      </trkpt>
      <trkpt lat="43.10883" lon="3.10112">
        <ele>48</ele>
        <time>2026-02-22T11:26:00Z</time>
      </trkpt>
      <trkpt lat="43.10875" lon="3.10109">
        <ele>47</ele>
        <time>2026-02-22T11:26:02Z</time>
      </trkpt>
      <trkpt lat="43.10868" lon="3.10106">
        <ele>46</ele>
        <time>2026-02-22T11:26:04Z</time>
      </trkpt>
      <trkpt lat="43.10862" lon="3.10104">
        <ele>44</ele>
        <time>2026-02-22T11:26:06Z</time>
      </trkpt>
      <trkpt lat="43.10855" lon="3.10103">
        <ele>44</ele>
        <time>2026-02-22T11:26:08Z</time>
      </trkpt>
      <trkpt lat="43.10849" lon="3.10102">
        <ele>44</ele>
        <time>2026-02-22T11:26:10Z</time>
      </trkpt>
      <trkpt lat="43.10843" lon="3.10102">
        <ele>45</ele>
        <time>2026-02-22T11:26:12Z</time>
      </trkpt>
      <trkpt lat="43.10839" lon="3.10101">
        <ele>46</ele>
        <time>2026-02-22T11:26:14Z</time>
      </trkpt>
      <trkpt lat="43.10837" lon="3.10101">
        <ele>47</ele>
        <time>2026-02-22T11:26:16Z</time>
      </trkpt>
      <trkpt lat="43.10838" lon="3.10101">
        <ele>47</ele>
        <time>2026-02-22T11:26:18Z</time>
      </trkpt>
      <trkpt lat="43.10838" lon="3.101">
        <ele>47</ele>
        <time>2026-02-22T11:26:20Z</time>
      </trkpt>
      <trkpt lat="43.10836" lon="3.10101">
        <ele>48</ele>
        <time>2026-02-22T11:26:22Z</time>
      </trkpt>
      <trkpt lat="43.10835" lon="3.10101">
        <ele>48</ele>
        <time>2026-02-22T11:26:24Z</time>
      </trkpt>
      <trkpt lat="43.10835" lon="3.10103">
        <ele>48</ele>
        <time>2026-02-22T11:26:26Z</time>
      </trkpt>
      <trkpt lat="43.10834" lon="3.10105">
        <ele>48</ele>
        <time>2026-02-22T11:26:28Z</time>
      </trkpt>
      <trkpt lat="43.10834" lon="3.10107">
        <ele>48</ele>
        <time>2026-02-22T11:26:30Z</time>
      </trkpt>
      <trkpt lat="43.10833" lon="3.1011">
        <ele>48</ele>
        <time>2026-02-22T11:26:32Z</time>
      </trkpt>
      <trkpt lat="43.10833" lon="3.10112">
        <ele>49</ele>
        <time>2026-02-22T11:26:34Z</time>
      </trkpt>
      <trkpt lat="43.10832" lon="3.10113">
        <ele>49</ele>
        <time>2026-02-22T11:26:36Z</time>
      </trkpt>
      <trkpt lat="43.10832" lon="3.10113">
        <ele>49</ele>
        <time>2026-02-22T11:26:38Z</time>
      </trkpt>
      <trkpt lat="43.10832" lon="3.10113">
        <ele>49</ele>
        <time>2026-02-22T11:26:40Z</time>
      </trkpt>
      <trkpt lat="43.10832" lon="3.10113">
        <ele>50</ele>
        <time>2026-02-22T11:26:42Z</time>
      </trkpt>
      <trkpt lat="43.10832" lon="3.10113">
        <ele>50</ele>
        <time>2026-02-22T11:26:44Z</time>
      </trkpt>
      <trkpt lat="43.10832" lon="3.10113">
        <ele>50</ele>
        <time>2026-02-22T11:26:46Z</time>
      </trkpt>
      <trkpt lat="43.10832" lon="3.10113">
        <ele>50</ele>
        <time>2026-02-22T11:26:48Z</time>
      </trkpt>
      <trkpt lat="43.10832" lon="3.10113">
        <ele>50</ele>
        <time>2026-02-22T11:26:50Z</time>
      </trkpt>
      <trkpt lat="43.10832" lon="3.10113">
        <ele>50</ele>
        <time>2026-02-22T11:26:52Z</time>
      </trkpt>
      <trkpt lat="43.10832" lon="3.10113">
        <ele>50</ele>
        <time>2026-02-22T11:26:54Z</time>
      </trkpt>
      <trkpt lat="43.10832" lon="3.10113">
        <ele>50</ele>
        <time>2026-02-22T11:26:56Z</time>
      </trkpt>
      <trkpt lat="43.10832" lon="3.10113">
        <ele>50</ele>
        <time>2026-02-22T11:26:58Z</time>
      </trkpt>
      <trkpt lat="43.10832" lon="3.10113">
        <ele>50</ele>
        <time>2026-02-22T11:27:00Z</time>
      </trkpt>
      <trkpt lat="43.10832" lon="3.10113">
        <ele>50</ele>
        <time>2026-02-22T11:27:02Z</time>
      </trkpt>
      <trkpt lat="43.10832" lon="3.10113">
        <ele>50</ele>
        <time>2026-02-22T11:27:04Z</time>
      </trkpt>
      <trkpt lat="43.10832" lon="3.10113">
        <ele>50</ele>
        <time>2026-02-22T11:27:06Z</time>
      </trkpt>
      <trkpt lat="43.10832" lon="3.10113">
        <ele>50</ele>
        <time>2026-02-22T11:27:08Z</time>
      </trkpt>
      <trkpt lat="43.10832" lon="3.10113">
        <ele>50</ele>
        <time>2026-02-22T11:27:10Z</time>
      </trkpt>
      <trkpt lat="43.10832" lon="3.10113">
        <ele>50</ele>
        <time>2026-02-22T11:27:12Z</time>
      </trkpt>
      <trkpt lat="43.10832" lon="3.10113">
        <ele>50</ele>
        <time>2026-02-22T11:27:14Z</time>
      </trkpt>
      <trkpt lat="43.10832" lon="3.10113">
        <ele>50</ele>
        <time>2026-02-22T11:27:16Z</time>
      </trkpt>
      <trkpt lat="43.10832" lon="3.10113">
        <ele>50</ele>
        <time>2026-02-22T11:27:18Z</time>
      </trkpt>
      <trkpt lat="43.10832" lon="3.10113">
        <ele>50</ele>
        <time>2026-02-22T11:27:20Z</time>
      </trkpt>
      <trkpt lat="43.10832" lon="3.10113">
        <ele>50</ele>
        <time>2026-02-22T11:27:22Z</time>
      </trkpt>
      <trkpt lat="43.10832" lon="3.10113">
        <ele>50</ele>
        <time>2026-02-22T11:27:24Z</time>
      </trkpt>
      <trkpt lat="43.10832" lon="3.10113">
        <ele>50</ele>
        <time>2026-02-22T11:27:26Z</time>
      </trkpt>
      <trkpt lat="43.10832" lon="3.10113">
        <ele>50</ele>
        <time>2026-02-22T11:27:28Z</time>
      </trkpt>
      <trkpt lat="43.10832" lon="3.10113">
        <ele>50</ele>
        <time>2026-02-22T11:27:30Z</time>
      </trkpt>
      <trkpt lat="43.10832" lon="3.10113">
        <ele>50</ele>
        <time>2026-02-22T11:27:32Z</time>
      </trkpt>
      <trkpt lat="43.10968" lon="3.09887">
        <ele>57</ele>
        <time>2026-02-22T11:34:32Z</time>
      </trkpt>
      <trkpt lat="43.10967" lon="3.09892">
        <ele>62</ele>
        <time>2026-02-22T11:34:34Z</time>
      </trkpt>
      <trkpt lat="43.10967" lon="3.09895">
        <ele>62</ele>
        <time>2026-02-22T11:34:36Z</time>
      </trkpt>
      <trkpt lat="43.10965" lon="3.09897">
        <ele>62</ele>
        <time>2026-02-22T11:34:38Z</time>
      </trkpt>
      <trkpt lat="43.10965" lon="3.09897">
        <ele>62</ele>
        <time>2026-02-22T11:34:40Z</time>
      </trkpt>
      <trkpt lat="43.10965" lon="3.09897">
        <ele>62</ele>
        <time>2026-02-22T11:34:42Z</time>
      </trkpt>
      <trkpt lat="43.10965" lon="3.09897">
        <ele>62</ele>
        <time>2026-02-22T11:34:44Z</time>
      </trkpt>
      <trkpt lat="43.10965" lon="3.09896">
        <ele>62</ele>
        <time>2026-02-22T11:34:46Z</time>
      </trkpt>
      <trkpt lat="43.10965" lon="3.09896">
        <ele>62</ele>
        <time>2026-02-22T11:34:48Z</time>
      </trkpt>
      <trkpt lat="43.10965" lon="3.09894">
        <ele>62</ele>
        <time>2026-02-22T11:34:50Z</time>
      </trkpt>
      <trkpt lat="43.10964" lon="3.0989">
        <ele>62</ele>
        <time>2026-02-22T11:34:52Z</time>
      </trkpt>
      <trkpt lat="43.10964" lon="3.09885">
        <ele>61</ele>
        <time>2026-02-22T11:34:54Z</time>
      </trkpt>
      <trkpt lat="43.10965" lon="3.09881">
        <ele>60</ele>
        <time>2026-02-22T11:34:56Z</time>
      </trkpt>
      <trkpt lat="43.10966" lon="3.09876">
        <ele>59</ele>
        <time>2026-02-22T11:34:58Z</time>
      </trkpt>
      <trkpt lat="43.10966" lon="3.09872">
        <ele>59</ele>
        <time>2026-02-22T11:35:00Z</time>
      </trkpt>
      <trkpt lat="43.10966" lon="3.09869">
        <ele>58</ele>
        <time>2026-02-22T11:35:02Z</time>
      </trkpt>
      <trkpt lat="43.10967" lon="3.09868">
        <ele>58</ele>
        <time>2026-02-22T11:35:04Z</time>
      </trkpt>
      <trkpt lat="43.10968" lon="3.09867">
        <ele>57</ele>
        <time>2026-02-22T11:35:06Z</time>
      </trkpt>
      <trkpt lat="43.10968" lon="3.09866">
        <ele>56</ele>
        <time>2026-02-22T11:35:08Z</time>
      </trkpt>
      <trkpt lat="43.10968" lon="3.09866">
        <ele>56</ele>
        <time>2026-02-22T11:35:10Z</time>
      </trkpt>
      <trkpt lat="43.10968" lon="3.09866">
        <ele>56</ele>
        <time>2026-02-22T11:35:12Z</time>
      </trkpt>
      <trkpt lat="43.10968" lon="3.09866">
        <ele>56</ele>
        <time>2026-02-22T11:35:14Z</time>
      </trkpt>
      <trkpt lat="43.10968" lon="3.09866">
        <ele>56</ele>
        <time>2026-02-22T11:35:16Z</time>
      </trkpt>
      <trkpt lat="43.10968" lon="3.09866">
        <ele>56</ele>
        <time>2026-02-22T11:35:18Z</time>
      </trkpt>
      <trkpt lat="43.10968" lon="3.09866">
        <ele>56</ele>
        <time>2026-02-22T11:35:20Z</time>
      </trkpt>
      <trkpt lat="43.10968" lon="3.09866">
        <ele>56</ele>
        <time>2026-02-22T11:35:22Z</time>
      </trkpt>
      <trkpt lat="43.10967" lon="3.09862">
        <ele>56</ele>
        <time>2026-02-22T11:35:24Z</time>
      </trkpt>
      <trkpt lat="43.10967" lon="3.0986">
        <ele>56</ele>
        <time>2026-02-22T11:35:26Z</time>
      </trkpt>
      <trkpt lat="43.10967" lon="3.09859">
        <ele>56</ele>
        <time>2026-02-22T11:35:28Z</time>
      </trkpt>
      <trkpt lat="43.10966" lon="3.09857">
        <ele>56</ele>
        <time>2026-02-22T11:35:30Z</time>
      </trkpt>
      <trkpt lat="43.10965" lon="3.09855">
        <ele>56</ele>
        <time>2026-02-22T11:35:32Z</time>
      </trkpt>
      <trkpt lat="43.10964" lon="3.09852">
        <ele>56</ele>
        <time>2026-02-22T11:35:34Z</time>
      </trkpt>
      <trkpt lat="43.10961" lon="3.09849">
        <ele>55</ele>
        <time>2026-02-22T11:35:36Z</time>
      </trkpt>
      <trkpt lat="43.10957" lon="3.09844">
        <ele>55</ele>
        <time>2026-02-22T11:35:38Z</time>
      </trkpt>
      <trkpt lat="43.10951" lon="3.09838">
        <ele>54</ele>
        <time>2026-02-22T11:35:40Z</time>
      </trkpt>
      <trkpt lat="43.10946" lon="3.09832">
        <ele>53</ele>
        <time>2026-02-22T11:35:42Z</time>
      </trkpt>
      <trkpt lat="43.1094" lon="3.09824">
        <ele>53</ele>
        <time>2026-02-22T11:35:44Z</time>
      </trkpt>
      <trkpt lat="43.10935" lon="3.09815">
        <ele>53</ele>
        <time>2026-02-22T11:35:46Z</time>
      </trkpt>
      <trkpt lat="43.10929" lon="3.09807">
        <ele>53</ele>
        <time>2026-02-22T11:35:48Z</time>
      </trkpt>
      <trkpt lat="43.10923" lon="3.09799">
        <ele>52</ele>
        <time>2026-02-22T11:35:50Z</time>
      </trkpt>
      <trkpt lat="43.10917" lon="3.09792">
        <ele>52</ele>
        <time>2026-02-22T11:35:52Z</time>
      </trkpt>
      <trkpt lat="43.10915" lon="3.09787">
        <ele>53</ele>
        <time>2026-02-22T11:35:54Z</time>
      </trkpt>
      <trkpt lat="43.10914" lon="3.09782">
        <ele>53</ele>
        <time>2026-02-22T11:35:56Z</time>
      </trkpt>
      <trkpt lat="43.10915" lon="3.09777">
        <ele>53</ele>
        <time>2026-02-22T11:35:58Z</time>
      </trkpt>
      <trkpt lat="43.10915" lon="3.09773">
        <ele>53</ele>
        <time>2026-02-22T11:36:00Z</time>
      </trkpt>
      <trkpt lat="43.10915" lon="3.09769">
        <ele>53</ele>
        <time>2026-02-22T11:36:02Z</time>
      </trkpt>
      <trkpt lat="43.10917" lon="3.09765">
        <ele>53</ele>
        <time>2026-02-22T11:36:04Z</time>
      </trkpt>
      <trkpt lat="43.10919" lon="3.0976">
        <ele>53</ele>
        <time>2026-02-22T11:36:06Z</time>
      </trkpt>
      <trkpt lat="43.10921" lon="3.09755">
        <ele>52</ele>
        <time>2026-02-22T11:36:08Z</time>
      </trkpt>
      <trkpt lat="43.10923" lon="3.0975">
        <ele>52</ele>
        <time>2026-02-22T11:36:10Z</time>
      </trkpt>
      <trkpt lat="43.10926" lon="3.09744">
        <ele>51</ele>
        <time>2026-02-22T11:36:12Z</time>
      </trkpt>
      <trkpt lat="43.10929" lon="3.09738">
        <ele>51</ele>
        <time>2026-02-22T11:36:14Z</time>
      </trkpt>
      <trkpt lat="43.10932" lon="3.09733">
        <ele>51</ele>
        <time>2026-02-22T11:36:16Z</time>
      </trkpt>
      <trkpt lat="43.10935" lon="3.09728">
        <ele>51</ele>
        <time>2026-02-22T11:36:18Z</time>
      </trkpt>
      <trkpt lat="43.10938" lon="3.09725">
        <ele>51</ele>
        <time>2026-02-22T11:36:20Z</time>
      </trkpt>
      <trkpt lat="43.10941" lon="3.0972">
        <ele>51</ele>
        <time>2026-02-22T11:36:22Z</time>
      </trkpt>
      <trkpt lat="43.10945" lon="3.09714">
        <ele>51</ele>
        <time>2026-02-22T11:36:24Z</time>
      </trkpt>
      <trkpt lat="43.10948" lon="3.09708">
        <ele>51</ele>
        <time>2026-02-22T11:36:26Z</time>
      </trkpt>
      <trkpt lat="43.10952" lon="3.09703">
        <ele>52</ele>
        <time>2026-02-22T11:36:28Z</time>
      </trkpt>
      <trkpt lat="43.10956" lon="3.09699">
        <ele>52</ele>
        <time>2026-02-22T11:36:30Z</time>
      </trkpt>
      <trkpt lat="43.1096" lon="3.09698">
        <ele>53</ele>
        <time>2026-02-22T11:36:32Z</time>
      </trkpt>
      <trkpt lat="43.10963" lon="3.09696">
        <ele>54</ele>
        <time>2026-02-22T11:36:34Z</time>
      </trkpt>
      <trkpt lat="43.10966" lon="3.09695">
        <ele>54</ele>
        <time>2026-02-22T11:36:36Z</time>
      </trkpt>
      <trkpt lat="43.10968" lon="3.09693">
        <ele>55</ele>
        <time>2026-02-22T11:36:38Z</time>
      </trkpt>
      <trkpt lat="43.10969" lon="3.09691">
        <ele>55</ele>
        <time>2026-02-22T11:36:40Z</time>
      </trkpt>
      <trkpt lat="43.10969" lon="3.0969">
        <ele>56</ele>
        <time>2026-02-22T11:36:42Z</time>
      </trkpt>
      <trkpt lat="43.1097" lon="3.09689">
        <ele>57</ele>
        <time>2026-02-22T11:36:44Z</time>
      </trkpt>
      <trkpt lat="43.10971" lon="3.09689">
        <ele>56</ele>
        <time>2026-02-22T11:36:46Z</time>
      </trkpt>
      <trkpt lat="43.10971" lon="3.09689">
        <ele>56</ele>
        <time>2026-02-22T11:36:48Z</time>
      </trkpt>
      <trkpt lat="43.10972" lon="3.09689">
        <ele>56</ele>
        <time>2026-02-22T11:36:50Z</time>
      </trkpt>
      <trkpt lat="43.10972" lon="3.09689">
        <ele>56</ele>
        <time>2026-02-22T11:36:52Z</time>
      </trkpt>
      <trkpt lat="43.10972" lon="3.09689">
        <ele>56</ele>
        <time>2026-02-22T11:36:54Z</time>
      </trkpt>
      <trkpt lat="43.10974" lon="3.09687">
        <ele>57</ele>
        <time>2026-02-22T11:36:56Z</time>
      </trkpt>
      <trkpt lat="43.10977" lon="3.09683">
        <ele>57</ele>
        <time>2026-02-22T11:36:58Z</time>
      </trkpt>
      <trkpt lat="43.1098" lon="3.09677">
        <ele>57</ele>
        <time>2026-02-22T11:37:00Z</time>
      </trkpt>
      <trkpt lat="43.10982" lon="3.09669">
        <ele>56</ele>
        <time>2026-02-22T11:37:02Z</time>
      </trkpt>
      <trkpt lat="43.10985" lon="3.09662">
        <ele>56</ele>
        <time>2026-02-22T11:37:04Z</time>
      </trkpt>
      <trkpt lat="43.10989" lon="3.09654">
        <ele>55</ele>
        <time>2026-02-22T11:37:06Z</time>
      </trkpt>
      <trkpt lat="43.10993" lon="3.09647">
        <ele>54</ele>
        <time>2026-02-22T11:37:08Z</time>
      </trkpt>
      <trkpt lat="43.10996" lon="3.09641">
        <ele>54</ele>
        <time>2026-02-22T11:37:10Z</time>
      </trkpt>
      <trkpt lat="43.11" lon="3.09637">
        <ele>54</ele>
        <time>2026-02-22T11:37:12Z</time>
      </trkpt>
      <trkpt lat="43.11002" lon="3.09631">
        <ele>53</ele>
        <time>2026-02-22T11:37:14Z</time>
      </trkpt>
      <trkpt lat="43.11004" lon="3.09625">
        <ele>52</ele>
        <time>2026-02-22T11:37:16Z</time>
      </trkpt>
      <trkpt lat="43.11007" lon="3.09618">
        <ele>51</ele>
        <time>2026-02-22T11:37:18Z</time>
      </trkpt>
      <trkpt lat="43.1101" lon="3.09611">
        <ele>50</ele>
        <time>2026-02-22T11:37:20Z</time>
      </trkpt>
      <trkpt lat="43.11013" lon="3.09604">
        <ele>50</ele>
        <time>2026-02-22T11:37:22Z</time>
      </trkpt>
      <trkpt lat="43.11016" lon="3.09597">
        <ele>50</ele>
        <time>2026-02-22T11:37:24Z</time>
      </trkpt>
      <trkpt lat="43.11018" lon="3.09591">
        <ele>50</ele>
        <time>2026-02-22T11:37:26Z</time>
      </trkpt>
      <trkpt lat="43.11021" lon="3.09585">
        <ele>49</ele>
        <time>2026-02-22T11:37:28Z</time>
      </trkpt>
      <trkpt lat="43.11024" lon="3.0958">
        <ele>49</ele>
        <time>2026-02-22T11:37:30Z</time>
      </trkpt>
      <trkpt lat="43.11027" lon="3.09574">
        <ele>48</ele>
        <time>2026-02-22T11:37:32Z</time>
      </trkpt>
      <trkpt lat="43.11029" lon="3.09569">
        <ele>48</ele>
        <time>2026-02-22T11:37:34Z</time>
      </trkpt>
      <trkpt lat="43.11031" lon="3.09563">
        <ele>48</ele>
        <time>2026-02-22T11:37:36Z</time>
      </trkpt>
      <trkpt lat="43.11032" lon="3.09557">
        <ele>49</ele>
        <time>2026-02-22T11:37:38Z</time>
      </trkpt>
      <trkpt lat="43.11033" lon="3.09552">
        <ele>50</ele>
        <time>2026-02-22T11:37:40Z</time>
      </trkpt>
      <trkpt lat="43.11033" lon="3.09546">
        <ele>50</ele>
        <time>2026-02-22T11:37:42Z</time>
      </trkpt>
      <trkpt lat="43.11033" lon="3.09541">
        <ele>51</ele>
        <time>2026-02-22T11:37:44Z</time>
      </trkpt>
      <trkpt lat="43.11035" lon="3.09536">
        <ele>52</ele>
        <time>2026-02-22T11:37:46Z</time>
      </trkpt>
      <trkpt lat="43.11037" lon="3.09533">
        <ele>52</ele>
        <time>2026-02-22T11:37:48Z</time>
      </trkpt>
      <trkpt lat="43.11038" lon="3.09529">
        <ele>53</ele>
        <time>2026-02-22T11:37:50Z</time>
      </trkpt>
      <trkpt lat="43.1104" lon="3.09526">
        <ele>54</ele>
        <time>2026-02-22T11:37:52Z</time>
      </trkpt>
      <trkpt lat="43.11042" lon="3.09522">
        <ele>55</ele>
        <time>2026-02-22T11:37:54Z</time>
      </trkpt>
      <trkpt lat="43.11043" lon="3.09519">
        <ele>55</ele>
        <time>2026-02-22T11:37:56Z</time>
      </trkpt>
      <trkpt lat="43.11045" lon="3.09517">
        <ele>55</ele>
        <time>2026-02-22T11:37:58Z</time>
      </trkpt>
      <trkpt lat="43.11048" lon="3.09516">
        <ele>55</ele>
        <time>2026-02-22T11:38:00Z</time>
      </trkpt>
      <trkpt lat="43.1105" lon="3.09513">
        <ele>55</ele>
        <time>2026-02-22T11:38:02Z</time>
      </trkpt>
      <trkpt lat="43.11052" lon="3.09511">
        <ele>55</ele>
        <time>2026-02-22T11:38:04Z</time>
      </trkpt>
      <trkpt lat="43.11052" lon="3.09511">
        <ele>55</ele>
        <time>2026-02-22T11:38:06Z</time>
      </trkpt>
      <trkpt lat="43.11052" lon="3.09511">
        <ele>55</ele>
        <time>2026-02-22T11:38:08Z</time>
      </trkpt>
      <trkpt lat="43.11052" lon="3.09511">
        <ele>55</ele>
        <time>2026-02-22T11:38:10Z</time>
      </trkpt>
      <trkpt lat="43.11052" lon="3.09511">
        <ele>55</ele>
        <time>2026-02-22T11:38:12Z</time>
      </trkpt>
      <trkpt lat="43.11052" lon="3.09512">
        <ele>55</ele>
        <time>2026-02-22T11:38:14Z</time>
      </trkpt>
      <trkpt lat="43.11052" lon="3.09512">
        <ele>55</ele>
        <time>2026-02-22T11:38:16Z</time>
      </trkpt>
      <trkpt lat="43.11052" lon="3.09512">
        <ele>55</ele>
        <time>2026-02-22T11:38:18Z</time>
      </trkpt>
      <trkpt lat="43.11052" lon="3.09512">
        <ele>55</ele>
        <time>2026-02-22T11:38:20Z</time>
      </trkpt>
      <trkpt lat="43.11052" lon="3.09512">
        <ele>55</ele>
        <time>2026-02-22T11:38:22Z</time>
      </trkpt>
      <trkpt lat="43.11052" lon="3.09512">
        <ele>55</ele>
        <time>2026-02-22T11:38:24Z</time>
      </trkpt>
      <trkpt lat="43.11052" lon="3.09512">
        <ele>58</ele>
        <time>2026-02-22T11:38:26Z</time>
      </trkpt>
      <trkpt lat="43.11052" lon="3.09512">
        <ele>58</ele>
        <time>2026-02-22T11:38:28Z</time>
      </trkpt>
      <trkpt lat="43.11052" lon="3.09512">
        <ele>58</ele>
        <time>2026-02-22T11:38:30Z</time>
      </trkpt>
      <trkpt lat="43.11052" lon="3.09512">
        <ele>58</ele>
        <time>2026-02-22T11:38:32Z</time>
      </trkpt>
      <trkpt lat="43.11052" lon="3.09512">
        <ele>58</ele>
        <time>2026-02-22T11:38:34Z</time>
      </trkpt>
      <trkpt lat="43.11052" lon="3.09512">
        <ele>58</ele>
        <time>2026-02-22T11:38:36Z</time>
      </trkpt>
      <trkpt lat="43.11046" lon="3.09511">
        <ele>60</ele>
        <time>2026-02-22T11:38:38Z</time>
      </trkpt>
      <trkpt lat="43.11045" lon="3.09513">
        <ele>60</ele>
        <time>2026-02-22T11:38:40Z</time>
      </trkpt>
      <trkpt lat="43.11045" lon="3.09514">
        <ele>60</ele>
        <time>2026-02-22T11:38:42Z</time>
      </trkpt>
      <trkpt lat="43.11045" lon="3.09516">
        <ele>60</ele>
        <time>2026-02-22T11:38:44Z</time>
      </trkpt>
      <trkpt lat="43.11044" lon="3.09517">
        <ele>60</ele>
        <time>2026-02-22T11:38:46Z</time>
      </trkpt>
      <trkpt lat="43.11044" lon="3.09518">
        <ele>60</ele>
        <time>2026-02-22T11:38:48Z</time>
      </trkpt>
      <trkpt lat="43.11044" lon="3.09518">
        <ele>60</ele>
        <time>2026-02-22T11:38:50Z</time>
      </trkpt>
      <trkpt lat="43.11043" lon="3.09518">
        <ele>59</ele>
        <time>2026-02-22T11:38:52Z</time>
      </trkpt>
      <trkpt lat="43.11043" lon="3.09518">
        <ele>59</ele>
        <time>2026-02-22T11:38:54Z</time>
      </trkpt>
      <trkpt lat="43.11043" lon="3.09518">
        <ele>59</ele>
        <time>2026-02-22T11:38:56Z</time>
      </trkpt>
      <trkpt lat="43.11043" lon="3.09518">
        <ele>59</ele>
        <time>2026-02-22T11:38:58Z</time>
      </trkpt>
      <trkpt lat="43.11043" lon="3.09518">
        <ele>59</ele>
        <time>2026-02-22T11:39:00Z</time>
      </trkpt>
      <trkpt lat="43.11043" lon="3.09518">
        <ele>59</ele>
        <time>2026-02-22T11:39:02Z</time>
      </trkpt>
      <trkpt lat="43.11045" lon="3.09516">
        <ele>61</ele>
        <time>2026-02-22T12:39:05Z</time>
      </trkpt>
      <trkpt lat="43.11045" lon="3.09516">
        <ele>61</ele>
        <time>2026-02-22T12:39:07Z</time>
      </trkpt>
      <trkpt lat="43.11045" lon="3.09516">
        <ele>61</ele>
        <time>2026-02-22T12:39:09Z</time>
      </trkpt>
      <trkpt lat="43.11045" lon="3.09516">
        <ele>61</ele>
        <time>2026-02-22T12:39:11Z</time>
      </trkpt>
      <trkpt lat="43.11045" lon="3.09516">
        <ele>61</ele>
        <time>2026-02-22T12:39:13Z</time>
      </trkpt>
      <trkpt lat="43.11045" lon="3.09516">
        <ele>61</ele>
        <time>2026-02-22T12:39:15Z</time>
      </trkpt>
      <trkpt lat="43.11045" lon="3.09516">
        <ele>61</ele>
        <time>2026-02-22T12:39:17Z</time>
      </trkpt>
      <trkpt lat="43.11049" lon="3.09513">
        <ele>58</ele>
        <time>2026-02-22T12:39:19Z</time>
      </trkpt>
      <trkpt lat="43.1105" lon="3.0951">
        <ele>58</ele>
        <time>2026-02-22T12:39:21Z</time>
      </trkpt>
      <trkpt lat="43.11052" lon="3.09508">
        <ele>58</ele>
        <time>2026-02-22T12:39:23Z</time>
      </trkpt>
      <trkpt lat="43.11056" lon="3.0951">
        <ele>57</ele>
        <time>2026-02-22T12:39:25Z</time>
      </trkpt>
      <trkpt lat="43.1106" lon="3.09514">
        <ele>57</ele>
        <time>2026-02-22T12:39:27Z</time>
      </trkpt>
      <trkpt lat="43.11064" lon="3.09518">
        <ele>57</ele>
        <time>2026-02-22T12:39:29Z</time>
      </trkpt>
      <trkpt lat="43.11068" lon="3.09521">
        <ele>56</ele>
        <time>2026-02-22T12:39:31Z</time>
      </trkpt>
      <trkpt lat="43.11071" lon="3.09525">
        <ele>56</ele>
        <time>2026-02-22T12:39:33Z</time>
      </trkpt>
      <trkpt lat="43.11076" lon="3.09529">
        <ele>55</ele>
        <time>2026-02-22T12:39:35Z</time>
      </trkpt>
      <trkpt lat="43.11081" lon="3.09532">
        <ele>55</ele>
        <time>2026-02-22T12:39:37Z</time>
      </trkpt>
      <trkpt lat="43.11085" lon="3.09536">
        <ele>55</ele>
        <time>2026-02-22T12:39:39Z</time>
      </trkpt>
      <trkpt lat="43.11089" lon="3.0954">
        <ele>55</ele>
        <time>2026-02-22T12:39:41Z</time>
      </trkpt>
      <trkpt lat="43.11093" lon="3.09545">
        <ele>54</ele>
        <time>2026-02-22T12:39:43Z</time>
      </trkpt>
      <trkpt lat="43.11096" lon="3.0955">
        <ele>53</ele>
        <time>2026-02-22T12:39:45Z</time>
      </trkpt>
      <trkpt lat="43.111" lon="3.09555">
        <ele>52</ele>
        <time>2026-02-22T12:39:47Z</time>
      </trkpt>
      <trkpt lat="43.11105" lon="3.09557">
        <ele>52</ele>
        <time>2026-02-22T12:39:49Z</time>
      </trkpt>
      <trkpt lat="43.1111" lon="3.0956">
        <ele>52</ele>
        <time>2026-02-22T12:39:51Z</time>
      </trkpt>
      <trkpt lat="43.11113" lon="3.09564">
        <ele>53</ele>
        <time>2026-02-22T12:39:53Z</time>
      </trkpt>
      <trkpt lat="43.11115" lon="3.09566">
        <ele>53</ele>
        <time>2026-02-22T12:39:55Z</time>
      </trkpt>
      <trkpt lat="43.11116" lon="3.09568">
        <ele>53</ele>
        <time>2026-02-22T12:39:57Z</time>
      </trkpt>
      <trkpt lat="43.11117" lon="3.09571">
        <ele>53</ele>
        <time>2026-02-22T12:39:59Z</time>
      </trkpt>
      <trkpt lat="43.11119" lon="3.09574">
        <ele>53</ele>
        <time>2026-02-22T12:40:01Z</time>
      </trkpt>
      <trkpt lat="43.11122" lon="3.09577">
        <ele>53</ele>
        <time>2026-02-22T12:40:03Z</time>
      </trkpt>
      <trkpt lat="43.11126" lon="3.0958">
        <ele>54</ele>
        <time>2026-02-22T12:40:05Z</time>
      </trkpt>
      <trkpt lat="43.1113" lon="3.09579">
        <ele>54</ele>
        <time>2026-02-22T12:40:07Z</time>
      </trkpt>
      <trkpt lat="43.11135" lon="3.09575">
        <ele>53</ele>
        <time>2026-02-22T12:40:09Z</time>
      </trkpt>
      <trkpt lat="43.11138" lon="3.09569">
        <ele>53</ele>
        <time>2026-02-22T12:40:11Z</time>
      </trkpt>
      <trkpt lat="43.1114" lon="3.09561">
        <ele>54</ele>
        <time>2026-02-22T12:40:13Z</time>
      </trkpt>
      <trkpt lat="43.11141" lon="3.09553">
        <ele>55</ele>
        <time>2026-02-22T12:40:15Z</time>
      </trkpt>
      <trkpt lat="43.11144" lon="3.09545">
        <ele>55</ele>
        <time>2026-02-22T12:40:17Z</time>
      </trkpt>
      <trkpt lat="43.11148" lon="3.09538">
        <ele>55</ele>
        <time>2026-02-22T12:40:19Z</time>
      </trkpt>
      <trkpt lat="43.11151" lon="3.09531">
        <ele>55</ele>
        <time>2026-02-22T12:40:21Z</time>
      </trkpt>
      <trkpt lat="43.11155" lon="3.09524">
        <ele>56</ele>
        <time>2026-02-22T12:40:23Z</time>
      </trkpt>
      <trkpt lat="43.11158" lon="3.09517">
        <ele>56</ele>
        <time>2026-02-22T12:40:25Z</time>
      </trkpt>
      <trkpt lat="43.11162" lon="3.0951">
        <ele>56</ele>
        <time>2026-02-22T12:40:27Z</time>
      </trkpt>
      <trkpt lat="43.11166" lon="3.09503">
        <ele>55</ele>
        <time>2026-02-22T12:40:29Z</time>
      </trkpt>
      <trkpt lat="43.1117" lon="3.09497">
        <ele>55</ele>
        <time>2026-02-22T12:40:31Z</time>
      </trkpt>
      <trkpt lat="43.11175" lon="3.09492">
        <ele>56</ele>
        <time>2026-02-22T12:40:33Z</time>
      </trkpt>
      <trkpt lat="43.1118" lon="3.09487">
        <ele>56</ele>
        <time>2026-02-22T12:40:35Z</time>
      </trkpt>
      <trkpt lat="43.11184" lon="3.0948">
        <ele>56</ele>
        <time>2026-02-22T12:40:37Z</time>
      </trkpt>
      <trkpt lat="43.11187" lon="3.09472">
        <ele>56</ele>
        <time>2026-02-22T12:40:39Z</time>
      </trkpt>
      <trkpt lat="43.11191" lon="3.09464">
        <ele>55</ele>
        <time>2026-02-22T12:40:41Z</time>
      </trkpt>
      <trkpt lat="43.11195" lon="3.09457">
        <ele>55</ele>
        <time>2026-02-22T12:40:43Z</time>
      </trkpt>
      <trkpt lat="43.11199" lon="3.0945">
        <ele>55</ele>
        <time>2026-02-22T12:40:45Z</time>
      </trkpt>
      <trkpt lat="43.11203" lon="3.09443">
        <ele>54</ele>
        <time>2026-02-22T12:40:47Z</time>
      </trkpt>
      <trkpt lat="43.11208" lon="3.09437">
        <ele>54</ele>
        <time>2026-02-22T12:40:49Z</time>
      </trkpt>
      <trkpt lat="43.11212" lon="3.09429">
        <ele>53</ele>
        <time>2026-02-22T12:40:51Z</time>
      </trkpt>
      <trkpt lat="43.11216" lon="3.09422">
        <ele>53</ele>
        <time>2026-02-22T12:40:53Z</time>
      </trkpt>
      <trkpt lat="43.11221" lon="3.09415">
        <ele>52</ele>
        <time>2026-02-22T12:40:55Z</time>
      </trkpt>
      <trkpt lat="43.11225" lon="3.09408">
        <ele>51</ele>
        <time>2026-02-22T12:40:57Z</time>
      </trkpt>
      <trkpt lat="43.11228" lon="3.09401">
        <ele>51</ele>
        <time>2026-02-22T12:40:59Z</time>
      </trkpt>
      <trkpt lat="43.11231" lon="3.09394">
        <ele>50</ele>
        <time>2026-02-22T12:41:01Z</time>
      </trkpt>
      <trkpt lat="43.11234" lon="3.09387">
        <ele>51</ele>
        <time>2026-02-22T12:41:03Z</time>
      </trkpt>
      <trkpt lat="43.11239" lon="3.0938">
        <ele>51</ele>
        <time>2026-02-22T12:41:05Z</time>
      </trkpt>
      <trkpt lat="43.11244" lon="3.09373">
        <ele>51</ele>
        <time>2026-02-22T12:41:07Z</time>
      </trkpt>
      <trkpt lat="43.11247" lon="3.09367">
        <ele>52</ele>
        <time>2026-02-22T12:41:09Z</time>
      </trkpt>
      <trkpt lat="43.11247" lon="3.0936">
        <ele>53</ele>
        <time>2026-02-22T12:41:11Z</time>
      </trkpt>
      <trkpt lat="43.11244" lon="3.09357">
        <ele>54</ele>
        <time>2026-02-22T12:41:13Z</time>
      </trkpt>
      <trkpt lat="43.11243" lon="3.09355">
        <ele>54</ele>
        <time>2026-02-22T12:41:15Z</time>
      </trkpt>
      <trkpt lat="43.11241" lon="3.0935">
        <ele>54</ele>
        <time>2026-02-22T12:41:17Z</time>
      </trkpt>
      <trkpt lat="43.11237" lon="3.09345">
        <ele>54</ele>
        <time>2026-02-22T12:41:19Z</time>
      </trkpt>
      <trkpt lat="43.11235" lon="3.09339">
        <ele>53</ele>
        <time>2026-02-22T12:41:21Z</time>
      </trkpt>
      <trkpt lat="43.11234" lon="3.09332">
        <ele>53</ele>
        <time>2026-02-22T12:41:23Z</time>
      </trkpt>
      <trkpt lat="43.11234" lon="3.09329">
        <ele>53</ele>
        <time>2026-02-22T12:41:25Z</time>
      </trkpt>
      <trkpt lat="43.11234" lon="3.09328">
        <ele>53</ele>
        <time>2026-02-22T12:41:27Z</time>
      </trkpt>
      <trkpt lat="43.11234" lon="3.09324">
        <ele>53</ele>
        <time>2026-02-22T12:41:29Z</time>
      </trkpt>
      <trkpt lat="43.11235" lon="3.09319">
        <ele>53</ele>
        <time>2026-02-22T12:41:31Z</time>
      </trkpt>
      <trkpt lat="43.11235" lon="3.09315">
        <ele>53</ele>
        <time>2026-02-22T12:41:33Z</time>
      </trkpt>
      <trkpt lat="43.11235" lon="3.09312">
        <ele>53</ele>
        <time>2026-02-22T12:41:35Z</time>
      </trkpt>
      <trkpt lat="43.11234" lon="3.09308">
        <ele>53</ele>
        <time>2026-02-22T12:41:37Z</time>
      </trkpt>
      <trkpt lat="43.11233" lon="3.09305">
        <ele>53</ele>
        <time>2026-02-22T12:41:39Z</time>
      </trkpt>
      <trkpt lat="43.11233" lon="3.09302">
        <ele>53</ele>
        <time>2026-02-22T12:41:41Z</time>
      </trkpt>
      <trkpt lat="43.11233" lon="3.09299">
        <ele>54</ele>
        <time>2026-02-22T12:41:43Z</time>
      </trkpt>
      <trkpt lat="43.11234" lon="3.09296">
        <ele>54</ele>
        <time>2026-02-22T12:41:45Z</time>
      </trkpt>
      <trkpt lat="43.11234" lon="3.09292">
        <ele>54</ele>
        <time>2026-02-22T12:41:47Z</time>
      </trkpt>
      <trkpt lat="43.11234" lon="3.09288">
        <ele>54</ele>
        <time>2026-02-22T12:41:49Z</time>
      </trkpt>
      <trkpt lat="43.11234" lon="3.09284">
        <ele>54</ele>
        <time>2026-02-22T12:41:51Z</time>
      </trkpt>
      <trkpt lat="43.11235" lon="3.0928">
        <ele>55</ele>
        <time>2026-02-22T12:41:53Z</time>
      </trkpt>
      <trkpt lat="43.11236" lon="3.09276">
        <ele>55</ele>
        <time>2026-02-22T12:41:55Z</time>
      </trkpt>
      <trkpt lat="43.11236" lon="3.09271">
        <ele>55</ele>
        <time>2026-02-22T12:41:57Z</time>
      </trkpt>
      <trkpt lat="43.11236" lon="3.09265">
        <ele>56</ele>
        <time>2026-02-22T12:41:59Z</time>
      </trkpt>
      <trkpt lat="43.11235" lon="3.09259">
        <ele>55</ele>
        <time>2026-02-22T12:42:01Z</time>
      </trkpt>
      <trkpt lat="43.11235" lon="3.09254">
        <ele>55</ele>
        <time>2026-02-22T12:42:03Z</time>
      </trkpt>
      <trkpt lat="43.11236" lon="3.09248">
        <ele>55</ele>
        <time>2026-02-22T12:42:05Z</time>
      </trkpt>
      <trkpt lat="43.11237" lon="3.09242">
        <ele>55</ele>
        <time>2026-02-22T12:42:07Z</time>
      </trkpt>
      <trkpt lat="43.11239" lon="3.09235">
        <ele>54</ele>
        <time>2026-02-22T12:42:09Z</time>
      </trkpt>
      <trkpt lat="43.11242" lon="3.0923">
        <ele>53</ele>
        <time>2026-02-22T12:42:11Z</time>
      </trkpt>
      <trkpt lat="43.11245" lon="3.09224">
        <ele>52</ele>
        <time>2026-02-22T12:42:13Z</time>
      </trkpt>
      <trkpt lat="43.11246" lon="3.09219">
        <ele>52</ele>
        <time>2026-02-22T12:42:15Z</time>
      </trkpt>
      <trkpt lat="43.11245" lon="3.09213">
        <ele>51</ele>
        <time>2026-02-22T12:42:17Z</time>
      </trkpt>
      <trkpt lat="43.11244" lon="3.09206">
        <ele>50</ele>
        <time>2026-02-22T12:42:19Z</time>
      </trkpt>
      <trkpt lat="43.11244" lon="3.09198">
        <ele>50</ele>
        <time>2026-02-22T12:42:21Z</time>
      </trkpt>
      <trkpt lat="43.11244" lon="3.09189">
        <ele>49</ele>
        <time>2026-02-22T12:42:23Z</time>
      </trkpt>
      <trkpt lat="43.11247" lon="3.0918">
        <ele>49</ele>
        <time>2026-02-22T12:42:25Z</time>
      </trkpt>
      <trkpt lat="43.11251" lon="3.09171">
        <ele>48</ele>
        <time>2026-02-22T12:42:27Z</time>
      </trkpt>
      <trkpt lat="43.11255" lon="3.09164">
        <ele>48</ele>
        <time>2026-02-22T12:42:29Z</time>
      </trkpt>
      <trkpt lat="43.1126" lon="3.09159">
        <ele>49</ele>
        <time>2026-02-22T12:42:31Z</time>
      </trkpt>
      <trkpt lat="43.11266" lon="3.09157">
        <ele>49</ele>
        <time>2026-02-22T12:42:33Z</time>
      </trkpt>
      <trkpt lat="43.11271" lon="3.09158">
        <ele>48</ele>
        <time>2026-02-22T12:42:35Z</time>
      </trkpt>
      <trkpt lat="43.11277" lon="3.0916">
        <ele>48</ele>
        <time>2026-02-22T12:42:37Z</time>
      </trkpt>
      <trkpt lat="43.11283" lon="3.09162">
        <ele>48</ele>
        <time>2026-02-22T12:42:39Z</time>
      </trkpt>
      <trkpt lat="43.1129" lon="3.09165">
        <ele>48</ele>
        <time>2026-02-22T12:42:41Z</time>
      </trkpt>
      <trkpt lat="43.11296" lon="3.09168">
        <ele>48</ele>
        <time>2026-02-22T12:42:43Z</time>
      </trkpt>
      <trkpt lat="43.11303" lon="3.0917">
        <ele>49</ele>
        <time>2026-02-22T12:42:45Z</time>
      </trkpt>
      <trkpt lat="43.1131" lon="3.09172">
        <ele>49</ele>
        <time>2026-02-22T12:42:47Z</time>
      </trkpt>
      <trkpt lat="43.11316" lon="3.09174">
        <ele>49</ele>
        <time>2026-02-22T12:42:49Z</time>
      </trkpt>
      <trkpt lat="43.11323" lon="3.09176">
        <ele>49</ele>
        <time>2026-02-22T12:42:51Z</time>
      </trkpt>
      <trkpt lat="43.1133" lon="3.09179">
        <ele>49</ele>
        <time>2026-02-22T12:42:53Z</time>
      </trkpt>
      <trkpt lat="43.11337" lon="3.09182">
        <ele>49</ele>
        <time>2026-02-22T12:42:55Z</time>
      </trkpt>
      <trkpt lat="43.11344" lon="3.09184">
        <ele>49</ele>
        <time>2026-02-22T12:42:57Z</time>
      </trkpt>
      <trkpt lat="43.11351" lon="3.09188">
        <ele>49</ele>
        <time>2026-02-22T12:42:59Z</time>
      </trkpt>
      <trkpt lat="43.11358" lon="3.0919">
        <ele>49</ele>
        <time>2026-02-22T12:43:01Z</time>
      </trkpt>
      <trkpt lat="43.11365" lon="3.09193">
        <ele>49</ele>
        <time>2026-02-22T12:43:03Z</time>
      </trkpt>
      <trkpt lat="43.11372" lon="3.09196">
        <ele>48</ele>
        <time>2026-02-22T12:43:05Z</time>
      </trkpt>
      <trkpt lat="43.1138" lon="3.09198">
        <ele>48</ele>
        <time>2026-02-22T12:43:07Z</time>
      </trkpt>
      <trkpt lat="43.11387" lon="3.09201">
        <ele>49</ele>
        <time>2026-02-22T12:43:09Z</time>
      </trkpt>
      <trkpt lat="43.11394" lon="3.09204">
        <ele>49</ele>
        <time>2026-02-22T12:43:11Z</time>
      </trkpt>
      <trkpt lat="43.11399" lon="3.09207">
        <ele>49</ele>
        <time>2026-02-22T12:43:13Z</time>
      </trkpt>
      <trkpt lat="43.114" lon="3.09211">
        <ele>49</ele>
        <time>2026-02-22T12:43:15Z</time>
      </trkpt>
      <trkpt lat="43.114" lon="3.09213">
        <ele>49</ele>
        <time>2026-02-22T12:43:17Z</time>
      </trkpt>
      <trkpt lat="43.114" lon="3.09213">
        <ele>49</ele>
        <time>2026-02-22T12:43:19Z</time>
      </trkpt>
      <trkpt lat="43.114" lon="3.09213">
        <ele>49</ele>
        <time>2026-02-22T12:43:21Z</time>
      </trkpt>
      <trkpt lat="43.11401" lon="3.09212">
        <ele>49</ele>
        <time>2026-02-22T12:43:23Z</time>
      </trkpt>
      <trkpt lat="43.11403" lon="3.0921">
        <ele>49</ele>
        <time>2026-02-22T12:43:25Z</time>
      </trkpt>
      <trkpt lat="43.11405" lon="3.0921">
        <ele>49</ele>
        <time>2026-02-22T12:43:27Z</time>
      </trkpt>
      <trkpt lat="43.11408" lon="3.09209">
        <ele>49</ele>
        <time>2026-02-22T12:43:29Z</time>
      </trkpt>
      <trkpt lat="43.11412" lon="3.09209">
        <ele>49</ele>
        <time>2026-02-22T12:43:31Z</time>
      </trkpt>
      <trkpt lat="43.11415" lon="3.0921">
        <ele>49</ele>
        <time>2026-02-22T12:43:33Z</time>
      </trkpt>
      <trkpt lat="43.11418" lon="3.09212">
        <ele>49</ele>
        <time>2026-02-22T12:43:35Z</time>
      </trkpt>
      <trkpt lat="43.11421" lon="3.09214">
        <ele>49</ele>
        <time>2026-02-22T12:43:37Z</time>
      </trkpt>
      <trkpt lat="43.11424" lon="3.09215">
        <ele>50</ele>
        <time>2026-02-22T12:43:39Z</time>
      </trkpt>
      <trkpt lat="43.11426" lon="3.09215">
        <ele>50</ele>
        <time>2026-02-22T12:43:41Z</time>
      </trkpt>
      <trkpt lat="43.11426" lon="3.09213">
        <ele>51</ele>
        <time>2026-02-22T12:43:43Z</time>
      </trkpt>
      <trkpt lat="43.11426" lon="3.09212">
        <ele>51</ele>
        <time>2026-02-22T12:43:45Z</time>
      </trkpt>
      <trkpt lat="43.11426" lon="3.09212">
        <ele>51</ele>
        <time>2026-02-22T12:43:47Z</time>
      </trkpt>
      <trkpt lat="43.11427" lon="3.09211">
        <ele>51</ele>
        <time>2026-02-22T12:43:49Z</time>
      </trkpt>
      <trkpt lat="43.11427" lon="3.09211">
        <ele>50</ele>
        <time>2026-02-22T12:43:51Z</time>
      </trkpt>
      <trkpt lat="43.11427" lon="3.09211">
        <ele>50</ele>
        <time>2026-02-22T12:43:53Z</time>
      </trkpt>
      <trkpt lat="43.11427" lon="3.09211">
        <ele>50</ele>
        <time>2026-02-22T12:43:55Z</time>
      </trkpt>
      <trkpt lat="43.11427" lon="3.09211">
        <ele>50</ele>
        <time>2026-02-22T12:43:57Z</time>
      </trkpt>
      <trkpt lat="43.11427" lon="3.09211">
        <ele>50</ele>
        <time>2026-02-22T12:43:59Z</time>
      </trkpt>
      <trkpt lat="43.11427" lon="3.09211">
        <ele>50</ele>
        <time>2026-02-22T12:44:01Z</time>
      </trkpt>
      <trkpt lat="43.11427" lon="3.09211">
        <ele>50</ele>
        <time>2026-02-22T12:44:03Z</time>
      </trkpt>
      <trkpt lat="43.11427" lon="3.09211">
        <ele>50</ele>
        <time>2026-02-22T12:44:05Z</time>
      </trkpt>
      <trkpt lat="43.11427" lon="3.09211">
        <ele>50</ele>
        <time>2026-02-22T12:44:07Z</time>
      </trkpt>
      <trkpt lat="43.11427" lon="3.09211">
        <ele>50</ele>
        <time>2026-02-22T12:44:09Z</time>
      </trkpt>
      <trkpt lat="43.11427" lon="3.09211">
        <ele>50</ele>
        <time>2026-02-22T12:44:11Z</time>
      </trkpt>
      <trkpt lat="43.11427" lon="3.09211">
        <ele>50</ele>
        <time>2026-02-22T12:44:13Z</time>
      </trkpt>
      <trkpt lat="43.11427" lon="3.09211">
        <ele>50</ele>
        <time>2026-02-22T12:44:15Z</time>
      </trkpt>
      <trkpt lat="43.11427" lon="3.09211">
        <ele>50</ele>
        <time>2026-02-22T12:44:17Z</time>
      </trkpt>
      <trkpt lat="43.11427" lon="3.09211">
        <ele>50</ele>
        <time>2026-02-22T12:44:19Z</time>
      </trkpt>
      <trkpt lat="43.11427" lon="3.09211">
        <ele>50</ele>
        <time>2026-02-22T12:44:21Z</time>
      </trkpt>
      <trkpt lat="43.11427" lon="3.09211">
        <ele>50</ele>
        <time>2026-02-22T12:44:23Z</time>
      </trkpt>
      <trkpt lat="43.11427" lon="3.09211">
        <ele>50</ele>
        <time>2026-02-22T12:44:25Z</time>
      </trkpt>
      <trkpt lat="43.11427" lon="3.09211">
        <ele>50</ele>
        <time>2026-02-22T12:44:27Z</time>
      </trkpt>
      <trkpt lat="43.11427" lon="3.09211">
        <ele>50</ele>
        <time>2026-02-22T12:44:29Z</time>
      </trkpt>
      <trkpt lat="43.11427" lon="3.09211">
        <ele>50</ele>
        <time>2026-02-22T12:44:31Z</time>
      </trkpt>
      <trkpt lat="43.11427" lon="3.09211">
        <ele>50</ele>
        <time>2026-02-22T12:44:33Z</time>
      </trkpt>
      <trkpt lat="43.11427" lon="3.09211">
        <ele>50</ele>
        <time>2026-02-22T12:44:35Z</time>
      </trkpt>
      <trkpt lat="43.11427" lon="3.09211">
        <ele>50</ele>
        <time>2026-02-22T12:44:37Z</time>
      </trkpt>
      <trkpt lat="43.11427" lon="3.09211">
        <ele>50</ele>
        <time>2026-02-22T12:44:39Z</time>
      </trkpt>
      <trkpt lat="43.11427" lon="3.09211">
        <ele>50</ele>
        <time>2026-02-22T12:52:00Z</time>
      </trkpt>
      <trkpt lat="43.11427" lon="3.09211">
        <ele>50</ele>
        <time>2026-02-22T12:52:02Z</time>
      </trkpt>
      <trkpt lat="43.11427" lon="3.09211">
        <ele>50</ele>
        <time>2026-02-22T12:52:04Z</time>
      </trkpt>
      <trkpt lat="43.11427" lon="3.09211">
        <ele>50</ele>
        <time>2026-02-22T12:52:06Z</time>
      </trkpt>
      <trkpt lat="43.11427" lon="3.09211">
        <ele>50</ele>
        <time>2026-02-22T12:52:08Z</time>
      </trkpt>
      <trkpt lat="43.11427" lon="3.09211">
        <ele>50</ele>
        <time>2026-02-22T12:52:10Z</time>
      </trkpt>
      <trkpt lat="43.11427" lon="3.09211">
        <ele>50</ele>
        <time>2026-02-22T12:52:12Z</time>
      </trkpt>
      <trkpt lat="43.11427" lon="3.09211">
        <ele>50</ele>
        <time>2026-02-22T12:52:14Z</time>
      </trkpt>
      <trkpt lat="43.11427" lon="3.09211">
        <ele>50</ele>
        <time>2026-02-22T12:52:16Z</time>
      </trkpt>
      <trkpt lat="43.11427" lon="3.09211">
        <ele>50</ele>
        <time>2026-02-22T12:52:18Z</time>
      </trkpt>
      <trkpt lat="43.11427" lon="3.09211">
        <ele>50</ele>
        <time>2026-02-22T12:52:20Z</time>
      </trkpt>
      <trkpt lat="43.11427" lon="3.09211">
        <ele>50</ele>
        <time>2026-02-22T12:52:22Z</time>
      </trkpt>
      <trkpt lat="43.11427" lon="3.09211">
        <ele>50</ele>
        <time>2026-02-22T12:52:24Z</time>
      </trkpt>
      <trkpt lat="43.11427" lon="3.09211">
        <ele>50</ele>
        <time>2026-02-22T12:52:26Z</time>
      </trkpt>
      <trkpt lat="43.11427" lon="3.09211">
        <ele>50</ele>
        <time>2026-02-22T12:52:28Z</time>
      </trkpt>
      <trkpt lat="43.11427" lon="3.09211">
        <ele>50</ele>
        <time>2026-02-22T12:52:30Z</time>
      </trkpt>
      <trkpt lat="43.11427" lon="3.09211">
        <ele>50</ele>
        <time>2026-02-22T12:52:32Z</time>
      </trkpt>
      <trkpt lat="43.1143" lon="3.09213">
        <ele>51</ele>
        <time>2026-02-22T12:52:34Z</time>
      </trkpt>
      <trkpt lat="43.11433" lon="3.09214">
        <ele>51</ele>
        <time>2026-02-22T12:52:36Z</time>
      </trkpt>
      <trkpt lat="43.11437" lon="3.09214">
        <ele>51</ele>
        <time>2026-02-22T12:52:38Z</time>
      </trkpt>
      <trkpt lat="43.11442" lon="3.09214">
        <ele>51</ele>
        <time>2026-02-22T12:52:40Z</time>
      </trkpt>
      <trkpt lat="43.11449" lon="3.09211">
        <ele>51</ele>
        <time>2026-02-22T12:52:42Z</time>
      </trkpt>
      <trkpt lat="43.11455" lon="3.09208">
        <ele>51</ele>
        <time>2026-02-22T12:52:44Z</time>
      </trkpt>
      <trkpt lat="43.11462" lon="3.09204">
        <ele>51</ele>
        <time>2026-02-22T12:52:46Z</time>
      </trkpt>
      <trkpt lat="43.11468" lon="3.09198">
        <ele>52</ele>
        <time>2026-02-22T12:52:48Z</time>
      </trkpt>
      <trkpt lat="43.11473" lon="3.09191">
        <ele>52</ele>
        <time>2026-02-22T12:52:50Z</time>
      </trkpt>
      <trkpt lat="43.11479" lon="3.09185">
        <ele>52</ele>
        <time>2026-02-22T12:52:52Z</time>
      </trkpt>
      <trkpt lat="43.11484" lon="3.09177">
        <ele>52</ele>
        <time>2026-02-22T12:52:54Z</time>
      </trkpt>
      <trkpt lat="43.11489" lon="3.0917">
        <ele>52</ele>
        <time>2026-02-22T12:52:56Z</time>
      </trkpt>
      <trkpt lat="43.11494" lon="3.09162">
        <ele>52</ele>
        <time>2026-02-22T12:52:58Z</time>
      </trkpt>
      <trkpt lat="43.11499" lon="3.09154">
        <ele>52</ele>
        <time>2026-02-22T12:53:00Z</time>
      </trkpt>
      <trkpt lat="43.11504" lon="3.09146">
        <ele>52</ele>
        <time>2026-02-22T12:53:02Z</time>
      </trkpt>
      <trkpt lat="43.11509" lon="3.09138">
        <ele>52</ele>
        <time>2026-02-22T12:53:04Z</time>
      </trkpt>
      <trkpt lat="43.11514" lon="3.0913">
        <ele>51</ele>
        <time>2026-02-22T12:53:06Z</time>
      </trkpt>
      <trkpt lat="43.11519" lon="3.09123">
        <ele>51</ele>
        <time>2026-02-22T12:53:08Z</time>
      </trkpt>
      <trkpt lat="43.11523" lon="3.09115">
        <ele>51</ele>
        <time>2026-02-22T12:53:10Z</time>
      </trkpt>
      <trkpt lat="43.11528" lon="3.09107">
        <ele>51</ele>
        <time>2026-02-22T12:53:12Z</time>
      </trkpt>
      <trkpt lat="43.11532" lon="3.091">
        <ele>51</ele>
        <time>2026-02-22T12:53:14Z</time>
      </trkpt>
      <trkpt lat="43.11537" lon="3.09093">
        <ele>51</ele>
        <time>2026-02-22T12:53:16Z</time>
      </trkpt>
      <trkpt lat="43.11541" lon="3.09085">
        <ele>51</ele>
        <time>2026-02-22T12:53:18Z</time>
      </trkpt>
      <trkpt lat="43.11546" lon="3.09077">
        <ele>50</ele>
        <time>2026-02-22T12:53:20Z</time>
      </trkpt>
      <trkpt lat="43.1155" lon="3.09069">
        <ele>50</ele>
        <time>2026-02-22T12:53:22Z</time>
      </trkpt>
      <trkpt lat="43.11555" lon="3.09061">
        <ele>49</ele>
        <time>2026-02-22T12:53:24Z</time>
      </trkpt>
      <trkpt lat="43.1156" lon="3.09053">
        <ele>49</ele>
        <time>2026-02-22T12:53:26Z</time>
      </trkpt>
      <trkpt lat="43.11565" lon="3.09046">
        <ele>49</ele>
        <time>2026-02-22T12:53:28Z</time>
      </trkpt>
      <trkpt lat="43.11569" lon="3.09038">
        <ele>49</ele>
        <time>2026-02-22T12:53:30Z</time>
      </trkpt>
      <trkpt lat="43.11573" lon="3.0903">
        <ele>49</ele>
        <time>2026-02-22T12:53:32Z</time>
      </trkpt>
      <trkpt lat="43.11578" lon="3.09023">
        <ele>49</ele>
        <time>2026-02-22T12:53:34Z</time>
      </trkpt>
      <trkpt lat="43.11582" lon="3.09017">
        <ele>49</ele>
        <time>2026-02-22T12:53:36Z</time>
      </trkpt>
      <trkpt lat="43.11586" lon="3.09009">
        <ele>49</ele>
        <time>2026-02-22T12:53:38Z</time>
      </trkpt>
      <trkpt lat="43.1159" lon="3.09003">
        <ele>49</ele>
        <time>2026-02-22T12:53:40Z</time>
      </trkpt>
      <trkpt lat="43.11595" lon="3.08996">
        <ele>49</ele>
        <time>2026-02-22T12:53:42Z</time>
      </trkpt>
      <trkpt lat="43.11599" lon="3.08989">
        <ele>49</ele>
        <time>2026-02-22T12:53:44Z</time>
      </trkpt>
      <trkpt lat="43.11603" lon="3.08982">
        <ele>49</ele>
        <time>2026-02-22T12:53:46Z</time>
      </trkpt>
      <trkpt lat="43.11608" lon="3.08975">
        <ele>49</ele>
        <time>2026-02-22T12:53:48Z</time>
      </trkpt>
      <trkpt lat="43.11612" lon="3.08968">
        <ele>48</ele>
        <time>2026-02-22T12:53:50Z</time>
      </trkpt>
      <trkpt lat="43.11616" lon="3.08961">
        <ele>48</ele>
        <time>2026-02-22T12:53:52Z</time>
      </trkpt>
      <trkpt lat="43.1162" lon="3.08955">
        <ele>47</ele>
        <time>2026-02-22T12:53:54Z</time>
      </trkpt>
      <trkpt lat="43.11625" lon="3.08948">
        <ele>47</ele>
        <time>2026-02-22T12:53:56Z</time>
      </trkpt>
      <trkpt lat="43.11629" lon="3.08941">
        <ele>47</ele>
        <time>2026-02-22T12:53:58Z</time>
      </trkpt>
      <trkpt lat="43.11633" lon="3.08934">
        <ele>48</ele>
        <time>2026-02-22T12:54:00Z</time>
      </trkpt>
      <trkpt lat="43.11637" lon="3.08927">
        <ele>47</ele>
        <time>2026-02-22T12:54:02Z</time>
      </trkpt>
      <trkpt lat="43.11641" lon="3.08919">
        <ele>48</ele>
        <time>2026-02-22T12:54:04Z</time>
      </trkpt>
      <trkpt lat="43.11644" lon="3.08911">
        <ele>48</ele>
        <time>2026-02-22T12:54:06Z</time>
      </trkpt>
      <trkpt lat="43.11647" lon="3.08902">
        <ele>48</ele>
        <time>2026-02-22T12:54:08Z</time>
      </trkpt>
      <trkpt lat="43.11647" lon="3.08893">
        <ele>48</ele>
        <time>2026-02-22T12:54:10Z</time>
      </trkpt>
      <trkpt lat="43.11647" lon="3.08884">
        <ele>48</ele>
        <time>2026-02-22T12:54:12Z</time>
      </trkpt>
      <trkpt lat="43.11646" lon="3.08875">
        <ele>49</ele>
        <time>2026-02-22T12:54:14Z</time>
      </trkpt>
      <trkpt lat="43.11646" lon="3.08866">
        <ele>49</ele>
        <time>2026-02-22T12:54:16Z</time>
      </trkpt>
      <trkpt lat="43.11646" lon="3.08857">
        <ele>49</ele>
        <time>2026-02-22T12:54:18Z</time>
      </trkpt>
      <trkpt lat="43.11647" lon="3.08849">
        <ele>49</ele>
        <time>2026-02-22T12:54:20Z</time>
      </trkpt>
      <trkpt lat="43.11648" lon="3.0884">
        <ele>49</ele>
        <time>2026-02-22T12:54:22Z</time>
      </trkpt>
      <trkpt lat="43.1165" lon="3.08833">
        <ele>50</ele>
        <time>2026-02-22T12:54:24Z</time>
      </trkpt>
      <trkpt lat="43.11652" lon="3.08826">
        <ele>50</ele>
        <time>2026-02-22T12:54:26Z</time>
      </trkpt>
      <trkpt lat="43.11655" lon="3.08823">
        <ele>50</ele>
        <time>2026-02-22T12:54:28Z</time>
      </trkpt>
      <trkpt lat="43.11656" lon="3.08822">
        <ele>51</ele>
        <time>2026-02-22T12:54:30Z</time>
      </trkpt>
      <trkpt lat="43.11656" lon="3.08821">
        <ele>51</ele>
        <time>2026-02-22T12:54:32Z</time>
      </trkpt>
      <trkpt lat="43.11656" lon="3.08821">
        <ele>51</ele>
        <time>2026-02-22T12:54:34Z</time>
      </trkpt>
      <trkpt lat="43.11657" lon="3.08821">
        <ele>51</ele>
        <time>2026-02-22T12:54:36Z</time>
      </trkpt>
      <trkpt lat="43.11657" lon="3.08821">
        <ele>51</ele>
        <time>2026-02-22T12:54:38Z</time>
      </trkpt>
      <trkpt lat="43.11657" lon="3.08822">
        <ele>51</ele>
        <time>2026-02-22T12:54:40Z</time>
      </trkpt>
      <trkpt lat="43.11657" lon="3.08822">
        <ele>51</ele>
        <time>2026-02-22T12:54:42Z</time>
      </trkpt>
      <trkpt lat="43.11657" lon="3.08822">
        <ele>51</ele>
        <time>2026-02-22T12:54:44Z</time>
      </trkpt>
      <trkpt lat="43.11657" lon="3.08822">
        <ele>51</ele>
        <time>2026-02-22T12:54:46Z</time>
      </trkpt>
      <trkpt lat="43.11657" lon="3.08822">
        <ele>51</ele>
        <time>2026-02-22T12:54:48Z</time>
      </trkpt>
      <trkpt lat="43.11657" lon="3.08822">
        <ele>51</ele>
        <time>2026-02-22T12:54:50Z</time>
      </trkpt>
      <trkpt lat="43.11657" lon="3.08822">
        <ele>51</ele>
        <time>2026-02-22T12:54:52Z</time>
      </trkpt>
      <trkpt lat="43.11657" lon="3.08822">
        <ele>51</ele>
        <time>2026-02-22T12:54:54Z</time>
      </trkpt>
      <trkpt lat="43.11657" lon="3.08822">
        <ele>51</ele>
        <time>2026-02-22T12:54:56Z</time>
      </trkpt>
      <trkpt lat="43.11657" lon="3.08822">
        <ele>51</ele>
        <time>2026-02-22T12:54:58Z</time>
      </trkpt>
      <trkpt lat="43.11657" lon="3.08822">
        <ele>51</ele>
        <time>2026-02-22T12:55:00Z</time>
      </trkpt>
      <trkpt lat="43.11657" lon="3.08822">
        <ele>51</ele>
        <time>2026-02-22T12:55:02Z</time>
      </trkpt>
      <trkpt lat="43.11657" lon="3.08822">
        <ele>51</ele>
        <time>2026-02-22T12:55:04Z</time>
      </trkpt>
      <trkpt lat="43.11657" lon="3.08822">
        <ele>51</ele>
        <time>2026-02-22T12:55:06Z</time>
      </trkpt>
      <trkpt lat="43.11657" lon="3.08822">
        <ele>51</ele>
        <time>2026-02-22T12:55:08Z</time>
      </trkpt>
      <trkpt lat="43.11657" lon="3.08822">
        <ele>51</ele>
        <time>2026-02-22T12:55:10Z</time>
      </trkpt>
      <trkpt lat="43.11657" lon="3.08822">
        <ele>51</ele>
        <time>2026-02-22T12:55:12Z</time>
      </trkpt>
      <trkpt lat="43.11657" lon="3.08822">
        <ele>51</ele>
        <time>2026-02-22T12:55:14Z</time>
      </trkpt>
      <trkpt lat="43.11657" lon="3.08822">
        <ele>51</ele>
        <time>2026-02-22T12:55:16Z</time>
      </trkpt>
      <trkpt lat="43.11657" lon="3.08822">
        <ele>51</ele>
        <time>2026-02-22T12:55:18Z</time>
      </trkpt>
      <trkpt lat="43.11657" lon="3.08822">
        <ele>51</ele>
        <time>2026-02-22T12:55:20Z</time>
      </trkpt>
      <trkpt lat="43.11657" lon="3.08822">
        <ele>51</ele>
        <time>2026-02-22T12:55:22Z</time>
      </trkpt>
      <trkpt lat="43.11657" lon="3.08822">
        <ele>51</ele>
        <time>2026-02-22T12:55:24Z</time>
      </trkpt>
      <trkpt lat="43.11657" lon="3.08822">
        <ele>51</ele>
        <time>2026-02-22T12:55:26Z</time>
      </trkpt>
      <trkpt lat="43.11657" lon="3.08822">
        <ele>51</ele>
        <time>2026-02-22T12:55:28Z</time>
      </trkpt>
      <trkpt lat="43.11657" lon="3.08822">
        <ele>51</ele>
        <time>2026-02-22T12:55:30Z</time>
      </trkpt>
      <trkpt lat="43.11657" lon="3.08822">
        <ele>51</ele>
        <time>2026-02-22T12:55:32Z</time>
      </trkpt>
      <trkpt lat="43.11657" lon="3.08822">
        <ele>51</ele>
        <time>2026-02-22T12:55:33Z</time>
      </trkpt>
      <trkpt lat="43.11657" lon="3.08822">
        <ele>51</ele>
        <time>2026-02-22T12:55:34Z</time>
      </trkpt>
      <trkpt lat="43.11657" lon="3.08822">
        <ele>51</ele>
        <time>2026-02-22T12:55:36Z</time>
      </trkpt>
      <trkpt lat="43.11657" lon="3.08822">
        <ele>51</ele>
        <time>2026-02-22T12:55:38Z</time>
      </trkpt>
      <trkpt lat="43.11657" lon="3.08822">
        <ele>51</ele>
        <time>2026-02-22T12:55:40Z</time>
      </trkpt>
      <trkpt lat="43.11657" lon="3.08822">
        <ele>51</ele>
        <time>2026-02-22T12:55:42Z</time>
      </trkpt>
      <trkpt lat="43.11657" lon="3.08822">
        <ele>51</ele>
        <time>2026-02-22T12:55:44Z</time>
      </trkpt>
      <trkpt lat="43.11657" lon="3.08822">
        <ele>51</ele>
        <time>2026-02-22T12:56:20Z</time>
      </trkpt>
      <trkpt lat="43.11657" lon="3.08822">
        <ele>51</ele>
        <time>2026-02-22T12:56:22Z</time>
      </trkpt>
      <trkpt lat="43.11657" lon="3.08822">
        <ele>51</ele>
        <time>2026-02-22T12:56:24Z</time>
      </trkpt>
      <trkpt lat="43.11657" lon="3.08822">
        <ele>51</ele>
        <time>2026-02-22T12:56:26Z</time>
      </trkpt>
      <trkpt lat="43.11657" lon="3.08822">
        <ele>51</ele>
        <time>2026-02-22T12:56:28Z</time>
      </trkpt>
      <trkpt lat="43.11658" lon="3.08819">
        <ele>53</ele>
        <time>2026-02-22T12:56:30Z</time>
      </trkpt>
      <trkpt lat="43.11661" lon="3.08816">
        <ele>53</ele>
        <time>2026-02-22T12:56:32Z</time>
      </trkpt>
      <trkpt lat="43.11664" lon="3.08811">
        <ele>52</ele>
        <time>2026-02-22T12:56:34Z</time>
      </trkpt>
      <trkpt lat="43.11666" lon="3.08804">
        <ele>52</ele>
        <time>2026-02-22T12:56:36Z</time>
      </trkpt>
      <trkpt lat="43.11668" lon="3.08797">
        <ele>51</ele>
        <time>2026-02-22T12:56:38Z</time>
      </trkpt>
      <trkpt lat="43.1167" lon="3.08792">
        <ele>50</ele>
        <time>2026-02-22T12:56:40Z</time>
      </trkpt>
      <trkpt lat="43.11671" lon="3.08786">
        <ele>50</ele>
        <time>2026-02-22T12:56:42Z</time>
      </trkpt>
      <trkpt lat="43.11672" lon="3.08781">
        <ele>50</ele>
        <time>2026-02-22T12:56:44Z</time>
      </trkpt>
      <trkpt lat="43.11672" lon="3.08776">
        <ele>49</ele>
        <time>2026-02-22T12:56:46Z</time>
      </trkpt>
      <trkpt lat="43.11673" lon="3.08771">
        <ele>49</ele>
        <time>2026-02-22T12:56:48Z</time>
      </trkpt>
      <trkpt lat="43.11674" lon="3.08766">
        <ele>50</ele>
        <time>2026-02-22T12:56:50Z</time>
      </trkpt>
      <trkpt lat="43.11676" lon="3.08763">
        <ele>50</ele>
        <time>2026-02-22T12:56:52Z</time>
      </trkpt>
      <trkpt lat="43.11679" lon="3.08759">
        <ele>49</ele>
        <time>2026-02-22T12:56:54Z</time>
      </trkpt>
      <trkpt lat="43.1168" lon="3.08757">
        <ele>49</ele>
        <time>2026-02-22T12:56:56Z</time>
      </trkpt>
      <trkpt lat="43.1168" lon="3.08756">
        <ele>49</ele>
        <time>2026-02-22T12:56:58Z</time>
      </trkpt>
      <trkpt lat="43.1168" lon="3.08757">
        <ele>49</ele>
        <time>2026-02-22T12:57:00Z</time>
      </trkpt>
      <trkpt lat="43.11679" lon="3.08757">
        <ele>49</ele>
        <time>2026-02-22T12:57:02Z</time>
      </trkpt>
      <trkpt lat="43.11679" lon="3.08757">
        <ele>49</ele>
        <time>2026-02-22T12:57:04Z</time>
      </trkpt>
      <trkpt lat="43.11679" lon="3.08757">
        <ele>49</ele>
        <time>2026-02-22T12:57:06Z</time>
      </trkpt>
      <trkpt lat="43.11679" lon="3.08757">
        <ele>49</ele>
        <time>2026-02-22T12:57:08Z</time>
      </trkpt>
      <trkpt lat="43.11679" lon="3.08757">
        <ele>49</ele>
        <time>2026-02-22T12:57:10Z</time>
      </trkpt>
      <trkpt lat="43.11679" lon="3.08757">
        <ele>49</ele>
        <time>2026-02-22T12:57:12Z</time>
      </trkpt>
      <trkpt lat="43.11679" lon="3.08757">
        <ele>49</ele>
        <time>2026-02-22T12:57:14Z</time>
      </trkpt>
      <trkpt lat="43.11679" lon="3.08757">
        <ele>49</ele>
        <time>2026-02-22T12:57:16Z</time>
      </trkpt>
      <trkpt lat="43.11679" lon="3.08757">
        <ele>49</ele>
        <time>2026-02-22T12:57:18Z</time>
      </trkpt>
      <trkpt lat="43.11679" lon="3.08757">
        <ele>49</ele>
        <time>2026-02-22T12:57:20Z</time>
      </trkpt>
      <trkpt lat="43.11679" lon="3.08757">
        <ele>49</ele>
        <time>2026-02-22T12:57:22Z</time>
      </trkpt>
      <trkpt lat="43.11679" lon="3.08757">
        <ele>49</ele>
        <time>2026-02-22T12:57:24Z</time>
      </trkpt>
      <trkpt lat="43.11679" lon="3.08757">
        <ele>49</ele>
        <time>2026-02-22T12:57:26Z</time>
      </trkpt>
      <trkpt lat="43.11678" lon="3.0875">
        <ele>49</ele>
        <time>2026-02-22T12:57:28Z</time>
      </trkpt>
      <trkpt lat="43.11676" lon="3.08746">
        <ele>49</ele>
        <time>2026-02-22T12:57:30Z</time>
      </trkpt>
      <trkpt lat="43.11675" lon="3.08741">
        <ele>49</ele>
        <time>2026-02-22T12:57:32Z</time>
      </trkpt>
      <trkpt lat="43.11674" lon="3.08736">
        <ele>49</ele>
        <time>2026-02-22T12:57:34Z</time>
      </trkpt>
      <trkpt lat="43.11674" lon="3.08731">
        <ele>50</ele>
        <time>2026-02-22T12:57:36Z</time>
      </trkpt>
      <trkpt lat="43.11674" lon="3.08727">
        <ele>50</ele>
        <time>2026-02-22T12:57:38Z</time>
      </trkpt>
      <trkpt lat="43.11673" lon="3.08721">
        <ele>50</ele>
        <time>2026-02-22T12:57:40Z</time>
      </trkpt>
      <trkpt lat="43.11672" lon="3.08716">
        <ele>50</ele>
        <time>2026-02-22T12:57:42Z</time>
      </trkpt>
      <trkpt lat="43.11672" lon="3.08711">
        <ele>50</ele>
        <time>2026-02-22T12:57:44Z</time>
      </trkpt>
      <trkpt lat="43.11672" lon="3.08706">
        <ele>49</ele>
        <time>2026-02-22T12:57:46Z</time>
      </trkpt>
      <trkpt lat="43.11672" lon="3.08703">
        <ele>49</ele>
        <time>2026-02-22T12:57:48Z</time>
      </trkpt>
      <trkpt lat="43.11674" lon="3.087">
        <ele>49</ele>
        <time>2026-02-22T12:57:50Z</time>
      </trkpt>
      <trkpt lat="43.11674" lon="3.08699">
        <ele>49</ele>
        <time>2026-02-22T12:57:52Z</time>
      </trkpt>
      <trkpt lat="43.11673" lon="3.08698">
        <ele>49</ele>
        <time>2026-02-22T12:57:54Z</time>
      </trkpt>
      <trkpt lat="43.11673" lon="3.08697">
        <ele>50</ele>
        <time>2026-02-22T12:57:56Z</time>
      </trkpt>
      <trkpt lat="43.11673" lon="3.08697">
        <ele>50</ele>
        <time>2026-02-22T12:57:58Z</time>
      </trkpt>
      <trkpt lat="43.11672" lon="3.08695">
        <ele>50</ele>
        <time>2026-02-22T12:58:00Z</time>
      </trkpt>
      <trkpt lat="43.11672" lon="3.08693">
        <ele>50</ele>
        <time>2026-02-22T12:58:02Z</time>
      </trkpt>
      <trkpt lat="43.11671" lon="3.08691">
        <ele>50</ele>
        <time>2026-02-22T12:58:04Z</time>
      </trkpt>
      <trkpt lat="43.11672" lon="3.08689">
        <ele>50</ele>
        <time>2026-02-22T12:58:06Z</time>
      </trkpt>
      <trkpt lat="43.11672" lon="3.08686">
        <ele>49</ele>
        <time>2026-02-22T12:58:08Z</time>
      </trkpt>
      <trkpt lat="43.11673" lon="3.08684">
        <ele>49</ele>
        <time>2026-02-22T12:58:10Z</time>
      </trkpt>
      <trkpt lat="43.11674" lon="3.08683">
        <ele>49</ele>
        <time>2026-02-22T12:58:12Z</time>
      </trkpt>
      <trkpt lat="43.11674" lon="3.08682">
        <ele>49</ele>
        <time>2026-02-22T12:58:14Z</time>
      </trkpt>
      <trkpt lat="43.11675" lon="3.08681">
        <ele>49</ele>
        <time>2026-02-22T12:58:16Z</time>
      </trkpt>
      <trkpt lat="43.11676" lon="3.0868">
        <ele>49</ele>
        <time>2026-02-22T12:58:18Z</time>
      </trkpt>
      <trkpt lat="43.11677" lon="3.08679">
        <ele>49</ele>
        <time>2026-02-22T12:58:20Z</time>
      </trkpt>
      <trkpt lat="43.11678" lon="3.08679">
        <ele>49</ele>
        <time>2026-02-22T12:58:22Z</time>
      </trkpt>
      <trkpt lat="43.1168" lon="3.08678">
        <ele>49</ele>
        <time>2026-02-22T12:58:24Z</time>
      </trkpt>
      <trkpt lat="43.11681" lon="3.08678">
        <ele>49</ele>
        <time>2026-02-22T12:58:26Z</time>
      </trkpt>
      <trkpt lat="43.11682" lon="3.08677">
        <ele>50</ele>
        <time>2026-02-22T12:58:28Z</time>
      </trkpt>
      <trkpt lat="43.11683" lon="3.08676">
        <ele>50</ele>
        <time>2026-02-22T12:58:30Z</time>
      </trkpt>
      <trkpt lat="43.11683" lon="3.08673">
        <ele>49</ele>
        <time>2026-02-22T12:58:32Z</time>
      </trkpt>
      <trkpt lat="43.11683" lon="3.08668">
        <ele>49</ele>
        <time>2026-02-22T12:58:34Z</time>
      </trkpt>
      <trkpt lat="43.11683" lon="3.08663">
        <ele>49</ele>
        <time>2026-02-22T12:58:36Z</time>
      </trkpt>
      <trkpt lat="43.11683" lon="3.08658">
        <ele>49</ele>
        <time>2026-02-22T12:58:38Z</time>
      </trkpt>
      <trkpt lat="43.11684" lon="3.08652">
        <ele>49</ele>
        <time>2026-02-22T12:58:40Z</time>
      </trkpt>
      <trkpt lat="43.11684" lon="3.08644">
        <ele>49</ele>
        <time>2026-02-22T12:58:42Z</time>
      </trkpt>
      <trkpt lat="43.11685" lon="3.08637">
        <ele>49</ele>
        <time>2026-02-22T12:58:44Z</time>
      </trkpt>
      <trkpt lat="43.11685" lon="3.08628">
        <ele>48</ele>
        <time>2026-02-22T12:58:46Z</time>
      </trkpt>
      <trkpt lat="43.11685" lon="3.0862">
        <ele>48</ele>
        <time>2026-02-22T12:58:48Z</time>
      </trkpt>
      <trkpt lat="43.11685" lon="3.08612">
        <ele>48</ele>
        <time>2026-02-22T12:58:50Z</time>
      </trkpt>
      <trkpt lat="43.11685" lon="3.08604">
        <ele>48</ele>
        <time>2026-02-22T12:58:52Z</time>
      </trkpt>
      <trkpt lat="43.11685" lon="3.08595">
        <ele>49</ele>
        <time>2026-02-22T12:58:54Z</time>
      </trkpt>
      <trkpt lat="43.11684" lon="3.08587">
        <ele>49</ele>
        <time>2026-02-22T12:58:56Z</time>
      </trkpt>
      <trkpt lat="43.11684" lon="3.08579">
        <ele>49</ele>
        <time>2026-02-22T12:58:58Z</time>
      </trkpt>
      <trkpt lat="43.11683" lon="3.08571">
        <ele>48</ele>
        <time>2026-02-22T12:59:00Z</time>
      </trkpt>
      <trkpt lat="43.11683" lon="3.08561">
        <ele>49</ele>
        <time>2026-02-22T12:59:02Z</time>
      </trkpt>
      <trkpt lat="43.11683" lon="3.08552">
        <ele>49</ele>
        <time>2026-02-22T12:59:04Z</time>
      </trkpt>
      <trkpt lat="43.11684" lon="3.08542">
        <ele>49</ele>
        <time>2026-02-22T12:59:06Z</time>
      </trkpt>
      <trkpt lat="43.11685" lon="3.08533">
        <ele>50</ele>
        <time>2026-02-22T12:59:08Z</time>
      </trkpt>
      <trkpt lat="43.11687" lon="3.08524">
        <ele>50</ele>
        <time>2026-02-22T12:59:10Z</time>
      </trkpt>
      <trkpt lat="43.11688" lon="3.08515">
        <ele>49</ele>
        <time>2026-02-22T12:59:12Z</time>
      </trkpt>
      <trkpt lat="43.11691" lon="3.08506">
        <ele>50</ele>
        <time>2026-02-22T12:59:14Z</time>
      </trkpt>
      <trkpt lat="43.11694" lon="3.08496">
        <ele>49</ele>
        <time>2026-02-22T12:59:16Z</time>
      </trkpt>
      <trkpt lat="43.11697" lon="3.08487">
        <ele>49</ele>
        <time>2026-02-22T12:59:18Z</time>
      </trkpt>
      <trkpt lat="43.117" lon="3.08478">
        <ele>50</ele>
        <time>2026-02-22T12:59:20Z</time>
      </trkpt>
      <trkpt lat="43.11704" lon="3.0847">
        <ele>49</ele>
        <time>2026-02-22T12:59:22Z</time>
      </trkpt>
      <trkpt lat="43.11707" lon="3.08462">
        <ele>49</ele>
        <time>2026-02-22T12:59:24Z</time>
      </trkpt>
      <trkpt lat="43.11712" lon="3.08454">
        <ele>49</ele>
        <time>2026-02-22T12:59:26Z</time>
      </trkpt>
      <trkpt lat="43.11716" lon="3.08446">
        <ele>50</ele>
        <time>2026-02-22T12:59:28Z</time>
      </trkpt>
      <trkpt lat="43.1172" lon="3.08438">
        <ele>51</ele>
        <time>2026-02-22T12:59:30Z</time>
      </trkpt>
      <trkpt lat="43.11725" lon="3.08428">
        <ele>51</ele>
        <time>2026-02-22T12:59:32Z</time>
      </trkpt>
      <trkpt lat="43.11729" lon="3.08419">
        <ele>51</ele>
        <time>2026-02-22T12:59:34Z</time>
      </trkpt>
      <trkpt lat="43.11734" lon="3.08409">
        <ele>51</ele>
        <time>2026-02-22T12:59:36Z</time>
      </trkpt>
      <trkpt lat="43.11738" lon="3.08399">
        <ele>51</ele>
        <time>2026-02-22T12:59:38Z</time>
      </trkpt>
      <trkpt lat="43.11741" lon="3.08388">
        <ele>50</ele>
        <time>2026-02-22T12:59:40Z</time>
      </trkpt>
      <trkpt lat="43.11743" lon="3.08377">
        <ele>49</ele>
        <time>2026-02-22T12:59:42Z</time>
      </trkpt>
      <trkpt lat="43.11744" lon="3.08365">
        <ele>48</ele>
        <time>2026-02-22T12:59:44Z</time>
      </trkpt>
      <trkpt lat="43.11745" lon="3.08353">
        <ele>48</ele>
        <time>2026-02-22T12:59:46Z</time>
      </trkpt>
      <trkpt lat="43.11745" lon="3.08341">
        <ele>48</ele>
        <time>2026-02-22T12:59:48Z</time>
      </trkpt>
      <trkpt lat="43.11745" lon="3.0833">
        <ele>48</ele>
        <time>2026-02-22T12:59:50Z</time>
      </trkpt>
      <trkpt lat="43.11745" lon="3.08319">
        <ele>49</ele>
        <time>2026-02-22T12:59:52Z</time>
      </trkpt>
      <trkpt lat="43.11745" lon="3.08308">
        <ele>49</ele>
        <time>2026-02-22T12:59:54Z</time>
      </trkpt>
      <trkpt lat="43.11743" lon="3.08298">
        <ele>49</ele>
        <time>2026-02-22T12:59:56Z</time>
      </trkpt>
      <trkpt lat="43.1174" lon="3.08289">
        <ele>49</ele>
        <time>2026-02-22T12:59:58Z</time>
      </trkpt>
      <trkpt lat="43.11737" lon="3.08279">
        <ele>49</ele>
        <time>2026-02-22T13:00:00Z</time>
      </trkpt>
      <trkpt lat="43.11734" lon="3.08269">
        <ele>49</ele>
        <time>2026-02-22T13:00:02Z</time>
      </trkpt>
      <trkpt lat="43.11732" lon="3.08259">
        <ele>49</ele>
        <time>2026-02-22T13:00:04Z</time>
      </trkpt>
      <trkpt lat="43.11732" lon="3.08249">
        <ele>49</ele>
        <time>2026-02-22T13:00:06Z</time>
      </trkpt>
      <trkpt lat="43.11732" lon="3.08238">
        <ele>49</ele>
        <time>2026-02-22T13:00:08Z</time>
      </trkpt>
      <trkpt lat="43.11732" lon="3.08227">
        <ele>48</ele>
        <time>2026-02-22T13:00:10Z</time>
      </trkpt>
      <trkpt lat="43.11731" lon="3.08216">
        <ele>48</ele>
        <time>2026-02-22T13:00:12Z</time>
      </trkpt>
      <trkpt lat="43.1173" lon="3.08205">
        <ele>48</ele>
        <time>2026-02-22T13:00:14Z</time>
      </trkpt>
      <trkpt lat="43.11729" lon="3.08194">
        <ele>48</ele>
        <time>2026-02-22T13:00:16Z</time>
      </trkpt>
      <trkpt lat="43.11727" lon="3.08184">
        <ele>48</ele>
        <time>2026-02-22T13:00:18Z</time>
      </trkpt>
      <trkpt lat="43.11725" lon="3.08174">
        <ele>48</ele>
        <time>2026-02-22T13:00:20Z</time>
      </trkpt>
      <trkpt lat="43.11723" lon="3.08164">
        <ele>48</ele>
        <time>2026-02-22T13:00:22Z</time>
      </trkpt>
      <trkpt lat="43.11721" lon="3.08154">
        <ele>48</ele>
        <time>2026-02-22T13:00:24Z</time>
      </trkpt>
      <trkpt lat="43.11718" lon="3.08144">
        <ele>48</ele>
        <time>2026-02-22T13:00:26Z</time>
      </trkpt>
      <trkpt lat="43.11716" lon="3.08135">
        <ele>48</ele>
        <time>2026-02-22T13:00:28Z</time>
      </trkpt>
      <trkpt lat="43.11714" lon="3.08125">
        <ele>48</ele>
        <time>2026-02-22T13:00:30Z</time>
      </trkpt>
      <trkpt lat="43.11714" lon="3.08115">
        <ele>49</ele>
        <time>2026-02-22T13:00:32Z</time>
      </trkpt>
      <trkpt lat="43.11715" lon="3.08106">
        <ele>49</ele>
        <time>2026-02-22T13:00:34Z</time>
      </trkpt>
      <trkpt lat="43.11715" lon="3.08096">
        <ele>49</ele>
        <time>2026-02-22T13:00:36Z</time>
      </trkpt>
      <trkpt lat="43.11716" lon="3.08087">
        <ele>49</ele>
        <time>2026-02-22T13:00:38Z</time>
      </trkpt>
      <trkpt lat="43.11717" lon="3.08077">
        <ele>48</ele>
        <time>2026-02-22T13:00:40Z</time>
      </trkpt>
      <trkpt lat="43.11718" lon="3.08067">
        <ele>49</ele>
        <time>2026-02-22T13:00:42Z</time>
      </trkpt>
      <trkpt lat="43.11718" lon="3.08056">
        <ele>49</ele>
        <time>2026-02-22T13:00:44Z</time>
      </trkpt>
      <trkpt lat="43.11718" lon="3.08046">
        <ele>49</ele>
        <time>2026-02-22T13:00:46Z</time>
      </trkpt>
      <trkpt lat="43.11717" lon="3.08036">
        <ele>49</ele>
        <time>2026-02-22T13:00:48Z</time>
      </trkpt>
      <trkpt lat="43.11715" lon="3.08027">
        <ele>50</ele>
        <time>2026-02-22T13:00:50Z</time>
      </trkpt>
      <trkpt lat="43.11712" lon="3.08018">
        <ele>50</ele>
        <time>2026-02-22T13:00:52Z</time>
      </trkpt>
      <trkpt lat="43.11709" lon="3.0801">
        <ele>50</ele>
        <time>2026-02-22T13:00:54Z</time>
      </trkpt>
      <trkpt lat="43.11706" lon="3.08001">
        <ele>50</ele>
        <time>2026-02-22T13:00:56Z</time>
      </trkpt>
      <trkpt lat="43.11703" lon="3.07992">
        <ele>49</ele>
        <time>2026-02-22T13:00:58Z</time>
      </trkpt>
      <trkpt lat="43.11699" lon="3.07983">
        <ele>50</ele>
        <time>2026-02-22T13:01:00Z</time>
      </trkpt>
      <trkpt lat="43.11696" lon="3.07974">
        <ele>49</ele>
        <time>2026-02-22T13:01:02Z</time>
      </trkpt>
      <trkpt lat="43.11693" lon="3.07964">
        <ele>49</ele>
        <time>2026-02-22T13:01:04Z</time>
      </trkpt>
      <trkpt lat="43.11692" lon="3.07954">
        <ele>49</ele>
        <time>2026-02-22T13:01:06Z</time>
      </trkpt>
      <trkpt lat="43.1169" lon="3.07945">
        <ele>49</ele>
        <time>2026-02-22T13:01:08Z</time>
      </trkpt>
      <trkpt lat="43.11687" lon="3.07936">
        <ele>49</ele>
        <time>2026-02-22T13:01:10Z</time>
      </trkpt>
      <trkpt lat="43.11684" lon="3.07927">
        <ele>48</ele>
        <time>2026-02-22T13:01:12Z</time>
      </trkpt>
      <trkpt lat="43.1168" lon="3.07918">
        <ele>48</ele>
        <time>2026-02-22T13:01:14Z</time>
      </trkpt>
      <trkpt lat="43.11676" lon="3.0791">
        <ele>48</ele>
        <time>2026-02-22T13:01:16Z</time>
      </trkpt>
      <trkpt lat="43.11672" lon="3.07902">
        <ele>48</ele>
        <time>2026-02-22T13:01:18Z</time>
      </trkpt>
      <trkpt lat="43.1167" lon="3.07894">
        <ele>48</ele>
        <time>2026-02-22T13:01:20Z</time>
      </trkpt>
      <trkpt lat="43.1167" lon="3.07884">
        <ele>48</ele>
        <time>2026-02-22T13:01:22Z</time>
      </trkpt>
      <trkpt lat="43.1167" lon="3.07873">
        <ele>48</ele>
        <time>2026-02-22T13:01:24Z</time>
      </trkpt>
      <trkpt lat="43.11671" lon="3.07863">
        <ele>47</ele>
        <time>2026-02-22T13:01:26Z</time>
      </trkpt>
      <trkpt lat="43.11672" lon="3.07853">
        <ele>47</ele>
        <time>2026-02-22T13:01:28Z</time>
      </trkpt>
      <trkpt lat="43.11672" lon="3.07843">
        <ele>47</ele>
        <time>2026-02-22T13:01:30Z</time>
      </trkpt>
      <trkpt lat="43.11672" lon="3.07834">
        <ele>47</ele>
        <time>2026-02-22T13:01:32Z</time>
      </trkpt>
      <trkpt lat="43.11671" lon="3.07824">
        <ele>48</ele>
        <time>2026-02-22T13:01:34Z</time>
      </trkpt>
      <trkpt lat="43.1167" lon="3.07814">
        <ele>48</ele>
        <time>2026-02-22T13:01:36Z</time>
      </trkpt>
      <trkpt lat="43.11669" lon="3.07805">
        <ele>48</ele>
        <time>2026-02-22T13:01:38Z</time>
      </trkpt>
      <trkpt lat="43.11667" lon="3.07797">
        <ele>48</ele>
        <time>2026-02-22T13:01:40Z</time>
      </trkpt>
      <trkpt lat="43.11665" lon="3.0779">
        <ele>48</ele>
        <time>2026-02-22T13:01:42Z</time>
      </trkpt>
      <trkpt lat="43.11664" lon="3.07783">
        <ele>47</ele>
        <time>2026-02-22T13:01:44Z</time>
      </trkpt>
      <trkpt lat="43.11661" lon="3.07776">
        <ele>47</ele>
        <time>2026-02-22T13:01:46Z</time>
      </trkpt>
      <trkpt lat="43.11659" lon="3.07768">
        <ele>47</ele>
        <time>2026-02-22T13:01:48Z</time>
      </trkpt>
      <trkpt lat="43.11657" lon="3.0776">
        <ele>47</ele>
        <time>2026-02-22T13:01:50Z</time>
      </trkpt>
      <trkpt lat="43.11656" lon="3.07752">
        <ele>47</ele>
        <time>2026-02-22T13:01:52Z</time>
      </trkpt>
      <trkpt lat="43.11655" lon="3.07744">
        <ele>47</ele>
        <time>2026-02-22T13:01:54Z</time>
      </trkpt>
      <trkpt lat="43.11654" lon="3.07738">
        <ele>47</ele>
        <time>2026-02-22T13:01:56Z</time>
      </trkpt>
      <trkpt lat="43.11654" lon="3.07731">
        <ele>48</ele>
        <time>2026-02-22T13:01:58Z</time>
      </trkpt>
      <trkpt lat="43.11653" lon="3.07724">
        <ele>48</ele>
        <time>2026-02-22T13:02:00Z</time>
      </trkpt>
      <trkpt lat="43.11652" lon="3.07717">
        <ele>48</ele>
        <time>2026-02-22T13:02:02Z</time>
      </trkpt>
      <trkpt lat="43.11652" lon="3.0771">
        <ele>48</ele>
        <time>2026-02-22T13:02:04Z</time>
      </trkpt>
      <trkpt lat="43.11652" lon="3.07702">
        <ele>48</ele>
        <time>2026-02-22T13:02:06Z</time>
      </trkpt>
      <trkpt lat="43.11653" lon="3.07694">
        <ele>47</ele>
        <time>2026-02-22T13:02:08Z</time>
      </trkpt>
      <trkpt lat="43.11654" lon="3.07685">
        <ele>47</ele>
        <time>2026-02-22T13:02:10Z</time>
      </trkpt>
      <trkpt lat="43.11654" lon="3.07677">
        <ele>47</ele>
        <time>2026-02-22T13:02:12Z</time>
      </trkpt>
      <trkpt lat="43.11653" lon="3.07669">
        <ele>47</ele>
        <time>2026-02-22T13:02:14Z</time>
      </trkpt>
      <trkpt lat="43.11653" lon="3.07661">
        <ele>47</ele>
        <time>2026-02-22T13:02:16Z</time>
      </trkpt>
      <trkpt lat="43.11653" lon="3.07653">
        <ele>47</ele>
        <time>2026-02-22T13:02:18Z</time>
      </trkpt>
      <trkpt lat="43.11652" lon="3.07645">
        <ele>47</ele>
        <time>2026-02-22T13:02:20Z</time>
      </trkpt>
      <trkpt lat="43.11651" lon="3.07637">
        <ele>47</ele>
        <time>2026-02-22T13:02:22Z</time>
      </trkpt>
      <trkpt lat="43.1165" lon="3.07628">
        <ele>47</ele>
        <time>2026-02-22T13:02:24Z</time>
      </trkpt>
      <trkpt lat="43.1165" lon="3.0762">
        <ele>47</ele>
        <time>2026-02-22T13:02:26Z</time>
      </trkpt>
      <trkpt lat="43.11651" lon="3.07611">
        <ele>48</ele>
        <time>2026-02-22T13:02:28Z</time>
      </trkpt>
      <trkpt lat="43.11651" lon="3.07603">
        <ele>48</ele>
        <time>2026-02-22T13:02:30Z</time>
      </trkpt>
      <trkpt lat="43.11651" lon="3.07594">
        <ele>48</ele>
        <time>2026-02-22T13:02:32Z</time>
      </trkpt>
      <trkpt lat="43.11651" lon="3.07585">
        <ele>48</ele>
        <time>2026-02-22T13:02:34Z</time>
      </trkpt>
      <trkpt lat="43.11652" lon="3.07576">
        <ele>48</ele>
        <time>2026-02-22T13:02:36Z</time>
      </trkpt>
      <trkpt lat="43.11653" lon="3.07569">
        <ele>48</ele>
        <time>2026-02-22T13:02:38Z</time>
      </trkpt>
      <trkpt lat="43.11654" lon="3.07561">
        <ele>49</ele>
        <time>2026-02-22T13:02:40Z</time>
      </trkpt>
      <trkpt lat="43.11655" lon="3.07553">
        <ele>49</ele>
        <time>2026-02-22T13:02:42Z</time>
      </trkpt>
      <trkpt lat="43.11656" lon="3.07545">
        <ele>49</ele>
        <time>2026-02-22T13:02:44Z</time>
      </trkpt>
      <trkpt lat="43.11658" lon="3.07538">
        <ele>49</ele>
        <time>2026-02-22T13:02:46Z</time>
      </trkpt>
      <trkpt lat="43.11659" lon="3.0753">
        <ele>49</ele>
        <time>2026-02-22T13:02:48Z</time>
      </trkpt>
      <trkpt lat="43.1166" lon="3.07522">
        <ele>49</ele>
        <time>2026-02-22T13:02:50Z</time>
      </trkpt>
      <trkpt lat="43.11662" lon="3.07513">
        <ele>49</ele>
        <time>2026-02-22T13:02:52Z</time>
      </trkpt>
      <trkpt lat="43.11663" lon="3.07505">
        <ele>49</ele>
        <time>2026-02-22T13:02:54Z</time>
      </trkpt>
      <trkpt lat="43.11664" lon="3.07496">
        <ele>49</ele>
        <time>2026-02-22T13:02:56Z</time>
      </trkpt>
      <trkpt lat="43.11665" lon="3.07488">
        <ele>49</ele>
        <time>2026-02-22T13:02:58Z</time>
      </trkpt>
      <trkpt lat="43.11666" lon="3.07479">
        <ele>48</ele>
        <time>2026-02-22T13:03:00Z</time>
      </trkpt>
      <trkpt lat="43.11666" lon="3.0747">
        <ele>48</ele>
        <time>2026-02-22T13:03:02Z</time>
      </trkpt>
      <trkpt lat="43.11667" lon="3.07461">
        <ele>48</ele>
        <time>2026-02-22T13:03:04Z</time>
      </trkpt>
      <trkpt lat="43.11667" lon="3.07452">
        <ele>48</ele>
        <time>2026-02-22T13:03:06Z</time>
      </trkpt>
      <trkpt lat="43.11667" lon="3.07443">
        <ele>48</ele>
        <time>2026-02-22T13:03:08Z</time>
      </trkpt>
      <trkpt lat="43.11667" lon="3.07434">
        <ele>48</ele>
        <time>2026-02-22T13:03:10Z</time>
      </trkpt>
      <trkpt lat="43.11667" lon="3.07425">
        <ele>48</ele>
        <time>2026-02-22T13:03:12Z</time>
      </trkpt>
      <trkpt lat="43.11668" lon="3.07416">
        <ele>48</ele>
        <time>2026-02-22T13:03:14Z</time>
      </trkpt>
      <trkpt lat="43.11668" lon="3.07407">
        <ele>48</ele>
        <time>2026-02-22T13:03:16Z</time>
      </trkpt>
      <trkpt lat="43.11668" lon="3.07398">
        <ele>48</ele>
        <time>2026-02-22T13:03:18Z</time>
      </trkpt>
      <trkpt lat="43.11669" lon="3.0739">
        <ele>48</ele>
        <time>2026-02-22T13:03:20Z</time>
      </trkpt>
      <trkpt lat="43.1167" lon="3.07381">
        <ele>48</ele>
        <time>2026-02-22T13:03:22Z</time>
      </trkpt>
      <trkpt lat="43.11671" lon="3.07372">
        <ele>48</ele>
        <time>2026-02-22T13:03:24Z</time>
      </trkpt>
      <trkpt lat="43.11673" lon="3.07364">
        <ele>48</ele>
        <time>2026-02-22T13:03:26Z</time>
      </trkpt>
      <trkpt lat="43.11675" lon="3.07355">
        <ele>48</ele>
        <time>2026-02-22T13:03:28Z</time>
      </trkpt>
      <trkpt lat="43.11676" lon="3.07346">
        <ele>48</ele>
        <time>2026-02-22T13:03:30Z</time>
      </trkpt>
      <trkpt lat="43.11676" lon="3.07337">
        <ele>48</ele>
        <time>2026-02-22T13:03:32Z</time>
      </trkpt>
      <trkpt lat="43.11675" lon="3.07328">
        <ele>49</ele>
        <time>2026-02-22T13:03:34Z</time>
      </trkpt>
      <trkpt lat="43.11673" lon="3.0732">
        <ele>49</ele>
        <time>2026-02-22T13:03:36Z</time>
      </trkpt>
      <trkpt lat="43.11672" lon="3.07312">
        <ele>49</ele>
        <time>2026-02-22T13:03:38Z</time>
      </trkpt>
      <trkpt lat="43.1167" lon="3.07303">
        <ele>49</ele>
        <time>2026-02-22T13:03:40Z</time>
      </trkpt>
      <trkpt lat="43.11669" lon="3.07294">
        <ele>49</ele>
        <time>2026-02-22T13:03:42Z</time>
      </trkpt>
      <trkpt lat="43.11667" lon="3.07285">
        <ele>49</ele>
        <time>2026-02-22T13:03:44Z</time>
      </trkpt>
      <trkpt lat="43.11665" lon="3.07276">
        <ele>48</ele>
        <time>2026-02-22T13:03:46Z</time>
      </trkpt>
      <trkpt lat="43.11662" lon="3.07267">
        <ele>48</ele>
        <time>2026-02-22T13:03:48Z</time>
      </trkpt>
      <trkpt lat="43.11659" lon="3.07257">
        <ele>48</ele>
        <time>2026-02-22T13:03:50Z</time>
      </trkpt>
      <trkpt lat="43.11656" lon="3.07247">
        <ele>48</ele>
        <time>2026-02-22T13:03:52Z</time>
      </trkpt>
      <trkpt lat="43.11652" lon="3.07237">
        <ele>48</ele>
        <time>2026-02-22T13:03:54Z</time>
      </trkpt>
      <trkpt lat="43.11649" lon="3.07228">
        <ele>48</ele>
        <time>2026-02-22T13:03:56Z</time>
      </trkpt>
      <trkpt lat="43.11645" lon="3.07218">
        <ele>48</ele>
        <time>2026-02-22T13:03:58Z</time>
      </trkpt>
      <trkpt lat="43.11642" lon="3.07209">
        <ele>48</ele>
        <time>2026-02-22T13:04:00Z</time>
      </trkpt>
      <trkpt lat="43.11638" lon="3.072">
        <ele>48</ele>
        <time>2026-02-22T13:04:02Z</time>
      </trkpt>
      <trkpt lat="43.11634" lon="3.07191">
        <ele>48</ele>
        <time>2026-02-22T13:04:04Z</time>
      </trkpt>
      <trkpt lat="43.11629" lon="3.07182">
        <ele>48</ele>
        <time>2026-02-22T13:04:06Z</time>
      </trkpt>
      <trkpt lat="43.11623" lon="3.07175">
        <ele>48</ele>
        <time>2026-02-22T13:04:08Z</time>
      </trkpt>
      <trkpt lat="43.11617" lon="3.07168">
        <ele>48</ele>
        <time>2026-02-22T13:04:10Z</time>
      </trkpt>
      <trkpt lat="43.11609" lon="3.07163">
        <ele>48</ele>
        <time>2026-02-22T13:04:12Z</time>
      </trkpt>
      <trkpt lat="43.11601" lon="3.07158">
        <ele>48</ele>
        <time>2026-02-22T13:04:14Z</time>
      </trkpt>
      <trkpt lat="43.11593" lon="3.07154">
        <ele>47</ele>
        <time>2026-02-22T13:04:16Z</time>
      </trkpt>
      <trkpt lat="43.11585" lon="3.0715">
        <ele>47</ele>
        <time>2026-02-22T13:04:18Z</time>
      </trkpt>
      <trkpt lat="43.11577" lon="3.07145">
        <ele>47</ele>
        <time>2026-02-22T13:04:20Z</time>
      </trkpt>
      <trkpt lat="43.11569" lon="3.07141">
        <ele>47</ele>
        <time>2026-02-22T13:04:22Z</time>
      </trkpt>
      <trkpt lat="43.1156" lon="3.07137">
        <ele>48</ele>
        <time>2026-02-22T13:04:24Z</time>
      </trkpt>
      <trkpt lat="43.11552" lon="3.07133">
        <ele>48</ele>
        <time>2026-02-22T13:04:26Z</time>
      </trkpt>
      <trkpt lat="43.11544" lon="3.07129">
        <ele>48</ele>
        <time>2026-02-22T13:04:28Z</time>
      </trkpt>
      <trkpt lat="43.11535" lon="3.07126">
        <ele>49</ele>
        <time>2026-02-22T13:04:30Z</time>
      </trkpt>
      <trkpt lat="43.11527" lon="3.07122">
        <ele>49</ele>
        <time>2026-02-22T13:04:32Z</time>
      </trkpt>
      <trkpt lat="43.11518" lon="3.07118">
        <ele>49</ele>
        <time>2026-02-22T13:04:34Z</time>
      </trkpt>
      <trkpt lat="43.1151" lon="3.07113">
        <ele>49</ele>
        <time>2026-02-22T13:04:36Z</time>
      </trkpt>
      <trkpt lat="43.11502" lon="3.07107">
        <ele>49</ele>
        <time>2026-02-22T13:04:38Z</time>
      </trkpt>
      <trkpt lat="43.11494" lon="3.07101">
        <ele>49</ele>
        <time>2026-02-22T13:04:40Z</time>
      </trkpt>
      <trkpt lat="43.11487" lon="3.07094">
        <ele>49</ele>
        <time>2026-02-22T13:04:42Z</time>
      </trkpt>
      <trkpt lat="43.1148" lon="3.07087">
        <ele>49</ele>
        <time>2026-02-22T13:04:44Z</time>
      </trkpt>
      <trkpt lat="43.11473" lon="3.07081">
        <ele>49</ele>
        <time>2026-02-22T13:04:46Z</time>
      </trkpt>
      <trkpt lat="43.11465" lon="3.07075">
        <ele>49</ele>
        <time>2026-02-22T13:04:48Z</time>
      </trkpt>
      <trkpt lat="43.11458" lon="3.07069">
        <ele>49</ele>
        <time>2026-02-22T13:04:50Z</time>
      </trkpt>
      <trkpt lat="43.1145" lon="3.07063">
        <ele>49</ele>
        <time>2026-02-22T13:04:52Z</time>
      </trkpt>
      <trkpt lat="43.11442" lon="3.07056">
        <ele>49</ele>
        <time>2026-02-22T13:04:54Z</time>
      </trkpt>
      <trkpt lat="43.11435" lon="3.0705">
        <ele>49</ele>
        <time>2026-02-22T13:04:56Z</time>
      </trkpt>
      <trkpt lat="43.11427" lon="3.07044">
        <ele>49</ele>
        <time>2026-02-22T13:04:58Z</time>
      </trkpt>
      <trkpt lat="43.11419" lon="3.07038">
        <ele>48</ele>
        <time>2026-02-22T13:05:00Z</time>
      </trkpt>
      <trkpt lat="43.11412" lon="3.07032">
        <ele>47</ele>
        <time>2026-02-22T13:05:02Z</time>
      </trkpt>
      <trkpt lat="43.11404" lon="3.07025">
        <ele>48</ele>
        <time>2026-02-22T13:05:04Z</time>
      </trkpt>
      <trkpt lat="43.11397" lon="3.07018">
        <ele>48</ele>
        <time>2026-02-22T13:05:06Z</time>
      </trkpt>
      <trkpt lat="43.11391" lon="3.07011">
        <ele>48</ele>
        <time>2026-02-22T13:05:08Z</time>
      </trkpt>
      <trkpt lat="43.11384" lon="3.07003">
        <ele>48</ele>
        <time>2026-02-22T13:05:10Z</time>
      </trkpt>
      <trkpt lat="43.11378" lon="3.06995">
        <ele>48</ele>
        <time>2026-02-22T13:05:12Z</time>
      </trkpt>
      <trkpt lat="43.11372" lon="3.06987">
        <ele>48</ele>
        <time>2026-02-22T13:05:14Z</time>
      </trkpt>
      <trkpt lat="43.11365" lon="3.06978">
        <ele>48</ele>
        <time>2026-02-22T13:05:16Z</time>
      </trkpt>
      <trkpt lat="43.11359" lon="3.0697">
        <ele>48</ele>
        <time>2026-02-22T13:05:18Z</time>
      </trkpt>
      <trkpt lat="43.11354" lon="3.0696">
        <ele>48</ele>
        <time>2026-02-22T13:05:20Z</time>
      </trkpt>
      <trkpt lat="43.11348" lon="3.0695">
        <ele>48</ele>
        <time>2026-02-22T13:05:22Z</time>
      </trkpt>
      <trkpt lat="43.11342" lon="3.06941">
        <ele>48</ele>
        <time>2026-02-22T13:05:24Z</time>
      </trkpt>
      <trkpt lat="43.11336" lon="3.06932">
        <ele>48</ele>
        <time>2026-02-22T13:05:26Z</time>
      </trkpt>
      <trkpt lat="43.1133" lon="3.06923">
        <ele>48</ele>
        <time>2026-02-22T13:05:28Z</time>
      </trkpt>
      <trkpt lat="43.11324" lon="3.06914">
        <ele>48</ele>
        <time>2026-02-22T13:05:30Z</time>
      </trkpt>
      <trkpt lat="43.11318" lon="3.06905">
        <ele>48</ele>
        <time>2026-02-22T13:05:32Z</time>
      </trkpt>
      <trkpt lat="43.11312" lon="3.06896">
        <ele>49</ele>
        <time>2026-02-22T13:05:34Z</time>
      </trkpt>
      <trkpt lat="43.11307" lon="3.06886">
        <ele>48</ele>
        <time>2026-02-22T13:05:36Z</time>
      </trkpt>
      <trkpt lat="43.11301" lon="3.06877">
        <ele>48</ele>
        <time>2026-02-22T13:05:38Z</time>
      </trkpt>
      <trkpt lat="43.11295" lon="3.06868">
        <ele>47</ele>
        <time>2026-02-22T13:05:40Z</time>
      </trkpt>
      <trkpt lat="43.11289" lon="3.06858">
        <ele>47</ele>
        <time>2026-02-22T13:05:42Z</time>
      </trkpt>
      <trkpt lat="43.11283" lon="3.06848">
        <ele>47</ele>
        <time>2026-02-22T13:05:44Z</time>
      </trkpt>
      <trkpt lat="43.11277" lon="3.06839">
        <ele>47</ele>
        <time>2026-02-22T13:05:46Z</time>
      </trkpt>
      <trkpt lat="43.11271" lon="3.06831">
        <ele>47</ele>
        <time>2026-02-22T13:05:48Z</time>
      </trkpt>
      <trkpt lat="43.11265" lon="3.06823">
        <ele>47</ele>
        <time>2026-02-22T13:05:50Z</time>
      </trkpt>
      <trkpt lat="43.1126" lon="3.06813">
        <ele>48</ele>
        <time>2026-02-22T13:05:52Z</time>
      </trkpt>
      <trkpt lat="43.11254" lon="3.06805">
        <ele>48</ele>
        <time>2026-02-22T13:05:54Z</time>
      </trkpt>
      <trkpt lat="43.11248" lon="3.06796">
        <ele>48</ele>
        <time>2026-02-22T13:05:56Z</time>
      </trkpt>
      <trkpt lat="43.11242" lon="3.06787">
        <ele>48</ele>
        <time>2026-02-22T13:05:58Z</time>
      </trkpt>
      <trkpt lat="43.11237" lon="3.06778">
        <ele>48</ele>
        <time>2026-02-22T13:06:00Z</time>
      </trkpt>
      <trkpt lat="43.11232" lon="3.06771">
        <ele>49</ele>
        <time>2026-02-22T13:06:02Z</time>
      </trkpt>
      <trkpt lat="43.11227" lon="3.06764">
        <ele>50</ele>
        <time>2026-02-22T13:06:04Z</time>
      </trkpt>
      <trkpt lat="43.11222" lon="3.06756">
        <ele>50</ele>
        <time>2026-02-22T13:06:06Z</time>
      </trkpt>
      <trkpt lat="43.11217" lon="3.06748">
        <ele>49</ele>
        <time>2026-02-22T13:06:08Z</time>
      </trkpt>
      <trkpt lat="43.11212" lon="3.06741">
        <ele>48</ele>
        <time>2026-02-22T13:06:10Z</time>
      </trkpt>
      <trkpt lat="43.11207" lon="3.06734">
        <ele>49</ele>
        <time>2026-02-22T13:06:12Z</time>
      </trkpt>
      <trkpt lat="43.11202" lon="3.06727">
        <ele>49</ele>
        <time>2026-02-22T13:06:14Z</time>
      </trkpt>
      <trkpt lat="43.11197" lon="3.0672">
        <ele>49</ele>
        <time>2026-02-22T13:06:16Z</time>
      </trkpt>
      <trkpt lat="43.11192" lon="3.06713">
        <ele>49</ele>
        <time>2026-02-22T13:06:18Z</time>
      </trkpt>
      <trkpt lat="43.11186" lon="3.06706">
        <ele>49</ele>
        <time>2026-02-22T13:06:20Z</time>
      </trkpt>
      <trkpt lat="43.11182" lon="3.06699">
        <ele>49</ele>
        <time>2026-02-22T13:06:22Z</time>
      </trkpt>
      <trkpt lat="43.11177" lon="3.06691">
        <ele>49</ele>
        <time>2026-02-22T13:06:24Z</time>
      </trkpt>
      <trkpt lat="43.11172" lon="3.06684">
        <ele>49</ele>
        <time>2026-02-22T13:06:26Z</time>
      </trkpt>
      <trkpt lat="43.11167" lon="3.06676">
        <ele>49</ele>
        <time>2026-02-22T13:06:28Z</time>
      </trkpt>
      <trkpt lat="43.11161" lon="3.06668">
        <ele>50</ele>
        <time>2026-02-22T13:06:30Z</time>
      </trkpt>
      <trkpt lat="43.11156" lon="3.0666">
        <ele>50</ele>
        <time>2026-02-22T13:06:32Z</time>
      </trkpt>
      <trkpt lat="43.1115" lon="3.06653">
        <ele>50</ele>
        <time>2026-02-22T13:06:34Z</time>
      </trkpt>
      <trkpt lat="43.11145" lon="3.06646">
        <ele>49</ele>
        <time>2026-02-22T13:06:36Z</time>
      </trkpt>
      <trkpt lat="43.1114" lon="3.06639">
        <ele>50</ele>
        <time>2026-02-22T13:06:38Z</time>
      </trkpt>
      <trkpt lat="43.11135" lon="3.06632">
        <ele>49</ele>
        <time>2026-02-22T13:06:40Z</time>
      </trkpt>
      <trkpt lat="43.11131" lon="3.06625">
        <ele>49</ele>
        <time>2026-02-22T13:06:42Z</time>
      </trkpt>
      <trkpt lat="43.11126" lon="3.06617">
        <ele>49</ele>
        <time>2026-02-22T13:06:44Z</time>
      </trkpt>
      <trkpt lat="43.11123" lon="3.0661">
        <ele>49</ele>
        <time>2026-02-22T13:06:46Z</time>
      </trkpt>
      <trkpt lat="43.1112" lon="3.06601">
        <ele>49</ele>
        <time>2026-02-22T13:06:48Z</time>
      </trkpt>
      <trkpt lat="43.11119" lon="3.06593">
        <ele>48</ele>
        <time>2026-02-22T13:06:50Z</time>
      </trkpt>
      <trkpt lat="43.11119" lon="3.06583">
        <ele>48</ele>
        <time>2026-02-22T13:06:52Z</time>
      </trkpt>
      <trkpt lat="43.1112" lon="3.06571">
        <ele>48</ele>
        <time>2026-02-22T13:06:54Z</time>
      </trkpt>
      <trkpt lat="43.11121" lon="3.06559">
        <ele>48</ele>
        <time>2026-02-22T13:06:56Z</time>
      </trkpt>
      <trkpt lat="43.11122" lon="3.06548">
        <ele>48</ele>
        <time>2026-02-22T13:06:58Z</time>
      </trkpt>
      <trkpt lat="43.11124" lon="3.06538">
        <ele>48</ele>
        <time>2026-02-22T13:07:00Z</time>
      </trkpt>
      <trkpt lat="43.11125" lon="3.06528">
        <ele>48</ele>
        <time>2026-02-22T13:07:02Z</time>
      </trkpt>
      <trkpt lat="43.11128" lon="3.06518">
        <ele>48</ele>
        <time>2026-02-22T13:07:04Z</time>
      </trkpt>
      <trkpt lat="43.1113" lon="3.06508">
        <ele>48</ele>
        <time>2026-02-22T13:07:06Z</time>
      </trkpt>
      <trkpt lat="43.11133" lon="3.06499">
        <ele>48</ele>
        <time>2026-02-22T13:07:08Z</time>
      </trkpt>
      <trkpt lat="43.11137" lon="3.06491">
        <ele>48</ele>
        <time>2026-02-22T13:07:10Z</time>
      </trkpt>
      <trkpt lat="43.1114" lon="3.06482">
        <ele>48</ele>
        <time>2026-02-22T13:07:12Z</time>
      </trkpt>
      <trkpt lat="43.11144" lon="3.06475">
        <ele>48</ele>
        <time>2026-02-22T13:07:14Z</time>
      </trkpt>
      <trkpt lat="43.11147" lon="3.06467">
        <ele>48</ele>
        <time>2026-02-22T13:07:16Z</time>
      </trkpt>
      <trkpt lat="43.11151" lon="3.0646">
        <ele>48</ele>
        <time>2026-02-22T13:07:18Z</time>
      </trkpt>
      <trkpt lat="43.11156" lon="3.06453">
        <ele>48</ele>
        <time>2026-02-22T13:07:20Z</time>
      </trkpt>
      <trkpt lat="43.1116" lon="3.06445">
        <ele>48</ele>
        <time>2026-02-22T13:07:22Z</time>
      </trkpt>
      <trkpt lat="43.11164" lon="3.06438">
        <ele>48</ele>
        <time>2026-02-22T13:07:24Z</time>
      </trkpt>
      <trkpt lat="43.11167" lon="3.0643">
        <ele>48</ele>
        <time>2026-02-22T13:07:26Z</time>
      </trkpt>
      <trkpt lat="43.11171" lon="3.06423">
        <ele>48</ele>
        <time>2026-02-22T13:07:28Z</time>
      </trkpt>
      <trkpt lat="43.11174" lon="3.06415">
        <ele>48</ele>
        <time>2026-02-22T13:07:30Z</time>
      </trkpt>
      <trkpt lat="43.11177" lon="3.06407">
        <ele>48</ele>
        <time>2026-02-22T13:07:32Z</time>
      </trkpt>
      <trkpt lat="43.1118" lon="3.064">
        <ele>47</ele>
        <time>2026-02-22T13:07:34Z</time>
      </trkpt>
      <trkpt lat="43.11184" lon="3.06392">
        <ele>47</ele>
        <time>2026-02-22T13:07:36Z</time>
      </trkpt>
      <trkpt lat="43.11187" lon="3.06385">
        <ele>48</ele>
        <time>2026-02-22T13:07:38Z</time>
      </trkpt>
      <trkpt lat="43.11191" lon="3.06378">
        <ele>48</ele>
        <time>2026-02-22T13:07:40Z</time>
      </trkpt>
      <trkpt lat="43.11194" lon="3.06371">
        <ele>48</ele>
        <time>2026-02-22T13:07:42Z</time>
      </trkpt>
      <trkpt lat="43.11197" lon="3.06364">
        <ele>48</ele>
        <time>2026-02-22T13:07:44Z</time>
      </trkpt>
      <trkpt lat="43.112" lon="3.06356">
        <ele>48</ele>
        <time>2026-02-22T13:07:46Z</time>
      </trkpt>
      <trkpt lat="43.11204" lon="3.06348">
        <ele>48</ele>
        <time>2026-02-22T13:07:48Z</time>
      </trkpt>
      <trkpt lat="43.11207" lon="3.06341">
        <ele>48</ele>
        <time>2026-02-22T13:07:50Z</time>
      </trkpt>
      <trkpt lat="43.11211" lon="3.06333">
        <ele>48</ele>
        <time>2026-02-22T13:07:52Z</time>
      </trkpt>
      <trkpt lat="43.11214" lon="3.06326">
        <ele>48</ele>
        <time>2026-02-22T13:07:54Z</time>
      </trkpt>
      <trkpt lat="43.11217" lon="3.06318">
        <ele>48</ele>
        <time>2026-02-22T13:07:56Z</time>
      </trkpt>
      <trkpt lat="43.1122" lon="3.06311">
        <ele>48</ele>
        <time>2026-02-22T13:07:58Z</time>
      </trkpt>
      <trkpt lat="43.11224" lon="3.06304">
        <ele>48</ele>
        <time>2026-02-22T13:08:00Z</time>
      </trkpt>
      <trkpt lat="43.11227" lon="3.06297">
        <ele>48</ele>
        <time>2026-02-22T13:08:02Z</time>
      </trkpt>
      <trkpt lat="43.1123" lon="3.0629">
        <ele>47</ele>
        <time>2026-02-22T13:08:04Z</time>
      </trkpt>
      <trkpt lat="43.11234" lon="3.06283">
        <ele>47</ele>
        <time>2026-02-22T13:08:06Z</time>
      </trkpt>
      <trkpt lat="43.11237" lon="3.06275">
        <ele>48</ele>
        <time>2026-02-22T13:08:08Z</time>
      </trkpt>
      <trkpt lat="43.11241" lon="3.06268">
        <ele>48</ele>
        <time>2026-02-22T13:08:10Z</time>
      </trkpt>
      <trkpt lat="43.11244" lon="3.06261">
        <ele>48</ele>
        <time>2026-02-22T13:08:12Z</time>
      </trkpt>
      <trkpt lat="43.11248" lon="3.06253">
        <ele>48</ele>
        <time>2026-02-22T13:08:14Z</time>
      </trkpt>
      <trkpt lat="43.11252" lon="3.06246">
        <ele>48</ele>
        <time>2026-02-22T13:08:16Z</time>
      </trkpt>
      <trkpt lat="43.11255" lon="3.06239">
        <ele>48</ele>
        <time>2026-02-22T13:08:18Z</time>
      </trkpt>
      <trkpt lat="43.11259" lon="3.06233">
        <ele>49</ele>
        <time>2026-02-22T13:08:20Z</time>
      </trkpt>
      <trkpt lat="43.11263" lon="3.06225">
        <ele>49</ele>
        <time>2026-02-22T13:08:22Z</time>
      </trkpt>
      <trkpt lat="43.11266" lon="3.06218">
        <ele>49</ele>
        <time>2026-02-22T13:08:24Z</time>
      </trkpt>
      <trkpt lat="43.1127" lon="3.06211">
        <ele>49</ele>
        <time>2026-02-22T13:08:26Z</time>
      </trkpt>
      <trkpt lat="43.11273" lon="3.06203">
        <ele>49</ele>
        <time>2026-02-22T13:08:28Z</time>
      </trkpt>
      <trkpt lat="43.11277" lon="3.06196">
        <ele>49</ele>
        <time>2026-02-22T13:08:30Z</time>
      </trkpt>
      <trkpt lat="43.1128" lon="3.06188">
        <ele>48</ele>
        <time>2026-02-22T13:08:32Z</time>
      </trkpt>
      <trkpt lat="43.11283" lon="3.0618">
        <ele>48</ele>
        <time>2026-02-22T13:08:34Z</time>
      </trkpt>
      <trkpt lat="43.11287" lon="3.06172">
        <ele>48</ele>
        <time>2026-02-22T13:08:36Z</time>
      </trkpt>
      <trkpt lat="43.1129" lon="3.06164">
        <ele>48</ele>
        <time>2026-02-22T13:08:38Z</time>
      </trkpt>
      <trkpt lat="43.11294" lon="3.06156">
        <ele>48</ele>
        <time>2026-02-22T13:08:40Z</time>
      </trkpt>
      <trkpt lat="43.11297" lon="3.06148">
        <ele>48</ele>
        <time>2026-02-22T13:08:42Z</time>
      </trkpt>
      <trkpt lat="43.11301" lon="3.06141">
        <ele>48</ele>
        <time>2026-02-22T13:08:44Z</time>
      </trkpt>
      <trkpt lat="43.11304" lon="3.06133">
        <ele>48</ele>
        <time>2026-02-22T13:08:46Z</time>
      </trkpt>
      <trkpt lat="43.11308" lon="3.06126">
        <ele>48</ele>
        <time>2026-02-22T13:08:48Z</time>
      </trkpt>
      <trkpt lat="43.11311" lon="3.06118">
        <ele>48</ele>
        <time>2026-02-22T13:08:50Z</time>
      </trkpt>
      <trkpt lat="43.11315" lon="3.0611">
        <ele>48</ele>
        <time>2026-02-22T13:08:52Z</time>
      </trkpt>
      <trkpt lat="43.11318" lon="3.06103">
        <ele>48</ele>
        <time>2026-02-22T13:08:54Z</time>
      </trkpt>
      <trkpt lat="43.11322" lon="3.06095">
        <ele>48</ele>
        <time>2026-02-22T13:08:56Z</time>
      </trkpt>
      <trkpt lat="43.11326" lon="3.06088">
        <ele>48</ele>
        <time>2026-02-22T13:08:58Z</time>
      </trkpt>
      <trkpt lat="43.11329" lon="3.06081">
        <ele>48</ele>
        <time>2026-02-22T13:09:00Z</time>
      </trkpt>
      <trkpt lat="43.11333" lon="3.06073">
        <ele>48</ele>
        <time>2026-02-22T13:09:02Z</time>
      </trkpt>
      <trkpt lat="43.11337" lon="3.06066">
        <ele>48</ele>
        <time>2026-02-22T13:09:04Z</time>
      </trkpt>
      <trkpt lat="43.1134" lon="3.06059">
        <ele>48</ele>
        <time>2026-02-22T13:09:06Z</time>
      </trkpt>
      <trkpt lat="43.11344" lon="3.06051">
        <ele>48</ele>
        <time>2026-02-22T13:09:08Z</time>
      </trkpt>
      <trkpt lat="43.11347" lon="3.06044">
        <ele>48</ele>
        <time>2026-02-22T13:09:10Z</time>
      </trkpt>
      <trkpt lat="43.11351" lon="3.06037">
        <ele>48</ele>
        <time>2026-02-22T13:09:12Z</time>
      </trkpt>
      <trkpt lat="43.11354" lon="3.06029">
        <ele>48</ele>
        <time>2026-02-22T13:09:14Z</time>
      </trkpt>
      <trkpt lat="43.11357" lon="3.06022">
        <ele>49</ele>
        <time>2026-02-22T13:09:16Z</time>
      </trkpt>
      <trkpt lat="43.11361" lon="3.06015">
        <ele>49</ele>
        <time>2026-02-22T13:09:18Z</time>
      </trkpt>
      <trkpt lat="43.11365" lon="3.06008">
        <ele>49</ele>
        <time>2026-02-22T13:09:20Z</time>
      </trkpt>
      <trkpt lat="43.11368" lon="3.06">
        <ele>49</ele>
        <time>2026-02-22T13:09:22Z</time>
      </trkpt>
      <trkpt lat="43.11372" lon="3.05992">
        <ele>49</ele>
        <time>2026-02-22T13:09:24Z</time>
      </trkpt>
      <trkpt lat="43.11375" lon="3.05985">
        <ele>48</ele>
        <time>2026-02-22T13:09:26Z</time>
      </trkpt>
      <trkpt lat="43.11378" lon="3.05978">
        <ele>48</ele>
        <time>2026-02-22T13:09:28Z</time>
      </trkpt>
      <trkpt lat="43.11381" lon="3.0597">
        <ele>48</ele>
        <time>2026-02-22T13:09:30Z</time>
      </trkpt>
      <trkpt lat="43.11385" lon="3.05963">
        <ele>49</ele>
        <time>2026-02-22T13:09:32Z</time>
      </trkpt>
      <trkpt lat="43.11389" lon="3.05955">
        <ele>49</ele>
        <time>2026-02-22T13:09:34Z</time>
      </trkpt>
      <trkpt lat="43.11392" lon="3.05948">
        <ele>49</ele>
        <time>2026-02-22T13:09:36Z</time>
      </trkpt>
      <trkpt lat="43.11396" lon="3.05941">
        <ele>49</ele>
        <time>2026-02-22T13:09:38Z</time>
      </trkpt>
      <trkpt lat="43.11399" lon="3.05934">
        <ele>49</ele>
        <time>2026-02-22T13:09:40Z</time>
      </trkpt>
      <trkpt lat="43.11402" lon="3.05927">
        <ele>49</ele>
        <time>2026-02-22T13:09:42Z</time>
      </trkpt>
      <trkpt lat="43.11406" lon="3.0592">
        <ele>49</ele>
        <time>2026-02-22T13:09:44Z</time>
      </trkpt>
      <trkpt lat="43.11409" lon="3.05913">
        <ele>50</ele>
        <time>2026-02-22T13:09:46Z</time>
      </trkpt>
      <trkpt lat="43.11412" lon="3.05907">
        <ele>50</ele>
        <time>2026-02-22T13:09:48Z</time>
      </trkpt>
      <trkpt lat="43.11416" lon="3.05901">
        <ele>50</ele>
        <time>2026-02-22T13:09:50Z</time>
      </trkpt>
      <trkpt lat="43.11419" lon="3.05894">
        <ele>49</ele>
        <time>2026-02-22T13:09:52Z</time>
      </trkpt>
      <trkpt lat="43.11423" lon="3.05887">
        <ele>50</ele>
        <time>2026-02-22T13:09:54Z</time>
      </trkpt>
      <trkpt lat="43.11426" lon="3.05881">
        <ele>50</ele>
        <time>2026-02-22T13:09:56Z</time>
      </trkpt>
      <trkpt lat="43.11429" lon="3.05874">
        <ele>50</ele>
        <time>2026-02-22T13:09:58Z</time>
      </trkpt>
      <trkpt lat="43.11432" lon="3.05868">
        <ele>50</ele>
        <time>2026-02-22T13:10:00Z</time>
      </trkpt>
      <trkpt lat="43.11435" lon="3.05861">
        <ele>50</ele>
        <time>2026-02-22T13:10:02Z</time>
      </trkpt>
      <trkpt lat="43.11438" lon="3.05854">
        <ele>49</ele>
        <time>2026-02-22T13:10:04Z</time>
      </trkpt>
      <trkpt lat="43.11442" lon="3.05847">
        <ele>49</ele>
        <time>2026-02-22T13:10:06Z</time>
      </trkpt>
      <trkpt lat="43.11445" lon="3.05841">
        <ele>49</ele>
        <time>2026-02-22T13:10:08Z</time>
      </trkpt>
      <trkpt lat="43.11448" lon="3.05834">
        <ele>49</ele>
        <time>2026-02-22T13:10:10Z</time>
      </trkpt>
      <trkpt lat="43.11451" lon="3.05827">
        <ele>49</ele>
        <time>2026-02-22T13:10:12Z</time>
      </trkpt>
      <trkpt lat="43.11455" lon="3.05821">
        <ele>49</ele>
        <time>2026-02-22T13:10:14Z</time>
      </trkpt>
      <trkpt lat="43.11458" lon="3.05814">
        <ele>48</ele>
        <time>2026-02-22T13:10:16Z</time>
      </trkpt>
      <trkpt lat="43.11461" lon="3.05807">
        <ele>48</ele>
        <time>2026-02-22T13:10:18Z</time>
      </trkpt>
      <trkpt lat="43.11464" lon="3.058">
        <ele>49</ele>
        <time>2026-02-22T13:10:20Z</time>
      </trkpt>
      <trkpt lat="43.11466" lon="3.05793">
        <ele>49</ele>
        <time>2026-02-22T13:10:22Z</time>
      </trkpt>
      <trkpt lat="43.1147" lon="3.05786">
        <ele>49</ele>
        <time>2026-02-22T13:10:24Z</time>
      </trkpt>
      <trkpt lat="43.11473" lon="3.05779">
        <ele>49</ele>
        <time>2026-02-22T13:10:26Z</time>
      </trkpt>
      <trkpt lat="43.11476" lon="3.05772">
        <ele>49</ele>
        <time>2026-02-22T13:10:28Z</time>
      </trkpt>
      <trkpt lat="43.11478" lon="3.05765">
        <ele>49</ele>
        <time>2026-02-22T13:10:30Z</time>
      </trkpt>
      <trkpt lat="43.11481" lon="3.05758">
        <ele>49</ele>
        <time>2026-02-22T13:10:32Z</time>
      </trkpt>
      <trkpt lat="43.11484" lon="3.05751">
        <ele>49</ele>
        <time>2026-02-22T13:10:34Z</time>
      </trkpt>
      <trkpt lat="43.11488" lon="3.05745">
        <ele>49</ele>
        <time>2026-02-22T13:10:36Z</time>
      </trkpt>
      <trkpt lat="43.11491" lon="3.05738">
        <ele>49</ele>
        <time>2026-02-22T13:10:38Z</time>
      </trkpt>
      <trkpt lat="43.11494" lon="3.05731">
        <ele>49</ele>
        <time>2026-02-22T13:10:40Z</time>
      </trkpt>
      <trkpt lat="43.11497" lon="3.05724">
        <ele>49</ele>
        <time>2026-02-22T13:10:42Z</time>
      </trkpt>
      <trkpt lat="43.115" lon="3.05718">
        <ele>50</ele>
        <time>2026-02-22T13:10:44Z</time>
      </trkpt>
      <trkpt lat="43.11504" lon="3.05711">
        <ele>50</ele>
        <time>2026-02-22T13:10:46Z</time>
      </trkpt>
      <trkpt lat="43.11507" lon="3.05704">
        <ele>50</ele>
        <time>2026-02-22T13:10:48Z</time>
      </trkpt>
      <trkpt lat="43.11511" lon="3.05698">
        <ele>50</ele>
        <time>2026-02-22T13:10:50Z</time>
      </trkpt>
      <trkpt lat="43.11514" lon="3.05691">
        <ele>50</ele>
        <time>2026-02-22T13:10:52Z</time>
      </trkpt>
      <trkpt lat="43.11517" lon="3.05684">
        <ele>50</ele>
        <time>2026-02-22T13:10:54Z</time>
      </trkpt>
      <trkpt lat="43.1152" lon="3.05677">
        <ele>50</ele>
        <time>2026-02-22T13:10:56Z</time>
      </trkpt>
      <trkpt lat="43.11523" lon="3.0567">
        <ele>50</ele>
        <time>2026-02-22T13:10:58Z</time>
      </trkpt>
      <trkpt lat="43.11526" lon="3.05663">
        <ele>49</ele>
        <time>2026-02-22T13:11:00Z</time>
      </trkpt>
      <trkpt lat="43.11529" lon="3.05656">
        <ele>49</ele>
        <time>2026-02-22T13:11:02Z</time>
      </trkpt>
      <trkpt lat="43.11533" lon="3.05649">
        <ele>49</ele>
        <time>2026-02-22T13:11:04Z</time>
      </trkpt>
      <trkpt lat="43.11536" lon="3.05642">
        <ele>49</ele>
        <time>2026-02-22T13:11:06Z</time>
      </trkpt>
      <trkpt lat="43.11539" lon="3.05635">
        <ele>49</ele>
        <time>2026-02-22T13:11:08Z</time>
      </trkpt>
      <trkpt lat="43.11543" lon="3.05628">
        <ele>49</ele>
        <time>2026-02-22T13:11:10Z</time>
      </trkpt>
      <trkpt lat="43.11546" lon="3.05621">
        <ele>48</ele>
        <time>2026-02-22T13:11:12Z</time>
      </trkpt>
      <trkpt lat="43.11549" lon="3.05615">
        <ele>49</ele>
        <time>2026-02-22T13:11:14Z</time>
      </trkpt>
      <trkpt lat="43.11552" lon="3.05608">
        <ele>48</ele>
        <time>2026-02-22T13:11:16Z</time>
      </trkpt>
      <trkpt lat="43.11555" lon="3.05602">
        <ele>49</ele>
        <time>2026-02-22T13:11:18Z</time>
      </trkpt>
      <trkpt lat="43.11558" lon="3.05596">
        <ele>48</ele>
        <time>2026-02-22T13:11:20Z</time>
      </trkpt>
      <trkpt lat="43.11561" lon="3.05589">
        <ele>48</ele>
        <time>2026-02-22T13:11:22Z</time>
      </trkpt>
      <trkpt lat="43.11563" lon="3.05582">
        <ele>49</ele>
        <time>2026-02-22T13:11:24Z</time>
      </trkpt>
      <trkpt lat="43.11567" lon="3.05575">
        <ele>48</ele>
        <time>2026-02-22T13:11:26Z</time>
      </trkpt>
      <trkpt lat="43.1157" lon="3.05569">
        <ele>49</ele>
        <time>2026-02-22T13:11:28Z</time>
      </trkpt>
      <trkpt lat="43.11573" lon="3.05562">
        <ele>49</ele>
        <time>2026-02-22T13:11:30Z</time>
      </trkpt>
      <trkpt lat="43.11577" lon="3.05555">
        <ele>48</ele>
        <time>2026-02-22T13:11:32Z</time>
      </trkpt>
      <trkpt lat="43.1158" lon="3.05548">
        <ele>48</ele>
        <time>2026-02-22T13:11:34Z</time>
      </trkpt>
      <trkpt lat="43.11584" lon="3.05542">
        <ele>48</ele>
        <time>2026-02-22T13:11:36Z</time>
      </trkpt>
      <trkpt lat="43.11587" lon="3.05535">
        <ele>48</ele>
        <time>2026-02-22T13:11:38Z</time>
      </trkpt>
      <trkpt lat="43.1159" lon="3.05528">
        <ele>48</ele>
        <time>2026-02-22T13:11:40Z</time>
      </trkpt>
      <trkpt lat="43.11593" lon="3.05521">
        <ele>48</ele>
        <time>2026-02-22T13:11:42Z</time>
      </trkpt>
      <trkpt lat="43.11596" lon="3.05514">
        <ele>48</ele>
        <time>2026-02-22T13:11:44Z</time>
      </trkpt>
      <trkpt lat="43.11599" lon="3.05507">
        <ele>48</ele>
        <time>2026-02-22T13:11:46Z</time>
      </trkpt>
      <trkpt lat="43.11602" lon="3.055">
        <ele>48</ele>
        <time>2026-02-22T13:11:48Z</time>
      </trkpt>
      <trkpt lat="43.11605" lon="3.05493">
        <ele>48</ele>
        <time>2026-02-22T13:11:50Z</time>
      </trkpt>
      <trkpt lat="43.11609" lon="3.05486">
        <ele>48</ele>
        <time>2026-02-22T13:11:52Z</time>
      </trkpt>
      <trkpt lat="43.11612" lon="3.05479">
        <ele>48</ele>
        <time>2026-02-22T13:11:54Z</time>
      </trkpt>
      <trkpt lat="43.11615" lon="3.05472">
        <ele>49</ele>
        <time>2026-02-22T13:11:56Z</time>
      </trkpt>
      <trkpt lat="43.11618" lon="3.05465">
        <ele>49</ele>
        <time>2026-02-22T13:11:58Z</time>
      </trkpt>
      <trkpt lat="43.11621" lon="3.05459">
        <ele>49</ele>
        <time>2026-02-22T13:12:00Z</time>
      </trkpt>
      <trkpt lat="43.11625" lon="3.05452">
        <ele>49</ele>
        <time>2026-02-22T13:12:02Z</time>
      </trkpt>
      <trkpt lat="43.11628" lon="3.05446">
        <ele>49</ele>
        <time>2026-02-22T13:12:04Z</time>
      </trkpt>
      <trkpt lat="43.11632" lon="3.0544">
        <ele>49</ele>
        <time>2026-02-22T13:12:06Z</time>
      </trkpt>
      <trkpt lat="43.11636" lon="3.05434">
        <ele>49</ele>
        <time>2026-02-22T13:12:08Z</time>
      </trkpt>
      <trkpt lat="43.1164" lon="3.05428">
        <ele>49</ele>
        <time>2026-02-22T13:12:10Z</time>
      </trkpt>
      <trkpt lat="43.11644" lon="3.05422">
        <ele>49</ele>
        <time>2026-02-22T13:12:12Z</time>
      </trkpt>
      <trkpt lat="43.11649" lon="3.05416">
        <ele>48</ele>
        <time>2026-02-22T13:12:14Z</time>
      </trkpt>
      <trkpt lat="43.11653" lon="3.0541">
        <ele>48</ele>
        <time>2026-02-22T13:12:16Z</time>
      </trkpt>
      <trkpt lat="43.11658" lon="3.05404">
        <ele>48</ele>
        <time>2026-02-22T13:12:18Z</time>
      </trkpt>
      <trkpt lat="43.11663" lon="3.05398">
        <ele>48</ele>
        <time>2026-02-22T13:12:20Z</time>
      </trkpt>
      <trkpt lat="43.11668" lon="3.05392">
        <ele>48</ele>
        <time>2026-02-22T13:12:22Z</time>
      </trkpt>
      <trkpt lat="43.11673" lon="3.05386">
        <ele>48</ele>
        <time>2026-02-22T13:12:24Z</time>
      </trkpt>
      <trkpt lat="43.11678" lon="3.05381">
        <ele>48</ele>
        <time>2026-02-22T13:12:26Z</time>
      </trkpt>
      <trkpt lat="43.11683" lon="3.05376">
        <ele>48</ele>
        <time>2026-02-22T13:12:28Z</time>
      </trkpt>
      <trkpt lat="43.11688" lon="3.05371">
        <ele>48</ele>
        <time>2026-02-22T13:12:30Z</time>
      </trkpt>
      <trkpt lat="43.11694" lon="3.05367">
        <ele>48</ele>
        <time>2026-02-22T13:12:32Z</time>
      </trkpt>
      <trkpt lat="43.11699" lon="3.05362">
        <ele>49</ele>
        <time>2026-02-22T13:12:34Z</time>
      </trkpt>
      <trkpt lat="43.11705" lon="3.05357">
        <ele>49</ele>
        <time>2026-02-22T13:12:36Z</time>
      </trkpt>
      <trkpt lat="43.1171" lon="3.05352">
        <ele>49</ele>
        <time>2026-02-22T13:12:38Z</time>
      </trkpt>
      <trkpt lat="43.11715" lon="3.05346">
        <ele>49</ele>
        <time>2026-02-22T13:12:40Z</time>
      </trkpt>
      <trkpt lat="43.11719" lon="3.05342">
        <ele>49</ele>
        <time>2026-02-22T13:12:42Z</time>
      </trkpt>
      <trkpt lat="43.11724" lon="3.05337">
        <ele>48</ele>
        <time>2026-02-22T13:12:44Z</time>
      </trkpt>
      <trkpt lat="43.11728" lon="3.05332">
        <ele>48</ele>
        <time>2026-02-22T13:12:46Z</time>
      </trkpt>
      <trkpt lat="43.11733" lon="3.05327">
        <ele>48</ele>
        <time>2026-02-22T13:12:48Z</time>
      </trkpt>
      <trkpt lat="43.11737" lon="3.05322">
        <ele>48</ele>
        <time>2026-02-22T13:12:50Z</time>
      </trkpt>
      <trkpt lat="43.11742" lon="3.05316">
        <ele>48</ele>
        <time>2026-02-22T13:12:52Z</time>
      </trkpt>
      <trkpt lat="43.11746" lon="3.05311">
        <ele>48</ele>
        <time>2026-02-22T13:12:54Z</time>
      </trkpt>
      <trkpt lat="43.11751" lon="3.05306">
        <ele>48</ele>
        <time>2026-02-22T13:12:56Z</time>
      </trkpt>
      <trkpt lat="43.11755" lon="3.053">
        <ele>48</ele>
        <time>2026-02-22T13:12:58Z</time>
      </trkpt>
      <trkpt lat="43.11759" lon="3.05295">
        <ele>48</ele>
        <time>2026-02-22T13:13:00Z</time>
      </trkpt>
      <trkpt lat="43.11763" lon="3.05291">
        <ele>47</ele>
        <time>2026-02-22T13:13:02Z</time>
      </trkpt>
      <trkpt lat="43.11768" lon="3.05287">
        <ele>47</ele>
        <time>2026-02-22T13:13:04Z</time>
      </trkpt>
      <trkpt lat="43.11772" lon="3.05283">
        <ele>47</ele>
        <time>2026-02-22T13:13:06Z</time>
      </trkpt>
      <trkpt lat="43.11778" lon="3.05278">
        <ele>47</ele>
        <time>2026-02-22T13:13:08Z</time>
      </trkpt>
      <trkpt lat="43.11782" lon="3.05274">
        <ele>47</ele>
        <time>2026-02-22T13:13:10Z</time>
      </trkpt>
      <trkpt lat="43.11787" lon="3.0527">
        <ele>47</ele>
        <time>2026-02-22T13:13:12Z</time>
      </trkpt>
      <trkpt lat="43.11792" lon="3.05266">
        <ele>47</ele>
        <time>2026-02-22T13:13:14Z</time>
      </trkpt>
      <trkpt lat="43.11797" lon="3.05261">
        <ele>47</ele>
        <time>2026-02-22T13:13:16Z</time>
      </trkpt>
      <trkpt lat="43.11802" lon="3.05256">
        <ele>46</ele>
        <time>2026-02-22T13:13:18Z</time>
      </trkpt>
      <trkpt lat="43.11807" lon="3.05252">
        <ele>46</ele>
        <time>2026-02-22T13:13:20Z</time>
      </trkpt>
      <trkpt lat="43.11813" lon="3.05247">
        <ele>47</ele>
        <time>2026-02-22T13:13:22Z</time>
      </trkpt>
      <trkpt lat="43.11818" lon="3.05243">
        <ele>47</ele>
        <time>2026-02-22T13:13:24Z</time>
      </trkpt>
      <trkpt lat="43.11823" lon="3.05238">
        <ele>47</ele>
        <time>2026-02-22T13:13:26Z</time>
      </trkpt>
      <trkpt lat="43.11828" lon="3.05234">
        <ele>47</ele>
        <time>2026-02-22T13:13:28Z</time>
      </trkpt>
      <trkpt lat="43.11833" lon="3.05229">
        <ele>47</ele>
        <time>2026-02-22T13:13:30Z</time>
      </trkpt>
      <trkpt lat="43.11838" lon="3.05224">
        <ele>47</ele>
        <time>2026-02-22T13:13:32Z</time>
      </trkpt>
      <trkpt lat="43.11843" lon="3.05219">
        <ele>48</ele>
        <time>2026-02-22T13:13:34Z</time>
      </trkpt>
      <trkpt lat="43.11848" lon="3.05215">
        <ele>48</ele>
        <time>2026-02-22T13:13:36Z</time>
      </trkpt>
      <trkpt lat="43.11853" lon="3.0521">
        <ele>48</ele>
        <time>2026-02-22T13:13:38Z</time>
      </trkpt>
      <trkpt lat="43.11858" lon="3.05206">
        <ele>48</ele>
        <time>2026-02-22T13:13:40Z</time>
      </trkpt>
      <trkpt lat="43.11863" lon="3.05201">
        <ele>48</ele>
        <time>2026-02-22T13:13:42Z</time>
      </trkpt>
      <trkpt lat="43.11867" lon="3.05197">
        <ele>48</ele>
        <time>2026-02-22T13:13:44Z</time>
      </trkpt>
      <trkpt lat="43.11872" lon="3.05192">
        <ele>48</ele>
        <time>2026-02-22T13:13:46Z</time>
      </trkpt>
      <trkpt lat="43.11877" lon="3.05188">
        <ele>48</ele>
        <time>2026-02-22T13:13:48Z</time>
      </trkpt>
      <trkpt lat="43.11881" lon="3.05185">
        <ele>49</ele>
        <time>2026-02-22T13:13:50Z</time>
      </trkpt>
      <trkpt lat="43.11886" lon="3.05181">
        <ele>49</ele>
        <time>2026-02-22T13:13:52Z</time>
      </trkpt>
      <trkpt lat="43.1189" lon="3.05177">
        <ele>49</ele>
        <time>2026-02-22T13:13:54Z</time>
      </trkpt>
      <trkpt lat="43.11893" lon="3.05173">
        <ele>49</ele>
        <time>2026-02-22T13:13:56Z</time>
      </trkpt>
      <trkpt lat="43.11898" lon="3.05169">
        <ele>48</ele>
        <time>2026-02-22T13:13:58Z</time>
      </trkpt>
      <trkpt lat="43.11903" lon="3.05165">
        <ele>48</ele>
        <time>2026-02-22T13:14:00Z</time>
      </trkpt>
      <trkpt lat="43.11908" lon="3.05161">
        <ele>48</ele>
        <time>2026-02-22T13:14:02Z</time>
      </trkpt>
      <trkpt lat="43.11913" lon="3.05157">
        <ele>48</ele>
        <time>2026-02-22T13:14:04Z</time>
      </trkpt>
      <trkpt lat="43.11918" lon="3.05152">
        <ele>48</ele>
        <time>2026-02-22T13:14:06Z</time>
      </trkpt>
      <trkpt lat="43.11923" lon="3.05148">
        <ele>48</ele>
        <time>2026-02-22T13:14:08Z</time>
      </trkpt>
      <trkpt lat="43.11928" lon="3.05143">
        <ele>48</ele>
        <time>2026-02-22T13:14:10Z</time>
      </trkpt>
      <trkpt lat="43.11933" lon="3.05139">
        <ele>48</ele>
        <time>2026-02-22T13:14:12Z</time>
      </trkpt>
      <trkpt lat="43.11938" lon="3.05135">
        <ele>48</ele>
        <time>2026-02-22T13:14:14Z</time>
      </trkpt>
      <trkpt lat="43.11943" lon="3.05131">
        <ele>48</ele>
        <time>2026-02-22T13:14:16Z</time>
      </trkpt>
      <trkpt lat="43.11948" lon="3.05126">
        <ele>47</ele>
        <time>2026-02-22T13:14:18Z</time>
      </trkpt>
      <trkpt lat="43.11953" lon="3.05122">
        <ele>47</ele>
        <time>2026-02-22T13:14:20Z</time>
      </trkpt>
      <trkpt lat="43.11958" lon="3.05118">
        <ele>47</ele>
        <time>2026-02-22T13:14:22Z</time>
      </trkpt>
      <trkpt lat="43.11963" lon="3.05114">
        <ele>48</ele>
        <time>2026-02-22T13:14:24Z</time>
      </trkpt>
      <trkpt lat="43.11968" lon="3.05109">
        <ele>47</ele>
        <time>2026-02-22T13:14:26Z</time>
      </trkpt>
      <trkpt lat="43.11973" lon="3.05105">
        <ele>47</ele>
        <time>2026-02-22T13:14:28Z</time>
      </trkpt>
      <trkpt lat="43.11978" lon="3.051">
        <ele>47</ele>
        <time>2026-02-22T13:14:30Z</time>
      </trkpt>
      <trkpt lat="43.11983" lon="3.05097">
        <ele>48</ele>
        <time>2026-02-22T13:14:32Z</time>
      </trkpt>
      <trkpt lat="43.11988" lon="3.05092">
        <ele>48</ele>
        <time>2026-02-22T13:14:34Z</time>
      </trkpt>
      <trkpt lat="43.11993" lon="3.05088">
        <ele>48</ele>
        <time>2026-02-22T13:14:36Z</time>
      </trkpt>
      <trkpt lat="43.11998" lon="3.05084">
        <ele>48</ele>
        <time>2026-02-22T13:14:38Z</time>
      </trkpt>
      <trkpt lat="43.12002" lon="3.0508">
        <ele>48</ele>
        <time>2026-02-22T13:14:40Z</time>
      </trkpt>
      <trkpt lat="43.12007" lon="3.05075">
        <ele>49</ele>
        <time>2026-02-22T13:14:42Z</time>
      </trkpt>
      <trkpt lat="43.12012" lon="3.05071">
        <ele>48</ele>
        <time>2026-02-22T13:14:44Z</time>
      </trkpt>
      <trkpt lat="43.12017" lon="3.05067">
        <ele>48</ele>
        <time>2026-02-22T13:14:46Z</time>
      </trkpt>
      <trkpt lat="43.12022" lon="3.05063">
        <ele>48</ele>
        <time>2026-02-22T13:14:48Z</time>
      </trkpt>
      <trkpt lat="43.12028" lon="3.05059">
        <ele>48</ele>
        <time>2026-02-22T13:14:50Z</time>
      </trkpt>
      <trkpt lat="43.12032" lon="3.05054">
        <ele>48</ele>
        <time>2026-02-22T13:14:52Z</time>
      </trkpt>
      <trkpt lat="43.12038" lon="3.0505">
        <ele>48</ele>
        <time>2026-02-22T13:14:54Z</time>
      </trkpt>
      <trkpt lat="43.12043" lon="3.05046">
        <ele>48</ele>
        <time>2026-02-22T13:14:56Z</time>
      </trkpt>
      <trkpt lat="43.12048" lon="3.05042">
        <ele>48</ele>
        <time>2026-02-22T13:14:58Z</time>
      </trkpt>
      <trkpt lat="43.12054" lon="3.05039">
        <ele>49</ele>
        <time>2026-02-22T13:15:00Z</time>
      </trkpt>
      <trkpt lat="43.12058" lon="3.05034">
        <ele>48</ele>
        <time>2026-02-22T13:15:02Z</time>
      </trkpt>
      <trkpt lat="43.12064" lon="3.0503">
        <ele>49</ele>
        <time>2026-02-22T13:15:04Z</time>
      </trkpt>
      <trkpt lat="43.12069" lon="3.05026">
        <ele>48</ele>
        <time>2026-02-22T13:15:06Z</time>
      </trkpt>
      <trkpt lat="43.12074" lon="3.05022">
        <ele>48</ele>
        <time>2026-02-22T13:15:08Z</time>
      </trkpt>
      <trkpt lat="43.12079" lon="3.05017">
        <ele>48</ele>
        <time>2026-02-22T13:15:10Z</time>
      </trkpt>
      <trkpt lat="43.12084" lon="3.05012">
        <ele>48</ele>
        <time>2026-02-22T13:15:12Z</time>
      </trkpt>
      <trkpt lat="43.12088" lon="3.05008">
        <ele>48</ele>
        <time>2026-02-22T13:15:14Z</time>
      </trkpt>
      <trkpt lat="43.12093" lon="3.05004">
        <ele>48</ele>
        <time>2026-02-22T13:15:16Z</time>
      </trkpt>
      <trkpt lat="43.12098" lon="3.05">
        <ele>48</ele>
        <time>2026-02-22T13:15:18Z</time>
      </trkpt>
      <trkpt lat="43.12104" lon="3.04995">
        <ele>48</ele>
        <time>2026-02-22T13:15:20Z</time>
      </trkpt>
      <trkpt lat="43.12108" lon="3.0499">
        <ele>48</ele>
        <time>2026-02-22T13:15:22Z</time>
      </trkpt>
      <trkpt lat="43.12113" lon="3.04986">
        <ele>49</ele>
        <time>2026-02-22T13:15:24Z</time>
      </trkpt>
      <trkpt lat="43.12118" lon="3.04982">
        <ele>49</ele>
        <time>2026-02-22T13:15:26Z</time>
      </trkpt>
      <trkpt lat="43.12123" lon="3.04978">
        <ele>48</ele>
        <time>2026-02-22T13:15:28Z</time>
      </trkpt>
      <trkpt lat="43.12127" lon="3.04974">
        <ele>48</ele>
        <time>2026-02-22T13:15:30Z</time>
      </trkpt>
      <trkpt lat="43.12132" lon="3.0497">
        <ele>48</ele>
        <time>2026-02-22T13:15:32Z</time>
      </trkpt>
      <trkpt lat="43.12137" lon="3.04966">
        <ele>48</ele>
        <time>2026-02-22T13:15:34Z</time>
      </trkpt>
      <trkpt lat="43.12143" lon="3.04962">
        <ele>47</ele>
        <time>2026-02-22T13:15:36Z</time>
      </trkpt>
      <trkpt lat="43.12148" lon="3.04957">
        <ele>48</ele>
        <time>2026-02-22T13:15:38Z</time>
      </trkpt>
      <trkpt lat="43.12153" lon="3.04953">
        <ele>47</ele>
        <time>2026-02-22T13:15:40Z</time>
      </trkpt>
      <trkpt lat="43.12158" lon="3.04948">
        <ele>47</ele>
        <time>2026-02-22T13:15:42Z</time>
      </trkpt>
      <trkpt lat="43.12163" lon="3.04944">
        <ele>47</ele>
        <time>2026-02-22T13:15:44Z</time>
      </trkpt>
      <trkpt lat="43.12168" lon="3.0494">
        <ele>47</ele>
        <time>2026-02-22T13:15:46Z</time>
      </trkpt>
      <trkpt lat="43.12173" lon="3.04935">
        <ele>47</ele>
        <time>2026-02-22T13:15:48Z</time>
      </trkpt>
      <trkpt lat="43.12178" lon="3.04931">
        <ele>48</ele>
        <time>2026-02-22T13:15:50Z</time>
      </trkpt>
      <trkpt lat="43.12183" lon="3.04926">
        <ele>48</ele>
        <time>2026-02-22T13:15:52Z</time>
      </trkpt>
      <trkpt lat="43.12188" lon="3.04922">
        <ele>48</ele>
        <time>2026-02-22T13:15:54Z</time>
      </trkpt>
      <trkpt lat="43.12193" lon="3.04918">
        <ele>48</ele>
        <time>2026-02-22T13:15:56Z</time>
      </trkpt>
      <trkpt lat="43.12197" lon="3.04915">
        <ele>48</ele>
        <time>2026-02-22T13:15:58Z</time>
      </trkpt>
      <trkpt lat="43.12202" lon="3.04911">
        <ele>48</ele>
        <time>2026-02-22T13:16:00Z</time>
      </trkpt>
      <trkpt lat="43.12207" lon="3.04906">
        <ele>48</ele>
        <time>2026-02-22T13:16:02Z</time>
      </trkpt>
      <trkpt lat="43.12212" lon="3.04902">
        <ele>48</ele>
        <time>2026-02-22T13:16:04Z</time>
      </trkpt>
      <trkpt lat="43.12217" lon="3.04898">
        <ele>48</ele>
        <time>2026-02-22T13:16:06Z</time>
      </trkpt>
      <trkpt lat="43.12222" lon="3.04894">
        <ele>48</ele>
        <time>2026-02-22T13:16:08Z</time>
      </trkpt>
      <trkpt lat="43.12226" lon="3.0489">
        <ele>47</ele>
        <time>2026-02-22T13:16:10Z</time>
      </trkpt>
      <trkpt lat="43.12231" lon="3.04885">
        <ele>47</ele>
        <time>2026-02-22T13:16:12Z</time>
      </trkpt>
      <trkpt lat="43.12236" lon="3.04881">
        <ele>47</ele>
        <time>2026-02-22T13:16:14Z</time>
      </trkpt>
      <trkpt lat="43.12241" lon="3.04877">
        <ele>47</ele>
        <time>2026-02-22T13:16:16Z</time>
      </trkpt>
      <trkpt lat="43.12246" lon="3.04872">
        <ele>48</ele>
        <time>2026-02-22T13:16:18Z</time>
      </trkpt>
      <trkpt lat="43.12251" lon="3.04868">
        <ele>47</ele>
        <time>2026-02-22T13:16:20Z</time>
      </trkpt>
      <trkpt lat="43.12256" lon="3.04864">
        <ele>48</ele>
        <time>2026-02-22T13:16:22Z</time>
      </trkpt>
      <trkpt lat="43.1226" lon="3.04859">
        <ele>48</ele>
        <time>2026-02-22T13:16:24Z</time>
      </trkpt>
      <trkpt lat="43.12265" lon="3.04855">
        <ele>48</ele>
        <time>2026-02-22T13:16:26Z</time>
      </trkpt>
      <trkpt lat="43.1227" lon="3.04851">
        <ele>48</ele>
        <time>2026-02-22T13:16:28Z</time>
      </trkpt>
      <trkpt lat="43.12275" lon="3.04847">
        <ele>48</ele>
        <time>2026-02-22T13:16:30Z</time>
      </trkpt>
      <trkpt lat="43.12279" lon="3.04842">
        <ele>49</ele>
        <time>2026-02-22T13:16:32Z</time>
      </trkpt>
      <trkpt lat="43.12284" lon="3.04838">
        <ele>49</ele>
        <time>2026-02-22T13:16:34Z</time>
      </trkpt>
      <trkpt lat="43.12289" lon="3.04834">
        <ele>49</ele>
        <time>2026-02-22T13:16:36Z</time>
      </trkpt>
      <trkpt lat="43.12294" lon="3.04829">
        <ele>49</ele>
        <time>2026-02-22T13:16:38Z</time>
      </trkpt>
      <trkpt lat="43.12299" lon="3.04825">
        <ele>48</ele>
        <time>2026-02-22T13:16:40Z</time>
      </trkpt>
      <trkpt lat="43.12304" lon="3.04821">
        <ele>47</ele>
        <time>2026-02-22T13:16:42Z</time>
      </trkpt>
      <trkpt lat="43.12308" lon="3.04817">
        <ele>47</ele>
        <time>2026-02-22T13:16:44Z</time>
      </trkpt>
      <trkpt lat="43.12313" lon="3.04812">
        <ele>47</ele>
        <time>2026-02-22T13:16:46Z</time>
      </trkpt>
      <trkpt lat="43.12318" lon="3.04808">
        <ele>47</ele>
        <time>2026-02-22T13:16:48Z</time>
      </trkpt>
      <trkpt lat="43.12323" lon="3.04804">
        <ele>48</ele>
        <time>2026-02-22T13:16:50Z</time>
      </trkpt>
      <trkpt lat="43.12328" lon="3.04799">
        <ele>48</ele>
        <time>2026-02-22T13:16:52Z</time>
      </trkpt>
      <trkpt lat="43.12333" lon="3.04795">
        <ele>48</ele>
        <time>2026-02-22T13:16:54Z</time>
      </trkpt>
      <trkpt lat="43.12338" lon="3.0479">
        <ele>48</ele>
        <time>2026-02-22T13:16:56Z</time>
      </trkpt>
      <trkpt lat="43.12343" lon="3.04786">
        <ele>48</ele>
        <time>2026-02-22T13:16:58Z</time>
      </trkpt>
      <trkpt lat="43.12348" lon="3.04782">
        <ele>48</ele>
        <time>2026-02-22T13:17:00Z</time>
      </trkpt>
      <trkpt lat="43.12353" lon="3.04778">
        <ele>48</ele>
        <time>2026-02-22T13:17:02Z</time>
      </trkpt>
      <trkpt lat="43.12358" lon="3.04774">
        <ele>48</ele>
        <time>2026-02-22T13:17:04Z</time>
      </trkpt>
      <trkpt lat="43.12363" lon="3.0477">
        <ele>48</ele>
        <time>2026-02-22T13:17:06Z</time>
      </trkpt>
      <trkpt lat="43.12368" lon="3.04766">
        <ele>48</ele>
        <time>2026-02-22T13:17:08Z</time>
      </trkpt>
      <trkpt lat="43.12372" lon="3.04762">
        <ele>48</ele>
        <time>2026-02-22T13:17:10Z</time>
      </trkpt>
      <trkpt lat="43.12378" lon="3.04758">
        <ele>48</ele>
        <time>2026-02-22T13:17:12Z</time>
      </trkpt>
      <trkpt lat="43.12383" lon="3.04754">
        <ele>48</ele>
        <time>2026-02-22T13:17:14Z</time>
      </trkpt>
      <trkpt lat="43.12387" lon="3.0475">
        <ele>48</ele>
        <time>2026-02-22T13:17:16Z</time>
      </trkpt>
      <trkpt lat="43.12392" lon="3.04746">
        <ele>48</ele>
        <time>2026-02-22T13:17:18Z</time>
      </trkpt>
      <trkpt lat="43.12396" lon="3.04743">
        <ele>48</ele>
        <time>2026-02-22T13:17:20Z</time>
      </trkpt>
      <trkpt lat="43.124" lon="3.0474">
        <ele>47</ele>
        <time>2026-02-22T13:17:22Z</time>
      </trkpt>
      <trkpt lat="43.12403" lon="3.04737">
        <ele>47</ele>
        <time>2026-02-22T13:17:24Z</time>
      </trkpt>
      <trkpt lat="43.12408" lon="3.04734">
        <ele>46</ele>
        <time>2026-02-22T13:17:26Z</time>
      </trkpt>
      <trkpt lat="43.12413" lon="3.0473">
        <ele>45</ele>
        <time>2026-02-22T13:17:28Z</time>
      </trkpt>
      <trkpt lat="43.12418" lon="3.04727">
        <ele>46</ele>
        <time>2026-02-22T13:17:30Z</time>
      </trkpt>
      <trkpt lat="43.12423" lon="3.04724">
        <ele>46</ele>
        <time>2026-02-22T13:17:32Z</time>
      </trkpt>
      <trkpt lat="43.12428" lon="3.0472">
        <ele>46</ele>
        <time>2026-02-22T13:17:34Z</time>
      </trkpt>
      <trkpt lat="43.12433" lon="3.04716">
        <ele>46</ele>
        <time>2026-02-22T13:17:36Z</time>
      </trkpt>
      <trkpt lat="43.12438" lon="3.04712">
        <ele>46</ele>
        <time>2026-02-22T13:17:38Z</time>
      </trkpt>
      <trkpt lat="43.12444" lon="3.0471">
        <ele>46</ele>
        <time>2026-02-22T13:17:40Z</time>
      </trkpt>
      <trkpt lat="43.12449" lon="3.04707">
        <ele>47</ele>
        <time>2026-02-22T13:17:42Z</time>
      </trkpt>
      <trkpt lat="43.12454" lon="3.04704">
        <ele>47</ele>
        <time>2026-02-22T13:17:44Z</time>
      </trkpt>
      <trkpt lat="43.12459" lon="3.04701">
        <ele>47</ele>
        <time>2026-02-22T13:17:46Z</time>
      </trkpt>
      <trkpt lat="43.12465" lon="3.04699">
        <ele>47</ele>
        <time>2026-02-22T13:17:48Z</time>
      </trkpt>
      <trkpt lat="43.12471" lon="3.04697">
        <ele>47</ele>
        <time>2026-02-22T13:17:50Z</time>
      </trkpt>
      <trkpt lat="43.12477" lon="3.04696">
        <ele>47</ele>
        <time>2026-02-22T13:17:52Z</time>
      </trkpt>
      <trkpt lat="43.12483" lon="3.04696">
        <ele>47</ele>
        <time>2026-02-22T13:17:54Z</time>
      </trkpt>
      <trkpt lat="43.12489" lon="3.04695">
        <ele>48</ele>
        <time>2026-02-22T13:17:56Z</time>
      </trkpt>
      <trkpt lat="43.12496" lon="3.04696">
        <ele>48</ele>
        <time>2026-02-22T13:17:58Z</time>
      </trkpt>
      <trkpt lat="43.12502" lon="3.04696">
        <ele>48</ele>
        <time>2026-02-22T13:18:00Z</time>
      </trkpt>
      <trkpt lat="43.12508" lon="3.04696">
        <ele>48</ele>
        <time>2026-02-22T13:18:02Z</time>
      </trkpt>
      <trkpt lat="43.12515" lon="3.04695">
        <ele>48</ele>
        <time>2026-02-22T13:18:04Z</time>
      </trkpt>
      <trkpt lat="43.12521" lon="3.04695">
        <ele>48</ele>
        <time>2026-02-22T13:18:06Z</time>
      </trkpt>
      <trkpt lat="43.12528" lon="3.04695">
        <ele>49</ele>
        <time>2026-02-22T13:18:08Z</time>
      </trkpt>
      <trkpt lat="43.12534" lon="3.04695">
        <ele>49</ele>
        <time>2026-02-22T13:18:10Z</time>
      </trkpt>
      <trkpt lat="43.12541" lon="3.04694">
        <ele>49</ele>
        <time>2026-02-22T13:18:12Z</time>
      </trkpt>
      <trkpt lat="43.12548" lon="3.04693">
        <ele>49</ele>
        <time>2026-02-22T13:18:14Z</time>
      </trkpt>
      <trkpt lat="43.12555" lon="3.04693">
        <ele>49</ele>
        <time>2026-02-22T13:18:16Z</time>
      </trkpt>
      <trkpt lat="43.12562" lon="3.04692">
        <ele>49</ele>
        <time>2026-02-22T13:18:18Z</time>
      </trkpt>
      <trkpt lat="43.12569" lon="3.04691">
        <ele>49</ele>
        <time>2026-02-22T13:18:20Z</time>
      </trkpt>
      <trkpt lat="43.12577" lon="3.04691">
        <ele>50</ele>
        <time>2026-02-22T13:18:22Z</time>
      </trkpt>
      <trkpt lat="43.12584" lon="3.0469">
        <ele>50</ele>
        <time>2026-02-22T13:18:24Z</time>
      </trkpt>
      <trkpt lat="43.12591" lon="3.0469">
        <ele>50</ele>
        <time>2026-02-22T13:18:26Z</time>
      </trkpt>
      <trkpt lat="43.12598" lon="3.0469">
        <ele>50</ele>
        <time>2026-02-22T13:18:28Z</time>
      </trkpt>
      <trkpt lat="43.12605" lon="3.04689">
        <ele>50</ele>
        <time>2026-02-22T13:18:30Z</time>
      </trkpt>
      <trkpt lat="43.12612" lon="3.0469">
        <ele>50</ele>
        <time>2026-02-22T13:18:32Z</time>
      </trkpt>
      <trkpt lat="43.12619" lon="3.0469">
        <ele>49</ele>
        <time>2026-02-22T13:18:34Z</time>
      </trkpt>
      <trkpt lat="43.12626" lon="3.0469">
        <ele>49</ele>
        <time>2026-02-22T13:18:36Z</time>
      </trkpt>
      <trkpt lat="43.12634" lon="3.04689">
        <ele>49</ele>
        <time>2026-02-22T13:18:38Z</time>
      </trkpt>
      <trkpt lat="43.12641" lon="3.04689">
        <ele>49</ele>
        <time>2026-02-22T13:18:40Z</time>
      </trkpt>
      <trkpt lat="43.12647" lon="3.04689">
        <ele>49</ele>
        <time>2026-02-22T13:18:42Z</time>
      </trkpt>
      <trkpt lat="43.12654" lon="3.0469">
        <ele>49</ele>
        <time>2026-02-22T13:18:44Z</time>
      </trkpt>
      <trkpt lat="43.1266" lon="3.0469">
        <ele>49</ele>
        <time>2026-02-22T13:18:46Z</time>
      </trkpt>
      <trkpt lat="43.12666" lon="3.0469">
        <ele>49</ele>
        <time>2026-02-22T13:18:48Z</time>
      </trkpt>
      <trkpt lat="43.12673" lon="3.04689">
        <ele>49</ele>
        <time>2026-02-22T13:18:50Z</time>
      </trkpt>
      <trkpt lat="43.1268" lon="3.04689">
        <ele>49</ele>
        <time>2026-02-22T13:18:52Z</time>
      </trkpt>
      <trkpt lat="43.12686" lon="3.04689">
        <ele>49</ele>
        <time>2026-02-22T13:18:54Z</time>
      </trkpt>
      <trkpt lat="43.12693" lon="3.04689">
        <ele>49</ele>
        <time>2026-02-22T13:18:56Z</time>
      </trkpt>
      <trkpt lat="43.127" lon="3.04689">
        <ele>49</ele>
        <time>2026-02-22T13:18:58Z</time>
      </trkpt>
      <trkpt lat="43.12707" lon="3.04688">
        <ele>48</ele>
        <time>2026-02-22T13:19:00Z</time>
      </trkpt>
      <trkpt lat="43.12714" lon="3.04688">
        <ele>49</ele>
        <time>2026-02-22T13:19:02Z</time>
      </trkpt>
      <trkpt lat="43.12721" lon="3.04688">
        <ele>49</ele>
        <time>2026-02-22T13:19:04Z</time>
      </trkpt>
      <trkpt lat="43.12727" lon="3.04688">
        <ele>48</ele>
        <time>2026-02-22T13:19:06Z</time>
      </trkpt>
      <trkpt lat="43.12734" lon="3.04688">
        <ele>48</ele>
        <time>2026-02-22T13:19:08Z</time>
      </trkpt>
      <trkpt lat="43.12741" lon="3.04687">
        <ele>48</ele>
        <time>2026-02-22T13:19:10Z</time>
      </trkpt>
      <trkpt lat="43.12748" lon="3.04687">
        <ele>48</ele>
        <time>2026-02-22T13:19:12Z</time>
      </trkpt>
      <trkpt lat="43.12755" lon="3.04687">
        <ele>48</ele>
        <time>2026-02-22T13:19:14Z</time>
      </trkpt>
      <trkpt lat="43.12761" lon="3.04687">
        <ele>48</ele>
        <time>2026-02-22T13:19:16Z</time>
      </trkpt>
      <trkpt lat="43.12768" lon="3.04687">
        <ele>48</ele>
        <time>2026-02-22T13:19:18Z</time>
      </trkpt>
      <trkpt lat="43.12774" lon="3.04686">
        <ele>48</ele>
        <time>2026-02-22T13:19:20Z</time>
      </trkpt>
      <trkpt lat="43.12781" lon="3.04686">
        <ele>48</ele>
        <time>2026-02-22T13:19:22Z</time>
      </trkpt>
      <trkpt lat="43.12787" lon="3.04686">
        <ele>48</ele>
        <time>2026-02-22T13:19:24Z</time>
      </trkpt>
      <trkpt lat="43.12794" lon="3.04686">
        <ele>48</ele>
        <time>2026-02-22T13:19:26Z</time>
      </trkpt>
      <trkpt lat="43.128" lon="3.04685">
        <ele>49</ele>
        <time>2026-02-22T13:19:28Z</time>
      </trkpt>
      <trkpt lat="43.12807" lon="3.04685">
        <ele>49</ele>
        <time>2026-02-22T13:19:30Z</time>
      </trkpt>
      <trkpt lat="43.12813" lon="3.04685">
        <ele>48</ele>
        <time>2026-02-22T13:19:32Z</time>
      </trkpt>
      <trkpt lat="43.12819" lon="3.04685">
        <ele>48</ele>
        <time>2026-02-22T13:19:34Z</time>
      </trkpt>
      <trkpt lat="43.12825" lon="3.04686">
        <ele>48</ele>
        <time>2026-02-22T13:19:36Z</time>
      </trkpt>
      <trkpt lat="43.12831" lon="3.04686">
        <ele>49</ele>
        <time>2026-02-22T13:19:38Z</time>
      </trkpt>
      <trkpt lat="43.12837" lon="3.04686">
        <ele>49</ele>
        <time>2026-02-22T13:19:40Z</time>
      </trkpt>
      <trkpt lat="43.12843" lon="3.04687">
        <ele>49</ele>
        <time>2026-02-22T13:19:42Z</time>
      </trkpt>
      <trkpt lat="43.1285" lon="3.04687">
        <ele>49</ele>
        <time>2026-02-22T13:19:44Z</time>
      </trkpt>
      <trkpt lat="43.12856" lon="3.04687">
        <ele>50</ele>
        <time>2026-02-22T13:19:46Z</time>
      </trkpt>
      <trkpt lat="43.12862" lon="3.04688">
        <ele>50</ele>
        <time>2026-02-22T13:19:48Z</time>
      </trkpt>
      <trkpt lat="43.12868" lon="3.0469">
        <ele>50</ele>
        <time>2026-02-22T13:19:50Z</time>
      </trkpt>
      <trkpt lat="43.12874" lon="3.04691">
        <ele>50</ele>
        <time>2026-02-22T13:19:52Z</time>
      </trkpt>
      <trkpt lat="43.12878" lon="3.04688">
        <ele>51</ele>
        <time>2026-02-22T13:19:54Z</time>
      </trkpt>
      <trkpt lat="43.1288" lon="3.04685">
        <ele>52</ele>
        <time>2026-02-22T13:19:56Z</time>
      </trkpt>
      <trkpt lat="43.12881" lon="3.0468">
        <ele>52</ele>
        <time>2026-02-22T13:19:58Z</time>
      </trkpt>
      <trkpt lat="43.12881" lon="3.04677">
        <ele>52</ele>
        <time>2026-02-22T13:20:00Z</time>
      </trkpt>
      <trkpt lat="43.12882" lon="3.04674">
        <ele>52</ele>
        <time>2026-02-22T13:20:02Z</time>
      </trkpt>
      <trkpt lat="43.12882" lon="3.04672">
        <ele>52</ele>
        <time>2026-02-22T13:20:04Z</time>
      </trkpt>
      <trkpt lat="43.12883" lon="3.04671">
        <ele>52</ele>
        <time>2026-02-22T13:20:06Z</time>
      </trkpt>
      <trkpt lat="43.12882" lon="3.04671">
        <ele>52</ele>
        <time>2026-02-22T13:20:08Z</time>
      </trkpt>
      <trkpt lat="43.12882" lon="3.0467">
        <ele>52</ele>
        <time>2026-02-22T13:20:10Z</time>
      </trkpt>
      <trkpt lat="43.12883" lon="3.0467">
        <ele>52</ele>
        <time>2026-02-22T13:20:12Z</time>
      </trkpt>
      <trkpt lat="43.12883" lon="3.04669">
        <ele>51</ele>
        <time>2026-02-22T13:20:14Z</time>
      </trkpt>
      <trkpt lat="43.12883" lon="3.04669">
        <ele>51</ele>
        <time>2026-02-22T13:20:16Z</time>
      </trkpt>
      <trkpt lat="43.12883" lon="3.04669">
        <ele>51</ele>
        <time>2026-02-22T13:20:18Z</time>
      </trkpt>
      <trkpt lat="43.12883" lon="3.04669">
        <ele>51</ele>
        <time>2026-02-22T13:20:20Z</time>
      </trkpt>
      <trkpt lat="43.12883" lon="3.04666">
        <ele>51</ele>
        <time>2026-02-22T13:20:22Z</time>
      </trkpt>
      <trkpt lat="43.12883" lon="3.04665">
        <ele>51</ele>
        <time>2026-02-22T13:20:24Z</time>
      </trkpt>
      <trkpt lat="43.12883" lon="3.04662">
        <ele>50</ele>
        <time>2026-02-22T13:20:26Z</time>
      </trkpt>
      <trkpt lat="43.12884" lon="3.04661">
        <ele>50</ele>
        <time>2026-02-22T13:20:28Z</time>
      </trkpt>
      <trkpt lat="43.12884" lon="3.0466">
        <ele>50</ele>
        <time>2026-02-22T13:20:30Z</time>
      </trkpt>
      <trkpt lat="43.12884" lon="3.0466">
        <ele>50</ele>
        <time>2026-02-22T13:20:32Z</time>
      </trkpt>
      <trkpt lat="43.12883" lon="3.04661">
        <ele>50</ele>
        <time>2026-02-22T13:20:34Z</time>
      </trkpt>
      <trkpt lat="43.12883" lon="3.04661">
        <ele>50</ele>
        <time>2026-02-22T13:20:36Z</time>
      </trkpt>
      <trkpt lat="43.12883" lon="3.04661">
        <ele>50</ele>
        <time>2026-02-22T13:20:38Z</time>
      </trkpt>
      <trkpt lat="43.12883" lon="3.04661">
        <ele>50</ele>
        <time>2026-02-22T13:20:40Z</time>
      </trkpt>
      <trkpt lat="43.12883" lon="3.04661">
        <ele>50</ele>
        <time>2026-02-22T13:20:42Z</time>
      </trkpt>
      <trkpt lat="43.12883" lon="3.04661">
        <ele>50</ele>
        <time>2026-02-22T13:20:44Z</time>
      </trkpt>
      <trkpt lat="43.12883" lon="3.04661">
        <ele>50</ele>
        <time>2026-02-22T13:20:46Z</time>
      </trkpt>
      <trkpt lat="43.12883" lon="3.04661">
        <ele>50</ele>
        <time>2026-02-22T13:20:48Z</time>
      </trkpt>
      <trkpt lat="43.12883" lon="3.04661">
        <ele>50</ele>
        <time>2026-02-22T13:20:50Z</time>
      </trkpt>
      <trkpt lat="43.12883" lon="3.04661">
        <ele>50</ele>
        <time>2026-02-22T13:20:52Z</time>
      </trkpt>
      <trkpt lat="43.12883" lon="3.04661">
        <ele>50</ele>
        <time>2026-02-22T13:20:54Z</time>
      </trkpt>
      <trkpt lat="43.12883" lon="3.04661">
        <ele>50</ele>
        <time>2026-02-22T13:20:56Z</time>
      </trkpt>
      <trkpt lat="43.12883" lon="3.04661">
        <ele>50</ele>
        <time>2026-02-22T13:20:58Z</time>
      </trkpt>
      <trkpt lat="43.12883" lon="3.04661">
        <ele>50</ele>
        <time>2026-02-22T13:21:00Z</time>
      </trkpt>
      <trkpt lat="43.12883" lon="3.04661">
        <ele>50</ele>
        <time>2026-02-22T13:21:02Z</time>
      </trkpt>
      <trkpt lat="43.12883" lon="3.04661">
        <ele>50</ele>
        <time>2026-02-22T13:21:04Z</time>
      </trkpt>
      <trkpt lat="43.12883" lon="3.04661">
        <ele>50</ele>
        <time>2026-02-22T13:21:06Z</time>
      </trkpt>
      <trkpt lat="43.12883" lon="3.04661">
        <ele>50</ele>
        <time>2026-02-22T13:21:08Z</time>
      </trkpt>
      <trkpt lat="43.12883" lon="3.04661">
        <ele>50</ele>
        <time>2026-02-22T13:21:10Z</time>
      </trkpt>
      <trkpt lat="43.12883" lon="3.04661">
        <ele>50</ele>
        <time>2026-02-22T13:21:12Z</time>
      </trkpt>
      <trkpt lat="43.12883" lon="3.04661">
        <ele>50</ele>
        <time>2026-02-22T13:26:08Z</time>
      </trkpt>
      <trkpt lat="43.12883" lon="3.04661">
        <ele>50</ele>
        <time>2026-02-22T13:26:10Z</time>
      </trkpt>
      <trkpt lat="43.12883" lon="3.04661">
        <ele>50</ele>
        <time>2026-02-22T13:26:12Z</time>
      </trkpt>
      <trkpt lat="43.12883" lon="3.04661">
        <ele>50</ele>
        <time>2026-02-22T13:26:14Z</time>
      </trkpt>
      <trkpt lat="43.12883" lon="3.04661">
        <ele>50</ele>
        <time>2026-02-22T13:26:16Z</time>
      </trkpt>
      <trkpt lat="43.12883" lon="3.04661">
        <ele>50</ele>
        <time>2026-02-22T13:26:18Z</time>
      </trkpt>
      <trkpt lat="43.12883" lon="3.04661">
        <ele>50</ele>
        <time>2026-02-22T13:26:20Z</time>
      </trkpt>
      <trkpt lat="43.12883" lon="3.04661">
        <ele>50</ele>
        <time>2026-02-22T13:26:22Z</time>
      </trkpt>
      <trkpt lat="43.12883" lon="3.04661">
        <ele>50</ele>
        <time>2026-02-22T13:26:24Z</time>
      </trkpt>
      <trkpt lat="43.12883" lon="3.04661">
        <ele>50</ele>
        <time>2026-02-22T13:26:26Z</time>
      </trkpt>
      <trkpt lat="43.12884" lon="3.04651">
        <ele>50</ele>
        <time>2026-02-22T13:26:28Z</time>
      </trkpt>
      <trkpt lat="43.12886" lon="3.04642">
        <ele>50</ele>
        <time>2026-02-22T13:26:30Z</time>
      </trkpt>
      <trkpt lat="43.12887" lon="3.04632">
        <ele>50</ele>
        <time>2026-02-22T13:26:32Z</time>
      </trkpt>
      <trkpt lat="43.12888" lon="3.04621">
        <ele>50</ele>
        <time>2026-02-22T13:26:34Z</time>
      </trkpt>
      <trkpt lat="43.1289" lon="3.0461">
        <ele>50</ele>
        <time>2026-02-22T13:26:36Z</time>
      </trkpt>
      <trkpt lat="43.12892" lon="3.04599">
        <ele>50</ele>
        <time>2026-02-22T13:26:38Z</time>
      </trkpt>
      <trkpt lat="43.12893" lon="3.04588">
        <ele>50</ele>
        <time>2026-02-22T13:26:40Z</time>
      </trkpt>
      <trkpt lat="43.12895" lon="3.04577">
        <ele>50</ele>
        <time>2026-02-22T13:26:42Z</time>
      </trkpt>
      <trkpt lat="43.12896" lon="3.04566">
        <ele>50</ele>
        <time>2026-02-22T13:26:44Z</time>
      </trkpt>
      <trkpt lat="43.12898" lon="3.04555">
        <ele>50</ele>
        <time>2026-02-22T13:26:46Z</time>
      </trkpt>
      <trkpt lat="43.12899" lon="3.04544">
        <ele>51</ele>
        <time>2026-02-22T13:26:48Z</time>
      </trkpt>
      <trkpt lat="43.12901" lon="3.04533">
        <ele>51</ele>
        <time>2026-02-22T13:26:50Z</time>
      </trkpt>
      <trkpt lat="43.12902" lon="3.04522">
        <ele>51</ele>
        <time>2026-02-22T13:26:52Z</time>
      </trkpt>
      <trkpt lat="43.12904" lon="3.04511">
        <ele>51</ele>
        <time>2026-02-22T13:26:54Z</time>
      </trkpt>
      <trkpt lat="43.12906" lon="3.045">
        <ele>51</ele>
        <time>2026-02-22T13:26:56Z</time>
      </trkpt>
      <trkpt lat="43.12907" lon="3.04489">
        <ele>51</ele>
        <time>2026-02-22T13:26:58Z</time>
      </trkpt>
      <trkpt lat="43.12909" lon="3.04478">
        <ele>51</ele>
        <time>2026-02-22T13:27:00Z</time>
      </trkpt>
      <trkpt lat="43.1291" lon="3.04467">
        <ele>51</ele>
        <time>2026-02-22T13:27:02Z</time>
      </trkpt>
      <trkpt lat="43.12912" lon="3.04456">
        <ele>50</ele>
        <time>2026-02-22T13:27:04Z</time>
      </trkpt>
      <trkpt lat="43.12914" lon="3.04445">
        <ele>50</ele>
        <time>2026-02-22T13:27:06Z</time>
      </trkpt>
      <trkpt lat="43.12915" lon="3.04434">
        <ele>50</ele>
        <time>2026-02-22T13:27:08Z</time>
      </trkpt>
      <trkpt lat="43.12917" lon="3.04423">
        <ele>50</ele>
        <time>2026-02-22T13:27:10Z</time>
      </trkpt>
      <trkpt lat="43.12918" lon="3.04412">
        <ele>50</ele>
        <time>2026-02-22T13:27:12Z</time>
      </trkpt>
      <trkpt lat="43.1292" lon="3.04401">
        <ele>50</ele>
        <time>2026-02-22T13:27:14Z</time>
      </trkpt>
      <trkpt lat="43.12921" lon="3.0439">
        <ele>51</ele>
        <time>2026-02-22T13:27:16Z</time>
      </trkpt>
      <trkpt lat="43.12923" lon="3.04379">
        <ele>51</ele>
        <time>2026-02-22T13:27:18Z</time>
      </trkpt>
      <trkpt lat="43.12924" lon="3.04368">
        <ele>51</ele>
        <time>2026-02-22T13:27:20Z</time>
      </trkpt>
      <trkpt lat="43.12926" lon="3.04357">
        <ele>51</ele>
        <time>2026-02-22T13:27:22Z</time>
      </trkpt>
      <trkpt lat="43.12928" lon="3.04346">
        <ele>51</ele>
        <time>2026-02-22T13:27:24Z</time>
      </trkpt>
      <trkpt lat="43.12929" lon="3.04336">
        <ele>50</ele>
        <time>2026-02-22T13:27:26Z</time>
      </trkpt>
      <trkpt lat="43.1293" lon="3.04325">
        <ele>50</ele>
        <time>2026-02-22T13:27:28Z</time>
      </trkpt>
      <trkpt lat="43.12932" lon="3.04315">
        <ele>51</ele>
        <time>2026-02-22T13:27:30Z</time>
      </trkpt>
      <trkpt lat="43.12933" lon="3.04304">
        <ele>51</ele>
        <time>2026-02-22T13:27:32Z</time>
      </trkpt>
      <trkpt lat="43.12934" lon="3.04293">
        <ele>51</ele>
        <time>2026-02-22T13:27:34Z</time>
      </trkpt>
      <trkpt lat="43.12936" lon="3.04282">
        <ele>50</ele>
        <time>2026-02-22T13:27:36Z</time>
      </trkpt>
      <trkpt lat="43.12937" lon="3.04271">
        <ele>50</ele>
        <time>2026-02-22T13:27:38Z</time>
      </trkpt>
      <trkpt lat="43.12939" lon="3.0426">
        <ele>50</ele>
        <time>2026-02-22T13:27:40Z</time>
      </trkpt>
      <trkpt lat="43.1294" lon="3.0425">
        <ele>50</ele>
        <time>2026-02-22T13:27:42Z</time>
      </trkpt>
      <trkpt lat="43.12941" lon="3.04239">
        <ele>50</ele>
        <time>2026-02-22T13:27:44Z</time>
      </trkpt>
      <trkpt lat="43.12943" lon="3.04228">
        <ele>50</ele>
        <time>2026-02-22T13:27:46Z</time>
      </trkpt>
      <trkpt lat="43.12944" lon="3.04218">
        <ele>50</ele>
        <time>2026-02-22T13:27:48Z</time>
      </trkpt>
      <trkpt lat="43.12945" lon="3.04207">
        <ele>50</ele>
        <time>2026-02-22T13:27:50Z</time>
      </trkpt>
      <trkpt lat="43.12947" lon="3.04197">
        <ele>50</ele>
        <time>2026-02-22T13:27:52Z</time>
      </trkpt>
      <trkpt lat="43.12948" lon="3.04187">
        <ele>50</ele>
        <time>2026-02-22T13:27:54Z</time>
      </trkpt>
      <trkpt lat="43.12949" lon="3.04176">
        <ele>50</ele>
        <time>2026-02-22T13:27:56Z</time>
      </trkpt>
      <trkpt lat="43.12951" lon="3.04166">
        <ele>50</ele>
        <time>2026-02-22T13:27:58Z</time>
      </trkpt>
      <trkpt lat="43.12952" lon="3.04155">
        <ele>50</ele>
        <time>2026-02-22T13:28:00Z</time>
      </trkpt>
      <trkpt lat="43.12953" lon="3.04144">
        <ele>50</ele>
        <time>2026-02-22T13:28:02Z</time>
      </trkpt>
      <trkpt lat="43.12955" lon="3.04133">
        <ele>51</ele>
        <time>2026-02-22T13:28:04Z</time>
      </trkpt>
      <trkpt lat="43.12956" lon="3.04123">
        <ele>50</ele>
        <time>2026-02-22T13:28:06Z</time>
      </trkpt>
      <trkpt lat="43.12957" lon="3.04112">
        <ele>50</ele>
        <time>2026-02-22T13:28:08Z</time>
      </trkpt>
      <trkpt lat="43.12959" lon="3.04101">
        <ele>50</ele>
        <time>2026-02-22T13:28:10Z</time>
      </trkpt>
      <trkpt lat="43.1296" lon="3.04091">
        <ele>50</ele>
        <time>2026-02-22T13:28:12Z</time>
      </trkpt>
      <trkpt lat="43.12962" lon="3.04081">
        <ele>50</ele>
        <time>2026-02-22T13:28:14Z</time>
      </trkpt>
      <trkpt lat="43.12963" lon="3.0407">
        <ele>49</ele>
        <time>2026-02-22T13:28:16Z</time>
      </trkpt>
      <trkpt lat="43.12964" lon="3.04059">
        <ele>49</ele>
        <time>2026-02-22T13:28:18Z</time>
      </trkpt>
      <trkpt lat="43.12965" lon="3.04049">
        <ele>48</ele>
        <time>2026-02-22T13:28:20Z</time>
      </trkpt>
      <trkpt lat="43.12967" lon="3.04038">
        <ele>48</ele>
        <time>2026-02-22T13:28:22Z</time>
      </trkpt>
      <trkpt lat="43.12968" lon="3.04027">
        <ele>48</ele>
        <time>2026-02-22T13:28:24Z</time>
      </trkpt>
      <trkpt lat="43.1297" lon="3.04017">
        <ele>49</ele>
        <time>2026-02-22T13:28:26Z</time>
      </trkpt>
      <trkpt lat="43.12971" lon="3.04006">
        <ele>49</ele>
        <time>2026-02-22T13:28:28Z</time>
      </trkpt>
      <trkpt lat="43.12972" lon="3.03996">
        <ele>49</ele>
        <time>2026-02-22T13:28:30Z</time>
      </trkpt>
      <trkpt lat="43.12973" lon="3.03985">
        <ele>49</ele>
        <time>2026-02-22T13:28:32Z</time>
      </trkpt>
      <trkpt lat="43.12975" lon="3.03975">
        <ele>49</ele>
        <time>2026-02-22T13:28:34Z</time>
      </trkpt>
      <trkpt lat="43.12975" lon="3.03964">
        <ele>49</ele>
        <time>2026-02-22T13:28:36Z</time>
      </trkpt>
      <trkpt lat="43.12977" lon="3.03953">
        <ele>49</ele>
        <time>2026-02-22T13:28:38Z</time>
      </trkpt>
      <trkpt lat="43.12979" lon="3.03943">
        <ele>48</ele>
        <time>2026-02-22T13:28:40Z</time>
      </trkpt>
      <trkpt lat="43.12981" lon="3.03932">
        <ele>48</ele>
        <time>2026-02-22T13:28:42Z</time>
      </trkpt>
      <trkpt lat="43.12982" lon="3.03922">
        <ele>48</ele>
        <time>2026-02-22T13:28:44Z</time>
      </trkpt>
      <trkpt lat="43.12983" lon="3.03912">
        <ele>49</ele>
        <time>2026-02-22T13:28:46Z</time>
      </trkpt>
      <trkpt lat="43.12985" lon="3.03902">
        <ele>49</ele>
        <time>2026-02-22T13:28:48Z</time>
      </trkpt>
      <trkpt lat="43.12986" lon="3.03892">
        <ele>49</ele>
        <time>2026-02-22T13:28:50Z</time>
      </trkpt>
      <trkpt lat="43.12987" lon="3.03881">
        <ele>49</ele>
        <time>2026-02-22T13:28:52Z</time>
      </trkpt>
      <trkpt lat="43.12989" lon="3.03871">
        <ele>49</ele>
        <time>2026-02-22T13:28:54Z</time>
      </trkpt>
      <trkpt lat="43.1299" lon="3.03861">
        <ele>49</ele>
        <time>2026-02-22T13:28:56Z</time>
      </trkpt>
      <trkpt lat="43.12991" lon="3.03851">
        <ele>49</ele>
        <time>2026-02-22T13:28:58Z</time>
      </trkpt>
      <trkpt lat="43.12992" lon="3.0384">
        <ele>49</ele>
        <time>2026-02-22T13:29:00Z</time>
      </trkpt>
      <trkpt lat="43.12994" lon="3.0383">
        <ele>49</ele>
        <time>2026-02-22T13:29:02Z</time>
      </trkpt>
      <trkpt lat="43.12995" lon="3.0382">
        <ele>49</ele>
        <time>2026-02-22T13:29:04Z</time>
      </trkpt>
      <trkpt lat="43.12996" lon="3.0381">
        <ele>49</ele>
        <time>2026-02-22T13:29:06Z</time>
      </trkpt>
      <trkpt lat="43.12998" lon="3.038">
        <ele>49</ele>
        <time>2026-02-22T13:29:08Z</time>
      </trkpt>
      <trkpt lat="43.12999" lon="3.0379">
        <ele>49</ele>
        <time>2026-02-22T13:29:10Z</time>
      </trkpt>
      <trkpt lat="43.13" lon="3.0378">
        <ele>49</ele>
        <time>2026-02-22T13:29:12Z</time>
      </trkpt>
      <trkpt lat="43.13001" lon="3.0377">
        <ele>50</ele>
        <time>2026-02-22T13:29:14Z</time>
      </trkpt>
      <trkpt lat="43.13002" lon="3.0376">
        <ele>50</ele>
        <time>2026-02-22T13:29:16Z</time>
      </trkpt>
      <trkpt lat="43.13003" lon="3.0375">
        <ele>50</ele>
        <time>2026-02-22T13:29:18Z</time>
      </trkpt>
      <trkpt lat="43.13005" lon="3.03741">
        <ele>50</ele>
        <time>2026-02-22T13:29:20Z</time>
      </trkpt>
      <trkpt lat="43.13006" lon="3.03731">
        <ele>50</ele>
        <time>2026-02-22T13:29:22Z</time>
      </trkpt>
      <trkpt lat="43.13008" lon="3.03721">
        <ele>50</ele>
        <time>2026-02-22T13:29:24Z</time>
      </trkpt>
      <trkpt lat="43.13009" lon="3.03711">
        <ele>50</ele>
        <time>2026-02-22T13:29:26Z</time>
      </trkpt>
      <trkpt lat="43.1301" lon="3.03701">
        <ele>50</ele>
        <time>2026-02-22T13:29:28Z</time>
      </trkpt>
      <trkpt lat="43.13012" lon="3.03692">
        <ele>50</ele>
        <time>2026-02-22T13:29:30Z</time>
      </trkpt>
      <trkpt lat="43.13012" lon="3.03682">
        <ele>50</ele>
        <time>2026-02-22T13:29:32Z</time>
      </trkpt>
      <trkpt lat="43.13013" lon="3.03672">
        <ele>50</ele>
        <time>2026-02-22T13:29:34Z</time>
      </trkpt>
      <trkpt lat="43.13015" lon="3.03663">
        <ele>49</ele>
        <time>2026-02-22T13:29:36Z</time>
      </trkpt>
      <trkpt lat="43.13015" lon="3.03653">
        <ele>49</ele>
        <time>2026-02-22T13:29:38Z</time>
      </trkpt>
      <trkpt lat="43.13017" lon="3.03642">
        <ele>48</ele>
        <time>2026-02-22T13:29:40Z</time>
      </trkpt>
      <trkpt lat="43.13018" lon="3.03632">
        <ele>48</ele>
        <time>2026-02-22T13:29:42Z</time>
      </trkpt>
      <trkpt lat="43.13019" lon="3.03622">
        <ele>48</ele>
        <time>2026-02-22T13:29:44Z</time>
      </trkpt>
      <trkpt lat="43.13021" lon="3.03611">
        <ele>48</ele>
        <time>2026-02-22T13:29:46Z</time>
      </trkpt>
      <trkpt lat="43.13022" lon="3.03601">
        <ele>47</ele>
        <time>2026-02-22T13:29:48Z</time>
      </trkpt>
      <trkpt lat="43.13023" lon="3.03591">
        <ele>47</ele>
        <time>2026-02-22T13:29:50Z</time>
      </trkpt>
      <trkpt lat="43.13024" lon="3.0358">
        <ele>47</ele>
        <time>2026-02-22T13:29:52Z</time>
      </trkpt>
      <trkpt lat="43.13025" lon="3.0357">
        <ele>46</ele>
        <time>2026-02-22T13:29:54Z</time>
      </trkpt>
      <trkpt lat="43.13026" lon="3.0356">
        <ele>46</ele>
        <time>2026-02-22T13:29:56Z</time>
      </trkpt>
      <trkpt lat="43.13027" lon="3.0355">
        <ele>46</ele>
        <time>2026-02-22T13:29:58Z</time>
      </trkpt>
      <trkpt lat="43.13029" lon="3.0354">
        <ele>46</ele>
        <time>2026-02-22T13:30:00Z</time>
      </trkpt>
      <trkpt lat="43.1303" lon="3.0353">
        <ele>46</ele>
        <time>2026-02-22T13:30:02Z</time>
      </trkpt>
      <trkpt lat="43.13031" lon="3.03519">
        <ele>46</ele>
        <time>2026-02-22T13:30:04Z</time>
      </trkpt>
      <trkpt lat="43.13032" lon="3.03509">
        <ele>46</ele>
        <time>2026-02-22T13:30:06Z</time>
      </trkpt>
      <trkpt lat="43.13033" lon="3.03498">
        <ele>45</ele>
        <time>2026-02-22T13:30:08Z</time>
      </trkpt>
      <trkpt lat="43.13034" lon="3.03488">
        <ele>46</ele>
        <time>2026-02-22T13:30:10Z</time>
      </trkpt>
      <trkpt lat="43.13035" lon="3.03478">
        <ele>47</ele>
        <time>2026-02-22T13:30:12Z</time>
      </trkpt>
      <trkpt lat="43.13036" lon="3.03469">
        <ele>47</ele>
        <time>2026-02-22T13:30:14Z</time>
      </trkpt>
      <trkpt lat="43.13038" lon="3.03459">
        <ele>47</ele>
        <time>2026-02-22T13:30:16Z</time>
      </trkpt>
      <trkpt lat="43.13039" lon="3.03449">
        <ele>47</ele>
        <time>2026-02-22T13:30:18Z</time>
      </trkpt>
      <trkpt lat="43.1304" lon="3.0344">
        <ele>47</ele>
        <time>2026-02-22T13:30:20Z</time>
      </trkpt>
      <trkpt lat="43.13041" lon="3.0343">
        <ele>47</ele>
        <time>2026-02-22T13:30:22Z</time>
      </trkpt>
      <trkpt lat="43.13042" lon="3.0342">
        <ele>47</ele>
        <time>2026-02-22T13:30:24Z</time>
      </trkpt>
      <trkpt lat="43.13043" lon="3.0341">
        <ele>47</ele>
        <time>2026-02-22T13:30:26Z</time>
      </trkpt>
      <trkpt lat="43.13044" lon="3.03401">
        <ele>47</ele>
        <time>2026-02-22T13:30:28Z</time>
      </trkpt>
      <trkpt lat="43.13046" lon="3.03392">
        <ele>47</ele>
        <time>2026-02-22T13:30:30Z</time>
      </trkpt>
      <trkpt lat="43.13052" lon="3.03389">
        <ele>48</ele>
        <time>2026-02-22T13:30:32Z</time>
      </trkpt>
      <trkpt lat="43.1306" lon="3.0339">
        <ele>48</ele>
        <time>2026-02-22T13:30:34Z</time>
      </trkpt>
      <trkpt lat="43.13068" lon="3.0339">
        <ele>49</ele>
        <time>2026-02-22T13:30:36Z</time>
      </trkpt>
      <trkpt lat="43.13076" lon="3.0339">
        <ele>49</ele>
        <time>2026-02-22T13:30:38Z</time>
      </trkpt>
      <trkpt lat="43.13084" lon="3.03391">
        <ele>48</ele>
        <time>2026-02-22T13:30:40Z</time>
      </trkpt>
      <trkpt lat="43.13092" lon="3.03392">
        <ele>48</ele>
        <time>2026-02-22T13:30:42Z</time>
      </trkpt>
      <trkpt lat="43.131" lon="3.03394">
        <ele>48</ele>
        <time>2026-02-22T13:30:44Z</time>
      </trkpt>
      <trkpt lat="43.13108" lon="3.03395">
        <ele>48</ele>
        <time>2026-02-22T13:30:46Z</time>
      </trkpt>
      <trkpt lat="43.13115" lon="3.03397">
        <ele>49</ele>
        <time>2026-02-22T13:30:48Z</time>
      </trkpt>
      <trkpt lat="43.13123" lon="3.03398">
        <ele>49</ele>
        <time>2026-02-22T13:30:50Z</time>
      </trkpt>
      <trkpt lat="43.1313" lon="3.034">
        <ele>49</ele>
        <time>2026-02-22T13:30:52Z</time>
      </trkpt>
      <trkpt lat="43.13138" lon="3.03402">
        <ele>49</ele>
        <time>2026-02-22T13:30:54Z</time>
      </trkpt>
      <trkpt lat="43.13146" lon="3.03403">
        <ele>49</ele>
        <time>2026-02-22T13:30:56Z</time>
      </trkpt>
      <trkpt lat="43.13153" lon="3.03405">
        <ele>48</ele>
        <time>2026-02-22T13:30:58Z</time>
      </trkpt>
      <trkpt lat="43.13161" lon="3.03406">
        <ele>49</ele>
        <time>2026-02-22T13:31:00Z</time>
      </trkpt>
      <trkpt lat="43.13169" lon="3.03407">
        <ele>49</ele>
        <time>2026-02-22T13:31:02Z</time>
      </trkpt>
      <trkpt lat="43.13177" lon="3.03409">
        <ele>49</ele>
        <time>2026-02-22T13:31:04Z</time>
      </trkpt>
      <trkpt lat="43.13186" lon="3.0341">
        <ele>49</ele>
        <time>2026-02-22T13:31:06Z</time>
      </trkpt>
      <trkpt lat="43.13194" lon="3.0341">
        <ele>49</ele>
        <time>2026-02-22T13:31:08Z</time>
      </trkpt>
      <trkpt lat="43.13202" lon="3.0341">
        <ele>49</ele>
        <time>2026-02-22T13:31:10Z</time>
      </trkpt>
      <trkpt lat="43.1321" lon="3.03409">
        <ele>49</ele>
        <time>2026-02-22T13:31:12Z</time>
      </trkpt>
      <trkpt lat="43.13219" lon="3.03409">
        <ele>50</ele>
        <time>2026-02-22T13:31:14Z</time>
      </trkpt>
      <trkpt lat="43.13227" lon="3.03407">
        <ele>50</ele>
        <time>2026-02-22T13:31:16Z</time>
      </trkpt>
      <trkpt lat="43.13235" lon="3.03406">
        <ele>50</ele>
        <time>2026-02-22T13:31:18Z</time>
      </trkpt>
      <trkpt lat="43.13244" lon="3.03404">
        <ele>50</ele>
        <time>2026-02-22T13:31:20Z</time>
      </trkpt>
      <trkpt lat="43.13252" lon="3.03402">
        <ele>50</ele>
        <time>2026-02-22T13:31:22Z</time>
      </trkpt>
      <trkpt lat="43.1326" lon="3.034">
        <ele>50</ele>
        <time>2026-02-22T13:31:24Z</time>
      </trkpt>
      <trkpt lat="43.13269" lon="3.03397">
        <ele>49</ele>
        <time>2026-02-22T13:31:26Z</time>
      </trkpt>
      <trkpt lat="43.13277" lon="3.03396">
        <ele>48</ele>
        <time>2026-02-22T13:31:28Z</time>
      </trkpt>
      <trkpt lat="43.13284" lon="3.03394">
        <ele>48</ele>
        <time>2026-02-22T13:31:30Z</time>
      </trkpt>
      <trkpt lat="43.13293" lon="3.03391">
        <ele>48</ele>
        <time>2026-02-22T13:31:32Z</time>
      </trkpt>
      <trkpt lat="43.13302" lon="3.03389">
        <ele>48</ele>
        <time>2026-02-22T13:31:34Z</time>
      </trkpt>
      <trkpt lat="43.13311" lon="3.03386">
        <ele>48</ele>
        <time>2026-02-22T13:31:36Z</time>
      </trkpt>
      <trkpt lat="43.1332" lon="3.03383">
        <ele>48</ele>
        <time>2026-02-22T13:31:38Z</time>
      </trkpt>
      <trkpt lat="43.13328" lon="3.03381">
        <ele>48</ele>
        <time>2026-02-22T13:31:40Z</time>
      </trkpt>
      <trkpt lat="43.13336" lon="3.03378">
        <ele>46</ele>
        <time>2026-02-22T13:31:42Z</time>
      </trkpt>
      <trkpt lat="43.13344" lon="3.03375">
        <ele>46</ele>
        <time>2026-02-22T13:31:44Z</time>
      </trkpt>
      <trkpt lat="43.13351" lon="3.03372">
        <ele>45</ele>
        <time>2026-02-22T13:31:46Z</time>
      </trkpt>
      <trkpt lat="43.1336" lon="3.03368">
        <ele>45</ele>
        <time>2026-02-22T13:31:48Z</time>
      </trkpt>
      <trkpt lat="43.13369" lon="3.03366">
        <ele>46</ele>
        <time>2026-02-22T13:31:50Z</time>
      </trkpt>
      <trkpt lat="43.13377" lon="3.03363">
        <ele>46</ele>
        <time>2026-02-22T13:31:52Z</time>
      </trkpt>
      <trkpt lat="43.13386" lon="3.03359">
        <ele>47</ele>
        <time>2026-02-22T13:31:54Z</time>
      </trkpt>
      <trkpt lat="43.13395" lon="3.03356">
        <ele>48</ele>
        <time>2026-02-22T13:31:56Z</time>
      </trkpt>
      <trkpt lat="43.13403" lon="3.03353">
        <ele>49</ele>
        <time>2026-02-22T13:31:58Z</time>
      </trkpt>
      <trkpt lat="43.13412" lon="3.03349">
        <ele>49</ele>
        <time>2026-02-22T13:32:00Z</time>
      </trkpt>
      <trkpt lat="43.1342" lon="3.03346">
        <ele>49</ele>
        <time>2026-02-22T13:32:02Z</time>
      </trkpt>
      <trkpt lat="43.13428" lon="3.03343">
        <ele>49</ele>
        <time>2026-02-22T13:32:04Z</time>
      </trkpt>
      <trkpt lat="43.13436" lon="3.0334">
        <ele>49</ele>
        <time>2026-02-22T13:32:06Z</time>
      </trkpt>
      <trkpt lat="43.13445" lon="3.03337">
        <ele>49</ele>
        <time>2026-02-22T13:32:08Z</time>
      </trkpt>
      <trkpt lat="43.13453" lon="3.03334">
        <ele>49</ele>
        <time>2026-02-22T13:32:10Z</time>
      </trkpt>
      <trkpt lat="43.1346" lon="3.03332">
        <ele>49</ele>
        <time>2026-02-22T13:32:12Z</time>
      </trkpt>
      <trkpt lat="43.13468" lon="3.03329">
        <ele>49</ele>
        <time>2026-02-22T13:32:14Z</time>
      </trkpt>
      <trkpt lat="43.13476" lon="3.03327">
        <ele>50</ele>
        <time>2026-02-22T13:32:16Z</time>
      </trkpt>
      <trkpt lat="43.13484" lon="3.03324">
        <ele>50</ele>
        <time>2026-02-22T13:32:18Z</time>
      </trkpt>
      <trkpt lat="43.13492" lon="3.03321">
        <ele>50</ele>
        <time>2026-02-22T13:32:20Z</time>
      </trkpt>
      <trkpt lat="43.13499" lon="3.03319">
        <ele>49</ele>
        <time>2026-02-22T13:32:22Z</time>
      </trkpt>
      <trkpt lat="43.13506" lon="3.03316">
        <ele>49</ele>
        <time>2026-02-22T13:32:24Z</time>
      </trkpt>
      <trkpt lat="43.13514" lon="3.03313">
        <ele>48</ele>
        <time>2026-02-22T13:32:26Z</time>
      </trkpt>
      <trkpt lat="43.13521" lon="3.03311">
        <ele>48</ele>
        <time>2026-02-22T13:32:28Z</time>
      </trkpt>
      <trkpt lat="43.13528" lon="3.03308">
        <ele>48</ele>
        <time>2026-02-22T13:32:30Z</time>
      </trkpt>
      <trkpt lat="43.13535" lon="3.03306">
        <ele>48</ele>
        <time>2026-02-22T13:32:32Z</time>
      </trkpt>
      <trkpt lat="43.13543" lon="3.03303">
        <ele>48</ele>
        <time>2026-02-22T13:32:34Z</time>
      </trkpt>
      <trkpt lat="43.1355" lon="3.033">
        <ele>49</ele>
        <time>2026-02-22T13:32:36Z</time>
      </trkpt>
      <trkpt lat="43.13557" lon="3.03297">
        <ele>49</ele>
        <time>2026-02-22T13:32:38Z</time>
      </trkpt>
      <trkpt lat="43.13565" lon="3.03294">
        <ele>49</ele>
        <time>2026-02-22T13:32:40Z</time>
      </trkpt>
      <trkpt lat="43.13572" lon="3.03292">
        <ele>48</ele>
        <time>2026-02-22T13:32:42Z</time>
      </trkpt>
      <trkpt lat="43.13579" lon="3.0329">
        <ele>48</ele>
        <time>2026-02-22T13:32:44Z</time>
      </trkpt>
      <trkpt lat="43.13585" lon="3.03288">
        <ele>48</ele>
        <time>2026-02-22T13:32:46Z</time>
      </trkpt>
      <trkpt lat="43.13592" lon="3.03286">
        <ele>48</ele>
        <time>2026-02-22T13:32:48Z</time>
      </trkpt>
      <trkpt lat="43.13598" lon="3.03285">
        <ele>48</ele>
        <time>2026-02-22T13:32:50Z</time>
      </trkpt>
      <trkpt lat="43.13605" lon="3.03283">
        <ele>48</ele>
        <time>2026-02-22T13:32:52Z</time>
      </trkpt>
      <trkpt lat="43.13612" lon="3.03281">
        <ele>48</ele>
        <time>2026-02-22T13:32:54Z</time>
      </trkpt>
      <trkpt lat="43.13619" lon="3.0328">
        <ele>48</ele>
        <time>2026-02-22T13:32:56Z</time>
      </trkpt>
      <trkpt lat="43.13625" lon="3.03278">
        <ele>48</ele>
        <time>2026-02-22T13:32:58Z</time>
      </trkpt>
      <trkpt lat="43.13632" lon="3.03277">
        <ele>47</ele>
        <time>2026-02-22T13:33:00Z</time>
      </trkpt>
      <trkpt lat="43.13639" lon="3.03276">
        <ele>48</ele>
        <time>2026-02-22T13:33:02Z</time>
      </trkpt>
      <trkpt lat="43.13646" lon="3.03274">
        <ele>48</ele>
        <time>2026-02-22T13:33:04Z</time>
      </trkpt>
      <trkpt lat="43.13653" lon="3.03273">
        <ele>48</ele>
        <time>2026-02-22T13:33:06Z</time>
      </trkpt>
      <trkpt lat="43.13659" lon="3.03272">
        <ele>47</ele>
        <time>2026-02-22T13:33:08Z</time>
      </trkpt>
      <trkpt lat="43.13666" lon="3.0327">
        <ele>47</ele>
        <time>2026-02-22T13:33:10Z</time>
      </trkpt>
      <trkpt lat="43.13673" lon="3.03269">
        <ele>47</ele>
        <time>2026-02-22T13:33:12Z</time>
      </trkpt>
      <trkpt lat="43.13679" lon="3.03269">
        <ele>48</ele>
        <time>2026-02-22T13:33:14Z</time>
      </trkpt>
      <trkpt lat="43.13685" lon="3.03268">
        <ele>48</ele>
        <time>2026-02-22T13:33:16Z</time>
      </trkpt>
      <trkpt lat="43.13691" lon="3.03267">
        <ele>47</ele>
        <time>2026-02-22T13:33:18Z</time>
      </trkpt>
      <trkpt lat="43.13697" lon="3.03266">
        <ele>48</ele>
        <time>2026-02-22T13:33:20Z</time>
      </trkpt>
      <trkpt lat="43.13703" lon="3.03266">
        <ele>48</ele>
        <time>2026-02-22T13:33:22Z</time>
      </trkpt>
      <trkpt lat="43.13709" lon="3.03266">
        <ele>48</ele>
        <time>2026-02-22T13:33:24Z</time>
      </trkpt>
      <trkpt lat="43.13716" lon="3.03266">
        <ele>48</ele>
        <time>2026-02-22T13:33:26Z</time>
      </trkpt>
      <trkpt lat="43.13722" lon="3.03266">
        <ele>48</ele>
        <time>2026-02-22T13:33:28Z</time>
      </trkpt>
      <trkpt lat="43.13728" lon="3.03265">
        <ele>49</ele>
        <time>2026-02-22T13:33:30Z</time>
      </trkpt>
      <trkpt lat="43.13733" lon="3.03265">
        <ele>49</ele>
        <time>2026-02-22T13:33:32Z</time>
      </trkpt>
      <trkpt lat="43.13739" lon="3.03265">
        <ele>50</ele>
        <time>2026-02-22T13:33:34Z</time>
      </trkpt>
      <trkpt lat="43.13743" lon="3.03265">
        <ele>50</ele>
        <time>2026-02-22T13:33:36Z</time>
      </trkpt>
      <trkpt lat="43.13747" lon="3.03265">
        <ele>50</ele>
        <time>2026-02-22T13:33:38Z</time>
      </trkpt>
      <trkpt lat="43.13749" lon="3.03266">
        <ele>51</ele>
        <time>2026-02-22T13:33:40Z</time>
      </trkpt>
      <trkpt lat="43.13749" lon="3.03266">
        <ele>51</ele>
        <time>2026-02-22T13:33:42Z</time>
      </trkpt>
      <trkpt lat="43.13749" lon="3.03265">
        <ele>51</ele>
        <time>2026-02-22T13:33:44Z</time>
      </trkpt>
      <trkpt lat="43.13749" lon="3.03265">
        <ele>51</ele>
        <time>2026-02-22T13:33:46Z</time>
      </trkpt>
      <trkpt lat="43.13749" lon="3.03265">
        <ele>51</ele>
        <time>2026-02-22T13:33:48Z</time>
      </trkpt>
      <trkpt lat="43.13749" lon="3.03265">
        <ele>51</ele>
        <time>2026-02-22T13:33:50Z</time>
      </trkpt>
      <trkpt lat="43.13754" lon="3.03255">
        <ele>50</ele>
        <time>2026-02-22T13:36:19Z</time>
      </trkpt>
      <trkpt lat="43.13752" lon="3.0326">
        <ele>52</ele>
        <time>2026-02-22T13:36:21Z</time>
      </trkpt>
      <trkpt lat="43.13752" lon="3.03262">
        <ele>52</ele>
        <time>2026-02-22T13:36:23Z</time>
      </trkpt>
      <trkpt lat="43.13751" lon="3.03264">
        <ele>52</ele>
        <time>2026-02-22T13:36:25Z</time>
      </trkpt>
      <trkpt lat="43.13751" lon="3.03264">
        <ele>52</ele>
        <time>2026-02-22T13:36:27Z</time>
      </trkpt>
      <trkpt lat="43.13752" lon="3.03264">
        <ele>52</ele>
        <time>2026-02-22T13:36:29Z</time>
      </trkpt>
      <trkpt lat="43.13753" lon="3.03263">
        <ele>52</ele>
        <time>2026-02-22T13:36:31Z</time>
      </trkpt>
      <trkpt lat="43.13756" lon="3.03263">
        <ele>53</ele>
        <time>2026-02-22T13:36:33Z</time>
      </trkpt>
      <trkpt lat="43.13759" lon="3.03263">
        <ele>53</ele>
        <time>2026-02-22T13:36:35Z</time>
      </trkpt>
      <trkpt lat="43.13763" lon="3.03263">
        <ele>53</ele>
        <time>2026-02-22T13:36:37Z</time>
      </trkpt>
      <trkpt lat="43.13768" lon="3.03262">
        <ele>53</ele>
        <time>2026-02-22T13:36:39Z</time>
      </trkpt>
      <trkpt lat="43.13773" lon="3.03262">
        <ele>53</ele>
        <time>2026-02-22T13:36:41Z</time>
      </trkpt>
      <trkpt lat="43.13779" lon="3.03262">
        <ele>53</ele>
        <time>2026-02-22T13:36:43Z</time>
      </trkpt>
      <trkpt lat="43.13786" lon="3.03262">
        <ele>53</ele>
        <time>2026-02-22T13:36:45Z</time>
      </trkpt>
      <trkpt lat="43.13792" lon="3.03262">
        <ele>52</ele>
        <time>2026-02-22T13:36:47Z</time>
      </trkpt>
      <trkpt lat="43.138" lon="3.03262">
        <ele>52</ele>
        <time>2026-02-22T13:36:49Z</time>
      </trkpt>
      <trkpt lat="43.13807" lon="3.03261">
        <ele>51</ele>
        <time>2026-02-22T13:36:51Z</time>
      </trkpt>
      <trkpt lat="43.13815" lon="3.03261">
        <ele>51</ele>
        <time>2026-02-22T13:36:53Z</time>
      </trkpt>
      <trkpt lat="43.13823" lon="3.0326">
        <ele>50</ele>
        <time>2026-02-22T13:36:55Z</time>
      </trkpt>
      <trkpt lat="43.13831" lon="3.0326">
        <ele>49</ele>
        <time>2026-02-22T13:36:57Z</time>
      </trkpt>
      <trkpt lat="43.1384" lon="3.0326">
        <ele>49</ele>
        <time>2026-02-22T13:36:59Z</time>
      </trkpt>
      <trkpt lat="43.13848" lon="3.0326">
        <ele>49</ele>
        <time>2026-02-22T13:37:01Z</time>
      </trkpt>
      <trkpt lat="43.13856" lon="3.0326">
        <ele>49</ele>
        <time>2026-02-22T13:37:03Z</time>
      </trkpt>
      <trkpt lat="43.13864" lon="3.03259">
        <ele>50</ele>
        <time>2026-02-22T13:37:05Z</time>
      </trkpt>
      <trkpt lat="43.13871" lon="3.03259">
        <ele>50</ele>
        <time>2026-02-22T13:37:07Z</time>
      </trkpt>
      <trkpt lat="43.1388" lon="3.03259">
        <ele>50</ele>
        <time>2026-02-22T13:37:09Z</time>
      </trkpt>
      <trkpt lat="43.13888" lon="3.03258">
        <ele>51</ele>
        <time>2026-02-22T13:37:11Z</time>
      </trkpt>
      <trkpt lat="43.13896" lon="3.03257">
        <ele>51</ele>
        <time>2026-02-22T13:37:13Z</time>
      </trkpt>
      <trkpt lat="43.13904" lon="3.03257">
        <ele>51</ele>
        <time>2026-02-22T13:37:15Z</time>
      </trkpt>
      <trkpt lat="43.13912" lon="3.03257">
        <ele>52</ele>
        <time>2026-02-22T13:37:17Z</time>
      </trkpt>
      <trkpt lat="43.13922" lon="3.03257">
        <ele>52</ele>
        <time>2026-02-22T13:37:19Z</time>
      </trkpt>
      <trkpt lat="43.13931" lon="3.03257">
        <ele>52</ele>
        <time>2026-02-22T13:37:21Z</time>
      </trkpt>
      <trkpt lat="43.1394" lon="3.03257">
        <ele>52</ele>
        <time>2026-02-22T13:37:23Z</time>
      </trkpt>
      <trkpt lat="43.13949" lon="3.03258">
        <ele>52</ele>
        <time>2026-02-22T13:37:25Z</time>
      </trkpt>
      <trkpt lat="43.13958" lon="3.03258">
        <ele>51</ele>
        <time>2026-02-22T13:37:27Z</time>
      </trkpt>
      <trkpt lat="43.13967" lon="3.03258">
        <ele>51</ele>
        <time>2026-02-22T13:37:29Z</time>
      </trkpt>
      <trkpt lat="43.13976" lon="3.03258">
        <ele>51</ele>
        <time>2026-02-22T13:37:31Z</time>
      </trkpt>
      <trkpt lat="43.13985" lon="3.03259">
        <ele>51</ele>
        <time>2026-02-22T13:37:33Z</time>
      </trkpt>
      <trkpt lat="43.13994" lon="3.03259">
        <ele>51</ele>
        <time>2026-02-22T13:37:35Z</time>
      </trkpt>
      <trkpt lat="43.14004" lon="3.03259">
        <ele>51</ele>
        <time>2026-02-22T13:37:37Z</time>
      </trkpt>
      <trkpt lat="43.14013" lon="3.03259">
        <ele>51</ele>
        <time>2026-02-22T13:37:39Z</time>
      </trkpt>
      <trkpt lat="43.14022" lon="3.03259">
        <ele>51</ele>
        <time>2026-02-22T13:37:41Z</time>
      </trkpt>
      <trkpt lat="43.14031" lon="3.0326">
        <ele>52</ele>
        <time>2026-02-22T13:37:43Z</time>
      </trkpt>
      <trkpt lat="43.1404" lon="3.0326">
        <ele>52</ele>
        <time>2026-02-22T13:37:45Z</time>
      </trkpt>
      <trkpt lat="43.14048" lon="3.03261">
        <ele>52</ele>
        <time>2026-02-22T13:37:47Z</time>
      </trkpt>
      <trkpt lat="43.14058" lon="3.03261">
        <ele>52</ele>
        <time>2026-02-22T13:37:49Z</time>
      </trkpt>
      <trkpt lat="43.14067" lon="3.03262">
        <ele>52</ele>
        <time>2026-02-22T13:37:51Z</time>
      </trkpt>
      <trkpt lat="43.14076" lon="3.03262">
        <ele>51</ele>
        <time>2026-02-22T13:37:53Z</time>
      </trkpt>
      <trkpt lat="43.14085" lon="3.03262">
        <ele>51</ele>
        <time>2026-02-22T13:37:55Z</time>
      </trkpt>
      <trkpt lat="43.14095" lon="3.03263">
        <ele>51</ele>
        <time>2026-02-22T13:37:57Z</time>
      </trkpt>
      <trkpt lat="43.14103" lon="3.03263">
        <ele>51</ele>
        <time>2026-02-22T13:37:59Z</time>
      </trkpt>
      <trkpt lat="43.14112" lon="3.03264">
        <ele>50</ele>
        <time>2026-02-22T13:38:01Z</time>
      </trkpt>
      <trkpt lat="43.14121" lon="3.03264">
        <ele>50</ele>
        <time>2026-02-22T13:38:03Z</time>
      </trkpt>
      <trkpt lat="43.1413" lon="3.03264">
        <ele>50</ele>
        <time>2026-02-22T13:38:05Z</time>
      </trkpt>
      <trkpt lat="43.14139" lon="3.03264">
        <ele>51</ele>
        <time>2026-02-22T13:38:07Z</time>
      </trkpt>
      <trkpt lat="43.14148" lon="3.03265">
        <ele>50</ele>
        <time>2026-02-22T13:38:09Z</time>
      </trkpt>
      <trkpt lat="43.14157" lon="3.03265">
        <ele>50</ele>
        <time>2026-02-22T13:38:11Z</time>
      </trkpt>
      <trkpt lat="43.14166" lon="3.03266">
        <ele>50</ele>
        <time>2026-02-22T13:38:13Z</time>
      </trkpt>
      <trkpt lat="43.14175" lon="3.03266">
        <ele>50</ele>
        <time>2026-02-22T13:38:15Z</time>
      </trkpt>
      <trkpt lat="43.14185" lon="3.03266">
        <ele>50</ele>
        <time>2026-02-22T13:38:17Z</time>
      </trkpt>
      <trkpt lat="43.14194" lon="3.03266">
        <ele>50</ele>
        <time>2026-02-22T13:38:19Z</time>
      </trkpt>
      <trkpt lat="43.14204" lon="3.03266">
        <ele>50</ele>
        <time>2026-02-22T13:38:21Z</time>
      </trkpt>
      <trkpt lat="43.14213" lon="3.03267">
        <ele>50</ele>
        <time>2026-02-22T13:38:23Z</time>
      </trkpt>
      <trkpt lat="43.14222" lon="3.03267">
        <ele>50</ele>
        <time>2026-02-22T13:38:25Z</time>
      </trkpt>
      <trkpt lat="43.14231" lon="3.03268">
        <ele>50</ele>
        <time>2026-02-22T13:38:27Z</time>
      </trkpt>
      <trkpt lat="43.14239" lon="3.03268">
        <ele>50</ele>
        <time>2026-02-22T13:38:29Z</time>
      </trkpt>
      <trkpt lat="43.14248" lon="3.03268">
        <ele>50</ele>
        <time>2026-02-22T13:38:31Z</time>
      </trkpt>
      <trkpt lat="43.14256" lon="3.03269">
        <ele>50</ele>
        <time>2026-02-22T13:38:33Z</time>
      </trkpt>
      <trkpt lat="43.14265" lon="3.03269">
        <ele>50</ele>
        <time>2026-02-22T13:38:35Z</time>
      </trkpt>
      <trkpt lat="43.14274" lon="3.03269">
        <ele>50</ele>
        <time>2026-02-22T13:38:37Z</time>
      </trkpt>
      <trkpt lat="43.14283" lon="3.03269">
        <ele>51</ele>
        <time>2026-02-22T13:38:39Z</time>
      </trkpt>
      <trkpt lat="43.14292" lon="3.03269">
        <ele>51</ele>
        <time>2026-02-22T13:38:41Z</time>
      </trkpt>
      <trkpt lat="43.14301" lon="3.0327">
        <ele>51</ele>
        <time>2026-02-22T13:38:43Z</time>
      </trkpt>
      <trkpt lat="43.1431" lon="3.0327">
        <ele>51</ele>
        <time>2026-02-22T13:38:45Z</time>
      </trkpt>
      <trkpt lat="43.14318" lon="3.0327">
        <ele>51</ele>
        <time>2026-02-22T13:38:47Z</time>
      </trkpt>
      <trkpt lat="43.14326" lon="3.03271">
        <ele>51</ele>
        <time>2026-02-22T13:38:49Z</time>
      </trkpt>
      <trkpt lat="43.14335" lon="3.03271">
        <ele>51</ele>
        <time>2026-02-22T13:38:51Z</time>
      </trkpt>
      <trkpt lat="43.14344" lon="3.03271">
        <ele>51</ele>
        <time>2026-02-22T13:38:53Z</time>
      </trkpt>
      <trkpt lat="43.14353" lon="3.03272">
        <ele>52</ele>
        <time>2026-02-22T13:38:55Z</time>
      </trkpt>
      <trkpt lat="43.14362" lon="3.03272">
        <ele>52</ele>
        <time>2026-02-22T13:38:57Z</time>
      </trkpt>
      <trkpt lat="43.1437" lon="3.03271">
        <ele>52</ele>
        <time>2026-02-22T13:38:59Z</time>
      </trkpt>
      <trkpt lat="43.14379" lon="3.03272">
        <ele>52</ele>
        <time>2026-02-22T13:39:01Z</time>
      </trkpt>
      <trkpt lat="43.14387" lon="3.03272">
        <ele>52</ele>
        <time>2026-02-22T13:39:03Z</time>
      </trkpt>
      <trkpt lat="43.14395" lon="3.03271">
        <ele>51</ele>
        <time>2026-02-22T13:39:05Z</time>
      </trkpt>
      <trkpt lat="43.14402" lon="3.0327">
        <ele>52</ele>
        <time>2026-02-22T13:39:07Z</time>
      </trkpt>
      <trkpt lat="43.1441" lon="3.03267">
        <ele>51</ele>
        <time>2026-02-22T13:39:09Z</time>
      </trkpt>
      <trkpt lat="43.14418" lon="3.03264">
        <ele>52</ele>
        <time>2026-02-22T13:39:11Z</time>
      </trkpt>
      <trkpt lat="43.14426" lon="3.03261">
        <ele>52</ele>
        <time>2026-02-22T13:39:13Z</time>
      </trkpt>
      <trkpt lat="43.14434" lon="3.03258">
        <ele>52</ele>
        <time>2026-02-22T13:39:15Z</time>
      </trkpt>
      <trkpt lat="43.14442" lon="3.03256">
        <ele>52</ele>
        <time>2026-02-22T13:39:17Z</time>
      </trkpt>
      <trkpt lat="43.14449" lon="3.03254">
        <ele>51</ele>
        <time>2026-02-22T13:39:19Z</time>
      </trkpt>
      <trkpt lat="43.14458" lon="3.03252">
        <ele>51</ele>
        <time>2026-02-22T13:39:21Z</time>
      </trkpt>
      <trkpt lat="43.14466" lon="3.0325">
        <ele>51</ele>
        <time>2026-02-22T13:39:23Z</time>
      </trkpt>
      <trkpt lat="43.14474" lon="3.03248">
        <ele>49</ele>
        <time>2026-02-22T13:39:25Z</time>
      </trkpt>
      <trkpt lat="43.14481" lon="3.03246">
        <ele>47</ele>
        <time>2026-02-22T13:39:27Z</time>
      </trkpt>
      <trkpt lat="43.1449" lon="3.03244">
        <ele>46</ele>
        <time>2026-02-22T13:39:29Z</time>
      </trkpt>
      <trkpt lat="43.14498" lon="3.03242">
        <ele>46</ele>
        <time>2026-02-22T13:39:31Z</time>
      </trkpt>
      <trkpt lat="43.14506" lon="3.03241">
        <ele>46</ele>
        <time>2026-02-22T13:39:33Z</time>
      </trkpt>
      <trkpt lat="43.14515" lon="3.03239">
        <ele>46</ele>
        <time>2026-02-22T13:39:35Z</time>
      </trkpt>
      <trkpt lat="43.14524" lon="3.03237">
        <ele>47</ele>
        <time>2026-02-22T13:39:37Z</time>
      </trkpt>
      <trkpt lat="43.14532" lon="3.03235">
        <ele>47</ele>
        <time>2026-02-22T13:39:39Z</time>
      </trkpt>
      <trkpt lat="43.1454" lon="3.03231">
        <ele>46</ele>
        <time>2026-02-22T13:39:41Z</time>
      </trkpt>
      <trkpt lat="43.14545" lon="3.03222">
        <ele>46</ele>
        <time>2026-02-22T13:39:43Z</time>
      </trkpt>
      <trkpt lat="43.14547" lon="3.0321">
        <ele>46</ele>
        <time>2026-02-22T13:39:45Z</time>
      </trkpt>
      <trkpt lat="43.1455" lon="3.03199">
        <ele>45</ele>
        <time>2026-02-22T13:39:47Z</time>
      </trkpt>
      <trkpt lat="43.14553" lon="3.03187">
        <ele>45</ele>
        <time>2026-02-22T13:39:49Z</time>
      </trkpt>
      <trkpt lat="43.14557" lon="3.03174">
        <ele>45</ele>
        <time>2026-02-22T13:39:51Z</time>
      </trkpt>
      <trkpt lat="43.14563" lon="3.03166">
        <ele>46</ele>
        <time>2026-02-22T13:39:53Z</time>
      </trkpt>
      <trkpt lat="43.14571" lon="3.03167">
        <ele>48</ele>
        <time>2026-02-22T13:39:55Z</time>
      </trkpt>
      <trkpt lat="43.14579" lon="3.0317">
        <ele>48</ele>
        <time>2026-02-22T13:39:57Z</time>
      </trkpt>
      <trkpt lat="43.14588" lon="3.03173">
        <ele>47</ele>
        <time>2026-02-22T13:39:59Z</time>
      </trkpt>
      <trkpt lat="43.14597" lon="3.03177">
        <ele>46</ele>
        <time>2026-02-22T13:40:01Z</time>
      </trkpt>
      <trkpt lat="43.14606" lon="3.03181">
        <ele>47</ele>
        <time>2026-02-22T13:40:03Z</time>
      </trkpt>
      <trkpt lat="43.14614" lon="3.03186">
        <ele>48</ele>
        <time>2026-02-22T13:40:05Z</time>
      </trkpt>
      <trkpt lat="43.14622" lon="3.03191">
        <ele>49</ele>
        <time>2026-02-22T13:40:07Z</time>
      </trkpt>
      <trkpt lat="43.1463" lon="3.03194">
        <ele>50</ele>
        <time>2026-02-22T13:40:09Z</time>
      </trkpt>
      <trkpt lat="43.14637" lon="3.03198">
        <ele>50</ele>
        <time>2026-02-22T13:40:11Z</time>
      </trkpt>
      <trkpt lat="43.14645" lon="3.03201">
        <ele>49</ele>
        <time>2026-02-22T13:40:13Z</time>
      </trkpt>
      <trkpt lat="43.14653" lon="3.03204">
        <ele>49</ele>
        <time>2026-02-22T13:40:15Z</time>
      </trkpt>
      <trkpt lat="43.1466" lon="3.03207">
        <ele>49</ele>
        <time>2026-02-22T13:40:17Z</time>
      </trkpt>
      <trkpt lat="43.14668" lon="3.0321">
        <ele>49</ele>
        <time>2026-02-22T13:40:19Z</time>
      </trkpt>
      <trkpt lat="43.14676" lon="3.03214">
        <ele>49</ele>
        <time>2026-02-22T13:40:21Z</time>
      </trkpt>
      <trkpt lat="43.14684" lon="3.03217">
        <ele>49</ele>
        <time>2026-02-22T13:40:23Z</time>
      </trkpt>
      <trkpt lat="43.14692" lon="3.0322">
        <ele>49</ele>
        <time>2026-02-22T13:40:25Z</time>
      </trkpt>
      <trkpt lat="43.14699" lon="3.03223">
        <ele>49</ele>
        <time>2026-02-22T13:40:27Z</time>
      </trkpt>
      <trkpt lat="43.14706" lon="3.03227">
        <ele>49</ele>
        <time>2026-02-22T13:40:29Z</time>
      </trkpt>
      <trkpt lat="43.14713" lon="3.0323">
        <ele>49</ele>
        <time>2026-02-22T13:40:31Z</time>
      </trkpt>
      <trkpt lat="43.14721" lon="3.03233">
        <ele>49</ele>
        <time>2026-02-22T13:40:33Z</time>
      </trkpt>
      <trkpt lat="43.14728" lon="3.03236">
        <ele>49</ele>
        <time>2026-02-22T13:40:35Z</time>
      </trkpt>
      <trkpt lat="43.14735" lon="3.03239">
        <ele>49</ele>
        <time>2026-02-22T13:40:37Z</time>
      </trkpt>
      <trkpt lat="43.14742" lon="3.03242">
        <ele>49</ele>
        <time>2026-02-22T13:40:39Z</time>
      </trkpt>
      <trkpt lat="43.14749" lon="3.03245">
        <ele>48</ele>
        <time>2026-02-22T13:40:41Z</time>
      </trkpt>
      <trkpt lat="43.14756" lon="3.03247">
        <ele>49</ele>
        <time>2026-02-22T13:40:43Z</time>
      </trkpt>
      <trkpt lat="43.14763" lon="3.03249">
        <ele>49</ele>
        <time>2026-02-22T13:40:45Z</time>
      </trkpt>
      <trkpt lat="43.1477" lon="3.03252">
        <ele>49</ele>
        <time>2026-02-22T13:40:47Z</time>
      </trkpt>
      <trkpt lat="43.14777" lon="3.03255">
        <ele>49</ele>
        <time>2026-02-22T13:40:49Z</time>
      </trkpt>
      <trkpt lat="43.14783" lon="3.03257">
        <ele>49</ele>
        <time>2026-02-22T13:40:51Z</time>
      </trkpt>
      <trkpt lat="43.1479" lon="3.0326">
        <ele>49</ele>
        <time>2026-02-22T13:40:53Z</time>
      </trkpt>
      <trkpt lat="43.14797" lon="3.03263">
        <ele>49</ele>
        <time>2026-02-22T13:40:55Z</time>
      </trkpt>
      <trkpt lat="43.14803" lon="3.03265">
        <ele>49</ele>
        <time>2026-02-22T13:40:57Z</time>
      </trkpt>
      <trkpt lat="43.1481" lon="3.03268">
        <ele>49</ele>
        <time>2026-02-22T13:40:59Z</time>
      </trkpt>
      <trkpt lat="43.14817" lon="3.03271">
        <ele>50</ele>
        <time>2026-02-22T13:41:01Z</time>
      </trkpt>
      <trkpt lat="43.14824" lon="3.03273">
        <ele>50</ele>
        <time>2026-02-22T13:41:03Z</time>
      </trkpt>
      <trkpt lat="43.14831" lon="3.03276">
        <ele>49</ele>
        <time>2026-02-22T13:41:05Z</time>
      </trkpt>
      <trkpt lat="43.14838" lon="3.03278">
        <ele>49</ele>
        <time>2026-02-22T13:41:07Z</time>
      </trkpt>
      <trkpt lat="43.14845" lon="3.03281">
        <ele>49</ele>
        <time>2026-02-22T13:41:09Z</time>
      </trkpt>
      <trkpt lat="43.14852" lon="3.03284">
        <ele>49</ele>
        <time>2026-02-22T13:41:11Z</time>
      </trkpt>
      <trkpt lat="43.14859" lon="3.03287">
        <ele>49</ele>
        <time>2026-02-22T13:41:13Z</time>
      </trkpt>
      <trkpt lat="43.14866" lon="3.0329">
        <ele>49</ele>
        <time>2026-02-22T13:41:15Z</time>
      </trkpt>
      <trkpt lat="43.14873" lon="3.03293">
        <ele>49</ele>
        <time>2026-02-22T13:41:17Z</time>
      </trkpt>
      <trkpt lat="43.1488" lon="3.03296">
        <ele>50</ele>
        <time>2026-02-22T13:41:19Z</time>
      </trkpt>
      <trkpt lat="43.14888" lon="3.03299">
        <ele>50</ele>
        <time>2026-02-22T13:41:21Z</time>
      </trkpt>
      <trkpt lat="43.14895" lon="3.03302">
        <ele>49</ele>
        <time>2026-02-22T13:41:23Z</time>
      </trkpt>
      <trkpt lat="43.14901" lon="3.03304">
        <ele>50</ele>
        <time>2026-02-22T13:41:25Z</time>
      </trkpt>
      <trkpt lat="43.14908" lon="3.03307">
        <ele>50</ele>
        <time>2026-02-22T13:41:27Z</time>
      </trkpt>
      <trkpt lat="43.14915" lon="3.0331">
        <ele>50</ele>
        <time>2026-02-22T13:41:29Z</time>
      </trkpt>
      <trkpt lat="43.14922" lon="3.03313">
        <ele>50</ele>
        <time>2026-02-22T13:41:31Z</time>
      </trkpt>
      <trkpt lat="43.14929" lon="3.03317">
        <ele>49</ele>
        <time>2026-02-22T13:41:33Z</time>
      </trkpt>
      <trkpt lat="43.14936" lon="3.03321">
        <ele>49</ele>
        <time>2026-02-22T13:41:35Z</time>
      </trkpt>
      <trkpt lat="43.14942" lon="3.03325">
        <ele>49</ele>
        <time>2026-02-22T13:41:37Z</time>
      </trkpt>
      <trkpt lat="43.14949" lon="3.03329">
        <ele>49</ele>
        <time>2026-02-22T13:41:39Z</time>
      </trkpt>
      <trkpt lat="43.14957" lon="3.03333">
        <ele>48</ele>
        <time>2026-02-22T13:41:41Z</time>
      </trkpt>
      <trkpt lat="43.14964" lon="3.03338">
        <ele>48</ele>
        <time>2026-02-22T13:41:43Z</time>
      </trkpt>
      <trkpt lat="43.14972" lon="3.03342">
        <ele>48</ele>
        <time>2026-02-22T13:41:45Z</time>
      </trkpt>
      <trkpt lat="43.1498" lon="3.03346">
        <ele>47</ele>
        <time>2026-02-22T13:41:47Z</time>
      </trkpt>
      <trkpt lat="43.14987" lon="3.03351">
        <ele>47</ele>
        <time>2026-02-22T13:41:49Z</time>
      </trkpt>
      <trkpt lat="43.14995" lon="3.03356">
        <ele>46</ele>
        <time>2026-02-22T13:41:51Z</time>
      </trkpt>
      <trkpt lat="43.15002" lon="3.03362">
        <ele>47</ele>
        <time>2026-02-22T13:41:53Z</time>
      </trkpt>
      <trkpt lat="43.1501" lon="3.03368">
        <ele>47</ele>
        <time>2026-02-22T13:41:55Z</time>
      </trkpt>
      <trkpt lat="43.15018" lon="3.03374">
        <ele>48</ele>
        <time>2026-02-22T13:41:57Z</time>
      </trkpt>
      <trkpt lat="43.15025" lon="3.0338">
        <ele>48</ele>
        <time>2026-02-22T13:41:59Z</time>
      </trkpt>
      <trkpt lat="43.15033" lon="3.03385">
        <ele>48</ele>
        <time>2026-02-22T13:42:01Z</time>
      </trkpt>
      <trkpt lat="43.15041" lon="3.03391">
        <ele>49</ele>
        <time>2026-02-22T13:42:03Z</time>
      </trkpt>
      <trkpt lat="43.15049" lon="3.03397">
        <ele>49</ele>
        <time>2026-02-22T13:42:05Z</time>
      </trkpt>
      <trkpt lat="43.15057" lon="3.03403">
        <ele>49</ele>
        <time>2026-02-22T13:42:07Z</time>
      </trkpt>
      <trkpt lat="43.15065" lon="3.03409">
        <ele>49</ele>
        <time>2026-02-22T13:42:09Z</time>
      </trkpt>
      <trkpt lat="43.15072" lon="3.03416">
        <ele>50</ele>
        <time>2026-02-22T13:42:11Z</time>
      </trkpt>
      <trkpt lat="43.1508" lon="3.03423">
        <ele>50</ele>
        <time>2026-02-22T13:42:13Z</time>
      </trkpt>
      <trkpt lat="43.15087" lon="3.03429">
        <ele>51</ele>
        <time>2026-02-22T13:42:15Z</time>
      </trkpt>
      <trkpt lat="43.15094" lon="3.03436">
        <ele>51</ele>
        <time>2026-02-22T13:42:17Z</time>
      </trkpt>
      <trkpt lat="43.15101" lon="3.03442">
        <ele>51</ele>
        <time>2026-02-22T13:42:19Z</time>
      </trkpt>
      <trkpt lat="43.15108" lon="3.03449">
        <ele>51</ele>
        <time>2026-02-22T13:42:21Z</time>
      </trkpt>
      <trkpt lat="43.15115" lon="3.03454">
        <ele>51</ele>
        <time>2026-02-22T13:42:23Z</time>
      </trkpt>
      <trkpt lat="43.15122" lon="3.0346">
        <ele>51</ele>
        <time>2026-02-22T13:42:25Z</time>
      </trkpt>
      <trkpt lat="43.1513" lon="3.03467">
        <ele>51</ele>
        <time>2026-02-22T13:42:27Z</time>
      </trkpt>
      <trkpt lat="43.15137" lon="3.03473">
        <ele>51</ele>
        <time>2026-02-22T13:42:29Z</time>
      </trkpt>
      <trkpt lat="43.15145" lon="3.0348">
        <ele>50</ele>
        <time>2026-02-22T13:42:31Z</time>
      </trkpt>
      <trkpt lat="43.15153" lon="3.03487">
        <ele>50</ele>
        <time>2026-02-22T13:42:33Z</time>
      </trkpt>
      <trkpt lat="43.15161" lon="3.03493">
        <ele>50</ele>
        <time>2026-02-22T13:42:35Z</time>
      </trkpt>
      <trkpt lat="43.15169" lon="3.035">
        <ele>50</ele>
        <time>2026-02-22T13:42:37Z</time>
      </trkpt>
      <trkpt lat="43.15177" lon="3.03506">
        <ele>50</ele>
        <time>2026-02-22T13:42:39Z</time>
      </trkpt>
      <trkpt lat="43.15185" lon="3.03513">
        <ele>50</ele>
        <time>2026-02-22T13:42:41Z</time>
      </trkpt>
      <trkpt lat="43.15192" lon="3.0352">
        <ele>50</ele>
        <time>2026-02-22T13:42:43Z</time>
      </trkpt>
      <trkpt lat="43.152" lon="3.03526">
        <ele>50</ele>
        <time>2026-02-22T13:42:45Z</time>
      </trkpt>
      <trkpt lat="43.15207" lon="3.03533">
        <ele>50</ele>
        <time>2026-02-22T13:42:47Z</time>
      </trkpt>
      <trkpt lat="43.15215" lon="3.03539">
        <ele>50</ele>
        <time>2026-02-22T13:42:49Z</time>
      </trkpt>
      <trkpt lat="43.15222" lon="3.03546">
        <ele>50</ele>
        <time>2026-02-22T13:42:51Z</time>
      </trkpt>
      <trkpt lat="43.1523" lon="3.03552">
        <ele>50</ele>
        <time>2026-02-22T13:42:53Z</time>
      </trkpt>
      <trkpt lat="43.15237" lon="3.03558">
        <ele>50</ele>
        <time>2026-02-22T13:42:55Z</time>
      </trkpt>
      <trkpt lat="43.15245" lon="3.03565">
        <ele>51</ele>
        <time>2026-02-22T13:42:57Z</time>
      </trkpt>
      <trkpt lat="43.15253" lon="3.03572">
        <ele>51</ele>
        <time>2026-02-22T13:42:59Z</time>
      </trkpt>
      <trkpt lat="43.1526" lon="3.03578">
        <ele>51</ele>
        <time>2026-02-22T13:43:01Z</time>
      </trkpt>
      <trkpt lat="43.15268" lon="3.03584">
        <ele>50</ele>
        <time>2026-02-22T13:43:03Z</time>
      </trkpt>
      <trkpt lat="43.15275" lon="3.03591">
        <ele>50</ele>
        <time>2026-02-22T13:43:05Z</time>
      </trkpt>
      <trkpt lat="43.15282" lon="3.03597">
        <ele>50</ele>
        <time>2026-02-22T13:43:07Z</time>
      </trkpt>
      <trkpt lat="43.15289" lon="3.03604">
        <ele>50</ele>
        <time>2026-02-22T13:43:09Z</time>
      </trkpt>
      <trkpt lat="43.15296" lon="3.0361">
        <ele>50</ele>
        <time>2026-02-22T13:43:11Z</time>
      </trkpt>
      <trkpt lat="43.15303" lon="3.03616">
        <ele>50</ele>
        <time>2026-02-22T13:43:13Z</time>
      </trkpt>
      <trkpt lat="43.1531" lon="3.03622">
        <ele>50</ele>
        <time>2026-02-22T13:43:15Z</time>
      </trkpt>
      <trkpt lat="43.15317" lon="3.03628">
        <ele>49</ele>
        <time>2026-02-22T13:43:17Z</time>
      </trkpt>
      <trkpt lat="43.15324" lon="3.03634">
        <ele>49</ele>
        <time>2026-02-22T13:43:19Z</time>
      </trkpt>
      <trkpt lat="43.15331" lon="3.0364">
        <ele>49</ele>
        <time>2026-02-22T13:43:21Z</time>
      </trkpt>
      <trkpt lat="43.15338" lon="3.03646">
        <ele>49</ele>
        <time>2026-02-22T13:43:23Z</time>
      </trkpt>
      <trkpt lat="43.15345" lon="3.03653">
        <ele>49</ele>
        <time>2026-02-22T13:43:25Z</time>
      </trkpt>
      <trkpt lat="43.15352" lon="3.03659">
        <ele>49</ele>
        <time>2026-02-22T13:43:27Z</time>
      </trkpt>
      <trkpt lat="43.15359" lon="3.03666">
        <ele>49</ele>
        <time>2026-02-22T13:43:29Z</time>
      </trkpt>
      <trkpt lat="43.15368" lon="3.03672">
        <ele>49</ele>
        <time>2026-02-22T13:43:31Z</time>
      </trkpt>
      <trkpt lat="43.15375" lon="3.03679">
        <ele>50</ele>
        <time>2026-02-22T13:43:33Z</time>
      </trkpt>
      <trkpt lat="43.15383" lon="3.03685">
        <ele>50</ele>
        <time>2026-02-22T13:43:35Z</time>
      </trkpt>
      <trkpt lat="43.1539" lon="3.03691">
        <ele>50</ele>
        <time>2026-02-22T13:43:37Z</time>
      </trkpt>
      <trkpt lat="43.15397" lon="3.03697">
        <ele>50</ele>
        <time>2026-02-22T13:43:39Z</time>
      </trkpt>
      <trkpt lat="43.15405" lon="3.03703">
        <ele>51</ele>
        <time>2026-02-22T13:43:41Z</time>
      </trkpt>
      <trkpt lat="43.15412" lon="3.03709">
        <ele>51</ele>
        <time>2026-02-22T13:43:43Z</time>
      </trkpt>
      <trkpt lat="43.15419" lon="3.03715">
        <ele>51</ele>
        <time>2026-02-22T13:43:45Z</time>
      </trkpt>
      <trkpt lat="43.15426" lon="3.0372">
        <ele>51</ele>
        <time>2026-02-22T13:43:47Z</time>
      </trkpt>
      <trkpt lat="43.15433" lon="3.03725">
        <ele>51</ele>
        <time>2026-02-22T13:43:49Z</time>
      </trkpt>
      <trkpt lat="43.1544" lon="3.03731">
        <ele>51</ele>
        <time>2026-02-22T13:43:51Z</time>
      </trkpt>
      <trkpt lat="43.15447" lon="3.03736">
        <ele>51</ele>
        <time>2026-02-22T13:43:53Z</time>
      </trkpt>
      <trkpt lat="43.15455" lon="3.03741">
        <ele>50</ele>
        <time>2026-02-22T13:43:55Z</time>
      </trkpt>
      <trkpt lat="43.15463" lon="3.03745">
        <ele>50</ele>
        <time>2026-02-22T13:43:57Z</time>
      </trkpt>
      <trkpt lat="43.15471" lon="3.0375">
        <ele>50</ele>
        <time>2026-02-22T13:43:59Z</time>
      </trkpt>
      <trkpt lat="43.15478" lon="3.03755">
        <ele>50</ele>
        <time>2026-02-22T13:44:01Z</time>
      </trkpt>
      <trkpt lat="43.15485" lon="3.03761">
        <ele>50</ele>
        <time>2026-02-22T13:44:03Z</time>
      </trkpt>
      <trkpt lat="43.15492" lon="3.03766">
        <ele>50</ele>
        <time>2026-02-22T13:44:05Z</time>
      </trkpt>
      <trkpt lat="43.15499" lon="3.03772">
        <ele>50</ele>
        <time>2026-02-22T13:44:07Z</time>
      </trkpt>
      <trkpt lat="43.15506" lon="3.03778">
        <ele>50</ele>
        <time>2026-02-22T13:44:09Z</time>
      </trkpt>
      <trkpt lat="43.15514" lon="3.03783">
        <ele>49</ele>
        <time>2026-02-22T13:44:11Z</time>
      </trkpt>
      <trkpt lat="43.15522" lon="3.03789">
        <ele>49</ele>
        <time>2026-02-22T13:44:13Z</time>
      </trkpt>
      <trkpt lat="43.15529" lon="3.03795">
        <ele>49</ele>
        <time>2026-02-22T13:44:15Z</time>
      </trkpt>
      <trkpt lat="43.15536" lon="3.03799">
        <ele>48</ele>
        <time>2026-02-22T13:44:17Z</time>
      </trkpt>
      <trkpt lat="43.15543" lon="3.03803">
        <ele>48</ele>
        <time>2026-02-22T13:44:19Z</time>
      </trkpt>
      <trkpt lat="43.1555" lon="3.03808">
        <ele>47</ele>
        <time>2026-02-22T13:44:21Z</time>
      </trkpt>
      <trkpt lat="43.15556" lon="3.03812">
        <ele>47</ele>
        <time>2026-02-22T13:44:23Z</time>
      </trkpt>
      <trkpt lat="43.15563" lon="3.03816">
        <ele>47</ele>
        <time>2026-02-22T13:44:25Z</time>
      </trkpt>
      <trkpt lat="43.1557" lon="3.03821">
        <ele>47</ele>
        <time>2026-02-22T13:44:27Z</time>
      </trkpt>
      <trkpt lat="43.15578" lon="3.03825">
        <ele>47</ele>
        <time>2026-02-22T13:44:29Z</time>
      </trkpt>
      <trkpt lat="43.15586" lon="3.03829">
        <ele>47</ele>
        <time>2026-02-22T13:44:31Z</time>
      </trkpt>
      <trkpt lat="43.15594" lon="3.03833">
        <ele>46</ele>
        <time>2026-02-22T13:44:33Z</time>
      </trkpt>
      <trkpt lat="43.15601" lon="3.03837">
        <ele>46</ele>
        <time>2026-02-22T13:44:35Z</time>
      </trkpt>
      <trkpt lat="43.1561" lon="3.03841">
        <ele>46</ele>
        <time>2026-02-22T13:44:37Z</time>
      </trkpt>
      <trkpt lat="43.15618" lon="3.03844">
        <ele>47</ele>
        <time>2026-02-22T13:44:39Z</time>
      </trkpt>
      <trkpt lat="43.15626" lon="3.03848">
        <ele>47</ele>
        <time>2026-02-22T13:44:41Z</time>
      </trkpt>
      <trkpt lat="43.15633" lon="3.03852">
        <ele>47</ele>
        <time>2026-02-22T13:44:43Z</time>
      </trkpt>
      <trkpt lat="43.15641" lon="3.03855">
        <ele>46</ele>
        <time>2026-02-22T13:44:45Z</time>
      </trkpt>
      <trkpt lat="43.15648" lon="3.03859">
        <ele>46</ele>
        <time>2026-02-22T13:44:47Z</time>
      </trkpt>
      <trkpt lat="43.15655" lon="3.03863">
        <ele>47</ele>
        <time>2026-02-22T13:44:49Z</time>
      </trkpt>
      <trkpt lat="43.15662" lon="3.03866">
        <ele>47</ele>
        <time>2026-02-22T13:44:51Z</time>
      </trkpt>
      <trkpt lat="43.15668" lon="3.03869">
        <ele>48</ele>
        <time>2026-02-22T13:44:53Z</time>
      </trkpt>
      <trkpt lat="43.15676" lon="3.03873">
        <ele>48</ele>
        <time>2026-02-22T13:44:55Z</time>
      </trkpt>
      <trkpt lat="43.15683" lon="3.03876">
        <ele>47</ele>
        <time>2026-02-22T13:44:57Z</time>
      </trkpt>
      <trkpt lat="43.1569" lon="3.03879">
        <ele>47</ele>
        <time>2026-02-22T13:44:59Z</time>
      </trkpt>
      <trkpt lat="43.15697" lon="3.03882">
        <ele>47</ele>
        <time>2026-02-22T13:45:01Z</time>
      </trkpt>
      <trkpt lat="43.15702" lon="3.03884">
        <ele>48</ele>
        <time>2026-02-22T13:45:03Z</time>
      </trkpt>
      <trkpt lat="43.15708" lon="3.03886">
        <ele>48</ele>
        <time>2026-02-22T13:45:05Z</time>
      </trkpt>
      <trkpt lat="43.15714" lon="3.03889">
        <ele>47</ele>
        <time>2026-02-22T13:45:07Z</time>
      </trkpt>
      <trkpt lat="43.1572" lon="3.03895">
        <ele>47</ele>
        <time>2026-02-22T13:45:09Z</time>
      </trkpt>
      <trkpt lat="43.15723" lon="3.03904">
        <ele>48</ele>
        <time>2026-02-22T13:45:11Z</time>
      </trkpt>
      <trkpt lat="43.15722" lon="3.03914">
        <ele>49</ele>
        <time>2026-02-22T13:45:13Z</time>
      </trkpt>
      <trkpt lat="43.1572" lon="3.03925">
        <ele>50</ele>
        <time>2026-02-22T13:45:15Z</time>
      </trkpt>
      <trkpt lat="43.15718" lon="3.03936">
        <ele>50</ele>
        <time>2026-02-22T13:45:17Z</time>
      </trkpt>
      <trkpt lat="43.15715" lon="3.03947">
        <ele>50</ele>
        <time>2026-02-22T13:45:19Z</time>
      </trkpt>
      <trkpt lat="43.15712" lon="3.03959">
        <ele>50</ele>
        <time>2026-02-22T13:45:21Z</time>
      </trkpt>
      <trkpt lat="43.1571" lon="3.03971">
        <ele>50</ele>
        <time>2026-02-22T13:45:23Z</time>
      </trkpt>
      <trkpt lat="43.15708" lon="3.03982">
        <ele>50</ele>
        <time>2026-02-22T13:45:25Z</time>
      </trkpt>
      <trkpt lat="43.15705" lon="3.03992">
        <ele>50</ele>
        <time>2026-02-22T13:45:27Z</time>
      </trkpt>
      <trkpt lat="43.15703" lon="3.04002">
        <ele>51</ele>
        <time>2026-02-22T13:45:29Z</time>
      </trkpt>
      <trkpt lat="43.15703" lon="3.04012">
        <ele>51</ele>
        <time>2026-02-22T13:45:31Z</time>
      </trkpt>
      <trkpt lat="43.15701" lon="3.04021">
        <ele>51</ele>
        <time>2026-02-22T13:45:33Z</time>
      </trkpt>
      <trkpt lat="43.15701" lon="3.04029">
        <ele>51</ele>
        <time>2026-02-22T13:45:35Z</time>
      </trkpt>
      <trkpt lat="43.15704" lon="3.04036">
        <ele>52</ele>
        <time>2026-02-22T13:45:37Z</time>
      </trkpt>
      <trkpt lat="43.15708" lon="3.04041">
        <ele>52</ele>
        <time>2026-02-22T13:45:39Z</time>
      </trkpt>
      <trkpt lat="43.15714" lon="3.04045">
        <ele>52</ele>
        <time>2026-02-22T13:45:41Z</time>
      </trkpt>
      <trkpt lat="43.1572" lon="3.04047">
        <ele>53</ele>
        <time>2026-02-22T13:45:43Z</time>
      </trkpt>
      <trkpt lat="43.15728" lon="3.0405">
        <ele>53</ele>
        <time>2026-02-22T13:45:45Z</time>
      </trkpt>
      <trkpt lat="43.15736" lon="3.04053">
        <ele>52</ele>
        <time>2026-02-22T13:45:47Z</time>
      </trkpt>
      <trkpt lat="43.15744" lon="3.04055">
        <ele>51</ele>
        <time>2026-02-22T13:45:49Z</time>
      </trkpt>
      <trkpt lat="43.15752" lon="3.04058">
        <ele>50</ele>
        <time>2026-02-22T13:45:51Z</time>
      </trkpt>
      <trkpt lat="43.15761" lon="3.04061">
        <ele>50</ele>
        <time>2026-02-22T13:45:53Z</time>
      </trkpt>
      <trkpt lat="43.15769" lon="3.04064">
        <ele>50</ele>
        <time>2026-02-22T13:45:55Z</time>
      </trkpt>
      <trkpt lat="43.15778" lon="3.04067">
        <ele>49</ele>
        <time>2026-02-22T13:45:57Z</time>
      </trkpt>
      <trkpt lat="43.15787" lon="3.04069">
        <ele>49</ele>
        <time>2026-02-22T13:45:59Z</time>
      </trkpt>
      <trkpt lat="43.15795" lon="3.04072">
        <ele>49</ele>
        <time>2026-02-22T13:46:01Z</time>
      </trkpt>
      <trkpt lat="43.15804" lon="3.04074">
        <ele>48</ele>
        <time>2026-02-22T13:46:03Z</time>
      </trkpt>
      <trkpt lat="43.15812" lon="3.04076">
        <ele>47</ele>
        <time>2026-02-22T13:46:05Z</time>
      </trkpt>
      <trkpt lat="43.15821" lon="3.04078">
        <ele>47</ele>
        <time>2026-02-22T13:46:07Z</time>
      </trkpt>
      <trkpt lat="43.15829" lon="3.0408">
        <ele>46</ele>
        <time>2026-02-22T13:46:09Z</time>
      </trkpt>
      <trkpt lat="43.15837" lon="3.04082">
        <ele>46</ele>
        <time>2026-02-22T13:46:11Z</time>
      </trkpt>
      <trkpt lat="43.15846" lon="3.04084">
        <ele>47</ele>
        <time>2026-02-22T13:46:13Z</time>
      </trkpt>
      <trkpt lat="43.15854" lon="3.04086">
        <ele>47</ele>
        <time>2026-02-22T13:46:15Z</time>
      </trkpt>
      <trkpt lat="43.15863" lon="3.04088">
        <ele>47</ele>
        <time>2026-02-22T13:46:17Z</time>
      </trkpt>
      <trkpt lat="43.15871" lon="3.04091">
        <ele>47</ele>
        <time>2026-02-22T13:46:19Z</time>
      </trkpt>
      <trkpt lat="43.1588" lon="3.04094">
        <ele>47</ele>
        <time>2026-02-22T13:46:21Z</time>
      </trkpt>
      <trkpt lat="43.15889" lon="3.04096">
        <ele>46</ele>
        <time>2026-02-22T13:46:23Z</time>
      </trkpt>
      <trkpt lat="43.15898" lon="3.04099">
        <ele>47</ele>
        <time>2026-02-22T13:46:25Z</time>
      </trkpt>
      <trkpt lat="43.15907" lon="3.04101">
        <ele>47</ele>
        <time>2026-02-22T13:46:27Z</time>
      </trkpt>
      <trkpt lat="43.15916" lon="3.04103">
        <ele>47</ele>
        <time>2026-02-22T13:46:29Z</time>
      </trkpt>
      <trkpt lat="43.15925" lon="3.04105">
        <ele>46</ele>
        <time>2026-02-22T13:46:31Z</time>
      </trkpt>
      <trkpt lat="43.15934" lon="3.04107">
        <ele>46</ele>
        <time>2026-02-22T13:46:33Z</time>
      </trkpt>
      <trkpt lat="43.15943" lon="3.04109">
        <ele>47</ele>
        <time>2026-02-22T13:46:35Z</time>
      </trkpt>
      <trkpt lat="43.15952" lon="3.04111">
        <ele>46</ele>
        <time>2026-02-22T13:46:37Z</time>
      </trkpt>
      <trkpt lat="43.1596" lon="3.04113">
        <ele>46</ele>
        <time>2026-02-22T13:46:39Z</time>
      </trkpt>
      <trkpt lat="43.15969" lon="3.04115">
        <ele>46</ele>
        <time>2026-02-22T13:46:41Z</time>
      </trkpt>
      <trkpt lat="43.15978" lon="3.04118">
        <ele>46</ele>
        <time>2026-02-22T13:46:43Z</time>
      </trkpt>
      <trkpt lat="43.15987" lon="3.04119">
        <ele>45</ele>
        <time>2026-02-22T13:46:45Z</time>
      </trkpt>
      <trkpt lat="43.15995" lon="3.0412">
        <ele>45</ele>
        <time>2026-02-22T13:46:47Z</time>
      </trkpt>
      <trkpt lat="43.16004" lon="3.04122">
        <ele>45</ele>
        <time>2026-02-22T13:46:49Z</time>
      </trkpt>
      <trkpt lat="43.16012" lon="3.04124">
        <ele>45</ele>
        <time>2026-02-22T13:46:51Z</time>
      </trkpt>
      <trkpt lat="43.16021" lon="3.04126">
        <ele>45</ele>
        <time>2026-02-22T13:46:53Z</time>
      </trkpt>
      <trkpt lat="43.16029" lon="3.04128">
        <ele>45</ele>
        <time>2026-02-22T13:46:55Z</time>
      </trkpt>
      <trkpt lat="43.16037" lon="3.0413">
        <ele>45</ele>
        <time>2026-02-22T13:46:57Z</time>
      </trkpt>
      <trkpt lat="43.16045" lon="3.04131">
        <ele>45</ele>
        <time>2026-02-22T13:46:59Z</time>
      </trkpt>
      <trkpt lat="43.16053" lon="3.04133">
        <ele>45</ele>
        <time>2026-02-22T13:47:01Z</time>
      </trkpt>
      <trkpt lat="43.16061" lon="3.04135">
        <ele>45</ele>
        <time>2026-02-22T13:47:03Z</time>
      </trkpt>
      <trkpt lat="43.16069" lon="3.04137">
        <ele>44</ele>
        <time>2026-02-22T13:47:05Z</time>
      </trkpt>
      <trkpt lat="43.16078" lon="3.04139">
        <ele>43</ele>
        <time>2026-02-22T13:47:07Z</time>
      </trkpt>
      <trkpt lat="43.16086" lon="3.0414">
        <ele>43</ele>
        <time>2026-02-22T13:47:09Z</time>
      </trkpt>
      <trkpt lat="43.16094" lon="3.04142">
        <ele>43</ele>
        <time>2026-02-22T13:47:11Z</time>
      </trkpt>
      <trkpt lat="43.16103" lon="3.04145">
        <ele>42</ele>
        <time>2026-02-22T13:47:13Z</time>
      </trkpt>
      <trkpt lat="43.16111" lon="3.04146">
        <ele>43</ele>
        <time>2026-02-22T13:47:15Z</time>
      </trkpt>
      <trkpt lat="43.16119" lon="3.04148">
        <ele>44</ele>
        <time>2026-02-22T13:47:17Z</time>
      </trkpt>
      <trkpt lat="43.16127" lon="3.0415">
        <ele>45</ele>
        <time>2026-02-22T13:47:19Z</time>
      </trkpt>
      <trkpt lat="43.16134" lon="3.04153">
        <ele>46</ele>
        <time>2026-02-22T13:47:21Z</time>
      </trkpt>
      <trkpt lat="43.16143" lon="3.04156">
        <ele>47</ele>
        <time>2026-02-22T13:47:23Z</time>
      </trkpt>
      <trkpt lat="43.16153" lon="3.04157">
        <ele>47</ele>
        <time>2026-02-22T13:47:25Z</time>
      </trkpt>
      <trkpt lat="43.16163" lon="3.04153">
        <ele>48</ele>
        <time>2026-02-22T13:47:27Z</time>
      </trkpt>
      <trkpt lat="43.16173" lon="3.04147">
        <ele>48</ele>
        <time>2026-02-22T13:47:29Z</time>
      </trkpt>
      <trkpt lat="43.16181" lon="3.0414">
        <ele>48</ele>
        <time>2026-02-22T13:47:31Z</time>
      </trkpt>
      <trkpt lat="43.16189" lon="3.04133">
        <ele>48</ele>
        <time>2026-02-22T13:47:33Z</time>
      </trkpt>
      <trkpt lat="43.16197" lon="3.04127">
        <ele>48</ele>
        <time>2026-02-22T13:47:35Z</time>
      </trkpt>
      <trkpt lat="43.16204" lon="3.04121">
        <ele>47</ele>
        <time>2026-02-22T13:47:37Z</time>
      </trkpt>
      <trkpt lat="43.16212" lon="3.04114">
        <ele>47</ele>
        <time>2026-02-22T13:47:39Z</time>
      </trkpt>
      <trkpt lat="43.1622" lon="3.04108">
        <ele>47</ele>
        <time>2026-02-22T13:47:41Z</time>
      </trkpt>
      <trkpt lat="43.16227" lon="3.04102">
        <ele>47</ele>
        <time>2026-02-22T13:47:43Z</time>
      </trkpt>
      <trkpt lat="43.16233" lon="3.04097">
        <ele>48</ele>
        <time>2026-02-22T13:47:45Z</time>
      </trkpt>
      <trkpt lat="43.1624" lon="3.04093">
        <ele>48</ele>
        <time>2026-02-22T13:47:47Z</time>
      </trkpt>
      <trkpt lat="43.16248" lon="3.04087">
        <ele>48</ele>
        <time>2026-02-22T13:47:49Z</time>
      </trkpt>
      <trkpt lat="43.16255" lon="3.04081">
        <ele>47</ele>
        <time>2026-02-22T13:47:51Z</time>
      </trkpt>
      <trkpt lat="43.16261" lon="3.04075">
        <ele>46</ele>
        <time>2026-02-22T13:47:53Z</time>
      </trkpt>
      <trkpt lat="43.16268" lon="3.0407">
        <ele>44</ele>
        <time>2026-02-22T13:47:55Z</time>
      </trkpt>
      <trkpt lat="43.16275" lon="3.04065">
        <ele>43</ele>
        <time>2026-02-22T13:47:57Z</time>
      </trkpt>
      <trkpt lat="43.16281" lon="3.04059">
        <ele>42</ele>
        <time>2026-02-22T13:47:59Z</time>
      </trkpt>
      <trkpt lat="43.16287" lon="3.04053">
        <ele>42</ele>
        <time>2026-02-22T13:48:01Z</time>
      </trkpt>
      <trkpt lat="43.16294" lon="3.04049">
        <ele>44</ele>
        <time>2026-02-22T13:48:03Z</time>
      </trkpt>
      <trkpt lat="43.163" lon="3.04045">
        <ele>44</ele>
        <time>2026-02-22T13:48:05Z</time>
      </trkpt>
      <trkpt lat="43.16307" lon="3.0404">
        <ele>45</ele>
        <time>2026-02-22T13:48:07Z</time>
      </trkpt>
      <trkpt lat="43.16313" lon="3.04035">
        <ele>46</ele>
        <time>2026-02-22T13:48:09Z</time>
      </trkpt>
      <trkpt lat="43.16318" lon="3.0403">
        <ele>46</ele>
        <time>2026-02-22T13:48:11Z</time>
      </trkpt>
      <trkpt lat="43.16324" lon="3.04026">
        <ele>47</ele>
        <time>2026-02-22T13:48:13Z</time>
      </trkpt>
      <trkpt lat="43.16329" lon="3.04021">
        <ele>48</ele>
        <time>2026-02-22T13:48:15Z</time>
      </trkpt>
      <trkpt lat="43.16335" lon="3.04017">
        <ele>48</ele>
        <time>2026-02-22T13:48:17Z</time>
      </trkpt>
      <trkpt lat="43.16341" lon="3.04012">
        <ele>48</ele>
        <time>2026-02-22T13:48:19Z</time>
      </trkpt>
      <trkpt lat="43.16348" lon="3.04007">
        <ele>49</ele>
        <time>2026-02-22T13:48:21Z</time>
      </trkpt>
      <trkpt lat="43.16354" lon="3.04002">
        <ele>49</ele>
        <time>2026-02-22T13:48:23Z</time>
      </trkpt>
      <trkpt lat="43.16361" lon="3.03996">
        <ele>49</ele>
        <time>2026-02-22T13:48:25Z</time>
      </trkpt>
      <trkpt lat="43.16368" lon="3.03991">
        <ele>49</ele>
        <time>2026-02-22T13:48:27Z</time>
      </trkpt>
      <trkpt lat="43.16374" lon="3.03987">
        <ele>49</ele>
        <time>2026-02-22T13:48:29Z</time>
      </trkpt>
      <trkpt lat="43.1638" lon="3.03982">
        <ele>49</ele>
        <time>2026-02-22T13:48:31Z</time>
      </trkpt>
      <trkpt lat="43.16386" lon="3.03977">
        <ele>49</ele>
        <time>2026-02-22T13:48:33Z</time>
      </trkpt>
      <trkpt lat="43.16393" lon="3.03973">
        <ele>49</ele>
        <time>2026-02-22T13:48:35Z</time>
      </trkpt>
      <trkpt lat="43.16399" lon="3.03968">
        <ele>49</ele>
        <time>2026-02-22T13:48:37Z</time>
      </trkpt>
      <trkpt lat="43.16404" lon="3.03964">
        <ele>48</ele>
        <time>2026-02-22T13:48:39Z</time>
      </trkpt>
      <trkpt lat="43.16409" lon="3.03961">
        <ele>47</ele>
        <time>2026-02-22T13:48:41Z</time>
      </trkpt>
      <trkpt lat="43.16414" lon="3.03958">
        <ele>47</ele>
        <time>2026-02-22T13:48:43Z</time>
      </trkpt>
      <trkpt lat="43.1642" lon="3.03954">
        <ele>47</ele>
        <time>2026-02-22T13:48:45Z</time>
      </trkpt>
      <trkpt lat="43.16425" lon="3.03951">
        <ele>46</ele>
        <time>2026-02-22T13:48:47Z</time>
      </trkpt>
      <trkpt lat="43.16431" lon="3.03948">
        <ele>46</ele>
        <time>2026-02-22T13:48:49Z</time>
      </trkpt>
      <trkpt lat="43.16437" lon="3.03946">
        <ele>45</ele>
        <time>2026-02-22T13:48:51Z</time>
      </trkpt>
      <trkpt lat="43.16443" lon="3.03942">
        <ele>45</ele>
        <time>2026-02-22T13:48:53Z</time>
      </trkpt>
      <trkpt lat="43.16449" lon="3.03939">
        <ele>46</ele>
        <time>2026-02-22T13:48:55Z</time>
      </trkpt>
      <trkpt lat="43.16456" lon="3.03936">
        <ele>46</ele>
        <time>2026-02-22T13:48:57Z</time>
      </trkpt>
      <trkpt lat="43.16462" lon="3.03933">
        <ele>46</ele>
        <time>2026-02-22T13:48:59Z</time>
      </trkpt>
      <trkpt lat="43.1647" lon="3.03929">
        <ele>46</ele>
        <time>2026-02-22T13:49:01Z</time>
      </trkpt>
      <trkpt lat="43.16478" lon="3.03925">
        <ele>47</ele>
        <time>2026-02-22T13:49:03Z</time>
      </trkpt>
      <trkpt lat="43.16486" lon="3.03921">
        <ele>48</ele>
        <time>2026-02-22T13:49:05Z</time>
      </trkpt>
      <trkpt lat="43.16493" lon="3.03917">
        <ele>47</ele>
        <time>2026-02-22T13:49:07Z</time>
      </trkpt>
      <trkpt lat="43.16499" lon="3.03912">
        <ele>47</ele>
        <time>2026-02-22T13:49:09Z</time>
      </trkpt>
      <trkpt lat="43.16506" lon="3.03908">
        <ele>47</ele>
        <time>2026-02-22T13:49:11Z</time>
      </trkpt>
      <trkpt lat="43.16514" lon="3.03905">
        <ele>47</ele>
        <time>2026-02-22T13:49:13Z</time>
      </trkpt>
      <trkpt lat="43.16522" lon="3.03901">
        <ele>48</ele>
        <time>2026-02-22T13:49:15Z</time>
      </trkpt>
      <trkpt lat="43.16529" lon="3.03898">
        <ele>48</ele>
        <time>2026-02-22T13:49:17Z</time>
      </trkpt>
      <trkpt lat="43.16537" lon="3.03894">
        <ele>48</ele>
        <time>2026-02-22T13:49:19Z</time>
      </trkpt>
      <trkpt lat="43.16544" lon="3.0389">
        <ele>47</ele>
        <time>2026-02-22T13:49:21Z</time>
      </trkpt>
      <trkpt lat="43.16551" lon="3.03886">
        <ele>48</ele>
        <time>2026-02-22T13:49:23Z</time>
      </trkpt>
      <trkpt lat="43.16557" lon="3.03883">
        <ele>48</ele>
        <time>2026-02-22T13:49:25Z</time>
      </trkpt>
      <trkpt lat="43.16564" lon="3.03879">
        <ele>48</ele>
        <time>2026-02-22T13:49:27Z</time>
      </trkpt>
      <trkpt lat="43.16569" lon="3.03875">
        <ele>48</ele>
        <time>2026-02-22T13:49:29Z</time>
      </trkpt>
      <trkpt lat="43.16576" lon="3.03871">
        <ele>48</ele>
        <time>2026-02-22T13:49:31Z</time>
      </trkpt>
      <trkpt lat="43.16583" lon="3.03868">
        <ele>49</ele>
        <time>2026-02-22T13:49:33Z</time>
      </trkpt>
      <trkpt lat="43.1659" lon="3.03865">
        <ele>49</ele>
        <time>2026-02-22T13:49:35Z</time>
      </trkpt>
      <trkpt lat="43.16597" lon="3.03861">
        <ele>50</ele>
        <time>2026-02-22T13:49:37Z</time>
      </trkpt>
      <trkpt lat="43.16604" lon="3.03858">
        <ele>51</ele>
        <time>2026-02-22T13:49:39Z</time>
      </trkpt>
      <trkpt lat="43.16611" lon="3.03854">
        <ele>50</ele>
        <time>2026-02-22T13:49:41Z</time>
      </trkpt>
      <trkpt lat="43.16618" lon="3.0385">
        <ele>50</ele>
        <time>2026-02-22T13:49:43Z</time>
      </trkpt>
      <trkpt lat="43.16625" lon="3.03846">
        <ele>49</ele>
        <time>2026-02-22T13:49:45Z</time>
      </trkpt>
      <trkpt lat="43.16632" lon="3.03841">
        <ele>49</ele>
        <time>2026-02-22T13:49:47Z</time>
      </trkpt>
      <trkpt lat="43.16639" lon="3.03838">
        <ele>49</ele>
        <time>2026-02-22T13:49:49Z</time>
      </trkpt>
      <trkpt lat="43.16646" lon="3.03834">
        <ele>49</ele>
        <time>2026-02-22T13:49:51Z</time>
      </trkpt>
      <trkpt lat="43.16653" lon="3.0383">
        <ele>49</ele>
        <time>2026-02-22T13:49:53Z</time>
      </trkpt>
      <trkpt lat="43.16659" lon="3.03826">
        <ele>48</ele>
        <time>2026-02-22T13:49:55Z</time>
      </trkpt>
      <trkpt lat="43.16666" lon="3.03822">
        <ele>48</ele>
        <time>2026-02-22T13:49:57Z</time>
      </trkpt>
      <trkpt lat="43.16674" lon="3.03819">
        <ele>47</ele>
        <time>2026-02-22T13:49:59Z</time>
      </trkpt>
      <trkpt lat="43.16681" lon="3.03815">
        <ele>47</ele>
        <time>2026-02-22T13:50:01Z</time>
      </trkpt>
      <trkpt lat="43.16688" lon="3.03811">
        <ele>48</ele>
        <time>2026-02-22T13:50:03Z</time>
      </trkpt>
      <trkpt lat="43.16695" lon="3.03808">
        <ele>48</ele>
        <time>2026-02-22T13:50:05Z</time>
      </trkpt>
      <trkpt lat="43.16702" lon="3.03804">
        <ele>48</ele>
        <time>2026-02-22T13:50:07Z</time>
      </trkpt>
      <trkpt lat="43.16709" lon="3.038">
        <ele>48</ele>
        <time>2026-02-22T13:50:09Z</time>
      </trkpt>
      <trkpt lat="43.16716" lon="3.03796">
        <ele>49</ele>
        <time>2026-02-22T13:50:11Z</time>
      </trkpt>
      <trkpt lat="43.16723" lon="3.03792">
        <ele>49</ele>
        <time>2026-02-22T13:50:13Z</time>
      </trkpt>
      <trkpt lat="43.16729" lon="3.03787">
        <ele>50</ele>
        <time>2026-02-22T13:50:15Z</time>
      </trkpt>
      <trkpt lat="43.16736" lon="3.03782">
        <ele>50</ele>
        <time>2026-02-22T13:50:17Z</time>
      </trkpt>
      <trkpt lat="43.16742" lon="3.03779">
        <ele>51</ele>
        <time>2026-02-22T13:50:19Z</time>
      </trkpt>
      <trkpt lat="43.16749" lon="3.03776">
        <ele>52</ele>
        <time>2026-02-22T13:50:21Z</time>
      </trkpt>
      <trkpt lat="43.16757" lon="3.03773">
        <ele>52</ele>
        <time>2026-02-22T13:50:23Z</time>
      </trkpt>
      <trkpt lat="43.16765" lon="3.03769">
        <ele>51</ele>
        <time>2026-02-22T13:50:25Z</time>
      </trkpt>
      <trkpt lat="43.16772" lon="3.03765">
        <ele>51</ele>
        <time>2026-02-22T13:50:27Z</time>
      </trkpt>
      <trkpt lat="43.16779" lon="3.03761">
        <ele>50</ele>
        <time>2026-02-22T13:50:29Z</time>
      </trkpt>
      <trkpt lat="43.16786" lon="3.03758">
        <ele>49</ele>
        <time>2026-02-22T13:50:31Z</time>
      </trkpt>
      <trkpt lat="43.16792" lon="3.03754">
        <ele>49</ele>
        <time>2026-02-22T13:50:33Z</time>
      </trkpt>
      <trkpt lat="43.16799" lon="3.03751">
        <ele>49</ele>
        <time>2026-02-22T13:50:35Z</time>
      </trkpt>
      <trkpt lat="43.16805" lon="3.03747">
        <ele>49</ele>
        <time>2026-02-22T13:50:37Z</time>
      </trkpt>
      <trkpt lat="43.16811" lon="3.03744">
        <ele>49</ele>
        <time>2026-02-22T13:50:39Z</time>
      </trkpt>
      <trkpt lat="43.16818" lon="3.0374">
        <ele>49</ele>
        <time>2026-02-22T13:50:41Z</time>
      </trkpt>
      <trkpt lat="43.16825" lon="3.03737">
        <ele>49</ele>
        <time>2026-02-22T13:50:43Z</time>
      </trkpt>
      <trkpt lat="43.16832" lon="3.03733">
        <ele>49</ele>
        <time>2026-02-22T13:50:45Z</time>
      </trkpt>
      <trkpt lat="43.16839" lon="3.03729">
        <ele>49</ele>
        <time>2026-02-22T13:50:47Z</time>
      </trkpt>
      <trkpt lat="43.16845" lon="3.03726">
        <ele>50</ele>
        <time>2026-02-22T13:50:49Z</time>
      </trkpt>
      <trkpt lat="43.16851" lon="3.03722">
        <ele>51</ele>
        <time>2026-02-22T13:50:51Z</time>
      </trkpt>
      <trkpt lat="43.16856" lon="3.03719">
        <ele>51</ele>
        <time>2026-02-22T13:50:53Z</time>
      </trkpt>
      <trkpt lat="43.16862" lon="3.03716">
        <ele>51</ele>
        <time>2026-02-22T13:50:55Z</time>
      </trkpt>
      <trkpt lat="43.16867" lon="3.03714">
        <ele>51</ele>
        <time>2026-02-22T13:50:57Z</time>
      </trkpt>
      <trkpt lat="43.16873" lon="3.0371">
        <ele>50</ele>
        <time>2026-02-22T13:50:59Z</time>
      </trkpt>
      <trkpt lat="43.16878" lon="3.03707">
        <ele>51</ele>
        <time>2026-02-22T13:51:01Z</time>
      </trkpt>
      <trkpt lat="43.16884" lon="3.03704">
        <ele>51</ele>
        <time>2026-02-22T13:51:03Z</time>
      </trkpt>
      <trkpt lat="43.1689" lon="3.03701">
        <ele>50</ele>
        <time>2026-02-22T13:51:05Z</time>
      </trkpt>
      <trkpt lat="43.16895" lon="3.03697">
        <ele>49</ele>
        <time>2026-02-22T13:51:07Z</time>
      </trkpt>
      <trkpt lat="43.169" lon="3.03693">
        <ele>48</ele>
        <time>2026-02-22T13:51:09Z</time>
      </trkpt>
      <trkpt lat="43.16906" lon="3.03691">
        <ele>48</ele>
        <time>2026-02-22T13:51:11Z</time>
      </trkpt>
      <trkpt lat="43.16912" lon="3.03688">
        <ele>48</ele>
        <time>2026-02-22T13:51:13Z</time>
      </trkpt>
      <trkpt lat="43.16917" lon="3.03687">
        <ele>48</ele>
        <time>2026-02-22T13:51:15Z</time>
      </trkpt>
      <trkpt lat="43.16922" lon="3.03688">
        <ele>48</ele>
        <time>2026-02-22T13:51:17Z</time>
      </trkpt>
      <trkpt lat="43.16924" lon="3.0369">
        <ele>48</ele>
        <time>2026-02-22T13:51:19Z</time>
      </trkpt>
      <trkpt lat="43.16924" lon="3.03691">
        <ele>48</ele>
        <time>2026-02-22T13:51:21Z</time>
      </trkpt>
      <trkpt lat="43.16924" lon="3.03691">
        <ele>49</ele>
        <time>2026-02-22T13:51:23Z</time>
      </trkpt>
      <trkpt lat="43.16924" lon="3.03691">
        <ele>49</ele>
        <time>2026-02-22T13:51:25Z</time>
      </trkpt>
      <trkpt lat="43.16924" lon="3.03691">
        <ele>50</ele>
        <time>2026-02-22T13:51:27Z</time>
      </trkpt>
      <trkpt lat="43.16924" lon="3.03691">
        <ele>50</ele>
        <time>2026-02-22T13:51:29Z</time>
      </trkpt>
      <trkpt lat="43.16924" lon="3.03691">
        <ele>50</ele>
        <time>2026-02-22T13:51:31Z</time>
      </trkpt>
      <trkpt lat="43.16924" lon="3.03691">
        <ele>50</ele>
        <time>2026-02-22T13:51:33Z</time>
      </trkpt>
      <trkpt lat="43.16924" lon="3.03691">
        <ele>50</ele>
        <time>2026-02-22T13:51:35Z</time>
      </trkpt>
      <trkpt lat="43.16924" lon="3.03691">
        <ele>50</ele>
        <time>2026-02-22T13:51:37Z</time>
      </trkpt>
      <trkpt lat="43.16924" lon="3.03691">
        <ele>50</ele>
        <time>2026-02-22T13:51:39Z</time>
      </trkpt>
      <trkpt lat="43.16924" lon="3.03691">
        <ele>50</ele>
        <time>2026-02-22T13:51:41Z</time>
      </trkpt>
      <trkpt lat="43.16924" lon="3.03691">
        <ele>50</ele>
        <time>2026-02-22T13:51:43Z</time>
      </trkpt>
      <trkpt lat="43.16924" lon="3.03691">
        <ele>50</ele>
        <time>2026-02-22T13:51:45Z</time>
      </trkpt>
      <trkpt lat="43.16924" lon="3.03691">
        <ele>50</ele>
        <time>2026-02-22T13:51:47Z</time>
      </trkpt>
      <trkpt lat="43.16924" lon="3.03691">
        <ele>50</ele>
        <time>2026-02-22T13:51:49Z</time>
      </trkpt>
      <trkpt lat="43.16924" lon="3.03691">
        <ele>50</ele>
        <time>2026-02-22T13:51:51Z</time>
      </trkpt>
      <trkpt lat="43.16924" lon="3.03691">
        <ele>50</ele>
        <time>2026-02-22T13:51:53Z</time>
      </trkpt>
      <trkpt lat="43.16924" lon="3.03691">
        <ele>50</ele>
        <time>2026-02-22T13:51:55Z</time>
      </trkpt>
      <trkpt lat="43.16924" lon="3.03691">
        <ele>50</ele>
        <time>2026-02-22T13:51:57Z</time>
      </trkpt>
      <trkpt lat="43.16924" lon="3.03691">
        <ele>50</ele>
        <time>2026-02-22T13:51:59Z</time>
      </trkpt>
      <trkpt lat="43.16924" lon="3.03691">
        <ele>50</ele>
        <time>2026-02-22T13:52:01Z</time>
      </trkpt>
      <trkpt lat="43.16924" lon="3.03691">
        <ele>50</ele>
        <time>2026-02-22T13:52:03Z</time>
      </trkpt>
      <trkpt lat="43.16924" lon="3.03691">
        <ele>50</ele>
        <time>2026-02-22T13:52:05Z</time>
      </trkpt>
      <trkpt lat="43.16924" lon="3.03691">
        <ele>50</ele>
        <time>2026-02-22T13:52:07Z</time>
      </trkpt>
      <trkpt lat="43.16924" lon="3.03691">
        <ele>50</ele>
        <time>2026-02-22T13:52:09Z</time>
      </trkpt>
      <trkpt lat="43.16924" lon="3.03691">
        <ele>50</ele>
        <time>2026-02-22T13:52:11Z</time>
      </trkpt>
      <trkpt lat="43.16924" lon="3.03691">
        <ele>50</ele>
        <time>2026-02-22T13:52:13Z</time>
      </trkpt>
      <trkpt lat="43.16924" lon="3.03691">
        <ele>50</ele>
        <time>2026-02-22T13:52:15Z</time>
      </trkpt>
      <trkpt lat="43.16924" lon="3.03691">
        <ele>50</ele>
        <time>2026-02-22T13:52:17Z</time>
      </trkpt>
      <trkpt lat="43.16924" lon="3.03691">
        <ele>50</ele>
        <time>2026-02-22T13:52:19Z</time>
      </trkpt>
      <trkpt lat="43.16924" lon="3.03691">
        <ele>50</ele>
        <time>2026-02-22T13:52:21Z</time>
      </trkpt>
      <trkpt lat="43.1693" lon="3.03692">
        <ele>50</ele>
        <time>2026-02-22T13:52:23Z</time>
      </trkpt>
      <trkpt lat="43.16934" lon="3.0369">
        <ele>50</ele>
        <time>2026-02-22T13:52:25Z</time>
      </trkpt>
      <trkpt lat="43.16939" lon="3.03685">
        <ele>50</ele>
        <time>2026-02-22T13:52:27Z</time>
      </trkpt>
      <trkpt lat="43.16944" lon="3.03678">
        <ele>50</ele>
        <time>2026-02-22T13:52:29Z</time>
      </trkpt>
      <trkpt lat="43.1695" lon="3.03672">
        <ele>50</ele>
        <time>2026-02-22T13:52:31Z</time>
      </trkpt>
      <trkpt lat="43.16956" lon="3.03665">
        <ele>49</ele>
        <time>2026-02-22T13:52:33Z</time>
      </trkpt>
      <trkpt lat="43.16962" lon="3.03658">
        <ele>48</ele>
        <time>2026-02-22T13:52:35Z</time>
      </trkpt>
      <trkpt lat="43.16968" lon="3.03651">
        <ele>48</ele>
        <time>2026-02-22T13:52:37Z</time>
      </trkpt>
      <trkpt lat="43.16973" lon="3.03645">
        <ele>47</ele>
        <time>2026-02-22T13:52:39Z</time>
      </trkpt>
      <trkpt lat="43.16979" lon="3.03638">
        <ele>47</ele>
        <time>2026-02-22T13:52:41Z</time>
      </trkpt>
      <trkpt lat="43.16985" lon="3.03631">
        <ele>46</ele>
        <time>2026-02-22T13:52:43Z</time>
      </trkpt>
      <trkpt lat="43.16991" lon="3.03624">
        <ele>47</ele>
        <time>2026-02-22T13:52:45Z</time>
      </trkpt>
      <trkpt lat="43.16996" lon="3.03616">
        <ele>47</ele>
        <time>2026-02-22T13:52:47Z</time>
      </trkpt>
      <trkpt lat="43.17002" lon="3.03608">
        <ele>47</ele>
        <time>2026-02-22T13:52:49Z</time>
      </trkpt>
      <trkpt lat="43.17008" lon="3.036">
        <ele>47</ele>
        <time>2026-02-22T13:52:51Z</time>
      </trkpt>
      <trkpt lat="43.17014" lon="3.03592">
        <ele>46</ele>
        <time>2026-02-22T13:52:53Z</time>
      </trkpt>
      <trkpt lat="43.1702" lon="3.03584">
        <ele>46</ele>
        <time>2026-02-22T13:52:55Z</time>
      </trkpt>
      <trkpt lat="43.17026" lon="3.03576">
        <ele>46</ele>
        <time>2026-02-22T13:52:57Z</time>
      </trkpt>
      <trkpt lat="43.17032" lon="3.03569">
        <ele>46</ele>
        <time>2026-02-22T13:52:59Z</time>
      </trkpt>
      <trkpt lat="43.17038" lon="3.03561">
        <ele>46</ele>
        <time>2026-02-22T13:53:01Z</time>
      </trkpt>
      <trkpt lat="43.17044" lon="3.03554">
        <ele>46</ele>
        <time>2026-02-22T13:53:03Z</time>
      </trkpt>
      <trkpt lat="43.1705" lon="3.03546">
        <ele>46</ele>
        <time>2026-02-22T13:53:05Z</time>
      </trkpt>
      <trkpt lat="43.17056" lon="3.03538">
        <ele>46</ele>
        <time>2026-02-22T13:53:07Z</time>
      </trkpt>
      <trkpt lat="43.17062" lon="3.0353">
        <ele>46</ele>
        <time>2026-02-22T13:53:09Z</time>
      </trkpt>
      <trkpt lat="43.17068" lon="3.03522">
        <ele>46</ele>
        <time>2026-02-22T13:53:11Z</time>
      </trkpt>
      <trkpt lat="43.17074" lon="3.03514">
        <ele>47</ele>
        <time>2026-02-22T13:53:13Z</time>
      </trkpt>
      <trkpt lat="43.1708" lon="3.03506">
        <ele>47</ele>
        <time>2026-02-22T13:53:15Z</time>
      </trkpt>
      <trkpt lat="43.17087" lon="3.03498">
        <ele>48</ele>
        <time>2026-02-22T13:53:17Z</time>
      </trkpt>
      <trkpt lat="43.17093" lon="3.0349">
        <ele>48</ele>
        <time>2026-02-22T13:53:19Z</time>
      </trkpt>
      <trkpt lat="43.17099" lon="3.03482">
        <ele>47</ele>
        <time>2026-02-22T13:53:21Z</time>
      </trkpt>
      <trkpt lat="43.17105" lon="3.03475">
        <ele>47</ele>
        <time>2026-02-22T13:53:23Z</time>
      </trkpt>
      <trkpt lat="43.17112" lon="3.03468">
        <ele>47</ele>
        <time>2026-02-22T13:53:25Z</time>
      </trkpt>
      <trkpt lat="43.17118" lon="3.03461">
        <ele>47</ele>
        <time>2026-02-22T13:53:27Z</time>
      </trkpt>
      <trkpt lat="43.17124" lon="3.03455">
        <ele>47</ele>
        <time>2026-02-22T13:53:29Z</time>
      </trkpt>
      <trkpt lat="43.1713" lon="3.03449">
        <ele>47</ele>
        <time>2026-02-22T13:53:31Z</time>
      </trkpt>
      <trkpt lat="43.17136" lon="3.03443">
        <ele>47</ele>
        <time>2026-02-22T13:53:33Z</time>
      </trkpt>
      <trkpt lat="43.17142" lon="3.03437">
        <ele>46</ele>
        <time>2026-02-22T13:53:35Z</time>
      </trkpt>
      <trkpt lat="43.17148" lon="3.03431">
        <ele>47</ele>
        <time>2026-02-22T13:53:37Z</time>
      </trkpt>
      <trkpt lat="43.17154" lon="3.03425">
        <ele>47</ele>
        <time>2026-02-22T13:53:39Z</time>
      </trkpt>
      <trkpt lat="43.1716" lon="3.03418">
        <ele>47</ele>
        <time>2026-02-22T13:53:41Z</time>
      </trkpt>
      <trkpt lat="43.17166" lon="3.03412">
        <ele>47</ele>
        <time>2026-02-22T13:53:43Z</time>
      </trkpt>
      <trkpt lat="43.17172" lon="3.03406">
        <ele>47</ele>
        <time>2026-02-22T13:53:45Z</time>
      </trkpt>
      <trkpt lat="43.17177" lon="3.034">
        <ele>47</ele>
        <time>2026-02-22T13:53:47Z</time>
      </trkpt>
      <trkpt lat="43.17183" lon="3.03393">
        <ele>47</ele>
        <time>2026-02-22T13:53:49Z</time>
      </trkpt>
      <trkpt lat="43.17189" lon="3.03386">
        <ele>47</ele>
        <time>2026-02-22T13:53:51Z</time>
      </trkpt>
      <trkpt lat="43.17194" lon="3.0338">
        <ele>47</ele>
        <time>2026-02-22T13:53:53Z</time>
      </trkpt>
      <trkpt lat="43.172" lon="3.03374">
        <ele>47</ele>
        <time>2026-02-22T13:53:55Z</time>
      </trkpt>
      <trkpt lat="43.17205" lon="3.03367">
        <ele>47</ele>
        <time>2026-02-22T13:53:57Z</time>
      </trkpt>
      <trkpt lat="43.1721" lon="3.03359">
        <ele>47</ele>
        <time>2026-02-22T13:53:59Z</time>
      </trkpt>
      <trkpt lat="43.17216" lon="3.03351">
        <ele>47</ele>
        <time>2026-02-22T13:54:01Z</time>
      </trkpt>
      <trkpt lat="43.17222" lon="3.03343">
        <ele>47</ele>
        <time>2026-02-22T13:54:03Z</time>
      </trkpt>
      <trkpt lat="43.17227" lon="3.03335">
        <ele>47</ele>
        <time>2026-02-22T13:54:05Z</time>
      </trkpt>
      <trkpt lat="43.17232" lon="3.03326">
        <ele>47</ele>
        <time>2026-02-22T13:54:07Z</time>
      </trkpt>
      <trkpt lat="43.17238" lon="3.03317">
        <ele>47</ele>
        <time>2026-02-22T13:54:09Z</time>
      </trkpt>
      <trkpt lat="43.17243" lon="3.03307">
        <ele>47</ele>
        <time>2026-02-22T13:54:11Z</time>
      </trkpt>
      <trkpt lat="43.17248" lon="3.03297">
        <ele>47</ele>
        <time>2026-02-22T13:54:13Z</time>
      </trkpt>
      <trkpt lat="43.17252" lon="3.03287">
        <ele>47</ele>
        <time>2026-02-22T13:54:15Z</time>
      </trkpt>
      <trkpt lat="43.17257" lon="3.03277">
        <ele>47</ele>
        <time>2026-02-22T13:54:17Z</time>
      </trkpt>
      <trkpt lat="43.17261" lon="3.03267">
        <ele>47</ele>
        <time>2026-02-22T13:54:19Z</time>
      </trkpt>
      <trkpt lat="43.17264" lon="3.03257">
        <ele>47</ele>
        <time>2026-02-22T13:54:21Z</time>
      </trkpt>
      <trkpt lat="43.17268" lon="3.03247">
        <ele>47</ele>
        <time>2026-02-22T13:54:23Z</time>
      </trkpt>
      <trkpt lat="43.17272" lon="3.03237">
        <ele>47</ele>
        <time>2026-02-22T13:54:25Z</time>
      </trkpt>
      <trkpt lat="43.17275" lon="3.03227">
        <ele>47</ele>
        <time>2026-02-22T13:54:27Z</time>
      </trkpt>
      <trkpt lat="43.17279" lon="3.03218">
        <ele>47</ele>
        <time>2026-02-22T13:54:29Z</time>
      </trkpt>
      <trkpt lat="43.17282" lon="3.03208">
        <ele>48</ele>
        <time>2026-02-22T13:54:31Z</time>
      </trkpt>
      <trkpt lat="43.17286" lon="3.03199">
        <ele>48</ele>
        <time>2026-02-22T13:54:33Z</time>
      </trkpt>
      <trkpt lat="43.1729" lon="3.0319">
        <ele>48</ele>
        <time>2026-02-22T13:54:35Z</time>
      </trkpt>
      <trkpt lat="43.17293" lon="3.03181">
        <ele>48</ele>
        <time>2026-02-22T13:54:37Z</time>
      </trkpt>
      <trkpt lat="43.17296" lon="3.03171">
        <ele>49</ele>
        <time>2026-02-22T13:54:39Z</time>
      </trkpt>
      <trkpt lat="43.17299" lon="3.03162">
        <ele>48</ele>
        <time>2026-02-22T13:54:41Z</time>
      </trkpt>
      <trkpt lat="43.17302" lon="3.03152">
        <ele>48</ele>
        <time>2026-02-22T13:54:43Z</time>
      </trkpt>
      <trkpt lat="43.17304" lon="3.03142">
        <ele>48</ele>
        <time>2026-02-22T13:54:45Z</time>
      </trkpt>
      <trkpt lat="43.17307" lon="3.03132">
        <ele>48</ele>
        <time>2026-02-22T13:54:47Z</time>
      </trkpt>
      <trkpt lat="43.1731" lon="3.03121">
        <ele>48</ele>
        <time>2026-02-22T13:54:49Z</time>
      </trkpt>
      <trkpt lat="43.17313" lon="3.03112">
        <ele>47</ele>
        <time>2026-02-22T13:54:51Z</time>
      </trkpt>
      <trkpt lat="43.17315" lon="3.03102">
        <ele>47</ele>
        <time>2026-02-22T13:54:53Z</time>
      </trkpt>
      <trkpt lat="43.17318" lon="3.03092">
        <ele>47</ele>
        <time>2026-02-22T13:54:55Z</time>
      </trkpt>
      <trkpt lat="43.17321" lon="3.03082">
        <ele>47</ele>
        <time>2026-02-22T13:54:57Z</time>
      </trkpt>
      <trkpt lat="43.17324" lon="3.03072">
        <ele>47</ele>
        <time>2026-02-22T13:54:59Z</time>
      </trkpt>
      <trkpt lat="43.17327" lon="3.03062">
        <ele>47</ele>
        <time>2026-02-22T13:55:01Z</time>
      </trkpt>
      <trkpt lat="43.17329" lon="3.03052">
        <ele>47</ele>
        <time>2026-02-22T13:55:03Z</time>
      </trkpt>
      <trkpt lat="43.17332" lon="3.03042">
        <ele>47</ele>
        <time>2026-02-22T13:55:05Z</time>
      </trkpt>
      <trkpt lat="43.17335" lon="3.03032">
        <ele>47</ele>
        <time>2026-02-22T13:55:07Z</time>
      </trkpt>
      <trkpt lat="43.17338" lon="3.03022">
        <ele>47</ele>
        <time>2026-02-22T13:55:09Z</time>
      </trkpt>
      <trkpt lat="43.17341" lon="3.03012">
        <ele>48</ele>
        <time>2026-02-22T13:55:11Z</time>
      </trkpt>
      <trkpt lat="43.17344" lon="3.03001">
        <ele>48</ele>
        <time>2026-02-22T13:55:13Z</time>
      </trkpt>
      <trkpt lat="43.17347" lon="3.02991">
        <ele>48</ele>
        <time>2026-02-22T13:55:15Z</time>
      </trkpt>
      <trkpt lat="43.1735" lon="3.0298">
        <ele>48</ele>
        <time>2026-02-22T13:55:17Z</time>
      </trkpt>
      <trkpt lat="43.17354" lon="3.0297">
        <ele>48</ele>
        <time>2026-02-22T13:55:19Z</time>
      </trkpt>
      <trkpt lat="43.17357" lon="3.02959">
        <ele>48</ele>
        <time>2026-02-22T13:55:21Z</time>
      </trkpt>
      <trkpt lat="43.1736" lon="3.02948">
        <ele>48</ele>
        <time>2026-02-22T13:55:23Z</time>
      </trkpt>
      <trkpt lat="43.17364" lon="3.02937">
        <ele>48</ele>
        <time>2026-02-22T13:55:25Z</time>
      </trkpt>
      <trkpt lat="43.17368" lon="3.02927">
        <ele>48</ele>
        <time>2026-02-22T13:55:27Z</time>
      </trkpt>
      <trkpt lat="43.17372" lon="3.02916">
        <ele>48</ele>
        <time>2026-02-22T13:55:29Z</time>
      </trkpt>
      <trkpt lat="43.17375" lon="3.02906">
        <ele>48</ele>
        <time>2026-02-22T13:55:31Z</time>
      </trkpt>
      <trkpt lat="43.17379" lon="3.02897">
        <ele>48</ele>
        <time>2026-02-22T13:55:33Z</time>
      </trkpt>
      <trkpt lat="43.17383" lon="3.02887">
        <ele>47</ele>
        <time>2026-02-22T13:55:35Z</time>
      </trkpt>
      <trkpt lat="43.17387" lon="3.02878">
        <ele>47</ele>
        <time>2026-02-22T13:55:37Z</time>
      </trkpt>
      <trkpt lat="43.17391" lon="3.02868">
        <ele>46</ele>
        <time>2026-02-22T13:55:39Z</time>
      </trkpt>
      <trkpt lat="43.17396" lon="3.02858">
        <ele>46</ele>
        <time>2026-02-22T13:55:41Z</time>
      </trkpt>
      <trkpt lat="43.174" lon="3.02849">
        <ele>46</ele>
        <time>2026-02-22T13:55:43Z</time>
      </trkpt>
      <trkpt lat="43.17405" lon="3.0284">
        <ele>46</ele>
        <time>2026-02-22T13:55:45Z</time>
      </trkpt>
      <trkpt lat="43.17409" lon="3.02831">
        <ele>46</ele>
        <time>2026-02-22T13:55:47Z</time>
      </trkpt>
      <trkpt lat="43.17414" lon="3.02822">
        <ele>45</ele>
        <time>2026-02-22T13:55:49Z</time>
      </trkpt>
      <trkpt lat="43.17419" lon="3.02813">
        <ele>46</ele>
        <time>2026-02-22T13:55:51Z</time>
      </trkpt>
      <trkpt lat="43.17424" lon="3.02804">
        <ele>45</ele>
        <time>2026-02-22T13:55:53Z</time>
      </trkpt>
      <trkpt lat="43.17429" lon="3.02797">
        <ele>45</ele>
        <time>2026-02-22T13:55:55Z</time>
      </trkpt>
      <trkpt lat="43.17434" lon="3.02788">
        <ele>45</ele>
        <time>2026-02-22T13:55:57Z</time>
      </trkpt>
      <trkpt lat="43.17438" lon="3.02779">
        <ele>45</ele>
        <time>2026-02-22T13:55:59Z</time>
      </trkpt>
      <trkpt lat="43.17443" lon="3.02771">
        <ele>44</ele>
        <time>2026-02-22T13:56:01Z</time>
      </trkpt>
      <trkpt lat="43.17448" lon="3.02763">
        <ele>44</ele>
        <time>2026-02-22T13:56:03Z</time>
      </trkpt>
      <trkpt lat="43.17453" lon="3.02756">
        <ele>46</ele>
        <time>2026-02-22T13:56:05Z</time>
      </trkpt>
      <trkpt lat="43.17457" lon="3.02749">
        <ele>46</ele>
        <time>2026-02-22T13:56:07Z</time>
      </trkpt>
      <trkpt lat="43.17462" lon="3.02741">
        <ele>46</ele>
        <time>2026-02-22T13:56:09Z</time>
      </trkpt>
      <trkpt lat="43.17468" lon="3.02735">
        <ele>47</ele>
        <time>2026-02-22T13:56:11Z</time>
      </trkpt>
      <trkpt lat="43.17473" lon="3.02728">
        <ele>47</ele>
        <time>2026-02-22T13:56:13Z</time>
      </trkpt>
      <trkpt lat="43.17478" lon="3.02722">
        <ele>48</ele>
        <time>2026-02-22T13:56:15Z</time>
      </trkpt>
      <trkpt lat="43.17484" lon="3.02716">
        <ele>49</ele>
        <time>2026-02-22T13:56:17Z</time>
      </trkpt>
      <trkpt lat="43.17488" lon="3.0271">
        <ele>49</ele>
        <time>2026-02-22T13:56:19Z</time>
      </trkpt>
      <trkpt lat="43.17493" lon="3.02704">
        <ele>49</ele>
        <time>2026-02-22T13:56:21Z</time>
      </trkpt>
      <trkpt lat="43.17498" lon="3.02699">
        <ele>50</ele>
        <time>2026-02-22T13:56:23Z</time>
      </trkpt>
      <trkpt lat="43.17503" lon="3.02693">
        <ele>50</ele>
        <time>2026-02-22T13:56:25Z</time>
      </trkpt>
      <trkpt lat="43.17508" lon="3.02687">
        <ele>50</ele>
        <time>2026-02-22T13:56:27Z</time>
      </trkpt>
      <trkpt lat="43.17513" lon="3.02681">
        <ele>51</ele>
        <time>2026-02-22T13:56:29Z</time>
      </trkpt>
      <trkpt lat="43.17518" lon="3.02675">
        <ele>51</ele>
        <time>2026-02-22T13:56:31Z</time>
      </trkpt>
      <trkpt lat="43.17523" lon="3.02669">
        <ele>52</ele>
        <time>2026-02-22T13:56:33Z</time>
      </trkpt>
      <trkpt lat="43.17527" lon="3.02664">
        <ele>52</ele>
        <time>2026-02-22T13:56:35Z</time>
      </trkpt>
      <trkpt lat="43.17532" lon="3.02658">
        <ele>52</ele>
        <time>2026-02-22T13:56:37Z</time>
      </trkpt>
      <trkpt lat="43.17537" lon="3.02653">
        <ele>52</ele>
        <time>2026-02-22T13:56:39Z</time>
      </trkpt>
      <trkpt lat="43.17542" lon="3.02647">
        <ele>52</ele>
        <time>2026-02-22T13:56:41Z</time>
      </trkpt>
      <trkpt lat="43.17548" lon="3.02645">
        <ele>52</ele>
        <time>2026-02-22T13:56:43Z</time>
      </trkpt>
      <trkpt lat="43.17554" lon="3.02645">
        <ele>52</ele>
        <time>2026-02-22T13:56:45Z</time>
      </trkpt>
      <trkpt lat="43.1756" lon="3.02646">
        <ele>52</ele>
        <time>2026-02-22T13:56:47Z</time>
      </trkpt>
      <trkpt lat="43.17566" lon="3.02646">
        <ele>53</ele>
        <time>2026-02-22T13:56:49Z</time>
      </trkpt>
      <trkpt lat="43.17571" lon="3.02644">
        <ele>53</ele>
        <time>2026-02-22T13:56:51Z</time>
      </trkpt>
      <trkpt lat="43.17576" lon="3.0264">
        <ele>52</ele>
        <time>2026-02-22T13:56:53Z</time>
      </trkpt>
      <trkpt lat="43.1758" lon="3.02633">
        <ele>52</ele>
        <time>2026-02-22T13:56:55Z</time>
      </trkpt>
      <trkpt lat="43.17583" lon="3.02623">
        <ele>51</ele>
        <time>2026-02-22T13:56:57Z</time>
      </trkpt>
      <trkpt lat="43.17584" lon="3.02614">
        <ele>51</ele>
        <time>2026-02-22T13:56:59Z</time>
      </trkpt>
      <trkpt lat="43.17584" lon="3.02605">
        <ele>51</ele>
        <time>2026-02-22T13:57:01Z</time>
      </trkpt>
      <trkpt lat="43.17583" lon="3.02596">
        <ele>51</ele>
        <time>2026-02-22T13:57:03Z</time>
      </trkpt>
      <trkpt lat="43.17585" lon="3.02587">
        <ele>51</ele>
        <time>2026-02-22T13:57:05Z</time>
      </trkpt>
      <trkpt lat="43.17588" lon="3.02578">
        <ele>51</ele>
        <time>2026-02-22T13:57:07Z</time>
      </trkpt>
      <trkpt lat="43.17593" lon="3.0257">
        <ele>51</ele>
        <time>2026-02-22T13:57:09Z</time>
      </trkpt>
      <trkpt lat="43.17598" lon="3.02562">
        <ele>51</ele>
        <time>2026-02-22T13:57:11Z</time>
      </trkpt>
      <trkpt lat="43.17603" lon="3.02553">
        <ele>51</ele>
        <time>2026-02-22T13:57:13Z</time>
      </trkpt>
      <trkpt lat="43.17609" lon="3.02544">
        <ele>50</ele>
        <time>2026-02-22T13:57:15Z</time>
      </trkpt>
      <trkpt lat="43.17613" lon="3.02535">
        <ele>50</ele>
        <time>2026-02-22T13:57:17Z</time>
      </trkpt>
      <trkpt lat="43.17618" lon="3.02527">
        <ele>50</ele>
        <time>2026-02-22T13:57:19Z</time>
      </trkpt>
      <trkpt lat="43.17623" lon="3.02519">
        <ele>50</ele>
        <time>2026-02-22T13:57:21Z</time>
      </trkpt>
      <trkpt lat="43.17627" lon="3.02511">
        <ele>50</ele>
        <time>2026-02-22T13:57:23Z</time>
      </trkpt>
      <trkpt lat="43.17631" lon="3.02504">
        <ele>50</ele>
        <time>2026-02-22T13:57:25Z</time>
      </trkpt>
      <trkpt lat="43.17635" lon="3.02497">
        <ele>50</ele>
        <time>2026-02-22T13:57:27Z</time>
      </trkpt>
      <trkpt lat="43.17639" lon="3.0249">
        <ele>51</ele>
        <time>2026-02-22T13:57:29Z</time>
      </trkpt>
      <trkpt lat="43.17643" lon="3.02484">
        <ele>51</ele>
        <time>2026-02-22T13:57:31Z</time>
      </trkpt>
      <trkpt lat="43.17646" lon="3.02478">
        <ele>51</ele>
        <time>2026-02-22T13:57:33Z</time>
      </trkpt>
      <trkpt lat="43.17649" lon="3.02471">
        <ele>51</ele>
        <time>2026-02-22T13:57:35Z</time>
      </trkpt>
      <trkpt lat="43.1765" lon="3.02463">
        <ele>51</ele>
        <time>2026-02-22T13:57:37Z</time>
      </trkpt>
      <trkpt lat="43.17652" lon="3.02454">
        <ele>51</ele>
        <time>2026-02-22T13:57:39Z</time>
      </trkpt>
      <trkpt lat="43.17656" lon="3.02446">
        <ele>51</ele>
        <time>2026-02-22T13:57:41Z</time>
      </trkpt>
      <trkpt lat="43.17661" lon="3.02438">
        <ele>51</ele>
        <time>2026-02-22T13:57:43Z</time>
      </trkpt>
      <trkpt lat="43.17666" lon="3.0243">
        <ele>50</ele>
        <time>2026-02-22T13:57:45Z</time>
      </trkpt>
      <trkpt lat="43.17671" lon="3.02422">
        <ele>50</ele>
        <time>2026-02-22T13:57:47Z</time>
      </trkpt>
      <trkpt lat="43.17676" lon="3.02414">
        <ele>50</ele>
        <time>2026-02-22T13:57:49Z</time>
      </trkpt>
      <trkpt lat="43.1768" lon="3.02405">
        <ele>50</ele>
        <time>2026-02-22T13:57:51Z</time>
      </trkpt>
      <trkpt lat="43.17685" lon="3.02398">
        <ele>50</ele>
        <time>2026-02-22T13:57:53Z</time>
      </trkpt>
      <trkpt lat="43.1769" lon="3.0239">
        <ele>49</ele>
        <time>2026-02-22T13:57:55Z</time>
      </trkpt>
      <trkpt lat="43.17694" lon="3.02383">
        <ele>49</ele>
        <time>2026-02-22T13:57:57Z</time>
      </trkpt>
      <trkpt lat="43.17699" lon="3.02375">
        <ele>49</ele>
        <time>2026-02-22T13:57:59Z</time>
      </trkpt>
      <trkpt lat="43.17704" lon="3.02367">
        <ele>49</ele>
        <time>2026-02-22T13:58:01Z</time>
      </trkpt>
      <trkpt lat="43.17709" lon="3.0236">
        <ele>50</ele>
        <time>2026-02-22T13:58:03Z</time>
      </trkpt>
      <trkpt lat="43.17714" lon="3.02352">
        <ele>50</ele>
        <time>2026-02-22T13:58:05Z</time>
      </trkpt>
      <trkpt lat="43.17718" lon="3.02345">
        <ele>50</ele>
        <time>2026-02-22T13:58:07Z</time>
      </trkpt>
      <trkpt lat="43.17722" lon="3.02338">
        <ele>50</ele>
        <time>2026-02-22T13:58:09Z</time>
      </trkpt>
      <trkpt lat="43.17727" lon="3.02331">
        <ele>50</ele>
        <time>2026-02-22T13:58:11Z</time>
      </trkpt>
      <trkpt lat="43.17731" lon="3.02323">
        <ele>50</ele>
        <time>2026-02-22T13:58:13Z</time>
      </trkpt>
      <trkpt lat="43.17736" lon="3.02315">
        <ele>50</ele>
        <time>2026-02-22T13:58:15Z</time>
      </trkpt>
      <trkpt lat="43.17741" lon="3.02308">
        <ele>51</ele>
        <time>2026-02-22T13:58:17Z</time>
      </trkpt>
      <trkpt lat="43.17746" lon="3.023">
        <ele>51</ele>
        <time>2026-02-22T13:58:19Z</time>
      </trkpt>
      <trkpt lat="43.1775" lon="3.02293">
        <ele>51</ele>
        <time>2026-02-22T13:58:21Z</time>
      </trkpt>
      <trkpt lat="43.17754" lon="3.02286">
        <ele>51</ele>
        <time>2026-02-22T13:58:23Z</time>
      </trkpt>
      <trkpt lat="43.17759" lon="3.0228">
        <ele>50</ele>
        <time>2026-02-22T13:58:25Z</time>
      </trkpt>
      <trkpt lat="43.17762" lon="3.02273">
        <ele>50</ele>
        <time>2026-02-22T13:58:27Z</time>
      </trkpt>
      <trkpt lat="43.17765" lon="3.02266">
        <ele>50</ele>
        <time>2026-02-22T13:58:29Z</time>
      </trkpt>
      <trkpt lat="43.17769" lon="3.02259">
        <ele>49</ele>
        <time>2026-02-22T13:58:31Z</time>
      </trkpt>
      <trkpt lat="43.17773" lon="3.02252">
        <ele>49</ele>
        <time>2026-02-22T13:58:33Z</time>
      </trkpt>
      <trkpt lat="43.17776" lon="3.02246">
        <ele>48</ele>
        <time>2026-02-22T13:58:35Z</time>
      </trkpt>
      <trkpt lat="43.1778" lon="3.0224">
        <ele>48</ele>
        <time>2026-02-22T13:58:37Z</time>
      </trkpt>
      <trkpt lat="43.17784" lon="3.02234">
        <ele>47</ele>
        <time>2026-02-22T13:58:39Z</time>
      </trkpt>
      <trkpt lat="43.17788" lon="3.02228">
        <ele>47</ele>
        <time>2026-02-22T13:58:41Z</time>
      </trkpt>
      <trkpt lat="43.17791" lon="3.02223">
        <ele>47</ele>
        <time>2026-02-22T13:58:43Z</time>
      </trkpt>
      <trkpt lat="43.17793" lon="3.0222">
        <ele>47</ele>
        <time>2026-02-22T13:58:45Z</time>
      </trkpt>
      <trkpt lat="43.17794" lon="3.0222">
        <ele>47</ele>
        <time>2026-02-22T13:58:47Z</time>
      </trkpt>
      <trkpt lat="43.17795" lon="3.0222">
        <ele>48</ele>
        <time>2026-02-22T13:58:49Z</time>
      </trkpt>
      <trkpt lat="43.17795" lon="3.02221">
        <ele>48</ele>
        <time>2026-02-22T13:58:51Z</time>
      </trkpt>
      <trkpt lat="43.17795" lon="3.02221">
        <ele>48</ele>
        <time>2026-02-22T13:58:53Z</time>
      </trkpt>
      <trkpt lat="43.17795" lon="3.02222">
        <ele>49</ele>
        <time>2026-02-22T13:58:55Z</time>
      </trkpt>
      <trkpt lat="43.17795" lon="3.02222">
        <ele>49</ele>
        <time>2026-02-22T13:58:57Z</time>
      </trkpt>
      <trkpt lat="43.17795" lon="3.02222">
        <ele>49</ele>
        <time>2026-02-22T13:58:59Z</time>
      </trkpt>
      <trkpt lat="43.17795" lon="3.02222">
        <ele>49</ele>
        <time>2026-02-22T13:59:01Z</time>
      </trkpt>
      <trkpt lat="43.17795" lon="3.02222">
        <ele>49</ele>
        <time>2026-02-22T13:59:03Z</time>
      </trkpt>
      <trkpt lat="43.17795" lon="3.02222">
        <ele>49</ele>
        <time>2026-02-22T13:59:05Z</time>
      </trkpt>
      <trkpt lat="43.17795" lon="3.02222">
        <ele>49</ele>
        <time>2026-02-22T13:59:07Z</time>
      </trkpt>
      <trkpt lat="43.17795" lon="3.02222">
        <ele>49</ele>
        <time>2026-02-22T13:59:09Z</time>
      </trkpt>
      <trkpt lat="43.17795" lon="3.02222">
        <ele>49</ele>
        <time>2026-02-22T13:59:11Z</time>
      </trkpt>
      <trkpt lat="43.17795" lon="3.02222">
        <ele>49</ele>
        <time>2026-02-22T13:59:13Z</time>
      </trkpt>
      <trkpt lat="43.17795" lon="3.02222">
        <ele>49</ele>
        <time>2026-02-22T13:59:15Z</time>
      </trkpt>
      <trkpt lat="43.17795" lon="3.02222">
        <ele>49</ele>
        <time>2026-02-22T13:59:17Z</time>
      </trkpt>
      <trkpt lat="43.17795" lon="3.02222">
        <ele>49</ele>
        <time>2026-02-22T13:59:19Z</time>
      </trkpt>
      <trkpt lat="43.17795" lon="3.02222">
        <ele>49</ele>
        <time>2026-02-22T13:59:21Z</time>
      </trkpt>
      <trkpt lat="43.17795" lon="3.02222">
        <ele>49</ele>
        <time>2026-02-22T13:59:23Z</time>
      </trkpt>
      <trkpt lat="43.17795" lon="3.02222">
        <ele>49</ele>
        <time>2026-02-22T13:59:25Z</time>
      </trkpt>
      <trkpt lat="43.17795" lon="3.02222">
        <ele>49</ele>
        <time>2026-02-22T13:59:27Z</time>
      </trkpt>
      <trkpt lat="43.17795" lon="3.02222">
        <ele>49</ele>
        <time>2026-02-22T13:59:29Z</time>
      </trkpt>
      <trkpt lat="43.17795" lon="3.02222">
        <ele>49</ele>
        <time>2026-02-22T13:59:31Z</time>
      </trkpt>
      <trkpt lat="43.17795" lon="3.02222">
        <ele>49</ele>
        <time>2026-02-22T13:59:33Z</time>
      </trkpt>
      <trkpt lat="43.17795" lon="3.02222">
        <ele>49</ele>
        <time>2026-02-22T13:59:35Z</time>
      </trkpt>
      <trkpt lat="43.17795" lon="3.02222">
        <ele>49</ele>
        <time>2026-02-22T13:59:37Z</time>
      </trkpt>
      <trkpt lat="43.17795" lon="3.02222">
        <ele>49</ele>
        <time>2026-02-22T13:59:39Z</time>
      </trkpt>
      <trkpt lat="43.17795" lon="3.02222">
        <ele>49</ele>
        <time>2026-02-22T13:59:41Z</time>
      </trkpt>
      <trkpt lat="43.17795" lon="3.02222">
        <ele>49</ele>
        <time>2026-02-22T13:59:43Z</time>
      </trkpt>
      <trkpt lat="43.17796" lon="3.02216">
        <ele>49</ele>
        <time>2026-02-22T13:59:45Z</time>
      </trkpt>
      <trkpt lat="43.17798" lon="3.02212">
        <ele>49</ele>
        <time>2026-02-22T13:59:47Z</time>
      </trkpt>
      <trkpt lat="43.17803" lon="3.02206">
        <ele>49</ele>
        <time>2026-02-22T13:59:49Z</time>
      </trkpt>
      <trkpt lat="43.17807" lon="3.022">
        <ele>49</ele>
        <time>2026-02-22T13:59:51Z</time>
      </trkpt>
      <trkpt lat="43.17811" lon="3.02193">
        <ele>49</ele>
        <time>2026-02-22T13:59:53Z</time>
      </trkpt>
      <trkpt lat="43.17815" lon="3.02186">
        <ele>49</ele>
        <time>2026-02-22T13:59:55Z</time>
      </trkpt>
      <trkpt lat="43.17819" lon="3.02178">
        <ele>49</ele>
        <time>2026-02-22T13:59:57Z</time>
      </trkpt>
      <trkpt lat="43.17824" lon="3.02171">
        <ele>49</ele>
        <time>2026-02-22T13:59:59Z</time>
      </trkpt>
      <trkpt lat="43.17828" lon="3.02163">
        <ele>49</ele>
        <time>2026-02-22T14:00:01Z</time>
      </trkpt>
      <trkpt lat="43.17833" lon="3.02155">
        <ele>49</ele>
        <time>2026-02-22T14:00:03Z</time>
      </trkpt>
      <trkpt lat="43.17838" lon="3.02147">
        <ele>49</ele>
        <time>2026-02-22T14:00:05Z</time>
      </trkpt>
      <trkpt lat="43.17842" lon="3.02139">
        <ele>49</ele>
        <time>2026-02-22T14:00:07Z</time>
      </trkpt>
      <trkpt lat="43.17847" lon="3.02132">
        <ele>49</ele>
        <time>2026-02-22T14:00:09Z</time>
      </trkpt>
      <trkpt lat="43.17852" lon="3.02124">
        <ele>50</ele>
        <time>2026-02-22T14:00:11Z</time>
      </trkpt>
      <trkpt lat="43.17856" lon="3.02117">
        <ele>49</ele>
        <time>2026-02-22T14:00:13Z</time>
      </trkpt>
      <trkpt lat="43.1786" lon="3.02108">
        <ele>50</ele>
        <time>2026-02-22T14:00:15Z</time>
      </trkpt>
      <trkpt lat="43.17864" lon="3.02101">
        <ele>49</ele>
        <time>2026-02-22T14:00:17Z</time>
      </trkpt>
      <trkpt lat="43.17869" lon="3.02093">
        <ele>50</ele>
        <time>2026-02-22T14:00:19Z</time>
      </trkpt>
      <trkpt lat="43.17873" lon="3.02085">
        <ele>50</ele>
        <time>2026-02-22T14:00:21Z</time>
      </trkpt>
      <trkpt lat="43.17878" lon="3.02077">
        <ele>50</ele>
        <time>2026-02-22T14:00:23Z</time>
      </trkpt>
      <trkpt lat="43.17882" lon="3.02069">
        <ele>50</ele>
        <time>2026-02-22T14:00:25Z</time>
      </trkpt>
      <trkpt lat="43.17886" lon="3.02061">
        <ele>50</ele>
        <time>2026-02-22T14:00:27Z</time>
      </trkpt>
      <trkpt lat="43.1789" lon="3.02053">
        <ele>50</ele>
        <time>2026-02-22T14:00:29Z</time>
      </trkpt>
      <trkpt lat="43.17893" lon="3.02045">
        <ele>50</ele>
        <time>2026-02-22T14:00:31Z</time>
      </trkpt>
      <trkpt lat="43.17896" lon="3.02036">
        <ele>50</ele>
        <time>2026-02-22T14:00:33Z</time>
      </trkpt>
      <trkpt lat="43.179" lon="3.02028">
        <ele>50</ele>
        <time>2026-02-22T14:00:35Z</time>
      </trkpt>
      <trkpt lat="43.17903" lon="3.0202">
        <ele>50</ele>
        <time>2026-02-22T14:00:37Z</time>
      </trkpt>
      <trkpt lat="43.17906" lon="3.02011">
        <ele>50</ele>
        <time>2026-02-22T14:00:39Z</time>
      </trkpt>
      <trkpt lat="43.17909" lon="3.02002">
        <ele>50</ele>
        <time>2026-02-22T14:00:41Z</time>
      </trkpt>
      <trkpt lat="43.17912" lon="3.01993">
        <ele>50</ele>
        <time>2026-02-22T14:00:43Z</time>
      </trkpt>
      <trkpt lat="43.17915" lon="3.01985">
        <ele>50</ele>
        <time>2026-02-22T14:00:45Z</time>
      </trkpt>
      <trkpt lat="43.17918" lon="3.01975">
        <ele>50</ele>
        <time>2026-02-22T14:00:47Z</time>
      </trkpt>
      <trkpt lat="43.17922" lon="3.01966">
        <ele>50</ele>
        <time>2026-02-22T14:00:49Z</time>
      </trkpt>
      <trkpt lat="43.17925" lon="3.01957">
        <ele>50</ele>
        <time>2026-02-22T14:00:51Z</time>
      </trkpt>
      <trkpt lat="43.17928" lon="3.01948">
        <ele>50</ele>
        <time>2026-02-22T14:00:53Z</time>
      </trkpt>
      <trkpt lat="43.17932" lon="3.01939">
        <ele>50</ele>
        <time>2026-02-22T14:00:55Z</time>
      </trkpt>
      <trkpt lat="43.17936" lon="3.0193">
        <ele>50</ele>
        <time>2026-02-22T14:00:57Z</time>
      </trkpt>
      <trkpt lat="43.17939" lon="3.01921">
        <ele>50</ele>
        <time>2026-02-22T14:00:59Z</time>
      </trkpt>
      <trkpt lat="43.17942" lon="3.01912">
        <ele>50</ele>
        <time>2026-02-22T14:01:01Z</time>
      </trkpt>
      <trkpt lat="43.17946" lon="3.01903">
        <ele>49</ele>
        <time>2026-02-22T14:01:03Z</time>
      </trkpt>
      <trkpt lat="43.17949" lon="3.01893">
        <ele>49</ele>
        <time>2026-02-22T14:01:05Z</time>
      </trkpt>
      <trkpt lat="43.17952" lon="3.01884">
        <ele>49</ele>
        <time>2026-02-22T14:01:07Z</time>
      </trkpt>
      <trkpt lat="43.17954" lon="3.01875">
        <ele>49</ele>
        <time>2026-02-22T14:01:09Z</time>
      </trkpt>
      <trkpt lat="43.17958" lon="3.01867">
        <ele>49</ele>
        <time>2026-02-22T14:01:11Z</time>
      </trkpt>
      <trkpt lat="43.17962" lon="3.01859">
        <ele>50</ele>
        <time>2026-02-22T14:01:13Z</time>
      </trkpt>
      <trkpt lat="43.17965" lon="3.0185">
        <ele>50</ele>
        <time>2026-02-22T14:01:15Z</time>
      </trkpt>
      <trkpt lat="43.17968" lon="3.01842">
        <ele>50</ele>
        <time>2026-02-22T14:01:17Z</time>
      </trkpt>
      <trkpt lat="43.17971" lon="3.01833">
        <ele>50</ele>
        <time>2026-02-22T14:01:19Z</time>
      </trkpt>
      <trkpt lat="43.17974" lon="3.01824">
        <ele>50</ele>
        <time>2026-02-22T14:01:21Z</time>
      </trkpt>
      <trkpt lat="43.17978" lon="3.01816">
        <ele>50</ele>
        <time>2026-02-22T14:01:23Z</time>
      </trkpt>
      <trkpt lat="43.1798" lon="3.01807">
        <ele>50</ele>
        <time>2026-02-22T14:01:25Z</time>
      </trkpt>
      <trkpt lat="43.17982" lon="3.01799">
        <ele>50</ele>
        <time>2026-02-22T14:01:27Z</time>
      </trkpt>
      <trkpt lat="43.17984" lon="3.0179">
        <ele>50</ele>
        <time>2026-02-22T14:01:29Z</time>
      </trkpt>
      <trkpt lat="43.17986" lon="3.01781">
        <ele>50</ele>
        <time>2026-02-22T14:01:31Z</time>
      </trkpt>
      <trkpt lat="43.17988" lon="3.01771">
        <ele>50</ele>
        <time>2026-02-22T14:01:33Z</time>
      </trkpt>
      <trkpt lat="43.1799" lon="3.01762">
        <ele>50</ele>
        <time>2026-02-22T14:01:35Z</time>
      </trkpt>
      <trkpt lat="43.17992" lon="3.01753">
        <ele>50</ele>
        <time>2026-02-22T14:01:37Z</time>
      </trkpt>
      <trkpt lat="43.17992" lon="3.01743">
        <ele>49</ele>
        <time>2026-02-22T14:01:39Z</time>
      </trkpt>
      <trkpt lat="43.17993" lon="3.01734">
        <ele>49</ele>
        <time>2026-02-22T14:01:41Z</time>
      </trkpt>
      <trkpt lat="43.17994" lon="3.01725">
        <ele>49</ele>
        <time>2026-02-22T14:01:43Z</time>
      </trkpt>
      <trkpt lat="43.17996" lon="3.01716">
        <ele>49</ele>
        <time>2026-02-22T14:01:45Z</time>
      </trkpt>
      <trkpt lat="43.17997" lon="3.01707">
        <ele>49</ele>
        <time>2026-02-22T14:01:47Z</time>
      </trkpt>
      <trkpt lat="43.17999" lon="3.01698">
        <ele>49</ele>
        <time>2026-02-22T14:01:49Z</time>
      </trkpt>
      <trkpt lat="43.18" lon="3.01689">
        <ele>49</ele>
        <time>2026-02-22T14:01:51Z</time>
      </trkpt>
      <trkpt lat="43.18001" lon="3.01681">
        <ele>49</ele>
        <time>2026-02-22T14:01:53Z</time>
      </trkpt>
      <trkpt lat="43.18003" lon="3.01672">
        <ele>49</ele>
        <time>2026-02-22T14:01:55Z</time>
      </trkpt>
      <trkpt lat="43.18004" lon="3.01663">
        <ele>50</ele>
        <time>2026-02-22T14:01:57Z</time>
      </trkpt>
      <trkpt lat="43.18005" lon="3.01654">
        <ele>50</ele>
        <time>2026-02-22T14:01:59Z</time>
      </trkpt>
      <trkpt lat="43.18005" lon="3.01645">
        <ele>50</ele>
        <time>2026-02-22T14:02:01Z</time>
      </trkpt>
      <trkpt lat="43.18005" lon="3.01635">
        <ele>49</ele>
        <time>2026-02-22T14:02:03Z</time>
      </trkpt>
      <trkpt lat="43.18006" lon="3.01626">
        <ele>49</ele>
        <time>2026-02-22T14:02:05Z</time>
      </trkpt>
      <trkpt lat="43.18007" lon="3.01616">
        <ele>49</ele>
        <time>2026-02-22T14:02:07Z</time>
      </trkpt>
      <trkpt lat="43.18008" lon="3.01606">
        <ele>49</ele>
        <time>2026-02-22T14:02:09Z</time>
      </trkpt>
      <trkpt lat="43.18009" lon="3.01597">
        <ele>49</ele>
        <time>2026-02-22T14:02:11Z</time>
      </trkpt>
      <trkpt lat="43.18009" lon="3.01587">
        <ele>49</ele>
        <time>2026-02-22T14:02:13Z</time>
      </trkpt>
      <trkpt lat="43.1801" lon="3.01578">
        <ele>48</ele>
        <time>2026-02-22T14:02:15Z</time>
      </trkpt>
      <trkpt lat="43.18011" lon="3.01568">
        <ele>48</ele>
        <time>2026-02-22T14:02:17Z</time>
      </trkpt>
      <trkpt lat="43.18011" lon="3.01559">
        <ele>49</ele>
        <time>2026-02-22T14:02:19Z</time>
      </trkpt>
      <trkpt lat="43.18012" lon="3.0155">
        <ele>49</ele>
        <time>2026-02-22T14:02:21Z</time>
      </trkpt>
      <trkpt lat="43.18012" lon="3.01541">
        <ele>49</ele>
        <time>2026-02-22T14:02:23Z</time>
      </trkpt>
      <trkpt lat="43.18012" lon="3.01532">
        <ele>48</ele>
        <time>2026-02-22T14:02:25Z</time>
      </trkpt>
      <trkpt lat="43.18012" lon="3.01523">
        <ele>48</ele>
        <time>2026-02-22T14:02:27Z</time>
      </trkpt>
      <trkpt lat="43.18013" lon="3.01514">
        <ele>48</ele>
        <time>2026-02-22T14:02:29Z</time>
      </trkpt>
      <trkpt lat="43.18013" lon="3.01505">
        <ele>48</ele>
        <time>2026-02-22T14:02:31Z</time>
      </trkpt>
      <trkpt lat="43.18014" lon="3.01496">
        <ele>48</ele>
        <time>2026-02-22T14:02:33Z</time>
      </trkpt>
      <trkpt lat="43.18015" lon="3.01486">
        <ele>49</ele>
        <time>2026-02-22T14:02:35Z</time>
      </trkpt>
      <trkpt lat="43.18016" lon="3.01478">
        <ele>49</ele>
        <time>2026-02-22T14:02:37Z</time>
      </trkpt>
      <trkpt lat="43.18016" lon="3.0147">
        <ele>49</ele>
        <time>2026-02-22T14:02:39Z</time>
      </trkpt>
      <trkpt lat="43.18016" lon="3.01463">
        <ele>48</ele>
        <time>2026-02-22T14:02:41Z</time>
      </trkpt>
      <trkpt lat="43.18016" lon="3.01456">
        <ele>48</ele>
        <time>2026-02-22T14:02:43Z</time>
      </trkpt>
      <trkpt lat="43.18015" lon="3.01449">
        <ele>47</ele>
        <time>2026-02-22T14:02:45Z</time>
      </trkpt>
      <trkpt lat="43.18013" lon="3.01441">
        <ele>47</ele>
        <time>2026-02-22T14:02:47Z</time>
      </trkpt>
      <trkpt lat="43.18011" lon="3.01433">
        <ele>46</ele>
        <time>2026-02-22T14:02:49Z</time>
      </trkpt>
      <trkpt lat="43.1801" lon="3.01426">
        <ele>46</ele>
        <time>2026-02-22T14:02:51Z</time>
      </trkpt>
      <trkpt lat="43.18008" lon="3.01419">
        <ele>46</ele>
        <time>2026-02-22T14:02:53Z</time>
      </trkpt>
      <trkpt lat="43.18006" lon="3.01412">
        <ele>48</ele>
        <time>2026-02-22T14:02:55Z</time>
      </trkpt>
      <trkpt lat="43.18004" lon="3.01405">
        <ele>48</ele>
        <time>2026-02-22T14:02:57Z</time>
      </trkpt>
      <trkpt lat="43.18001" lon="3.01398">
        <ele>48</ele>
        <time>2026-02-22T14:02:59Z</time>
      </trkpt>
      <trkpt lat="43.17999" lon="3.0139">
        <ele>48</ele>
        <time>2026-02-22T14:03:01Z</time>
      </trkpt>
      <trkpt lat="43.17997" lon="3.01383">
        <ele>48</ele>
        <time>2026-02-22T14:03:03Z</time>
      </trkpt>
      <trkpt lat="43.17995" lon="3.01376">
        <ele>48</ele>
        <time>2026-02-22T14:03:05Z</time>
      </trkpt>
      <trkpt lat="43.17993" lon="3.01369">
        <ele>48</ele>
        <time>2026-02-22T14:03:07Z</time>
      </trkpt>
      <trkpt lat="43.17993" lon="3.0136">
        <ele>48</ele>
        <time>2026-02-22T14:03:09Z</time>
      </trkpt>
      <trkpt lat="43.17995" lon="3.01353">
        <ele>48</ele>
        <time>2026-02-22T14:03:11Z</time>
      </trkpt>
      <trkpt lat="43.17997" lon="3.01348">
        <ele>49</ele>
        <time>2026-02-22T14:03:13Z</time>
      </trkpt>
      <trkpt lat="43.17998" lon="3.01343">
        <ele>50</ele>
        <time>2026-02-22T14:03:15Z</time>
      </trkpt>
      <trkpt lat="43.17998" lon="3.0134">
        <ele>51</ele>
        <time>2026-02-22T14:03:17Z</time>
      </trkpt>
      <trkpt lat="43.17998" lon="3.01339">
        <ele>53</ele>
        <time>2026-02-22T14:03:19Z</time>
      </trkpt>
      <trkpt lat="43.17999" lon="3.01336">
        <ele>56</ele>
        <time>2026-02-22T14:03:21Z</time>
      </trkpt>
      <trkpt lat="43.18004" lon="3.01331">
        <ele>56</ele>
        <time>2026-02-22T14:03:23Z</time>
      </trkpt>
      <trkpt lat="43.18009" lon="3.01327">
        <ele>56</ele>
        <time>2026-02-22T14:03:25Z</time>
      </trkpt>
      <trkpt lat="43.18014" lon="3.01326">
        <ele>57</ele>
        <time>2026-02-22T14:03:27Z</time>
      </trkpt>
      <trkpt lat="43.18019" lon="3.01326">
        <ele>58</ele>
        <time>2026-02-22T14:03:29Z</time>
      </trkpt>
      <trkpt lat="43.18023" lon="3.01325">
        <ele>57</ele>
        <time>2026-02-22T14:03:31Z</time>
      </trkpt>
      <trkpt lat="43.18027" lon="3.01322">
        <ele>57</ele>
        <time>2026-02-22T14:03:33Z</time>
      </trkpt>
      <trkpt lat="43.1803" lon="3.01315">
        <ele>56</ele>
        <time>2026-02-22T14:03:35Z</time>
      </trkpt>
      <trkpt lat="43.18033" lon="3.01309">
        <ele>55</ele>
        <time>2026-02-22T14:03:37Z</time>
      </trkpt>
      <trkpt lat="43.18033" lon="3.01304">
        <ele>54</ele>
        <time>2026-02-22T14:03:39Z</time>
      </trkpt>
      <trkpt lat="43.18035" lon="3.01299">
        <ele>54</ele>
        <time>2026-02-22T14:03:41Z</time>
      </trkpt>
      <trkpt lat="43.18035" lon="3.01297">
        <ele>53</ele>
        <time>2026-02-22T14:03:43Z</time>
      </trkpt>
      <trkpt lat="43.18035" lon="3.01294">
        <ele>53</ele>
        <time>2026-02-22T14:03:45Z</time>
      </trkpt>
      <trkpt lat="43.18035" lon="3.0129">
        <ele>52</ele>
        <time>2026-02-22T14:03:47Z</time>
      </trkpt>
      <trkpt lat="43.18036" lon="3.01285">
        <ele>52</ele>
        <time>2026-02-22T14:03:49Z</time>
      </trkpt>
      <trkpt lat="43.18036" lon="3.01279">
        <ele>52</ele>
        <time>2026-02-22T14:03:51Z</time>
      </trkpt>
      <trkpt lat="43.18037" lon="3.01273">
        <ele>51</ele>
        <time>2026-02-22T14:03:53Z</time>
      </trkpt>
      <trkpt lat="43.18038" lon="3.01269">
        <ele>51</ele>
        <time>2026-02-22T14:03:55Z</time>
      </trkpt>
      <trkpt lat="43.18039" lon="3.01265">
        <ele>51</ele>
        <time>2026-02-22T14:03:57Z</time>
      </trkpt>
      <trkpt lat="43.18039" lon="3.01261">
        <ele>51</ele>
        <time>2026-02-22T14:03:59Z</time>
      </trkpt>
      <trkpt lat="43.18039" lon="3.01257">
        <ele>51</ele>
        <time>2026-02-22T14:04:01Z</time>
      </trkpt>
      <trkpt lat="43.18038" lon="3.01254">
        <ele>51</ele>
        <time>2026-02-22T14:04:03Z</time>
      </trkpt>
      <trkpt lat="43.18038" lon="3.01252">
        <ele>51</ele>
        <time>2026-02-22T14:04:05Z</time>
      </trkpt>
      <trkpt lat="43.18038" lon="3.01252">
        <ele>51</ele>
        <time>2026-02-22T14:04:07Z</time>
      </trkpt>
      <trkpt lat="43.18039" lon="3.01253">
        <ele>51</ele>
        <time>2026-02-22T14:04:09Z</time>
      </trkpt>
      <trkpt lat="43.18039" lon="3.01253">
        <ele>51</ele>
        <time>2026-02-22T14:04:11Z</time>
      </trkpt>
      <trkpt lat="43.18038" lon="3.01253">
        <ele>52</ele>
        <time>2026-02-22T14:04:13Z</time>
      </trkpt>
      <trkpt lat="43.18038" lon="3.01253">
        <ele>52</ele>
        <time>2026-02-22T14:04:15Z</time>
      </trkpt>
      <trkpt lat="43.18038" lon="3.01253">
        <ele>52</ele>
        <time>2026-02-22T14:04:17Z</time>
      </trkpt>
      <trkpt lat="43.18038" lon="3.01253">
        <ele>52</ele>
        <time>2026-02-22T14:04:19Z</time>
      </trkpt>
      <trkpt lat="43.18038" lon="3.01253">
        <ele>52</ele>
        <time>2026-02-22T14:04:21Z</time>
      </trkpt>
      <trkpt lat="43.18038" lon="3.01253">
        <ele>52</ele>
        <time>2026-02-22T14:04:23Z</time>
      </trkpt>
      <trkpt lat="43.18038" lon="3.01253">
        <ele>52</ele>
        <time>2026-02-22T14:04:25Z</time>
      </trkpt>
      <trkpt lat="43.18038" lon="3.01253">
        <ele>52</ele>
        <time>2026-02-22T14:04:27Z</time>
      </trkpt>
      <trkpt lat="43.18038" lon="3.01253">
        <ele>52</ele>
        <time>2026-02-22T14:04:29Z</time>
      </trkpt>
      <trkpt lat="43.18038" lon="3.01253">
        <ele>52</ele>
        <time>2026-02-22T14:04:31Z</time>
      </trkpt>
      <trkpt lat="43.18038" lon="3.01253">
        <ele>52</ele>
        <time>2026-02-22T14:04:33Z</time>
      </trkpt>
      <trkpt lat="43.18038" lon="3.01253">
        <ele>52</ele>
        <time>2026-02-22T14:04:35Z</time>
      </trkpt>
      <trkpt lat="43.18038" lon="3.01253">
        <ele>52</ele>
        <time>2026-02-22T14:04:37Z</time>
      </trkpt>
      <trkpt lat="43.18038" lon="3.01253">
        <ele>52</ele>
        <time>2026-02-22T14:04:39Z</time>
      </trkpt>
      <trkpt lat="43.18038" lon="3.01253">
        <ele>52</ele>
        <time>2026-02-22T14:04:41Z</time>
      </trkpt>
      <trkpt lat="43.18038" lon="3.01253">
        <ele>52</ele>
        <time>2026-02-22T14:04:43Z</time>
      </trkpt>
      <trkpt lat="43.18042" lon="3.01248">
        <ele>51</ele>
        <time>2026-02-22T14:04:45Z</time>
      </trkpt>
      <trkpt lat="43.18043" lon="3.01246">
        <ele>51</ele>
        <time>2026-02-22T14:04:47Z</time>
      </trkpt>
      <trkpt lat="43.18043" lon="3.01242">
        <ele>51</ele>
        <time>2026-02-22T14:04:49Z</time>
      </trkpt>
      <trkpt lat="43.18044" lon="3.01237">
        <ele>51</ele>
        <time>2026-02-22T14:04:51Z</time>
      </trkpt>
      <trkpt lat="43.18045" lon="3.01231">
        <ele>52</ele>
        <time>2026-02-22T14:04:53Z</time>
      </trkpt>
      <trkpt lat="43.18046" lon="3.01225">
        <ele>52</ele>
        <time>2026-02-22T14:04:55Z</time>
      </trkpt>
      <trkpt lat="43.18047" lon="3.01219">
        <ele>52</ele>
        <time>2026-02-22T14:04:57Z</time>
      </trkpt>
      <trkpt lat="43.18048" lon="3.01214">
        <ele>52</ele>
        <time>2026-02-22T14:04:59Z</time>
      </trkpt>
      <trkpt lat="43.18047" lon="3.01208">
        <ele>52</ele>
        <time>2026-02-22T14:05:01Z</time>
      </trkpt>
      <trkpt lat="43.18047" lon="3.01203">
        <ele>52</ele>
        <time>2026-02-22T14:05:03Z</time>
      </trkpt>
      <trkpt lat="43.18047" lon="3.01197">
        <ele>52</ele>
        <time>2026-02-22T14:05:05Z</time>
      </trkpt>
      <trkpt lat="43.18048" lon="3.01192">
        <ele>51</ele>
        <time>2026-02-22T14:05:07Z</time>
      </trkpt>
      <trkpt lat="43.18048" lon="3.01188">
        <ele>51</ele>
        <time>2026-02-22T14:05:09Z</time>
      </trkpt>
      <trkpt lat="43.18049" lon="3.01183">
        <ele>51</ele>
        <time>2026-02-22T14:05:11Z</time>
      </trkpt>
      <trkpt lat="43.18049" lon="3.01179">
        <ele>51</ele>
        <time>2026-02-22T14:05:13Z</time>
      </trkpt>
      <trkpt lat="43.18049" lon="3.01176">
        <ele>51</ele>
        <time>2026-02-22T14:05:15Z</time>
      </trkpt>
      <trkpt lat="43.1805" lon="3.01172">
        <ele>51</ele>
        <time>2026-02-22T14:05:17Z</time>
      </trkpt>
      <trkpt lat="43.1805" lon="3.01169">
        <ele>51</ele>
        <time>2026-02-22T14:05:19Z</time>
      </trkpt>
      <trkpt lat="43.18047" lon="3.01167">
        <ele>51</ele>
        <time>2026-02-22T14:05:21Z</time>
      </trkpt>
      <trkpt lat="43.18042" lon="3.01166">
        <ele>51</ele>
        <time>2026-02-22T14:05:23Z</time>
      </trkpt>
      <trkpt lat="43.18038" lon="3.01166">
        <ele>51</ele>
        <time>2026-02-22T14:05:25Z</time>
      </trkpt>
      <trkpt lat="43.18033" lon="3.01166">
        <ele>50</ele>
        <time>2026-02-22T14:05:27Z</time>
      </trkpt>
      <trkpt lat="43.1803" lon="3.01166">
        <ele>49</ele>
        <time>2026-02-22T14:05:29Z</time>
      </trkpt>
      <trkpt lat="43.18028" lon="3.01163">
        <ele>49</ele>
        <time>2026-02-22T14:05:31Z</time>
      </trkpt>
      <trkpt lat="43.18028" lon="3.01158">
        <ele>48</ele>
        <time>2026-02-22T14:05:33Z</time>
      </trkpt>
      <trkpt lat="43.18027" lon="3.01153">
        <ele>48</ele>
        <time>2026-02-22T14:05:35Z</time>
      </trkpt>
      <trkpt lat="43.18027" lon="3.01148">
        <ele>48</ele>
        <time>2026-02-22T14:05:37Z</time>
      </trkpt>
      <trkpt lat="43.18027" lon="3.01142">
        <ele>48</ele>
        <time>2026-02-22T14:05:39Z</time>
      </trkpt>
      <trkpt lat="43.18026" lon="3.01136">
        <ele>48</ele>
        <time>2026-02-22T14:05:41Z</time>
      </trkpt>
      <trkpt lat="43.18027" lon="3.0113">
        <ele>49</ele>
        <time>2026-02-22T14:05:43Z</time>
      </trkpt>
      <trkpt lat="43.18027" lon="3.01124">
        <ele>50</ele>
        <time>2026-02-22T14:05:45Z</time>
      </trkpt>
      <trkpt lat="43.18027" lon="3.01119">
        <ele>50</ele>
        <time>2026-02-22T14:05:47Z</time>
      </trkpt>
      <trkpt lat="43.18028" lon="3.01113">
        <ele>50</ele>
        <time>2026-02-22T14:05:49Z</time>
      </trkpt>
      <trkpt lat="43.18029" lon="3.01108">
        <ele>51</ele>
        <time>2026-02-22T14:05:51Z</time>
      </trkpt>
      <trkpt lat="43.1803" lon="3.01103">
        <ele>51</ele>
        <time>2026-02-22T14:05:53Z</time>
      </trkpt>
      <trkpt lat="43.1803" lon="3.01099">
        <ele>51</ele>
        <time>2026-02-22T14:05:55Z</time>
      </trkpt>
      <trkpt lat="43.18031" lon="3.01094">
        <ele>51</ele>
        <time>2026-02-22T14:05:57Z</time>
      </trkpt>
      <trkpt lat="43.18031" lon="3.01089">
        <ele>50</ele>
        <time>2026-02-22T14:05:59Z</time>
      </trkpt>
      <trkpt lat="43.18032" lon="3.01084">
        <ele>50</ele>
        <time>2026-02-22T14:06:01Z</time>
      </trkpt>
      <trkpt lat="43.18032" lon="3.0108">
        <ele>50</ele>
        <time>2026-02-22T14:06:03Z</time>
      </trkpt>
      <trkpt lat="43.18033" lon="3.01076">
        <ele>50</ele>
        <time>2026-02-22T14:06:05Z</time>
      </trkpt>
      <trkpt lat="43.18034" lon="3.01072">
        <ele>50</ele>
        <time>2026-02-22T14:06:07Z</time>
      </trkpt>
      <trkpt lat="43.18034" lon="3.01067">
        <ele>50</ele>
        <time>2026-02-22T14:06:09Z</time>
      </trkpt>
      <trkpt lat="43.18034" lon="3.01064">
        <ele>50</ele>
        <time>2026-02-22T14:06:11Z</time>
      </trkpt>
      <trkpt lat="43.18034" lon="3.01061">
        <ele>49</ele>
        <time>2026-02-22T14:06:13Z</time>
      </trkpt>
      <trkpt lat="43.18035" lon="3.01058">
        <ele>49</ele>
        <time>2026-02-22T14:06:15Z</time>
      </trkpt>
      <trkpt lat="43.18035" lon="3.01054">
        <ele>49</ele>
        <time>2026-02-22T14:06:17Z</time>
      </trkpt>
      <trkpt lat="43.18035" lon="3.01051">
        <ele>49</ele>
        <time>2026-02-22T14:06:19Z</time>
      </trkpt>
      <trkpt lat="43.18036" lon="3.01048">
        <ele>49</ele>
        <time>2026-02-22T14:06:21Z</time>
      </trkpt>
      <trkpt lat="43.18036" lon="3.01045">
        <ele>49</ele>
        <time>2026-02-22T14:06:23Z</time>
      </trkpt>
      <trkpt lat="43.18038" lon="3.01042">
        <ele>49</ele>
        <time>2026-02-22T14:06:25Z</time>
      </trkpt>
      <trkpt lat="43.18038" lon="3.01038">
        <ele>49</ele>
        <time>2026-02-22T14:06:27Z</time>
      </trkpt>
      <trkpt lat="43.18038" lon="3.01035">
        <ele>49</ele>
        <time>2026-02-22T14:06:29Z</time>
      </trkpt>
      <trkpt lat="43.18039" lon="3.01031">
        <ele>49</ele>
        <time>2026-02-22T14:06:31Z</time>
      </trkpt>
      <trkpt lat="43.1804" lon="3.01028">
        <ele>49</ele>
        <time>2026-02-22T14:06:33Z</time>
      </trkpt>
      <trkpt lat="43.18041" lon="3.01024">
        <ele>49</ele>
        <time>2026-02-22T14:06:35Z</time>
      </trkpt>
      <trkpt lat="43.18042" lon="3.0102">
        <ele>49</ele>
        <time>2026-02-22T14:06:37Z</time>
      </trkpt>
      <trkpt lat="43.18042" lon="3.01017">
        <ele>49</ele>
        <time>2026-02-22T14:06:39Z</time>
      </trkpt>
      <trkpt lat="43.18043" lon="3.01014">
        <ele>49</ele>
        <time>2026-02-22T14:06:41Z</time>
      </trkpt>
      <trkpt lat="43.18043" lon="3.01012">
        <ele>49</ele>
        <time>2026-02-22T14:06:43Z</time>
      </trkpt>
      <trkpt lat="43.18043" lon="3.0101">
        <ele>49</ele>
        <time>2026-02-22T14:06:45Z</time>
      </trkpt>
      <trkpt lat="43.18044" lon="3.01008">
        <ele>49</ele>
        <time>2026-02-22T14:06:47Z</time>
      </trkpt>
      <trkpt lat="43.18044" lon="3.01006">
        <ele>49</ele>
        <time>2026-02-22T14:06:49Z</time>
      </trkpt>
      <trkpt lat="43.18044" lon="3.01004">
        <ele>49</ele>
        <time>2026-02-22T14:06:51Z</time>
      </trkpt>
      <trkpt lat="43.18044" lon="3.01002">
        <ele>49</ele>
        <time>2026-02-22T14:06:53Z</time>
      </trkpt>
      <trkpt lat="43.18045" lon="3.00999">
        <ele>49</ele>
        <time>2026-02-22T14:06:55Z</time>
      </trkpt>
      <trkpt lat="43.18044" lon="3.00996">
        <ele>49</ele>
        <time>2026-02-22T14:06:57Z</time>
      </trkpt>
      <trkpt lat="43.18045" lon="3.00994">
        <ele>49</ele>
        <time>2026-02-22T14:06:59Z</time>
      </trkpt>
      <trkpt lat="43.18045" lon="3.00992">
        <ele>49</ele>
        <time>2026-02-22T14:07:01Z</time>
      </trkpt>
      <trkpt lat="43.18045" lon="3.00989">
        <ele>50</ele>
        <time>2026-02-22T14:07:03Z</time>
      </trkpt>
      <trkpt lat="43.18046" lon="3.00987">
        <ele>50</ele>
        <time>2026-02-22T14:07:05Z</time>
      </trkpt>
      <trkpt lat="43.18047" lon="3.00984">
        <ele>51</ele>
        <time>2026-02-22T14:07:07Z</time>
      </trkpt>
      <trkpt lat="43.18047" lon="3.00981">
        <ele>51</ele>
        <time>2026-02-22T14:07:09Z</time>
      </trkpt>
      <trkpt lat="43.18048" lon="3.00978">
        <ele>51</ele>
        <time>2026-02-22T14:07:11Z</time>
      </trkpt>
      <trkpt lat="43.18049" lon="3.00974">
        <ele>51</ele>
        <time>2026-02-22T14:07:13Z</time>
      </trkpt>
      <trkpt lat="43.18048" lon="3.00971">
        <ele>51</ele>
        <time>2026-02-22T14:07:15Z</time>
      </trkpt>
      <trkpt lat="43.18048" lon="3.00968">
        <ele>51</ele>
        <time>2026-02-22T14:07:17Z</time>
      </trkpt>
      <trkpt lat="43.18049" lon="3.00964">
        <ele>51</ele>
        <time>2026-02-22T14:07:19Z</time>
      </trkpt>
      <trkpt lat="43.1805" lon="3.00963">
        <ele>51</ele>
        <time>2026-02-22T14:07:21Z</time>
      </trkpt>
      <trkpt lat="43.18054" lon="3.00961">
        <ele>51</ele>
        <time>2026-02-22T14:07:23Z</time>
      </trkpt>
      <trkpt lat="43.18057" lon="3.00958">
        <ele>51</ele>
        <time>2026-02-22T14:07:25Z</time>
      </trkpt>
      <trkpt lat="43.18059" lon="3.00957">
        <ele>51</ele>
        <time>2026-02-22T14:07:27Z</time>
      </trkpt>
      <trkpt lat="43.18062" lon="3.00957">
        <ele>52</ele>
        <time>2026-02-22T14:07:29Z</time>
      </trkpt>
      <trkpt lat="43.18064" lon="3.00957">
        <ele>52</ele>
        <time>2026-02-22T14:07:31Z</time>
      </trkpt>
      <trkpt lat="43.18067" lon="3.00957">
        <ele>52</ele>
        <time>2026-02-22T14:07:33Z</time>
      </trkpt>
      <trkpt lat="43.18069" lon="3.00953">
        <ele>52</ele>
        <time>2026-02-22T14:07:35Z</time>
      </trkpt>
      <trkpt lat="43.18072" lon="3.00946">
        <ele>52</ele>
        <time>2026-02-22T14:07:37Z</time>
      </trkpt>
      <trkpt lat="43.18075" lon="3.00939">
        <ele>51</ele>
        <time>2026-02-22T14:07:39Z</time>
      </trkpt>
      <trkpt lat="43.18077" lon="3.00933">
        <ele>51</ele>
        <time>2026-02-22T14:07:41Z</time>
      </trkpt>
      <trkpt lat="43.1808" lon="3.00927">
        <ele>51</ele>
        <time>2026-02-22T14:07:43Z</time>
      </trkpt>
      <trkpt lat="43.18081" lon="3.00921">
        <ele>50</ele>
        <time>2026-02-22T14:07:45Z</time>
      </trkpt>
      <trkpt lat="43.18084" lon="3.00915">
        <ele>50</ele>
        <time>2026-02-22T14:07:47Z</time>
      </trkpt>
      <trkpt lat="43.18087" lon="3.00915">
        <ele>51</ele>
        <time>2026-02-22T14:07:49Z</time>
      </trkpt>
      <trkpt lat="43.1809" lon="3.00915">
        <ele>52</ele>
        <time>2026-02-22T14:07:51Z</time>
      </trkpt>
      <trkpt lat="43.18092" lon="3.00913">
        <ele>52</ele>
        <time>2026-02-22T14:07:53Z</time>
      </trkpt>
      <trkpt lat="43.18094" lon="3.0091">
        <ele>53</ele>
        <time>2026-02-22T14:07:55Z</time>
      </trkpt>
      <trkpt lat="43.18097" lon="3.00905">
        <ele>53</ele>
        <time>2026-02-22T14:07:57Z</time>
      </trkpt>
      <trkpt lat="43.181" lon="3.009">
        <ele>54</ele>
        <time>2026-02-22T14:07:59Z</time>
      </trkpt>
      <trkpt lat="43.18104" lon="3.00894">
        <ele>53</ele>
        <time>2026-02-22T14:08:01Z</time>
      </trkpt>
      <trkpt lat="43.18107" lon="3.00887">
        <ele>53</ele>
        <time>2026-02-22T14:08:03Z</time>
      </trkpt>
      <trkpt lat="43.1811" lon="3.0088">
        <ele>52</ele>
        <time>2026-02-22T14:08:05Z</time>
      </trkpt>
      <trkpt lat="43.18113" lon="3.0087">
        <ele>52</ele>
        <time>2026-02-22T14:08:07Z</time>
      </trkpt>
      <trkpt lat="43.18116" lon="3.00862">
        <ele>51</ele>
        <time>2026-02-22T14:08:09Z</time>
      </trkpt>
      <trkpt lat="43.18118" lon="3.00855">
        <ele>50</ele>
        <time>2026-02-22T14:08:11Z</time>
      </trkpt>
      <trkpt lat="43.18121" lon="3.00848">
        <ele>49</ele>
        <time>2026-02-22T14:08:13Z</time>
      </trkpt>
      <trkpt lat="43.18124" lon="3.00841">
        <ele>49</ele>
        <time>2026-02-22T14:08:15Z</time>
      </trkpt>
      <trkpt lat="43.18128" lon="3.00834">
        <ele>49</ele>
        <time>2026-02-22T14:08:17Z</time>
      </trkpt>
      <trkpt lat="43.18131" lon="3.00826">
        <ele>49</ele>
        <time>2026-02-22T14:08:19Z</time>
      </trkpt>
      <trkpt lat="43.18134" lon="3.0082">
        <ele>49</ele>
        <time>2026-02-22T14:08:21Z</time>
      </trkpt>
      <trkpt lat="43.18137" lon="3.00814">
        <ele>49</ele>
        <time>2026-02-22T14:08:23Z</time>
      </trkpt>
      <trkpt lat="43.18139" lon="3.00808">
        <ele>50</ele>
        <time>2026-02-22T14:08:25Z</time>
      </trkpt>
      <trkpt lat="43.18142" lon="3.00803">
        <ele>51</ele>
        <time>2026-02-22T14:08:27Z</time>
      </trkpt>
      <trkpt lat="43.18143" lon="3.00799">
        <ele>51</ele>
        <time>2026-02-22T14:08:29Z</time>
      </trkpt>
      <trkpt lat="43.18144" lon="3.00796">
        <ele>51</ele>
        <time>2026-02-22T14:08:31Z</time>
      </trkpt>
      <trkpt lat="43.18145" lon="3.00795">
        <ele>50</ele>
        <time>2026-02-22T14:08:33Z</time>
      </trkpt>
      <trkpt lat="43.18146" lon="3.00795">
        <ele>50</ele>
        <time>2026-02-22T14:08:35Z</time>
      </trkpt>
      <trkpt lat="43.18146" lon="3.00795">
        <ele>50</ele>
        <time>2026-02-22T14:08:37Z</time>
      </trkpt>
      <trkpt lat="43.18146" lon="3.00795">
        <ele>50</ele>
        <time>2026-02-22T14:08:39Z</time>
      </trkpt>
      <trkpt lat="43.18146" lon="3.00795">
        <ele>51</ele>
        <time>2026-02-22T14:08:41Z</time>
      </trkpt>
      <trkpt lat="43.18146" lon="3.00795">
        <ele>51</ele>
        <time>2026-02-22T14:08:43Z</time>
      </trkpt>
      <trkpt lat="43.18146" lon="3.00795">
        <ele>51</ele>
        <time>2026-02-22T14:08:45Z</time>
      </trkpt>
      <trkpt lat="43.18146" lon="3.00795">
        <ele>51</ele>
        <time>2026-02-22T14:08:47Z</time>
      </trkpt>
      <trkpt lat="43.18146" lon="3.00795">
        <ele>51</ele>
        <time>2026-02-22T14:08:49Z</time>
      </trkpt>
      <trkpt lat="43.18146" lon="3.00795">
        <ele>51</ele>
        <time>2026-02-22T14:08:51Z</time>
      </trkpt>
      <trkpt lat="43.18146" lon="3.00795">
        <ele>51</ele>
        <time>2026-02-22T14:08:53Z</time>
      </trkpt>
      <trkpt lat="43.18146" lon="3.00795">
        <ele>51</ele>
        <time>2026-02-22T14:08:55Z</time>
      </trkpt>
      <trkpt lat="43.18146" lon="3.00795">
        <ele>51</ele>
        <time>2026-02-22T14:08:57Z</time>
      </trkpt>
      <trkpt lat="43.18146" lon="3.00795">
        <ele>51</ele>
        <time>2026-02-22T14:08:59Z</time>
      </trkpt>
      <trkpt lat="43.18146" lon="3.00795">
        <ele>51</ele>
        <time>2026-02-22T14:09:01Z</time>
      </trkpt>
      <trkpt lat="43.18146" lon="3.00795">
        <ele>51</ele>
        <time>2026-02-22T14:09:03Z</time>
      </trkpt>
      <trkpt lat="43.18146" lon="3.00795">
        <ele>51</ele>
        <time>2026-02-22T14:09:05Z</time>
      </trkpt>
      <trkpt lat="43.18146" lon="3.00795">
        <ele>51</ele>
        <time>2026-02-22T14:09:07Z</time>
      </trkpt>
      <trkpt lat="43.18146" lon="3.00795">
        <ele>51</ele>
        <time>2026-02-22T14:09:09Z</time>
      </trkpt>
      <trkpt lat="43.18149" lon="3.00793">
        <ele>53</ele>
        <time>2026-02-22T14:09:11Z</time>
      </trkpt>
      <trkpt lat="43.1815" lon="3.00793">
        <ele>53</ele>
        <time>2026-02-22T14:09:13Z</time>
      </trkpt>
      <trkpt lat="43.18152" lon="3.00794">
        <ele>53</ele>
        <time>2026-02-22T14:09:15Z</time>
      </trkpt>
      <trkpt lat="43.18155" lon="3.00796">
        <ele>53</ele>
        <time>2026-02-22T14:09:17Z</time>
      </trkpt>
      <trkpt lat="43.18159" lon="3.00799">
        <ele>53</ele>
        <time>2026-02-22T14:09:19Z</time>
      </trkpt>
      <trkpt lat="43.18163" lon="3.00802">
        <ele>53</ele>
        <time>2026-02-22T14:09:21Z</time>
      </trkpt>
      <trkpt lat="43.18168" lon="3.00806">
        <ele>53</ele>
        <time>2026-02-22T14:09:23Z</time>
      </trkpt>
      <trkpt lat="43.18173" lon="3.0081">
        <ele>53</ele>
        <time>2026-02-22T14:09:25Z</time>
      </trkpt>
      <trkpt lat="43.18178" lon="3.00814">
        <ele>54</ele>
        <time>2026-02-22T14:09:27Z</time>
      </trkpt>
      <trkpt lat="43.18184" lon="3.00817">
        <ele>54</ele>
        <time>2026-02-22T14:09:29Z</time>
      </trkpt>
      <trkpt lat="43.18189" lon="3.00821">
        <ele>54</ele>
        <time>2026-02-22T14:09:31Z</time>
      </trkpt>
      <trkpt lat="43.18193" lon="3.00825">
        <ele>54</ele>
        <time>2026-02-22T14:09:33Z</time>
      </trkpt>
      <trkpt lat="43.18197" lon="3.0083">
        <ele>54</ele>
        <time>2026-02-22T14:09:35Z</time>
      </trkpt>
      <trkpt lat="43.18202" lon="3.00835">
        <ele>54</ele>
        <time>2026-02-22T14:09:37Z</time>
      </trkpt>
      <trkpt lat="43.18207" lon="3.00839">
        <ele>55</ele>
        <time>2026-02-22T14:09:39Z</time>
      </trkpt>
      <trkpt lat="43.18212" lon="3.00842">
        <ele>55</ele>
        <time>2026-02-22T14:09:41Z</time>
      </trkpt>
      <trkpt lat="43.18218" lon="3.00845">
        <ele>56</ele>
        <time>2026-02-22T14:09:43Z</time>
      </trkpt>
      <trkpt lat="43.18223" lon="3.00849">
        <ele>56</ele>
        <time>2026-02-22T14:09:45Z</time>
      </trkpt>
      <trkpt lat="43.18228" lon="3.00853">
        <ele>56</ele>
        <time>2026-02-22T14:09:47Z</time>
      </trkpt>
      <trkpt lat="43.18233" lon="3.00856">
        <ele>57</ele>
        <time>2026-02-22T14:09:49Z</time>
      </trkpt>
      <trkpt lat="43.18237" lon="3.0086">
        <ele>57</ele>
        <time>2026-02-22T14:09:51Z</time>
      </trkpt>
      <trkpt lat="43.1824" lon="3.00861">
        <ele>56</ele>
        <time>2026-02-22T14:09:53Z</time>
      </trkpt>
      <trkpt lat="43.18244" lon="3.00864">
        <ele>55</ele>
        <time>2026-02-22T14:09:55Z</time>
      </trkpt>
      <trkpt lat="43.18246" lon="3.00865">
        <ele>55</ele>
        <time>2026-02-22T14:09:57Z</time>
      </trkpt>
      <trkpt lat="43.18248" lon="3.00863">
        <ele>55</ele>
        <time>2026-02-22T14:09:59Z</time>
      </trkpt>
      <trkpt lat="43.18249" lon="3.00862">
        <ele>56</ele>
        <time>2026-02-22T14:10:01Z</time>
      </trkpt>
      <trkpt lat="43.1825" lon="3.00861">
        <ele>56</ele>
        <time>2026-02-22T14:10:03Z</time>
      </trkpt>
      <trkpt lat="43.18251" lon="3.00859">
        <ele>56</ele>
        <time>2026-02-22T14:10:05Z</time>
      </trkpt>
      <trkpt lat="43.18252" lon="3.00857">
        <ele>57</ele>
        <time>2026-02-22T14:10:07Z</time>
      </trkpt>
      <trkpt lat="43.18254" lon="3.00854">
        <ele>57</ele>
        <time>2026-02-22T14:10:09Z</time>
      </trkpt>
      <trkpt lat="43.18256" lon="3.00852">
        <ele>58</ele>
        <time>2026-02-22T14:10:11Z</time>
      </trkpt>
      <trkpt lat="43.18258" lon="3.0085">
        <ele>58</ele>
        <time>2026-02-22T14:10:13Z</time>
      </trkpt>
      <trkpt lat="43.1826" lon="3.00848">
        <ele>59</ele>
        <time>2026-02-22T14:10:15Z</time>
      </trkpt>
      <trkpt lat="43.18261" lon="3.00846">
        <ele>59</ele>
        <time>2026-02-22T14:10:17Z</time>
      </trkpt>
      <trkpt lat="43.18262" lon="3.00843">
        <ele>59</ele>
        <time>2026-02-22T14:10:19Z</time>
      </trkpt>
      <trkpt lat="43.18264" lon="3.0084">
        <ele>60</ele>
        <time>2026-02-22T14:10:21Z</time>
      </trkpt>
      <trkpt lat="43.18264" lon="3.00837">
        <ele>60</ele>
        <time>2026-02-22T14:10:23Z</time>
      </trkpt>
      <trkpt lat="43.18266" lon="3.00834">
        <ele>60</ele>
        <time>2026-02-22T14:10:25Z</time>
      </trkpt>
      <trkpt lat="43.18267" lon="3.00831">
        <ele>61</ele>
        <time>2026-02-22T14:10:27Z</time>
      </trkpt>
      <trkpt lat="43.18268" lon="3.00828">
        <ele>61</ele>
        <time>2026-02-22T14:10:29Z</time>
      </trkpt>
      <trkpt lat="43.18269" lon="3.00824">
        <ele>61</ele>
        <time>2026-02-22T14:10:31Z</time>
      </trkpt>
      <trkpt lat="43.1827" lon="3.00821">
        <ele>62</ele>
        <time>2026-02-22T14:10:33Z</time>
      </trkpt>
      <trkpt lat="43.18271" lon="3.00819">
        <ele>62</ele>
        <time>2026-02-22T14:10:35Z</time>
      </trkpt>
      <trkpt lat="43.18272" lon="3.00817">
        <ele>62</ele>
        <time>2026-02-22T14:10:37Z</time>
      </trkpt>
      <trkpt lat="43.18274" lon="3.00814">
        <ele>63</ele>
        <time>2026-02-22T14:10:39Z</time>
      </trkpt>
      <trkpt lat="43.18276" lon="3.00811">
        <ele>63</ele>
        <time>2026-02-22T14:10:41Z</time>
      </trkpt>
      <trkpt lat="43.18278" lon="3.00808">
        <ele>63</ele>
        <time>2026-02-22T14:10:43Z</time>
      </trkpt>
      <trkpt lat="43.18281" lon="3.00805">
        <ele>63</ele>
        <time>2026-02-22T14:10:45Z</time>
      </trkpt>
      <trkpt lat="43.18283" lon="3.00802">
        <ele>63</ele>
        <time>2026-02-22T14:10:47Z</time>
      </trkpt>
      <trkpt lat="43.18284" lon="3.008">
        <ele>64</ele>
        <time>2026-02-22T14:10:49Z</time>
      </trkpt>
      <trkpt lat="43.18285" lon="3.00798">
        <ele>64</ele>
        <time>2026-02-22T14:10:51Z</time>
      </trkpt>
      <trkpt lat="43.18287" lon="3.00795">
        <ele>64</ele>
        <time>2026-02-22T14:10:53Z</time>
      </trkpt>
      <trkpt lat="43.18289" lon="3.00793">
        <ele>64</ele>
        <time>2026-02-22T14:10:55Z</time>
      </trkpt>
      <trkpt lat="43.1829" lon="3.0079">
        <ele>64</ele>
        <time>2026-02-22T14:10:57Z</time>
      </trkpt>
      <trkpt lat="43.18291" lon="3.00788">
        <ele>64</ele>
        <time>2026-02-22T14:10:59Z</time>
      </trkpt>
      <trkpt lat="43.1829" lon="3.00784">
        <ele>63</ele>
        <time>2026-02-22T14:11:01Z</time>
      </trkpt>
      <trkpt lat="43.1829" lon="3.0078">
        <ele>63</ele>
        <time>2026-02-22T14:11:03Z</time>
      </trkpt>
      <trkpt lat="43.18291" lon="3.00777">
        <ele>64</ele>
        <time>2026-02-22T14:11:05Z</time>
      </trkpt>
      <trkpt lat="43.18291" lon="3.00774">
        <ele>64</ele>
        <time>2026-02-22T14:11:07Z</time>
      </trkpt>
      <trkpt lat="43.18291" lon="3.00771">
        <ele>64</ele>
        <time>2026-02-22T14:11:09Z</time>
      </trkpt>
      <trkpt lat="43.18293" lon="3.00769">
        <ele>64</ele>
        <time>2026-02-22T14:11:11Z</time>
      </trkpt>
      <trkpt lat="43.18295" lon="3.00766">
        <ele>65</ele>
        <time>2026-02-22T14:11:13Z</time>
      </trkpt>
      <trkpt lat="43.18296" lon="3.0076">
        <ele>65</ele>
        <time>2026-02-22T14:11:15Z</time>
      </trkpt>
      <trkpt lat="43.18299" lon="3.00753">
        <ele>65</ele>
        <time>2026-02-22T14:11:17Z</time>
      </trkpt>
      <trkpt lat="43.18302" lon="3.00746">
        <ele>65</ele>
        <time>2026-02-22T14:11:19Z</time>
      </trkpt>
      <trkpt lat="43.18305" lon="3.00739">
        <ele>66</ele>
        <time>2026-02-22T14:11:21Z</time>
      </trkpt>
      <trkpt lat="43.18307" lon="3.00731">
        <ele>66</ele>
        <time>2026-02-22T14:11:23Z</time>
      </trkpt>
      <trkpt lat="43.18308" lon="3.00724">
        <ele>67</ele>
        <time>2026-02-22T14:11:25Z</time>
      </trkpt>
      <trkpt lat="43.18311" lon="3.00717">
        <ele>67</ele>
        <time>2026-02-22T14:11:27Z</time>
      </trkpt>
      <trkpt lat="43.18314" lon="3.00711">
        <ele>67</ele>
        <time>2026-02-22T14:11:29Z</time>
      </trkpt>
      <trkpt lat="43.18317" lon="3.00704">
        <ele>68</ele>
        <time>2026-02-22T14:11:31Z</time>
      </trkpt>
      <trkpt lat="43.1832" lon="3.00696">
        <ele>67</ele>
        <time>2026-02-22T14:11:33Z</time>
      </trkpt>
      <trkpt lat="43.18323" lon="3.00689">
        <ele>67</ele>
        <time>2026-02-22T14:11:35Z</time>
      </trkpt>
      <trkpt lat="43.18326" lon="3.00682">
        <ele>66</ele>
        <time>2026-02-22T14:11:37Z</time>
      </trkpt>
      <trkpt lat="43.18329" lon="3.00676">
        <ele>66</ele>
        <time>2026-02-22T14:11:39Z</time>
      </trkpt>
      <trkpt lat="43.1833" lon="3.00671">
        <ele>62</ele>
        <time>2026-02-22T14:11:41Z</time>
      </trkpt>
      <trkpt lat="43.18332" lon="3.00664">
        <ele>58</ele>
        <time>2026-02-22T14:11:43Z</time>
      </trkpt>
      <trkpt lat="43.18336" lon="3.00658">
        <ele>57</ele>
        <time>2026-02-22T14:11:45Z</time>
      </trkpt>
      <trkpt lat="43.18337" lon="3.00651">
        <ele>56</ele>
        <time>2026-02-22T14:11:47Z</time>
      </trkpt>
      <trkpt lat="43.18341" lon="3.00642">
        <ele>55</ele>
        <time>2026-02-22T14:11:49Z</time>
      </trkpt>
      <trkpt lat="43.18344" lon="3.00635">
        <ele>54</ele>
        <time>2026-02-22T14:11:51Z</time>
      </trkpt>
      <trkpt lat="43.18347" lon="3.00626">
        <ele>53</ele>
        <time>2026-02-22T14:11:53Z</time>
      </trkpt>
      <trkpt lat="43.18348" lon="3.00617">
        <ele>51</ele>
        <time>2026-02-22T14:11:55Z</time>
      </trkpt>
      <trkpt lat="43.1835" lon="3.00608">
        <ele>50</ele>
        <time>2026-02-22T14:11:57Z</time>
      </trkpt>
      <trkpt lat="43.18353" lon="3.006">
        <ele>49</ele>
        <time>2026-02-22T14:11:59Z</time>
      </trkpt>
      <trkpt lat="43.18356" lon="3.00592">
        <ele>48</ele>
        <time>2026-02-22T14:12:01Z</time>
      </trkpt>
      <trkpt lat="43.18359" lon="3.00584">
        <ele>47</ele>
        <time>2026-02-22T14:12:03Z</time>
      </trkpt>
      <trkpt lat="43.18362" lon="3.00575">
        <ele>46</ele>
        <time>2026-02-22T14:12:05Z</time>
      </trkpt>
      <trkpt lat="43.18363" lon="3.00566">
        <ele>45</ele>
        <time>2026-02-22T14:12:07Z</time>
      </trkpt>
      <trkpt lat="43.18365" lon="3.00557">
        <ele>44</ele>
        <time>2026-02-22T14:12:09Z</time>
      </trkpt>
      <trkpt lat="43.18364" lon="3.00548">
        <ele>44</ele>
        <time>2026-02-22T14:12:11Z</time>
      </trkpt>
      <trkpt lat="43.18366" lon="3.00539">
        <ele>45</ele>
        <time>2026-02-22T14:12:13Z</time>
      </trkpt>
      <trkpt lat="43.18368" lon="3.00531">
        <ele>44</ele>
        <time>2026-02-22T14:12:15Z</time>
      </trkpt>
      <trkpt lat="43.1837" lon="3.00524">
        <ele>43</ele>
        <time>2026-02-22T14:12:17Z</time>
      </trkpt>
      <trkpt lat="43.18372" lon="3.00518">
        <ele>43</ele>
        <time>2026-02-22T14:12:19Z</time>
      </trkpt>
      <trkpt lat="43.18376" lon="3.00509">
        <ele>45</ele>
        <time>2026-02-22T14:12:21Z</time>
      </trkpt>
      <trkpt lat="43.18379" lon="3.00501">
        <ele>46</ele>
        <time>2026-02-22T14:12:23Z</time>
      </trkpt>
      <trkpt lat="43.18382" lon="3.00493">
        <ele>46</ele>
        <time>2026-02-22T14:12:25Z</time>
      </trkpt>
      <trkpt lat="43.18386" lon="3.00487">
        <ele>46</ele>
        <time>2026-02-22T14:12:27Z</time>
      </trkpt>
      <trkpt lat="43.18389" lon="3.00481">
        <ele>45</ele>
        <time>2026-02-22T14:12:29Z</time>
      </trkpt>
      <trkpt lat="43.18387" lon="3.00474">
        <ele>45</ele>
        <time>2026-02-22T14:12:31Z</time>
      </trkpt>
      <trkpt lat="43.18388" lon="3.00469">
        <ele>46</ele>
        <time>2026-02-22T14:12:33Z</time>
      </trkpt>
      <trkpt lat="43.18389" lon="3.00465">
        <ele>47</ele>
        <time>2026-02-22T14:12:35Z</time>
      </trkpt>
      <trkpt lat="43.18389" lon="3.00463">
        <ele>50</ele>
        <time>2026-02-22T14:12:37Z</time>
      </trkpt>
      <trkpt lat="43.18389" lon="3.00461">
        <ele>50</ele>
        <time>2026-02-22T14:12:39Z</time>
      </trkpt>
      <trkpt lat="43.18389" lon="3.00461">
        <ele>50</ele>
        <time>2026-02-22T14:12:41Z</time>
      </trkpt>
      <trkpt lat="43.18389" lon="3.0046">
        <ele>50</ele>
        <time>2026-02-22T14:12:43Z</time>
      </trkpt>
      <trkpt lat="43.18388" lon="3.00458">
        <ele>51</ele>
        <time>2026-02-22T14:12:45Z</time>
      </trkpt>
      <trkpt lat="43.18388" lon="3.00458">
        <ele>51</ele>
        <time>2026-02-22T14:12:47Z</time>
      </trkpt>
      <trkpt lat="43.18388" lon="3.00458">
        <ele>51</ele>
        <time>2026-02-22T14:12:49Z</time>
      </trkpt>
      <trkpt lat="43.18388" lon="3.00458">
        <ele>51</ele>
        <time>2026-02-22T14:12:51Z</time>
      </trkpt>
      <trkpt lat="43.18388" lon="3.00458">
        <ele>51</ele>
        <time>2026-02-22T14:12:53Z</time>
      </trkpt>
      <trkpt lat="43.18389" lon="3.00455">
        <ele>52</ele>
        <time>2026-02-22T14:12:55Z</time>
      </trkpt>
      <trkpt lat="43.1839" lon="3.0045">
        <ele>53</ele>
        <time>2026-02-22T14:12:57Z</time>
      </trkpt>
      <trkpt lat="43.18392" lon="3.00443">
        <ele>54</ele>
        <time>2026-02-22T14:12:59Z</time>
      </trkpt>
      <trkpt lat="43.18394" lon="3.00438">
        <ele>54</ele>
        <time>2026-02-22T14:13:01Z</time>
      </trkpt>
      <trkpt lat="43.18396" lon="3.00431">
        <ele>55</ele>
        <time>2026-02-22T14:13:03Z</time>
      </trkpt>
      <trkpt lat="43.18397" lon="3.00426">
        <ele>57</ele>
        <time>2026-02-22T14:13:05Z</time>
      </trkpt>
      <trkpt lat="43.18394" lon="3.00422">
        <ele>58</ele>
        <time>2026-02-22T14:13:07Z</time>
      </trkpt>
      <trkpt lat="43.18388" lon="3.00417">
        <ele>59</ele>
        <time>2026-02-22T14:13:09Z</time>
      </trkpt>
      <trkpt lat="43.18383" lon="3.00411">
        <ele>60</ele>
        <time>2026-02-22T14:13:11Z</time>
      </trkpt>
      <trkpt lat="43.18379" lon="3.00406">
        <ele>61</ele>
        <time>2026-02-22T14:13:13Z</time>
      </trkpt>
      <trkpt lat="43.18374" lon="3.00402">
        <ele>62</ele>
        <time>2026-02-22T14:13:15Z</time>
      </trkpt>
      <trkpt lat="43.1837" lon="3.00399">
        <ele>64</ele>
        <time>2026-02-22T14:13:17Z</time>
      </trkpt>
      <trkpt lat="43.18368" lon="3.00397">
        <ele>65</ele>
        <time>2026-02-22T14:13:19Z</time>
      </trkpt>
      <trkpt lat="43.18368" lon="3.00394">
        <ele>66</ele>
        <time>2026-02-22T14:13:21Z</time>
      </trkpt>
      <trkpt lat="43.18369" lon="3.00389">
        <ele>67</ele>
        <time>2026-02-22T14:13:23Z</time>
      </trkpt>
      <trkpt lat="43.18372" lon="3.00382">
        <ele>67</ele>
        <time>2026-02-22T14:13:25Z</time>
      </trkpt>
      <trkpt lat="43.18375" lon="3.00374">
        <ele>67</ele>
        <time>2026-02-22T14:13:27Z</time>
      </trkpt>
      <trkpt lat="43.18377" lon="3.00367">
        <ele>67</ele>
        <time>2026-02-22T14:13:29Z</time>
      </trkpt>
      <trkpt lat="43.1838" lon="3.00361">
        <ele>67</ele>
        <time>2026-02-22T14:13:31Z</time>
      </trkpt>
      <trkpt lat="43.18383" lon="3.00355">
        <ele>65</ele>
        <time>2026-02-22T14:13:33Z</time>
      </trkpt>
      <trkpt lat="43.18386" lon="3.00349">
        <ele>65</ele>
        <time>2026-02-22T14:13:35Z</time>
      </trkpt>
      <trkpt lat="43.18389" lon="3.00343">
        <ele>63</ele>
        <time>2026-02-22T14:13:37Z</time>
      </trkpt>
      <trkpt lat="43.18391" lon="3.00336">
        <ele>62</ele>
        <time>2026-02-22T14:13:39Z</time>
      </trkpt>
      <trkpt lat="43.18393" lon="3.00329">
        <ele>62</ele>
        <time>2026-02-22T14:13:41Z</time>
      </trkpt>
      <trkpt lat="43.18395" lon="3.00323">
        <ele>61</ele>
        <time>2026-02-22T14:13:43Z</time>
      </trkpt>
      <trkpt lat="43.18397" lon="3.00316">
        <ele>61</ele>
        <time>2026-02-22T14:13:45Z</time>
      </trkpt>
      <trkpt lat="43.18399" lon="3.0031">
        <ele>61</ele>
        <time>2026-02-22T14:13:47Z</time>
      </trkpt>
      <trkpt lat="43.18401" lon="3.00304">
        <ele>60</ele>
        <time>2026-02-22T14:13:49Z</time>
      </trkpt>
      <trkpt lat="43.18402" lon="3.00297">
        <ele>59</ele>
        <time>2026-02-22T14:13:51Z</time>
      </trkpt>
      <trkpt lat="43.18404" lon="3.00291">
        <ele>58</ele>
        <time>2026-02-22T14:13:53Z</time>
      </trkpt>
      <trkpt lat="43.18406" lon="3.00285">
        <ele>57</ele>
        <time>2026-02-22T14:13:55Z</time>
      </trkpt>
      <trkpt lat="43.18409" lon="3.0028">
        <ele>59</ele>
        <time>2026-02-22T14:13:57Z</time>
      </trkpt>
      <trkpt lat="43.18413" lon="3.00275">
        <ele>60</ele>
        <time>2026-02-22T14:13:59Z</time>
      </trkpt>
      <trkpt lat="43.18416" lon="3.0027">
        <ele>61</ele>
        <time>2026-02-22T14:14:01Z</time>
      </trkpt>
      <trkpt lat="43.18419" lon="3.00264">
        <ele>61</ele>
        <time>2026-02-22T14:14:03Z</time>
      </trkpt>
      <trkpt lat="43.18423" lon="3.00257">
        <ele>60</ele>
        <time>2026-02-22T14:14:05Z</time>
      </trkpt>
      <trkpt lat="43.18426" lon="3.0025">
        <ele>61</ele>
        <time>2026-02-22T14:14:07Z</time>
      </trkpt>
      <trkpt lat="43.1843" lon="3.00244">
        <ele>61</ele>
        <time>2026-02-22T14:14:09Z</time>
      </trkpt>
      <trkpt lat="43.18433" lon="3.00235">
        <ele>62</ele>
        <time>2026-02-22T14:14:11Z</time>
      </trkpt>
      <trkpt lat="43.18437" lon="3.00227">
        <ele>61</ele>
        <time>2026-02-22T14:14:13Z</time>
      </trkpt>
      <trkpt lat="43.1844" lon="3.00218">
        <ele>58</ele>
        <time>2026-02-22T14:14:15Z</time>
      </trkpt>
      <trkpt lat="43.18444" lon="3.00209">
        <ele>57</ele>
        <time>2026-02-22T14:14:17Z</time>
      </trkpt>
      <trkpt lat="43.18447" lon="3.00201">
        <ele>53</ele>
        <time>2026-02-22T14:14:19Z</time>
      </trkpt>
      <trkpt lat="43.1845" lon="3.00195">
        <ele>50</ele>
        <time>2026-02-22T14:14:21Z</time>
      </trkpt>
      <trkpt lat="43.18452" lon="3.00188">
        <ele>49</ele>
        <time>2026-02-22T14:14:23Z</time>
      </trkpt>
      <trkpt lat="43.18456" lon="3.00182">
        <ele>49</ele>
        <time>2026-02-22T14:14:25Z</time>
      </trkpt>
      <trkpt lat="43.18459" lon="3.00178">
        <ele>49</ele>
        <time>2026-02-22T14:14:27Z</time>
      </trkpt>
      <trkpt lat="43.18463" lon="3.00176">
        <ele>50</ele>
        <time>2026-02-22T14:14:29Z</time>
      </trkpt>
      <trkpt lat="43.18465" lon="3.00176">
        <ele>51</ele>
        <time>2026-02-22T14:14:31Z</time>
      </trkpt>
      <trkpt lat="43.18467" lon="3.00177">
        <ele>50</ele>
        <time>2026-02-22T14:14:33Z</time>
      </trkpt>
      <trkpt lat="43.18469" lon="3.00178">
        <ele>50</ele>
        <time>2026-02-22T14:14:35Z</time>
      </trkpt>
      <trkpt lat="43.18471" lon="3.00178">
        <ele>51</ele>
        <time>2026-02-22T14:14:37Z</time>
      </trkpt>
      <trkpt lat="43.18473" lon="3.00178">
        <ele>51</ele>
        <time>2026-02-22T14:14:39Z</time>
      </trkpt>
      <trkpt lat="43.18475" lon="3.00179">
        <ele>51</ele>
        <time>2026-02-22T14:14:41Z</time>
      </trkpt>
      <trkpt lat="43.18477" lon="3.00181">
        <ele>50</ele>
        <time>2026-02-22T14:14:43Z</time>
      </trkpt>
      <trkpt lat="43.18479" lon="3.00182">
        <ele>50</ele>
        <time>2026-02-22T14:14:45Z</time>
      </trkpt>
      <trkpt lat="43.18481" lon="3.00183">
        <ele>50</ele>
        <time>2026-02-22T14:14:47Z</time>
      </trkpt>
      <trkpt lat="43.18482" lon="3.00183">
        <ele>50</ele>
        <time>2026-02-22T14:14:49Z</time>
      </trkpt>
      <trkpt lat="43.18484" lon="3.00185">
        <ele>50</ele>
        <time>2026-02-22T14:14:51Z</time>
      </trkpt>
      <trkpt lat="43.18485" lon="3.00186">
        <ele>51</ele>
        <time>2026-02-22T14:14:53Z</time>
      </trkpt>
      <trkpt lat="43.18486" lon="3.00187">
        <ele>51</ele>
        <time>2026-02-22T14:14:55Z</time>
      </trkpt>
      <trkpt lat="43.18486" lon="3.00186">
        <ele>51</ele>
        <time>2026-02-22T14:14:57Z</time>
      </trkpt>
      <trkpt lat="43.18487" lon="3.00185">
        <ele>52</ele>
        <time>2026-02-22T14:14:59Z</time>
      </trkpt>
      <trkpt lat="43.18487" lon="3.00183">
        <ele>52</ele>
        <time>2026-02-22T14:15:01Z</time>
      </trkpt>
      <trkpt lat="43.18487" lon="3.00183">
        <ele>52</ele>
        <time>2026-02-22T14:15:03Z</time>
      </trkpt>
      <trkpt lat="43.18487" lon="3.00183">
        <ele>52</ele>
        <time>2026-02-22T14:15:05Z</time>
      </trkpt>
      <trkpt lat="43.18487" lon="3.00183">
        <ele>52</ele>
        <time>2026-02-22T14:15:07Z</time>
      </trkpt>
      <trkpt lat="43.18487" lon="3.00183">
        <ele>52</ele>
        <time>2026-02-22T14:15:09Z</time>
      </trkpt>
      <trkpt lat="43.18487" lon="3.00183">
        <ele>52</ele>
        <time>2026-02-22T14:15:11Z</time>
      </trkpt>
      <trkpt lat="43.18487" lon="3.00183">
        <ele>52</ele>
        <time>2026-02-22T14:15:13Z</time>
      </trkpt>
      <trkpt lat="43.18487" lon="3.00183">
        <ele>52</ele>
        <time>2026-02-22T14:15:15Z</time>
      </trkpt>
      <trkpt lat="43.18487" lon="3.00183">
        <ele>52</ele>
        <time>2026-02-22T14:15:17Z</time>
      </trkpt>
      <trkpt lat="43.18487" lon="3.00183">
        <ele>52</ele>
        <time>2026-02-22T14:15:19Z</time>
      </trkpt>
      <trkpt lat="43.18487" lon="3.00183">
        <ele>52</ele>
        <time>2026-02-22T14:15:21Z</time>
      </trkpt>
      <trkpt lat="43.18487" lon="3.00183">
        <ele>52</ele>
        <time>2026-02-22T14:15:23Z</time>
      </trkpt>
    </trkseg>
  </trk>
</gpx>